﻿<?xml version="1.0" encoding="utf-8"?><gpx creator="Garmin Desktop App" version="1.1" xsi:schemaLocation="http://www.topografix.com/GPX/1/1 http://www.topografix.com/GPX/1/1/gpx.xsd http://www.garmin.com/xmlschemas/WaypointExtension/v1 http://www8.garmin.com/xmlschemas/WaypointExtensionv1.xsd http://www.garmin.com/xmlschemas/TrackPointExtension/v1 http://www.garmin.com/xmlschemas/TrackPointExtensionv1.xsd http://www.garmin.com/xmlschemas/GpxExtensions/v3 http://www8.garmin.com/xmlschemas/GpxExtensionsv3.xsd http://www.garmin.com/xmlschemas/ActivityExtension/v1 http://www8.garmin.com/xmlschemas/ActivityExtensionv1.xsd http://www.garmin.com/xmlschemas/AdventuresExtensions/v1 http://www8.garmin.com/xmlschemas/AdventuresExtensionv1.xsd http://www.garmin.com/xmlschemas/PressureExtension/v1 http://www.garmin.com/xmlschemas/PressureExtensionv1.xsd http://www.garmin.com/xmlschemas/TripExtensions/v1 http://www.garmin.com/xmlschemas/TripExtensionsv1.xsd http://www.garmin.com/xmlschemas/TripMetaDataExtensions/v1 http://www.garmin.com/xmlschemas/TripMetaDataExtensionsv1.xsd http://www.garmin.com/xmlschemas/ViaPointTransportationModeExtensions/v1 http://www.garmin.com/xmlschemas/ViaPointTransportationModeExtensionsv1.xsd http://www.garmin.com/xmlschemas/CreationTimeExtension/v1 http://www.garmin.com/xmlschemas/CreationTimeExtensionsv1.xsd http://www.garmin.com/xmlschemas/AccelerationExtension/v1 http://www.garmin.com/xmlschemas/AccelerationExtensionv1.xsd http://www.garmin.com/xmlschemas/PowerExtension/v1 http://www.garmin.com/xmlschemas/PowerExtensionv1.xsd http://www.garmin.com/xmlschemas/VideoExtension/v1 http://www.garmin.com/xmlschemas/VideoExtensionv1.xsd" xmlns="http://www.topografix.com/GPX/1/1" xmlns:xsi="http://www.w3.org/2001/XMLSchema-instance" xmlns:wptx1="http://www.garmin.com/xmlschemas/WaypointExtension/v1" xmlns:gpxtrx="http://www.garmin.com/xmlschemas/GpxExtensions/v3" xmlns:gpxtpx="http://www.garmin.com/xmlschemas/TrackPointExtension/v1" xmlns:gpxx="http://www.garmin.com/xmlschemas/GpxExtensions/v3" xmlns:trp="http://www.garmin.com/xmlschemas/TripExtensions/v1" xmlns:adv="http://www.garmin.com/xmlschemas/AdventuresExtensions/v1" xmlns:prs="http://www.garmin.com/xmlschemas/PressureExtension/v1" xmlns:tmd="http://www.garmin.com/xmlschemas/TripMetaDataExtensions/v1" xmlns:vptm="http://www.garmin.com/xmlschemas/ViaPointTransportationModeExtensions/v1" xmlns:ctx="http://www.garmin.com/xmlschemas/CreationTimeExtension/v1" xmlns:gpxacc="http://www.garmin.com/xmlschemas/AccelerationExtension/v1" xmlns:gpxpx="http://www.garmin.com/xmlschemas/PowerExtension/v1" xmlns:vidx1="http://www.garmin.com/xmlschemas/VideoExtension/v1">

  <metadata>
    <link href="http://www.garmin.com">
      <text>Garmin International</text>
    </link>
    <time>2025-05-02T16:22:24Z</time>
    <bounds maxlat="42.883241968229413" maxlon="-7.081281999126077" minlat="41.082357969135046" minlon="-8.552834987640381" />
  </metadata>

  <trk>
    <name>250502_G_Track</name>
    <extensions>
      <gpxx:TrackExtension>
        <gpxx:DisplayColor>DarkGray</gpxx:DisplayColor>
      </gpxx:TrackExtension>
    </extensions>
    <trkseg>
      <trkpt lat="42.883095033466816" lon="-8.542542010545731">
        <ele>308.24000000000001</ele>
        <time>2025-05-02T06:18:02Z</time>
      </trkpt>
      <trkpt lat="42.883222019299865" lon="-8.542405972257257">
        <ele>303.43000000000001</ele>
        <time>2025-05-02T06:18:40Z</time>
      </trkpt>
      <trkpt lat="42.883235011249781" lon="-8.542388034984469">
        <ele>305.83999999999997</ele>
        <time>2025-05-02T06:19:23Z</time>
      </trkpt>
      <trkpt lat="42.883241968229413" lon="-8.54238904081285">
        <ele>306.80000000000001</ele>
        <time>2025-05-02T06:19:59Z</time>
      </trkpt>
      <trkpt lat="42.883237022906542" lon="-8.54238904081285">
        <ele>306.80000000000001</ele>
        <time>2025-05-02T06:20:32Z</time>
      </trkpt>
      <trkpt lat="42.883237022906542" lon="-8.54238904081285">
        <ele>305.83999999999997</ele>
        <time>2025-05-02T06:21:12Z</time>
      </trkpt>
      <trkpt lat="42.883237022906542" lon="-8.54239096865058">
        <ele>305.83999999999997</ele>
        <time>2025-05-02T06:21:47Z</time>
      </trkpt>
      <trkpt lat="42.883237022906542" lon="-8.54239096865058">
        <ele>305.83999999999997</ele>
        <time>2025-05-02T06:22:12Z</time>
      </trkpt>
      <trkpt lat="42.8832340054214" lon="-8.54238904081285">
        <ele>305.36000000000001</ele>
        <time>2025-05-02T06:22:46Z</time>
      </trkpt>
      <trkpt lat="42.883232999593019" lon="-8.542386023327708">
        <ele>305.36000000000001</ele>
        <time>2025-05-02T06:23:18Z</time>
      </trkpt>
      <trkpt lat="42.8832340054214" lon="-8.542385017499328">
        <ele>304.88</ele>
        <time>2025-05-02T06:23:50Z</time>
      </trkpt>
      <trkpt lat="42.883229982107878" lon="-8.542383005842567">
        <ele>304.88</ele>
        <time>2025-05-02T06:24:29Z</time>
      </trkpt>
      <trkpt lat="42.883228976279497" lon="-8.542383005842567">
        <ele>304.88</ele>
        <time>2025-05-02T06:25:12Z</time>
      </trkpt>
      <trkpt lat="42.883228976279497" lon="-8.542383005842567">
        <ele>304.88</ele>
        <time>2025-05-02T06:25:16Z</time>
      </trkpt>
      <trkpt lat="42.883198969066143" lon="-8.542323997244239">
        <ele>302.47000000000003</ele>
        <time>2025-05-02T06:25:24Z</time>
      </trkpt>
      <trkpt lat="42.883114982396364" lon="-8.542171027511358">
        <ele>301.02999999999997</ele>
        <time>2025-05-02T06:25:37Z</time>
      </trkpt>
      <trkpt lat="42.882935022935271" lon="-8.541548000648618">
        <ele>297.18000000000001</ele>
        <time>2025-05-02T06:25:44Z</time>
      </trkpt>
      <trkpt lat="42.882541995495558" lon="-8.54073403403163">
        <ele>291.42000000000002</ele>
        <time>2025-05-02T06:25:53Z</time>
      </trkpt>
      <trkpt lat="42.882431019097567" lon="-8.540590032935143">
        <ele>289.49000000000001</ele>
        <time>2025-05-02T06:25:55Z</time>
      </trkpt>
      <trkpt lat="42.882377039641142" lon="-8.54051903821528">
        <ele>289.00999999999999</ele>
        <time>2025-05-02T06:25:56Z</time>
      </trkpt>
      <trkpt lat="42.882319958880544" lon="-8.540450977161527">
        <ele>288.05000000000001</ele>
        <time>2025-05-02T06:25:57Z</time>
      </trkpt>
      <trkpt lat="42.882203031331301" lon="-8.540321979671717">
        <ele>286.61000000000001</ele>
        <time>2025-05-02T06:25:59Z</time>
      </trkpt>
      <trkpt lat="42.882144022732973" lon="-8.540256014093757">
        <ele>286.13</ele>
        <time>2025-05-02T06:26:00Z</time>
      </trkpt>
      <trkpt lat="42.882061041891575" lon="-8.540213014930487">
        <ele>285.64999999999998</ele>
        <time>2025-05-02T06:26:01Z</time>
      </trkpt>
      <trkpt lat="42.881980994716287" lon="-8.540190970525146">
        <ele>285.17000000000002</ele>
        <time>2025-05-02T06:26:02Z</time>
      </trkpt>
      <trkpt lat="42.881898013874888" lon="-8.54017898440361">
        <ele>284.69</ele>
        <time>2025-05-02T06:26:03Z</time>
      </trkpt>
      <trkpt lat="42.881819978356361" lon="-8.540174961090088">
        <ele>284.20999999999998</ele>
        <time>2025-05-02T06:26:04Z</time>
      </trkpt>
      <trkpt lat="42.88143097423017" lon="-8.540174961090088">
        <ele>277.95999999999998</ele>
        <time>2025-05-02T06:26:10Z</time>
      </trkpt>
      <trkpt lat="42.88136500865221" lon="-8.54017898440361">
        <ele>277</ele>
        <time>2025-05-02T06:26:11Z</time>
      </trkpt>
      <trkpt lat="42.881303988397121" lon="-8.540187031030655">
        <ele>276.51999999999998</ele>
        <time>2025-05-02T06:26:12Z</time>
      </trkpt>
      <trkpt lat="42.880988996475935" lon="-8.540257019922137">
        <ele>272.19</ele>
        <time>2025-05-02T06:26:17Z</time>
      </trkpt>
      <trkpt lat="42.880928982049227" lon="-8.540283003821969">
        <ele>271.70999999999998</ele>
        <time>2025-05-02T06:26:18Z</time>
      </trkpt>
      <trkpt lat="42.880809959024191" lon="-8.540334971621633">
        <ele>270.26999999999998</ele>
        <time>2025-05-02T06:26:20Z</time>
      </trkpt>
      <trkpt lat="42.880747010931373" lon="-8.540361961349845">
        <ele>269.79000000000002</ele>
        <time>2025-05-02T06:26:21Z</time>
      </trkpt>
      <trkpt lat="42.880564033985138" lon="-8.540452988818288">
        <ele>268.82999999999998</ele>
        <time>2025-05-02T06:26:24Z</time>
      </trkpt>
      <trkpt lat="42.880437970161438" lon="-8.540516020730138">
        <ele>268.35000000000002</ele>
        <time>2025-05-02T06:26:26Z</time>
      </trkpt>
      <trkpt lat="42.880377033725381" lon="-8.540546027943492">
        <ele>267.86000000000001</ele>
        <time>2025-05-02T06:26:27Z</time>
      </trkpt>
      <trkpt lat="42.880317019298673" lon="-8.540576035156846">
        <ele>267.86000000000001</ele>
        <time>2025-05-02T06:26:28Z</time>
      </trkpt>
      <trkpt lat="42.880253987386823" lon="-8.540609981864691">
        <ele>267.38</ele>
        <time>2025-05-02T06:26:29Z</time>
      </trkpt>
      <trkpt lat="42.880190033465624" lon="-8.540645018219948">
        <ele>266.89999999999998</ele>
        <time>2025-05-02T06:26:30Z</time>
      </trkpt>
      <trkpt lat="42.879491988569498" lon="-8.540921034291387">
        <ele>265.45999999999998</ele>
        <time>2025-05-02T06:26:41Z</time>
      </trkpt>
      <trkpt lat="42.879428034648299" lon="-8.540944000706077">
        <ele>264.98000000000002</ele>
        <time>2025-05-02T06:26:42Z</time>
      </trkpt>
      <trkpt lat="42.879365002736449" lon="-8.540966967120767">
        <ele>264.98000000000002</ele>
        <time>2025-05-02T06:26:43Z</time>
      </trkpt>
      <trkpt lat="42.879301970824599" lon="-8.540990017354488">
        <ele>264.5</ele>
        <time>2025-05-02T06:26:44Z</time>
      </trkpt>
      <trkpt lat="42.879056967794895" lon="-8.541083978489041">
        <ele>264.01999999999998</ele>
        <time>2025-05-02T06:26:48Z</time>
      </trkpt>
      <trkpt lat="42.878997959196568" lon="-8.541109040379524">
        <ele>264.01999999999998</ele>
        <time>2025-05-02T06:26:49Z</time>
      </trkpt>
      <trkpt lat="42.878944985568523" lon="-8.541128989309073">
        <ele>263.54000000000002</ele>
        <time>2025-05-02T06:26:50Z</time>
      </trkpt>
      <trkpt lat="42.878725966438651" lon="-8.54120803065598">
        <ele>263.06</ele>
        <time>2025-05-02T06:26:54Z</time>
      </trkpt>
      <trkpt lat="42.878609038889408" lon="-8.541248012334108">
        <ele>262.57999999999998</ele>
        <time>2025-05-02T06:26:56Z</time>
      </trkpt>
      <trkpt lat="42.878209976479411" lon="-8.541493015363812">
        <ele>261.13999999999999</ele>
        <time>2025-05-02T06:27:05Z</time>
      </trkpt>
      <trkpt lat="42.87816203199327" lon="-8.541525034233928">
        <ele>261.13999999999999</ele>
        <time>2025-05-02T06:27:06Z</time>
      </trkpt>
      <trkpt lat="42.878112997859716" lon="-8.541567027568817">
        <ele>261.13999999999999</ele>
        <time>2025-05-02T06:27:07Z</time>
      </trkpt>
      <trkpt lat="42.878063041716814" lon="-8.541612038388848">
        <ele>261.13999999999999</ele>
        <time>2025-05-02T06:27:08Z</time>
      </trkpt>
      <trkpt lat="42.878015013411641" lon="-8.541654031723738">
        <ele>260.64999999999998</ele>
        <time>2025-05-02T06:27:09Z</time>
      </trkpt>
      <trkpt lat="42.877964973449707" lon="-8.541698958724737">
        <ele>260.64999999999998</ele>
        <time>2025-05-02T06:27:10Z</time>
      </trkpt>
      <trkpt lat="42.877937983721495" lon="-8.541753022000194">
        <ele>260.64999999999998</ele>
        <time>2025-05-02T06:27:11Z</time>
      </trkpt>
      <trkpt lat="42.877913005650043" lon="-8.541802978143096">
        <ele>260.64999999999998</ele>
        <time>2025-05-02T06:27:12Z</time>
      </trkpt>
      <trkpt lat="42.877885010093451" lon="-8.541859975084662">
        <ele>260.64999999999998</ele>
        <time>2025-05-02T06:27:13Z</time>
      </trkpt>
      <trkpt lat="42.877857014536858" lon="-8.541915966197848">
        <ele>260.17000000000002</ele>
        <time>2025-05-02T06:27:14Z</time>
      </trkpt>
      <trkpt lat="42.877830024808645" lon="-8.541971035301685">
        <ele>260.17000000000002</ele>
        <time>2025-05-02T06:27:15Z</time>
      </trkpt>
      <trkpt lat="42.877804040908813" lon="-8.542021997272968">
        <ele>260.17000000000002</ele>
        <time>2025-05-02T06:27:16Z</time>
      </trkpt>
      <trkpt lat="42.877750983461738" lon="-8.542128028348088">
        <ele>260.17000000000002</ele>
        <time>2025-05-02T06:27:18Z</time>
      </trkpt>
      <trkpt lat="42.87773204036057" lon="-8.542173039168119">
        <ele>260.17000000000002</ele>
        <time>2025-05-02T06:27:19Z</time>
      </trkpt>
      <trkpt lat="42.877625003457069" lon="-8.542401026934385">
        <ele>258.73000000000002</ele>
        <time>2025-05-02T06:27:26Z</time>
      </trkpt>
      <trkpt lat="42.877590972930193" lon="-8.542443020269275">
        <ele>258.25</ele>
        <time>2025-05-02T06:27:27Z</time>
      </trkpt>
      <trkpt lat="42.8775629773736" lon="-8.542421981692314">
        <ele>258.25</ele>
        <time>2025-05-02T06:27:28Z</time>
      </trkpt>
      <trkpt lat="42.877530036494136" lon="-8.542397003620863">
        <ele>257.76999999999998</ele>
        <time>2025-05-02T06:27:29Z</time>
      </trkpt>
      <trkpt lat="42.877491982653737" lon="-8.54236900806427">
        <ele>257.29000000000002</ele>
        <time>2025-05-02T06:27:30Z</time>
      </trkpt>
      <trkpt lat="42.877217978239059" lon="-8.542165998369455">
        <ele>254.88999999999999</ele>
        <time>2025-05-02T06:27:36Z</time>
      </trkpt>
      <trkpt lat="42.877008011564612" lon="-8.542010011151433">
        <ele>252.96000000000001</ele>
        <time>2025-05-02T06:27:40Z</time>
      </trkpt>
      <trkpt lat="42.876955959945917" lon="-8.541972041130066">
        <ele>252.96000000000001</ele>
        <time>2025-05-02T06:27:41Z</time>
      </trkpt>
      <trkpt lat="42.876936011016369" lon="-8.541956031695008">
        <ele>252.96000000000001</ele>
        <time>2025-05-02T06:27:42Z</time>
      </trkpt>
      <trkpt lat="42.87689502350986" lon="-8.541899034753442">
        <ele>252.47999999999999</ele>
        <time>2025-05-02T06:27:43Z</time>
      </trkpt>
      <trkpt lat="42.876864010468125" lon="-8.541854023933411">
        <ele>252</ele>
        <time>2025-05-02T06:27:44Z</time>
      </trkpt>
      <trkpt lat="42.876864010468125" lon="-8.541854023933411">
        <ele>251.52000000000001</ele>
        <time>2025-05-02T06:27:45Z</time>
      </trkpt>
      <trkpt lat="42.876789998263121" lon="-8.541747992858291">
        <ele>251.52000000000001</ele>
        <time>2025-05-02T06:27:46Z</time>
      </trkpt>
      <trkpt lat="42.876714980229735" lon="-8.541641039773822">
        <ele>250.56</ele>
        <time>2025-05-02T06:27:48Z</time>
      </trkpt>
      <trkpt lat="42.876669969409704" lon="-8.541577002033591">
        <ele>250.08000000000001</ele>
        <time>2025-05-02T06:27:49Z</time>
      </trkpt>
      <trkpt lat="42.876255987212062" lon="-8.540905024856329">
        <ele>248.63999999999999</ele>
        <time>2025-05-02T06:27:59Z</time>
      </trkpt>
      <trkpt lat="42.876175018027425" lon="-8.540770998224616">
        <ele>248.16</ele>
        <time>2025-05-02T06:28:01Z</time>
      </trkpt>
      <trkpt lat="42.876136964187026" lon="-8.540709977969527">
        <ele>247.68000000000001</ele>
        <time>2025-05-02T06:28:02Z</time>
      </trkpt>
      <trkpt lat="42.87605800665915" lon="-8.540579974651337">
        <ele>247.19999999999999</ele>
        <time>2025-05-02T06:28:04Z</time>
      </trkpt>
      <trkpt lat="42.875981982797384" lon="-8.54045600630343">
        <ele>246.72</ele>
        <time>2025-05-02T06:28:06Z</time>
      </trkpt>
      <trkpt lat="42.875946024432778" lon="-8.540395991876721">
        <ele>246.22999999999999</ele>
        <time>2025-05-02T06:28:07Z</time>
      </trkpt>
      <trkpt lat="42.875752989202738" lon="-8.540209997445345">
        <ele>243.83000000000001</ele>
        <time>2025-05-02T06:28:13Z</time>
      </trkpt>
      <trkpt lat="42.875730022788048" lon="-8.540238998830319">
        <ele>243.34999999999999</ele>
        <time>2025-05-02T06:28:14Z</time>
      </trkpt>
      <trkpt lat="42.875712001696229" lon="-8.540260959416628">
        <ele>243.34999999999999</ele>
        <time>2025-05-02T06:28:15Z</time>
      </trkpt>
      <trkpt lat="42.875669002532959" lon="-8.540324997156858">
        <ele>242.87</ele>
        <time>2025-05-02T06:28:16Z</time>
      </trkpt>
      <trkpt lat="42.875635977834463" lon="-8.540375959128141">
        <ele>242.87</ele>
        <time>2025-05-02T06:28:17Z</time>
      </trkpt>
      <trkpt lat="42.875603036954999" lon="-8.540424993261695">
        <ele>242.38999999999999</ele>
        <time>2025-05-02T06:28:18Z</time>
      </trkpt>
      <trkpt lat="42.875569006428123" lon="-8.540476961061359">
        <ele>241.91</ele>
        <time>2025-05-02T06:28:19Z</time>
      </trkpt>
      <trkpt lat="42.875501029193401" lon="-8.540581986308098">
        <ele>241.43000000000001</ele>
        <time>2025-05-02T06:28:21Z</time>
      </trkpt>
      <trkpt lat="42.875462975353003" lon="-8.540642000734806">
        <ele>240.94999999999999</ele>
        <time>2025-05-02T06:28:22Z</time>
      </trkpt>
      <trkpt lat="42.875429028645158" lon="-8.540702015161514">
        <ele>240.47</ele>
        <time>2025-05-02T06:28:23Z</time>
      </trkpt>
      <trkpt lat="42.875356022268534" lon="-8.540902007371187">
        <ele>239.02000000000001</ele>
        <time>2025-05-02T06:28:26Z</time>
      </trkpt>
      <trkpt lat="42.875321991741657" lon="-8.54097199626267">
        <ele>238.53999999999999</ele>
        <time>2025-05-02T06:28:27Z</time>
      </trkpt>
      <trkpt lat="42.875285027548671" lon="-8.54103502817452">
        <ele>238.53999999999999</ele>
        <time>2025-05-02T06:28:28Z</time>
      </trkpt>
      <trkpt lat="42.875261977314949" lon="-8.541076015681028">
        <ele>238.06</ele>
        <time>2025-05-02T06:28:29Z</time>
      </trkpt>
      <trkpt lat="42.875261977314949" lon="-8.541076015681028">
        <ele>237.58000000000001</ele>
        <time>2025-05-02T06:28:30Z</time>
      </trkpt>
      <trkpt lat="42.87519701756537" lon="-8.541215993463993">
        <ele>237.09999999999999</ele>
        <time>2025-05-02T06:28:31Z</time>
      </trkpt>
      <trkpt lat="42.875066008418798" lon="-8.541307020932436">
        <ele>236.13999999999999</ele>
        <time>2025-05-02T06:28:34Z</time>
      </trkpt>
      <trkpt lat="42.875046981498599" lon="-8.541268967092037">
        <ele>236.13999999999999</ele>
        <time>2025-05-02T06:28:35Z</time>
      </trkpt>
      <trkpt lat="42.875024015083909" lon="-8.541222028434277">
        <ele>235.66</ele>
        <time>2025-05-02T06:28:36Z</time>
      </trkpt>
      <trkpt lat="42.874990990385413" lon="-8.541156984865665">
        <ele>235.66</ele>
        <time>2025-05-02T06:28:37Z</time>
      </trkpt>
      <trkpt lat="42.874956037849188" lon="-8.541086995974183">
        <ele>235.18000000000001</ele>
        <time>2025-05-02T06:28:38Z</time>
      </trkpt>
      <trkpt lat="42.874448010697961" lon="-8.540294989943504">
        <ele>234.22</ele>
        <time>2025-05-02T06:28:49Z</time>
      </trkpt>
      <trkpt lat="42.874393025413156" lon="-8.540219971910119">
        <ele>234.22</ele>
        <time>2025-05-02T06:28:50Z</time>
      </trkpt>
      <trkpt lat="42.874045008793473" lon="-8.539902968332171">
        <ele>233.74000000000001</ele>
        <time>2025-05-02T06:28:56Z</time>
      </trkpt>
      <trkpt lat="42.873990023508668" lon="-8.539859969168901">
        <ele>233.25999999999999</ele>
        <time>2025-05-02T06:28:57Z</time>
      </trkpt>
      <trkpt lat="42.873938977718353" lon="-8.539823004975915">
        <ele>233.25999999999999</ele>
        <time>2025-05-02T06:28:58Z</time>
      </trkpt>
      <trkpt lat="42.873719036579132" lon="-8.53968302719295">
        <ele>231.81</ele>
        <time>2025-05-02T06:29:02Z</time>
      </trkpt>
      <trkpt lat="42.873493982478976" lon="-8.539559980854392">
        <ele>230.37</ele>
        <time>2025-05-02T06:29:06Z</time>
      </trkpt>
      <trkpt lat="42.87345802411437" lon="-8.539541959762573">
        <ele>229.88999999999999</ele>
        <time>2025-05-02T06:29:07Z</time>
      </trkpt>
      <trkpt lat="42.873374037444592" lon="-8.539499966427684">
        <ele>228.93000000000001</ele>
        <time>2025-05-02T06:29:17Z</time>
      </trkpt>
      <trkpt lat="42.87335098721087" lon="-8.539487980306149">
        <ele>228.93000000000001</ele>
        <time>2025-05-02T06:29:21Z</time>
      </trkpt>
      <trkpt lat="42.873334977775812" lon="-8.539480017498136">
        <ele>228.93000000000001</ele>
        <time>2025-05-02T06:29:22Z</time>
      </trkpt>
      <trkpt lat="42.873322991654277" lon="-8.539473982527852">
        <ele>228.93000000000001</ele>
        <time>2025-05-02T06:29:23Z</time>
      </trkpt>
      <trkpt lat="42.873159041628242" lon="-8.53955302387476">
        <ele>227.49000000000001</ele>
        <time>2025-05-02T06:29:31Z</time>
      </trkpt>
      <trkpt lat="42.873134985566139" lon="-8.539648996666074">
        <ele>227.00999999999999</ele>
        <time>2025-05-02T06:29:32Z</time>
      </trkpt>
      <trkpt lat="42.87311595864594" lon="-8.539724014699459">
        <ele>226.53</ele>
        <time>2025-05-02T06:29:33Z</time>
      </trkpt>
      <trkpt lat="42.873096009716392" lon="-8.539795009419322">
        <ele>226.05000000000001</ele>
        <time>2025-05-02T06:29:34Z</time>
      </trkpt>
      <trkpt lat="42.87307396531105" lon="-8.539869021624327">
        <ele>225.56999999999999</ele>
        <time>2025-05-02T06:29:35Z</time>
      </trkpt>
      <trkpt lat="42.873052004724741" lon="-8.539946973323822">
        <ele>225.09</ele>
        <time>2025-05-02T06:29:36Z</time>
      </trkpt>
      <trkpt lat="42.87277003750205" lon="-8.540925979614258">
        <ele>223.63999999999999</ele>
        <time>2025-05-02T06:29:46Z</time>
      </trkpt>
      <trkpt lat="42.872736006975174" lon="-8.541024969890714">
        <ele>223.63999999999999</ele>
        <time>2025-05-02T06:29:47Z</time>
      </trkpt>
      <trkpt lat="42.872419003397226" lon="-8.542121993377805">
        <ele>227.49000000000001</ele>
        <time>2025-05-02T06:29:57Z</time>
      </trkpt>
      <trkpt lat="42.87225597538054" lon="-8.542736973613501">
        <ele>230.84999999999999</ele>
        <time>2025-05-02T06:30:03Z</time>
      </trkpt>
      <trkpt lat="42.872016001492739" lon="-8.543626964092255">
        <ele>242.87</ele>
        <time>2025-05-02T06:30:13Z</time>
      </trkpt>
      <trkpt lat="42.871982976794243" lon="-8.543751016259193">
        <ele>247.19999999999999</ele>
        <time>2025-05-02T06:30:20Z</time>
      </trkpt>
      <trkpt lat="42.871913993731141" lon="-8.544012028723955">
        <ele>250.56</ele>
        <time>2025-05-02T06:30:34Z</time>
      </trkpt>
      <trkpt lat="42.871755994856358" lon="-8.544614017009735">
        <ele>251.52000000000001</ele>
        <time>2025-05-02T06:30:46Z</time>
      </trkpt>
      <trkpt lat="42.871720958501101" lon="-8.544746031984687">
        <ele>252</ele>
        <time>2025-05-02T06:30:54Z</time>
      </trkpt>
      <trkpt lat="42.871720958501101" lon="-8.544746031984687">
        <ele>252</ele>
        <time>2025-05-02T06:30:55Z</time>
      </trkpt>
      <trkpt lat="42.871668990701437" lon="-8.544827001169324">
        <ele>252.47999999999999</ele>
        <time>2025-05-02T06:30:56Z</time>
      </trkpt>
      <trkpt lat="42.871571006253362" lon="-8.544981982558966">
        <ele>251.52000000000001</ele>
        <time>2025-05-02T06:30:57Z</time>
      </trkpt>
      <trkpt lat="42.871571006253362" lon="-8.544981982558966">
        <ele>251.03999999999999</ele>
        <time>2025-05-02T06:30:58Z</time>
      </trkpt>
      <trkpt lat="42.871551979333162" lon="-8.545010983943939">
        <ele>251.03999999999999</ele>
        <time>2025-05-02T06:30:59Z</time>
      </trkpt>
      <trkpt lat="42.870976980775595" lon="-8.545682961121202">
        <ele>246.72</ele>
        <time>2025-05-02T06:31:11Z</time>
      </trkpt>
      <trkpt lat="42.870723009109497" lon="-8.54595897719264">
        <ele>244.78999999999999</ele>
        <time>2025-05-02T06:31:18Z</time>
      </trkpt>
      <trkpt lat="42.870641034096479" lon="-8.546085963025689">
        <ele>243.83000000000001</ele>
        <time>2025-05-02T06:31:20Z</time>
      </trkpt>
      <trkpt lat="42.870541037991643" lon="-8.546263994649053">
        <ele>242.87</ele>
        <time>2025-05-02T06:31:23Z</time>
      </trkpt>
      <trkpt lat="42.870469959452748" lon="-8.546392992138863">
        <ele>240.47</ele>
        <time>2025-05-02T06:31:30Z</time>
      </trkpt>
      <trkpt lat="42.870427966117859" lon="-8.546481002122164">
        <ele>239.50999999999999</ele>
        <time>2025-05-02T06:31:50Z</time>
      </trkpt>
      <trkpt lat="42.870403993874788" lon="-8.546534981578589">
        <ele>239.02000000000001</ele>
        <time>2025-05-02T06:31:51Z</time>
      </trkpt>
      <trkpt lat="42.870374992489815" lon="-8.5466000251472">
        <ele>238.53999999999999</ele>
        <time>2025-05-02T06:31:52Z</time>
      </trkpt>
      <trkpt lat="42.870066035538912" lon="-8.547256998717785">
        <ele>231.33000000000001</ele>
        <time>2025-05-02T06:32:03Z</time>
      </trkpt>
      <trkpt lat="42.870025970041752" lon="-8.547341991215944">
        <ele>230.37</ele>
        <time>2025-05-02T06:32:05Z</time>
      </trkpt>
      <trkpt lat="42.869983976706862" lon="-8.547480963170528">
        <ele>229.41</ele>
        <time>2025-05-02T06:32:06Z</time>
      </trkpt>
      <trkpt lat="42.869836958125234" lon="-8.547971975058317">
        <ele>225.56999999999999</ele>
        <time>2025-05-02T06:32:12Z</time>
      </trkpt>
      <trkpt lat="42.869833018630743" lon="-8.547985972836614">
        <ele>224.61000000000001</ele>
        <time>2025-05-02T06:32:13Z</time>
      </trkpt>
      <trkpt lat="42.869825977832079" lon="-8.548049004748464">
        <ele>224.12</ele>
        <time>2025-05-02T06:32:14Z</time>
      </trkpt>
      <trkpt lat="42.869810974225402" lon="-8.54817196726799">
        <ele>222.68000000000001</ele>
        <time>2025-05-02T06:32:26Z</time>
      </trkpt>
      <trkpt lat="42.869793036952615" lon="-8.548323009163141">
        <ele>222.19999999999999</ele>
        <time>2025-05-02T06:32:38Z</time>
      </trkpt>
      <trkpt lat="42.869728999212384" lon="-8.549447022378445">
        <ele>218.36000000000001</ele>
        <time>2025-05-02T06:32:48Z</time>
      </trkpt>
      <trkpt lat="42.869682982563972" lon="-8.549809958785772">
        <ele>217.40000000000001</ele>
        <time>2025-05-02T06:32:51Z</time>
      </trkpt>
      <trkpt lat="42.869167998433113" lon="-8.551268996670842">
        <ele>219.80000000000001</ele>
        <time>2025-05-02T06:33:02Z</time>
      </trkpt>
      <trkpt lat="42.868208019062877" lon="-8.552412036806345">
        <ele>230.84999999999999</ele>
        <time>2025-05-02T06:33:13Z</time>
      </trkpt>
      <trkpt lat="42.867733016610146" lon="-8.55276801623404">
        <ele>230.84999999999999</ele>
        <time>2025-05-02T06:33:18Z</time>
      </trkpt>
      <trkpt lat="42.867625979706645" lon="-8.552809003740549">
        <ele>230.37</ele>
        <time>2025-05-02T06:33:19Z</time>
      </trkpt>
      <trkpt lat="42.86752900108695" lon="-8.552834987640381">
        <ele>229.41</ele>
        <time>2025-05-02T06:33:20Z</time>
      </trkpt>
      <trkpt lat="42.867423975840211" lon="-8.552834987640381">
        <ele>228.44999999999999</ele>
        <time>2025-05-02T06:33:21Z</time>
      </trkpt>
      <trkpt lat="42.867320040240884" lon="-8.552834987640381">
        <ele>227.49000000000001</ele>
        <time>2025-05-02T06:33:22Z</time>
      </trkpt>
      <trkpt lat="42.867215014994144" lon="-8.552834987640381">
        <ele>226.53</ele>
        <time>2025-05-02T06:33:23Z</time>
      </trkpt>
      <trkpt lat="42.867138991132379" lon="-8.552821995690465">
        <ele>226.05000000000001</ele>
        <time>2025-05-02T06:33:24Z</time>
      </trkpt>
      <trkpt lat="42.867045029997826" lon="-8.552806992083788">
        <ele>225.09</ele>
        <time>2025-05-02T06:33:25Z</time>
      </trkpt>
      <trkpt lat="42.865455988794565" lon="-8.552427040413022">
        <ele>226.05000000000001</ele>
        <time>2025-05-02T06:33:39Z</time>
      </trkpt>
      <trkpt lat="42.864198032766581" lon="-8.551707034930587">
        <ele>230.37</ele>
        <time>2025-05-02T06:33:47Z</time>
      </trkpt>
      <trkpt lat="42.863084999844432" lon="-8.550416976213455">
        <ele>235.66</ele>
        <time>2025-05-02T06:33:56Z</time>
      </trkpt>
      <trkpt lat="42.861754959449172" lon="-8.548285961151123">
        <ele>237.58000000000001</ele>
        <time>2025-05-02T06:34:09Z</time>
      </trkpt>
      <trkpt lat="42.860283013433218" lon="-8.546777972951531">
        <ele>240.47</ele>
        <time>2025-05-02T06:34:20Z</time>
      </trkpt>
      <trkpt lat="42.859566025435925" lon="-8.545533008873463">
        <ele>242.38999999999999</ele>
        <time>2025-05-02T06:34:27Z</time>
      </trkpt>
      <trkpt lat="42.859309036284685" lon="-8.544313022866845">
        <ele>242.87</ele>
        <time>2025-05-02T06:34:33Z</time>
      </trkpt>
      <trkpt lat="42.859287997707725" lon="-8.544100960716605">
        <ele>242.38999999999999</ele>
        <time>2025-05-02T06:34:34Z</time>
      </trkpt>
      <trkpt lat="42.85942898131907" lon="-8.541948990896344">
        <ele>239.99000000000001</ele>
        <time>2025-05-02T06:34:44Z</time>
      </trkpt>
      <trkpt lat="42.859490001574159" lon="-8.540068008005619">
        <ele>238.53999999999999</ele>
        <time>2025-05-02T06:34:54Z</time>
      </trkpt>
      <trkpt lat="42.859395034611225" lon="-8.53979199193418">
        <ele>238.53999999999999</ele>
        <time>2025-05-02T06:34:55Z</time>
      </trkpt>
      <trkpt lat="42.859337031841278" lon="-8.539623012766242">
        <ele>238.53999999999999</ele>
        <time>2025-05-02T06:34:56Z</time>
      </trkpt>
      <trkpt lat="42.859276011586189" lon="-8.539444981142879">
        <ele>238.53999999999999</ele>
        <time>2025-05-02T06:34:57Z</time>
      </trkpt>
      <trkpt lat="42.858422985300422" lon="-8.53738403879106">
        <ele>239.50999999999999</ele>
        <time>2025-05-02T06:35:09Z</time>
      </trkpt>
      <trkpt lat="42.857743967324495" lon="-8.534626979380846">
        <ele>238.53999999999999</ele>
        <time>2025-05-02T06:35:23Z</time>
      </trkpt>
      <trkpt lat="42.85702396184206" lon="-8.533111028373241">
        <ele>234.22</ele>
        <time>2025-05-02T06:35:32Z</time>
      </trkpt>
      <trkpt lat="42.85646203905344" lon="-8.532431004568934">
        <ele>229.41</ele>
        <time>2025-05-02T06:35:39Z</time>
      </trkpt>
      <trkpt lat="42.856392972171307" lon="-8.532376019284129">
        <ele>228.44999999999999</ele>
        <time>2025-05-02T06:35:40Z</time>
      </trkpt>
      <trkpt lat="42.856208989396691" lon="-8.532376019284129">
        <ele>227.49000000000001</ele>
        <time>2025-05-02T06:35:42Z</time>
      </trkpt>
      <trkpt lat="42.856132965534925" lon="-8.532347017899156">
        <ele>227.49000000000001</ele>
        <time>2025-05-02T06:35:43Z</time>
      </trkpt>
      <trkpt lat="42.85607697442174" lon="-8.53220896795392">
        <ele>227.00999999999999</ele>
        <time>2025-05-02T06:35:44Z</time>
      </trkpt>
      <trkpt lat="42.856057025492191" lon="-8.532149959355593">
        <ele>227.00999999999999</ele>
        <time>2025-05-02T06:35:45Z</time>
      </trkpt>
      <trkpt lat="42.856016037985682" lon="-8.531936975196004">
        <ele>226.53</ele>
        <time>2025-05-02T06:35:46Z</time>
      </trkpt>
      <trkpt lat="42.855863990262151" lon="-8.531828010454774">
        <ele>226.05000000000001</ele>
        <time>2025-05-02T06:35:47Z</time>
      </trkpt>
      <trkpt lat="42.855863990262151" lon="-8.531828010454774">
        <ele>225.56999999999999</ele>
        <time>2025-05-02T06:35:48Z</time>
      </trkpt>
      <trkpt lat="42.855648994445801" lon="-8.531613014638424">
        <ele>223.16</ele>
        <time>2025-05-02T06:35:51Z</time>
      </trkpt>
      <trkpt lat="42.855502981692553" lon="-8.531613014638424">
        <ele>222.68000000000001</ele>
        <time>2025-05-02T06:35:52Z</time>
      </trkpt>
      <trkpt lat="42.855374990031123" lon="-8.531613014638424">
        <ele>220.75999999999999</ele>
        <time>2025-05-02T06:35:58Z</time>
      </trkpt>
      <trkpt lat="42.855317993089557" lon="-8.531629024073482">
        <ele>219.80000000000001</ele>
        <time>2025-05-02T06:36:00Z</time>
      </trkpt>
      <trkpt lat="42.855054968968034" lon="-8.531660037115216">
        <ele>218.36000000000001</ele>
        <time>2025-05-02T06:36:04Z</time>
      </trkpt>
      <trkpt lat="42.854991015046835" lon="-8.531623994931579">
        <ele>218.36000000000001</ele>
        <time>2025-05-02T06:36:05Z</time>
      </trkpt>
      <trkpt lat="42.854928988963366" lon="-8.531569009646773">
        <ele>218.36000000000001</ele>
        <time>2025-05-02T06:36:06Z</time>
      </trkpt>
      <trkpt lat="42.854864029213786" lon="-8.531511006876826">
        <ele>217.88</ele>
        <time>2025-05-02T06:36:07Z</time>
      </trkpt>
      <trkpt lat="42.854812983423471" lon="-8.531443029642105">
        <ele>217.88</ele>
        <time>2025-05-02T06:36:08Z</time>
      </trkpt>
      <trkpt lat="42.854782976210117" lon="-8.531355019658804">
        <ele>217.88</ele>
        <time>2025-05-02T06:36:09Z</time>
      </trkpt>
      <trkpt lat="42.854763027280569" lon="-8.531256029382348">
        <ele>217.88</ele>
        <time>2025-05-02T06:36:10Z</time>
      </trkpt>
      <trkpt lat="42.854751963168383" lon="-8.531160978600383">
        <ele>217.40000000000001</ele>
        <time>2025-05-02T06:36:11Z</time>
      </trkpt>
      <trkpt lat="42.85476797260344" lon="-8.531062994152308">
        <ele>216.91</ele>
        <time>2025-05-02T06:36:12Z</time>
      </trkpt>
      <trkpt lat="42.854784987866879" lon="-8.530965009704232">
        <ele>216.43000000000001</ele>
        <time>2025-05-02T06:36:13Z</time>
      </trkpt>
      <trkpt lat="42.854808960109949" lon="-8.530882028862834">
        <ele>215.94999999999999</ele>
        <time>2025-05-02T06:36:14Z</time>
      </trkpt>
      <trkpt lat="42.854842990636826" lon="-8.530795024707913">
        <ele>215.94999999999999</ele>
        <time>2025-05-02T06:36:15Z</time>
      </trkpt>
      <trkpt lat="42.85487400367856" lon="-8.530709026381373">
        <ele>215.47</ele>
        <time>2025-05-02T06:36:16Z</time>
      </trkpt>
      <trkpt lat="42.854904010891914" lon="-8.530625961720944">
        <ele>214.99000000000001</ele>
        <time>2025-05-02T06:36:17Z</time>
      </trkpt>
      <trkpt lat="42.854920020326972" lon="-8.530540969222784">
        <ele>214.99000000000001</ele>
        <time>2025-05-02T06:36:18Z</time>
      </trkpt>
      <trkpt lat="42.854920020326972" lon="-8.530452037230134">
        <ele>214.50999999999999</ele>
        <time>2025-05-02T06:36:19Z</time>
      </trkpt>
      <trkpt lat="42.854885989800096" lon="-8.530319016426802">
        <ele>214.50999999999999</ele>
        <time>2025-05-02T06:36:20Z</time>
      </trkpt>
      <trkpt lat="42.854822035878897" lon="-8.530265036970377">
        <ele>214.03</ele>
        <time>2025-05-02T06:36:21Z</time>
      </trkpt>
      <trkpt lat="42.85474400036037" lon="-8.530198987573385">
        <ele>213.06999999999999</ele>
        <time>2025-05-02T06:36:22Z</time>
      </trkpt>
      <trkpt lat="42.854640986770391" lon="-8.530110977590084">
        <ele>212.59</ele>
        <time>2025-05-02T06:36:23Z</time>
      </trkpt>
      <trkpt lat="42.854550965130329" lon="-8.530060015618801">
        <ele>212.11000000000001</ele>
        <time>2025-05-02T06:36:24Z</time>
      </trkpt>
      <trkpt lat="42.854102030396461" lon="-8.529756003990769">
        <ele>209.22</ele>
        <time>2025-05-02T06:36:28Z</time>
      </trkpt>
      <trkpt lat="42.854004967957735" lon="-8.529651984572411">
        <ele>208.74000000000001</ele>
        <time>2025-05-02T06:36:29Z</time>
      </trkpt>
      <trkpt lat="42.853911006823182" lon="-8.529532039538026">
        <ele>207.78</ele>
        <time>2025-05-02T06:36:30Z</time>
      </trkpt>
      <trkpt lat="42.8529810346663" lon="-8.528307024389505">
        <ele>198.65000000000001</ele>
        <time>2025-05-02T06:36:39Z</time>
      </trkpt>
      <trkpt lat="42.852308973670006" lon="-8.527033980935812">
        <ele>190.96000000000001</ele>
        <time>2025-05-02T06:36:47Z</time>
      </trkpt>
      <trkpt lat="42.851919969543815" lon="-8.525994038209319">
        <ele>185.66999999999999</ele>
        <time>2025-05-02T06:36:53Z</time>
      </trkpt>
      <trkpt lat="42.851834977045655" lon="-8.525818018242717">
        <ele>184.71000000000001</ele>
        <time>2025-05-02T06:36:54Z</time>
      </trkpt>
      <trkpt lat="42.851728023961186" lon="-8.525673011317849">
        <ele>183.27000000000001</ele>
        <time>2025-05-02T06:36:55Z</time>
      </trkpt>
      <trkpt lat="42.851618975400925" lon="-8.52552498690784">
        <ele>182.31</ele>
        <time>2025-05-02T06:36:56Z</time>
      </trkpt>
      <trkpt lat="42.851484026759863" lon="-8.525402024388313">
        <ele>181.34999999999999</ele>
        <time>2025-05-02T06:36:57Z</time>
      </trkpt>
      <trkpt lat="42.851344970986247" lon="-8.525294987484813">
        <ele>180.38</ele>
        <time>2025-05-02T06:36:58Z</time>
      </trkpt>
      <trkpt lat="42.851199964061379" lon="-8.525212006643415">
        <ele>179.41999999999999</ele>
        <time>2025-05-02T06:36:59Z</time>
      </trkpt>
      <trkpt lat="42.851050011813641" lon="-8.525140006095171">
        <ele>178.46000000000001</ele>
        <time>2025-05-02T06:37:00Z</time>
      </trkpt>
      <trkpt lat="42.850894024595618" lon="-8.52509600110352">
        <ele>177.02000000000001</ele>
        <time>2025-05-02T06:37:01Z</time>
      </trkpt>
      <trkpt lat="42.850734014064074" lon="-8.525076974183321">
        <ele>176.06</ele>
        <time>2025-05-02T06:37:02Z</time>
      </trkpt>
      <trkpt lat="42.85057601518929" lon="-8.525098012760282">
        <ele>175.09999999999999</ele>
        <time>2025-05-02T06:37:03Z</time>
      </trkpt>
      <trkpt lat="42.850419022142887" lon="-8.52511796168983">
        <ele>174.13999999999999</ele>
        <time>2025-05-02T06:37:04Z</time>
      </trkpt>
      <trkpt lat="42.850267980247736" lon="-8.52513799443841">
        <ele>173.66</ele>
        <time>2025-05-02T06:37:05Z</time>
      </trkpt>
      <trkpt lat="42.850118027999997" lon="-8.52515903301537">
        <ele>172.69</ele>
        <time>2025-05-02T06:37:06Z</time>
      </trkpt>
      <trkpt lat="42.849119994789362" lon="-8.525304961949587">
        <ele>165.47999999999999</ele>
        <time>2025-05-02T06:37:13Z</time>
      </trkpt>
      <trkpt lat="42.847555009648204" lon="-8.524979995563626">
        <ele>156.83000000000001</ele>
        <time>2025-05-02T06:37:24Z</time>
      </trkpt>
      <trkpt lat="42.845920035615563" lon="-8.524969015270472">
        <ele>146.25999999999999</ele>
        <time>2025-05-02T06:37:35Z</time>
      </trkpt>
      <trkpt lat="42.844828041270375" lon="-8.524524020031095">
        <ele>138.09</ele>
        <time>2025-05-02T06:37:43Z</time>
      </trkpt>
      <trkpt lat="42.844364019110799" lon="-8.523980034515262">
        <ele>133.75999999999999</ele>
        <time>2025-05-02T06:37:50Z</time>
      </trkpt>
      <trkpt lat="42.844025976955891" lon="-8.523778030648828">
        <ele>130.88</ele>
        <time>2025-05-02T06:37:57Z</time>
      </trkpt>
      <trkpt lat="42.843976020812988" lon="-8.523721033707261">
        <ele>130.40000000000001</ele>
        <time>2025-05-02T06:37:58Z</time>
      </trkpt>
      <trkpt lat="42.843954982236028" lon="-8.523596981540322">
        <ele>129.91999999999999</ele>
        <time>2025-05-02T06:37:59Z</time>
      </trkpt>
      <trkpt lat="42.843954982236028" lon="-8.523566974326968">
        <ele>129.43000000000001</ele>
        <time>2025-05-02T06:38:00Z</time>
      </trkpt>
      <trkpt lat="42.844004016369581" lon="-8.523336974903941">
        <ele>129.43000000000001</ele>
        <time>2025-05-02T06:38:01Z</time>
      </trkpt>
      <trkpt lat="42.84363797865808" lon="-8.522336008027196">
        <ele>126.06999999999999</ele>
        <time>2025-05-02T06:38:09Z</time>
      </trkpt>
      <trkpt lat="42.843092987313867" lon="-8.520644959062338">
        <ele>128.47</ele>
        <time>2025-05-02T06:38:19Z</time>
      </trkpt>
      <trkpt lat="42.842420004308224" lon="-8.519032029435039">
        <ele>135.68000000000001</ele>
        <time>2025-05-02T06:38:28Z</time>
      </trkpt>
      <trkpt lat="42.841420965269208" lon="-8.516904031857848">
        <ele>150.58000000000001</ele>
        <time>2025-05-02T06:38:38Z</time>
      </trkpt>
      <trkpt lat="42.840197961777449" lon="-8.514259960502386">
        <ele>159.72</ele>
        <time>2025-05-02T06:38:50Z</time>
      </trkpt>
      <trkpt lat="42.840062007308006" lon="-8.514092992991209">
        <ele>160.19999999999999</ele>
        <time>2025-05-02T06:38:51Z</time>
      </trkpt>
      <trkpt lat="42.839090963825583" lon="-8.513312973082066">
        <ele>161.63999999999999</ele>
        <time>2025-05-02T06:38:57Z</time>
      </trkpt>
      <trkpt lat="42.837755978107452" lon="-8.513083979487419">
        <ele>165</ele>
        <time>2025-05-02T06:39:04Z</time>
      </trkpt>
      <trkpt lat="42.836619978770614" lon="-8.512579975649715">
        <ele>168.84999999999999</ele>
        <time>2025-05-02T06:39:11Z</time>
      </trkpt>
      <trkpt lat="42.836476983502507" lon="-8.512432035058737">
        <ele>169.81</ele>
        <time>2025-05-02T06:39:12Z</time>
      </trkpt>
      <trkpt lat="42.83633197657764" lon="-8.512281998991966">
        <ele>170.77000000000001</ele>
        <time>2025-05-02T06:39:13Z</time>
      </trkpt>
      <trkpt lat="42.834860030561686" lon="-8.510587010532618">
        <ele>177.97999999999999</ele>
        <time>2025-05-02T06:39:23Z</time>
      </trkpt>
      <trkpt lat="42.8336660284549" lon="-8.508752966299653">
        <ele>183.27000000000001</ele>
        <time>2025-05-02T06:39:32Z</time>
      </trkpt>
      <trkpt lat="42.833285992965102" lon="-8.507812013849616">
        <ele>184.71000000000001</ele>
        <time>2025-05-02T06:39:36Z</time>
      </trkpt>
      <trkpt lat="42.833164958283305" lon="-8.507594000548124">
        <ele>184.71000000000001</ele>
        <time>2025-05-02T06:39:37Z</time>
      </trkpt>
      <trkpt lat="42.83188596367836" lon="-8.505433984100819">
        <ele>186.63</ele>
        <time>2025-05-02T06:39:47Z</time>
      </trkpt>
      <trkpt lat="42.831457983702421" lon="-8.503967989236116">
        <ele>186.15000000000001</ele>
        <time>2025-05-02T06:39:53Z</time>
      </trkpt>
      <trkpt lat="42.830870999023318" lon="-8.501359038054943">
        <ele>185.19</ele>
        <time>2025-05-02T06:40:04Z</time>
      </trkpt>
      <trkpt lat="42.830522982403636" lon="-8.498654030263424">
        <ele>182.78999999999999</ele>
        <time>2025-05-02T06:40:15Z</time>
      </trkpt>
      <trkpt lat="42.83033799380064" lon="-8.496421007439494">
        <ele>183.75</ele>
        <time>2025-05-02T06:40:24Z</time>
      </trkpt>
      <trkpt lat="42.83016499131918" lon="-8.495504027232528">
        <ele>187.11000000000001</ele>
        <time>2025-05-02T06:40:28Z</time>
      </trkpt>
      <trkpt lat="42.829707004129887" lon="-8.493868969380856">
        <ele>194.80000000000001</ele>
        <time>2025-05-02T06:40:35Z</time>
      </trkpt>
      <trkpt lat="42.829675991088152" lon="-8.49364198744297">
        <ele>195.77000000000001</ele>
        <time>2025-05-02T06:40:36Z</time>
      </trkpt>
      <trkpt lat="42.829580018296838" lon="-8.491651033982635">
        <ele>201.05000000000001</ele>
        <time>2025-05-02T06:40:44Z</time>
      </trkpt>
      <trkpt lat="42.82954003661871" lon="-8.491417011246085">
        <ele>202.00999999999999</ele>
        <time>2025-05-02T06:40:45Z</time>
      </trkpt>
      <trkpt lat="42.829483039677143" lon="-8.491181982681155">
        <ele>202.49000000000001</ele>
        <time>2025-05-02T06:40:46Z</time>
      </trkpt>
      <trkpt lat="42.829425958916545" lon="-8.490947959944606">
        <ele>203.46000000000001</ele>
        <time>2025-05-02T06:40:47Z</time>
      </trkpt>
      <trkpt lat="42.829364016652107" lon="-8.490672027692199">
        <ele>204.41999999999999</ele>
        <time>2025-05-02T06:40:48Z</time>
      </trkpt>
      <trkpt lat="42.8292849753052" lon="-8.490495001897216">
        <ele>205.38</ele>
        <time>2025-05-02T06:40:49Z</time>
      </trkpt>
      <trkpt lat="42.829182967543602" lon="-8.490288974717259">
        <ele>206.81999999999999</ele>
        <time>2025-05-02T06:40:50Z</time>
      </trkpt>
      <trkpt lat="42.829075008630753" lon="-8.490099962800741">
        <ele>208.25999999999999</ele>
        <time>2025-05-02T06:40:51Z</time>
      </trkpt>
      <trkpt lat="42.828957997262478" lon="-8.489920003339648">
        <ele>209.22</ele>
        <time>2025-05-02T06:40:52Z</time>
      </trkpt>
      <trkpt lat="42.828821036964655" lon="-8.489759992808104">
        <ele>210.19</ele>
        <time>2025-05-02T06:40:53Z</time>
      </trkpt>
      <trkpt lat="42.828681981191039" lon="-8.489609034731984">
        <ele>211.15000000000001</ele>
        <time>2025-05-02T06:40:54Z</time>
      </trkpt>
      <trkpt lat="42.82853496260941" lon="-8.489490011706948">
        <ele>212.11000000000001</ele>
        <time>2025-05-02T06:40:55Z</time>
      </trkpt>
      <trkpt lat="42.828390039503574" lon="-8.489390015602112">
        <ele>213.06999999999999</ele>
        <time>2025-05-02T06:40:56Z</time>
      </trkpt>
      <trkpt lat="42.828248972073197" lon="-8.489293036982417">
        <ele>214.03</ele>
        <time>2025-05-02T06:40:57Z</time>
      </trkpt>
      <trkpt lat="42.82810103148222" lon="-8.48921500146389">
        <ele>214.99000000000001</ele>
        <time>2025-05-02T06:40:58Z</time>
      </trkpt>
      <trkpt lat="42.82795300707221" lon="-8.489140989258885">
        <ele>215.94999999999999</ele>
        <time>2025-05-02T06:40:59Z</time>
      </trkpt>
      <trkpt lat="42.827810011804104" lon="-8.489076029509306">
        <ele>216.91</ele>
        <time>2025-05-02T06:41:00Z</time>
      </trkpt>
      <trkpt lat="42.826518025249243" lon="-8.488704040646553">
        <ele>222.68000000000001</ele>
        <time>2025-05-02T06:41:10Z</time>
      </trkpt>
      <trkpt lat="42.824424980208278" lon="-8.488167012110353">
        <ele>223.16</ele>
        <time>2025-05-02T06:41:26Z</time>
      </trkpt>
      <trkpt lat="42.82318202778697" lon="-8.487866017967463">
        <ele>223.16</ele>
        <time>2025-05-02T06:41:37Z</time>
      </trkpt>
      <trkpt lat="42.821615030989051" lon="-8.487263023853302">
        <ele>225.09</ele>
        <time>2025-05-02T06:41:51Z</time>
      </trkpt>
      <trkpt lat="42.820838028565049" lon="-8.486682996153832">
        <ele>227.00999999999999</ele>
        <time>2025-05-02T06:41:58Z</time>
      </trkpt>
      <trkpt lat="42.819838989526033" lon="-8.485311968252063">
        <ele>225.09</ele>
        <time>2025-05-02T06:42:08Z</time>
      </trkpt>
      <trkpt lat="42.819285029545426" lon="-8.483929960057139">
        <ele>221.24000000000001</ele>
        <time>2025-05-02T06:42:15Z</time>
      </trkpt>
      <trkpt lat="42.818698966875672" lon="-8.482218040153384">
        <ele>213.06999999999999</ele>
        <time>2025-05-02T06:42:23Z</time>
      </trkpt>
      <trkpt lat="42.817774023860693" lon="-8.480072021484375">
        <ele>200.56999999999999</ele>
        <time>2025-05-02T06:42:34Z</time>
      </trkpt>
      <trkpt lat="42.81692803837359" lon="-8.479355033487082">
        <ele>194.80000000000001</ele>
        <time>2025-05-02T06:42:40Z</time>
      </trkpt>
      <trkpt lat="42.81561803072691" lon="-8.47898899577558">
        <ele>188.56</ele>
        <time>2025-05-02T06:42:47Z</time>
      </trkpt>
      <trkpt lat="42.813777029514313" lon="-8.478608038276434">
        <ele>187.11000000000001</ele>
        <time>2025-05-02T06:42:57Z</time>
      </trkpt>
      <trkpt lat="42.813251987099648" lon="-8.478574007749558">
        <ele>188.56</ele>
        <time>2025-05-02T06:43:00Z</time>
      </trkpt>
      <trkpt lat="42.813092982396483" lon="-8.478610971942544">
        <ele>189.03999999999999</ele>
        <time>2025-05-02T06:43:01Z</time>
      </trkpt>
      <trkpt lat="42.812940012663603" lon="-8.478663023561239">
        <ele>190</ele>
        <time>2025-05-02T06:43:02Z</time>
      </trkpt>
      <trkpt lat="42.812792994081974" lon="-8.478744998574257">
        <ele>190.47999999999999</ele>
        <time>2025-05-02T06:43:03Z</time>
      </trkpt>
      <trkpt lat="42.812640024349093" lon="-8.478829991072416">
        <ele>191.44</ele>
        <time>2025-05-02T06:43:04Z</time>
      </trkpt>
      <trkpt lat="42.812491999939084" lon="-8.478949014097452">
        <ele>192.40000000000001</ele>
        <time>2025-05-02T06:43:05Z</time>
      </trkpt>
      <trkpt lat="42.811607038602233" lon="-8.479689974337816">
        <ele>199.13</ele>
        <time>2025-05-02T06:43:11Z</time>
      </trkpt>
      <trkpt lat="42.811454990878701" lon="-8.479787958785892">
        <ele>200.09</ele>
        <time>2025-05-02T06:43:12Z</time>
      </trkpt>
      <trkpt lat="42.811294980347157" lon="-8.479857025668025">
        <ele>201.05000000000001</ele>
        <time>2025-05-02T06:43:13Z</time>
      </trkpt>
      <trkpt lat="42.811133963987231" lon="-8.479925002902746">
        <ele>201.53</ele>
        <time>2025-05-02T06:43:14Z</time>
      </trkpt>
      <trkpt lat="42.810964984819293" lon="-8.479964984580874">
        <ele>202.49000000000001</ele>
        <time>2025-05-02T06:43:15Z</time>
      </trkpt>
      <trkpt lat="42.810791982337832" lon="-8.479964984580874">
        <ele>202.97999999999999</ele>
        <time>2025-05-02T06:43:16Z</time>
      </trkpt>
      <trkpt lat="42.81061596237123" lon="-8.479964984580874">
        <ele>203.46000000000001</ele>
        <time>2025-05-02T06:43:17Z</time>
      </trkpt>
      <trkpt lat="42.810438014566898" lon="-8.479964984580874">
        <ele>203.94</ele>
        <time>2025-05-02T06:43:18Z</time>
      </trkpt>
      <trkpt lat="42.810244979336858" lon="-8.479964984580874">
        <ele>204.90000000000001</ele>
        <time>2025-05-02T06:43:19Z</time>
      </trkpt>
      <trkpt lat="42.810081029310822" lon="-8.479875968769193">
        <ele>205.38</ele>
        <time>2025-05-02T06:43:20Z</time>
      </trkpt>
      <trkpt lat="42.809911966323853" lon="-8.47978301346302">
        <ele>206.34</ele>
        <time>2025-05-02T06:43:21Z</time>
      </trkpt>
      <trkpt lat="42.807944985106587" lon="-8.478431012481451">
        <ele>213.55000000000001</ele>
        <time>2025-05-02T06:43:33Z</time>
      </trkpt>
      <trkpt lat="42.805946990847588" lon="-8.476751027628779">
        <ele>216.91</ele>
        <time>2025-05-02T06:43:45Z</time>
      </trkpt>
      <trkpt lat="42.804603958502412" lon="-8.476261021569371">
        <ele>215.94999999999999</ele>
        <time>2025-05-02T06:43:52Z</time>
      </trkpt>
      <trkpt lat="42.804028037935495" lon="-8.476262027397752">
        <ele>216.43000000000001</ele>
        <time>2025-05-02T06:43:55Z</time>
      </trkpt>
      <trkpt lat="42.803839026018977" lon="-8.4762819763273">
        <ele>216.91</ele>
        <time>2025-05-02T06:43:56Z</time>
      </trkpt>
      <trkpt lat="42.802113024517894" lon="-8.477085968479514">
        <ele>222.68000000000001</ele>
        <time>2025-05-02T06:44:06Z</time>
      </trkpt>
      <trkpt lat="42.801241977140307" lon="-8.477487964555621">
        <ele>227.97</ele>
        <time>2025-05-02T06:44:11Z</time>
      </trkpt>
      <trkpt lat="42.801061011850834" lon="-8.477540016174316">
        <ele>228.93000000000001</ele>
        <time>2025-05-02T06:44:12Z</time>
      </trkpt>
      <trkpt lat="42.800890021026134" lon="-8.477521995082498">
        <ele>230.37</ele>
        <time>2025-05-02T06:44:13Z</time>
      </trkpt>
      <trkpt lat="42.800720036029816" lon="-8.477503973990679">
        <ele>231.33000000000001</ele>
        <time>2025-05-02T06:44:14Z</time>
      </trkpt>
      <trkpt lat="42.800561031326652" lon="-8.477445971220732">
        <ele>232.78</ele>
        <time>2025-05-02T06:44:15Z</time>
      </trkpt>
      <trkpt lat="42.800406971946359" lon="-8.477360978722572">
        <ele>233.74000000000001</ele>
        <time>2025-05-02T06:44:16Z</time>
      </trkpt>
      <trkpt lat="42.800249978899956" lon="-8.477274980396032">
        <ele>235.18000000000001</ele>
        <time>2025-05-02T06:44:17Z</time>
      </trkpt>
      <trkpt lat="42.800113018602133" lon="-8.4771419595927">
        <ele>236.62</ele>
        <time>2025-05-02T06:44:18Z</time>
      </trkpt>
      <trkpt lat="42.799984021112323" lon="-8.477001981809735">
        <ele>238.06</ele>
        <time>2025-05-02T06:44:19Z</time>
      </trkpt>
      <trkpt lat="42.799876984208822" lon="-8.4768380317837">
        <ele>239.50999999999999</ele>
        <time>2025-05-02T06:44:20Z</time>
      </trkpt>
      <trkpt lat="42.799780005589128" lon="-8.476663017645478">
        <ele>240.94999999999999</ele>
        <time>2025-05-02T06:44:21Z</time>
      </trkpt>
      <trkpt lat="42.799699958413839" lon="-8.476482974365354">
        <ele>241.91</ele>
        <time>2025-05-02T06:44:22Z</time>
      </trkpt>
      <trkpt lat="42.79963499866426" lon="-8.476288011297584">
        <ele>242.87</ele>
        <time>2025-05-02T06:44:23Z</time>
      </trkpt>
      <trkpt lat="42.799605997279286" lon="-8.476089024916291">
        <ele>244.31</ele>
        <time>2025-05-02T06:44:24Z</time>
      </trkpt>
      <trkpt lat="42.799584958702326" lon="-8.475882997736335">
        <ele>245.27000000000001</ele>
        <time>2025-05-02T06:44:25Z</time>
      </trkpt>
      <trkpt lat="42.799566015601158" lon="-8.47567898221314">
        <ele>245.75</ele>
        <time>2025-05-02T06:44:26Z</time>
      </trkpt>
      <trkpt lat="42.799565009772778" lon="-8.475488964468241">
        <ele>246.72</ele>
        <time>2025-05-02T06:44:27Z</time>
      </trkpt>
      <trkpt lat="42.799574984237552" lon="-8.475294001400471">
        <ele>247.19999999999999</ele>
        <time>2025-05-02T06:44:28Z</time>
      </trkpt>
      <trkpt lat="42.799589987844229" lon="-8.475104989483953">
        <ele>247.68000000000001</ele>
        <time>2025-05-02T06:44:29Z</time>
      </trkpt>
      <trkpt lat="42.799617983400822" lon="-8.474910026416183">
        <ele>248.16</ele>
        <time>2025-05-02T06:44:30Z</time>
      </trkpt>
      <trkpt lat="42.799795009195805" lon="-8.473587026819587">
        <ele>248.16</ele>
        <time>2025-05-02T06:44:36Z</time>
      </trkpt>
      <trkpt lat="42.799786040559411" lon="-8.473364990204573">
        <ele>248.16</ele>
        <time>2025-05-02T06:44:37Z</time>
      </trkpt>
      <trkpt lat="42.799753015860915" lon="-8.47316600382328">
        <ele>248.63999999999999</ele>
        <time>2025-05-02T06:44:38Z</time>
      </trkpt>
      <trkpt lat="42.799704987555742" lon="-8.472989983856678">
        <ele>249.12</ele>
        <time>2025-05-02T06:44:39Z</time>
      </trkpt>
      <trkpt lat="42.79965796507895" lon="-8.472818993031979">
        <ele>249.59999999999999</ele>
        <time>2025-05-02T06:44:40Z</time>
      </trkpt>
      <trkpt lat="42.799603985622525" lon="-8.472654959186912">
        <ele>250.56</ele>
        <time>2025-05-02T06:44:41Z</time>
      </trkpt>
      <trkpt lat="42.79952603392303" lon="-8.472514981403947">
        <ele>251.03999999999999</ele>
        <time>2025-05-02T06:44:42Z</time>
      </trkpt>
      <trkpt lat="42.799455961212516" lon="-8.472389001399279">
        <ele>251.52000000000001</ele>
        <time>2025-05-02T06:44:43Z</time>
      </trkpt>
      <trkpt lat="42.799389995634556" lon="-8.472278025001288">
        <ele>252.47999999999999</ele>
        <time>2025-05-02T06:44:44Z</time>
      </trkpt>
      <trkpt lat="42.79845398850739" lon="-8.471068013459444">
        <ele>257.76999999999998</ele>
        <time>2025-05-02T06:44:55Z</time>
      </trkpt>
      <trkpt lat="42.797663994133472" lon="-8.470050031319261">
        <ele>263.06</ele>
        <time>2025-05-02T06:45:04Z</time>
      </trkpt>
      <trkpt lat="42.796354992315173" lon="-8.46835495904088">
        <ele>268.82999999999998</ele>
        <time>2025-05-02T06:45:19Z</time>
      </trkpt>
      <trkpt lat="42.795695001259446" lon="-8.466976974159479">
        <ele>271.70999999999998</ele>
        <time>2025-05-02T06:45:29Z</time>
      </trkpt>
      <trkpt lat="42.795461984351277" lon="-8.465402014553547">
        <ele>269.31</ele>
        <time>2025-05-02T06:45:38Z</time>
      </trkpt>
      <trkpt lat="42.794947000220418" lon="-8.463510973379016">
        <ele>266.42000000000002</ele>
        <time>2025-05-02T06:45:47Z</time>
      </trkpt>
      <trkpt lat="42.794032031670213" lon="-8.46209803596139">
        <ele>267.86000000000001</ele>
        <time>2025-05-02T06:45:55Z</time>
      </trkpt>
      <trkpt lat="42.792558996006846" lon="-8.460266003385186">
        <ele>271.23000000000002</ele>
        <time>2025-05-02T06:46:06Z</time>
      </trkpt>
      <trkpt lat="42.792285997420549" lon="-8.459902983158827">
        <ele>270.75</ele>
        <time>2025-05-02T06:46:08Z</time>
      </trkpt>
      <trkpt lat="42.790967021137476" lon="-8.458240013569593">
        <ele>269.31</ele>
        <time>2025-05-02T06:46:18Z</time>
      </trkpt>
      <trkpt lat="42.790783038362861" lon="-8.457928039133549">
        <ele>268.82999999999998</ele>
        <time>2025-05-02T06:46:20Z</time>
      </trkpt>
      <trkpt lat="42.790711959823966" lon="-8.457743972539902">
        <ele>268.82999999999998</ele>
        <time>2025-05-02T06:46:21Z</time>
      </trkpt>
      <trkpt lat="42.790656974539161" lon="-8.457567030563951">
        <ele>268.82999999999998</ele>
        <time>2025-05-02T06:46:22Z</time>
      </trkpt>
      <trkpt lat="42.79061196371913" lon="-8.457372989505529">
        <ele>268.82999999999998</ele>
        <time>2025-05-02T06:46:23Z</time>
      </trkpt>
      <trkpt lat="42.790596960112453" lon="-8.45717903226614">
        <ele>268.82999999999998</ele>
        <time>2025-05-02T06:46:24Z</time>
      </trkpt>
      <trkpt lat="42.79059000313282" lon="-8.456980967894197">
        <ele>268.35000000000002</ele>
        <time>2025-05-02T06:46:25Z</time>
      </trkpt>
      <trkpt lat="42.790594026446342" lon="-8.456788016483188">
        <ele>267.86000000000001</ele>
        <time>2025-05-02T06:46:26Z</time>
      </trkpt>
      <trkpt lat="42.790628978982568" lon="-8.456587018445134">
        <ele>267.86000000000001</ele>
        <time>2025-05-02T06:46:27Z</time>
      </trkpt>
      <trkpt lat="42.790668038651347" lon="-8.456408986821771">
        <ele>267.38</ele>
        <time>2025-05-02T06:46:28Z</time>
      </trkpt>
      <trkpt lat="42.790736015886068" lon="-8.456226009875536">
        <ele>266.89999999999998</ele>
        <time>2025-05-02T06:46:29Z</time>
      </trkpt>
      <trkpt lat="42.79080399312079" lon="-8.45604001544416">
        <ele>265.94</ele>
        <time>2025-05-02T06:46:30Z</time>
      </trkpt>
      <trkpt lat="42.79091103002429" lon="-8.45589098520577">
        <ele>264.98000000000002</ele>
        <time>2025-05-02T06:46:31Z</time>
      </trkpt>
      <trkpt lat="42.791027035564184" lon="-8.455728041008115">
        <ele>264.01999999999998</ele>
        <time>2025-05-02T06:46:32Z</time>
      </trkpt>
      <trkpt lat="42.791146980598569" lon="-8.455559983849526">
        <ele>263.06</ele>
        <time>2025-05-02T06:46:33Z</time>
      </trkpt>
      <trkpt lat="42.792283985763788" lon="-8.453964991495013">
        <ele>251.03999999999999</ele>
        <time>2025-05-02T06:46:42Z</time>
      </trkpt>
      <trkpt lat="42.793054031208158" lon="-8.451739009469748">
        <ele>236.62</ele>
        <time>2025-05-02T06:46:52Z</time>
      </trkpt>
      <trkpt lat="42.793185962364078" lon="-8.451103996485472">
        <ele>231.33000000000001</ele>
        <time>2025-05-02T06:46:55Z</time>
      </trkpt>
      <trkpt lat="42.793176993727684" lon="-8.450866034254432">
        <ele>229.88999999999999</ele>
        <time>2025-05-02T06:46:56Z</time>
      </trkpt>
      <trkpt lat="42.793170036748052" lon="-8.450651960447431">
        <ele>228.44999999999999</ele>
        <time>2025-05-02T06:46:57Z</time>
      </trkpt>
      <trkpt lat="42.793141035363078" lon="-8.450454985722899">
        <ele>227.00999999999999</ele>
        <time>2025-05-02T06:46:58Z</time>
      </trkpt>
      <trkpt lat="42.793079009279609" lon="-8.450266979634762">
        <ele>226.05000000000001</ele>
        <time>2025-05-02T06:46:59Z</time>
      </trkpt>
      <trkpt lat="42.793015977367759" lon="-8.450078973546624">
        <ele>224.61000000000001</ele>
        <time>2025-05-02T06:47:00Z</time>
      </trkpt>
      <trkpt lat="42.792939031496644" lon="-8.449902031570673">
        <ele>224.12</ele>
        <time>2025-05-02T06:47:01Z</time>
      </trkpt>
      <trkpt lat="42.792839035391808" lon="-8.449732968583703">
        <ele>223.16</ele>
        <time>2025-05-02T06:47:02Z</time>
      </trkpt>
      <trkpt lat="42.792724035680294" lon="-8.449578993022442">
        <ele>222.19999999999999</ele>
        <time>2025-05-02T06:47:03Z</time>
      </trkpt>
      <trkpt lat="42.792596966028214" lon="-8.449434991925955">
        <ele>221.72</ele>
        <time>2025-05-02T06:47:04Z</time>
      </trkpt>
      <trkpt lat="42.791582001373172" lon="-8.448169995099306">
        <ele>217.40000000000001</ele>
        <time>2025-05-02T06:47:12Z</time>
      </trkpt>
      <trkpt lat="42.791499020531774" lon="-8.447975032031536">
        <ele>216.91</ele>
        <time>2025-05-02T06:47:13Z</time>
      </trkpt>
      <trkpt lat="42.791431965306401" lon="-8.447773028165102">
        <ele>216.43000000000001</ele>
        <time>2025-05-02T06:47:14Z</time>
      </trkpt>
      <trkpt lat="42.791374968364835" lon="-8.447565995156765">
        <ele>215.47</ele>
        <time>2025-05-02T06:47:15Z</time>
      </trkpt>
      <trkpt lat="42.791347978636622" lon="-8.447347981855273">
        <ele>214.50999999999999</ele>
        <time>2025-05-02T06:47:16Z</time>
      </trkpt>
      <trkpt lat="42.791330041363835" lon="-8.447118988260627">
        <ele>213.55000000000001</ele>
        <time>2025-05-02T06:47:17Z</time>
      </trkpt>
      <trkpt lat="42.791090989485383" lon="-8.444985039532185">
        <ele>207.78</ele>
        <time>2025-05-02T06:47:26Z</time>
      </trkpt>
      <trkpt lat="42.790930978953838" lon="-8.444545995444059">
        <ele>207.30000000000001</ele>
        <time>2025-05-02T06:47:28Z</time>
      </trkpt>
      <trkpt lat="42.790838023647666" lon="-8.444337034597993">
        <ele>207.30000000000001</ele>
        <time>2025-05-02T06:47:29Z</time>
      </trkpt>
      <trkpt lat="42.79071900062263" lon="-8.444131007418037">
        <ele>207.30000000000001</ele>
        <time>2025-05-02T06:47:30Z</time>
      </trkpt>
      <trkpt lat="42.790608024224639" lon="-8.443982983008027">
        <ele>207.78</ele>
        <time>2025-05-02T06:47:31Z</time>
      </trkpt>
      <trkpt lat="42.79050400480628" lon="-8.443830013275147">
        <ele>207.78</ele>
        <time>2025-05-02T06:47:32Z</time>
      </trkpt>
      <trkpt lat="42.790349023416638" lon="-8.443675031885505">
        <ele>208.25999999999999</ele>
        <time>2025-05-02T06:47:33Z</time>
      </trkpt>
      <trkpt lat="42.790211979299784" lon="-8.44353798776865">
        <ele>208.74000000000001</ele>
        <time>2025-05-02T06:47:34Z</time>
      </trkpt>
      <trkpt lat="42.790075019001961" lon="-8.443401027470827">
        <ele>209.22</ele>
        <time>2025-05-02T06:47:35Z</time>
      </trkpt>
      <trkpt lat="42.789917020127177" lon="-8.443305976688862">
        <ele>209.69999999999999</ele>
        <time>2025-05-02T06:47:36Z</time>
      </trkpt>
      <trkpt lat="42.789756003767252" lon="-8.443210003897548">
        <ele>210.66999999999999</ele>
        <time>2025-05-02T06:47:37Z</time>
      </trkpt>
      <trkpt lat="42.788799041882157" lon="-8.442603992298245">
        <ele>215.94999999999999</ele>
        <time>2025-05-02T06:47:43Z</time>
      </trkpt>
      <trkpt lat="42.788652023300529" lon="-8.442464014515281">
        <ele>216.91</ele>
        <time>2025-05-02T06:47:44Z</time>
      </trkpt>
      <trkpt lat="42.788499975576997" lon="-8.442318001762033">
        <ele>218.36000000000001</ele>
        <time>2025-05-02T06:47:45Z</time>
      </trkpt>
      <trkpt lat="42.788363015279174" lon="-8.442136030644178">
        <ele>219.31999999999999</ele>
        <time>2025-05-02T06:47:46Z</time>
      </trkpt>
      <trkpt lat="42.788235023617744" lon="-8.441948024556041">
        <ele>219.80000000000001</ele>
        <time>2025-05-02T06:47:47Z</time>
      </trkpt>
      <trkpt lat="42.787156021222472" lon="-8.440666012465954">
        <ele>224.12</ele>
        <time>2025-05-02T06:47:55Z</time>
      </trkpt>
      <trkpt lat="42.786997016519308" lon="-8.440557969734073">
        <ele>224.12</ele>
        <time>2025-05-02T06:47:56Z</time>
      </trkpt>
      <trkpt lat="42.785873003304005" lon="-8.439875012263656">
        <ele>226.53</ele>
        <time>2025-05-02T06:48:03Z</time>
      </trkpt>
      <trkpt lat="42.785736965015531" lon="-8.439738973975182">
        <ele>227.00999999999999</ele>
        <time>2025-05-02T06:48:04Z</time>
      </trkpt>
      <trkpt lat="42.785616014152765" lon="-8.439566977322102">
        <ele>227.00999999999999</ele>
        <time>2025-05-02T06:48:05Z</time>
      </trkpt>
      <trkpt lat="42.785489028319716" lon="-8.439395986497402">
        <ele>227.49000000000001</ele>
        <time>2025-05-02T06:48:06Z</time>
      </trkpt>
      <trkpt lat="42.785361958667636" lon="-8.439221978187561">
        <ele>227.97</ele>
        <time>2025-05-02T06:48:07Z</time>
      </trkpt>
      <trkpt lat="42.783963019028306" lon="-8.436916032806039">
        <ele>227.00999999999999</ele>
        <time>2025-05-02T06:48:19Z</time>
      </trkpt>
      <trkpt lat="42.782528037205338" lon="-8.434784011915326">
        <ele>219.80000000000001</ele>
        <time>2025-05-02T06:48:30Z</time>
      </trkpt>
      <trkpt lat="42.781497985124588" lon="-8.433614987879992">
        <ele>220.28</ele>
        <time>2025-05-02T06:48:37Z</time>
      </trkpt>
      <trkpt lat="42.781375022605062" lon="-8.433446008712053">
        <ele>220.75999999999999</ele>
        <time>2025-05-02T06:48:38Z</time>
      </trkpt>
      <trkpt lat="42.781274020671844" lon="-8.433244004845619">
        <ele>221.24000000000001</ele>
        <time>2025-05-02T06:48:39Z</time>
      </trkpt>
      <trkpt lat="42.781066987663507" lon="-8.432832034304738">
        <ele>222.19999999999999</ele>
        <time>2025-05-02T06:48:41Z</time>
      </trkpt>
      <trkpt lat="42.78098501265049" lon="-8.432611003518105">
        <ele>222.68000000000001</ele>
        <time>2025-05-02T06:48:42Z</time>
      </trkpt>
      <trkpt lat="42.780923992395401" lon="-8.432377986609936">
        <ele>223.16</ele>
        <time>2025-05-02T06:48:43Z</time>
      </trkpt>
      <trkpt lat="42.780880993232131" lon="-8.432140024378896">
        <ele>223.16</ele>
        <time>2025-05-02T06:48:44Z</time>
      </trkpt>
      <trkpt lat="42.780850986018777" lon="-8.431898960843682">
        <ele>223.16</ele>
        <time>2025-05-02T06:48:45Z</time>
      </trkpt>
      <trkpt lat="42.780820978805423" lon="-8.431662004441023">
        <ele>223.16</ele>
        <time>2025-05-02T06:48:46Z</time>
      </trkpt>
      <trkpt lat="42.780799018219113" lon="-8.431429993361235">
        <ele>223.16</ele>
        <time>2025-05-02T06:48:47Z</time>
      </trkpt>
      <trkpt lat="42.780688963830471" lon="-8.430240014567971">
        <ele>220.75999999999999</ele>
        <time>2025-05-02T06:48:52Z</time>
      </trkpt>
      <trkpt lat="42.780619980767369" lon="-8.430016972124577">
        <ele>219.80000000000001</ele>
        <time>2025-05-02T06:48:53Z</time>
      </trkpt>
      <trkpt lat="42.780544962733984" lon="-8.429803987964988">
        <ele>218.84</ele>
        <time>2025-05-02T06:48:54Z</time>
      </trkpt>
      <trkpt lat="42.780468016862869" lon="-8.42959301546216">
        <ele>217.88</ele>
        <time>2025-05-02T06:48:55Z</time>
      </trkpt>
      <trkpt lat="42.780369026586413" lon="-8.429383970797062">
        <ele>217.40000000000001</ele>
        <time>2025-05-02T06:48:56Z</time>
      </trkpt>
      <trkpt lat="42.780251009389758" lon="-8.429207028821111">
        <ele>216.43000000000001</ele>
        <time>2025-05-02T06:48:57Z</time>
      </trkpt>
      <trkpt lat="42.780120000243187" lon="-8.429051041603088">
        <ele>215.47</ele>
        <time>2025-05-02T06:48:58Z</time>
      </trkpt>
      <trkpt lat="42.7799759991467" lon="-8.428917014971376">
        <ele>214.99000000000001</ele>
        <time>2025-05-02T06:48:59Z</time>
      </trkpt>
      <trkpt lat="42.77982504107058" lon="-8.428786005824804">
        <ele>214.03</ele>
        <time>2025-05-02T06:49:00Z</time>
      </trkpt>
      <trkpt lat="42.779661007225513" lon="-8.428679974749684">
        <ele>213.06999999999999</ele>
        <time>2025-05-02T06:49:01Z</time>
      </trkpt>
      <trkpt lat="42.779495967552066" lon="-8.428572015836835">
        <ele>212.11000000000001</ele>
        <time>2025-05-02T06:49:02Z</time>
      </trkpt>
      <trkpt lat="42.778360974043608" lon="-8.427662998437882">
        <ele>202.49000000000001</ele>
        <time>2025-05-02T06:49:10Z</time>
      </trkpt>
      <trkpt lat="42.777227992191911" lon="-8.42639297246933">
        <ele>194.31999999999999</ele>
        <time>2025-05-02T06:49:20Z</time>
      </trkpt>
      <trkpt lat="42.776245968416333" lon="-8.425184972584248">
        <ele>189.03999999999999</ele>
        <time>2025-05-02T06:49:31Z</time>
      </trkpt>
      <trkpt lat="42.775948997586966" lon="-8.424467984586954">
        <ele>187.59</ele>
        <time>2025-05-02T06:49:36Z</time>
      </trkpt>
      <trkpt lat="42.775740958750248" lon="-8.423231989145279">
        <ele>182.78999999999999</ele>
        <time>2025-05-02T06:49:43Z</time>
      </trkpt>
      <trkpt lat="42.775740958750248" lon="-8.423035014420748">
        <ele>181.83000000000001</ele>
        <time>2025-05-02T06:49:44Z</time>
      </trkpt>
      <trkpt lat="42.776012029498816" lon="-8.421075996011496">
        <ele>169.33000000000001</ele>
        <time>2025-05-02T06:49:54Z</time>
      </trkpt>
      <trkpt lat="42.776447972282767" lon="-8.418990997597575">
        <ele>159.24000000000001</ele>
        <time>2025-05-02T06:50:03Z</time>
      </trkpt>
      <trkpt lat="42.777027999982238" lon="-8.416380034759641">
        <ele>147.69999999999999</ele>
        <time>2025-05-02T06:50:14Z</time>
      </trkpt>
      <trkpt lat="42.777745993807912" lon="-8.415109002962709">
        <ele>139.53</ele>
        <time>2025-05-02T06:50:21Z</time>
      </trkpt>
      <trkpt lat="42.778397016227245" lon="-8.413851968944073">
        <ele>131.84</ele>
        <time>2025-05-02T06:50:28Z</time>
      </trkpt>
      <trkpt lat="42.778461975976825" lon="-8.413633033633232">
        <ele>131.36000000000001</ele>
        <time>2025-05-02T06:50:29Z</time>
      </trkpt>
      <trkpt lat="42.778498018160462" lon="-8.413392975926399">
        <ele>130.40000000000001</ele>
        <time>2025-05-02T06:50:30Z</time>
      </trkpt>
      <trkpt lat="42.778530959039927" lon="-8.413166999816895">
        <ele>128.94999999999999</ele>
        <time>2025-05-02T06:50:31Z</time>
      </trkpt>
      <trkpt lat="42.778547974303365" lon="-8.412901964038611">
        <ele>127.98999999999999</ele>
        <time>2025-05-02T06:50:32Z</time>
      </trkpt>
      <trkpt lat="42.778563983738422" lon="-8.412652015686035">
        <ele>127.03</ele>
        <time>2025-05-02T06:50:33Z</time>
      </trkpt>
      <trkpt lat="42.7785599604249" lon="-8.412396032363176">
        <ele>126.06999999999999</ele>
        <time>2025-05-02T06:50:34Z</time>
      </trkpt>
      <trkpt lat="42.778527019545436" lon="-8.412141976878047">
        <ele>125.11</ele>
        <time>2025-05-02T06:50:35Z</time>
      </trkpt>
      <trkpt lat="42.778481002897024" lon="-8.41188901104033">
        <ele>123.67</ele>
        <time>2025-05-02T06:50:36Z</time>
      </trkpt>
      <trkpt lat="42.778419982641935" lon="-8.411636967211962">
        <ele>122.70999999999999</ele>
        <time>2025-05-02T06:50:37Z</time>
      </trkpt>
      <trkpt lat="42.778345970436931" lon="-8.411389030516148">
        <ele>121.26000000000001</ele>
        <time>2025-05-02T06:50:38Z</time>
      </trkpt>
      <trkpt lat="42.778246980160475" lon="-8.411167999729514">
        <ele>119.81999999999999</ele>
        <time>2025-05-02T06:50:39Z</time>
      </trkpt>
      <trkpt lat="42.778131980448961" lon="-8.410961972549558">
        <ele>118.38</ele>
        <time>2025-05-02T06:50:40Z</time>
      </trkpt>
      <trkpt lat="42.778016980737448" lon="-8.410757035017014">
        <ele>117.42</ele>
        <time>2025-05-02T06:50:41Z</time>
      </trkpt>
      <trkpt lat="42.777273003011942" lon="-8.409363962709904">
        <ele>107.81</ele>
        <time>2025-05-02T06:50:49Z</time>
      </trkpt>
      <trkpt lat="42.777012996375561" lon="-8.40795798227191">
        <ele>99.150000000000006</ele>
        <time>2025-05-02T06:50:58Z</time>
      </trkpt>
      <trkpt lat="42.777233021333814" lon="-8.406532974913716">
        <ele>92.900000000000006</ele>
        <time>2025-05-02T06:51:07Z</time>
      </trkpt>
      <trkpt lat="42.777522029355168" lon="-8.404745031148195">
        <ele>85.689999999999998</ele>
        <time>2025-05-02T06:51:18Z</time>
      </trkpt>
      <trkpt lat="42.777500990778208" lon="-8.404198028147221">
        <ele>83.769999999999996</ele>
        <time>2025-05-02T06:51:21Z</time>
      </trkpt>
      <trkpt lat="42.777476012706757" lon="-8.404037011787295">
        <ele>83.290000000000006</ele>
        <time>2025-05-02T06:51:22Z</time>
      </trkpt>
      <trkpt lat="42.776957005262375" lon="-8.402575040236116">
        <ele>79.450000000000003</ele>
        <time>2025-05-02T06:51:30Z</time>
      </trkpt>
      <trkpt lat="42.77604203671217" lon="-8.401508023962379">
        <ele>78.969999999999999</ele>
        <time>2025-05-02T06:51:37Z</time>
      </trkpt>
      <trkpt lat="42.774490965530276" lon="-8.400857001543045">
        <ele>82.329999999999998</ele>
        <time>2025-05-02T06:51:46Z</time>
      </trkpt>
      <trkpt lat="42.772847022861242" lon="-8.400390967726708">
        <ele>91.459999999999994</ele>
        <time>2025-05-02T06:51:56Z</time>
      </trkpt>
      <trkpt lat="42.772229025140405" lon="-8.400132972747088">
        <ele>95.310000000000002</ele>
        <time>2025-05-02T06:52:00Z</time>
      </trkpt>
      <trkpt lat="42.772089969366789" lon="-8.400042029097676">
        <ele>96.75</ele>
        <time>2025-05-02T06:52:01Z</time>
      </trkpt>
      <trkpt lat="42.771947979927063" lon="-8.399940021336079">
        <ele>97.709999999999994</ele>
        <time>2025-05-02T06:52:02Z</time>
      </trkpt>
      <trkpt lat="42.771823005750775" lon="-8.399803983047605">
        <ele>99.150000000000006</ele>
        <time>2025-05-02T06:52:03Z</time>
      </trkpt>
      <trkpt lat="42.77170498855412" lon="-8.399646990001202">
        <ele>100.11</ele>
        <time>2025-05-02T06:52:04Z</time>
      </trkpt>
      <trkpt lat="42.771578002721071" lon="-8.399477005004883">
        <ele>101.56</ele>
        <time>2025-05-02T06:52:05Z</time>
      </trkpt>
      <trkpt lat="42.771480018272996" lon="-8.399312971159816">
        <ele>102.52</ele>
        <time>2025-05-02T06:52:06Z</time>
      </trkpt>
      <trkpt lat="42.771373987197876" lon="-8.399138040840626">
        <ele>103.95999999999999</ele>
        <time>2025-05-02T06:52:07Z</time>
      </trkpt>
      <trkpt lat="42.771034017205238" lon="-8.398623978719115">
        <ele>108.77</ele>
        <time>2025-05-02T06:52:10Z</time>
      </trkpt>
      <trkpt lat="42.770774010568857" lon="-8.398349974304438">
        <ele>111.17</ele>
        <time>2025-05-02T06:52:12Z</time>
      </trkpt>
      <trkpt lat="42.770620035007596" lon="-8.398252995684743">
        <ele>112.61</ele>
        <time>2025-05-02T06:52:13Z</time>
      </trkpt>
      <trkpt lat="42.770477961748838" lon="-8.398165991529822">
        <ele>114.05</ele>
        <time>2025-05-02T06:52:14Z</time>
      </trkpt>
      <trkpt lat="42.770304037258029" lon="-8.398113017901778">
        <ele>115.01000000000001</ele>
        <time>2025-05-02T06:52:15Z</time>
      </trkpt>
      <trkpt lat="42.770133968442678" lon="-8.398082004860044">
        <ele>116.45999999999999</ele>
        <time>2025-05-02T06:52:16Z</time>
      </trkpt>
      <trkpt lat="42.76994101703167" lon="-8.398082004860044">
        <ele>117.42</ele>
        <time>2025-05-02T06:52:17Z</time>
      </trkpt>
      <trkpt lat="42.769743958488107" lon="-8.398082004860044">
        <ele>118.38</ele>
        <time>2025-05-02T06:52:18Z</time>
      </trkpt>
      <trkpt lat="42.767203990370035" lon="-8.398211002349854">
        <ele>132.80000000000001</ele>
        <time>2025-05-02T06:52:30Z</time>
      </trkpt>
      <trkpt lat="42.766419025138021" lon="-8.398359026759863">
        <ele>138.56999999999999</ele>
        <time>2025-05-02T06:52:34Z</time>
      </trkpt>
      <trkpt lat="42.766229007393122" lon="-8.398438990116119">
        <ele>140.00999999999999</ele>
        <time>2025-05-02T06:52:35Z</time>
      </trkpt>
      <trkpt lat="42.766050975769758" lon="-8.39856899343431">
        <ele>140.97</ele>
        <time>2025-05-02T06:52:36Z</time>
      </trkpt>
      <trkpt lat="42.765895994380116" lon="-8.398743001744151">
        <ele>142.41</ele>
        <time>2025-05-02T06:52:37Z</time>
      </trkpt>
      <trkpt lat="42.765741012990475" lon="-8.398916004225612">
        <ele>143.37</ele>
        <time>2025-05-02T06:52:38Z</time>
      </trkpt>
      <trkpt lat="42.764809029176831" lon="-8.399754026904702">
        <ele>153.94999999999999</ele>
        <time>2025-05-02T06:52:45Z</time>
      </trkpt>
      <trkpt lat="42.764466041699052" lon="-8.39985704049468">
        <ele>155.38999999999999</ele>
        <time>2025-05-02T06:52:46Z</time>
      </trkpt>
      <trkpt lat="42.764279041439295" lon="-8.399876989424229">
        <ele>156.34999999999999</ele>
        <time>2025-05-02T06:52:47Z</time>
      </trkpt>
      <trkpt lat="42.764095980674028" lon="-8.399896016344428">
        <ele>157.78999999999999</ele>
        <time>2025-05-02T06:52:48Z</time>
      </trkpt>
      <trkpt lat="42.763917027041316" lon="-8.399888975545764">
        <ele>158.75</ele>
        <time>2025-05-02T06:52:49Z</time>
      </trkpt>
      <trkpt lat="42.763742012903094" lon="-8.399833990260959">
        <ele>160.19999999999999</ele>
        <time>2025-05-02T06:52:50Z</time>
      </trkpt>
      <trkpt lat="42.763572027906775" lon="-8.399775987491012">
        <ele>161.16</ele>
        <time>2025-05-02T06:52:51Z</time>
      </trkpt>
      <trkpt lat="42.76341101154685" lon="-8.399679008871317">
        <ele>162.12</ele>
        <time>2025-05-02T06:52:52Z</time>
      </trkpt>
      <trkpt lat="42.763243960216641" lon="-8.399585969746113">
        <ele>163.56</ele>
        <time>2025-05-02T06:52:53Z</time>
      </trkpt>
      <trkpt lat="42.762392023578286" lon="-8.399203000590205">
        <ele>168.84999999999999</ele>
        <time>2025-05-02T06:52:58Z</time>
      </trkpt>
      <trkpt lat="42.762221032753587" lon="-8.399223033338785">
        <ele>169.81</ele>
        <time>2025-05-02T06:52:59Z</time>
      </trkpt>
      <trkpt lat="42.762050963938236" lon="-8.399254968389869">
        <ele>171.25</ele>
        <time>2025-05-02T06:53:00Z</time>
      </trkpt>
      <trkpt lat="42.761878967285156" lon="-8.399292016401887">
        <ele>172.21000000000001</ele>
        <time>2025-05-02T06:53:01Z</time>
      </trkpt>
      <trkpt lat="42.76171300560236" lon="-8.399352030828595">
        <ele>173.16999999999999</ele>
        <time>2025-05-02T06:53:02Z</time>
      </trkpt>
      <trkpt lat="42.761390972882509" lon="-8.399468036368489">
        <ele>175.09999999999999</ele>
        <time>2025-05-02T06:53:04Z</time>
      </trkpt>
      <trkpt lat="42.761226017028093" lon="-8.399468958377838">
        <ele>176.06</ele>
        <time>2025-05-02T06:53:05Z</time>
      </trkpt>
      <trkpt lat="42.761055026203394" lon="-8.399457978084683">
        <ele>177.02000000000001</ele>
        <time>2025-05-02T06:53:06Z</time>
      </trkpt>
      <trkpt lat="42.760895015671849" lon="-8.399390000849962">
        <ele>177.97999999999999</ele>
        <time>2025-05-02T06:53:07Z</time>
      </trkpt>
      <trkpt lat="42.760730981826782" lon="-8.399304002523422">
        <ele>179.41999999999999</ele>
        <time>2025-05-02T06:53:08Z</time>
      </trkpt>
      <trkpt lat="42.760567031800747" lon="-8.399216998368502">
        <ele>180.38</ele>
        <time>2025-05-02T06:53:09Z</time>
      </trkpt>
      <trkpt lat="42.759309997782111" lon="-8.398236986249685">
        <ele>188.56</ele>
        <time>2025-05-02T06:53:17Z</time>
      </trkpt>
      <trkpt lat="42.759211007505655" lon="-8.398076975718141">
        <ele>189.03999999999999</ele>
        <time>2025-05-02T06:53:18Z</time>
      </trkpt>
      <trkpt lat="42.759116962552071" lon="-8.397919982671738">
        <ele>190</ele>
        <time>2025-05-02T06:53:19Z</time>
      </trkpt>
      <trkpt lat="42.75904999114573" lon="-8.397757038474083">
        <ele>190.47999999999999</ele>
        <time>2025-05-02T06:53:20Z</time>
      </trkpt>
      <trkpt lat="42.758983019739389" lon="-8.397588981315494">
        <ele>190.96000000000001</ele>
        <time>2025-05-02T06:53:21Z</time>
      </trkpt>
      <trkpt lat="42.758960975334048" lon="-8.397393012419343">
        <ele>191.91999999999999</ele>
        <time>2025-05-02T06:53:22Z</time>
      </trkpt>
      <trkpt lat="42.758937003090978" lon="-8.397180028259754">
        <ele>192.40000000000001</ele>
        <time>2025-05-02T06:53:23Z</time>
      </trkpt>
      <trkpt lat="42.758910013362765" lon="-8.396952040493488">
        <ele>193.36000000000001</ele>
        <time>2025-05-02T06:53:24Z</time>
      </trkpt>
      <trkpt lat="42.758845975622535" lon="-8.39648399502039">
        <ele>194.31999999999999</ele>
        <time>2025-05-02T06:53:26Z</time>
      </trkpt>
      <trkpt lat="42.758789984509349" lon="-8.396259024739265">
        <ele>194.80000000000001</ele>
        <time>2025-05-02T06:53:27Z</time>
      </trkpt>
      <trkpt lat="42.758698035031557" lon="-8.396046040579677">
        <ele>195.28</ele>
        <time>2025-05-02T06:53:28Z</time>
      </trkpt>
      <trkpt lat="42.758585968986154" lon="-8.39586297981441">
        <ele>196.25</ele>
        <time>2025-05-02T06:53:29Z</time>
      </trkpt>
      <trkpt lat="42.758471975103021" lon="-8.395685032010078">
        <ele>196.72999999999999</ele>
        <time>2025-05-02T06:53:30Z</time>
      </trkpt>
      <trkpt lat="42.758317999541759" lon="-8.395572965964675">
        <ele>197.69</ele>
        <time>2025-05-02T06:53:31Z</time>
      </trkpt>
      <trkpt lat="42.75816997513175" lon="-8.395469030365348">
        <ele>198.16999999999999</ele>
        <time>2025-05-02T06:53:32Z</time>
      </trkpt>
      <trkpt lat="42.758011976256967" lon="-8.395400969311595">
        <ele>199.13</ele>
        <time>2025-05-02T06:53:33Z</time>
      </trkpt>
      <trkpt lat="42.757849032059312" lon="-8.395364005118609">
        <ele>200.09</ele>
        <time>2025-05-02T06:53:34Z</time>
      </trkpt>
      <trkpt lat="42.757692961022258" lon="-8.395328968763351">
        <ele>200.56999999999999</ele>
        <time>2025-05-02T06:53:35Z</time>
      </trkpt>
      <trkpt lat="42.757206978276372" lon="-8.395193014293909">
        <ele>204.41999999999999</ele>
        <time>2025-05-02T06:53:39Z</time>
      </trkpt>
      <trkpt lat="42.757107987999916" lon="-8.395129982382059">
        <ele>205.38</ele>
        <time>2025-05-02T06:53:40Z</time>
      </trkpt>
      <trkpt lat="42.757005980238318" lon="-8.395051024854183">
        <ele>206.34</ele>
        <time>2025-05-02T06:53:41Z</time>
      </trkpt>
      <trkpt lat="42.75690296664834" lon="-8.394971983507276">
        <ele>207.78</ele>
        <time>2025-05-02T06:53:42Z</time>
      </trkpt>
      <trkpt lat="42.756820991635323" lon="-8.394860001280904">
        <ele>208.74000000000001</ele>
        <time>2025-05-02T06:53:43Z</time>
      </trkpt>
      <trkpt lat="42.756733987480402" lon="-8.394739972427487">
        <ele>209.22</ele>
        <time>2025-05-02T06:53:44Z</time>
      </trkpt>
      <trkpt lat="42.756648994982243" lon="-8.394622039049864">
        <ele>210.19</ele>
        <time>2025-05-02T06:53:45Z</time>
      </trkpt>
      <trkpt lat="42.756597027182579" lon="-8.394490024074912">
        <ele>211.15000000000001</ele>
        <time>2025-05-02T06:53:46Z</time>
      </trkpt>
      <trkpt lat="42.75655603967607" lon="-8.39433797635138">
        <ele>212.11000000000001</ele>
        <time>2025-05-02T06:53:47Z</time>
      </trkpt>
      <trkpt lat="42.75651496835053" lon="-8.394187018275261">
        <ele>213.06999999999999</ele>
        <time>2025-05-02T06:53:48Z</time>
      </trkpt>
      <trkpt lat="42.75647196918726" lon="-8.394027007743716">
        <ele>213.55000000000001</ele>
        <time>2025-05-02T06:53:49Z</time>
      </trkpt>
      <trkpt lat="42.756463000550866" lon="-8.393880994990468">
        <ele>214.50999999999999</ele>
        <time>2025-05-02T06:53:50Z</time>
      </trkpt>
      <trkpt lat="42.756453026086092" lon="-8.393715033307672">
        <ele>214.99000000000001</ele>
        <time>2025-05-02T06:53:51Z</time>
      </trkpt>
      <trkpt lat="42.756456965580583" lon="-8.393549993634224">
        <ele>215.94999999999999</ele>
        <time>2025-05-02T06:53:52Z</time>
      </trkpt>
      <trkpt lat="42.756442967802286" lon="-8.39180001989007">
        <ele>222.19999999999999</ele>
        <time>2025-05-02T06:54:01Z</time>
      </trkpt>
      <trkpt lat="42.756408015266061" lon="-8.39158502407372">
        <ele>223.16</ele>
        <time>2025-05-02T06:54:02Z</time>
      </trkpt>
      <trkpt lat="42.756205005571246" lon="-8.390939030796289">
        <ele>226.05000000000001</ele>
        <time>2025-05-02T06:54:05Z</time>
      </trkpt>
      <trkpt lat="42.755584996193647" lon="-8.389692977070808">
        <ele>233.25999999999999</ele>
        <time>2025-05-02T06:54:11Z</time>
      </trkpt>
      <trkpt lat="42.755360025912523" lon="-8.389271032065153">
        <ele>235.66</ele>
        <time>2025-05-02T06:54:13Z</time>
      </trkpt>
      <trkpt lat="42.75524502620101" lon="-8.389055030420423">
        <ele>236.62</ele>
        <time>2025-05-02T06:54:14Z</time>
      </trkpt>
      <trkpt lat="42.755131032317877" lon="-8.388841040432453">
        <ele>238.06</ele>
        <time>2025-05-02T06:54:15Z</time>
      </trkpt>
      <trkpt lat="42.755015026777983" lon="-8.388622021302581">
        <ele>239.02000000000001</ele>
        <time>2025-05-02T06:54:16Z</time>
      </trkpt>
      <trkpt lat="42.754899021238089" lon="-8.38840601965785">
        <ele>240.47</ele>
        <time>2025-05-02T06:54:17Z</time>
      </trkpt>
      <trkpt lat="42.753803003579378" lon="-8.386546997353435">
        <ele>253.44</ele>
        <time>2025-05-02T06:54:26Z</time>
      </trkpt>
      <trkpt lat="42.753261029720306" lon="-8.385559022426605">
        <ele>259.20999999999998</ele>
        <time>2025-05-02T06:54:31Z</time>
      </trkpt>
      <trkpt lat="42.753167990595102" lon="-8.385358024388552">
        <ele>260.64999999999998</ele>
        <time>2025-05-02T06:54:32Z</time>
      </trkpt>
      <trkpt lat="42.75296900421381" lon="-8.384411036968231">
        <ele>264.98000000000002</ele>
        <time>2025-05-02T06:54:36Z</time>
      </trkpt>
      <trkpt lat="42.752961041405797" lon="-8.384157987311482">
        <ele>265.45999999999998</ele>
        <time>2025-05-02T06:54:37Z</time>
      </trkpt>
      <trkpt lat="42.752952994778752" lon="-8.383920025080442">
        <ele>266.42000000000002</ele>
        <time>2025-05-02T06:54:38Z</time>
      </trkpt>
      <trkpt lat="42.752981996163726" lon="-8.383672004565597">
        <ele>266.89999999999998</ele>
        <time>2025-05-02T06:54:39Z</time>
      </trkpt>
      <trkpt lat="42.753008985891938" lon="-8.383433958515525">
        <ele>267.38</ele>
        <time>2025-05-02T06:54:40Z</time>
      </trkpt>
      <trkpt lat="42.753053996711969" lon="-8.383202031254768">
        <ele>268.35000000000002</ele>
        <time>2025-05-02T06:54:41Z</time>
      </trkpt>
      <trkpt lat="42.753108981996775" lon="-8.382964991033077">
        <ele>268.82999999999998</ele>
        <time>2025-05-02T06:54:42Z</time>
      </trkpt>
      <trkpt lat="42.753176959231496" lon="-8.382732979953289">
        <ele>269.31</ele>
        <time>2025-05-02T06:54:43Z</time>
      </trkpt>
      <trkpt lat="42.753274021670222" lon="-8.382511027157307">
        <ele>269.79000000000002</ele>
        <time>2025-05-02T06:54:44Z</time>
      </trkpt>
      <trkpt lat="42.754412032663822" lon="-8.380007017403841">
        <ele>274.58999999999997</ele>
        <time>2025-05-02T06:54:55Z</time>
      </trkpt>
      <trkpt lat="42.754894997924566" lon="-8.378871018067002">
        <ele>279.39999999999998</ele>
        <time>2025-05-02T06:55:00Z</time>
      </trkpt>
      <trkpt lat="42.754954006522894" lon="-8.378640012815595">
        <ele>280.36000000000001</ele>
        <time>2025-05-02T06:55:01Z</time>
      </trkpt>
      <trkpt lat="42.75496699847281" lon="-8.378418982028961">
        <ele>281.31999999999999</ele>
        <time>2025-05-02T06:55:02Z</time>
      </trkpt>
      <trkpt lat="42.754980996251106" lon="-8.378193005919457">
        <ele>282.76999999999998</ele>
        <time>2025-05-02T06:55:03Z</time>
      </trkpt>
      <trkpt lat="42.754975967109203" lon="-8.377950014546514">
        <ele>283.73000000000002</ele>
        <time>2025-05-02T06:55:04Z</time>
      </trkpt>
      <trkpt lat="42.75492500513792" lon="-8.377722026780248">
        <ele>285.17000000000002</ele>
        <time>2025-05-02T06:55:05Z</time>
      </trkpt>
      <trkpt lat="42.754871025681496" lon="-8.377481969073415">
        <ele>286.13</ele>
        <time>2025-05-02T06:55:06Z</time>
      </trkpt>
      <trkpt lat="42.75481503456831" lon="-8.37723202072084">
        <ele>287.56999999999999</ele>
        <time>2025-05-02T06:55:07Z</time>
      </trkpt>
      <trkpt lat="42.754532983526587" lon="-8.375122966244817">
        <ele>297.67000000000002</ele>
        <time>2025-05-02T06:55:15Z</time>
      </trkpt>
      <trkpt lat="42.754412032663822" lon="-8.372441008687019">
        <ele>304.38999999999999</ele>
        <time>2025-05-02T06:55:25Z</time>
      </trkpt>
      <trkpt lat="42.754375990480185" lon="-8.370642000809312">
        <ele>307.75999999999999</ele>
        <time>2025-05-02T06:55:32Z</time>
      </trkpt>
      <trkpt lat="42.754415972158313" lon="-8.370414013043046">
        <ele>308.72000000000003</ele>
        <time>2025-05-02T06:55:33Z</time>
      </trkpt>
      <trkpt lat="42.754457965493202" lon="-8.370192982256413">
        <ele>309.19999999999999</ele>
        <time>2025-05-02T06:55:34Z</time>
      </trkpt>
      <trkpt lat="42.754528960213065" lon="-8.369981003925204">
        <ele>310.16000000000003</ele>
        <time>2025-05-02T06:55:35Z</time>
      </trkpt>
      <trkpt lat="42.754616970196366" lon="-8.369781011715531">
        <ele>311.12</ele>
        <time>2025-05-02T06:55:36Z</time>
      </trkpt>
      <trkpt lat="42.754720989614725" lon="-8.369599040597677">
        <ele>311.60000000000002</ele>
        <time>2025-05-02T06:55:37Z</time>
      </trkpt>
      <trkpt lat="42.754833977669477" lon="-8.369410028681159">
        <ele>312.08999999999997</ele>
        <time>2025-05-02T06:55:38Z</time>
      </trkpt>
      <trkpt lat="42.754948977380991" lon="-8.369215987622738">
        <ele>312.56999999999999</ele>
        <time>2025-05-02T06:55:39Z</time>
      </trkpt>
      <trkpt lat="42.756398962810636" lon="-8.366980031132698">
        <ele>316.41000000000003</ele>
        <time>2025-05-02T06:55:50Z</time>
      </trkpt>
      <trkpt lat="42.756501976400614" lon="-8.366742990911007">
        <ele>317.37</ele>
        <time>2025-05-02T06:55:51Z</time>
      </trkpt>
      <trkpt lat="42.756596021354198" lon="-8.366501005366445">
        <ele>317.85000000000002</ele>
        <time>2025-05-02T06:55:52Z</time>
      </trkpt>
      <trkpt lat="42.756670033559203" lon="-8.366239992901683">
        <ele>318.81</ele>
        <time>2025-05-02T06:55:53Z</time>
      </trkpt>
      <trkpt lat="42.756734993308783" lon="-8.365983003750444">
        <ele>319.30000000000001</ele>
        <time>2025-05-02T06:55:54Z</time>
      </trkpt>
      <trkpt lat="42.75677002966404" lon="-8.365706987679005">
        <ele>319.77999999999997</ele>
        <time>2025-05-02T06:55:55Z</time>
      </trkpt>
      <trkpt lat="42.75677296333015" lon="-8.365432983264327">
        <ele>320.25999999999999</ele>
        <time>2025-05-02T06:55:56Z</time>
      </trkpt>
      <trkpt lat="42.75677296333015" lon="-8.365164007991552">
        <ele>320.74000000000001</ele>
        <time>2025-05-02T06:55:57Z</time>
      </trkpt>
      <trkpt lat="42.75677296333015" lon="-8.364909030497074">
        <ele>321.22000000000003</ele>
        <time>2025-05-02T06:55:58Z</time>
      </trkpt>
      <trkpt lat="42.756731975823641" lon="-8.364633014425635">
        <ele>321.69999999999999</ele>
        <time>2025-05-02T06:55:59Z</time>
      </trkpt>
      <trkpt lat="42.756694005802274" lon="-8.364373007789254">
        <ele>322.18000000000001</ele>
        <time>2025-05-02T06:56:00Z</time>
      </trkpt>
      <trkpt lat="42.756181033328176" lon="-8.361368011683226">
        <ele>321.69999999999999</ele>
        <time>2025-05-02T06:56:11Z</time>
      </trkpt>
      <trkpt lat="42.755680968984962" lon="-8.358597960323095">
        <ele>318.32999999999998</ele>
        <time>2025-05-02T06:56:21Z</time>
      </trkpt>
      <trkpt lat="42.755135977640748" lon="-8.355688014999032">
        <ele>325.06</ele>
        <time>2025-05-02T06:56:32Z</time>
      </trkpt>
      <trkpt lat="42.755057020112872" lon="-8.355448041111231">
        <ele>326.01999999999998</ele>
        <time>2025-05-02T06:56:33Z</time>
      </trkpt>
      <trkpt lat="42.7548189740628" lon="-8.355021988973022">
        <ele>326.99000000000001</ele>
        <time>2025-05-02T06:56:35Z</time>
      </trkpt>
      <trkpt lat="42.754701962694526" lon="-8.354812022298574">
        <ele>327.47000000000003</ele>
        <time>2025-05-02T06:56:36Z</time>
      </trkpt>
      <trkpt lat="42.754561984911561" lon="-8.354626027867198">
        <ele>327.47000000000003</ele>
        <time>2025-05-02T06:56:37Z</time>
      </trkpt>
      <trkpt lat="42.754400968551636" lon="-8.354458976536989">
        <ele>327.94999999999999</ele>
        <time>2025-05-02T06:56:38Z</time>
      </trkpt>
      <trkpt lat="42.754240036010742" lon="-8.354291003197432">
        <ele>327.94999999999999</ele>
        <time>2025-05-02T06:56:39Z</time>
      </trkpt>
      <trkpt lat="42.75406502187252" lon="-8.354142978787422">
        <ele>327.94999999999999</ele>
        <time>2025-05-02T06:56:40Z</time>
      </trkpt>
      <trkpt lat="42.752483021467924" lon="-8.353011002764106">
        <ele>331.79000000000002</ele>
        <time>2025-05-02T06:56:49Z</time>
      </trkpt>
      <trkpt lat="42.751586996018887" lon="-8.351571997627616">
        <ele>336.60000000000002</ele>
        <time>2025-05-02T06:56:56Z</time>
      </trkpt>
      <trkpt lat="42.749433014541864" lon="-8.347910027951002">
        <ele>348.13</ele>
        <time>2025-05-02T06:57:13Z</time>
      </trkpt>
      <trkpt lat="42.748376978561282" lon="-8.346061985939741">
        <ele>350.06</ele>
        <time>2025-05-02T06:57:23Z</time>
      </trkpt>
      <trkpt lat="42.748297015205026" lon="-8.345841960981488">
        <ele>350.54000000000002</ele>
        <time>2025-05-02T06:57:24Z</time>
      </trkpt>
      <trkpt lat="42.74824102409184" lon="-8.345628976821899">
        <ele>350.54000000000002</ele>
        <time>2025-05-02T06:57:25Z</time>
      </trkpt>
      <trkpt lat="42.748207999393344" lon="-8.345378022640944">
        <ele>350.54000000000002</ele>
        <time>2025-05-02T06:57:26Z</time>
      </trkpt>
      <trkpt lat="42.748174974694848" lon="-8.345124972984195">
        <ele>351.01999999999998</ele>
        <time>2025-05-02T06:57:27Z</time>
      </trkpt>
      <trkpt lat="42.748148990795016" lon="-8.344880975782871">
        <ele>351.5</ele>
        <time>2025-05-02T06:57:28Z</time>
      </trkpt>
      <trkpt lat="42.748167011886835" lon="-8.344622980803251">
        <ele>351.98000000000002</ele>
        <time>2025-05-02T06:57:29Z</time>
      </trkpt>
      <trkpt lat="42.748185032978654" lon="-8.344365991652012">
        <ele>352.45999999999998</ele>
        <time>2025-05-02T06:57:30Z</time>
      </trkpt>
      <trkpt lat="42.74826399050653" lon="-8.342617023736239">
        <ele>356.79000000000002</ele>
        <time>2025-05-02T06:57:37Z</time>
      </trkpt>
      <trkpt lat="42.748225014656782" lon="-8.342401022091508">
        <ele>357.26999999999998</ele>
        <time>2025-05-02T06:57:38Z</time>
      </trkpt>
      <trkpt lat="42.748188972473145" lon="-8.342206981033087">
        <ele>357.75</ele>
        <time>2025-05-02T06:57:39Z</time>
      </trkpt>
      <trkpt lat="42.74811202660203" lon="-8.341996008530259">
        <ele>357.75</ele>
        <time>2025-05-02T06:57:40Z</time>
      </trkpt>
      <trkpt lat="42.748039020225406" lon="-8.341799033805728">
        <ele>358.23000000000002</ele>
        <time>2025-05-02T06:57:41Z</time>
      </trkpt>
      <trkpt lat="42.74794002994895" lon="-8.341628964990377">
        <ele>358.70999999999998</ele>
        <time>2025-05-02T06:57:42Z</time>
      </trkpt>
      <trkpt lat="42.747837016358972" lon="-8.341455040499568">
        <ele>359.19</ele>
        <time>2025-05-02T06:57:43Z</time>
      </trkpt>
      <trkpt lat="42.747713970020413" lon="-8.341324031352997">
        <ele>359.67000000000002</ele>
        <time>2025-05-02T06:57:44Z</time>
      </trkpt>
      <trkpt lat="42.747574998065829" lon="-8.341184975579381">
        <ele>359.67000000000002</ele>
        <time>2025-05-02T06:57:45Z</time>
      </trkpt>
      <trkpt lat="42.746690958738327" lon="-8.340284004807472">
        <ele>361.11000000000001</ele>
        <time>2025-05-02T06:57:51Z</time>
      </trkpt>
      <trkpt lat="42.746549975126982" lon="-8.340123994275928">
        <ele>361.58999999999997</ele>
        <time>2025-05-02T06:57:52Z</time>
      </trkpt>
      <trkpt lat="42.745713964104652" lon="-8.339066030457616">
        <ele>361.58999999999997</ele>
        <time>2025-05-02T06:57:58Z</time>
      </trkpt>
      <trkpt lat="42.745399978011847" lon="-8.338751960545778">
        <ele>361.58999999999997</ele>
        <time>2025-05-02T06:58:00Z</time>
      </trkpt>
      <trkpt lat="42.745218006893992" lon="-8.338644001632929">
        <ele>361.58999999999997</ele>
        <time>2025-05-02T06:58:01Z</time>
      </trkpt>
      <trkpt lat="42.745036035776138" lon="-8.338536964729428">
        <ele>361.58999999999997</ele>
        <time>2025-05-02T06:58:02Z</time>
      </trkpt>
      <trkpt lat="42.744002966210246" lon="-8.338049976155162">
        <ele>361.11000000000001</ele>
        <time>2025-05-02T06:58:08Z</time>
      </trkpt>
      <trkpt lat="42.743855025619268" lon="-8.337945034727454">
        <ele>361.11000000000001</ele>
        <time>2025-05-02T06:58:09Z</time>
      </trkpt>
      <trkpt lat="42.74373097345233" lon="-8.337802961468697">
        <ele>361.11000000000001</ele>
        <time>2025-05-02T06:58:10Z</time>
      </trkpt>
      <trkpt lat="42.743613040074706" lon="-8.337639011442661">
        <ele>361.11000000000001</ele>
        <time>2025-05-02T06:58:11Z</time>
      </trkpt>
      <trkpt lat="42.743511032313108" lon="-8.337481012567878">
        <ele>361.58999999999997</ele>
        <time>2025-05-02T06:58:12Z</time>
      </trkpt>
      <trkpt lat="42.743422016501427" lon="-8.337288983166218">
        <ele>361.58999999999997</ele>
        <time>2025-05-02T06:58:13Z</time>
      </trkpt>
      <trkpt lat="42.743357978761196" lon="-8.337087985128164">
        <ele>361.58999999999997</ele>
        <time>2025-05-02T06:58:14Z</time>
      </trkpt>
      <trkpt lat="42.743295030668378" lon="-8.336867038160563">
        <ele>361.11000000000001</ele>
        <time>2025-05-02T06:58:15Z</time>
      </trkpt>
      <trkpt lat="42.743228981271386" lon="-8.336635027080774">
        <ele>361.11000000000001</ele>
        <time>2025-05-02T06:58:16Z</time>
      </trkpt>
      <trkpt lat="42.742735035717487" lon="-8.334375014528632">
        <ele>356.79000000000002</ele>
        <time>2025-05-02T06:58:25Z</time>
      </trkpt>
      <trkpt lat="42.742188032716513" lon="-8.331754999235272">
        <ele>348.62</ele>
        <time>2025-05-02T06:58:36Z</time>
      </trkpt>
      <trkpt lat="42.741876980289817" lon="-8.33065202459693">
        <ele>343.32999999999998</ele>
        <time>2025-05-02T06:58:43Z</time>
      </trkpt>
      <trkpt lat="42.741126967594028" lon="-8.32958098500967">
        <ele>338.51999999999998</ele>
        <time>2025-05-02T06:58:52Z</time>
      </trkpt>
      <trkpt lat="42.739513032138348" lon="-8.328160000964999">
        <ele>328.91000000000003</ele>
        <time>2025-05-02T06:59:08Z</time>
      </trkpt>
      <trkpt lat="42.738425983116031" lon="-8.326743040233851">
        <ele>321.22000000000003</ele>
        <time>2025-05-02T06:59:20Z</time>
      </trkpt>
      <trkpt lat="42.73702897131443" lon="-8.324690982699394">
        <ele>314.00999999999999</ele>
        <time>2025-05-02T06:59:36Z</time>
      </trkpt>
      <trkpt lat="42.735476978123188" lon="-8.322428958490491">
        <ele>307.75999999999999</ele>
        <time>2025-05-02T06:59:54Z</time>
      </trkpt>
      <trkpt lat="42.734278030693531" lon="-8.320806976407766">
        <ele>302.94999999999999</ele>
        <time>2025-05-02T07:00:07Z</time>
      </trkpt>
      <trkpt lat="42.733174972236156" lon="-8.319967025890946">
        <ele>298.63</ele>
        <time>2025-05-02T07:00:15Z</time>
      </trkpt>
      <trkpt lat="42.73115904070437" lon="-8.318808982148767">
        <ele>293.33999999999997</ele>
        <time>2025-05-02T07:00:26Z</time>
      </trkpt>
      <trkpt lat="42.730443980544806" lon="-8.318365998566151">
        <ele>293.81999999999999</ele>
        <time>2025-05-02T07:00:30Z</time>
      </trkpt>
      <trkpt lat="42.730294028297067" lon="-8.318204982206225">
        <ele>294.30000000000001</ele>
        <time>2025-05-02T07:00:31Z</time>
      </trkpt>
      <trkpt lat="42.730143992230296" lon="-8.318044971674681">
        <ele>294.77999999999997</ele>
        <time>2025-05-02T07:00:32Z</time>
      </trkpt>
      <trkpt lat="42.730029998347163" lon="-8.31784799695015">
        <ele>294.77999999999997</ele>
        <time>2025-05-02T07:00:33Z</time>
      </trkpt>
      <trkpt lat="42.729913992807269" lon="-8.317646998912096">
        <ele>295.25999999999999</ele>
        <time>2025-05-02T07:00:34Z</time>
      </trkpt>
      <trkpt lat="42.72980896756053" lon="-8.317443989217281">
        <ele>295.74000000000001</ele>
        <time>2025-05-02T07:00:35Z</time>
      </trkpt>
      <trkpt lat="42.729740990325809" lon="-8.317211978137493">
        <ele>296.69999999999999</ele>
        <time>2025-05-02T07:00:36Z</time>
      </trkpt>
      <trkpt lat="42.729672007262707" lon="-8.316972004249692">
        <ele>297.67000000000002</ele>
        <time>2025-05-02T07:00:37Z</time>
      </trkpt>
      <trkpt lat="42.72963797673583" lon="-8.316729012876749">
        <ele>298.63</ele>
        <time>2025-05-02T07:00:38Z</time>
      </trkpt>
      <trkpt lat="42.729606963694096" lon="-8.31647202372551">
        <ele>300.06999999999999</ele>
        <time>2025-05-02T07:00:39Z</time>
      </trkpt>
      <trkpt lat="42.729606963694096" lon="-8.316205982118845">
        <ele>301.02999999999997</ele>
        <time>2025-05-02T07:00:40Z</time>
      </trkpt>
      <trkpt lat="42.729611992835999" lon="-8.315942035987973">
        <ele>302.47000000000003</ele>
        <time>2025-05-02T07:00:41Z</time>
      </trkpt>
      <trkpt lat="42.729642000049353" lon="-8.315671971067786">
        <ele>303.91000000000003</ele>
        <time>2025-05-02T07:00:42Z</time>
      </trkpt>
      <trkpt lat="42.729672007262707" lon="-8.315404001623392">
        <ele>305.36000000000001</ele>
        <time>2025-05-02T07:00:43Z</time>
      </trkpt>
      <trkpt lat="42.729942994192243" lon="-8.313029995188117">
        <ele>316.88999999999999</ele>
        <time>2025-05-02T07:00:52Z</time>
      </trkpt>
      <trkpt lat="42.729963026940823" lon="-8.311421005055308">
        <ele>326.99000000000001</ele>
        <time>2025-05-02T07:00:59Z</time>
      </trkpt>
      <trkpt lat="42.729989010840654" lon="-8.311213972046971">
        <ele>327.94999999999999</ele>
        <time>2025-05-02T07:01:00Z</time>
      </trkpt>
      <trkpt lat="42.730050031095743" lon="-8.311045998707414">
        <ele>329.38999999999999</ele>
        <time>2025-05-02T07:01:01Z</time>
      </trkpt>
      <trkpt lat="42.730120019987226" lon="-8.310883976519108">
        <ele>330.35000000000002</ele>
        <time>2025-05-02T07:01:02Z</time>
      </trkpt>
      <trkpt lat="42.730183973908424" lon="-8.310733018442988">
        <ele>331.79000000000002</ele>
        <time>2025-05-02T07:01:03Z</time>
      </trkpt>
      <trkpt lat="42.730251029133797" lon="-8.310578037053347">
        <ele>332.75</ele>
        <time>2025-05-02T07:01:04Z</time>
      </trkpt>
      <trkpt lat="42.730310959741473" lon="-8.3105010073632">
        <ele>333.70999999999998</ele>
        <time>2025-05-02T07:01:05Z</time>
      </trkpt>
      <trkpt lat="42.730390001088381" lon="-8.310401011258364">
        <ele>334.68000000000001</ele>
        <time>2025-05-02T07:01:06Z</time>
      </trkpt>
      <trkpt lat="42.730468958616257" lon="-8.310301015153527">
        <ele>335.16000000000003</ele>
        <time>2025-05-02T07:01:07Z</time>
      </trkpt>
      <trkpt lat="42.730544982478023" lon="-8.310204036533833">
        <ele>336.12</ele>
        <time>2025-05-02T07:01:08Z</time>
      </trkpt>
      <trkpt lat="42.730622012168169" lon="-8.310106974095106">
        <ele>336.60000000000002</ele>
        <time>2025-05-02T07:01:09Z</time>
      </trkpt>
      <trkpt lat="42.731246966868639" lon="-8.309284960851073">
        <ele>340.44</ele>
        <time>2025-05-02T07:01:17Z</time>
      </trkpt>
      <trkpt lat="42.731406977400184" lon="-8.309044986963272">
        <ele>340.44</ele>
        <time>2025-05-02T07:01:19Z</time>
      </trkpt>
      <trkpt lat="42.73146104067564" lon="-8.308899980038405">
        <ele>340.92000000000002</ele>
        <time>2025-05-02T07:01:20Z</time>
      </trkpt>
      <trkpt lat="42.731514014303684" lon="-8.308756984770298">
        <ele>340.92000000000002</ele>
        <time>2025-05-02T07:01:21Z</time>
      </trkpt>
      <trkpt lat="42.73154997266829" lon="-8.308606026694179">
        <ele>340.92000000000002</ele>
        <time>2025-05-02T07:01:22Z</time>
      </trkpt>
      <trkpt lat="42.73156899958849" lon="-8.308461019769311">
        <ele>341.88999999999999</ele>
        <time>2025-05-02T07:01:23Z</time>
      </trkpt>
      <trkpt lat="42.73158903233707" lon="-8.308318024501205">
        <ele>341.88999999999999</ele>
        <time>2025-05-02T07:01:24Z</time>
      </trkpt>
      <trkpt lat="42.731603030115366" lon="-8.308161031454802">
        <ele>342.37</ele>
        <time>2025-05-02T07:01:25Z</time>
      </trkpt>
      <trkpt lat="42.731603030115366" lon="-8.307998003438115">
        <ele>342.37</ele>
        <time>2025-05-02T07:01:26Z</time>
      </trkpt>
      <trkpt lat="42.731603030115366" lon="-8.307809997349978">
        <ele>342.85000000000002</ele>
        <time>2025-05-02T07:01:27Z</time>
      </trkpt>
      <trkpt lat="42.731470009312034" lon="-8.306804001331329">
        <ele>346.20999999999998</ele>
        <time>2025-05-02T07:01:34Z</time>
      </trkpt>
      <trkpt lat="42.73116197437048" lon="-8.305941000580788">
        <ele>351.01999999999998</ele>
        <time>2025-05-02T07:01:41Z</time>
      </trkpt>
      <trkpt lat="42.730657970532775" lon="-8.305159974843264">
        <ele>354.86000000000001</ele>
        <time>2025-05-02T07:01:48Z</time>
      </trkpt>
      <trkpt lat="42.730594016611576" lon="-8.30506400205195">
        <ele>354.86000000000001</ele>
        <time>2025-05-02T07:01:49Z</time>
      </trkpt>
      <trkpt lat="42.7304080221802" lon="-8.304794020950794">
        <ele>355.33999999999997</ele>
        <time>2025-05-02T07:01:52Z</time>
      </trkpt>
      <trkpt lat="42.730351025238633" lon="-8.304706010967493">
        <ele>355.33999999999997</ele>
        <time>2025-05-02T07:01:53Z</time>
      </trkpt>
      <trkpt lat="42.730080038309097" lon="-8.304280964657664">
        <ele>355.82999999999998</ele>
        <time>2025-05-02T07:01:58Z</time>
      </trkpt>
      <trkpt lat="42.729927990585566" lon="-8.304044008255005">
        <ele>356.31</ele>
        <time>2025-05-02T07:02:01Z</time>
      </trkpt>
      <trkpt lat="42.729375958442688" lon="-8.303240016102791">
        <ele>357.75</ele>
        <time>2025-05-02T07:02:13Z</time>
      </trkpt>
      <trkpt lat="42.729222988709807" lon="-8.30300398170948">
        <ele>356.31</ele>
        <time>2025-05-02T07:02:21Z</time>
      </trkpt>
      <trkpt lat="42.729214020073414" lon="-8.302991995587945">
        <ele>355.82999999999998</ele>
        <time>2025-05-02T07:02:22Z</time>
      </trkpt>
      <trkpt lat="42.72920697927475" lon="-8.302979003638029">
        <ele>355.82999999999998</ele>
        <time>2025-05-02T07:02:23Z</time>
      </trkpt>
      <trkpt lat="42.729193987324834" lon="-8.30296098254621">
        <ele>355.33999999999997</ele>
        <time>2025-05-02T07:02:24Z</time>
      </trkpt>
      <trkpt lat="42.729174960404634" lon="-8.302930975332856">
        <ele>354.86000000000001</ele>
        <time>2025-05-02T07:02:25Z</time>
      </trkpt>
      <trkpt lat="42.728861980140209" lon="-8.302501989528537">
        <ele>352.94</ele>
        <time>2025-05-02T07:02:33Z</time>
      </trkpt>
      <trkpt lat="42.72845403291285" lon="-8.302062023431063">
        <ele>353.89999999999998</ele>
        <time>2025-05-02T07:02:40Z</time>
      </trkpt>
      <trkpt lat="42.728320006281137" lon="-8.301973007619381">
        <ele>354.38</ele>
        <time>2025-05-02T07:02:42Z</time>
      </trkpt>
      <trkpt lat="42.728211041539907" lon="-8.301926990970969">
        <ele>354.86000000000001</ele>
        <time>2025-05-02T07:02:43Z</time>
      </trkpt>
      <trkpt lat="42.727325996384025" lon="-8.30151803791523">
        <ele>355.33999999999997</ele>
        <time>2025-05-02T07:02:51Z</time>
      </trkpt>
      <trkpt lat="42.726983008906245" lon="-8.301207991316915">
        <ele>353.89999999999998</ele>
        <time>2025-05-02T07:02:54Z</time>
      </trkpt>
      <trkpt lat="42.726983008906245" lon="-8.301207991316915">
        <ele>353.42000000000002</ele>
        <time>2025-05-02T07:02:55Z</time>
      </trkpt>
      <trkpt lat="42.726404992863536" lon="-8.299891026690602">
        <ele>349.57999999999998</ele>
        <time>2025-05-02T07:03:03Z</time>
      </trkpt>
      <trkpt lat="42.725936025381088" lon="-8.298710016533732">
        <ele>344.76999999999998</ele>
        <time>2025-05-02T07:03:10Z</time>
      </trkpt>
      <trkpt lat="42.725832005962729" lon="-8.298557968810201">
        <ele>343.81</ele>
        <time>2025-05-02T07:03:11Z</time>
      </trkpt>
      <trkpt lat="42.72488996386528" lon="-8.297306969761848">
        <ele>337.07999999999998</ele>
        <time>2025-05-02T07:03:18Z</time>
      </trkpt>
      <trkpt lat="42.724070968106389" lon="-8.296296028420329">
        <ele>332.26999999999998</ele>
        <time>2025-05-02T07:03:24Z</time>
      </trkpt>
      <trkpt lat="42.723805010318756" lon="-8.295886991545558">
        <ele>330.82999999999998</ele>
        <time>2025-05-02T07:03:27Z</time>
      </trkpt>
      <trkpt lat="42.72372898645699" lon="-8.295765034854412">
        <ele>330.82999999999998</ele>
        <time>2025-05-02T07:03:28Z</time>
      </trkpt>
      <trkpt lat="42.723613986745477" lon="-8.295492036268115">
        <ele>330.35000000000002</ele>
        <time>2025-05-02T07:03:30Z</time>
      </trkpt>
      <trkpt lat="42.723557995632291" lon="-8.295347029343247">
        <ele>330.35000000000002</ele>
        <time>2025-05-02T07:03:31Z</time>
      </trkpt>
      <trkpt lat="42.722967993468046" lon="-8.293565958738327">
        <ele>332.75</ele>
        <time>2025-05-02T07:03:43Z</time>
      </trkpt>
      <trkpt lat="42.722853999584913" lon="-8.292600028216839">
        <ele>335.63999999999999</ele>
        <time>2025-05-02T07:03:49Z</time>
      </trkpt>
      <trkpt lat="42.722413027659059" lon="-8.291147025302053">
        <ele>340.44</ele>
        <time>2025-05-02T07:03:57Z</time>
      </trkpt>
      <trkpt lat="42.722330968827009" lon="-8.290556017309427">
        <ele>341.88999999999999</ele>
        <time>2025-05-02T07:04:00Z</time>
      </trkpt>
      <trkpt lat="42.722228961065412" lon="-8.289541974663734">
        <ele>344.76999999999998</ele>
        <time>2025-05-02T07:04:05Z</time>
      </trkpt>
      <trkpt lat="42.722186967730522" lon="-8.289323039352894">
        <ele>345.73000000000002</ele>
        <time>2025-05-02T07:04:06Z</time>
      </trkpt>
      <trkpt lat="42.721522031351924" lon="-8.286720961332321">
        <ele>347.64999999999998</ele>
        <time>2025-05-02T07:04:18Z</time>
      </trkpt>
      <trkpt lat="42.720943009480834" lon="-8.285529976710677">
        <ele>344.76999999999998</ele>
        <time>2025-05-02T07:04:24Z</time>
      </trkpt>
      <trkpt lat="42.720812000334263" lon="-8.285369966179133">
        <ele>344.29000000000002</ele>
        <time>2025-05-02T07:04:25Z</time>
      </trkpt>
      <trkpt lat="42.72067797370255" lon="-8.285215990617871">
        <ele>343.81</ele>
        <time>2025-05-02T07:04:26Z</time>
      </trkpt>
      <trkpt lat="42.720528021454811" lon="-8.285091016441584">
        <ele>343.32999999999998</ele>
        <time>2025-05-02T07:04:27Z</time>
      </trkpt>
      <trkpt lat="42.720378991216421" lon="-8.284966964274645">
        <ele>342.85000000000002</ele>
        <time>2025-05-02T07:04:28Z</time>
      </trkpt>
      <trkpt lat="42.719171997159719" lon="-8.284106981009245">
        <ele>341.41000000000003</ele>
        <time>2025-05-02T07:04:36Z</time>
      </trkpt>
      <trkpt lat="42.717311969026923" lon="-8.282619025558233">
        <ele>341.41000000000003</ele>
        <time>2025-05-02T07:04:48Z</time>
      </trkpt>
      <trkpt lat="42.716307984665036" lon="-8.281271969899535">
        <ele>343.81</ele>
        <time>2025-05-02T07:04:56Z</time>
      </trkpt>
      <trkpt lat="42.715510027483106" lon="-8.280277960002422">
        <ele>344.29000000000002</ele>
        <time>2025-05-02T07:05:02Z</time>
      </trkpt>
      <trkpt lat="42.715345993638039" lon="-8.280188022181392">
        <ele>344.29000000000002</ele>
        <time>2025-05-02T07:05:03Z</time>
      </trkpt>
      <trkpt lat="42.715180031955242" lon="-8.280095988884568">
        <ele>344.29000000000002</ele>
        <time>2025-05-02T07:05:04Z</time>
      </trkpt>
      <trkpt lat="42.715008035302162" lon="-8.280039997771382">
        <ele>344.29000000000002</ele>
        <time>2025-05-02T07:05:05Z</time>
      </trkpt>
      <trkpt lat="42.714831009507179" lon="-8.280002027750015">
        <ele>344.76999999999998</ele>
        <time>2025-05-02T07:05:06Z</time>
      </trkpt>
      <trkpt lat="42.714654989540577" lon="-8.279963973909617">
        <ele>345.25</ele>
        <time>2025-05-02T07:05:07Z</time>
      </trkpt>
      <trkpt lat="42.714476035907865" lon="-8.279937990009785">
        <ele>346.20999999999998</ele>
        <time>2025-05-02T07:05:08Z</time>
      </trkpt>
      <trkpt lat="42.713585961610079" lon="-8.279746966436505">
        <ele>351.5</ele>
        <time>2025-05-02T07:05:13Z</time>
      </trkpt>
      <trkpt lat="42.713419999927282" lon="-8.279658034443855">
        <ele>352.45999999999998</ele>
        <time>2025-05-02T07:05:14Z</time>
      </trkpt>
      <trkpt lat="42.713259989395738" lon="-8.279547980055213">
        <ele>353.42000000000002</ele>
        <time>2025-05-02T07:05:15Z</time>
      </trkpt>
      <trkpt lat="42.713109031319618" lon="-8.279418982565403">
        <ele>354.86000000000001</ele>
        <time>2025-05-02T07:05:16Z</time>
      </trkpt>
      <trkpt lat="42.712967041879892" lon="-8.279264001175761">
        <ele>355.82999999999998</ele>
        <time>2025-05-02T07:05:17Z</time>
      </trkpt>
      <trkpt lat="42.712847013026476" lon="-8.279082030057907">
        <ele>356.79000000000002</ele>
        <time>2025-05-02T07:05:18Z</time>
      </trkpt>
      <trkpt lat="42.712733019143343" lon="-8.278892012313008">
        <ele>357.75</ele>
        <time>2025-05-02T07:05:19Z</time>
      </trkpt>
      <trkpt lat="42.712623970583081" lon="-8.278693025931716">
        <ele>359.19</ele>
        <time>2025-05-02T07:05:20Z</time>
      </trkpt>
      <trkpt lat="42.710984973236918" lon="-8.275282010436058">
        <ele>377.44999999999999</ele>
        <time>2025-05-02T07:05:36Z</time>
      </trkpt>
      <trkpt lat="42.709936983883381" lon="-8.272905992344022">
        <ele>388.50999999999999</ele>
        <time>2025-05-02T07:05:47Z</time>
      </trkpt>
      <trkpt lat="42.709073983132839" lon="-8.270700965076685">
        <ele>399.07999999999998</ele>
        <time>2025-05-02T07:05:57Z</time>
      </trkpt>
      <trkpt lat="42.707766992971301" lon="-8.267133040353656">
        <ele>412.06</ele>
        <time>2025-05-02T07:06:13Z</time>
      </trkpt>
      <trkpt lat="42.706887982785702" lon="-8.265212997794151">
        <ele>422.16000000000003</ele>
        <time>2025-05-02T07:06:22Z</time>
      </trkpt>
      <trkpt lat="42.706536026671529" lon="-8.264297023415566">
        <ele>426</ele>
        <time>2025-05-02T07:06:26Z</time>
      </trkpt>
      <trkpt lat="42.706466037780046" lon="-8.264054032042623">
        <ele>426.95999999999998</ele>
        <time>2025-05-02T07:06:27Z</time>
      </trkpt>
      <trkpt lat="42.706428989768028" lon="-8.263801988214254">
        <ele>427.92000000000002</ele>
        <time>2025-05-02T07:06:28Z</time>
      </trkpt>
      <trkpt lat="42.706403005868196" lon="-8.263543993234634">
        <ele>428.88999999999999</ele>
        <time>2025-05-02T07:06:29Z</time>
      </trkpt>
      <trkpt lat="42.706381967291236" lon="-8.263268982991576">
        <ele>429.85000000000002</ele>
        <time>2025-05-02T07:06:30Z</time>
      </trkpt>
      <trkpt lat="42.706472994759679" lon="-8.261317005380988">
        <ele>436.57999999999998</ele>
        <time>2025-05-02T07:06:37Z</time>
      </trkpt>
      <trkpt lat="42.706464026123285" lon="-8.261047024279833">
        <ele>437.54000000000002</ele>
        <time>2025-05-02T07:06:38Z</time>
      </trkpt>
      <trkpt lat="42.70645497366786" lon="-8.26078400015831">
        <ele>438.5</ele>
        <time>2025-05-02T07:06:39Z</time>
      </trkpt>
      <trkpt lat="42.706406023353338" lon="-8.260532962158322">
        <ele>439.45999999999998</ele>
        <time>2025-05-02T07:06:40Z</time>
      </trkpt>
      <trkpt lat="42.706352965906262" lon="-8.260288964956999">
        <ele>440.42000000000002</ele>
        <time>2025-05-02T07:06:41Z</time>
      </trkpt>
      <trkpt lat="42.706264033913612" lon="-8.260063994675875">
        <ele>441.38</ele>
        <time>2025-05-02T07:06:42Z</time>
      </trkpt>
      <trkpt lat="42.706172000616789" lon="-8.259844975546002">
        <ele>442.33999999999997</ele>
        <time>2025-05-02T07:06:43Z</time>
      </trkpt>
      <trkpt lat="42.706066975370049" lon="-8.259640038013458">
        <ele>443.31</ele>
        <time>2025-05-02T07:06:44Z</time>
      </trkpt>
      <trkpt lat="42.705935966223478" lon="-8.259456977248192">
        <ele>444.26999999999998</ele>
        <time>2025-05-02T07:06:45Z</time>
      </trkpt>
      <trkpt lat="42.705803029239178" lon="-8.259270982816815">
        <ele>445.23000000000002</ele>
        <time>2025-05-02T07:06:46Z</time>
      </trkpt>
      <trkpt lat="42.705645030364394" lon="-8.259124970063567">
        <ele>446.19</ele>
        <time>2025-05-02T07:06:47Z</time>
      </trkpt>
      <trkpt lat="42.705488037317991" lon="-8.258988009765744">
        <ele>446.67000000000002</ele>
        <time>2025-05-02T07:06:48Z</time>
      </trkpt>
      <trkpt lat="42.705319980159402" lon="-8.258888013660908">
        <ele>447.63</ele>
        <time>2025-05-02T07:06:49Z</time>
      </trkpt>
      <trkpt lat="42.705145971849561" lon="-8.258812995627523">
        <ele>448.58999999999997</ele>
        <time>2025-05-02T07:06:50Z</time>
      </trkpt>
      <trkpt lat="42.704968024045229" lon="-8.258776031434536">
        <ele>449.55000000000001</ele>
        <time>2025-05-02T07:06:51Z</time>
      </trkpt>
      <trkpt lat="42.704788986593485" lon="-8.258737977594137">
        <ele>450.51999999999998</ele>
        <time>2025-05-02T07:06:52Z</time>
      </trkpt>
      <trkpt lat="42.704616989940405" lon="-8.258726997300983">
        <ele>451.48000000000002</ele>
        <time>2025-05-02T07:06:53Z</time>
      </trkpt>
      <trkpt lat="42.704445999115705" lon="-8.258717022836208">
        <ele>452.44</ele>
        <time>2025-05-02T07:06:54Z</time>
      </trkpt>
      <trkpt lat="42.702903980389237" lon="-8.258703025057912">
        <ele>461.08999999999997</ele>
        <time>2025-05-02T07:07:03Z</time>
      </trkpt>
      <trkpt lat="42.70273600704968" lon="-8.258649967610836">
        <ele>462.05000000000001</ele>
        <time>2025-05-02T07:07:04Z</time>
      </trkpt>
      <trkpt lat="42.70256501622498" lon="-8.258580984547734">
        <ele>463.00999999999999</ele>
        <time>2025-05-02T07:07:05Z</time>
      </trkpt>
      <trkpt lat="42.702422020956874" lon="-8.258451987057924">
        <ele>463.97000000000003</ele>
        <time>2025-05-02T07:07:06Z</time>
      </trkpt>
      <trkpt lat="42.702293023467064" lon="-8.258308991789818">
        <ele>464.93000000000001</ele>
        <time>2025-05-02T07:07:07Z</time>
      </trkpt>
      <trkpt lat="42.702176012098789" lon="-8.258153004571796">
        <ele>465.42000000000002</ele>
        <time>2025-05-02T07:07:08Z</time>
      </trkpt>
      <trkpt lat="42.702057994902134" lon="-8.257995005697012">
        <ele>465.89999999999998</ele>
        <time>2025-05-02T07:07:09Z</time>
      </trkpt>
      <trkpt lat="42.701951963827014" lon="-8.257828038185835">
        <ele>466.86000000000001</ele>
        <time>2025-05-02T07:07:10Z</time>
      </trkpt>
      <trkpt lat="42.701884992420673" lon="-8.257638020440936">
        <ele>467.33999999999997</ele>
        <time>2025-05-02T07:07:11Z</time>
      </trkpt>
      <trkpt lat="42.701821960508823" lon="-8.25745596550405">
        <ele>467.33999999999997</ele>
        <time>2025-05-02T07:07:12Z</time>
      </trkpt>
      <trkpt lat="42.701778039336205" lon="-8.257272988557816">
        <ele>467.81999999999999</ele>
        <time>2025-05-02T07:07:13Z</time>
      </trkpt>
      <trkpt lat="42.701733028516173" lon="-8.257084982469678">
        <ele>467.81999999999999</ele>
        <time>2025-05-02T07:07:14Z</time>
      </trkpt>
      <trkpt lat="42.701510991901159" lon="-8.256091978400946">
        <ele>467.33999999999997</ele>
        <time>2025-05-02T07:07:19Z</time>
      </trkpt>
      <trkpt lat="42.701375037431717" lon="-8.255679002031684">
        <ele>466.86000000000001</ele>
        <time>2025-05-02T07:07:21Z</time>
      </trkpt>
      <trkpt lat="42.701278980821371" lon="-8.255488984286785">
        <ele>466.86000000000001</ele>
        <time>2025-05-02T07:07:22Z</time>
      </trkpt>
      <trkpt lat="42.701166998594999" lon="-8.255321010947228">
        <ele>466.86000000000001</ele>
        <time>2025-05-02T07:07:23Z</time>
      </trkpt>
      <trkpt lat="42.70104001276195" lon="-8.255168963223696">
        <ele>466.86000000000001</ele>
        <time>2025-05-02T07:07:24Z</time>
      </trkpt>
      <trkpt lat="42.70088997669518" lon="-8.255067961290479">
        <ele>467.33999999999997</ele>
        <time>2025-05-02T07:07:25Z</time>
      </trkpt>
      <trkpt lat="42.70073801279068" lon="-8.254964025691152">
        <ele>467.81999999999999</ele>
        <time>2025-05-02T07:07:26Z</time>
      </trkpt>
      <trkpt lat="42.700580013915896" lon="-8.254856988787651">
        <ele>468.30000000000001</ele>
        <time>2025-05-02T07:07:27Z</time>
      </trkpt>
      <trkpt lat="42.699702009558678" lon="-8.254005974158645">
        <ele>473.11000000000001</ele>
        <time>2025-05-02T07:07:33Z</time>
      </trkpt>
      <trkpt lat="42.699565971270204" lon="-8.253821991384029">
        <ele>473.58999999999997</ele>
        <time>2025-05-02T07:07:34Z</time>
      </trkpt>
      <trkpt lat="42.699492964893579" lon="-8.25363096781075">
        <ele>474.55000000000001</ele>
        <time>2025-05-02T07:07:35Z</time>
      </trkpt>
      <trkpt lat="42.699411995708942" lon="-8.253422006964684">
        <ele>475.02999999999997</ele>
        <time>2025-05-02T07:07:36Z</time>
      </trkpt>
      <trkpt lat="42.69934200681746" lon="-8.253202987834811">
        <ele>475.99000000000001</ele>
        <time>2025-05-02T07:07:37Z</time>
      </trkpt>
      <trkpt lat="42.699305964633822" lon="-8.252973994240165">
        <ele>476.47000000000003</ele>
        <time>2025-05-02T07:07:38Z</time>
      </trkpt>
      <trkpt lat="42.699273023754358" lon="-8.252760004252195">
        <ele>477.43000000000001</ele>
        <time>2025-05-02T07:07:39Z</time>
      </trkpt>
      <trkpt lat="42.699245028197765" lon="-8.252564035356045">
        <ele>477.91000000000003</ele>
        <time>2025-05-02T07:07:40Z</time>
      </trkpt>
      <trkpt lat="42.699245028197765" lon="-8.252381980419159">
        <ele>478.87</ele>
        <time>2025-05-02T07:07:41Z</time>
      </trkpt>
      <trkpt lat="42.699251985177398" lon="-8.252218030393124">
        <ele>479.35000000000002</ele>
        <time>2025-05-02T07:07:42Z</time>
      </trkpt>
      <trkpt lat="42.69931904040277" lon="-8.250582972541452">
        <ele>483.68000000000001</ele>
        <time>2025-05-02T07:07:52Z</time>
      </trkpt>
      <trkpt lat="42.699289033189416" lon="-8.250261023640633">
        <ele>484.16000000000003</ele>
        <time>2025-05-02T07:07:54Z</time>
      </trkpt>
      <trkpt lat="42.69923496991396" lon="-8.250111993402243">
        <ele>484.16000000000003</ele>
        <time>2025-05-02T07:07:55Z</time>
      </trkpt>
      <trkpt lat="42.699175961315632" lon="-8.249968998134136">
        <ele>484.63999999999999</ele>
        <time>2025-05-02T07:07:56Z</time>
      </trkpt>
      <trkpt lat="42.699117036536336" lon="-8.24982700869441">
        <ele>484.63999999999999</ele>
        <time>2025-05-02T07:07:57Z</time>
      </trkpt>
      <trkpt lat="42.699058027938008" lon="-8.249685019254684">
        <ele>485.12</ele>
        <time>2025-05-02T07:07:58Z</time>
      </trkpt>
      <trkpt lat="42.698986027389765" lon="-8.24954797513783">
        <ele>485.12</ele>
        <time>2025-05-02T07:07:59Z</time>
      </trkpt>
      <trkpt lat="42.698986027389765" lon="-8.249546969309449">
        <ele>485.12</ele>
        <time>2025-05-02T07:08:00Z</time>
      </trkpt>
      <trkpt lat="42.698806989938021" lon="-8.249315964058042">
        <ele>485.60000000000002</ele>
        <time>2025-05-02T07:08:01Z</time>
      </trkpt>
      <trkpt lat="42.697691023349762" lon="-8.248390015214682">
        <ele>488.97000000000003</ele>
        <time>2025-05-02T07:08:12Z</time>
      </trkpt>
      <trkpt lat="42.697587003931403" lon="-8.248292030766606">
        <ele>488.49000000000001</ele>
        <time>2025-05-02T07:08:13Z</time>
      </trkpt>
      <trkpt lat="42.697549033910036" lon="-8.248178036883473">
        <ele>488.49000000000001</ele>
        <time>2025-05-02T07:08:14Z</time>
      </trkpt>
      <trkpt lat="42.697511985898018" lon="-8.24806597083807">
        <ele>488.49000000000001</ele>
        <time>2025-05-02T07:08:15Z</time>
      </trkpt>
      <trkpt lat="42.697496982291341" lon="-8.247954994440079">
        <ele>488.49000000000001</ele>
        <time>2025-05-02T07:08:16Z</time>
      </trkpt>
      <trkpt lat="42.697487007826567" lon="-8.247858015820384">
        <ele>488.49000000000001</ele>
        <time>2025-05-02T07:08:17Z</time>
      </trkpt>
      <trkpt lat="42.697478961199522" lon="-8.247780986130238">
        <ele>488.97000000000003</ele>
        <time>2025-05-02T07:08:18Z</time>
      </trkpt>
      <trkpt lat="42.697474015876651" lon="-8.247727006673813">
        <ele>488.97000000000003</ele>
        <time>2025-05-02T07:08:19Z</time>
      </trkpt>
      <trkpt lat="42.697469992563128" lon="-8.247688030824065">
        <ele>488.97000000000003</ele>
        <time>2025-05-02T07:08:20Z</time>
      </trkpt>
      <trkpt lat="42.697466975077987" lon="-8.247651988640428">
        <ele>489.44999999999999</ele>
        <time>2025-05-02T07:08:21Z</time>
      </trkpt>
      <trkpt lat="42.697464041411877" lon="-8.247620975598693">
        <ele>489.44999999999999</ele>
        <time>2025-05-02T07:08:22Z</time>
      </trkpt>
      <trkpt lat="42.697462029755116" lon="-8.247580993920565">
        <ele>490.41000000000003</ele>
        <time>2025-05-02T07:08:30Z</time>
      </trkpt>
      <trkpt lat="42.697450965642929" lon="-8.247301038354635">
        <ele>492.32999999999998</ele>
        <time>2025-05-02T07:08:57Z</time>
      </trkpt>
      <trkpt lat="42.697394974529743" lon="-8.246254976838827">
        <ele>494.25999999999999</ele>
        <time>2025-05-02T07:09:08Z</time>
      </trkpt>
      <trkpt lat="42.697321968153119" lon="-8.245643014088273">
        <ele>495.22000000000003</ele>
        <time>2025-05-02T07:09:13Z</time>
      </trkpt>
      <trkpt lat="42.697291038930416" lon="-8.245386024937034">
        <ele>495.69999999999999</ele>
        <time>2025-05-02T07:09:15Z</time>
      </trkpt>
      <trkpt lat="42.697276035323739" lon="-8.245265996083617">
        <ele>495.69999999999999</ele>
        <time>2025-05-02T07:09:16Z</time>
      </trkpt>
      <trkpt lat="42.697231024503708" lon="-8.2449059933424">
        <ele>495.22000000000003</ele>
        <time>2025-05-02T07:09:19Z</time>
      </trkpt>
      <trkpt lat="42.697216020897031" lon="-8.244779007509351">
        <ele>495.22000000000003</ele>
        <time>2025-05-02T07:09:20Z</time>
      </trkpt>
      <trkpt lat="42.697200011461973" lon="-8.244655961170793">
        <ele>494.74000000000001</ele>
        <time>2025-05-02T07:09:21Z</time>
      </trkpt>
      <trkpt lat="42.697147959843278" lon="-8.24441003613174">
        <ele>493.76999999999998</ele>
        <time>2025-05-02T07:09:23Z</time>
      </trkpt>
      <trkpt lat="42.697098003700376" lon="-8.244285983964801">
        <ele>493.29000000000002</ele>
        <time>2025-05-02T07:09:24Z</time>
      </trkpt>
      <trkpt lat="42.697027008980513" lon="-8.244189005345106">
        <ele>492.81</ele>
        <time>2025-05-02T07:09:25Z</time>
      </trkpt>
      <trkpt lat="42.69695601426065" lon="-8.244091020897031">
        <ele>492.32999999999998</ele>
        <time>2025-05-02T07:09:26Z</time>
      </trkpt>
      <trkpt lat="42.69687102176249" lon="-8.244006028398871">
        <ele>491.85000000000002</ele>
        <time>2025-05-02T07:09:27Z</time>
      </trkpt>
      <trkpt lat="42.696788040921092" lon="-8.243926987051964">
        <ele>490.88999999999999</ele>
        <time>2025-05-02T07:09:28Z</time>
      </trkpt>
      <trkpt lat="42.696112962439656" lon="-8.24301403015852">
        <ele>485.60000000000002</ele>
        <time>2025-05-02T07:09:37Z</time>
      </trkpt>
      <trkpt lat="42.69592696800828" lon="-8.242441965267062">
        <ele>484.63999999999999</ele>
        <time>2025-05-02T07:09:41Z</time>
      </trkpt>
      <trkpt lat="42.695853961631656" lon="-8.242149017751217">
        <ele>483.68000000000001</ele>
        <time>2025-05-02T07:09:43Z</time>
      </trkpt>
      <trkpt lat="42.69566997885704" lon="-8.240675982087851">
        <ele>477.91000000000003</ele>
        <time>2025-05-02T07:09:53Z</time>
      </trkpt>
      <trkpt lat="42.695624968037009" lon="-8.240546984598041">
        <ele>477.43000000000001</ele>
        <time>2025-05-02T07:09:54Z</time>
      </trkpt>
      <trkpt lat="42.695425981655717" lon="-8.240073993802071">
        <ele>475.50999999999999</ele>
        <time>2025-05-02T07:09:58Z</time>
      </trkpt>
      <trkpt lat="42.695430004969239" lon="-8.239947007969022">
        <ele>475.02999999999997</ele>
        <time>2025-05-02T07:09:59Z</time>
      </trkpt>
      <trkpt lat="42.695467974990606" lon="-8.239832008257508">
        <ele>475.02999999999997</ele>
        <time>2025-05-02T07:10:00Z</time>
      </trkpt>
      <trkpt lat="42.695487001910806" lon="-8.239703010767698">
        <ele>474.55000000000001</ele>
        <time>2025-05-02T07:10:01Z</time>
      </trkpt>
      <trkpt lat="42.695508040487766" lon="-8.239564038813114">
        <ele>474.55000000000001</ele>
        <time>2025-05-02T07:10:02Z</time>
      </trkpt>
      <trkpt lat="42.695531006902456" lon="-8.239391036331654">
        <ele>474.06999999999999</ele>
        <time>2025-05-02T07:10:03Z</time>
      </trkpt>
      <trkpt lat="42.695512985810637" lon="-8.239225996658206">
        <ele>473.58999999999997</ele>
        <time>2025-05-02T07:10:04Z</time>
      </trkpt>
      <trkpt lat="42.695493036881089" lon="-8.239045031368733">
        <ele>473.58999999999997</ele>
        <time>2025-05-02T07:10:05Z</time>
      </trkpt>
      <trkpt lat="42.695464035496116" lon="-8.238851996138692">
        <ele>473.11000000000001</ele>
        <time>2025-05-02T07:10:06Z</time>
      </trkpt>
      <trkpt lat="42.695172009989619" lon="-8.236568011343479">
        <ele>468.77999999999997</ele>
        <time>2025-05-02T07:10:16Z</time>
      </trkpt>
      <trkpt lat="42.694557029753923" lon="-8.232521982863545">
        <ele>454.83999999999997</ele>
        <time>2025-05-02T07:10:33Z</time>
      </trkpt>
      <trkpt lat="42.693995023146272" lon="-8.228910975158215">
        <ele>451</ele>
        <time>2025-05-02T07:10:47Z</time>
      </trkpt>
      <trkpt lat="42.693470986559987" lon="-8.226609975099564">
        <ele>463.49000000000001</ele>
        <time>2025-05-02T07:10:56Z</time>
      </trkpt>
      <trkpt lat="42.693371996283531" lon="-8.226373018696904">
        <ele>464.44999999999999</ele>
        <time>2025-05-02T07:10:57Z</time>
      </trkpt>
      <trkpt lat="42.692125020548701" lon="-8.224475020542741">
        <ele>470.69999999999999</ele>
        <time>2025-05-02T07:11:06Z</time>
      </trkpt>
      <trkpt lat="42.690279996022582" lon="-8.221742017194629">
        <ele>463.00999999999999</ele>
        <time>2025-05-02T07:11:18Z</time>
      </trkpt>
      <trkpt lat="42.689918987452984" lon="-8.221372961997986">
        <ele>461.08999999999997</ele>
        <time>2025-05-02T07:11:20Z</time>
      </trkpt>
      <trkpt lat="42.689726036041975" lon="-8.221227033063769">
        <ele>460.13</ele>
        <time>2025-05-02T07:11:21Z</time>
      </trkpt>
      <trkpt lat="42.688358025625348" lon="-8.220359003171325">
        <ele>454.83999999999997</ele>
        <time>2025-05-02T07:11:28Z</time>
      </trkpt>
      <trkpt lat="42.687163017690182" lon="-8.219412015751004">
        <ele>454.83999999999997</ele>
        <time>2025-05-02T07:11:35Z</time>
      </trkpt>
      <trkpt lat="42.686336981132627" lon="-8.218096978962421">
        <ele>453.88</ele>
        <time>2025-05-02T07:11:42Z</time>
      </trkpt>
      <trkpt lat="42.686005979776382" lon="-8.216367959976196">
        <ele>448.11000000000001</ele>
        <time>2025-05-02T07:11:49Z</time>
      </trkpt>
      <trkpt lat="42.686134977266192" lon="-8.214531987905502">
        <ele>439.94</ele>
        <time>2025-05-02T07:11:56Z</time>
      </trkpt>
      <trkpt lat="42.686461033299565" lon="-8.211400005966425">
        <ele>426</ele>
        <time>2025-05-02T07:12:08Z</time>
      </trkpt>
      <trkpt lat="42.686874009668827" lon="-8.207506025210023">
        <ele>413.98000000000002</ele>
        <time>2025-05-02T07:12:23Z</time>
      </trkpt>
      <trkpt lat="42.686876021325588" lon="-8.205379033461213">
        <ele>408.69999999999999</ele>
        <time>2025-05-02T07:12:31Z</time>
      </trkpt>
      <trkpt lat="42.686337986961007" lon="-8.203437030315399">
        <ele>402.93000000000001</ele>
        <time>2025-05-02T07:12:38Z</time>
      </trkpt>
      <trkpt lat="42.685168040916324" lon="-8.200547033920884">
        <ele>401.97000000000003</ele>
        <time>2025-05-02T07:12:49Z</time>
      </trkpt>
      <trkpt lat="42.683902038261294" lon="-8.197440030053258">
        <ele>413.98000000000002</ele>
        <time>2025-05-02T07:13:02Z</time>
      </trkpt>
      <trkpt lat="42.683387976139784" lon="-8.195385960862041">
        <ele>425.04000000000002</ele>
        <time>2025-05-02T07:13:10Z</time>
      </trkpt>
      <trkpt lat="42.683415971696377" lon="-8.193837990984321">
        <ele>432.25</ele>
        <time>2025-05-02T07:13:16Z</time>
      </trkpt>
      <trkpt lat="42.683497024700046" lon="-8.192802993580699">
        <ele>436.57999999999998</ele>
        <time>2025-05-02T07:13:22Z</time>
      </trkpt>
      <trkpt lat="42.683674972504377" lon="-8.190670972689986">
        <ele>439.94</ele>
        <time>2025-05-02T07:13:35Z</time>
      </trkpt>
      <trkpt lat="42.683838000521064" lon="-8.188306018710136">
        <ele>438.98000000000002</ele>
        <time>2025-05-02T07:13:48Z</time>
      </trkpt>
      <trkpt lat="42.683826014399529" lon="-8.187502026557922">
        <ele>439.45999999999998</ele>
        <time>2025-05-02T07:13:52Z</time>
      </trkpt>
      <trkpt lat="42.683586962521076" lon="-8.185974005609751">
        <ele>445.23000000000002</ele>
        <time>2025-05-02T07:14:01Z</time>
      </trkpt>
      <trkpt lat="42.683525020256639" lon="-8.185654990375042">
        <ele>447.14999999999998</ele>
        <time>2025-05-02T07:14:03Z</time>
      </trkpt>
      <trkpt lat="42.683148002251983" lon="-8.183923959732056">
        <ele>454.36000000000001</ele>
        <time>2025-05-02T07:14:14Z</time>
      </trkpt>
      <trkpt lat="42.683103997260332" lon="-8.183767972514033">
        <ele>455.31999999999999</ele>
        <time>2025-05-02T07:14:15Z</time>
      </trkpt>
      <trkpt lat="42.682895036414266" lon="-8.183001028373838">
        <ele>457.72000000000003</ele>
        <time>2025-05-02T07:14:20Z</time>
      </trkpt>
      <trkpt lat="42.682813983410597" lon="-8.182698022574186">
        <ele>459.17000000000002</ele>
        <time>2025-05-02T07:14:22Z</time>
      </trkpt>
      <trkpt lat="42.682772995904088" lon="-8.182544969022274">
        <ele>460.13</ele>
        <time>2025-05-02T07:14:23Z</time>
      </trkpt>
      <trkpt lat="42.682209983468056" lon="-8.1805560272187">
        <ele>467.33999999999997</ele>
        <time>2025-05-02T07:14:36Z</time>
      </trkpt>
      <trkpt lat="42.681750990450382" lon="-8.178888028487563">
        <ele>475.99000000000001</ele>
        <time>2025-05-02T07:14:47Z</time>
      </trkpt>
      <trkpt lat="42.681519985198975" lon="-8.177317008376122">
        <ele>481.27999999999997</ele>
        <time>2025-05-02T07:14:54Z</time>
      </trkpt>
      <trkpt lat="42.681716037914157" lon="-8.174956999719143">
        <ele>487.05000000000001</ele>
        <time>2025-05-02T07:15:05Z</time>
      </trkpt>
      <trkpt lat="42.682103030383587" lon="-8.172620963305235">
        <ele>490.41000000000003</ele>
        <time>2025-05-02T07:15:14Z</time>
      </trkpt>
      <trkpt lat="42.682696972042322" lon="-8.170028021559119">
        <ele>487.05000000000001</ele>
        <time>2025-05-02T07:15:24Z</time>
      </trkpt>
      <trkpt lat="42.68269102089107" lon="-8.169763991609216">
        <ele>486.56</ele>
        <time>2025-05-02T07:15:25Z</time>
      </trkpt>
      <trkpt lat="42.682680962607265" lon="-8.169508008286357">
        <ele>486.56</ele>
        <time>2025-05-02T07:15:26Z</time>
      </trkpt>
      <trkpt lat="42.682637963443995" lon="-8.169260993599892">
        <ele>486.56</ele>
        <time>2025-05-02T07:15:27Z</time>
      </trkpt>
      <trkpt lat="42.682591024786234" lon="-8.169016996398568">
        <ele>486.56</ele>
        <time>2025-05-02T07:15:28Z</time>
      </trkpt>
      <trkpt lat="42.682544002309442" lon="-8.168775010854006">
        <ele>486.56</ele>
        <time>2025-05-02T07:15:29Z</time>
      </trkpt>
      <trkpt lat="42.682465966790915" lon="-8.168546017259359">
        <ele>486.56</ele>
        <time>2025-05-02T07:15:30Z</time>
      </trkpt>
      <trkpt lat="42.682376028969884" lon="-8.168322974815965">
        <ele>487.05000000000001</ele>
        <time>2025-05-02T07:15:31Z</time>
      </trkpt>
      <trkpt lat="42.682285001501441" lon="-8.168099010363221">
        <ele>487.52999999999997</ele>
        <time>2025-05-02T07:15:32Z</time>
      </trkpt>
      <trkpt lat="42.682170001789927" lon="-8.167896000668407">
        <ele>488.00999999999999</ele>
        <time>2025-05-02T07:15:33Z</time>
      </trkpt>
      <trkpt lat="42.682041004300117" lon="-8.167705982923508">
        <ele>488.97000000000003</ele>
        <time>2025-05-02T07:15:34Z</time>
      </trkpt>
      <trkpt lat="42.681904966011643" lon="-8.16751797683537">
        <ele>489.44999999999999</ele>
        <time>2025-05-02T07:15:35Z</time>
      </trkpt>
      <trkpt lat="42.681748978793621" lon="-8.167361989617348">
        <ele>490.41000000000003</ele>
        <time>2025-05-02T07:15:36Z</time>
      </trkpt>
      <trkpt lat="42.681584022939205" lon="-8.167228968814015">
        <ele>490.88999999999999</ele>
        <time>2025-05-02T07:15:37Z</time>
      </trkpt>
      <trkpt lat="42.681413032114506" lon="-8.167110029608011">
        <ele>491.85000000000002</ele>
        <time>2025-05-02T07:15:38Z</time>
      </trkpt>
      <trkpt lat="42.681241035461426" lon="-8.166996035724878">
        <ele>492.81</ele>
        <time>2025-05-02T07:15:39Z</time>
      </trkpt>
      <trkpt lat="42.681061998009682" lon="-8.166926968842745">
        <ele>493.76999999999998</ele>
        <time>2025-05-02T07:15:40Z</time>
      </trkpt>
      <trkpt lat="42.679903032258153" lon="-8.166481973603368">
        <ele>499.06</ele>
        <time>2025-05-02T07:15:48Z</time>
      </trkpt>
      <trkpt lat="42.677788026630878" lon="-8.165547978132963">
        <ele>500.01999999999998</ele>
        <time>2025-05-02T07:16:00Z</time>
      </trkpt>
      <trkpt lat="42.676005028188229" lon="-8.164715990424156">
        <ele>490.88999999999999</ele>
        <time>2025-05-02T07:16:11Z</time>
      </trkpt>
      <trkpt lat="42.674799961969256" lon="-8.163761040195823">
        <ele>484.16000000000003</ele>
        <time>2025-05-02T07:16:19Z</time>
      </trkpt>
      <trkpt lat="42.67407501116395" lon="-8.162658987566829">
        <ele>486.56</ele>
        <time>2025-05-02T07:16:26Z</time>
      </trkpt>
      <trkpt lat="42.673768987879157" lon="-8.161951974034309">
        <ele>488.49000000000001</ele>
        <time>2025-05-02T07:16:31Z</time>
      </trkpt>
      <trkpt lat="42.673531025648117" lon="-8.161655003204942">
        <ele>489.44999999999999</ele>
        <time>2025-05-02T07:16:34Z</time>
      </trkpt>
      <trkpt lat="42.673503030091524" lon="-8.161541009321809">
        <ele>489.93000000000001</ele>
        <time>2025-05-02T07:16:35Z</time>
      </trkpt>
      <trkpt lat="42.673474028706551" lon="-8.161427015438676">
        <ele>489.93000000000001</ele>
        <time>2025-05-02T07:16:36Z</time>
      </trkpt>
      <trkpt lat="42.673505963757634" lon="-8.161297012120485">
        <ele>490.41000000000003</ele>
        <time>2025-05-02T07:16:37Z</time>
      </trkpt>
      <trkpt lat="42.673580981791019" lon="-8.161143036559224">
        <ele>490.88999999999999</ele>
        <time>2025-05-02T07:16:38Z</time>
      </trkpt>
      <trkpt lat="42.673567989841104" lon="-8.161011021584272">
        <ele>490.88999999999999</ele>
        <time>2025-05-02T07:16:39Z</time>
      </trkpt>
      <trkpt lat="42.673553992062807" lon="-8.16087800078094">
        <ele>491.37</ele>
        <time>2025-05-02T07:16:40Z</time>
      </trkpt>
      <trkpt lat="42.673541000112891" lon="-8.160742968320847">
        <ele>491.85000000000002</ele>
        <time>2025-05-02T07:16:41Z</time>
      </trkpt>
      <trkpt lat="42.673345031216741" lon="-8.159432960674167">
        <ele>496.18000000000001</ele>
        <time>2025-05-02T07:16:51Z</time>
      </trkpt>
      <trkpt lat="42.673345031216741" lon="-8.159300023689866">
        <ele>496.66000000000003</ele>
        <time>2025-05-02T07:16:52Z</time>
      </trkpt>
      <trkpt lat="42.673380989581347" lon="-8.159156022593379">
        <ele>497.13999999999999</ele>
        <time>2025-05-02T07:16:53Z</time>
      </trkpt>
      <trkpt lat="42.673388030380011" lon="-8.159130038693547">
        <ele>497.62</ele>
        <time>2025-05-02T07:16:54Z</time>
      </trkpt>
      <trkpt lat="42.673580981791019" lon="-8.158828960731626">
        <ele>498.10000000000002</ele>
        <time>2025-05-02T07:16:55Z</time>
      </trkpt>
      <trkpt lat="42.673611994832754" lon="-8.158624023199081">
        <ele>498.57999999999998</ele>
        <time>2025-05-02T07:16:57Z</time>
      </trkpt>
      <trkpt lat="42.673636972904205" lon="-8.158459989354014">
        <ele>499.06</ele>
        <time>2025-05-02T07:16:58Z</time>
      </trkpt>
      <trkpt lat="42.673754990100861" lon="-8.156987959519029">
        <ele>501.94999999999999</ele>
        <time>2025-05-02T07:17:06Z</time>
      </trkpt>
      <trkpt lat="42.673748033121228" lon="-8.15527000464499">
        <ele>499.54000000000002</ele>
        <time>2025-05-02T07:17:14Z</time>
      </trkpt>
      <trkpt lat="42.673654993996024" lon="-8.154817968606949">
        <ele>498.57999999999998</ele>
        <time>2025-05-02T07:17:16Z</time>
      </trkpt>
      <trkpt lat="42.67276500351727" lon="-8.152307001873851">
        <ele>499.54000000000002</ele>
        <time>2025-05-02T07:17:27Z</time>
      </trkpt>
      <trkpt lat="42.671691030263901" lon="-8.149440977722406">
        <ele>499.54000000000002</ele>
        <time>2025-05-02T07:17:39Z</time>
      </trkpt>
      <trkpt lat="42.670841021463275" lon="-8.148019993677735">
        <ele>499.06</ele>
        <time>2025-05-02T07:17:46Z</time>
      </trkpt>
      <trkpt lat="42.670714035630226" lon="-8.14783500507474">
        <ele>499.06</ele>
        <time>2025-05-02T07:17:47Z</time>
      </trkpt>
      <trkpt lat="42.669453984126449" lon="-8.146054018288851">
        <ele>500.5</ele>
        <time>2025-05-02T07:17:58Z</time>
      </trkpt>
      <trkpt lat="42.668660972267389" lon="-8.144946014508605">
        <ele>506.26999999999998</ele>
        <time>2025-05-02T07:18:08Z</time>
      </trkpt>
      <trkpt lat="42.667927974835038" lon="-8.143709013238549">
        <ele>512.51999999999998</ele>
        <time>2025-05-02T07:18:17Z</time>
      </trkpt>
      <trkpt lat="42.667787997052073" lon="-8.143186988309026">
        <ele>513.96000000000004</ele>
        <time>2025-05-02T07:18:20Z</time>
      </trkpt>
      <trkpt lat="42.667766958475113" lon="-8.142985990270972">
        <ele>514.44000000000005</ele>
        <time>2025-05-02T07:18:21Z</time>
      </trkpt>
      <trkpt lat="42.667723037302494" lon="-8.142563961446285">
        <ele>514.91999999999996</ele>
        <time>2025-05-02T07:18:23Z</time>
      </trkpt>
      <trkpt lat="42.667738040909171" lon="-8.142394982278347">
        <ele>515.39999999999998</ele>
        <time>2025-05-02T07:18:24Z</time>
      </trkpt>
      <trkpt lat="42.667755978181958" lon="-8.142181998118758">
        <ele>515.39999999999998</ele>
        <time>2025-05-02T07:18:25Z</time>
      </trkpt>
      <trkpt lat="42.667791014537215" lon="-8.141975970938802">
        <ele>515.39999999999998</ele>
        <time>2025-05-02T07:18:26Z</time>
      </trkpt>
      <trkpt lat="42.667843988165259" lon="-8.141772039234638">
        <ele>515.39999999999998</ele>
        <time>2025-05-02T07:18:27Z</time>
      </trkpt>
      <trkpt lat="42.667898973450065" lon="-8.141567017883062">
        <ele>515.39999999999998</ele>
        <time>2025-05-02T07:18:28Z</time>
      </trkpt>
      <trkpt lat="42.667984971776605" lon="-8.141378005966544">
        <ele>515.39999999999998</ele>
        <time>2025-05-02T07:18:29Z</time>
      </trkpt>
      <trkpt lat="42.668079016730189" lon="-8.141195029020309">
        <ele>514.91999999999996</ele>
        <time>2025-05-02T07:18:30Z</time>
      </trkpt>
      <trkpt lat="42.668173983693123" lon="-8.141009034588933">
        <ele>514.91999999999996</ele>
        <time>2025-05-02T07:18:31Z</time>
      </trkpt>
      <trkpt lat="42.66904603689909" lon="-8.13934899866581">
        <ele>509.16000000000003</ele>
        <time>2025-05-02T07:18:40Z</time>
      </trkpt>
      <trkpt lat="42.670177007094026" lon="-8.137243967503309">
        <ele>507.70999999999998</ele>
        <time>2025-05-02T07:18:52Z</time>
      </trkpt>
      <trkpt lat="42.670605992898345" lon="-8.135692980140448">
        <ele>501.45999999999998</ele>
        <time>2025-05-02T07:18:59Z</time>
      </trkpt>
      <trkpt lat="42.670620996505022" lon="-8.134728977456689">
        <ele>499.06</ele>
        <time>2025-05-02T07:19:03Z</time>
      </trkpt>
      <trkpt lat="42.670596018433571" lon="-8.134491015225649">
        <ele>498.57999999999998</ele>
        <time>2025-05-02T07:19:04Z</time>
      </trkpt>
      <trkpt lat="42.670070976018906" lon="-8.132794015109539">
        <ele>499.54000000000002</ele>
        <time>2025-05-02T07:19:12Z</time>
      </trkpt>
      <trkpt lat="42.668918967247009" lon="-8.129871999844909">
        <ele>511.56</ele>
        <time>2025-05-02T07:19:27Z</time>
      </trkpt>
      <trkpt lat="42.668267022818327" lon="-8.127865958958864">
        <ele>516.85000000000002</ele>
        <time>2025-05-02T07:19:38Z</time>
      </trkpt>
      <trkpt lat="42.66812302172184" lon="-8.127449965104461">
        <ele>518.28999999999996</ele>
        <time>2025-05-02T07:19:41Z</time>
      </trkpt>
      <trkpt lat="42.667962005361915" lon="-8.127173027023673">
        <ele>519.25</ele>
        <time>2025-05-02T07:19:44Z</time>
      </trkpt>
      <trkpt lat="42.667898973450065" lon="-8.12710496596992">
        <ele>518.76999999999998</ele>
        <time>2025-05-02T07:19:45Z</time>
      </trkpt>
      <trkpt lat="42.667749021202326" lon="-8.126974040642381">
        <ele>519.25</ele>
        <time>2025-05-02T07:19:47Z</time>
      </trkpt>
      <trkpt lat="42.667616000398993" lon="-8.126900028437376">
        <ele>519.25</ele>
        <time>2025-05-02T07:19:48Z</time>
      </trkpt>
      <trkpt lat="42.667581969872117" lon="-8.126798020675778">
        <ele>519.25</ele>
        <time>2025-05-02T07:19:49Z</time>
      </trkpt>
      <trkpt lat="42.667551962658763" lon="-8.126706993207336">
        <ele>519.73000000000002</ele>
        <time>2025-05-02T07:19:50Z</time>
      </trkpt>
      <trkpt lat="42.667508041486144" lon="-8.126543965190649">
        <ele>519.73000000000002</ele>
        <time>2025-05-02T07:19:51Z</time>
      </trkpt>
      <trkpt lat="42.66745800152421" lon="-8.126419996842742">
        <ele>519.25</ele>
        <time>2025-05-02T07:19:52Z</time>
      </trkpt>
      <trkpt lat="42.667378960177302" lon="-8.126260992139578">
        <ele>519.25</ele>
        <time>2025-05-02T07:19:53Z</time>
      </trkpt>
      <trkpt lat="42.667284999042749" lon="-8.126191003248096">
        <ele>519.25</ele>
        <time>2025-05-02T07:19:54Z</time>
      </trkpt>
      <trkpt lat="42.667187014594674" lon="-8.126117996871471">
        <ele>519.25</ele>
        <time>2025-05-02T07:19:55Z</time>
      </trkpt>
      <trkpt lat="42.667086012661457" lon="-8.126041973009706">
        <ele>519.73000000000002</ele>
        <time>2025-05-02T07:19:56Z</time>
      </trkpt>
      <trkpt lat="42.666108012199402" lon="-8.124932963401079">
        <ele>525.5</ele>
        <time>2025-05-02T07:20:07Z</time>
      </trkpt>
      <trkpt lat="42.665686989203095" lon="-8.12355799600482">
        <ele>528.38</ele>
        <time>2025-05-02T07:20:16Z</time>
      </trkpt>
      <trkpt lat="42.665166975930333" lon="-8.121361015364528">
        <ele>532.23000000000002</ele>
        <time>2025-05-02T07:20:30Z</time>
      </trkpt>
      <trkpt lat="42.66494401730597" lon="-8.120419979095459">
        <ele>534.14999999999998</ele>
        <time>2025-05-02T07:20:36Z</time>
      </trkpt>
      <trkpt lat="42.664904035627842" lon="-8.119929973036051">
        <ele>534.14999999999998</ele>
        <time>2025-05-02T07:20:39Z</time>
      </trkpt>
      <trkpt lat="42.664911998435855" lon="-8.11889698728919">
        <ele>534.14999999999998</ele>
        <time>2025-05-02T07:20:46Z</time>
      </trkpt>
      <trkpt lat="42.664925996214151" lon="-8.118782993406057">
        <ele>534.63</ele>
        <time>2025-05-02T07:20:47Z</time>
      </trkpt>
      <trkpt lat="42.664939993992448" lon="-8.118673022836447">
        <ele>535.11000000000001</ele>
        <time>2025-05-02T07:20:48Z</time>
      </trkpt>
      <trkpt lat="42.664938988164067" lon="-8.118355013430119">
        <ele>537.50999999999999</ele>
        <time>2025-05-02T07:20:54Z</time>
      </trkpt>
      <trkpt lat="42.664929013699293" lon="-8.118290975689888">
        <ele>537.99000000000001</ele>
        <time>2025-05-02T07:20:57Z</time>
      </trkpt>
      <trkpt lat="42.664906969293952" lon="-8.118269015103579">
        <ele>537.99000000000001</ele>
        <time>2025-05-02T07:20:58Z</time>
      </trkpt>
      <trkpt lat="42.664890959858894" lon="-8.118253005668521">
        <ele>538.48000000000002</ele>
        <time>2025-05-02T07:20:59Z</time>
      </trkpt>
      <trkpt lat="42.664834968745708" lon="-8.118216963484883">
        <ele>538.48000000000002</ele>
        <time>2025-05-02T07:21:00Z</time>
      </trkpt>
      <trkpt lat="42.664790041744709" lon="-8.11818896792829">
        <ele>538.48000000000002</ele>
        <time>2025-05-02T07:21:01Z</time>
      </trkpt>
      <trkpt lat="42.664742013439536" lon="-8.118158038705587">
        <ele>538.96000000000004</ele>
        <time>2025-05-02T07:21:02Z</time>
      </trkpt>
      <trkpt lat="42.664655009284616" lon="-8.11810296960175">
        <ele>538.96000000000004</ele>
        <time>2025-05-02T07:21:03Z</time>
      </trkpt>
      <trkpt lat="42.6646229904145" lon="-8.11809903010726">
        <ele>539.44000000000005</ele>
        <time>2025-05-02T07:21:04Z</time>
      </trkpt>
      <trkpt lat="42.663780022412539" lon="-8.11801596544683">
        <ele>538.96000000000004</ele>
        <time>2025-05-02T07:21:13Z</time>
      </trkpt>
      <trkpt lat="42.663082983344793" lon="-8.117954023182392">
        <ele>536.54999999999995</ele>
        <time>2025-05-02T07:21:20Z</time>
      </trkpt>
      <trkpt lat="42.662202967330813" lon="-8.117858972400427">
        <ele>535.11000000000001</ele>
        <time>2025-05-02T07:21:27Z</time>
      </trkpt>
      <trkpt lat="42.660857001319528" lon="-8.117695022374392">
        <ele>537.02999999999997</ele>
        <time>2025-05-02T07:21:38Z</time>
      </trkpt>
      <trkpt lat="42.660750970244408" lon="-8.11784396879375">
        <ele>537.02999999999997</ele>
        <time>2025-05-02T07:21:39Z</time>
      </trkpt>
      <trkpt lat="42.660623984411359" lon="-8.117784038186073">
        <ele>537.50999999999999</ele>
        <time>2025-05-02T07:21:40Z</time>
      </trkpt>
      <trkpt lat="42.660595988854766" lon="-8.117608018219471">
        <ele>537.99000000000001</ele>
        <time>2025-05-02T07:21:41Z</time>
      </trkpt>
      <trkpt lat="42.66028200276196" lon="-8.117490001022816">
        <ele>539.44000000000005</ele>
        <time>2025-05-02T07:21:45Z</time>
      </trkpt>
      <trkpt lat="42.659323029220104" lon="-8.117172997444868">
        <ele>545.20000000000005</ele>
        <time>2025-05-02T07:21:54Z</time>
      </trkpt>
      <trkpt lat="42.65843203291297" lon="-8.116865968331695">
        <ele>555.77999999999997</ele>
        <time>2025-05-02T07:22:05Z</time>
      </trkpt>
      <trkpt lat="42.658298006281257" lon="-8.11700502410531">
        <ele>557.22000000000003</ele>
        <time>2025-05-02T07:22:07Z</time>
      </trkpt>
      <trkpt lat="42.658234974369407" lon="-8.116995971649885">
        <ele>557.70000000000005</ele>
        <time>2025-05-02T07:22:08Z</time>
      </trkpt>
      <trkpt lat="42.658131960779428" lon="-8.116836966946721">
        <ele>558.17999999999995</ele>
        <time>2025-05-02T07:22:09Z</time>
      </trkpt>
      <trkpt lat="42.65811201184988" lon="-8.116817018017173">
        <ele>559.13999999999999</ele>
        <time>2025-05-02T07:22:10Z</time>
      </trkpt>
      <trkpt lat="42.658037999644876" lon="-8.116743005812168">
        <ele>559.62</ele>
        <time>2025-05-02T07:22:11Z</time>
      </trkpt>
      <trkpt lat="42.657950995489955" lon="-8.116656001657248">
        <ele>560.11000000000001</ele>
        <time>2025-05-02T07:22:12Z</time>
      </trkpt>
      <trkpt lat="42.657843958586454" lon="-8.116582995280623">
        <ele>560.59000000000003</ele>
        <time>2025-05-02T07:22:13Z</time>
      </trkpt>
      <trkpt lat="42.656433032825589" lon="-8.115849997848272">
        <ele>572.60000000000002</ele>
        <time>2025-05-02T07:22:25Z</time>
      </trkpt>
      <trkpt lat="42.655800031498075" lon="-8.115498963743448">
        <ele>578.85000000000002</ele>
        <time>2025-05-02T07:22:30Z</time>
      </trkpt>
      <trkpt lat="42.65551102347672" lon="-8.115338031202555">
        <ele>581.73000000000002</ele>
        <time>2025-05-02T07:22:33Z</time>
      </trkpt>
      <trkpt lat="42.655321005731821" lon="-8.115378012880683">
        <ele>582.70000000000005</ele>
        <time>2025-05-02T07:22:34Z</time>
      </trkpt>
      <trkpt lat="42.655303990468383" lon="-8.11537298373878">
        <ele>583.65999999999997</ele>
        <time>2025-05-02T07:22:35Z</time>
      </trkpt>
      <trkpt lat="42.655218997970223" lon="-8.115349011495709">
        <ele>584.13999999999999</ele>
        <time>2025-05-02T07:22:36Z</time>
      </trkpt>
      <trkpt lat="42.65516996383667" lon="-8.115335013717413">
        <ele>584.62</ele>
        <time>2025-05-02T07:22:37Z</time>
      </trkpt>
      <trkpt lat="42.655158983543515" lon="-8.115196041762829">
        <ele>585.10000000000002</ele>
        <time>2025-05-02T07:22:38Z</time>
      </trkpt>
      <trkpt lat="42.655078014358878" lon="-8.115014992654324">
        <ele>585.58000000000004</ele>
        <time>2025-05-02T07:22:39Z</time>
      </trkpt>
      <trkpt lat="42.654282990843058" lon="-8.114217035472393">
        <ele>589.90999999999997</ele>
        <time>2025-05-02T07:22:47Z</time>
      </trkpt>
      <trkpt lat="42.653111033141613" lon="-8.113016998395324">
        <ele>599.03999999999996</ele>
        <time>2025-05-02T07:22:59Z</time>
      </trkpt>
      <trkpt lat="42.653001984581351" lon="-8.113079024478793">
        <ele>599.51999999999998</ele>
        <time>2025-05-02T07:23:00Z</time>
      </trkpt>
      <trkpt lat="42.652853038161993" lon="-8.113059997558594">
        <ele>600.48000000000002</ele>
        <time>2025-05-02T07:23:02Z</time>
      </trkpt>
      <trkpt lat="42.65278497710824" lon="-8.112910967320204">
        <ele>601.44000000000005</ele>
        <time>2025-05-02T07:23:03Z</time>
      </trkpt>
      <trkpt lat="42.652747007086873" lon="-8.112825974822044">
        <ele>601.91999999999996</ele>
        <time>2025-05-02T07:23:04Z</time>
      </trkpt>
      <trkpt lat="42.652694033458829" lon="-8.112679962068796">
        <ele>601.91999999999996</ele>
        <time>2025-05-02T07:23:05Z</time>
      </trkpt>
      <trkpt lat="42.652615997940302" lon="-8.112640986219049">
        <ele>602.39999999999998</ele>
        <time>2025-05-02T07:23:06Z</time>
      </trkpt>
      <trkpt lat="42.652536034584045" lon="-8.112596981227398">
        <ele>602.39999999999998</ele>
        <time>2025-05-02T07:23:07Z</time>
      </trkpt>
      <trkpt lat="42.652456993237138" lon="-8.11253503896296">
        <ele>602.88</ele>
        <time>2025-05-02T07:23:08Z</time>
      </trkpt>
      <trkpt lat="42.65237401239574" lon="-8.11247100122273">
        <ele>602.88</ele>
        <time>2025-05-02T07:23:09Z</time>
      </trkpt>
      <trkpt lat="42.651358963921666" lon="-8.111825007945299">
        <ele>602.39999999999998</ele>
        <time>2025-05-02T07:23:20Z</time>
      </trkpt>
      <trkpt lat="42.64998902566731" lon="-8.110896041616797">
        <ele>602.39999999999998</ele>
        <time>2025-05-02T07:23:31Z</time>
      </trkpt>
      <trkpt lat="42.648985041305423" lon="-8.110164972022176">
        <ele>602.88</ele>
        <time>2025-05-02T07:23:39Z</time>
      </trkpt>
      <trkpt lat="42.648031013086438" lon="-8.109354022890329">
        <ele>601.91999999999996</ele>
        <time>2025-05-02T07:23:50Z</time>
      </trkpt>
      <trkpt lat="42.64739197678864" lon="-8.108419021591544">
        <ele>599.03999999999996</ele>
        <time>2025-05-02T07:23:58Z</time>
      </trkpt>
      <trkpt lat="42.647319976240396" lon="-8.1082399841398">
        <ele>598.08000000000004</ele>
        <time>2025-05-02T07:23:59Z</time>
      </trkpt>
      <trkpt lat="42.646792000159621" lon="-8.1069690361619">
        <ele>592.78999999999996</ele>
        <time>2025-05-02T07:24:06Z</time>
      </trkpt>
      <trkpt lat="42.64612396247685" lon="-8.105862038210034">
        <ele>588.46000000000004</ele>
        <time>2025-05-02T07:24:12Z</time>
      </trkpt>
      <trkpt lat="42.645432036370039" lon="-8.105273963883519">
        <ele>585.58000000000004</ele>
        <time>2025-05-02T07:24:16Z</time>
      </trkpt>
      <trkpt lat="42.645235983654857" lon="-8.105162987485528">
        <ele>584.62</ele>
        <time>2025-05-02T07:24:17Z</time>
      </trkpt>
      <trkpt lat="42.645039008930326" lon="-8.105063997209072">
        <ele>584.13999999999999</ele>
        <time>2025-05-02T07:24:18Z</time>
      </trkpt>
      <trkpt lat="42.643421972170472" lon="-8.104772977530956">
        <ele>582.22000000000003</ele>
        <time>2025-05-02T07:24:26Z</time>
      </trkpt>
      <trkpt lat="42.641488015651703" lon="-8.104443987831473">
        <ele>587.01999999999998</ele>
        <time>2025-05-02T07:24:36Z</time>
      </trkpt>
      <trkpt lat="42.64113899320364" lon="-8.10419999063015">
        <ele>587.98000000000002</ele>
        <time>2025-05-02T07:24:38Z</time>
      </trkpt>
      <trkpt lat="42.640976971015334" lon="-8.104037968441844">
        <ele>588.46000000000004</ele>
        <time>2025-05-02T07:24:39Z</time>
      </trkpt>
      <trkpt lat="42.640826012939215" lon="-8.103871000930667">
        <ele>588.95000000000005</ele>
        <time>2025-05-02T07:24:40Z</time>
      </trkpt>
      <trkpt lat="42.640689974650741" lon="-8.103668997064233">
        <ele>588.95000000000005</ele>
        <time>2025-05-02T07:24:41Z</time>
      </trkpt>
      <trkpt lat="42.640553014352918" lon="-8.103463975712657">
        <ele>588.95000000000005</ele>
        <time>2025-05-02T07:24:42Z</time>
      </trkpt>
      <trkpt lat="42.640412030741572" lon="-8.103255014866591">
        <ele>588.95000000000005</ele>
        <time>2025-05-02T07:24:43Z</time>
      </trkpt>
      <trkpt lat="42.63826098293066" lon="-8.09985900297761">
        <ele>580.28999999999996</ele>
        <time>2025-05-02T07:24:58Z</time>
      </trkpt>
      <trkpt lat="42.636286960914731" lon="-8.096725009381771">
        <ele>573.08000000000004</ele>
        <time>2025-05-02T07:25:12Z</time>
      </trkpt>
      <trkpt lat="42.635588999837637" lon="-8.095783973112702">
        <ele>570.67999999999995</ele>
        <time>2025-05-02T07:25:17Z</time>
      </trkpt>
      <trkpt lat="42.635438041761518" lon="-8.095638966187835">
        <ele>570.67999999999995</ele>
        <time>2025-05-02T07:25:18Z</time>
      </trkpt>
      <trkpt lat="42.635092958807945" lon="-8.095401003956795">
        <ele>570.67999999999995</ele>
        <time>2025-05-02T07:25:20Z</time>
      </trkpt>
      <trkpt lat="42.634903024882078" lon="-8.095312993973494">
        <ele>571.15999999999997</ele>
        <time>2025-05-02T07:25:21Z</time>
      </trkpt>
      <trkpt lat="42.634710995480418" lon="-8.095229007303715">
        <ele>571.63999999999999</ele>
        <time>2025-05-02T07:25:22Z</time>
      </trkpt>
      <trkpt lat="42.634506979957223" lon="-8.095229007303715">
        <ele>572.12</ele>
        <time>2025-05-02T07:25:23Z</time>
      </trkpt>
      <trkpt lat="42.634301958605647" lon="-8.095229007303715">
        <ele>573.08000000000004</ele>
        <time>2025-05-02T07:25:24Z</time>
      </trkpt>
      <trkpt lat="42.634097021073103" lon="-8.095245016738772">
        <ele>574.03999999999996</ele>
        <time>2025-05-02T07:25:25Z</time>
      </trkpt>
      <trkpt lat="42.633887976408005" lon="-8.095321962609887">
        <ele>575.00999999999999</ele>
        <time>2025-05-02T07:25:26Z</time>
      </trkpt>
      <trkpt lat="42.63368496671319" lon="-8.095409972593188">
        <ele>576.92999999999995</ele>
        <time>2025-05-02T07:25:27Z</time>
      </trkpt>
      <trkpt lat="42.633491009473801" lon="-8.095534024760127">
        <ele>578.37</ele>
        <time>2025-05-02T07:25:28Z</time>
      </trkpt>
      <trkpt lat="42.63267201371491" lon="-8.096007015556097">
        <ele>586.05999999999995</ele>
        <time>2025-05-02T07:25:32Z</time>
      </trkpt>
      <trkpt lat="42.632469004020095" lon="-8.096073986962438">
        <ele>587.5</ele>
        <time>2025-05-02T07:25:33Z</time>
      </trkpt>
      <trkpt lat="42.630622973665595" lon="-8.096352014690638">
        <ele>600</ele>
        <time>2025-05-02T07:25:42Z</time>
      </trkpt>
      <trkpt lat="42.629297962412238" lon="-8.096097037196159">
        <ele>607.69000000000005</ele>
        <time>2025-05-02T07:25:49Z</time>
      </trkpt>
      <trkpt lat="42.627973034977913" lon="-8.095233030617237">
        <ele>609.61000000000001</ele>
        <time>2025-05-02T07:25:59Z</time>
      </trkpt>
      <trkpt lat="42.626246027648449" lon="-8.094242038205266">
        <ele>600.48000000000002</ele>
        <time>2025-05-02T07:26:12Z</time>
      </trkpt>
      <trkpt lat="42.624600995332003" lon="-8.093685982748866">
        <ele>591.83000000000004</ele>
        <time>2025-05-02T07:26:23Z</time>
      </trkpt>
      <trkpt lat="42.623631963506341" lon="-8.092976035550237">
        <ele>587.98000000000002</ele>
        <time>2025-05-02T07:26:29Z</time>
      </trkpt>
      <trkpt lat="42.622624039649963" lon="-8.091538958251476">
        <ele>578.85000000000002</ele>
        <time>2025-05-02T07:26:36Z</time>
      </trkpt>
      <trkpt lat="42.62197301723063" lon="-8.090748963877559">
        <ele>573.08000000000004</ele>
        <time>2025-05-02T07:26:40Z</time>
      </trkpt>
      <trkpt lat="42.621804038062692" lon="-8.090572021901608">
        <ele>572.12</ele>
        <time>2025-05-02T07:26:41Z</time>
      </trkpt>
      <trkpt lat="42.621588036417961" lon="-8.090460961684585">
        <ele>570.67999999999995</ele>
        <time>2025-05-02T07:26:42Z</time>
      </trkpt>
      <trkpt lat="42.621381003409624" lon="-8.090354008600116">
        <ele>569.24000000000001</ele>
        <time>2025-05-02T07:26:43Z</time>
      </trkpt>
      <trkpt lat="42.621173970401287" lon="-8.090246971696615">
        <ele>567.79999999999995</ele>
        <time>2025-05-02T07:26:44Z</time>
      </trkpt>
      <trkpt lat="42.619382003322244" lon="-8.089341977611184">
        <ele>558.17999999999995</ele>
        <time>2025-05-02T07:26:53Z</time>
      </trkpt>
      <trkpt lat="42.619214029982686" lon="-8.08918297290802">
        <ele>557.22000000000003</ele>
        <time>2025-05-02T07:26:54Z</time>
      </trkpt>
      <trkpt lat="42.619067011401057" lon="-8.088981974869967">
        <ele>556.74000000000001</ele>
        <time>2025-05-02T07:26:55Z</time>
      </trkpt>
      <trkpt lat="42.618926027789712" lon="-8.088776031509042">
        <ele>556.25999999999999</ele>
        <time>2025-05-02T07:26:56Z</time>
      </trkpt>
      <trkpt lat="42.618803987279534" lon="-8.088549971580505">
        <ele>556.25999999999999</ele>
        <time>2025-05-02T07:26:57Z</time>
      </trkpt>
      <trkpt lat="42.618697034195065" lon="-8.088308991864324">
        <ele>556.74000000000001</ele>
        <time>2025-05-02T07:26:58Z</time>
      </trkpt>
      <trkpt lat="42.618595026433468" lon="-8.088060971349478">
        <ele>557.22000000000003</ele>
        <time>2025-05-02T07:26:59Z</time>
      </trkpt>
      <trkpt lat="42.618523025885224" lon="-8.087799958884716">
        <ele>557.70000000000005</ele>
        <time>2025-05-02T07:27:00Z</time>
      </trkpt>
      <trkpt lat="42.618465023115277" lon="-8.0875279661268">
        <ele>558.65999999999997</ele>
        <time>2025-05-02T07:27:01Z</time>
      </trkpt>
      <trkpt lat="42.618430992588401" lon="-8.087244993075728">
        <ele>559.62</ele>
        <time>2025-05-02T07:27:02Z</time>
      </trkpt>
      <trkpt lat="42.618396040052176" lon="-8.086959002539516">
        <ele>560.11000000000001</ele>
        <time>2025-05-02T07:27:03Z</time>
      </trkpt>
      <trkpt lat="42.618381958454847" lon="-8.086663037538528">
        <ele>560.59000000000003</ele>
        <time>2025-05-02T07:27:04Z</time>
      </trkpt>
      <trkpt lat="42.618412971496582" lon="-8.08640998788178">
        <ele>561.07000000000005</ele>
        <time>2025-05-02T07:27:05Z</time>
      </trkpt>
      <trkpt lat="42.618469968438148" lon="-8.086117040365934">
        <ele>561.54999999999995</ele>
        <time>2025-05-02T07:27:06Z</time>
      </trkpt>
      <trkpt lat="42.618523025885224" lon="-8.085845969617367">
        <ele>561.54999999999995</ele>
        <time>2025-05-02T07:27:07Z</time>
      </trkpt>
      <trkpt lat="42.618612041696906" lon="-8.085586968809366">
        <ele>562.02999999999997</ele>
        <time>2025-05-02T07:27:08Z</time>
      </trkpt>
      <trkpt lat="42.618700973689556" lon="-8.085328973829746">
        <ele>562.02999999999997</ele>
        <time>2025-05-02T07:27:09Z</time>
      </trkpt>
      <trkpt lat="42.618809016421437" lon="-8.085090005770326">
        <ele>562.02999999999997</ele>
        <time>2025-05-02T07:27:10Z</time>
      </trkpt>
      <trkpt lat="42.618934996426105" lon="-8.084848020225763">
        <ele>562.02999999999997</ele>
        <time>2025-05-02T07:27:11Z</time>
      </trkpt>
      <trkpt lat="42.619083020836115" lon="-8.084632018581033">
        <ele>561.54999999999995</ele>
        <time>2025-05-02T07:27:12Z</time>
      </trkpt>
      <trkpt lat="42.619843007996678" lon="-8.083485960960388">
        <ele>555.77999999999997</ele>
        <time>2025-05-02T07:27:17Z</time>
      </trkpt>
      <trkpt lat="42.620105026289821" lon="-8.082725973799825">
        <ele>553.38</ele>
        <time>2025-05-02T07:27:20Z</time>
      </trkpt>
      <trkpt lat="42.620163029059768" lon="-8.082450963556767">
        <ele>552.89999999999998</ele>
        <time>2025-05-02T07:27:21Z</time>
      </trkpt>
      <trkpt lat="42.620208961889148" lon="-8.082162039354444">
        <ele>551.92999999999995</ele>
        <time>2025-05-02T07:27:22Z</time>
      </trkpt>
      <trkpt lat="42.620216002687812" lon="-8.08187797665596">
        <ele>551.45000000000005</ele>
        <time>2025-05-02T07:27:23Z</time>
      </trkpt>
      <trkpt lat="42.620216002687812" lon="-8.081600032746792">
        <ele>550.49000000000001</ele>
        <time>2025-05-02T07:27:24Z</time>
      </trkpt>
      <trkpt lat="42.620189012959599" lon="-8.081332985311747">
        <ele>550.00999999999999</ele>
        <time>2025-05-02T07:27:25Z</time>
      </trkpt>
      <trkpt lat="42.620152970775962" lon="-8.081066021695733">
        <ele>549.52999999999997</ele>
        <time>2025-05-02T07:27:26Z</time>
      </trkpt>
      <trkpt lat="42.620097985491157" lon="-8.080807020887733">
        <ele>549.52999999999997</ele>
        <time>2025-05-02T07:27:27Z</time>
      </trkpt>
      <trkpt lat="42.620007963851094" lon="-8.080559000372887">
        <ele>549.04999999999995</ele>
        <time>2025-05-02T07:27:28Z</time>
      </trkpt>
      <trkpt lat="42.619917020201683" lon="-8.08030997402966">
        <ele>549.04999999999995</ele>
        <time>2025-05-02T07:27:29Z</time>
      </trkpt>
      <trkpt lat="42.619809983298182" lon="-8.080080980435014">
        <ele>549.04999999999995</ele>
        <time>2025-05-02T07:27:30Z</time>
      </trkpt>
      <trkpt lat="42.619679979979992" lon="-8.079861961305141">
        <ele>549.04999999999995</ele>
        <time>2025-05-02T07:27:31Z</time>
      </trkpt>
      <trkpt lat="42.619550982490182" lon="-8.079645037651062">
        <ele>549.52999999999997</ele>
        <time>2025-05-02T07:27:32Z</time>
      </trkpt>
      <trkpt lat="42.619392983615398" lon="-8.079475974664092">
        <ele>549.52999999999997</ele>
        <time>2025-05-02T07:27:33Z</time>
      </trkpt>
      <trkpt lat="42.619225010275841" lon="-8.079314958304167">
        <ele>550.00999999999999</ele>
        <time>2025-05-02T07:27:34Z</time>
      </trkpt>
      <trkpt lat="42.619057958945632" lon="-8.079155031591654">
        <ele>550.49000000000001</ele>
        <time>2025-05-02T07:27:35Z</time>
      </trkpt>
      <trkpt lat="42.61887900531292" lon="-8.079023016616702">
        <ele>550.49000000000001</ele>
        <time>2025-05-02T07:27:36Z</time>
      </trkpt>
      <trkpt lat="42.61868697591126" lon="-8.078922014683485">
        <ele>550.97000000000003</ele>
        <time>2025-05-02T07:27:37Z</time>
      </trkpt>
      <trkpt lat="42.61849201284349" lon="-8.078828975558281">
        <ele>551.45000000000005</ele>
        <time>2025-05-02T07:27:38Z</time>
      </trkpt>
      <trkpt lat="42.618291014805436" lon="-8.07878103107214">
        <ele>551.92999999999995</ele>
        <time>2025-05-02T07:27:39Z</time>
      </trkpt>
      <trkpt lat="42.618089010939002" lon="-8.078735014423728">
        <ele>552.40999999999997</ele>
        <time>2025-05-02T07:27:40Z</time>
      </trkpt>
      <trkpt lat="42.615999989211559" lon="-8.078391021117568">
        <ele>559.13999999999999</ele>
        <time>2025-05-02T07:27:50Z</time>
      </trkpt>
      <trkpt lat="42.614076007157564" lon="-8.078184993937612">
        <ele>569.24000000000001</ele>
        <time>2025-05-02T07:27:59Z</time>
      </trkpt>
      <trkpt lat="42.612804975360632" lon="-8.078552959486842">
        <ele>577.88999999999999</ele>
        <time>2025-05-02T07:28:05Z</time>
      </trkpt>
      <trkpt lat="42.612610012292862" lon="-8.078670976683497">
        <ele>579.80999999999995</ele>
        <time>2025-05-02T07:28:06Z</time>
      </trkpt>
      <trkpt lat="42.611657995730639" lon="-8.079141033813357">
        <ele>588.95000000000005</ele>
        <time>2025-05-02T07:28:11Z</time>
      </trkpt>
      <trkpt lat="42.611465966328979" lon="-8.079166011884809">
        <ele>590.87</ele>
        <time>2025-05-02T07:28:12Z</time>
      </trkpt>
      <trkpt lat="42.611279971897602" lon="-8.079159976914525">
        <ele>592.30999999999995</ele>
        <time>2025-05-02T07:28:13Z</time>
      </trkpt>
      <trkpt lat="42.611104035750031" lon="-8.079107003286481">
        <ele>593.75</ele>
        <time>2025-05-02T07:28:14Z</time>
      </trkpt>
      <trkpt lat="42.610944025218487" lon="-8.079007007181644">
        <ele>595.19000000000005</ele>
        <time>2025-05-02T07:28:15Z</time>
      </trkpt>
      <trkpt lat="42.610791977494955" lon="-8.07886702939868">
        <ele>596.63999999999999</ele>
        <time>2025-05-02T07:28:16Z</time>
      </trkpt>
      <trkpt lat="42.610657028853893" lon="-8.07871799916029">
        <ele>597.60000000000002</ele>
        <time>2025-05-02T07:28:17Z</time>
      </trkpt>
      <trkpt lat="42.61054303497076" lon="-8.078527981415391">
        <ele>598.55999999999995</ele>
        <time>2025-05-02T07:28:18Z</time>
      </trkpt>
      <trkpt lat="42.610449995845556" lon="-8.078330000862479">
        <ele>599.51999999999998</ele>
        <time>2025-05-02T07:28:19Z</time>
      </trkpt>
      <trkpt lat="42.610387969762087" lon="-8.078169990330935">
        <ele>600.48000000000002</ele>
        <time>2025-05-02T07:28:20Z</time>
      </trkpt>
      <trkpt lat="42.610369026660919" lon="-8.077875031158328">
        <ele>601.44000000000005</ele>
        <time>2025-05-02T07:28:21Z</time>
      </trkpt>
      <trkpt lat="42.610352011397481" lon="-8.077617958188057">
        <ele>601.91999999999996</ele>
        <time>2025-05-02T07:28:22Z</time>
      </trkpt>
      <trkpt lat="42.610348993912339" lon="-8.077359963208437">
        <ele>602.88</ele>
        <time>2025-05-02T07:28:23Z</time>
      </trkpt>
      <trkpt lat="42.610354023054242" lon="-8.077087970450521">
        <ele>603.85000000000002</ele>
        <time>2025-05-02T07:28:24Z</time>
      </trkpt>
      <trkpt lat="42.610366009175777" lon="-8.076549014076591">
        <ele>605.76999999999998</ele>
        <time>2025-05-02T07:28:26Z</time>
      </trkpt>
      <trkpt lat="42.610267018899322" lon="-8.076037969440222">
        <ele>608.16999999999996</ele>
        <time>2025-05-02T07:28:28Z</time>
      </trkpt>
      <trkpt lat="42.610202981159091" lon="-8.075779974460602">
        <ele>609.61000000000001</ele>
        <time>2025-05-02T07:28:29Z</time>
      </trkpt>
      <trkpt lat="42.610094016417861" lon="-8.075552992522717">
        <ele>610.57000000000005</ele>
        <time>2025-05-02T07:28:30Z</time>
      </trkpt>
      <trkpt lat="42.609912967309356" lon="-8.075083019211888">
        <ele>612.98000000000002</ele>
        <time>2025-05-02T07:28:32Z</time>
      </trkpt>
      <trkpt lat="42.609842978417873" lon="-8.074842039495707">
        <ele>614.41999999999996</ele>
        <time>2025-05-02T07:28:33Z</time>
      </trkpt>
      <trkpt lat="42.609773995354772" lon="-8.074600975960493">
        <ele>615.38</ele>
        <time>2025-05-02T07:28:34Z</time>
      </trkpt>
      <trkpt lat="42.609744993969798" lon="-8.074337029829621">
        <ele>616.82000000000005</ele>
        <time>2025-05-02T07:28:35Z</time>
      </trkpt>
      <trkpt lat="42.609744993969798" lon="-8.074113987386227">
        <ele>617.77999999999997</ele>
        <time>2025-05-02T07:28:36Z</time>
      </trkpt>
      <trkpt lat="42.609798973426223" lon="-8.073832020163536">
        <ele>618.75</ele>
        <time>2025-05-02T07:28:37Z</time>
      </trkpt>
      <trkpt lat="42.609848007559776" lon="-8.073576958850026">
        <ele>620.19000000000005</ele>
        <time>2025-05-02T07:28:38Z</time>
      </trkpt>
      <trkpt lat="42.609903998672962" lon="-8.073313012719154">
        <ele>621.63</ele>
        <time>2025-05-02T07:28:39Z</time>
      </trkpt>
      <trkpt lat="42.610054034739733" lon="-8.072524024173617">
        <ele>624.99000000000001</ele>
        <time>2025-05-02T07:28:42Z</time>
      </trkpt>
      <trkpt lat="42.61007197201252" lon="-8.072264017537236">
        <ele>625.96000000000004</ele>
        <time>2025-05-02T07:28:43Z</time>
      </trkpt>
      <trkpt lat="42.610087981447577" lon="-8.072033012285829">
        <ele>626.91999999999996</ele>
        <time>2025-05-02T07:28:44Z</time>
      </trkpt>
      <trkpt lat="42.610025033354759" lon="-8.07177996262908">
        <ele>627.88</ele>
        <time>2025-05-02T07:28:45Z</time>
      </trkpt>
      <trkpt lat="42.609966024756432" lon="-8.071546023711562">
        <ele>629.32000000000005</ele>
        <time>2025-05-02T07:28:46Z</time>
      </trkpt>
      <trkpt lat="42.609869968146086" lon="-8.071375032886863">
        <ele>630.75999999999999</ele>
        <time>2025-05-02T07:28:47Z</time>
      </trkpt>
      <trkpt lat="42.609755974262953" lon="-8.071192977949977">
        <ele>632.67999999999995</ele>
        <time>2025-05-02T07:28:48Z</time>
      </trkpt>
      <trkpt lat="42.609628988429904" lon="-8.071059035137296">
        <ele>633.64999999999998</ele>
        <time>2025-05-02T07:28:49Z</time>
      </trkpt>
      <trkpt lat="42.609486998990178" lon="-8.070916961878538">
        <ele>635.09000000000003</ele>
        <time>2025-05-02T07:28:50Z</time>
      </trkpt>
      <trkpt lat="42.609320031479001" lon="-8.070841021835804">
        <ele>636.52999999999997</ele>
        <time>2025-05-02T07:28:51Z</time>
      </trkpt>
      <trkpt lat="42.609159015119076" lon="-8.070803973823786">
        <ele>637.49000000000001</ele>
        <time>2025-05-02T07:28:52Z</time>
      </trkpt>
      <trkpt lat="42.608967991545796" lon="-8.070791987702251">
        <ele>638.45000000000005</ele>
        <time>2025-05-02T07:28:53Z</time>
      </trkpt>
      <trkpt lat="42.608777973800898" lon="-8.070832975208759">
        <ele>639.88999999999999</ele>
        <time>2025-05-02T07:28:54Z</time>
      </trkpt>
      <trkpt lat="42.608570018783212" lon="-8.070905981585383">
        <ele>640.86000000000001</ele>
        <time>2025-05-02T07:28:55Z</time>
      </trkpt>
      <trkpt lat="42.608335996046662" lon="-8.071014024317265">
        <ele>640.86000000000001</ele>
        <time>2025-05-02T07:28:56Z</time>
      </trkpt>
      <trkpt lat="42.608112031593919" lon="-8.071170011535287">
        <ele>640.86000000000001</ele>
        <time>2025-05-02T07:28:57Z</time>
      </trkpt>
      <trkpt lat="42.607354978099465" lon="-8.07167200371623">
        <ele>643.74000000000001</ele>
        <time>2025-05-02T07:29:01Z</time>
      </trkpt>
      <trkpt lat="42.607183987274766" lon="-8.071754984557629">
        <ele>644.22000000000003</ele>
        <time>2025-05-02T07:29:02Z</time>
      </trkpt>
      <trkpt lat="42.607006961479783" lon="-8.071809969842434">
        <ele>644.70000000000005</ele>
        <time>2025-05-02T07:29:03Z</time>
      </trkpt>
      <trkpt lat="42.606839993968606" lon="-8.07182296179235">
        <ele>645.17999999999995</ele>
        <time>2025-05-02T07:29:04Z</time>
      </trkpt>
      <trkpt lat="42.606661962345243" lon="-8.071781974285841">
        <ele>645.65999999999997</ele>
        <time>2025-05-02T07:29:05Z</time>
      </trkpt>
      <trkpt lat="42.60650203563273" lon="-8.071698993444443">
        <ele>646.13999999999999</ele>
        <time>2025-05-02T07:29:06Z</time>
      </trkpt>
      <trkpt lat="42.60633297264576" lon="-8.071591034531593">
        <ele>646.62</ele>
        <time>2025-05-02T07:29:07Z</time>
      </trkpt>
      <trkpt lat="42.606164999306202" lon="-8.071451978757978">
        <ele>647.59000000000003</ele>
        <time>2025-05-02T07:29:08Z</time>
      </trkpt>
      <trkpt lat="42.605637023225427" lon="-8.071095999330282">
        <ele>649.99000000000001</ele>
        <time>2025-05-02T07:29:11Z</time>
      </trkpt>
      <trkpt lat="42.60545102879405" lon="-8.071012012660503">
        <ele>650.95000000000005</ele>
        <time>2025-05-02T07:29:12Z</time>
      </trkpt>
      <trkpt lat="42.605251958593726" lon="-8.071013018488884">
        <ele>651.90999999999997</ele>
        <time>2025-05-02T07:29:13Z</time>
      </trkpt>
      <trkpt lat="42.60506696999073" lon="-8.071025004610419">
        <ele>652.87</ele>
        <time>2025-05-02T07:29:14Z</time>
      </trkpt>
      <trkpt lat="42.604880975559354" lon="-8.071117037907243">
        <ele>653.83000000000004</ele>
        <time>2025-05-02T07:29:15Z</time>
      </trkpt>
      <trkpt lat="42.604688024148345" lon="-8.071214016526938">
        <ele>654.79999999999995</ele>
        <time>2025-05-02T07:29:16Z</time>
      </trkpt>
      <trkpt lat="42.604521978646517" lon="-8.071333961561322">
        <ele>655.75999999999999</ele>
        <time>2025-05-02T07:29:17Z</time>
      </trkpt>
      <trkpt lat="42.604360962286592" lon="-8.07147896848619">
        <ele>656.24000000000001</ele>
        <time>2025-05-02T07:29:18Z</time>
      </trkpt>
      <trkpt lat="42.604196006432176" lon="-8.071666974574328">
        <ele>656.72000000000003</ele>
        <time>2025-05-02T07:29:19Z</time>
      </trkpt>
      <trkpt lat="42.603626037016511" lon="-8.072087997570634">
        <ele>659.12</ele>
        <time>2025-05-02T07:29:22Z</time>
      </trkpt>
      <trkpt lat="42.603441970422864" lon="-8.072161003947258">
        <ele>660.08000000000004</ele>
        <time>2025-05-02T07:29:23Z</time>
      </trkpt>
      <trkpt lat="42.603251030668616" lon="-8.072190005332232">
        <ele>661.03999999999996</ele>
        <time>2025-05-02T07:29:24Z</time>
      </trkpt>
      <trkpt lat="42.603072999045253" lon="-8.072156980633736">
        <ele>661.51999999999998</ele>
        <time>2025-05-02T07:29:25Z</time>
      </trkpt>
      <trkpt lat="42.60289597325027" lon="-8.072090009227395">
        <ele>662.49000000000001</ele>
        <time>2025-05-02T07:29:26Z</time>
      </trkpt>
      <trkpt lat="42.602727999910712" lon="-8.071975009515882">
        <ele>662.97000000000003</ele>
        <time>2025-05-02T07:29:27Z</time>
      </trkpt>
      <trkpt lat="42.602562960237265" lon="-8.071828996762633">
        <ele>663.45000000000005</ele>
        <time>2025-05-02T07:29:28Z</time>
      </trkpt>
      <trkpt lat="42.602396998554468" lon="-8.071679966524243">
        <ele>663.92999999999995</ele>
        <time>2025-05-02T07:29:29Z</time>
      </trkpt>
      <trkpt lat="42.602046970278025" lon="-8.071400010958314">
        <ele>664.88999999999999</ele>
        <time>2025-05-02T07:29:31Z</time>
      </trkpt>
      <trkpt lat="42.601870028302073" lon="-8.071281993761659">
        <ele>665.37</ele>
        <time>2025-05-02T07:29:32Z</time>
      </trkpt>
      <trkpt lat="42.601658971980214" lon="-8.07122197933495">
        <ele>665.85000000000002</ele>
        <time>2025-05-02T07:29:33Z</time>
      </trkpt>
      <trkpt lat="42.601465014740825" lon="-8.071195995435119">
        <ele>666.33000000000004</ele>
        <time>2025-05-02T07:29:34Z</time>
      </trkpt>
      <trkpt lat="42.601256975904107" lon="-8.071195995435119">
        <ele>666.80999999999995</ele>
        <time>2025-05-02T07:29:35Z</time>
      </trkpt>
      <trkpt lat="42.601064024493098" lon="-8.071261961013079">
        <ele>667.28999999999996</ele>
        <time>2025-05-02T07:29:36Z</time>
      </trkpt>
      <trkpt lat="42.600857997313142" lon="-8.071346031501889">
        <ele>667.76999999999998</ele>
        <time>2025-05-02T07:29:37Z</time>
      </trkpt>
      <trkpt lat="42.600647024810314" lon="-8.071432029828429">
        <ele>668.25</ele>
        <time>2025-05-02T07:29:38Z</time>
      </trkpt>
      <trkpt lat="42.600478967651725" lon="-8.071615006774664">
        <ele>669.22000000000003</ele>
        <time>2025-05-02T07:29:39Z</time>
      </trkpt>
      <trkpt lat="42.600325997918844" lon="-8.071816004812717">
        <ele>670.17999999999995</ele>
        <time>2025-05-02T07:29:40Z</time>
      </trkpt>
      <trkpt lat="42.600198006257415" lon="-8.072041980922222">
        <ele>671.13999999999999</ele>
        <time>2025-05-02T07:29:41Z</time>
      </trkpt>
      <trkpt lat="42.600087029859424" lon="-8.072299975901842">
        <ele>672.10000000000002</ele>
        <time>2025-05-02T07:29:42Z</time>
      </trkpt>
      <trkpt lat="42.59997203014791" lon="-8.072565011680126">
        <ele>673.05999999999995</ele>
        <time>2025-05-02T07:29:43Z</time>
      </trkpt>
      <trkpt lat="42.599299969151616" lon="-8.074019020423293">
        <ele>675.46000000000004</ele>
        <time>2025-05-02T07:29:49Z</time>
      </trkpt>
      <trkpt lat="42.599151022732258" lon="-8.074155980721116">
        <ele>675.94000000000005</ele>
        <time>2025-05-02T07:29:50Z</time>
      </trkpt>
      <trkpt lat="42.598982965573668" lon="-8.074305010959506">
        <ele>675.94000000000005</ele>
        <time>2025-05-02T07:29:51Z</time>
      </trkpt>
      <trkpt lat="42.598819015547633" lon="-8.074410036206245">
        <ele>676.41999999999996</ele>
        <time>2025-05-02T07:29:52Z</time>
      </trkpt>
      <trkpt lat="42.598622962832451" lon="-8.074494022876024">
        <ele>676.90999999999997</ele>
        <time>2025-05-02T07:29:53Z</time>
      </trkpt>
      <trkpt lat="42.598427999764681" lon="-8.074541967362166">
        <ele>677.38999999999999</ele>
        <time>2025-05-02T07:29:54Z</time>
      </trkpt>
      <trkpt lat="42.598236976191401" lon="-8.074551019817591">
        <ele>677.87</ele>
        <time>2025-05-02T07:29:55Z</time>
      </trkpt>
      <trkpt lat="42.598027009516954" lon="-8.074516989290714">
        <ele>678.83000000000004</ele>
        <time>2025-05-02T07:29:56Z</time>
      </trkpt>
      <trkpt lat="42.597816037014127" lon="-8.074482958763838">
        <ele>679.30999999999995</ele>
        <time>2025-05-02T07:29:57Z</time>
      </trkpt>
      <trkpt lat="42.597639011219144" lon="-8.074379023164511">
        <ele>680.26999999999998</ele>
        <time>2025-05-02T07:29:58Z</time>
      </trkpt>
      <trkpt lat="42.597441030666232" lon="-8.074250025674701">
        <ele>680.75</ele>
        <time>2025-05-02T07:29:59Z</time>
      </trkpt>
      <trkpt lat="42.597247995436192" lon="-8.074123039841652">
        <ele>681.71000000000004</ele>
        <time>2025-05-02T07:30:00Z</time>
      </trkpt>
      <trkpt lat="42.595979981124401" lon="-8.073543012142181">
        <ele>687.96000000000004</ele>
        <time>2025-05-02T07:30:07Z</time>
      </trkpt>
      <trkpt lat="42.595793986693025" lon="-8.07356296107173">
        <ele>688.44000000000005</ele>
        <time>2025-05-02T07:30:08Z</time>
      </trkpt>
      <trkpt lat="42.595604974776506" lon="-8.07358399964869">
        <ele>689.39999999999998</ele>
        <time>2025-05-02T07:30:09Z</time>
      </trkpt>
      <trkpt lat="42.594811962917447" lon="-8.073588022962213">
        <ele>690.84000000000003</ele>
        <time>2025-05-02T07:30:13Z</time>
      </trkpt>
      <trkpt lat="42.594427987933159" lon="-8.073468999937177">
        <ele>691.33000000000004</ele>
        <time>2025-05-02T07:30:15Z</time>
      </trkpt>
      <trkpt lat="42.594246016815305" lon="-8.073360035195947">
        <ele>691.33000000000004</ele>
        <time>2025-05-02T07:30:16Z</time>
      </trkpt>
      <trkpt lat="42.594060022383928" lon="-8.073247969150543">
        <ele>690.84000000000003</ele>
        <time>2025-05-02T07:30:17Z</time>
      </trkpt>
      <trkpt lat="42.593879979103804" lon="-8.073115032166243">
        <ele>690.84000000000003</ele>
        <time>2025-05-02T07:30:18Z</time>
      </trkpt>
      <trkpt lat="42.593718962743878" lon="-8.07293800637126">
        <ele>690.84000000000003</ele>
        <time>2025-05-02T07:30:19Z</time>
      </trkpt>
      <trkpt lat="42.593555012717843" lon="-8.072757963091135">
        <ele>690.84000000000003</ele>
        <time>2025-05-02T07:30:20Z</time>
      </trkpt>
      <trkpt lat="42.593401037156582" lon="-8.072563000023365">
        <ele>690.36000000000001</ele>
        <time>2025-05-02T07:30:21Z</time>
      </trkpt>
      <trkpt lat="42.591848038136959" lon="-8.070719987154007">
        <ele>695.16999999999996</ele>
        <time>2025-05-02T07:30:31Z</time>
      </trkpt>
      <trkpt lat="42.590095968917012" lon="-8.069079983979464">
        <ele>696.13</ele>
        <time>2025-05-02T07:30:43Z</time>
      </trkpt>
      <trkpt lat="42.588228983804584" lon="-8.067425983026624">
        <ele>699.98000000000002</ele>
        <time>2025-05-02T07:30:55Z</time>
      </trkpt>
      <trkpt lat="42.587444018572569" lon="-8.066745037212968">
        <ele>704.77999999999997</ele>
        <time>2025-05-02T07:31:00Z</time>
      </trkpt>
      <trkpt lat="42.587303034961224" lon="-8.06655996479094">
        <ele>705.75</ele>
        <time>2025-05-02T07:31:01Z</time>
      </trkpt>
      <trkpt lat="42.587174959480762" lon="-8.066357038915157">
        <ele>707.19000000000005</ele>
        <time>2025-05-02T07:31:02Z</time>
      </trkpt>
      <trkpt lat="42.587067000567913" lon="-8.06612997315824">
        <ele>708.63</ele>
        <time>2025-05-02T07:31:03Z</time>
      </trkpt>
      <trkpt lat="42.586970021948218" lon="-8.065887987613678">
        <ele>710.07000000000005</ele>
        <time>2025-05-02T07:31:04Z</time>
      </trkpt>
      <trkpt lat="42.586892992258072" lon="-8.0656330101192">
        <ele>711.50999999999999</ele>
        <time>2025-05-02T07:31:05Z</time>
      </trkpt>
      <trkpt lat="42.586817974224687" lon="-8.06537602096796">
        <ele>712.95000000000005</ele>
        <time>2025-05-02T07:31:06Z</time>
      </trkpt>
      <trkpt lat="42.586260996758938" lon="-8.063889993354678">
        <ele>720.15999999999997</ele>
        <time>2025-05-02T07:31:12Z</time>
      </trkpt>
      <trkpt lat="42.586109032854438" lon="-8.06370098143816">
        <ele>721.13</ele>
        <time>2025-05-02T07:31:13Z</time>
      </trkpt>
      <trkpt lat="42.585957990959287" lon="-8.063514987006784">
        <ele>722.09000000000003</ele>
        <time>2025-05-02T07:31:14Z</time>
      </trkpt>
      <trkpt lat="42.585800997912884" lon="-8.063327986747026">
        <ele>723.52999999999997</ele>
        <time>2025-05-02T07:31:15Z</time>
      </trkpt>
      <trkpt lat="42.58562196046114" lon="-8.063183985650539">
        <ele>724.49000000000001</ele>
        <time>2025-05-02T07:31:16Z</time>
      </trkpt>
      <trkpt lat="42.583981035277247" lon="-8.061929969117045">
        <ele>727.86000000000001</ele>
        <time>2025-05-02T07:31:25Z</time>
      </trkpt>
      <trkpt lat="42.582415966317058" lon="-8.061251034960151">
        <ele>724.49000000000001</ele>
        <time>2025-05-02T07:31:33Z</time>
      </trkpt>
      <trkpt lat="42.580133993178606" lon="-8.060968983918428">
        <ele>716.32000000000005</ele>
        <time>2025-05-02T07:31:44Z</time>
      </trkpt>
      <trkpt lat="42.577643981203437" lon="-8.060732027515769">
        <ele>709.11000000000001</ele>
        <time>2025-05-02T07:31:56Z</time>
      </trkpt>
      <trkpt lat="42.574115032330155" lon="-8.060342017561197">
        <ele>709.11000000000001</ele>
        <time>2025-05-02T07:32:13Z</time>
      </trkpt>
      <trkpt lat="42.573365019634366" lon="-8.060158034786582">
        <ele>713.44000000000005</ele>
        <time>2025-05-02T07:32:17Z</time>
      </trkpt>
      <trkpt lat="42.573190005496144" lon="-8.060043035075069">
        <ele>714.88</ele>
        <time>2025-05-02T07:32:18Z</time>
      </trkpt>
      <trkpt lat="42.573025971651077" lon="-8.059899033978581">
        <ele>715.84000000000003</ele>
        <time>2025-05-02T07:32:19Z</time>
      </trkpt>
      <trkpt lat="42.572870990261436" lon="-8.059729970991612">
        <ele>717.27999999999997</ele>
        <time>2025-05-02T07:32:20Z</time>
      </trkpt>
      <trkpt lat="42.572741992771626" lon="-8.059518998488784">
        <ele>718.24000000000001</ele>
        <time>2025-05-02T07:32:21Z</time>
      </trkpt>
      <trkpt lat="42.572615006938577" lon="-8.059302996844053">
        <ele>719.67999999999995</ele>
        <time>2025-05-02T07:32:22Z</time>
      </trkpt>
      <trkpt lat="42.572520039975643" lon="-8.059063022956252">
        <ele>721.13</ele>
        <time>2025-05-02T07:32:23Z</time>
      </trkpt>
      <trkpt lat="42.572439992800355" lon="-8.05882497690618">
        <ele>722.09000000000003</ele>
        <time>2025-05-02T07:32:24Z</time>
      </trkpt>
      <trkpt lat="42.572388025000691" lon="-8.058575028553605">
        <ele>723.52999999999997</ele>
        <time>2025-05-02T07:32:25Z</time>
      </trkpt>
      <trkpt lat="42.572344020009041" lon="-8.058318039402366">
        <ele>724.49000000000001</ele>
        <time>2025-05-02T07:32:26Z</time>
      </trkpt>
      <trkpt lat="42.572344020009041" lon="-8.058047974482179">
        <ele>725.92999999999995</ele>
        <time>2025-05-02T07:32:27Z</time>
      </trkpt>
      <trkpt lat="42.572355000302196" lon="-8.057768018916249">
        <ele>727.37</ele>
        <time>2025-05-02T07:32:28Z</time>
      </trkpt>
      <trkpt lat="42.572394981980324" lon="-8.057485967874527">
        <ele>728.82000000000005</ele>
        <time>2025-05-02T07:32:29Z</time>
      </trkpt>
      <trkpt lat="42.572435969486833" lon="-8.057196037843823">
        <ele>730.25999999999999</ele>
        <time>2025-05-02T07:32:30Z</time>
      </trkpt>
      <trkpt lat="42.572867972776294" lon="-8.054154999554157">
        <ele>744.20000000000005</ele>
        <time>2025-05-02T07:32:40Z</time>
      </trkpt>
      <trkpt lat="42.57290200330317" lon="-8.053649989888072">
        <ele>746.60000000000002</ele>
        <time>2025-05-02T07:32:42Z</time>
      </trkpt>
      <trkpt lat="42.57288197055459" lon="-8.053394006565213">
        <ele>747.55999999999995</ele>
        <time>2025-05-02T07:32:43Z</time>
      </trkpt>
      <trkpt lat="42.572808964177966" lon="-8.053161995485425">
        <ele>748.51999999999998</ele>
        <time>2025-05-02T07:32:44Z</time>
      </trkpt>
      <trkpt lat="42.572734029963613" lon="-8.052927972748876">
        <ele>749.49000000000001</ele>
        <time>2025-05-02T07:32:45Z</time>
      </trkpt>
      <trkpt lat="42.572606038302183" lon="-8.052738038823009">
        <ele>750.92999999999995</ele>
        <time>2025-05-02T07:32:46Z</time>
      </trkpt>
      <trkpt lat="42.572473017498851" lon="-8.05254902690649">
        <ele>751.88999999999999</ele>
        <time>2025-05-02T07:32:47Z</time>
      </trkpt>
      <trkpt lat="42.572310995310545" lon="-8.052445007488132">
        <ele>752.85000000000002</ele>
        <time>2025-05-02T07:32:48Z</time>
      </trkpt>
      <trkpt lat="42.572144027799368" lon="-8.05233696475625">
        <ele>753.80999999999995</ele>
        <time>2025-05-02T07:32:49Z</time>
      </trkpt>
      <trkpt lat="42.571959961205721" lon="-8.052277034148574">
        <ele>755.25</ele>
        <time>2025-05-02T07:32:50Z</time>
      </trkpt>
      <trkpt lat="42.571766003966331" lon="-8.052239986136556">
        <ele>756.21000000000004</ele>
        <time>2025-05-02T07:32:51Z</time>
      </trkpt>
      <trkpt lat="42.5715690292418" lon="-8.052218025550246">
        <ele>757.17999999999995</ele>
        <time>2025-05-02T07:32:52Z</time>
      </trkpt>
      <trkpt lat="42.571202991530299" lon="-8.052177038043737">
        <ele>759.10000000000002</ele>
        <time>2025-05-02T07:32:54Z</time>
      </trkpt>
      <trkpt lat="42.571035018190742" lon="-8.052146025002003">
        <ele>759.58000000000004</ele>
        <time>2025-05-02T07:32:55Z</time>
      </trkpt>
      <trkpt lat="42.5708800368011" lon="-8.052083998918533">
        <ele>760.05999999999995</ele>
        <time>2025-05-02T07:32:56Z</time>
      </trkpt>
      <trkpt lat="42.570750033482909" lon="-8.051973022520542">
        <ele>760.53999999999996</ele>
        <time>2025-05-02T07:32:57Z</time>
      </trkpt>
      <trkpt lat="42.570631010457873" lon="-8.05186104029417">
        <ele>761.01999999999998</ele>
        <time>2025-05-02T07:32:58Z</time>
      </trkpt>
      <trkpt lat="42.570525985211134" lon="-8.051742017269135">
        <ele>761.5</ele>
        <time>2025-05-02T07:32:59Z</time>
      </trkpt>
      <trkpt lat="42.57043001241982" lon="-8.051599022001028">
        <ele>761.5</ele>
        <time>2025-05-02T07:33:00Z</time>
      </trkpt>
      <trkpt lat="42.570349965244532" lon="-8.051430964842439">
        <ele>761.5</ele>
        <time>2025-05-02T07:33:01Z</time>
      </trkpt>
      <trkpt lat="42.570272013545036" lon="-8.051241030916572">
        <ele>761.01999999999998</ele>
        <time>2025-05-02T07:33:02Z</time>
      </trkpt>
      <trkpt lat="42.570205964148045" lon="-8.051038021221757">
        <ele>761.01999999999998</ele>
        <time>2025-05-02T07:33:03Z</time>
      </trkpt>
      <trkpt lat="42.569768009707332" lon="-8.049650983884931">
        <ele>755.73000000000002</ele>
        <time>2025-05-02T07:33:11Z</time>
      </trkpt>
      <trkpt lat="42.569369031116366" lon="-8.04865999147296">
        <ele>750.45000000000005</ele>
        <time>2025-05-02T07:33:18Z</time>
      </trkpt>
      <trkpt lat="42.569294013082981" lon="-8.048534011468291">
        <ele>749.49000000000001</ele>
        <time>2025-05-02T07:33:19Z</time>
      </trkpt>
      <trkpt lat="42.568489015102386" lon="-8.047864967957139">
        <ele>745.15999999999997</ele>
        <time>2025-05-02T07:33:27Z</time>
      </trkpt>
      <trkpt lat="42.567166015505791" lon="-8.04713498800993">
        <ele>745.63999999999999</ele>
        <time>2025-05-02T07:33:39Z</time>
      </trkpt>
      <trkpt lat="42.567064007744193" lon="-8.047043960541487">
        <ele>745.63999999999999</ele>
        <time>2025-05-02T07:33:40Z</time>
      </trkpt>
      <trkpt lat="42.566957976669073" lon="-8.046948993578553">
        <ele>745.63999999999999</ele>
        <time>2025-05-02T07:33:41Z</time>
      </trkpt>
      <trkpt lat="42.566879019141197" lon="-8.046851009130478">
        <ele>745.63999999999999</ele>
        <time>2025-05-02T07:33:42Z</time>
      </trkpt>
      <trkpt lat="42.566785980015993" lon="-8.046733997762203">
        <ele>745.63999999999999</ele>
        <time>2025-05-02T07:33:43Z</time>
      </trkpt>
      <trkpt lat="42.566724037751555" lon="-8.046617992222309">
        <ele>746.12</ele>
        <time>2025-05-02T07:33:44Z</time>
      </trkpt>
      <trkpt lat="42.566653965041041" lon="-8.046487988904119">
        <ele>746.12</ele>
        <time>2025-05-02T07:33:45Z</time>
      </trkpt>
      <trkpt lat="42.565627014264464" lon="-8.044613040983677">
        <ele>753.80999999999995</ele>
        <time>2025-05-02T07:33:59Z</time>
      </trkpt>
      <trkpt lat="42.564800977706909" lon="-8.043064987286925">
        <ele>759.58000000000004</ele>
        <time>2025-05-02T07:34:07Z</time>
      </trkpt>
      <trkpt lat="42.564612971618772" lon="-8.042618986219168">
        <ele>761.5</ele>
        <time>2025-05-02T07:34:09Z</time>
      </trkpt>
      <trkpt lat="42.564523033797741" lon="-8.042404996231198">
        <ele>762.94000000000005</ele>
        <time>2025-05-02T07:34:10Z</time>
      </trkpt>
      <trkpt lat="42.564452039077878" lon="-8.042167034000158">
        <ele>763.89999999999998</ele>
        <time>2025-05-02T07:34:11Z</time>
      </trkpt>
      <trkpt lat="42.564412979409099" lon="-8.04191499017179">
        <ele>764.38999999999999</ele>
        <time>2025-05-02T07:34:12Z</time>
      </trkpt>
      <trkpt lat="42.564411973580718" lon="-8.041652971878648">
        <ele>765.35000000000002</ele>
        <time>2025-05-02T07:34:13Z</time>
      </trkpt>
      <trkpt lat="42.564421026036143" lon="-8.041396988555789">
        <ele>766.30999999999995</ele>
        <time>2025-05-02T07:34:14Z</time>
      </trkpt>
      <trkpt lat="42.564437035471201" lon="-8.041133964434266">
        <ele>766.78999999999996</ele>
        <time>2025-05-02T07:34:15Z</time>
      </trkpt>
      <trkpt lat="42.564491014927626" lon="-8.039561016485095">
        <ele>771.11000000000001</ele>
        <time>2025-05-02T07:34:21Z</time>
      </trkpt>
      <trkpt lat="42.564453966915607" lon="-8.039306038990617">
        <ele>771.60000000000002</ele>
        <time>2025-05-02T07:34:22Z</time>
      </trkpt>
      <trkpt lat="42.564404010772705" lon="-8.039061035960913">
        <ele>772.08000000000004</ele>
        <time>2025-05-02T07:34:23Z</time>
      </trkpt>
      <trkpt lat="42.56430996581912" lon="-8.038833970203996">
        <ele>772.55999999999995</ele>
        <time>2025-05-02T07:34:24Z</time>
      </trkpt>
      <trkpt lat="42.564197983592749" lon="-8.038622997701168">
        <ele>773.51999999999998</ele>
        <time>2025-05-02T07:34:25Z</time>
      </trkpt>
      <trkpt lat="42.564067980274558" lon="-8.038418982177973">
        <ele>774.48000000000002</ele>
        <time>2025-05-02T07:34:26Z</time>
      </trkpt>
      <trkpt lat="42.563925990834832" lon="-8.038224019110203">
        <ele>775.44000000000005</ele>
        <time>2025-05-02T07:34:27Z</time>
      </trkpt>
      <trkpt lat="42.563779978081584" lon="-8.03802402690053">
        <ele>776.39999999999998</ele>
        <time>2025-05-02T07:34:28Z</time>
      </trkpt>
      <trkpt lat="42.562794014811516" lon="-8.036166010424495">
        <ele>787.94000000000005</ele>
        <time>2025-05-02T07:34:36Z</time>
      </trkpt>
      <trkpt lat="42.56258899345994" lon="-8.034383011981845">
        <ele>798.99000000000001</ele>
        <time>2025-05-02T07:34:42Z</time>
      </trkpt>
      <trkpt lat="42.562578013166785" lon="-8.032492976635695">
        <ele>807.15999999999997</ele>
        <time>2025-05-02T07:34:48Z</time>
      </trkpt>
      <trkpt lat="42.562538031488657" lon="-8.032207991927862">
        <ele>808.13</ele>
        <time>2025-05-02T07:34:49Z</time>
      </trkpt>
      <trkpt lat="42.562440969049931" lon="-8.031928036361933">
        <ele>809.09000000000003</ele>
        <time>2025-05-02T07:34:50Z</time>
      </trkpt>
      <trkpt lat="42.562090018764138" lon="-8.031177017837763">
        <ele>811.97000000000003</ele>
        <time>2025-05-02T07:34:53Z</time>
      </trkpt>
      <trkpt lat="42.56194400601089" lon="-8.030947018414736">
        <ele>812.92999999999995</ele>
        <time>2025-05-02T07:34:54Z</time>
      </trkpt>
      <trkpt lat="42.561762034893036" lon="-8.030747026205063">
        <ele>813.40999999999997</ele>
        <time>2025-05-02T07:34:55Z</time>
      </trkpt>
      <trkpt lat="42.561581991612911" lon="-8.030544016510248">
        <ele>814.37</ele>
        <time>2025-05-02T07:34:56Z</time>
      </trkpt>
      <trkpt lat="42.561391973868012" lon="-8.030361039564014">
        <ele>814.85000000000002</ele>
        <time>2025-05-02T07:34:57Z</time>
      </trkpt>
      <trkpt lat="42.559606963768601" lon="-8.028696980327368">
        <ele>811.97000000000003</ele>
        <time>2025-05-02T07:35:07Z</time>
      </trkpt>
      <trkpt lat="42.558423019945621" lon="-8.027509013190866">
        <ele>804.75999999999999</ele>
        <time>2025-05-02T07:35:14Z</time>
      </trkpt>
      <trkpt lat="42.558289999142289" lon="-8.027313966304064">
        <ele>803.79999999999995</ele>
        <time>2025-05-02T07:35:15Z</time>
      </trkpt>
      <trkpt lat="42.558172987774014" lon="-8.02711196243763">
        <ele>802.84000000000003</ele>
        <time>2025-05-02T07:35:16Z</time>
      </trkpt>
      <trkpt lat="42.558079026639462" lon="-8.026876011863351">
        <ele>801.39999999999998</ele>
        <time>2025-05-02T07:35:17Z</time>
      </trkpt>
      <trkpt lat="42.557998979464173" lon="-8.026630003005266">
        <ele>800.44000000000005</ele>
        <time>2025-05-02T07:35:18Z</time>
      </trkpt>
      <trkpt lat="42.557920021936297" lon="-8.026368990540505">
        <ele>798.99000000000001</ele>
        <time>2025-05-02T07:35:19Z</time>
      </trkpt>
      <trkpt lat="42.557853972539306" lon="-8.026103032752872">
        <ele>797.54999999999995</ele>
        <time>2025-05-02T07:35:20Z</time>
      </trkpt>
      <trkpt lat="42.55779798142612" lon="-8.025820981711149">
        <ele>796.59000000000003</ele>
        <time>2025-05-02T07:35:21Z</time>
      </trkpt>
      <trkpt lat="42.55725902505219" lon="-8.023281013593078">
        <ele>783.13</ele>
        <time>2025-05-02T07:35:30Z</time>
      </trkpt>
      <trkpt lat="42.556353025138378" lon="-8.020326979458332">
        <ele>767.75</ele>
        <time>2025-05-02T07:35:40Z</time>
      </trkpt>
      <trkpt lat="42.55519799888134" lon="-8.017738983035088">
        <ele>753.80999999999995</ele>
        <time>2025-05-02T07:35:50Z</time>
      </trkpt>
      <trkpt lat="42.553824037313461" lon="-8.016146002337337">
        <ele>743.72000000000003</ele>
        <time>2025-05-02T07:35:58Z</time>
      </trkpt>
      <trkpt lat="42.552323006093502" lon="-8.015300016850233">
        <ele>735.54999999999995</ele>
        <time>2025-05-02T07:36:05Z</time>
      </trkpt>
      <trkpt lat="42.550700018182397" lon="-8.01495099440217">
        <ele>726.88999999999999</ele>
        <time>2025-05-02T07:36:12Z</time>
      </trkpt>
      <trkpt lat="42.550262985751033" lon="-8.014783021062613">
        <ele>724.49000000000001</ele>
        <time>2025-05-02T07:36:14Z</time>
      </trkpt>
      <trkpt lat="42.550048995763063" lon="-8.014666009694338">
        <ele>723.04999999999995</ele>
        <time>2025-05-02T07:36:15Z</time>
      </trkpt>
      <trkpt lat="42.547545991837978" lon="-8.013030029833317">
        <ele>708.14999999999998</ele>
        <time>2025-05-02T07:36:27Z</time>
      </trkpt>
      <trkpt lat="42.546696988865733" lon="-8.012635996565223">
        <ele>703.34000000000003</ele>
        <time>2025-05-02T07:36:31Z</time>
      </trkpt>
      <trkpt lat="42.544694971293211" lon="-8.012391999363899">
        <ele>697.09000000000003</ele>
        <time>2025-05-02T07:36:40Z</time>
      </trkpt>
      <trkpt lat="42.543470039963722" lon="-8.012263001874089">
        <ele>697.09000000000003</ele>
        <time>2025-05-02T07:36:47Z</time>
      </trkpt>
      <trkpt lat="42.542380979284644" lon="-8.012047000229359">
        <ele>697.09000000000003</ele>
        <time>2025-05-02T07:36:56Z</time>
      </trkpt>
      <trkpt lat="42.541379006579518" lon="-8.011485999450088">
        <ele>693.73000000000002</ele>
        <time>2025-05-02T07:37:05Z</time>
      </trkpt>
      <trkpt lat="42.541097961366177" lon="-8.011187016963959">
        <ele>692.28999999999996</ele>
        <time>2025-05-02T07:37:08Z</time>
      </trkpt>
      <trkpt lat="42.541019003838301" lon="-8.011061036959291">
        <ele>691.80999999999995</ele>
        <time>2025-05-02T07:37:09Z</time>
      </trkpt>
      <trkpt lat="42.540944991633296" lon="-8.010928016155958">
        <ele>691.33000000000004</ele>
        <time>2025-05-02T07:37:10Z</time>
      </trkpt>
      <trkpt lat="42.540030023083091" lon="-8.008917029947043">
        <ele>684.12</ele>
        <time>2025-05-02T07:37:23Z</time>
      </trkpt>
      <trkpt lat="42.539849979802966" lon="-8.008672026917338">
        <ele>683.14999999999998</ele>
        <time>2025-05-02T07:37:25Z</time>
      </trkpt>
      <trkpt lat="42.539747972041368" lon="-8.008560966700316">
        <ele>683.14999999999998</ele>
        <time>2025-05-02T07:37:26Z</time>
      </trkpt>
      <trkpt lat="42.539639007300138" lon="-8.008464993909001">
        <ele>682.66999999999996</ele>
        <time>2025-05-02T07:37:27Z</time>
      </trkpt>
      <trkpt lat="42.538163959980011" lon="-8.007458997890353">
        <ele>676.90999999999997</ele>
        <time>2025-05-02T07:37:38Z</time>
      </trkpt>
      <trkpt lat="42.537157963961363" lon="-8.006991958245635">
        <ele>674.01999999999998</ele>
        <time>2025-05-02T07:37:44Z</time>
      </trkpt>
      <trkpt lat="42.536955960094929" lon="-8.006959017366171">
        <ele>673.53999999999996</ele>
        <time>2025-05-02T07:37:45Z</time>
      </trkpt>
      <trkpt lat="42.536745993420482" lon="-8.00693697296083">
        <ele>672.58000000000004</ele>
        <time>2025-05-02T07:37:46Z</time>
      </trkpt>
      <trkpt lat="42.536538038402796" lon="-8.006972009316087">
        <ele>672.10000000000002</ele>
        <time>2025-05-02T07:37:47Z</time>
      </trkpt>
      <trkpt lat="42.536325976252556" lon="-8.00702297128737">
        <ele>671.62</ele>
        <time>2025-05-02T07:37:48Z</time>
      </trkpt>
      <trkpt lat="42.536115003749728" lon="-8.00708600319922">
        <ele>670.65999999999997</ele>
        <time>2025-05-02T07:37:49Z</time>
      </trkpt>
      <trkpt lat="42.535911994054914" lon="-8.007184993475676">
        <ele>670.17999999999995</ele>
        <time>2025-05-02T07:37:50Z</time>
      </trkpt>
      <trkpt lat="42.535713007673621" lon="-8.007295969873667">
        <ele>669.70000000000005</ele>
        <time>2025-05-02T07:37:51Z</time>
      </trkpt>
      <trkpt lat="42.533787013962865" lon="-8.00841998308897">
        <ele>667.28999999999996</ele>
        <time>2025-05-02T07:38:01Z</time>
      </trkpt>
      <trkpt lat="42.533343024551868" lon="-8.008688958361745">
        <ele>666.33000000000004</ele>
        <time>2025-05-02T07:38:04Z</time>
      </trkpt>
      <trkpt lat="42.533206986263394" lon="-8.008770011365414">
        <ele>665.85000000000002</ele>
        <time>2025-05-02T07:38:05Z</time>
      </trkpt>
      <trkpt lat="42.532040979713202" lon="-8.009422039613128">
        <ele>659.12</ele>
        <time>2025-05-02T07:38:15Z</time>
      </trkpt>
      <trkpt lat="42.530645979568362" lon="-8.009941969066858">
        <ele>652.87</ele>
        <time>2025-05-02T07:38:27Z</time>
      </trkpt>
      <trkpt lat="42.528380015864968" lon="-8.010484026744962">
        <ele>645.17999999999995</ele>
        <time>2025-05-02T07:38:46Z</time>
      </trkpt>
      <trkpt lat="42.52825596369803" lon="-8.010476985946298">
        <ele>644.70000000000005</ele>
        <time>2025-05-02T07:38:47Z</time>
      </trkpt>
      <trkpt lat="42.528136018663645" lon="-8.010469023138285">
        <ele>643.74000000000001</ele>
        <time>2025-05-02T07:38:48Z</time>
      </trkpt>
      <trkpt lat="42.526616966351867" lon="-8.009969964623451">
        <ele>634.61000000000001</ele>
        <time>2025-05-02T07:39:01Z</time>
      </trkpt>
      <trkpt lat="42.525334032252431" lon="-8.009542990475893">
        <ele>622.59000000000003</ele>
        <time>2025-05-02T07:39:18Z</time>
      </trkpt>
      <trkpt lat="42.524370029568672" lon="-8.009403012692928">
        <ele>622.11000000000001</ele>
        <time>2025-05-02T07:39:20Z</time>
      </trkpt>
      <trkpt lat="42.524250000715256" lon="-8.009404018521309">
        <ele>621.63</ele>
        <time>2025-05-02T07:39:21Z</time>
      </trkpt>
      <trkpt lat="42.524135001003742" lon="-8.009411981329322">
        <ele>621.14999999999998</ele>
        <time>2025-05-02T07:39:22Z</time>
      </trkpt>
      <trkpt lat="42.524021007120609" lon="-8.009569980204105">
        <ele>620.66999999999996</ele>
        <time>2025-05-02T07:39:23Z</time>
      </trkpt>
      <trkpt lat="42.523885974660516" lon="-8.009588001295924">
        <ele>620.19000000000005</ele>
        <time>2025-05-02T07:39:24Z</time>
      </trkpt>
      <trkpt lat="42.523773992434144" lon="-8.009467972442508">
        <ele>619.23000000000002</ele>
        <time>2025-05-02T07:39:25Z</time>
      </trkpt>
      <trkpt lat="42.523655975237489" lon="-8.009490016847849">
        <ele>618.75</ele>
        <time>2025-05-02T07:39:26Z</time>
      </trkpt>
      <trkpt lat="42.523535024374723" lon="-8.009512983262539">
        <ele>617.77999999999997</ele>
        <time>2025-05-02T07:39:27Z</time>
      </trkpt>
      <trkpt lat="42.523412983864546" lon="-8.00953502766788">
        <ele>617.29999999999995</ele>
        <time>2025-05-02T07:39:28Z</time>
      </trkpt>
      <trkpt lat="42.523173009976745" lon="-8.009591018781066">
        <ele>615.86000000000001</ele>
        <time>2025-05-02T07:39:30Z</time>
      </trkpt>
      <trkpt lat="42.521710032597184" lon="-8.010185966268182">
        <ele>607.21000000000004</ele>
        <time>2025-05-02T07:39:42Z</time>
      </trkpt>
      <trkpt lat="42.520345039665699" lon="-8.010945031419396">
        <ele>601.91999999999996</ele>
        <time>2025-05-02T07:39:53Z</time>
      </trkpt>
      <trkpt lat="42.520232973620296" lon="-8.011076962575316">
        <ele>601.44000000000005</ele>
        <time>2025-05-02T07:39:54Z</time>
      </trkpt>
      <trkpt lat="42.520115040242672" lon="-8.011216018348932">
        <ele>600.96000000000004</ele>
        <time>2025-05-02T07:39:55Z</time>
      </trkpt>
      <trkpt lat="42.520012026652694" lon="-8.011378962546587">
        <ele>600.48000000000002</ele>
        <time>2025-05-02T07:39:56Z</time>
      </trkpt>
      <trkpt lat="42.519910018891096" lon="-8.011569986119866">
        <ele>600</ele>
        <time>2025-05-02T07:39:57Z</time>
      </trkpt>
      <trkpt lat="42.519829971715808" lon="-8.011781964451075">
        <ele>599.51999999999998</ele>
        <time>2025-05-02T07:39:58Z</time>
      </trkpt>
      <trkpt lat="42.519740033894777" lon="-8.012025961652398">
        <ele>599.03999999999996</ele>
        <time>2025-05-02T07:39:59Z</time>
      </trkpt>
      <trkpt lat="42.519652023911476" lon="-8.012279011309147">
        <ele>598.55999999999995</ele>
        <time>2025-05-02T07:40:00Z</time>
      </trkpt>
      <trkpt lat="42.519578011706471" lon="-8.012553015723825">
        <ele>598.08000000000004</ele>
        <time>2025-05-02T07:40:01Z</time>
      </trkpt>
      <trkpt lat="42.519150031730533" lon="-8.013840978965163">
        <ele>594.23000000000002</ele>
        <time>2025-05-02T07:40:06Z</time>
      </trkpt>
      <trkpt lat="42.519020028412342" lon="-8.014035020023584">
        <ele>593.26999999999998</ele>
        <time>2025-05-02T07:40:07Z</time>
      </trkpt>
      <trkpt lat="42.518869992345572" lon="-8.014183966442943">
        <ele>592.30999999999995</ele>
        <time>2025-05-02T07:40:08Z</time>
      </trkpt>
      <trkpt lat="42.518719034269452" lon="-8.014309024438262">
        <ele>591.35000000000002</ele>
        <time>2025-05-02T07:40:09Z</time>
      </trkpt>
      <trkpt lat="42.51854402013123" lon="-8.014383958652616">
        <ele>589.90999999999997</ele>
        <time>2025-05-02T07:40:10Z</time>
      </trkpt>
      <trkpt lat="42.518363976851106" lon="-8.014458976686001">
        <ele>588.95000000000005</ele>
        <time>2025-05-02T07:40:11Z</time>
      </trkpt>
      <trkpt lat="42.518183011561632" lon="-8.014531983062625">
        <ele>587.5</ele>
        <time>2025-05-02T07:40:12Z</time>
      </trkpt>
      <trkpt lat="42.51798695884645" lon="-8.014575988054276">
        <ele>586.53999999999996</ele>
        <time>2025-05-02T07:40:13Z</time>
      </trkpt>
      <trkpt lat="42.516414010897279" lon="-8.015218963846564">
        <ele>577.40999999999997</ele>
        <time>2025-05-02T07:40:21Z</time>
      </trkpt>
      <trkpt lat="42.514981962740421" lon="-8.016465017572045">
        <ele>568.75999999999999</ele>
        <time>2025-05-02T07:40:29Z</time>
      </trkpt>
      <trkpt lat="42.513410020619631" lon="-8.017737977206707">
        <ele>557.70000000000005</ele>
        <time>2025-05-02T07:40:39Z</time>
      </trkpt>
      <trkpt lat="42.512090960517526" lon="-8.018278023228049">
        <ele>548.57000000000005</ele>
        <time>2025-05-02T07:40:46Z</time>
      </trkpt>
      <trkpt lat="42.509601032361388" lon="-8.018766017630696">
        <ele>533.66999999999996</ele>
        <time>2025-05-02T07:40:57Z</time>
      </trkpt>
      <trkpt lat="42.507186960428953" lon="-8.019187962636352">
        <ele>520.21000000000004</ele>
        <time>2025-05-02T07:41:07Z</time>
      </trkpt>
      <trkpt lat="42.506959978491068" lon="-8.01916197873652">
        <ele>519.25</ele>
        <time>2025-05-02T07:41:08Z</time>
      </trkpt>
      <trkpt lat="42.506742971017957" lon="-8.019129037857056">
        <ele>518.76999999999998</ele>
        <time>2025-05-02T07:41:09Z</time>
      </trkpt>
      <trkpt lat="42.506530992686749" lon="-8.019040022045374">
        <ele>518.28999999999996</ele>
        <time>2025-05-02T07:41:10Z</time>
      </trkpt>
      <trkpt lat="42.506327982991934" lon="-8.018941031768918">
        <ele>518.28999999999996</ele>
        <time>2025-05-02T07:41:11Z</time>
      </trkpt>
      <trkpt lat="42.506138971075416" lon="-8.018784960731864">
        <ele>518.28999999999996</ele>
        <time>2025-05-02T07:41:12Z</time>
      </trkpt>
      <trkpt lat="42.5059549883008" lon="-8.018621010705829">
        <ele>518.28999999999996</ele>
        <time>2025-05-02T07:41:13Z</time>
      </trkpt>
      <trkpt lat="42.505780979990959" lon="-8.018425041809678">
        <ele>519.25</ele>
        <time>2025-05-02T07:41:14Z</time>
      </trkpt>
      <trkpt lat="42.505605965852737" lon="-8.018227983266115">
        <ele>519.73000000000002</ele>
        <time>2025-05-02T07:41:15Z</time>
      </trkpt>
      <trkpt lat="42.504374999552965" lon="-8.016960974782705">
        <ele>519.73000000000002</ele>
        <time>2025-05-02T07:41:22Z</time>
      </trkpt>
      <trkpt lat="42.504163021221757" lon="-8.016863996163011">
        <ele>519.25</ele>
        <time>2025-05-02T07:41:23Z</time>
      </trkpt>
      <trkpt lat="42.503960011526942" lon="-8.016777997836471">
        <ele>519.25</ele>
        <time>2025-05-02T07:41:24Z</time>
      </trkpt>
      <trkpt lat="42.503744009882212" lon="-8.016761988401413">
        <ele>518.76999999999998</ele>
        <time>2025-05-02T07:41:25Z</time>
      </trkpt>
      <trkpt lat="42.503527002409101" lon="-8.016745978966355">
        <ele>518.76999999999998</ele>
        <time>2025-05-02T07:41:26Z</time>
      </trkpt>
      <trkpt lat="42.503320975229144" lon="-8.016764000058174">
        <ele>518.76999999999998</ele>
        <time>2025-05-02T07:41:27Z</time>
      </trkpt>
      <trkpt lat="42.503112014383078" lon="-8.016836000606418">
        <ele>518.76999999999998</ele>
        <time>2025-05-02T07:41:28Z</time>
      </trkpt>
      <trkpt lat="42.50290104188025" lon="-8.016910012811422">
        <ele>519.25</ele>
        <time>2025-05-02T07:41:29Z</time>
      </trkpt>
      <trkpt lat="42.500456040725112" lon="-8.017876027151942">
        <ele>522.61000000000001</ele>
        <time>2025-05-02T07:41:40Z</time>
      </trkpt>
      <trkpt lat="42.498461985960603" lon="-8.018928961828351">
        <ele>528.38</ele>
        <time>2025-05-02T07:41:49Z</time>
      </trkpt>
      <trkpt lat="42.496792981401086" lon="-8.020660998299718">
        <ele>537.02999999999997</ele>
        <time>2025-05-02T07:41:58Z</time>
      </trkpt>
      <trkpt lat="42.496322002261877" lon="-8.021122002974153">
        <ele>539.91999999999996</ele>
        <time>2025-05-02T07:42:01Z</time>
      </trkpt>
      <trkpt lat="42.496169032528996" lon="-8.02120003849268">
        <ele>540.39999999999998</ele>
        <time>2025-05-02T07:42:02Z</time>
      </trkpt>
      <trkpt lat="42.495979014784098" lon="-8.02124303765595">
        <ele>540.39999999999998</ele>
        <time>2025-05-02T07:42:03Z</time>
      </trkpt>
      <trkpt lat="42.495796959847212" lon="-8.021284025162458">
        <ele>540.88</ele>
        <time>2025-05-02T07:42:04Z</time>
      </trkpt>
      <trkpt lat="42.495623035356402" lon="-8.021284025162458">
        <ele>540.88</ele>
        <time>2025-05-02T07:42:05Z</time>
      </trkpt>
      <trkpt lat="42.495442992076278" lon="-8.021227028220892">
        <ele>540.88</ele>
        <time>2025-05-02T07:42:06Z</time>
      </trkpt>
      <trkpt lat="42.495280969887972" lon="-8.021171959117055">
        <ele>541.36000000000001</ele>
        <time>2025-05-02T07:42:07Z</time>
      </trkpt>
      <trkpt lat="42.495144009590149" lon="-8.021058971062303">
        <ele>541.36000000000001</ele>
        <time>2025-05-02T07:42:08Z</time>
      </trkpt>
      <trkpt lat="42.4950170237571" lon="-8.020954029634595">
        <ele>541.84000000000003</ele>
        <time>2025-05-02T07:42:09Z</time>
      </trkpt>
      <trkpt lat="42.494908981025219" lon="-8.020852021872997">
        <ele>541.84000000000003</ele>
        <time>2025-05-02T07:42:10Z</time>
      </trkpt>
      <trkpt lat="42.494829017668962" lon="-8.020715983584523">
        <ele>541.84000000000003</ele>
        <time>2025-05-02T07:42:11Z</time>
      </trkpt>
      <trkpt lat="42.494750982150435" lon="-8.020584974437952">
        <ele>541.84000000000003</ele>
        <time>2025-05-02T07:42:12Z</time>
      </trkpt>
      <trkpt lat="42.49467596411705" lon="-8.020457988604903">
        <ele>541.84000000000003</ele>
        <time>2025-05-02T07:42:13Z</time>
      </trkpt>
      <trkpt lat="42.493726965039968" lon="-8.018754031509161">
        <ele>535.11000000000001</ele>
        <time>2025-05-02T07:42:26Z</time>
      </trkpt>
      <trkpt lat="42.493078960105777" lon="-8.017531028017402">
        <ele>528.86000000000001</ele>
        <time>2025-05-02T07:42:32Z</time>
      </trkpt>
      <trkpt lat="42.492457022890449" lon="-8.015641998499632">
        <ele>521.64999999999998</ele>
        <time>2025-05-02T07:42:39Z</time>
      </trkpt>
      <trkpt lat="42.491980008780956" lon="-8.013570997864008">
        <ele>512.51999999999998</ele>
        <time>2025-05-02T07:42:46Z</time>
      </trkpt>
      <trkpt lat="42.491866014897823" lon="-8.013322977349162">
        <ele>511.07999999999998</ele>
        <time>2025-05-02T07:42:47Z</time>
      </trkpt>
      <trkpt lat="42.491728970780969" lon="-8.013095995411277">
        <ele>509.63999999999999</ele>
        <time>2025-05-02T07:42:48Z</time>
      </trkpt>
      <trkpt lat="42.491565020754933" lon="-8.012891979888082">
        <ele>508.19</ele>
        <time>2025-05-02T07:42:49Z</time>
      </trkpt>
      <trkpt lat="42.491380032151937" lon="-8.012739010155201">
        <ele>506.75</ele>
        <time>2025-05-02T07:42:50Z</time>
      </trkpt>
      <trkpt lat="42.491189008578658" lon="-8.012598026543856">
        <ele>505.79000000000002</ele>
        <time>2025-05-02T07:42:51Z</time>
      </trkpt>
      <trkpt lat="42.49100100249052" lon="-8.012473974376917">
        <ele>504.35000000000002</ele>
        <time>2025-05-02T07:42:52Z</time>
      </trkpt>
      <trkpt lat="42.490787012502551" lon="-8.012399040162563">
        <ele>502.91000000000003</ele>
        <time>2025-05-02T07:42:53Z</time>
      </trkpt>
      <trkpt lat="42.490576039999723" lon="-8.012336008250713">
        <ele>501.45999999999998</ele>
        <time>2025-05-02T07:42:54Z</time>
      </trkpt>
      <trkpt lat="42.490349980071187" lon="-8.012322010472417">
        <ele>500.5</ele>
        <time>2025-05-02T07:42:55Z</time>
      </trkpt>
      <trkpt lat="42.490118974819779" lon="-8.012309018522501">
        <ele>499.06</ele>
        <time>2025-05-02T07:42:56Z</time>
      </trkpt>
      <trkpt lat="42.487297039479017" lon="-8.012218996882439">
        <ele>496.18000000000001</ele>
        <time>2025-05-02T07:43:08Z</time>
      </trkpt>
      <trkpt lat="42.485809000208974" lon="-8.012187983840704">
        <ele>502.43000000000001</ele>
        <time>2025-05-02T07:43:15Z</time>
      </trkpt>
      <trkpt lat="42.484981035813689" lon="-8.012166023254395">
        <ele>507.70999999999998</ele>
        <time>2025-05-02T07:43:21Z</time>
      </trkpt>
      <trkpt lat="42.483402974903584" lon="-8.012108020484448">
        <ele>507.23000000000002</ele>
        <time>2025-05-02T07:43:34Z</time>
      </trkpt>
      <trkpt lat="42.482075029984117" lon="-8.012070972472429">
        <ele>508.67000000000002</ele>
        <time>2025-05-02T07:43:46Z</time>
      </trkpt>
      <trkpt lat="42.480005035176873" lon="-8.011972988024354">
        <ele>513</ele>
        <time>2025-05-02T07:44:02Z</time>
      </trkpt>
      <trkpt lat="42.479867991060019" lon="-8.011944992467761">
        <ele>513.48000000000002</ele>
        <time>2025-05-02T07:44:03Z</time>
      </trkpt>
      <trkpt lat="42.479726001620293" lon="-8.011884978041053">
        <ele>513.48000000000002</ele>
        <time>2025-05-02T07:44:04Z</time>
      </trkpt>
      <trkpt lat="42.479574959725142" lon="-8.011789005249739">
        <ele>513.96000000000004</ele>
        <time>2025-05-02T07:44:05Z</time>
      </trkpt>
      <trkpt lat="42.478288002312183" lon="-8.010831037536264">
        <ele>512.03999999999996</ele>
        <time>2025-05-02T07:44:12Z</time>
      </trkpt>
      <trkpt lat="42.476825024932623" lon="-8.009679028764367">
        <ele>508.19</ele>
        <time>2025-05-02T07:44:20Z</time>
      </trkpt>
      <trkpt lat="42.476681023836136" lon="-8.009520024061203">
        <ele>507.70999999999998</ele>
        <time>2025-05-02T07:44:21Z</time>
      </trkpt>
      <trkpt lat="42.47653903439641" lon="-8.009338974952698">
        <ele>507.23000000000002</ele>
        <time>2025-05-02T07:44:22Z</time>
      </trkpt>
      <trkpt lat="42.476427974179387" lon="-8.009119033813477">
        <ele>506.26999999999998</ele>
        <time>2025-05-02T07:44:23Z</time>
      </trkpt>
      <trkpt lat="42.476311968639493" lon="-8.008888028562069">
        <ele>505.79000000000002</ele>
        <time>2025-05-02T07:44:24Z</time>
      </trkpt>
      <trkpt lat="42.476228987798095" lon="-8.008635984733701">
        <ele>504.82999999999998</ele>
        <time>2025-05-02T07:44:25Z</time>
      </trkpt>
      <trkpt lat="42.476155981421471" lon="-8.008366003632546">
        <ele>503.87</ele>
        <time>2025-05-02T07:44:26Z</time>
      </trkpt>
      <trkpt lat="42.47611197642982" lon="-8.008091999217868">
        <ele>502.91000000000003</ele>
        <time>2025-05-02T07:44:27Z</time>
      </trkpt>
      <trkpt lat="42.476083980873227" lon="-8.007800979539752">
        <ele>501.94999999999999</ele>
        <time>2025-05-02T07:44:28Z</time>
      </trkpt>
      <trkpt lat="42.476054979488254" lon="-8.007501997053623">
        <ele>500.98000000000002</ele>
        <time>2025-05-02T07:44:29Z</time>
      </trkpt>
      <trkpt lat="42.476034024730325" lon="-8.007196979597211">
        <ele>500.01999999999998</ele>
        <time>2025-05-02T07:44:30Z</time>
      </trkpt>
      <trkpt lat="42.475908966735005" lon="-8.004535976797342">
        <ele>490.41000000000003</ele>
        <time>2025-05-02T07:44:39Z</time>
      </trkpt>
      <trkpt lat="42.475635968148708" lon="-8.002217961475253">
        <ele>483.19999999999999</ele>
        <time>2025-05-02T07:44:48Z</time>
      </trkpt>
      <trkpt lat="42.475547036156058" lon="-8.001989973708987">
        <ele>483.19999999999999</ele>
        <time>2025-05-02T07:44:49Z</time>
      </trkpt>
      <trkpt lat="42.475459026172757" lon="-8.001761985942721">
        <ele>483.19999999999999</ele>
        <time>2025-05-02T07:44:50Z</time>
      </trkpt>
      <trkpt lat="42.475344026461244" lon="-8.00156400538981">
        <ele>483.19999999999999</ele>
        <time>2025-05-02T07:44:51Z</time>
      </trkpt>
      <trkpt lat="42.475209999829531" lon="-8.001385973766446">
        <ele>483.68000000000001</ele>
        <time>2025-05-02T07:44:52Z</time>
      </trkpt>
      <trkpt lat="42.475067004561424" lon="-8.001219006255269">
        <ele>483.68000000000001</ele>
        <time>2025-05-02T07:44:53Z</time>
      </trkpt>
      <trkpt lat="42.474912023171782" lon="-8.001075005158782">
        <ele>484.16000000000003</ele>
        <time>2025-05-02T07:44:54Z</time>
      </trkpt>
      <trkpt lat="42.474751006811857" lon="-8.000937961041927">
        <ele>484.63999999999999</ele>
        <time>2025-05-02T07:44:55Z</time>
      </trkpt>
      <trkpt lat="42.472493005916476" lon="-7.9989879950881">
        <ele>494.25999999999999</ele>
        <time>2025-05-02T07:45:09Z</time>
      </trkpt>
      <trkpt lat="42.471047965809703" lon="-7.997621996328235">
        <ele>502.43000000000001</ele>
        <time>2025-05-02T07:45:18Z</time>
      </trkpt>
      <trkpt lat="42.47091100551188" lon="-7.997453017160296">
        <ele>503.38999999999999</ele>
        <time>2025-05-02T07:45:19Z</time>
      </trkpt>
      <trkpt lat="42.470794999971986" lon="-7.997259981930256">
        <ele>504.35000000000002</ele>
        <time>2025-05-02T07:45:20Z</time>
      </trkpt>
      <trkpt lat="42.470690980553627" lon="-7.997063007205725">
        <ele>504.82999999999998</ele>
        <time>2025-05-02T07:45:21Z</time>
      </trkpt>
      <trkpt lat="42.470602970570326" lon="-7.99685999751091">
        <ele>505.31</ele>
        <time>2025-05-02T07:45:22Z</time>
      </trkpt>
      <trkpt lat="42.470526024699211" lon="-7.996664028614759">
        <ele>505.31</ele>
        <time>2025-05-02T07:45:23Z</time>
      </trkpt>
      <trkpt lat="42.470452012494206" lon="-7.996467975899577">
        <ele>505.79000000000002</ele>
        <time>2025-05-02T07:45:24Z</time>
      </trkpt>
      <trkpt lat="42.469914983958006" lon="-7.994693024083972">
        <ele>509.63999999999999</ele>
        <time>2025-05-02T07:45:34Z</time>
      </trkpt>
      <trkpt lat="42.469201013445854" lon="-7.992401998490095">
        <ele>506.75</ele>
        <time>2025-05-02T07:45:47Z</time>
      </trkpt>
      <trkpt lat="42.468390986323357" lon="-7.989736972376704">
        <ele>502.43000000000001</ele>
        <time>2025-05-02T07:46:01Z</time>
      </trkpt>
      <trkpt lat="42.468024026602507" lon="-7.98854598775506">
        <ele>501.94999999999999</ele>
        <time>2025-05-02T07:46:09Z</time>
      </trkpt>
      <trkpt lat="42.467994019389153" lon="-7.988440040498972">
        <ele>501.94999999999999</ele>
        <time>2025-05-02T07:46:10Z</time>
      </trkpt>
      <trkpt lat="42.467954959720373" lon="-7.988301990553737">
        <ele>501.94999999999999</ele>
        <time>2025-05-02T07:46:12Z</time>
      </trkpt>
      <trkpt lat="42.467853035777807" lon="-7.987959003075957">
        <ele>500.01999999999998</ele>
        <time>2025-05-02T07:46:21Z</time>
      </trkpt>
      <trkpt lat="42.467853035777807" lon="-7.987959003075957">
        <ele>499.06</ele>
        <time>2025-05-02T07:46:33Z</time>
      </trkpt>
      <trkpt lat="42.467853035777807" lon="-7.987959003075957">
        <ele>498.10000000000002</ele>
        <time>2025-05-02T07:46:53Z</time>
      </trkpt>
      <trkpt lat="42.467600991949439" lon="-7.987717017531395">
        <ele>510.60000000000002</ele>
        <time>2025-05-02T07:54:25Z</time>
      </trkpt>
      <trkpt lat="42.467611972242594" lon="-7.98768600448966">
        <ele>513</ele>
        <time>2025-05-02T07:54:51Z</time>
      </trkpt>
      <trkpt lat="42.467672992497683" lon="-7.987424992024899">
        <ele>512.51999999999998</ele>
        <time>2025-05-02T07:54:53Z</time>
      </trkpt>
      <trkpt lat="42.467737030237913" lon="-7.987604029476643">
        <ele>512.03999999999996</ele>
        <time>2025-05-02T07:54:54Z</time>
      </trkpt>
      <trkpt lat="42.467726971954107" lon="-7.987575028091669">
        <ele>512.03999999999996</ele>
        <time>2025-05-02T07:54:55Z</time>
      </trkpt>
      <trkpt lat="42.467705011367798" lon="-7.987515013664961">
        <ele>511.56</ele>
        <time>2025-05-02T07:54:56Z</time>
      </trkpt>
      <trkpt lat="42.467672992497683" lon="-7.987424992024899">
        <ele>511.07999999999998</ele>
        <time>2025-05-02T07:54:57Z</time>
      </trkpt>
      <trkpt lat="42.46764600276947" lon="-7.987326001748443">
        <ele>510.60000000000002</ele>
        <time>2025-05-02T07:54:58Z</time>
      </trkpt>
      <trkpt lat="42.46728097088635" lon="-7.986154966056347">
        <ele>509.63999999999999</ele>
        <time>2025-05-02T07:55:06Z</time>
      </trkpt>
      <trkpt lat="42.466732962056994" lon="-7.984414966776967">
        <ele>513.48000000000002</ele>
        <time>2025-05-02T07:55:16Z</time>
      </trkpt>
      <trkpt lat="42.466039024293423" lon="-7.982060993090272">
        <ele>515.39999999999998</ele>
        <time>2025-05-02T07:55:29Z</time>
      </trkpt>
      <trkpt lat="42.465418009087443" lon="-7.980045983567834">
        <ele>512.03999999999996</ele>
        <time>2025-05-02T07:55:39Z</time>
      </trkpt>
      <trkpt lat="42.464568000286818" lon="-7.977295964956284">
        <ele>501.94999999999999</ele>
        <time>2025-05-02T07:55:53Z</time>
      </trkpt>
      <trkpt lat="42.464000964537263" lon="-7.975384974852204">
        <ele>499.06</ele>
        <time>2025-05-02T07:56:03Z</time>
      </trkpt>
      <trkpt lat="42.463252963498235" lon="-7.972943997010589">
        <ele>501.45999999999998</ele>
        <time>2025-05-02T07:56:17Z</time>
      </trkpt>
      <trkpt lat="42.462455006316304" lon="-7.970340996980667">
        <ele>500.98000000000002</ele>
        <time>2025-05-02T07:56:31Z</time>
      </trkpt>
      <trkpt lat="42.461820999160409" lon="-7.96821903437376">
        <ele>497.13999999999999</ele>
        <time>2025-05-02T07:56:39Z</time>
      </trkpt>
      <trkpt lat="42.460891027003527" lon="-7.965188976377249">
        <ele>492.81</ele>
        <time>2025-05-02T07:56:49Z</time>
      </trkpt>
      <trkpt lat="42.459636004641652" lon="-7.961154012009502">
        <ele>479.35000000000002</ele>
        <time>2025-05-02T07:57:03Z</time>
      </trkpt>
      <trkpt lat="42.458616010844707" lon="-7.957831006497145">
        <ele>475.50999999999999</ele>
        <time>2025-05-02T07:57:15Z</time>
      </trkpt>
      <trkpt lat="42.457888964563608" lon="-7.954808995127678">
        <ele>482.72000000000003</ele>
        <time>2025-05-02T07:57:26Z</time>
      </trkpt>
      <trkpt lat="42.457781005650759" lon="-7.953518014401197">
        <ele>485.60000000000002</ele>
        <time>2025-05-02T07:57:32Z</time>
      </trkpt>
      <trkpt lat="42.457672040909529" lon="-7.951489007100463">
        <ele>487.52999999999997</ele>
        <time>2025-05-02T07:57:44Z</time>
      </trkpt>
      <trkpt lat="42.457519993185997" lon="-7.948910985141993">
        <ele>487.52999999999997</ele>
        <time>2025-05-02T07:57:59Z</time>
      </trkpt>
      <trkpt lat="42.457393007352948" lon="-7.946707969531417">
        <ele>485.12</ele>
        <time>2025-05-02T07:58:10Z</time>
      </trkpt>
      <trkpt lat="42.457255041226745" lon="-7.944004973396659">
        <ele>480.80000000000001</ele>
        <time>2025-05-02T07:58:21Z</time>
      </trkpt>
      <trkpt lat="42.457115985453129" lon="-7.94123400002718">
        <ele>473.58999999999997</ele>
        <time>2025-05-02T07:58:32Z</time>
      </trkpt>
      <trkpt lat="42.457002997398376" lon="-7.939181020483375">
        <ele>467.33999999999997</ele>
        <time>2025-05-02T07:58:40Z</time>
      </trkpt>
      <trkpt lat="42.456991011276841" lon="-7.938925037160516">
        <ele>466.86000000000001</ele>
        <time>2025-05-02T07:58:41Z</time>
      </trkpt>
      <trkpt lat="42.456906018778682" lon="-7.937047993764281">
        <ele>464.44999999999999</ele>
        <time>2025-05-02T07:58:48Z</time>
      </trkpt>
      <trkpt lat="42.456792024895549" lon="-7.935086041688919">
        <ele>461.08999999999997</ele>
        <time>2025-05-02T07:58:57Z</time>
      </trkpt>
      <trkpt lat="42.456717006862164" lon="-7.933423994109035">
        <ele>455.80000000000001</ele>
        <time>2025-05-02T07:59:07Z</time>
      </trkpt>
      <trkpt lat="42.45653604157269" lon="-7.93178197927773">
        <ele>449.55000000000001</ele>
        <time>2025-05-02T07:59:17Z</time>
      </trkpt>
      <trkpt lat="42.45608601719141" lon="-7.930240966379643">
        <ele>442.81999999999999</ele>
        <time>2025-05-02T07:59:27Z</time>
      </trkpt>
      <trkpt lat="42.455371962860227" lon="-7.928643962368369">
        <ele>437.54000000000002</ele>
        <time>2025-05-02T07:59:37Z</time>
      </trkpt>
      <trkpt lat="42.454506028443575" lon="-7.9271399974823">
        <ele>431.29000000000002</ele>
        <time>2025-05-02T07:59:44Z</time>
      </trkpt>
      <trkpt lat="42.454322967678308" lon="-7.926970012485981">
        <ele>430.32999999999998</ele>
        <time>2025-05-02T07:59:45Z</time>
      </trkpt>
      <trkpt lat="42.454123981297016" lon="-7.926831962540746">
        <ele>429.37</ele>
        <time>2025-05-02T07:59:46Z</time>
      </trkpt>
      <trkpt lat="42.453910997137427" lon="-7.926703970879316">
        <ele>428.88999999999999</ele>
        <time>2025-05-02T07:59:47Z</time>
      </trkpt>
      <trkpt lat="42.453697007149458" lon="-7.92658201418817">
        <ele>427.44</ele>
        <time>2025-05-02T07:59:48Z</time>
      </trkpt>
      <trkpt lat="42.45346499606967" lon="-7.92651797644794">
        <ele>426.48000000000002</ele>
        <time>2025-05-02T07:59:49Z</time>
      </trkpt>
      <trkpt lat="42.453225022181869" lon="-7.926467014476657">
        <ele>425.51999999999998</ele>
        <time>2025-05-02T07:59:50Z</time>
      </trkpt>
      <trkpt lat="42.452982030808926" lon="-7.926463996991515">
        <ele>424.56</ele>
        <time>2025-05-02T07:59:51Z</time>
      </trkpt>
      <trkpt lat="42.452736021950841" lon="-7.926463996991515">
        <ele>423.12</ele>
        <time>2025-05-02T07:59:52Z</time>
      </trkpt>
      <trkpt lat="42.452493030577898" lon="-7.926463996991515">
        <ele>422.16000000000003</ele>
        <time>2025-05-02T07:59:53Z</time>
      </trkpt>
      <trkpt lat="42.452250961214304" lon="-7.926475983113051">
        <ele>421.19</ele>
        <time>2025-05-02T07:59:54Z</time>
      </trkpt>
      <trkpt lat="42.450119024142623" lon="-7.926571033895016">
        <ele>413.5</ele>
        <time>2025-05-02T08:00:03Z</time>
      </trkpt>
      <trkpt lat="42.449431959539652" lon="-7.92645301669836">
        <ele>413.01999999999998</ele>
        <time>2025-05-02T08:00:06Z</time>
      </trkpt>
      <trkpt lat="42.449204977601767" lon="-7.926375987008214">
        <ele>413.01999999999998</ele>
        <time>2025-05-02T08:00:07Z</time>
      </trkpt>
      <trkpt lat="42.44899501092732" lon="-7.926236009225249">
        <ele>413.5</ele>
        <time>2025-05-02T08:00:08Z</time>
      </trkpt>
      <trkpt lat="42.448790995404124" lon="-7.926098965108395">
        <ele>413.5</ele>
        <time>2025-05-02T08:00:09Z</time>
      </trkpt>
      <trkpt lat="42.448607012629509" lon="-7.925895033404231">
        <ele>414.47000000000003</ele>
        <time>2025-05-02T08:00:10Z</time>
      </trkpt>
      <trkpt lat="42.448429986834526" lon="-7.925718007609248">
        <ele>414.94999999999999</ele>
        <time>2025-05-02T08:00:11Z</time>
      </trkpt>
      <trkpt lat="42.448276011273265" lon="-7.925522960722446">
        <ele>415.43000000000001</ele>
        <time>2025-05-02T08:00:12Z</time>
      </trkpt>
      <trkpt lat="42.448143996298313" lon="-7.925326991826296">
        <ele>416.38999999999999</ele>
        <time>2025-05-02T08:00:13Z</time>
      </trkpt>
      <trkpt lat="42.448021033778787" lon="-7.925145020708442">
        <ele>417.35000000000002</ele>
        <time>2025-05-02T08:00:14Z</time>
      </trkpt>
      <trkpt lat="42.447486016899347" lon="-7.924332981929183">
        <ele>422.16000000000003</ele>
        <time>2025-05-02T08:00:20Z</time>
      </trkpt>
      <trkpt lat="42.446443978697062" lon="-7.922695996239781">
        <ele>431.76999999999998</ele>
        <time>2025-05-02T08:00:33Z</time>
      </trkpt>
      <trkpt lat="42.445069011300802" lon="-7.920551989227533">
        <ele>440.89999999999998</ele>
        <time>2025-05-02T08:00:50Z</time>
      </trkpt>
      <trkpt lat="42.44368901476264" lon="-7.918415023013949">
        <ele>448.58999999999997</ele>
        <time>2025-05-02T08:01:07Z</time>
      </trkpt>
      <trkpt lat="42.442769017070532" lon="-7.916984986513853">
        <ele>451.48000000000002</ele>
        <time>2025-05-02T08:01:17Z</time>
      </trkpt>
      <trkpt lat="42.441771989688277" lon="-7.915463000535965">
        <ele>451</ele>
        <time>2025-05-02T08:01:24Z</time>
      </trkpt>
      <trkpt lat="42.439936017617583" lon="-7.912760004401207">
        <ele>448.58999999999997</ele>
        <time>2025-05-02T08:01:35Z</time>
      </trkpt>
      <trkpt lat="42.438680995255709" lon="-7.911825003102422">
        <ele>447.14999999999998</ele>
        <time>2025-05-02T08:01:41Z</time>
      </trkpt>
      <trkpt lat="42.436219984665513" lon="-7.910413993522525">
        <ele>448.58999999999997</ele>
        <time>2025-05-02T08:01:53Z</time>
      </trkpt>
      <trkpt lat="42.435188004747033" lon="-7.909830026328564">
        <ele>451.48000000000002</ele>
        <time>2025-05-02T08:02:01Z</time>
      </trkpt>
      <trkpt lat="42.433845978230238" lon="-7.909037014469504">
        <ele>457.24000000000001</ele>
        <time>2025-05-02T08:02:13Z</time>
      </trkpt>
      <trkpt lat="42.431906992569566" lon="-7.907938985154033">
        <ele>460.13</ele>
        <time>2025-05-02T08:02:30Z</time>
      </trkpt>
      <trkpt lat="42.430616011843085" lon="-7.907190984115005">
        <ele>459.64999999999998</ele>
        <time>2025-05-02T08:02:39Z</time>
      </trkpt>
      <trkpt lat="42.428833013400435" lon="-7.906160010024905">
        <ele>458.69</ele>
        <time>2025-05-02T08:02:49Z</time>
      </trkpt>
      <trkpt lat="42.427738001570106" lon="-7.905520973727107">
        <ele>457.24000000000001</ele>
        <time>2025-05-02T08:02:58Z</time>
      </trkpt>
      <trkpt lat="42.42676000110805" lon="-7.904868023470044">
        <ele>456.27999999999997</ele>
        <time>2025-05-02T08:03:07Z</time>
      </trkpt>
      <trkpt lat="42.426666039973497" lon="-7.904759980738163">
        <ele>455.80000000000001</ele>
        <time>2025-05-02T08:03:08Z</time>
      </trkpt>
      <trkpt lat="42.426571995019913" lon="-7.904651015996933">
        <ele>454.83999999999997</ele>
        <time>2025-05-02T08:03:09Z</time>
      </trkpt>
      <trkpt lat="42.426484990864992" lon="-7.9045370221138">
        <ele>454.36000000000001</ele>
        <time>2025-05-02T08:03:10Z</time>
      </trkpt>
      <trkpt lat="42.426411984488368" lon="-7.904402995482087">
        <ele>453.88</ele>
        <time>2025-05-02T08:03:11Z</time>
      </trkpt>
      <trkpt lat="42.426337972283363" lon="-7.904267963021994">
        <ele>453.39999999999998</ele>
        <time>2025-05-02T08:03:12Z</time>
      </trkpt>
      <trkpt lat="42.426269995048642" lon="-7.904134020209312">
        <ele>452.92000000000002</ele>
        <time>2025-05-02T08:03:13Z</time>
      </trkpt>
      <trkpt lat="42.42622003890574" lon="-7.903983984142542">
        <ele>452.44</ele>
        <time>2025-05-02T08:03:14Z</time>
      </trkpt>
      <trkpt lat="42.426168993115425" lon="-7.903832020238042">
        <ele>451.95999999999998</ele>
        <time>2025-05-02T08:03:15Z</time>
      </trkpt>
      <trkpt lat="42.425712011754513" lon="-7.901755990460515">
        <ele>443.79000000000002</ele>
        <time>2025-05-02T08:03:28Z</time>
      </trkpt>
      <trkpt lat="42.425408000126481" lon="-7.900243978947401">
        <ele>438.01999999999998</ele>
        <time>2025-05-02T08:03:36Z</time>
      </trkpt>
      <trkpt lat="42.424767035990953" lon="-7.897071009501815">
        <ele>427.92000000000002</ele>
        <time>2025-05-02T08:03:48Z</time>
      </trkpt>
      <trkpt lat="42.424389012157917" lon="-7.89519396610558">
        <ele>422.16000000000003</ele>
        <time>2025-05-02T08:03:55Z</time>
      </trkpt>
      <trkpt lat="42.423808984458447" lon="-7.892448976635933">
        <ele>414.47000000000003</ele>
        <time>2025-05-02T08:04:06Z</time>
      </trkpt>
      <trkpt lat="42.423163997009397" lon="-7.889420008286834">
        <ele>411.57999999999998</ele>
        <time>2025-05-02T08:04:18Z</time>
      </trkpt>
      <trkpt lat="42.422711960971355" lon="-7.887382032349706">
        <ele>413.5</ele>
        <time>2025-05-02T08:04:26Z</time>
      </trkpt>
      <trkpt lat="42.422234024852514" lon="-7.885012971237302">
        <ele>415.91000000000003</ele>
        <time>2025-05-02T08:04:35Z</time>
      </trkpt>
      <trkpt lat="42.421529022976756" lon="-7.88167797960341">
        <ele>424.07999999999998</ele>
        <time>2025-05-02T08:04:47Z</time>
      </trkpt>
      <trkpt lat="42.421396002173424" lon="-7.881117984652519">
        <ele>425.51999999999998</ele>
        <time>2025-05-02T08:04:49Z</time>
      </trkpt>
      <trkpt lat="42.421336993575096" lon="-7.880827970802784">
        <ele>426.95999999999998</ele>
        <time>2025-05-02T08:04:50Z</time>
      </trkpt>
      <trkpt lat="42.421101965010166" lon="-7.879726001992822">
        <ele>430.32999999999998</ele>
        <time>2025-05-02T08:04:54Z</time>
      </trkpt>
      <trkpt lat="42.421013033017516" lon="-7.879459960386157">
        <ele>431.29000000000002</ele>
        <time>2025-05-02T08:04:55Z</time>
      </trkpt>
      <trkpt lat="42.42091303691268" lon="-7.879201965406537">
        <ele>432.25</ele>
        <time>2025-05-02T08:04:56Z</time>
      </trkpt>
      <trkpt lat="42.420795019716024" lon="-7.878953022882342">
        <ele>433.20999999999998</ele>
        <time>2025-05-02T08:04:57Z</time>
      </trkpt>
      <trkpt lat="42.420663004741073" lon="-7.878720005974174">
        <ele>434.17000000000002</ele>
        <time>2025-05-02T08:04:58Z</time>
      </trkpt>
      <trkpt lat="42.420522021129727" lon="-7.878495035693049">
        <ele>434.64999999999998</ele>
        <time>2025-05-02T08:04:59Z</time>
      </trkpt>
      <trkpt lat="42.418535007163882" lon="-7.87583596073091">
        <ele>448.58999999999997</ele>
        <time>2025-05-02T08:05:12Z</time>
      </trkpt>
      <trkpt lat="42.417806033045053" lon="-7.874880004674196">
        <ele>456.27999999999997</ele>
        <time>2025-05-02T08:05:19Z</time>
      </trkpt>
      <trkpt lat="42.416798025369644" lon="-7.873499002307653">
        <ele>464.93000000000001</ele>
        <time>2025-05-02T08:05:31Z</time>
      </trkpt>
      <trkpt lat="42.41556697525084" lon="-7.871849024668336">
        <ele>467.33999999999997</ele>
        <time>2025-05-02T08:05:45Z</time>
      </trkpt>
      <trkpt lat="42.414335003122687" lon="-7.870215978473425">
        <ele>467.33999999999997</ele>
        <time>2025-05-02T08:05:59Z</time>
      </trkpt>
      <trkpt lat="42.413038993254304" lon="-7.868445971980691">
        <ele>462.52999999999997</ele>
        <time>2025-05-02T08:06:13Z</time>
      </trkpt>
      <trkpt lat="42.411586996167898" lon="-7.866524001583457">
        <ele>454.36000000000001</ele>
        <time>2025-05-02T08:06:27Z</time>
      </trkpt>
      <trkpt lat="42.410505982115865" lon="-7.86509295925498">
        <ele>447.63</ele>
        <time>2025-05-02T08:06:40Z</time>
      </trkpt>
      <trkpt lat="42.40963401272893" lon="-7.863905997946858">
        <ele>443.79000000000002</ele>
        <time>2025-05-02T08:06:50Z</time>
      </trkpt>
      <trkpt lat="42.408383013680577" lon="-7.862247973680496">
        <ele>438.01999999999998</ele>
        <time>2025-05-02T08:06:59Z</time>
      </trkpt>
      <trkpt lat="42.406061980873346" lon="-7.859263010323048">
        <ele>427.44</ele>
        <time>2025-05-02T08:07:14Z</time>
      </trkpt>
      <trkpt lat="42.405867017805576" lon="-7.859145998954773">
        <ele>426.95999999999998</ele>
        <time>2025-05-02T08:07:15Z</time>
      </trkpt>
      <trkpt lat="42.405670965090394" lon="-7.859028987586498">
        <ele>426.48000000000002</ele>
        <time>2025-05-02T08:07:16Z</time>
      </trkpt>
      <trkpt lat="42.40546602755785" lon="-7.858941983431578">
        <ele>425.51999999999998</ele>
        <time>2025-05-02T08:07:17Z</time>
      </trkpt>
      <trkpt lat="42.405256982892752" lon="-7.85886000841856">
        <ele>424.56</ele>
        <time>2025-05-02T08:07:18Z</time>
      </trkpt>
      <trkpt lat="42.405037963762879" lon="-7.858830001205206">
        <ele>423.60000000000002</ele>
        <time>2025-05-02T08:07:19Z</time>
      </trkpt>
      <trkpt lat="42.404818022623658" lon="-7.858807034790516">
        <ele>422.63999999999999</ele>
        <time>2025-05-02T08:07:20Z</time>
      </trkpt>
      <trkpt lat="42.404595986008644" lon="-7.858788007870317">
        <ele>421.19</ele>
        <time>2025-05-02T08:07:21Z</time>
      </trkpt>
      <trkpt lat="42.402681978419423" lon="-7.858840981498361">
        <ele>413.01999999999998</ele>
        <time>2025-05-02T08:07:30Z</time>
      </trkpt>
      <trkpt lat="42.4009770154953" lon="-7.858848022297025">
        <ele>403.88999999999999</ele>
        <time>2025-05-02T08:07:40Z</time>
      </trkpt>
      <trkpt lat="42.400807030498981" lon="-7.858824972063303">
        <ele>402.44999999999999</ele>
        <time>2025-05-02T08:07:41Z</time>
      </trkpt>
      <trkpt lat="42.400628998875618" lon="-7.858778033405542">
        <ele>401.49000000000001</ele>
        <time>2025-05-02T08:07:42Z</time>
      </trkpt>
      <trkpt lat="42.400465970858932" lon="-7.85866697318852">
        <ele>400.52999999999997</ele>
        <time>2025-05-02T08:07:43Z</time>
      </trkpt>
      <trkpt lat="42.400315012782812" lon="-7.858540993183851">
        <ele>399.07999999999998</ele>
        <time>2025-05-02T08:07:44Z</time>
      </trkpt>
      <trkpt lat="42.400175034999847" lon="-7.858390035107732">
        <ele>398.12</ele>
        <time>2025-05-02T08:07:45Z</time>
      </trkpt>
      <trkpt lat="42.400038996711373" lon="-7.858229018747807">
        <ele>397.16000000000003</ele>
        <time>2025-05-02T08:07:46Z</time>
      </trkpt>
      <trkpt lat="42.399915028363466" lon="-7.858047969639301">
        <ele>395.72000000000003</ele>
        <time>2025-05-02T08:07:47Z</time>
      </trkpt>
      <trkpt lat="42.399785025045276" lon="-7.857859041541815">
        <ele>394.75999999999999</ele>
        <time>2025-05-02T08:07:48Z</time>
      </trkpt>
      <trkpt lat="42.39837896078825" lon="-7.855695001780987">
        <ele>382.25999999999999</ele>
        <time>2025-05-02T08:08:00Z</time>
      </trkpt>
      <trkpt lat="42.397268023341894" lon="-7.853947039693594">
        <ele>376.00999999999999</ele>
        <time>2025-05-02T08:08:11Z</time>
      </trkpt>
      <trkpt lat="42.396767036989331" lon="-7.852965015918016">
        <ele>376.49000000000001</ele>
        <time>2025-05-02T08:08:17Z</time>
      </trkpt>
      <trkpt lat="42.396708028391004" lon="-7.85277902148664">
        <ele>376.97000000000003</ele>
        <time>2025-05-02T08:08:18Z</time>
      </trkpt>
      <trkpt lat="42.39622900262475" lon="-7.850697040557861">
        <ele>377.94</ele>
        <time>2025-05-02T08:08:28Z</time>
      </trkpt>
      <trkpt lat="42.396048037335277" lon="-7.85031097009778">
        <ele>376.49000000000001</ele>
        <time>2025-05-02T08:08:30Z</time>
      </trkpt>
      <trkpt lat="42.39590797573328" lon="-7.850134028121829">
        <ele>376.00999999999999</ele>
        <time>2025-05-02T08:08:31Z</time>
      </trkpt>
      <trkpt lat="42.395779984071851" lon="-7.849971000105143">
        <ele>375.52999999999997</ele>
        <time>2025-05-02T08:08:32Z</time>
      </trkpt>
      <trkpt lat="42.395635982975364" lon="-7.849830016493797">
        <ele>375.05000000000001</ele>
        <time>2025-05-02T08:08:33Z</time>
      </trkpt>
      <trkpt lat="42.395479995757341" lon="-7.849703030660749">
        <ele>374.08999999999997</ele>
        <time>2025-05-02T08:08:34Z</time>
      </trkpt>
      <trkpt lat="42.395314034074545" lon="-7.849601022899151">
        <ele>373.13</ele>
        <time>2025-05-02T08:08:35Z</time>
      </trkpt>
      <trkpt lat="42.395139019936323" lon="-7.849544025957584">
        <ele>372.17000000000002</ele>
        <time>2025-05-02T08:08:36Z</time>
      </trkpt>
      <trkpt lat="42.39496098831296" lon="-7.84949398599565">
        <ele>371.69</ele>
        <time>2025-05-02T08:08:37Z</time>
      </trkpt>
      <trkpt lat="42.394779017195106" lon="-7.849468002095819">
        <ele>370.73000000000002</ele>
        <time>2025-05-02T08:08:38Z</time>
      </trkpt>
      <trkpt lat="42.39459503442049" lon="-7.849459033459425">
        <ele>370.24000000000001</ele>
        <time>2025-05-02T08:08:39Z</time>
      </trkpt>
      <trkpt lat="42.394407028332353" lon="-7.849474959075451">
        <ele>369.27999999999997</ele>
        <time>2025-05-02T08:08:40Z</time>
      </trkpt>
      <trkpt lat="42.394227990880609" lon="-7.849529022350907">
        <ele>368.31999999999999</ele>
        <time>2025-05-02T08:08:41Z</time>
      </trkpt>
      <trkpt lat="42.394041996449232" lon="-7.849587025120854">
        <ele>367.36000000000001</ele>
        <time>2025-05-02T08:08:42Z</time>
      </trkpt>
      <trkpt lat="42.392845982685685" lon="-7.850140985101461">
        <ele>361.11000000000001</ele>
        <time>2025-05-02T08:08:49Z</time>
      </trkpt>
      <trkpt lat="42.392667029052973" lon="-7.850199993699789">
        <ele>360.63</ele>
        <time>2025-05-02T08:08:50Z</time>
      </trkpt>
      <trkpt lat="42.392488997429609" lon="-7.850217008963227">
        <ele>359.67000000000002</ele>
        <time>2025-05-02T08:08:51Z</time>
      </trkpt>
      <trkpt lat="42.392307026311755" lon="-7.85020099952817">
        <ele>358.70999999999998</ele>
        <time>2025-05-02T08:08:52Z</time>
      </trkpt>
      <trkpt lat="42.392124971374869" lon="-7.850185995921493">
        <ele>358.23000000000002</ele>
        <time>2025-05-02T08:08:53Z</time>
      </trkpt>
      <trkpt lat="42.391941994428635" lon="-7.850170992314816">
        <ele>357.26999999999998</ele>
        <time>2025-05-02T08:08:54Z</time>
      </trkpt>
      <trkpt lat="42.390694012865424" lon="-7.849919032305479">
        <ele>350.54000000000002</ele>
        <time>2025-05-02T08:09:01Z</time>
      </trkpt>
      <trkpt lat="42.390524027869105" lon="-7.84983797930181">
        <ele>349.57999999999998</ele>
        <time>2025-05-02T08:09:02Z</time>
      </trkpt>
      <trkpt lat="42.390365023165941" lon="-7.849727002903819">
        <ele>348.62</ele>
        <time>2025-05-02T08:09:03Z</time>
      </trkpt>
      <trkpt lat="42.390223033726215" lon="-7.849567998200655">
        <ele>347.64999999999998</ele>
        <time>2025-05-02T08:09:04Z</time>
      </trkpt>
      <trkpt lat="42.390088001266122" lon="-7.849402036517859">
        <ele>346.69</ele>
        <time>2025-05-02T08:09:05Z</time>
      </trkpt>
      <trkpt lat="42.389952968806028" lon="-7.849236996844411">
        <ele>345.73000000000002</ele>
        <time>2025-05-02T08:09:06Z</time>
      </trkpt>
      <trkpt lat="42.389836041256785" lon="-7.849045973271132">
        <ele>344.76999999999998</ele>
        <time>2025-05-02T08:09:07Z</time>
      </trkpt>
      <trkpt lat="42.389444019645452" lon="-7.84856703132391">
        <ele>341.41000000000003</ele>
        <time>2025-05-02T08:09:10Z</time>
      </trkpt>
      <trkpt lat="42.389305969700217" lon="-7.848423030227423">
        <ele>339.95999999999998</ele>
        <time>2025-05-02T08:09:11Z</time>
      </trkpt>
      <trkpt lat="42.38918099552393" lon="-7.848294032737613">
        <ele>339</ele>
        <time>2025-05-02T08:09:12Z</time>
      </trkpt>
      <trkpt lat="42.388995001092553" lon="-7.848235024139285">
        <ele>337.56</ele>
        <time>2025-05-02T08:09:13Z</time>
      </trkpt>
      <trkpt lat="42.388824010267854" lon="-7.848180960863829">
        <ele>336.60000000000002</ele>
        <time>2025-05-02T08:09:14Z</time>
      </trkpt>
      <trkpt lat="42.388655031099916" lon="-7.848186995834112">
        <ele>335.16000000000003</ele>
        <time>2025-05-02T08:09:15Z</time>
      </trkpt>
      <trkpt lat="42.388480016961694" lon="-7.848220020532608">
        <ele>334.19999999999999</ele>
        <time>2025-05-02T08:09:16Z</time>
      </trkpt>
      <trkpt lat="42.38832101225853" lon="-7.848309958353639">
        <ele>332.75</ele>
        <time>2025-05-02T08:09:17Z</time>
      </trkpt>
      <trkpt lat="42.388163013383746" lon="-7.848425963893533">
        <ele>331.79000000000002</ele>
        <time>2025-05-02T08:09:18Z</time>
      </trkpt>
      <trkpt lat="42.38800099119544" lon="-7.848615981638432">
        <ele>330.35000000000002</ele>
        <time>2025-05-02T08:09:19Z</time>
      </trkpt>
      <trkpt lat="42.387903006747365" lon="-7.848771968856454">
        <ele>329.38999999999999</ele>
        <time>2025-05-02T08:09:20Z</time>
      </trkpt>
      <trkpt lat="42.387781972065568" lon="-7.848970033228397">
        <ele>327.94999999999999</ele>
        <time>2025-05-02T08:09:21Z</time>
      </trkpt>
      <trkpt lat="42.387687005102634" lon="-7.849195003509522">
        <ele>326.5</ele>
        <time>2025-05-02T08:09:22Z</time>
      </trkpt>
      <trkpt lat="42.38720596767962" lon="-7.850338965654373">
        <ele>322.18000000000001</ele>
        <time>2025-05-02T08:09:27Z</time>
      </trkpt>
      <trkpt lat="42.386962976306677" lon="-7.850730987265706">
        <ele>320.25999999999999</ele>
        <time>2025-05-02T08:09:29Z</time>
      </trkpt>
      <trkpt lat="42.38681604154408" lon="-7.850895021110773">
        <ele>319.30000000000001</ele>
        <time>2025-05-02T08:09:30Z</time>
      </trkpt>
      <trkpt lat="42.386657958850265" lon="-7.851052014157176">
        <ele>318.32999999999998</ele>
        <time>2025-05-02T08:09:31Z</time>
      </trkpt>
      <trkpt lat="42.384832967072725" lon="-7.852589003741741">
        <ele>306.80000000000001</ele>
        <time>2025-05-02T08:09:42Z</time>
      </trkpt>
      <trkpt lat="42.384670022875071" lon="-7.852686988189817">
        <ele>305.83999999999997</ele>
        <time>2025-05-02T08:09:43Z</time>
      </trkpt>
      <trkpt lat="42.384503977373242" lon="-7.85273602232337">
        <ele>304.88</ele>
        <time>2025-05-02T08:09:44Z</time>
      </trkpt>
      <trkpt lat="42.384328963235021" lon="-7.85273602232337">
        <ele>303.43000000000001</ele>
        <time>2025-05-02T08:09:45Z</time>
      </trkpt>
      <trkpt lat="42.384154032915831" lon="-7.85273602232337">
        <ele>302.47000000000003</ele>
        <time>2025-05-02T08:09:46Z</time>
      </trkpt>
      <trkpt lat="42.383993016555905" lon="-7.852696040645242">
        <ele>301.50999999999999</ele>
        <time>2025-05-02T08:09:47Z</time>
      </trkpt>
      <trkpt lat="42.383840968832374" lon="-7.852647006511688">
        <ele>300.55000000000001</ele>
        <time>2025-05-02T08:09:48Z</time>
      </trkpt>
      <trkpt lat="42.383257001638412" lon="-7.852535024285317">
        <ele>295.74000000000001</ele>
        <time>2025-05-02T08:09:52Z</time>
      </trkpt>
      <trkpt lat="42.383115012198687" lon="-7.852577017620206">
        <ele>294.77999999999997</ele>
        <time>2025-05-02T08:09:53Z</time>
      </trkpt>
      <trkpt lat="42.382973022758961" lon="-7.852620016783476">
        <ele>293.33999999999997</ele>
        <time>2025-05-02T08:09:54Z</time>
      </trkpt>
      <trkpt lat="42.382826004177332" lon="-7.852652035653591">
        <ele>292.38</ele>
        <time>2025-05-02T08:09:55Z</time>
      </trkpt>
      <trkpt lat="42.382691977545619" lon="-7.852725964039564">
        <ele>291.42000000000002</ele>
        <time>2025-05-02T08:09:56Z</time>
      </trkpt>
      <trkpt lat="42.382002985104918" lon="-7.85297398455441">
        <ele>289.00999999999999</ele>
        <time>2025-05-02T08:10:01Z</time>
      </trkpt>
      <trkpt lat="42.381859989836812" lon="-7.853002985939384">
        <ele>288.52999999999997</ele>
        <time>2025-05-02T08:10:02Z</time>
      </trkpt>
      <trkpt lat="42.381712971255183" lon="-7.852997034788132">
        <ele>288.05000000000001</ele>
        <time>2025-05-02T08:10:03Z</time>
      </trkpt>
      <trkpt lat="42.381584979593754" lon="-7.852971972897649">
        <ele>287.56999999999999</ele>
        <time>2025-05-02T08:10:04Z</time>
      </trkpt>
      <trkpt lat="42.381431004032493" lon="-7.852877005934715">
        <ele>287.08999999999997</ele>
        <time>2025-05-02T08:10:05Z</time>
      </trkpt>
      <trkpt lat="42.381299994885921" lon="-7.852795030921698">
        <ele>286.61000000000001</ele>
        <time>2025-05-02T08:10:06Z</time>
      </trkpt>
      <trkpt lat="42.381178960204124" lon="-7.852696040645242">
        <ele>285.64999999999998</ele>
        <time>2025-05-02T08:10:07Z</time>
      </trkpt>
      <trkpt lat="42.379785971716046" lon="-7.85153497941792">
        <ele>278.44</ele>
        <time>2025-05-02T08:10:18Z</time>
      </trkpt>
      <trkpt lat="42.378781987354159" lon="-7.850605007261038">
        <ele>273.63</ele>
        <time>2025-05-02T08:10:26Z</time>
      </trkpt>
      <trkpt lat="42.37863396294415" lon="-7.850526971742511">
        <ele>273.14999999999998</ele>
        <time>2025-05-02T08:10:27Z</time>
      </trkpt>
      <trkpt lat="42.378476969897747" lon="-7.85045899450779">
        <ele>272.67000000000002</ele>
        <time>2025-05-02T08:10:28Z</time>
      </trkpt>
      <trkpt lat="42.378306984901428" lon="-7.850423958152533">
        <ele>272.19</ele>
        <time>2025-05-02T08:10:29Z</time>
      </trkpt>
      <trkpt lat="42.37813800573349" lon="-7.850400991737843">
        <ele>271.70999999999998</ele>
        <time>2025-05-02T08:10:30Z</time>
      </trkpt>
      <trkpt lat="42.37639700062573" lon="-7.850189013406634">
        <ele>264.01999999999998</ele>
        <time>2025-05-02T08:10:40Z</time>
      </trkpt>
      <trkpt lat="42.376239001750946" lon="-7.850099997594953">
        <ele>263.54000000000002</ele>
        <time>2025-05-02T08:10:41Z</time>
      </trkpt>
      <trkpt lat="42.376089971512556" lon="-7.8499870095402">
        <ele>262.57999999999998</ele>
        <time>2025-05-02T08:10:42Z</time>
      </trkpt>
      <trkpt lat="42.375958962365985" lon="-7.849839990958571">
        <ele>262.10000000000002</ele>
        <time>2025-05-02T08:10:43Z</time>
      </trkpt>
      <trkpt lat="42.375852009281516" lon="-7.849667994305491">
        <ele>261.13999999999999</ele>
        <time>2025-05-02T08:10:44Z</time>
      </trkpt>
      <trkpt lat="42.375745978206396" lon="-7.849498009309173">
        <ele>260.17000000000002</ele>
        <time>2025-05-02T08:10:45Z</time>
      </trkpt>
      <trkpt lat="42.375639025121927" lon="-7.849324000999332">
        <ele>259.69</ele>
        <time>2025-05-02T08:10:46Z</time>
      </trkpt>
      <trkpt lat="42.375032007694244" lon="-7.84854699857533">
        <ele>254.88999999999999</ele>
        <time>2025-05-02T08:10:51Z</time>
      </trkpt>
      <trkpt lat="42.374879959970713" lon="-7.848436022177339">
        <ele>253.44</ele>
        <time>2025-05-02T08:10:52Z</time>
      </trkpt>
      <trkpt lat="42.374715004116297" lon="-7.848392017185688">
        <ele>252.47999999999999</ele>
        <time>2025-05-02T08:10:53Z</time>
      </trkpt>
      <trkpt lat="42.37454803660512" lon="-7.848359998315573">
        <ele>251.52000000000001</ele>
        <time>2025-05-02T08:10:54Z</time>
      </trkpt>
      <trkpt lat="42.374375034123659" lon="-7.848369972780347">
        <ele>250.56</ele>
        <time>2025-05-02T08:10:55Z</time>
      </trkpt>
      <trkpt lat="42.374181998893619" lon="-7.848380031064153">
        <ele>249.59999999999999</ele>
        <time>2025-05-02T08:10:56Z</time>
      </trkpt>
      <trkpt lat="42.374031962826848" lon="-7.848431998863816">
        <ele>248.63999999999999</ele>
        <time>2025-05-02T08:10:57Z</time>
      </trkpt>
      <trkpt lat="42.373859966173768" lon="-7.848492013290525">
        <ele>247.68000000000001</ele>
        <time>2025-05-02T08:10:58Z</time>
      </trkpt>
      <trkpt lat="42.372794039547443" lon="-7.848923010751605">
        <ele>239.50999999999999</ele>
        <time>2025-05-02T08:11:05Z</time>
      </trkpt>
      <trkpt lat="42.37255297601223" lon="-7.849037004634738">
        <ele>237.58000000000001</ele>
        <time>2025-05-02T08:11:07Z</time>
      </trkpt>
      <trkpt lat="42.37244501709938" lon="-7.849128032103181">
        <ele>237.09999999999999</ele>
        <time>2025-05-02T08:11:08Z</time>
      </trkpt>
      <trkpt lat="42.37233798019588" lon="-7.849218975752592">
        <ele>236.62</ele>
        <time>2025-05-02T08:11:09Z</time>
      </trkpt>
      <trkpt lat="42.372244019061327" lon="-7.849336992949247">
        <ele>235.66</ele>
        <time>2025-05-02T08:11:10Z</time>
      </trkpt>
      <trkpt lat="42.372151985764503" lon="-7.849464984610677">
        <ele>235.18000000000001</ele>
        <time>2025-05-02T08:11:11Z</time>
      </trkpt>
      <trkpt lat="42.372058024629951" lon="-7.849595993757248">
        <ele>234.22</ele>
        <time>2025-05-02T08:11:12Z</time>
      </trkpt>
      <trkpt lat="42.371960962191224" lon="-7.849730020388961">
        <ele>233.74000000000001</ele>
        <time>2025-05-02T08:11:13Z</time>
      </trkpt>
      <trkpt lat="42.371876975521445" lon="-7.849886007606983">
        <ele>233.25999999999999</ele>
        <time>2025-05-02T08:11:14Z</time>
      </trkpt>
      <trkpt lat="42.371801035478711" lon="-7.850046018138528">
        <ele>232.30000000000001</ele>
        <time>2025-05-02T08:11:15Z</time>
      </trkpt>
      <trkpt lat="42.371734986081719" lon="-7.850219020619988">
        <ele>231.81</ele>
        <time>2025-05-02T08:11:16Z</time>
      </trkpt>
      <trkpt lat="42.37169299274683" lon="-7.850405015051365">
        <ele>230.84999999999999</ele>
        <time>2025-05-02T08:11:17Z</time>
      </trkpt>
      <trkpt lat="42.371657034382224" lon="-7.850591009482741">
        <ele>230.37</ele>
        <time>2025-05-02T08:11:18Z</time>
      </trkpt>
      <trkpt lat="42.371284961700439" lon="-7.853122008964419">
        <ele>222.19999999999999</ele>
        <time>2025-05-02T08:11:30Z</time>
      </trkpt>
      <trkpt lat="42.371166022494435" lon="-7.853491986170411">
        <ele>221.24000000000001</ele>
        <time>2025-05-02T08:11:32Z</time>
      </trkpt>
      <trkpt lat="42.371084969490767" lon="-7.853664988651872">
        <ele>220.28</ele>
        <time>2025-05-02T08:11:33Z</time>
      </trkpt>
      <trkpt lat="42.371007017791271" lon="-7.853830028325319">
        <ele>219.80000000000001</ele>
        <time>2025-05-02T08:11:34Z</time>
      </trkpt>
      <trkpt lat="42.370867962017655" lon="-7.853950979188085">
        <ele>219.31999999999999</ele>
        <time>2025-05-02T08:11:35Z</time>
      </trkpt>
      <trkpt lat="42.370737958699465" lon="-7.854064973071218">
        <ele>218.84</ele>
        <time>2025-05-02T08:11:36Z</time>
      </trkpt>
      <trkpt lat="42.37059697508812" lon="-7.854149965569377">
        <ele>218.36000000000001</ele>
        <time>2025-05-02T08:11:37Z</time>
      </trkpt>
      <trkpt lat="42.370439982041717" lon="-7.85419799387455">
        <ele>218.36000000000001</ele>
        <time>2025-05-02T08:11:38Z</time>
      </trkpt>
      <trkpt lat="42.370287012308836" lon="-7.854245016351342">
        <ele>217.88</ele>
        <time>2025-05-02T08:11:39Z</time>
      </trkpt>
      <trkpt lat="42.370136976242065" lon="-7.854280974715948">
        <ele>217.40000000000001</ele>
        <time>2025-05-02T08:11:40Z</time>
      </trkpt>
      <trkpt lat="42.369978977367282" lon="-7.854280974715948">
        <ele>216.91</ele>
        <time>2025-05-02T08:11:41Z</time>
      </trkpt>
      <trkpt lat="42.369819972664118" lon="-7.854280974715948">
        <ele>216.43000000000001</ele>
        <time>2025-05-02T08:11:42Z</time>
      </trkpt>
      <trkpt lat="42.36900600604713" lon="-7.854341994971037">
        <ele>214.03</ele>
        <time>2025-05-02T08:11:47Z</time>
      </trkpt>
      <trkpt lat="42.368841972202063" lon="-7.854399997740984">
        <ele>213.06999999999999</ele>
        <time>2025-05-02T08:11:48Z</time>
      </trkpt>
      <trkpt lat="42.368683973327279" lon="-7.854487001895905">
        <ele>212.11000000000001</ele>
        <time>2025-05-02T08:11:49Z</time>
      </trkpt>
      <trkpt lat="42.368531003594398" lon="-7.85458498634398">
        <ele>211.15000000000001</ele>
        <time>2025-05-02T08:11:50Z</time>
      </trkpt>
      <trkpt lat="42.36838499084115" lon="-7.854705015197396">
        <ele>210.19</ele>
        <time>2025-05-02T08:11:51Z</time>
      </trkpt>
      <trkpt lat="42.366754962131381" lon="-7.855892982333899">
        <ele>200.09</ele>
        <time>2025-05-02T08:12:02Z</time>
      </trkpt>
      <trkpt lat="42.365863965824246" lon="-7.856655986979604">
        <ele>194.31999999999999</ele>
        <time>2025-05-02T08:12:09Z</time>
      </trkpt>
      <trkpt lat="42.365762963891029" lon="-7.856789007782936">
        <ele>193.36000000000001</ele>
        <time>2025-05-02T08:12:10Z</time>
      </trkpt>
      <trkpt lat="42.365681994706392" lon="-7.856940971687436">
        <ele>192.88</ele>
        <time>2025-05-02T08:12:11Z</time>
      </trkpt>
      <trkpt lat="42.365608988329768" lon="-7.857111040502787">
        <ele>192.40000000000001</ele>
        <time>2025-05-02T08:12:12Z</time>
      </trkpt>
      <trkpt lat="42.365533970296383" lon="-7.857287982478738">
        <ele>192.40000000000001</ele>
        <time>2025-05-02T08:12:13Z</time>
      </trkpt>
      <trkpt lat="42.365491976961493" lon="-7.85748596303165">
        <ele>191.91999999999999</ele>
        <time>2025-05-02T08:12:14Z</time>
      </trkpt>
      <trkpt lat="42.365449983626604" lon="-7.857688972726464">
        <ele>191.44</ele>
        <time>2025-05-02T08:12:15Z</time>
      </trkpt>
      <trkpt lat="42.364932987838984" lon="-7.859210958704352">
        <ele>184.71000000000001</ele>
        <time>2025-05-02T08:12:23Z</time>
      </trkpt>
      <trkpt lat="42.364706005901098" lon="-7.859493009746075">
        <ele>183.75</ele>
        <time>2025-05-02T08:12:25Z</time>
      </trkpt>
      <trkpt lat="42.364593017846346" lon="-7.859623013064265">
        <ele>182.78999999999999</ele>
        <time>2025-05-02T08:12:26Z</time>
      </trkpt>
      <trkpt lat="42.364484975114465" lon="-7.859746981412172">
        <ele>182.31</ele>
        <time>2025-05-02T08:12:27Z</time>
      </trkpt>
      <trkpt lat="42.364368969574571" lon="-7.859835997223854">
        <ele>181.34999999999999</ele>
        <time>2025-05-02T08:12:28Z</time>
      </trkpt>
      <trkpt lat="42.364251958206296" lon="-7.859914032742381">
        <ele>180.87</ele>
        <time>2025-05-02T08:12:29Z</time>
      </trkpt>
      <trkpt lat="42.364136958494782" lon="-7.859989972785115">
        <ele>179.90000000000001</ele>
        <time>2025-05-02T08:12:30Z</time>
      </trkpt>
      <trkpt lat="42.363634966313839" lon="-7.860406972467899">
        <ele>177.02000000000001</ele>
        <time>2025-05-02T08:12:35Z</time>
      </trkpt>
      <trkpt lat="42.36355097964406" lon="-7.860490959137678">
        <ele>176.53999999999999</ele>
        <time>2025-05-02T08:12:36Z</time>
      </trkpt>
      <trkpt lat="42.363495994359255" lon="-7.860589027404785">
        <ele>176.06</ele>
        <time>2025-05-02T08:12:37Z</time>
      </trkpt>
      <trkpt lat="42.363480990752578" lon="-7.860719030722976">
        <ele>175.58000000000001</ele>
        <time>2025-05-02T08:12:38Z</time>
      </trkpt>
      <trkpt lat="42.363465987145901" lon="-7.860850961878896">
        <ele>175.58000000000001</ele>
        <time>2025-05-02T08:12:39Z</time>
      </trkpt>
      <trkpt lat="42.363450983539224" lon="-7.86098700016737">
        <ele>175.58000000000001</ele>
        <time>2025-05-02T08:12:40Z</time>
      </trkpt>
      <trkpt lat="42.363417958840728" lon="-7.861270979046822">
        <ele>175.09999999999999</ele>
        <time>2025-05-02T08:12:42Z</time>
      </trkpt>
      <trkpt lat="42.363376971334219" lon="-7.861407017335296">
        <ele>174.13999999999999</ele>
        <time>2025-05-02T08:12:43Z</time>
      </trkpt>
      <trkpt lat="42.363319974392653" lon="-7.861521011218429">
        <ele>173.16999999999999</ele>
        <time>2025-05-02T08:12:44Z</time>
      </trkpt>
      <trkpt lat="42.363239005208015" lon="-7.861602986231446">
        <ele>172.21000000000001</ele>
        <time>2025-05-02T08:12:45Z</time>
      </trkpt>
      <trkpt lat="42.363145966082811" lon="-7.861618995666504">
        <ele>171.25</ele>
        <time>2025-05-02T08:12:46Z</time>
      </trkpt>
      <trkpt lat="42.363050999119878" lon="-7.861618995666504">
        <ele>170.28999999999999</ele>
        <time>2025-05-02T08:12:47Z</time>
      </trkpt>
      <trkpt lat="42.362952008843422" lon="-7.861607009544969">
        <ele>169.33000000000001</ele>
        <time>2025-05-02T08:12:48Z</time>
      </trkpt>
      <trkpt lat="42.362885037437081" lon="-7.861507013440132">
        <ele>168.37</ele>
        <time>2025-05-02T08:12:49Z</time>
      </trkpt>
      <trkpt lat="42.36281999386847" lon="-7.86139503121376">
        <ele>167.41</ele>
        <time>2025-05-02T08:12:50Z</time>
      </trkpt>
      <trkpt lat="42.362770959734917" lon="-7.861251030117273">
        <ele>166.44999999999999</ele>
        <time>2025-05-02T08:12:51Z</time>
      </trkpt>
      <trkpt lat="42.362718991935253" lon="-7.861101999878883">
        <ele>165.47999999999999</ele>
        <time>2025-05-02T08:12:52Z</time>
      </trkpt>
      <trkpt lat="42.362664006650448" lon="-7.860941989347339">
        <ele>165</ele>
        <time>2025-05-02T08:12:53Z</time>
      </trkpt>
      <trkpt lat="42.36260399222374" lon="-7.860764963552356">
        <ele>164.03999999999999</ele>
        <time>2025-05-02T08:12:54Z</time>
      </trkpt>
      <trkpt lat="42.362546995282173" lon="-7.860593972727656">
        <ele>163.08000000000001</ele>
        <time>2025-05-02T08:12:55Z</time>
      </trkpt>
      <trkpt lat="42.361870994791389" lon="-7.858573012053967">
        <ele>156.34999999999999</ele>
        <time>2025-05-02T08:13:07Z</time>
      </trkpt>
      <trkpt lat="42.361798994243145" lon="-7.858305964618921">
        <ele>155.87</ele>
        <time>2025-05-02T08:13:09Z</time>
      </trkpt>
      <trkpt lat="42.361544016748667" lon="-7.858143020421267">
        <ele>155.38999999999999</ele>
        <time>2025-05-02T08:13:10Z</time>
      </trkpt>
      <trkpt lat="42.361504035070539" lon="-7.858074037358165">
        <ele>155.38999999999999</ele>
        <time>2025-05-02T08:13:12Z</time>
      </trkpt>
      <trkpt lat="42.361458018422127" lon="-7.857992984354496">
        <ele>155.38999999999999</ele>
        <time>2025-05-02T08:13:13Z</time>
      </trkpt>
      <trkpt lat="42.361475033685565" lon="-7.857841020449996">
        <ele>155.87</ele>
        <time>2025-05-02T08:13:14Z</time>
      </trkpt>
      <trkpt lat="42.361490037292242" lon="-7.857546983286738">
        <ele>155.87</ele>
        <time>2025-05-02T08:13:16Z</time>
      </trkpt>
      <trkpt lat="42.361442008987069" lon="-7.857416979968548">
        <ele>155.38999999999999</ele>
        <time>2025-05-02T08:13:17Z</time>
      </trkpt>
      <trkpt lat="42.361389035359025" lon="-7.85727197304368">
        <ele>154.91</ele>
        <time>2025-05-02T08:13:18Z</time>
      </trkpt>
      <trkpt lat="42.360814036801457" lon="-7.855515964329243">
        <ele>152.99000000000001</ele>
        <time>2025-05-02T08:13:28Z</time>
      </trkpt>
      <trkpt lat="42.360729966312647" lon="-7.853877972811461">
        <ele>152.50999999999999</ele>
        <time>2025-05-02T08:13:36Z</time>
      </trkpt>
      <trkpt lat="42.360796015709639" lon="-7.851388966664672">
        <ele>150.58000000000001</ele>
        <time>2025-05-02T08:13:48Z</time>
      </trkpt>
      <trkpt lat="42.360877990722656" lon="-7.849216964095831">
        <ele>148.18000000000001</ele>
        <time>2025-05-02T08:13:58Z</time>
      </trkpt>
      <trkpt lat="42.360943034291267" lon="-7.848809016868472">
        <ele>148.18000000000001</ele>
        <time>2025-05-02T08:14:00Z</time>
      </trkpt>
      <trkpt lat="42.360973041504622" lon="-7.848710026592016">
        <ele>148.18000000000001</ele>
        <time>2025-05-02T08:14:01Z</time>
      </trkpt>
      <trkpt lat="42.361022997647524" lon="-7.84854699857533">
        <ele>148.18000000000001</ele>
        <time>2025-05-02T08:14:02Z</time>
      </trkpt>
      <trkpt lat="42.361102038994431" lon="-7.848401991650462">
        <ele>148.18000000000001</ele>
        <time>2025-05-02T08:14:03Z</time>
      </trkpt>
      <trkpt lat="42.361184014007449" lon="-7.848257990553975">
        <ele>148.18000000000001</ele>
        <time>2025-05-02T08:14:04Z</time>
      </trkpt>
      <trkpt lat="42.361285015940666" lon="-7.848135028034449">
        <ele>147.69999999999999</ele>
        <time>2025-05-02T08:14:05Z</time>
      </trkpt>
      <trkpt lat="42.361372020095587" lon="-7.848036037757993">
        <ele>147.69999999999999</ele>
        <time>2025-05-02T08:14:06Z</time>
      </trkpt>
      <trkpt lat="42.361496994271874" lon="-7.847994966432452">
        <ele>147.22</ele>
        <time>2025-05-02T08:14:07Z</time>
      </trkpt>
      <trkpt lat="42.361606964841485" lon="-7.847987003624439">
        <ele>147.22</ele>
        <time>2025-05-02T08:14:08Z</time>
      </trkpt>
      <trkpt lat="42.361718025058508" lon="-7.847979040816426">
        <ele>147.22</ele>
        <time>2025-05-02T08:14:09Z</time>
      </trkpt>
      <trkpt lat="42.361822966486216" lon="-7.847972000017762">
        <ele>146.74000000000001</ele>
        <time>2025-05-02T08:14:10Z</time>
      </trkpt>
      <trkpt lat="42.361922040581703" lon="-7.84803201444447">
        <ele>146.74000000000001</ele>
        <time>2025-05-02T08:14:11Z</time>
      </trkpt>
      <trkpt lat="42.36202597618103" lon="-7.84809404052794">
        <ele>146.74000000000001</ele>
        <time>2025-05-02T08:14:12Z</time>
      </trkpt>
      <trkpt lat="42.362094037234783" lon="-7.848213985562325">
        <ele>146.74000000000001</ele>
        <time>2025-05-02T08:14:13Z</time>
      </trkpt>
      <trkpt lat="42.362161008641124" lon="-7.848349018022418">
        <ele>146.74000000000001</ele>
        <time>2025-05-02T08:14:14Z</time>
      </trkpt>
      <trkpt lat="42.362209036946297" lon="-7.848443984985352">
        <ele>147.22</ele>
        <time>2025-05-02T08:14:15Z</time>
      </trkpt>
      <trkpt lat="42.362225968390703" lon="-7.848622016608715">
        <ele>147.69999999999999</ele>
        <time>2025-05-02T08:14:16Z</time>
      </trkpt>
      <trkpt lat="42.362239966169" lon="-7.848771968856454">
        <ele>148.66</ele>
        <time>2025-05-02T08:14:17Z</time>
      </trkpt>
      <trkpt lat="42.362250024452806" lon="-7.848917981609702">
        <ele>149.13999999999999</ele>
        <time>2025-05-02T08:14:18Z</time>
      </trkpt>
      <trkpt lat="42.36223703250289" lon="-7.849082015454769">
        <ele>149.13999999999999</ele>
        <time>2025-05-02T08:14:19Z</time>
      </trkpt>
      <trkpt lat="42.362115997821093" lon="-7.849840996786952">
        <ele>149.13999999999999</ele>
        <time>2025-05-02T08:14:24Z</time>
      </trkpt>
      <trkpt lat="42.362083978950977" lon="-7.849949961528182">
        <ele>148.66</ele>
        <time>2025-05-02T08:14:25Z</time>
      </trkpt>
      <trkpt lat="42.362018013373017" lon="-7.850044006481767">
        <ele>148.18000000000001</ele>
        <time>2025-05-02T08:14:26Z</time>
      </trkpt>
      <trkpt lat="42.361956993117929" lon="-7.850132016465068">
        <ele>147.69999999999999</ele>
        <time>2025-05-02T08:14:27Z</time>
      </trkpt>
      <trkpt lat="42.361881975084543" lon="-7.850144002586603">
        <ele>146.74000000000001</ele>
        <time>2025-05-02T08:14:28Z</time>
      </trkpt>
      <trkpt lat="42.361797988414764" lon="-7.850150037556887">
        <ele>146.25999999999999</ele>
        <time>2025-05-02T08:14:29Z</time>
      </trkpt>
      <trkpt lat="42.361712995916605" lon="-7.850155988708139">
        <ele>145.78</ele>
        <time>2025-05-02T08:14:30Z</time>
      </trkpt>
      <trkpt lat="42.361636972054839" lon="-7.850144002586603">
        <ele>144.81999999999999</ele>
        <time>2025-05-02T08:14:31Z</time>
      </trkpt>
      <trkpt lat="42.361570000648499" lon="-7.850064039230347">
        <ele>144.34</ele>
        <time>2025-05-02T08:14:32Z</time>
      </trkpt>
      <trkpt lat="42.361496994271874" lon="-7.849976029247046">
        <ele>143.37</ele>
        <time>2025-05-02T08:14:33Z</time>
      </trkpt>
      <trkpt lat="42.361425999552011" lon="-7.849877960979939">
        <ele>142.88999999999999</ele>
        <time>2025-05-02T08:14:34Z</time>
      </trkpt>
      <trkpt lat="42.361372020095587" lon="-7.849748963490129">
        <ele>142.41</ele>
        <time>2025-05-02T08:14:35Z</time>
      </trkpt>
      <trkpt lat="42.36131502315402" lon="-7.849614014849067">
        <ele>142.41</ele>
        <time>2025-05-02T08:14:36Z</time>
      </trkpt>
      <trkpt lat="42.361196000128984" lon="-7.849329030141234">
        <ele>141.93000000000001</ele>
        <time>2025-05-02T08:14:38Z</time>
      </trkpt>
      <trkpt lat="42.361128022894263" lon="-7.849195003509522">
        <ele>141.44999999999999</ele>
        <time>2025-05-02T08:14:39Z</time>
      </trkpt>
      <trkpt lat="42.361043030396104" lon="-7.849072040989995">
        <ele>141.44999999999999</ele>
        <time>2025-05-02T08:14:40Z</time>
      </trkpt>
      <trkpt lat="42.360000992193818" lon="-7.848194958642125">
        <ele>140.97</ele>
        <time>2025-05-02T08:14:49Z</time>
      </trkpt>
      <trkpt lat="42.35882299952209" lon="-7.847571009770036">
        <ele>140.97</ele>
        <time>2025-05-02T08:14:57Z</time>
      </trkpt>
      <trkpt lat="42.358646979555488" lon="-7.847549971193075">
        <ele>141.44999999999999</ele>
        <time>2025-05-02T08:14:58Z</time>
      </trkpt>
      <trkpt lat="42.358470959588885" lon="-7.847529016435146">
        <ele>141.44999999999999</ele>
        <time>2025-05-02T08:14:59Z</time>
      </trkpt>
      <trkpt lat="42.358292005956173" lon="-7.847532033920288">
        <ele>141.44999999999999</ele>
        <time>2025-05-02T08:15:00Z</time>
      </trkpt>
      <trkpt lat="42.358112968504429" lon="-7.847568998113275">
        <ele>141.44999999999999</ele>
        <time>2025-05-02T08:15:01Z</time>
      </trkpt>
      <trkpt lat="42.357939966022968" lon="-7.847640998661518">
        <ele>141.44999999999999</ele>
        <time>2025-05-02T08:15:02Z</time>
      </trkpt>
      <trkpt lat="42.357766963541508" lon="-7.847712999209762">
        <ele>141.44999999999999</ele>
        <time>2025-05-02T08:15:03Z</time>
      </trkpt>
      <trkpt lat="42.357601001858711" lon="-7.847794974222779">
        <ele>141.44999999999999</ele>
        <time>2025-05-02T08:15:04Z</time>
      </trkpt>
      <trkpt lat="42.357440991327167" lon="-7.847896981984377">
        <ele>141.44999999999999</ele>
        <time>2025-05-02T08:15:05Z</time>
      </trkpt>
      <trkpt lat="42.357295984402299" lon="-7.848030002787709">
        <ele>141.44999999999999</ele>
        <time>2025-05-02T08:15:06Z</time>
      </trkpt>
      <trkpt lat="42.357150977477431" lon="-7.848167968913913">
        <ele>140.97</ele>
        <time>2025-05-02T08:15:07Z</time>
      </trkpt>
      <trkpt lat="42.357008988037705" lon="-7.848304007202387">
        <ele>140.49000000000001</ele>
        <time>2025-05-02T08:15:08Z</time>
      </trkpt>
      <trkpt lat="42.356075998395681" lon="-7.84942701458931">
        <ele>137.61000000000001</ele>
        <time>2025-05-02T08:15:15Z</time>
      </trkpt>
      <trkpt lat="42.355782967060804" lon="-7.849674029275775">
        <ele>136.63999999999999</ele>
        <time>2025-05-02T08:15:17Z</time>
      </trkpt>
      <trkpt lat="42.355629997327924" lon="-7.849768996238709">
        <ele>136.63999999999999</ele>
        <time>2025-05-02T08:15:18Z</time>
      </trkpt>
      <trkpt lat="42.354099964722991" lon="-7.850410966202617">
        <ele>131.84</ele>
        <time>2025-05-02T08:15:27Z</time>
      </trkpt>
      <trkpt lat="42.351993005722761" lon="-7.851421991363168">
        <ele>125.11</ele>
        <time>2025-05-02T08:15:39Z</time>
      </trkpt>
      <trkpt lat="42.350691966712475" lon="-7.852621022611857">
        <ele>117.90000000000001</ele>
        <time>2025-05-02T08:15:47Z</time>
      </trkpt>
      <trkpt lat="42.349919993430376" lon="-7.853950979188085">
        <ele>114.05</ele>
        <time>2025-05-02T08:15:53Z</time>
      </trkpt>
      <trkpt lat="42.3498410359025" lon="-7.854196988046169">
        <ele>113.56999999999999</ele>
        <time>2025-05-02T08:15:54Z</time>
      </trkpt>
      <trkpt lat="42.349700974300504" lon="-7.854705015197396">
        <ele>113.09</ele>
        <time>2025-05-02T08:15:56Z</time>
      </trkpt>
      <trkpt lat="42.349210968241096" lon="-7.856815997511149">
        <ele>110.69</ele>
        <time>2025-05-02T08:16:05Z</time>
      </trkpt>
      <trkpt lat="42.348683997988701" lon="-7.858659010380507">
        <ele>109.73</ele>
        <time>2025-05-02T08:16:14Z</time>
      </trkpt>
      <trkpt lat="42.348027024418116" lon="-7.860324997454882">
        <ele>108.77</ele>
        <time>2025-05-02T08:16:23Z</time>
      </trkpt>
      <trkpt lat="42.347766011953354" lon="-7.86090200766921">
        <ele>108.29000000000001</ele>
        <time>2025-05-02T08:16:28Z</time>
      </trkpt>
      <trkpt lat="42.347739022225142" lon="-7.860961016267538">
        <ele>107.81</ele>
        <time>2025-05-02T08:16:29Z</time>
      </trkpt>
      <trkpt lat="42.34771597199142" lon="-7.86100996658206">
        <ele>107.81</ele>
        <time>2025-05-02T08:16:30Z</time>
      </trkpt>
      <trkpt lat="42.34769401140511" lon="-7.861057994887233">
        <ele>107.81</ele>
        <time>2025-05-02T08:16:31Z</time>
      </trkpt>
      <trkpt lat="42.347682025283575" lon="-7.861082972958684">
        <ele>107.81</ele>
        <time>2025-05-02T08:16:32Z</time>
      </trkpt>
      <trkpt lat="42.34773701056838" lon="-7.861279025673866">
        <ele>107.81</ele>
        <time>2025-05-02T08:16:34Z</time>
      </trkpt>
      <trkpt lat="42.347674984484911" lon="-7.861380027607083">
        <ele>107.81</ele>
        <time>2025-05-02T08:16:35Z</time>
      </trkpt>
      <trkpt lat="42.347637014463544" lon="-7.861411040648818">
        <ele>107.81</ele>
        <time>2025-05-02T08:16:36Z</time>
      </trkpt>
      <trkpt lat="42.347553027793765" lon="-7.861410034820437">
        <ele>107.81</ele>
        <time>2025-05-02T08:16:37Z</time>
      </trkpt>
      <trkpt lat="42.347531989216805" lon="-7.861405005678535">
        <ele>107.31999999999999</ele>
        <time>2025-05-02T08:16:38Z</time>
      </trkpt>
      <trkpt lat="42.347483038902283" lon="-7.861275002360344">
        <ele>107.31999999999999</ele>
        <time>2025-05-02T08:16:39Z</time>
      </trkpt>
      <trkpt lat="42.347413972020149" lon="-7.86120199598372">
        <ele>107.31999999999999</ele>
        <time>2025-05-02T08:16:40Z</time>
      </trkpt>
      <trkpt lat="42.34734901227057" lon="-7.861165031790733">
        <ele>107.31999999999999</ele>
        <time>2025-05-02T08:16:41Z</time>
      </trkpt>
      <trkpt lat="42.347276005893946" lon="-7.861161008477211">
        <ele>107.31999999999999</ele>
        <time>2025-05-02T08:16:42Z</time>
      </trkpt>
      <trkpt lat="42.347215991467237" lon="-7.861181041225791">
        <ele>107.81</ele>
        <time>2025-05-02T08:16:43Z</time>
      </trkpt>
      <trkpt lat="42.347168968990445" lon="-7.86122303456068">
        <ele>107.81</ele>
        <time>2025-05-02T08:16:44Z</time>
      </trkpt>
      <trkpt lat="42.347136028110981" lon="-7.861280031502247">
        <ele>108.29000000000001</ele>
        <time>2025-05-02T08:16:45Z</time>
      </trkpt>
      <trkpt lat="42.347106020897627" lon="-7.86133199930191">
        <ele>108.77</ele>
        <time>2025-05-02T08:16:46Z</time>
      </trkpt>
      <trkpt lat="42.347077019512653" lon="-7.861381033435464">
        <ele>108.77</ele>
        <time>2025-05-02T08:16:47Z</time>
      </trkpt>
      <trkpt lat="42.346978029236197" lon="-7.86139402538538">
        <ele>109.25</ele>
        <time>2025-05-02T08:16:48Z</time>
      </trkpt>
      <trkpt lat="42.346935030072927" lon="-7.861355971544981">
        <ele>109.25</ele>
        <time>2025-05-02T08:16:49Z</time>
      </trkpt>
      <trkpt lat="42.346891025081277" lon="-7.861316995695233">
        <ele>109.25</ele>
        <time>2025-05-02T08:16:50Z</time>
      </trkpt>
      <trkpt lat="42.346848025918007" lon="-7.861279025673866">
        <ele>109.73</ele>
        <time>2025-05-02T08:16:51Z</time>
      </trkpt>
      <trkpt lat="42.346753980964422" lon="-7.861195039004087">
        <ele>109.25</ele>
        <time>2025-05-02T08:16:53Z</time>
      </trkpt>
      <trkpt lat="42.346585001796484" lon="-7.861039973795414">
        <ele>109.25</ele>
        <time>2025-05-02T08:16:56Z</time>
      </trkpt>
      <trkpt lat="42.346522975713015" lon="-7.86105003207922">
        <ele>109.73</ele>
        <time>2025-05-02T08:16:57Z</time>
      </trkpt>
      <trkpt lat="42.346461033448577" lon="-7.861061012372375">
        <ele>109.73</ele>
        <time>2025-05-02T08:16:58Z</time>
      </trkpt>
      <trkpt lat="42.346419040113688" lon="-7.861109962686896">
        <ele>109.73</ele>
        <time>2025-05-02T08:16:59Z</time>
      </trkpt>
      <trkpt lat="42.34638299793005" lon="-7.861153967678547">
        <ele>109.25</ele>
        <time>2025-05-02T08:17:00Z</time>
      </trkpt>
      <trkpt lat="42.346344022080302" lon="-7.861200990155339">
        <ele>109.73</ele>
        <time>2025-05-02T08:17:01Z</time>
      </trkpt>
      <trkpt lat="42.346265986561775" lon="-7.861296962946653">
        <ele>109.73</ele>
        <time>2025-05-02T08:17:02Z</time>
      </trkpt>
      <trkpt lat="42.346217036247253" lon="-7.86131096072495">
        <ele>109.73</ele>
        <time>2025-05-02T08:17:03Z</time>
      </trkpt>
      <trkpt lat="42.346151992678642" lon="-7.861329987645149">
        <ele>109.73</ele>
        <time>2025-05-02T08:17:04Z</time>
      </trkpt>
      <trkpt lat="42.346051996573806" lon="-7.861281959339976">
        <ele>109.25</ele>
        <time>2025-05-02T08:17:05Z</time>
      </trkpt>
      <trkpt lat="42.345994999632239" lon="-7.861228985711932">
        <ele>109.25</ele>
        <time>2025-05-02T08:17:06Z</time>
      </trkpt>
      <trkpt lat="42.345931967720389" lon="-7.861171988770366">
        <ele>109.25</ele>
        <time>2025-05-02T08:17:07Z</time>
      </trkpt>
      <trkpt lat="42.345868013799191" lon="-7.861112980172038">
        <ele>109.25</ele>
        <time>2025-05-02T08:17:08Z</time>
      </trkpt>
      <trkpt lat="42.345802970230579" lon="-7.86105296574533">
        <ele>109.25</ele>
        <time>2025-05-02T08:17:09Z</time>
      </trkpt>
      <trkpt lat="42.345735998824239" lon="-7.860991023480892">
        <ele>109.73</ele>
        <time>2025-05-02T08:17:10Z</time>
      </trkpt>
      <trkpt lat="42.345417989417911" lon="-7.860727999359369">
        <ele>109.25</ele>
        <time>2025-05-02T08:17:15Z</time>
      </trkpt>
      <trkpt lat="42.345370966941118" lon="-7.860693968832493">
        <ele>109.73</ele>
        <time>2025-05-02T08:17:16Z</time>
      </trkpt>
      <trkpt lat="42.345331991091371" lon="-7.8606659732759">
        <ele>109.73</ele>
        <time>2025-05-02T08:17:17Z</time>
      </trkpt>
      <trkpt lat="42.345298966392875" lon="-7.860640995204449">
        <ele>109.73</ele>
        <time>2025-05-02T08:17:18Z</time>
      </trkpt>
      <trkpt lat="42.34513602219522" lon="-7.860701009631157">
        <ele>110.20999999999999</ele>
        <time>2025-05-02T08:17:19Z</time>
      </trkpt>
      <trkpt lat="42.345125963911414" lon="-7.860749959945679">
        <ele>110.69</ele>
        <time>2025-05-02T08:17:20Z</time>
      </trkpt>
      <trkpt lat="42.345114983618259" lon="-7.860797988250852">
        <ele>111.17</ele>
        <time>2025-05-02T08:17:21Z</time>
      </trkpt>
      <trkpt lat="42.345055975019932" lon="-7.861046008765698">
        <ele>118.86</ele>
        <time>2025-05-02T08:17:30Z</time>
      </trkpt>
      <trkpt lat="42.345128981396556" lon="-7.861415985971689">
        <ele>121.73999999999999</ele>
        <time>2025-05-02T08:17:37Z</time>
      </trkpt>
      <trkpt lat="42.345128981396556" lon="-7.861492009833455">
        <ele>121.73999999999999</ele>
        <time>2025-05-02T08:17:38Z</time>
      </trkpt>
      <trkpt lat="42.345048012211919" lon="-7.861575996503234">
        <ele>122.70999999999999</ele>
        <time>2025-05-02T08:17:39Z</time>
      </trkpt>
      <trkpt lat="42.345021022483706" lon="-7.861598040908575">
        <ele>123.19</ele>
        <time>2025-05-02T08:17:40Z</time>
      </trkpt>
      <trkpt lat="42.345021022483706" lon="-7.861598040908575">
        <ele>122.70999999999999</ele>
        <time>2025-05-02T08:17:41Z</time>
      </trkpt>
      <trkpt lat="42.344838967546821" lon="-7.861555963754654">
        <ele>122.70999999999999</ele>
        <time>2025-05-02T08:17:42Z</time>
      </trkpt>
      <trkpt lat="42.344789011403918" lon="-7.861591000109911">
        <ele>122.70999999999999</ele>
        <time>2025-05-02T08:17:43Z</time>
      </trkpt>
      <trkpt lat="42.344652973115444" lon="-7.861686972901225">
        <ele>122.70999999999999</ele>
        <time>2025-05-02T08:17:46Z</time>
      </trkpt>
      <trkpt lat="42.344616008922458" lon="-7.861713962629437">
        <ele>122.70999999999999</ele>
        <time>2025-05-02T08:17:47Z</time>
      </trkpt>
      <trkpt lat="42.344498997554183" lon="-7.861798033118248">
        <ele>122.22</ele>
        <time>2025-05-02T08:17:50Z</time>
      </trkpt>
      <trkpt lat="42.344464967027307" lon="-7.861831979826093">
        <ele>122.22</ele>
        <time>2025-05-02T08:17:51Z</time>
      </trkpt>
      <trkpt lat="42.344435965642333" lon="-7.861860981211066">
        <ele>122.22</ele>
        <time>2025-05-02T08:17:52Z</time>
      </trkpt>
      <trkpt lat="42.34440503641963" lon="-7.861891994252801">
        <ele>122.70999999999999</ele>
        <time>2025-05-02T08:17:53Z</time>
      </trkpt>
      <trkpt lat="42.344370000064373" lon="-7.861927030608058">
        <ele>122.22</ele>
        <time>2025-05-02T08:17:54Z</time>
      </trkpt>
      <trkpt lat="42.344284001737833" lon="-7.862013028934598">
        <ele>121.73999999999999</ele>
        <time>2025-05-02T08:17:56Z</time>
      </trkpt>
      <trkpt lat="42.344095995649695" lon="-7.862314023077488">
        <ele>120.3</ele>
        <time>2025-05-02T08:18:01Z</time>
      </trkpt>
      <trkpt lat="42.34412600286305" lon="-7.862369008362293">
        <ele>119.81999999999999</ele>
        <time>2025-05-02T08:18:02Z</time>
      </trkpt>
      <trkpt lat="42.344155004248023" lon="-7.862420976161957">
        <ele>119.34</ele>
        <time>2025-05-02T08:18:03Z</time>
      </trkpt>
      <trkpt lat="42.344181993976235" lon="-7.86247001029551">
        <ele>118.86</ele>
        <time>2025-05-02T08:18:04Z</time>
      </trkpt>
      <trkpt lat="42.344204038381577" lon="-7.862509991973639">
        <ele>118.38</ele>
        <time>2025-05-02T08:18:05Z</time>
      </trkpt>
      <trkpt lat="42.344399001449347" lon="-7.862863959744573">
        <ele>115.5</ele>
        <time>2025-05-02T08:18:13Z</time>
      </trkpt>
      <trkpt lat="42.344405958428979" lon="-7.862878041341901">
        <ele>114.53</ele>
        <time>2025-05-02T08:18:14Z</time>
      </trkpt>
      <trkpt lat="42.344464967027307" lon="-7.862995974719524">
        <ele>113.56999999999999</ele>
        <time>2025-05-02T08:18:16Z</time>
      </trkpt>
      <trkpt lat="42.344495980069041" lon="-7.863056994974613">
        <ele>113.56999999999999</ele>
        <time>2025-05-02T08:18:17Z</time>
      </trkpt>
      <trkpt lat="42.34455700032413" lon="-7.863180041313171">
        <ele>112.61</ele>
        <time>2025-05-02T08:18:19Z</time>
      </trkpt>
      <trkpt lat="42.344592036679387" lon="-7.863250030204654">
        <ele>112.13</ele>
        <time>2025-05-02T08:18:20Z</time>
      </trkpt>
      <trkpt lat="42.344594970345497" lon="-7.863290011882782">
        <ele>112.13</ele>
        <time>2025-05-02T08:18:21Z</time>
      </trkpt>
      <trkpt lat="42.344603016972542" lon="-7.863383973017335">
        <ele>112.61</ele>
        <time>2025-05-02T08:18:22Z</time>
      </trkpt>
      <trkpt lat="42.344613997265697" lon="-7.863507019355893">
        <ele>112.61</ele>
        <time>2025-05-02T08:18:23Z</time>
      </trkpt>
      <trkpt lat="42.344598993659019" lon="-7.863539960235357">
        <ele>113.09</ele>
        <time>2025-05-02T08:18:24Z</time>
      </trkpt>
      <trkpt lat="42.344572003930807" lon="-7.863601986318827">
        <ele>113.09</ele>
        <time>2025-05-02T08:18:25Z</time>
      </trkpt>
      <trkpt lat="42.344527998939157" lon="-7.863699970766902">
        <ele>113.09</ele>
        <time>2025-05-02T08:18:26Z</time>
      </trkpt>
      <trkpt lat="42.344501009210944" lon="-7.86373601295054">
        <ele>113.09</ele>
        <time>2025-05-02T08:18:27Z</time>
      </trkpt>
      <trkpt lat="42.344323983415961" lon="-7.863970035687089">
        <ele>114.05</ele>
        <time>2025-05-02T08:18:32Z</time>
      </trkpt>
      <trkpt lat="42.344290036708117" lon="-7.86401404067874">
        <ele>115.01000000000001</ele>
        <time>2025-05-02T08:18:33Z</time>
      </trkpt>
      <trkpt lat="42.344147963449359" lon="-7.864201962947846">
        <ele>113.56999999999999</ele>
        <time>2025-05-02T08:18:39Z</time>
      </trkpt>
      <trkpt lat="42.344136983156204" lon="-7.864216966554523">
        <ele>113.09</ele>
        <time>2025-05-02T08:18:53Z</time>
      </trkpt>
      <trkpt lat="42.343988036736846" lon="-7.864414025098085">
        <ele>115.98</ele>
        <time>2025-05-02T08:19:02Z</time>
      </trkpt>
      <trkpt lat="42.343915030360222" lon="-7.864527013152838">
        <ele>116.94</ele>
        <time>2025-05-02T08:19:05Z</time>
      </trkpt>
      <trkpt lat="42.343893991783261" lon="-7.864587027579546">
        <ele>116.45999999999999</ele>
        <time>2025-05-02T08:19:06Z</time>
      </trkpt>
      <trkpt lat="42.343811010941863" lon="-7.865092037245631">
        <ele>121.26000000000001</ele>
        <time>2025-05-02T08:19:14Z</time>
      </trkpt>
      <trkpt lat="42.343806987628341" lon="-7.865225980058312">
        <ele>122.70999999999999</ele>
        <time>2025-05-02T08:19:16Z</time>
      </trkpt>
      <trkpt lat="42.34380497597158" lon="-7.865293035283685">
        <ele>123.19</ele>
        <time>2025-05-02T08:19:17Z</time>
      </trkpt>
      <trkpt lat="42.343802964314818" lon="-7.865359000861645">
        <ele>123.67</ele>
        <time>2025-05-02T08:19:18Z</time>
      </trkpt>
      <trkpt lat="42.343801036477089" lon="-7.865424966439605">
        <ele>124.15000000000001</ele>
        <time>2025-05-02T08:19:19Z</time>
      </trkpt>
      <trkpt lat="42.343799024820328" lon="-7.865493027493358">
        <ele>124.15000000000001</ele>
        <time>2025-05-02T08:19:20Z</time>
      </trkpt>
      <trkpt lat="42.34378200955689" lon="-7.865555975586176">
        <ele>124.15000000000001</ele>
        <time>2025-05-02T08:19:21Z</time>
      </trkpt>
      <trkpt lat="42.343763988465071" lon="-7.865611966699362">
        <ele>124.15000000000001</ele>
        <time>2025-05-02T08:19:22Z</time>
      </trkpt>
      <trkpt lat="42.343630967661738" lon="-7.86603600718081">
        <ele>125.11</ele>
        <time>2025-05-02T08:19:29Z</time>
      </trkpt>
      <trkpt lat="42.34361101873219" lon="-7.866099961102009">
        <ele>125.59</ele>
        <time>2025-05-02T08:19:30Z</time>
      </trkpt>
      <trkpt lat="42.343551004305482" lon="-7.866291990503669">
        <ele>127.03</ele>
        <time>2025-05-02T08:19:33Z</time>
      </trkpt>
      <trkpt lat="42.343528959900141" lon="-7.866360973566771">
        <ele>127.03</ele>
        <time>2025-05-02T08:19:34Z</time>
      </trkpt>
      <trkpt lat="42.343442961573601" lon="-7.866633972153068">
        <ele>126.55</ele>
        <time>2025-05-02T08:19:38Z</time>
      </trkpt>
      <trkpt lat="42.343356963247061" lon="-7.866904959082604">
        <ele>128.94999999999999</ele>
        <time>2025-05-02T08:19:42Z</time>
      </trkpt>
      <trkpt lat="42.343337014317513" lon="-7.866970002651215">
        <ele>128.94999999999999</ele>
        <time>2025-05-02T08:19:43Z</time>
      </trkpt>
      <trkpt lat="42.343318993225694" lon="-7.867025993764401">
        <ele>129.43000000000001</ele>
        <time>2025-05-02T08:19:44Z</time>
      </trkpt>
      <trkpt lat="42.343301977962255" lon="-7.867081984877586">
        <ele>129.43000000000001</ele>
        <time>2025-05-02T08:19:45Z</time>
      </trkpt>
      <trkpt lat="42.343284040689468" lon="-7.867135964334011">
        <ele>129.43000000000001</ele>
        <time>2025-05-02T08:19:46Z</time>
      </trkpt>
      <trkpt lat="42.343212962150574" lon="-7.867362024262548">
        <ele>129.91999999999999</ele>
        <time>2025-05-02T08:19:50Z</time>
      </trkpt>
      <trkpt lat="42.343142973259091" lon="-7.867521028965712">
        <ele>129.43000000000001</ele>
        <time>2025-05-02T08:19:53Z</time>
      </trkpt>
      <trkpt lat="42.343041971325874" lon="-7.86779897287488">
        <ele>127.51000000000001</ele>
        <time>2025-05-02T08:19:58Z</time>
      </trkpt>
      <trkpt lat="42.343023028224707" lon="-7.867852030321956">
        <ele>127.03</ele>
        <time>2025-05-02T08:19:59Z</time>
      </trkpt>
      <trkpt lat="42.343004001304507" lon="-7.86790600977838">
        <ele>126.55</ele>
        <time>2025-05-02T08:20:00Z</time>
      </trkpt>
      <trkpt lat="42.34298799186945" lon="-7.86794800311327">
        <ele>126.06999999999999</ele>
        <time>2025-05-02T08:20:01Z</time>
      </trkpt>
      <trkpt lat="42.343037026003003" lon="-7.867996031418443">
        <ele>125.11</ele>
        <time>2025-05-02T08:20:02Z</time>
      </trkpt>
      <trkpt lat="42.343055969104171" lon="-7.868047999218106">
        <ele>124.63</ele>
        <time>2025-05-02T08:20:03Z</time>
      </trkpt>
      <trkpt lat="42.343076001852751" lon="-7.868101978674531">
        <ele>124.15000000000001</ele>
        <time>2025-05-02T08:20:04Z</time>
      </trkpt>
      <trkpt lat="42.34309796243906" lon="-7.868147995322943">
        <ele>123.67</ele>
        <time>2025-05-02T08:20:05Z</time>
      </trkpt>
      <trkpt lat="42.34313702210784" lon="-7.868174985051155">
        <ele>123.19</ele>
        <time>2025-05-02T08:20:06Z</time>
      </trkpt>
      <trkpt lat="42.343173986300826" lon="-7.868201974779367">
        <ele>122.70999999999999</ele>
        <time>2025-05-02T08:20:07Z</time>
      </trkpt>
      <trkpt lat="42.343209022656083" lon="-7.86822703666985">
        <ele>122.22</ele>
        <time>2025-05-02T08:20:08Z</time>
      </trkpt>
      <trkpt lat="42.343278005719185" lon="-7.868286967277527">
        <ele>120.78</ele>
        <time>2025-05-02T08:20:10Z</time>
      </trkpt>
      <trkpt lat="42.343382025137544" lon="-7.868641018867493">
        <ele>117.90000000000001</ele>
        <time>2025-05-02T08:20:18Z</time>
      </trkpt>
      <trkpt lat="42.343389987945557" lon="-7.86872198805213">
        <ele>117.42</ele>
        <time>2025-05-02T08:20:19Z</time>
      </trkpt>
      <trkpt lat="42.343370961025357" lon="-7.869133036583662">
        <ele>116.45999999999999</ele>
        <time>2025-05-02T08:20:24Z</time>
      </trkpt>
      <trkpt lat="42.343368027359247" lon="-7.869214005768299">
        <ele>116.45999999999999</ele>
        <time>2025-05-02T08:20:25Z</time>
      </trkpt>
      <trkpt lat="42.343366015702486" lon="-7.869277959689498">
        <ele>116.45999999999999</ele>
        <time>2025-05-02T08:20:26Z</time>
      </trkpt>
      <trkpt lat="42.343354029580951" lon="-7.869629999622703">
        <ele>116.45999999999999</ele>
        <time>2025-05-02T08:20:36Z</time>
      </trkpt>
      <trkpt lat="42.343347994610667" lon="-7.86983703263104">
        <ele>115.98</ele>
        <time>2025-05-02T08:20:51Z</time>
      </trkpt>
      <trkpt lat="42.343284962698817" lon="-7.870387975126505">
        <ele>113.56999999999999</ele>
        <time>2025-05-02T08:21:00Z</time>
      </trkpt>
      <trkpt lat="42.343271970748901" lon="-7.870446983724833">
        <ele>113.09</ele>
        <time>2025-05-02T08:21:01Z</time>
      </trkpt>
      <trkpt lat="42.343231989070773" lon="-7.870632978156209">
        <ele>111.65000000000001</ele>
        <time>2025-05-02T08:21:04Z</time>
      </trkpt>
      <trkpt lat="42.343218997120857" lon="-7.870689975097776">
        <ele>111.17</ele>
        <time>2025-05-02T08:21:05Z</time>
      </trkpt>
      <trkpt lat="42.343192007392645" lon="-7.870816960930824">
        <ele>109.73</ele>
        <time>2025-05-02T08:21:07Z</time>
      </trkpt>
      <trkpt lat="42.34315998852253" lon="-7.870971020311117">
        <ele>108.29000000000001</ele>
        <time>2025-05-02T08:21:09Z</time>
      </trkpt>
      <trkpt lat="42.343154037371278" lon="-7.871065987274051">
        <ele>108.29000000000001</ele>
        <time>2025-05-02T08:21:10Z</time>
      </trkpt>
      <trkpt lat="42.343154037371278" lon="-7.871138993650675">
        <ele>108.77</ele>
        <time>2025-05-02T08:21:11Z</time>
      </trkpt>
      <trkpt lat="42.343172980472445" lon="-7.871378967538476">
        <ele>109.25</ele>
        <time>2025-05-02T08:21:14Z</time>
      </trkpt>
      <trkpt lat="42.343188989907503" lon="-7.871446022763848">
        <ele>109.25</ele>
        <time>2025-05-02T08:21:15Z</time>
      </trkpt>
      <trkpt lat="42.3432029876858" lon="-7.871507965028286">
        <ele>109.73</ele>
        <time>2025-05-02T08:21:16Z</time>
      </trkpt>
      <trkpt lat="42.343271970748901" lon="-7.871808959171176">
        <ele>111.65000000000001</ele>
        <time>2025-05-02T08:21:21Z</time>
      </trkpt>
      <trkpt lat="42.34328898601234" lon="-7.871884983032942">
        <ele>111.65000000000001</ele>
        <time>2025-05-02T08:21:22Z</time>
      </trkpt>
      <trkpt lat="42.343307007104158" lon="-7.871962012723088">
        <ele>111.17</ele>
        <time>2025-05-02T08:21:23Z</time>
      </trkpt>
      <trkpt lat="42.343325028195977" lon="-7.872040970250964">
        <ele>111.17</ele>
        <time>2025-05-02T08:21:24Z</time>
      </trkpt>
      <trkpt lat="42.343498030677438" lon="-7.87205102853477">
        <ele>111.17</ele>
        <time>2025-05-02T08:21:25Z</time>
      </trkpt>
      <trkpt lat="42.343512028455734" lon="-7.872120011597872">
        <ele>111.65000000000001</ele>
        <time>2025-05-02T08:21:26Z</time>
      </trkpt>
      <trkpt lat="42.34352401457727" lon="-7.87218002602458">
        <ele>111.65000000000001</ele>
        <time>2025-05-02T08:21:27Z</time>
      </trkpt>
      <trkpt lat="42.343498030677438" lon="-7.872326038777828">
        <ele>111.65000000000001</ele>
        <time>2025-05-02T08:21:28Z</time>
      </trkpt>
      <trkpt lat="42.34341798350215" lon="-7.872357973828912">
        <ele>111.65000000000001</ele>
        <time>2025-05-02T08:21:29Z</time>
      </trkpt>
      <trkpt lat="42.343389987945557" lon="-7.872369037941098">
        <ele>111.65000000000001</ele>
        <time>2025-05-02T08:21:30Z</time>
      </trkpt>
      <trkpt lat="42.343326034024358" lon="-7.872305000200868">
        <ele>111.65000000000001</ele>
        <time>2025-05-02T08:21:31Z</time>
      </trkpt>
      <trkpt lat="42.343326034024358" lon="-7.872305000200868">
        <ele>111.17</ele>
        <time>2025-05-02T08:21:32Z</time>
      </trkpt>
      <trkpt lat="42.343304995447397" lon="-7.872240962460637">
        <ele>111.17</ele>
        <time>2025-05-02T08:21:33Z</time>
      </trkpt>
      <trkpt lat="42.343290997669101" lon="-7.872172985225916">
        <ele>110.69</ele>
        <time>2025-05-02T08:21:34Z</time>
      </trkpt>
      <trkpt lat="42.343283034861088" lon="-7.872133003547788">
        <ele>110.69</ele>
        <time>2025-05-02T08:21:35Z</time>
      </trkpt>
      <trkpt lat="42.343274988234043" lon="-7.872085981070995">
        <ele>110.20999999999999</ele>
        <time>2025-05-02T08:21:36Z</time>
      </trkpt>
      <trkpt lat="42.343197036534548" lon="-7.871919013559818">
        <ele>110.20999999999999</ele>
        <time>2025-05-02T08:21:38Z</time>
      </trkpt>
      <trkpt lat="42.343196030706167" lon="-7.871912978589535">
        <ele>110.20999999999999</ele>
        <time>2025-05-02T08:21:39Z</time>
      </trkpt>
      <trkpt lat="42.3431839607656" lon="-7.871872996911407">
        <ele>110.20999999999999</ele>
        <time>2025-05-02T08:21:40Z</time>
      </trkpt>
      <trkpt lat="42.343173986300826" lon="-7.87183896638453">
        <ele>110.20999999999999</ele>
        <time>2025-05-02T08:21:41Z</time>
      </trkpt>
      <trkpt lat="42.343163006007671" lon="-7.871803008019924">
        <ele>110.20999999999999</ele>
        <time>2025-05-02T08:21:42Z</time>
      </trkpt>
      <trkpt lat="42.343156971037388" lon="-7.871780041605234">
        <ele>110.20999999999999</ele>
        <time>2025-05-02T08:21:43Z</time>
      </trkpt>
      <trkpt lat="42.343156971037388" lon="-7.871780041605234">
        <ele>109.73</ele>
        <time>2025-05-02T08:21:44Z</time>
      </trkpt>
      <trkpt lat="42.343156971037388" lon="-7.871780041605234">
        <ele>109.73</ele>
        <time>2025-05-02T08:22:00Z</time>
      </trkpt>
      <trkpt lat="42.343121012672782" lon="-7.871779035776854">
        <ele>112.61</ele>
        <time>2025-05-02T09:05:58Z</time>
      </trkpt>
      <trkpt lat="42.343120006844401" lon="-7.871780963614583">
        <ele>112.13</ele>
        <time>2025-05-02T09:06:49Z</time>
      </trkpt>
      <trkpt lat="42.343111038208008" lon="-7.871777024120092">
        <ele>112.61</ele>
        <time>2025-05-02T09:07:39Z</time>
      </trkpt>
      <trkpt lat="42.343108020722866" lon="-7.871775012463331">
        <ele>112.61</ele>
        <time>2025-05-02T09:08:30Z</time>
      </trkpt>
      <trkpt lat="42.343107014894485" lon="-7.871778029948473">
        <ele>112.61</ele>
        <time>2025-05-02T09:08:55Z</time>
      </trkpt>
      <trkpt lat="42.343107014894485" lon="-7.871778029948473">
        <ele>112.61</ele>
        <time>2025-05-02T09:09:07Z</time>
      </trkpt>
      <trkpt lat="42.34311799518764" lon="-7.871647020801902">
        <ele>112.61</ele>
        <time>2025-05-02T09:09:10Z</time>
      </trkpt>
      <trkpt lat="42.343102991580963" lon="-7.871595975011587">
        <ele>112.61</ele>
        <time>2025-05-02T09:09:11Z</time>
      </trkpt>
      <trkpt lat="42.343086982145905" lon="-7.871539983898401">
        <ele>112.61</ele>
        <time>2025-05-02T09:09:12Z</time>
      </trkpt>
      <trkpt lat="42.343069966882467" lon="-7.871483992785215">
        <ele>112.13</ele>
        <time>2025-05-02T09:09:13Z</time>
      </trkpt>
      <trkpt lat="42.342964019626379" lon="-7.871121978387237">
        <ele>111.17</ele>
        <time>2025-05-02T09:09:24Z</time>
      </trkpt>
      <trkpt lat="42.342939963564277" lon="-7.871038997545838">
        <ele>111.17</ele>
        <time>2025-05-02T09:09:27Z</time>
      </trkpt>
      <trkpt lat="42.342939963564277" lon="-7.871038997545838">
        <ele>111.65000000000001</ele>
        <time>2025-05-02T09:09:28Z</time>
      </trkpt>
      <trkpt lat="42.343004001304507" lon="-7.870888961479068">
        <ele>111.65000000000001</ele>
        <time>2025-05-02T09:09:29Z</time>
      </trkpt>
      <trkpt lat="42.343004001304507" lon="-7.870888961479068">
        <ele>111.65000000000001</ele>
        <time>2025-05-02T09:09:30Z</time>
      </trkpt>
      <trkpt lat="42.343020010739565" lon="-7.870868006721139">
        <ele>111.65000000000001</ele>
        <time>2025-05-02T09:09:31Z</time>
      </trkpt>
      <trkpt lat="42.343068961054087" lon="-7.870802963152528">
        <ele>112.13</ele>
        <time>2025-05-02T09:09:32Z</time>
      </trkpt>
      <trkpt lat="42.343175997957587" lon="-7.870587967336178">
        <ele>112.61</ele>
        <time>2025-05-02T09:09:33Z</time>
      </trkpt>
      <trkpt lat="42.343221008777618" lon="-7.870508003979921">
        <ele>112.61</ele>
        <time>2025-05-02T09:09:34Z</time>
      </trkpt>
      <trkpt lat="42.343269037082791" lon="-7.87041999399662">
        <ele>112.61</ele>
        <time>2025-05-02T09:09:35Z</time>
      </trkpt>
      <trkpt lat="42.343301977962255" lon="-7.870298959314823">
        <ele>112.61</ele>
        <time>2025-05-02T09:09:36Z</time>
      </trkpt>
      <trkpt lat="42.34333198517561" lon="-7.870079018175602">
        <ele>112.13</ele>
        <time>2025-05-02T09:09:38Z</time>
      </trkpt>
      <trkpt lat="42.343386970460415" lon="-7.868793988600373">
        <ele>111.65000000000001</ele>
        <time>2025-05-02T09:09:50Z</time>
      </trkpt>
      <trkpt lat="42.343386970460415" lon="-7.868688963353634">
        <ele>111.65000000000001</ele>
        <time>2025-05-02T09:09:51Z</time>
      </trkpt>
      <trkpt lat="42.343369033187628" lon="-7.86850699223578">
        <ele>112.13</ele>
        <time>2025-05-02T09:09:53Z</time>
      </trkpt>
      <trkpt lat="42.343369033187628" lon="-7.86850699223578">
        <ele>112.13</ele>
        <time>2025-05-02T09:09:54Z</time>
      </trkpt>
      <trkpt lat="42.343270964920521" lon="-7.86842199973762">
        <ele>112.13</ele>
        <time>2025-05-02T09:09:55Z</time>
      </trkpt>
      <trkpt lat="42.343197036534548" lon="-7.868357039988041">
        <ele>112.13</ele>
        <time>2025-05-02T09:09:56Z</time>
      </trkpt>
      <trkpt lat="42.343197036534548" lon="-7.868357039988041">
        <ele>112.61</ele>
        <time>2025-05-02T09:09:57Z</time>
      </trkpt>
      <trkpt lat="42.343079019337893" lon="-7.868288978934288">
        <ele>112.61</ele>
        <time>2025-05-02T09:09:58Z</time>
      </trkpt>
      <trkpt lat="42.343017999082804" lon="-7.868254026398063">
        <ele>113.09</ele>
        <time>2025-05-02T09:09:59Z</time>
      </trkpt>
      <trkpt lat="42.342953961342573" lon="-7.868217984214425">
        <ele>113.09</ele>
        <time>2025-05-02T09:10:00Z</time>
      </trkpt>
      <trkpt lat="42.342565041035414" lon="-7.868022015318275">
        <ele>115.5</ele>
        <time>2025-05-02T09:10:08Z</time>
      </trkpt>
      <trkpt lat="42.342348033562303" lon="-7.867935011163354">
        <ele>116.45999999999999</ele>
        <time>2025-05-02T09:10:12Z</time>
      </trkpt>
      <trkpt lat="42.342298999428749" lon="-7.867911960929632">
        <ele>116.45999999999999</ele>
        <time>2025-05-02T09:10:13Z</time>
      </trkpt>
      <trkpt lat="42.342177964746952" lon="-7.867855969816446">
        <ele>116.45999999999999</ele>
        <time>2025-05-02T09:10:14Z</time>
      </trkpt>
      <trkpt lat="42.341774040833116" lon="-7.867662012577057">
        <ele>117.42</ele>
        <time>2025-05-02T09:10:20Z</time>
      </trkpt>
      <trkpt lat="42.341712014749646" lon="-7.867632005363703">
        <ele>117.42</ele>
        <time>2025-05-02T09:10:21Z</time>
      </trkpt>
      <trkpt lat="42.341598020866513" lon="-7.867578025907278">
        <ele>117.42</ele>
        <time>2025-05-02T09:10:23Z</time>
      </trkpt>
      <trkpt lat="42.341557033360004" lon="-7.867557993158698">
        <ele>117.42</ele>
        <time>2025-05-02T09:10:24Z</time>
      </trkpt>
      <trkpt lat="42.341294009238482" lon="-7.867426984012127">
        <ele>116.94</ele>
        <time>2025-05-02T09:10:30Z</time>
      </trkpt>
      <trkpt lat="42.340656984597445" lon="-7.867108974605799">
        <ele>114.05</ele>
        <time>2025-05-02T09:10:42Z</time>
      </trkpt>
      <trkpt lat="42.340391026809812" lon="-7.866979977115989">
        <ele>109.25</ele>
        <time>2025-05-02T09:10:55Z</time>
      </trkpt>
      <trkpt lat="42.340255994349718" lon="-7.866914011538029">
        <ele>106.84</ele>
        <time>2025-05-02T09:11:18Z</time>
      </trkpt>
      <trkpt lat="42.339755007997155" lon="-7.866661967709661">
        <ele>112.13</ele>
        <time>2025-05-02T09:11:28Z</time>
      </trkpt>
      <trkpt lat="42.339647971093655" lon="-7.866603964939714">
        <ele>118.86</ele>
        <time>2025-05-02T09:11:31Z</time>
      </trkpt>
      <trkpt lat="42.339631961658597" lon="-7.866559959948063">
        <ele>120.3</ele>
        <time>2025-05-02T09:11:32Z</time>
      </trkpt>
      <trkpt lat="42.339628022164106" lon="-7.866520984098315">
        <ele>122.22</ele>
        <time>2025-05-02T09:11:33Z</time>
      </trkpt>
      <trkpt lat="42.33967998996377" lon="-7.866396009922028">
        <ele>124.63</ele>
        <time>2025-05-02T09:11:34Z</time>
      </trkpt>
      <trkpt lat="42.339699016883969" lon="-7.86640003323555">
        <ele>126.55</ele>
        <time>2025-05-02T09:11:35Z</time>
      </trkpt>
      <trkpt lat="42.339699016883969" lon="-7.86640003323555">
        <ele>127.51000000000001</ele>
        <time>2025-05-02T09:11:48Z</time>
      </trkpt>
      <trkpt lat="42.339699016883969" lon="-7.86640003323555">
        <ele>128.47</ele>
        <time>2025-05-02T09:11:50Z</time>
      </trkpt>
      <trkpt lat="42.33974302187562" lon="-7.866407996043563">
        <ele>128.47</ele>
        <time>2025-05-02T09:11:51Z</time>
      </trkpt>
      <trkpt lat="42.339767999947071" lon="-7.866413025185466">
        <ele>128.94999999999999</ele>
        <time>2025-05-02T09:11:52Z</time>
      </trkpt>
      <trkpt lat="42.339793983846903" lon="-7.866418976336718">
        <ele>128.47</ele>
        <time>2025-05-02T09:11:53Z</time>
      </trkpt>
      <trkpt lat="42.339935973286629" lon="-7.866446971893311">
        <ele>128.47</ele>
        <time>2025-05-02T09:11:54Z</time>
      </trkpt>
      <trkpt lat="42.340005040168762" lon="-7.866401961073279">
        <ele>128.94999999999999</ele>
        <time>2025-05-02T09:11:57Z</time>
      </trkpt>
      <trkpt lat="42.340118028223515" lon="-7.866328032687306">
        <ele>128.94999999999999</ele>
        <time>2025-05-02T09:11:58Z</time>
      </trkpt>
      <trkpt lat="42.340380968526006" lon="-7.866155030205846">
        <ele>129.91999999999999</ele>
        <time>2025-05-02T09:12:04Z</time>
      </trkpt>
      <trkpt lat="42.340653967112303" lon="-7.86597297526896">
        <ele>130.40000000000001</ele>
        <time>2025-05-02T09:12:12Z</time>
      </trkpt>
      <trkpt lat="42.340698977932334" lon="-7.865941040217876">
        <ele>130.88</ele>
        <time>2025-05-02T09:12:24Z</time>
      </trkpt>
      <trkpt lat="42.340734014287591" lon="-7.865914972499013">
        <ele>130.88</ele>
        <time>2025-05-02T09:12:25Z</time>
      </trkpt>
      <trkpt lat="42.341132992878556" lon="-7.865616995841265">
        <ele>130.88</ele>
        <time>2025-05-02T09:12:34Z</time>
      </trkpt>
      <trkpt lat="42.341345977038145" lon="-7.86545597948134">
        <ele>129.91999999999999</ele>
        <time>2025-05-02T09:12:43Z</time>
      </trkpt>
      <trkpt lat="42.341559967026114" lon="-7.865294041112065">
        <ele>129.43000000000001</ele>
        <time>2025-05-02T09:12:53Z</time>
      </trkpt>
      <trkpt lat="42.34156901948154" lon="-7.86500696092844">
        <ele>134.24000000000001</ele>
        <time>2025-05-02T09:13:02Z</time>
      </trkpt>
      <trkpt lat="42.341469023376703" lon="-7.86474796012044">
        <ele>135.68000000000001</ele>
        <time>2025-05-02T09:13:07Z</time>
      </trkpt>
      <trkpt lat="42.341449996456504" lon="-7.864696998149157">
        <ele>135.68000000000001</ele>
        <time>2025-05-02T09:13:08Z</time>
      </trkpt>
      <trkpt lat="42.341501964256167" lon="-7.864607982337475">
        <ele>135.68000000000001</ele>
        <time>2025-05-02T09:13:09Z</time>
      </trkpt>
      <trkpt lat="42.341550998389721" lon="-7.864561965689063">
        <ele>136.16</ele>
        <time>2025-05-02T09:13:10Z</time>
      </trkpt>
      <trkpt lat="42.341600032523274" lon="-7.864517960697413">
        <ele>136.16</ele>
        <time>2025-05-02T09:13:11Z</time>
      </trkpt>
      <trkpt lat="42.341787032783031" lon="-7.864346969872713">
        <ele>135.68000000000001</ele>
        <time>2025-05-02T09:13:15Z</time>
      </trkpt>
      <trkpt lat="42.3418939858675" lon="-7.864248985424638">
        <ele>135.68000000000001</ele>
        <time>2025-05-02T09:13:17Z</time>
      </trkpt>
      <trkpt lat="42.342381980270147" lon="-7.86378001794219">
        <ele>133.75999999999999</ele>
        <time>2025-05-02T09:13:55Z</time>
      </trkpt>
      <trkpt lat="42.342381980270147" lon="-7.86378001794219">
        <ele>133.75999999999999</ele>
        <time>2025-05-02T09:14:29Z</time>
      </trkpt>
      <trkpt lat="42.342480970546603" lon="-7.863684967160225">
        <ele>135.68000000000001</ele>
        <time>2025-05-02T09:14:43Z</time>
      </trkpt>
      <trkpt lat="42.342490023002028" lon="-7.863677004352212">
        <ele>135.68000000000001</ele>
        <time>2025-05-02T09:14:49Z</time>
      </trkpt>
      <trkpt lat="42.342490023002028" lon="-7.863677004352212">
        <ele>135.68000000000001</ele>
        <time>2025-05-02T09:14:50Z</time>
      </trkpt>
      <trkpt lat="42.342541990801692" lon="-7.863731989637017">
        <ele>136.16</ele>
        <time>2025-05-02T09:14:51Z</time>
      </trkpt>
      <trkpt lat="42.342546014115214" lon="-7.863769959658384">
        <ele>136.63999999999999</ele>
        <time>2025-05-02T09:14:52Z</time>
      </trkpt>
      <trkpt lat="42.342550037428737" lon="-7.863818993791938">
        <ele>137.13</ele>
        <time>2025-05-02T09:14:53Z</time>
      </trkpt>
      <trkpt lat="42.342554982751608" lon="-7.863869033753872">
        <ele>137.61000000000001</ele>
        <time>2025-05-02T09:14:54Z</time>
      </trkpt>
      <trkpt lat="42.342560011893511" lon="-7.863916978240013">
        <ele>138.09</ele>
        <time>2025-05-02T09:14:55Z</time>
      </trkpt>
      <trkpt lat="42.342565041035414" lon="-7.863969029858708">
        <ele>138.56999999999999</ele>
        <time>2025-05-02T09:14:56Z</time>
      </trkpt>
      <trkpt lat="42.342553976923227" lon="-7.864333977922797">
        <ele>140.97</ele>
        <time>2025-05-02T09:15:04Z</time>
      </trkpt>
      <trkpt lat="42.342415004968643" lon="-7.864500023424625">
        <ele>141.44999999999999</ele>
        <time>2025-05-02T09:15:07Z</time>
      </trkpt>
      <trkpt lat="42.342297993600368" lon="-7.864603037014604">
        <ele>142.41</ele>
        <time>2025-05-02T09:15:09Z</time>
      </trkpt>
      <trkpt lat="42.342037986963987" lon="-7.864837981760502">
        <ele>142.88999999999999</ele>
        <time>2025-05-02T09:15:13Z</time>
      </trkpt>
      <trkpt lat="42.341610006988049" lon="-7.865255987271667">
        <ele>144.34</ele>
        <time>2025-05-02T09:15:20Z</time>
      </trkpt>
      <trkpt lat="42.340652039274573" lon="-7.865974986925721">
        <ele>145.30000000000001</ele>
        <time>2025-05-02T09:15:32Z</time>
      </trkpt>
      <trkpt lat="42.340334029868245" lon="-7.866185959428549">
        <ele>145.78</ele>
        <time>2025-05-02T09:15:40Z</time>
      </trkpt>
      <trkpt lat="42.340311985462904" lon="-7.866200041025877">
        <ele>145.78</ele>
        <time>2025-05-02T09:15:53Z</time>
      </trkpt>
      <trkpt lat="42.34011098742485" lon="-7.866331972181797">
        <ele>146.25999999999999</ele>
        <time>2025-05-02T09:16:22Z</time>
      </trkpt>
      <trkpt lat="42.339935973286629" lon="-7.866446971893311">
        <ele>143.37</ele>
        <time>2025-05-02T09:16:26Z</time>
      </trkpt>
      <trkpt lat="42.339935973286629" lon="-7.866446971893311">
        <ele>142.41</ele>
        <time>2025-05-02T09:16:27Z</time>
      </trkpt>
      <trkpt lat="42.339925998821855" lon="-7.866579992696643">
        <ele>139.05000000000001</ele>
        <time>2025-05-02T09:16:28Z</time>
      </trkpt>
      <trkpt lat="42.339923987165093" lon="-7.866614023223519">
        <ele>138.56999999999999</ele>
        <time>2025-05-02T09:16:29Z</time>
      </trkpt>
      <trkpt lat="42.339921975508332" lon="-7.866633972153068">
        <ele>138.09</ele>
        <time>2025-05-02T09:16:30Z</time>
      </trkpt>
      <trkpt lat="42.339821979403496" lon="-7.866698009893298">
        <ele>137.61000000000001</ele>
        <time>2025-05-02T09:16:31Z</time>
      </trkpt>
      <trkpt lat="42.339806975796819" lon="-7.866689963266254">
        <ele>137.13</ele>
        <time>2025-05-02T09:16:32Z</time>
      </trkpt>
      <trkpt lat="42.339790966361761" lon="-7.86668099462986">
        <ele>137.13</ele>
        <time>2025-05-02T09:16:33Z</time>
      </trkpt>
      <trkpt lat="42.339771017432213" lon="-7.866671020165086">
        <ele>137.13</ele>
        <time>2025-05-02T09:16:34Z</time>
      </trkpt>
      <trkpt lat="42.339770011603832" lon="-7.866670014336705">
        <ele>136.63999999999999</ele>
        <time>2025-05-02T09:16:35Z</time>
      </trkpt>
      <trkpt lat="42.339740004390478" lon="-7.866654004901648">
        <ele>136.16</ele>
        <time>2025-05-02T09:16:36Z</time>
      </trkpt>
      <trkpt lat="42.339703040197492" lon="-7.866633972153068">
        <ele>135.68000000000001</ele>
        <time>2025-05-02T09:16:37Z</time>
      </trkpt>
      <trkpt lat="42.339634979143739" lon="-7.866597007960081">
        <ele>135.19999999999999</ele>
        <time>2025-05-02T09:16:38Z</time>
      </trkpt>
      <trkpt lat="42.339616036042571" lon="-7.866588039323688">
        <ele>134.72</ele>
        <time>2025-05-02T09:16:39Z</time>
      </trkpt>
      <trkpt lat="42.339518973603845" lon="-7.866545040160418">
        <ele>134.24000000000001</ele>
        <time>2025-05-02T09:16:40Z</time>
      </trkpt>
      <trkpt lat="42.339465999975801" lon="-7.866520984098315">
        <ele>133.28</ele>
        <time>2025-05-02T09:16:41Z</time>
      </trkpt>
      <trkpt lat="42.339415960013866" lon="-7.866499023512006">
        <ele>132.80000000000001</ele>
        <time>2025-05-02T09:16:42Z</time>
      </trkpt>
      <trkpt lat="42.339050006121397" lon="-7.866333983838558">
        <ele>126.55</ele>
        <time>2025-05-02T09:16:53Z</time>
      </trkpt>
      <trkpt lat="42.338725039735436" lon="-7.86618797108531">
        <ele>121.73999999999999</ele>
        <time>2025-05-02T09:17:04Z</time>
      </trkpt>
      <trkpt lat="42.338668964803219" lon="-7.866161987185478">
        <ele>121.26000000000001</ele>
        <time>2025-05-02T09:17:05Z</time>
      </trkpt>
      <trkpt lat="42.338466038927436" lon="-7.866070959717035">
        <ele>119.34</ele>
        <time>2025-05-02T09:17:08Z</time>
      </trkpt>
      <trkpt lat="42.338466038927436" lon="-7.866070959717035">
        <ele>118.86</ele>
        <time>2025-05-02T09:17:09Z</time>
      </trkpt>
      <trkpt lat="42.338227992877364" lon="-7.86599300801754">
        <ele>116.94</ele>
        <time>2025-05-02T09:17:12Z</time>
      </trkpt>
      <trkpt lat="42.338075023144484" lon="-7.865960989147425">
        <ele>115.01000000000001</ele>
        <time>2025-05-02T09:17:15Z</time>
      </trkpt>
      <trkpt lat="42.338075023144484" lon="-7.865960989147425">
        <ele>114.53</ele>
        <time>2025-05-02T09:17:16Z</time>
      </trkpt>
      <trkpt lat="42.337707979604602" lon="-7.865931987762451">
        <ele>111.65000000000001</ele>
        <time>2025-05-02T09:17:21Z</time>
      </trkpt>
      <trkpt lat="42.337706973776221" lon="-7.865931987762451">
        <ele>111.65000000000001</ele>
        <time>2025-05-02T09:17:22Z</time>
      </trkpt>
      <trkpt lat="42.33748996630311" lon="-7.865931987762451">
        <ele>112.13</ele>
        <time>2025-05-02T09:17:27Z</time>
      </trkpt>
      <trkpt lat="42.337456019595265" lon="-7.865931987762451">
        <ele>112.13</ele>
        <time>2025-05-02T09:17:28Z</time>
      </trkpt>
      <trkpt lat="42.337456019595265" lon="-7.865931987762451">
        <ele>113.56999999999999</ele>
        <time>2025-05-02T09:17:35Z</time>
      </trkpt>
      <trkpt lat="42.337472029030323" lon="-7.865931987762451">
        <ele>113.56999999999999</ele>
        <time>2025-05-02T09:17:36Z</time>
      </trkpt>
      <trkpt lat="42.337502958253026" lon="-7.865931987762451">
        <ele>113.56999999999999</ele>
        <time>2025-05-02T09:17:37Z</time>
      </trkpt>
      <trkpt lat="42.337903026491404" lon="-7.865931987762451">
        <ele>115.01000000000001</ele>
        <time>2025-05-02T09:17:46Z</time>
      </trkpt>
      <trkpt lat="42.337978966534138" lon="-7.865940034389496">
        <ele>115.01000000000001</ele>
        <time>2025-05-02T09:17:48Z</time>
      </trkpt>
      <trkpt lat="42.338059013709426" lon="-7.865956965833902">
        <ele>115.5</ele>
        <time>2025-05-02T09:17:50Z</time>
      </trkpt>
      <trkpt lat="42.338185999542475" lon="-7.865984039381146">
        <ele>115.5</ele>
        <time>2025-05-02T09:17:53Z</time>
      </trkpt>
      <trkpt lat="42.338233022019267" lon="-7.865994013845921">
        <ele>115.5</ele>
        <time>2025-05-02T09:17:54Z</time>
      </trkpt>
      <trkpt lat="42.338263029232621" lon="-7.865999964997172">
        <ele>115.5</ele>
        <time>2025-05-02T09:17:55Z</time>
      </trkpt>
      <trkpt lat="42.338306028395891" lon="-7.866009017452598">
        <ele>115.5</ele>
        <time>2025-05-02T09:17:56Z</time>
      </trkpt>
      <trkpt lat="42.338338969275355" lon="-7.86601597443223">
        <ele>115.98</ele>
        <time>2025-05-02T09:17:57Z</time>
      </trkpt>
      <trkpt lat="42.338377023115754" lon="-7.866030978038907">
        <ele>116.45999999999999</ele>
        <time>2025-05-02T09:17:58Z</time>
      </trkpt>
      <trkpt lat="42.338377023115754" lon="-7.866030978038907">
        <ele>117.90000000000001</ele>
        <time>2025-05-02T09:18:12Z</time>
      </trkpt>
      <trkpt lat="42.338582966476679" lon="-7.866124017164111">
        <ele>126.06999999999999</ele>
        <time>2025-05-02T09:18:28Z</time>
      </trkpt>
      <trkpt lat="42.338895024731755" lon="-7.866263994947076">
        <ele>131.36000000000001</ele>
        <time>2025-05-02T09:18:38Z</time>
      </trkpt>
      <trkpt lat="42.338895024731755" lon="-7.866263994947076">
        <ele>131.84</ele>
        <time>2025-05-02T09:18:42Z</time>
      </trkpt>
      <trkpt lat="42.338986974209547" lon="-7.866305988281965">
        <ele>133.28</ele>
        <time>2025-05-02T09:18:56Z</time>
      </trkpt>
      <trkpt lat="42.338986974209547" lon="-7.866305988281965">
        <ele>133.75999999999999</ele>
        <time>2025-05-02T09:19:34Z</time>
      </trkpt>
      <trkpt lat="42.338986974209547" lon="-7.866305988281965">
        <ele>133.75999999999999</ele>
        <time>2025-05-02T09:19:56Z</time>
      </trkpt>
      <trkpt lat="42.339201970025897" lon="-7.866401961073279">
        <ele>135.68000000000001</ele>
        <time>2025-05-02T09:20:14Z</time>
      </trkpt>
      <trkpt lat="42.339261984452605" lon="-7.866429034620524">
        <ele>136.16</ele>
        <time>2025-05-02T09:20:16Z</time>
      </trkpt>
      <trkpt lat="42.339261984452605" lon="-7.866429034620524">
        <ele>137.61000000000001</ele>
        <time>2025-05-02T09:20:17Z</time>
      </trkpt>
      <trkpt lat="42.339319987222552" lon="-7.866455018520355">
        <ele>138.56999999999999</ele>
        <time>2025-05-02T09:20:18Z</time>
      </trkpt>
      <trkpt lat="42.339376984164119" lon="-7.866481002420187">
        <ele>139.53</ele>
        <time>2025-05-02T09:20:19Z</time>
      </trkpt>
      <trkpt lat="42.339425012469292" lon="-7.866502963006496">
        <ele>140.00999999999999</ele>
        <time>2025-05-02T09:20:20Z</time>
      </trkpt>
      <trkpt lat="42.339458959177136" lon="-7.866517966613174">
        <ele>140.00999999999999</ele>
        <time>2025-05-02T09:20:21Z</time>
      </trkpt>
      <trkpt lat="42.339493995532393" lon="-7.866533976048231">
        <ele>140.97</ele>
        <time>2025-05-02T09:20:22Z</time>
      </trkpt>
      <trkpt lat="42.339518973603845" lon="-7.866545040160418">
        <ele>141.44999999999999</ele>
        <time>2025-05-02T09:20:23Z</time>
      </trkpt>
      <trkpt lat="42.339543029665947" lon="-7.866556020453572">
        <ele>141.44999999999999</ele>
        <time>2025-05-02T09:20:24Z</time>
      </trkpt>
      <trkpt lat="42.339634979143739" lon="-7.866597007960081">
        <ele>142.41</ele>
        <time>2025-05-02T09:20:29Z</time>
      </trkpt>
      <trkpt lat="42.339634979143739" lon="-7.866597007960081">
        <ele>142.41</ele>
        <time>2025-05-02T09:20:30Z</time>
      </trkpt>
      <trkpt lat="42.339935973286629" lon="-7.866446971893311">
        <ele>142.88999999999999</ele>
        <time>2025-05-02T09:20:32Z</time>
      </trkpt>
      <trkpt lat="42.340284995734692" lon="-7.866217978298664">
        <ele>143.37</ele>
        <time>2025-05-02T09:20:39Z</time>
      </trkpt>
      <trkpt lat="42.341152019798756" lon="-7.865602998062968">
        <ele>142.88999999999999</ele>
        <time>2025-05-02T09:20:49Z</time>
      </trkpt>
      <trkpt lat="42.34148696064949" lon="-7.865349026396871">
        <ele>142.41</ele>
        <time>2025-05-02T09:20:53Z</time>
      </trkpt>
      <trkpt lat="42.34148696064949" lon="-7.865349026396871">
        <ele>142.41</ele>
        <time>2025-05-02T09:20:54Z</time>
      </trkpt>
      <trkpt lat="42.34161302447319" lon="-7.865253975614905">
        <ele>142.41</ele>
        <time>2025-05-02T09:20:55Z</time>
      </trkpt>
      <trkpt lat="42.341652000322938" lon="-7.865223968401551">
        <ele>142.41</ele>
        <time>2025-05-02T09:20:56Z</time>
      </trkpt>
      <trkpt lat="42.341652000322938" lon="-7.865223968401551">
        <ele>142.41</ele>
        <time>2025-05-02T09:20:57Z</time>
      </trkpt>
      <trkpt lat="42.341652000322938" lon="-7.865223968401551">
        <ele>143.37</ele>
        <time>2025-05-02T09:20:58Z</time>
      </trkpt>
      <trkpt lat="42.341610006988049" lon="-7.865113997831941">
        <ele>143.37</ele>
        <time>2025-05-02T09:20:59Z</time>
      </trkpt>
      <trkpt lat="42.341544041410089" lon="-7.864942001178861">
        <ele>143.84999999999999</ele>
        <time>2025-05-02T09:21:00Z</time>
      </trkpt>
      <trkpt lat="42.341517973691225" lon="-7.86487502977252">
        <ele>143.84999999999999</ele>
        <time>2025-05-02T09:21:01Z</time>
      </trkpt>
      <trkpt lat="42.341518979519606" lon="-7.864877041429281">
        <ele>144.34</ele>
        <time>2025-05-02T09:21:02Z</time>
      </trkpt>
      <trkpt lat="42.341495007276535" lon="-7.864815015345812">
        <ele>144.34</ele>
        <time>2025-05-02T09:21:03Z</time>
      </trkpt>
      <trkpt lat="42.341403979808092" lon="-7.864604964852333">
        <ele>142.88999999999999</ele>
        <time>2025-05-02T09:21:11Z</time>
      </trkpt>
      <trkpt lat="42.341327033936977" lon="-7.86446800455451">
        <ele>142.88999999999999</ele>
        <time>2025-05-02T09:21:18Z</time>
      </trkpt>
      <trkpt lat="42.341041965410113" lon="-7.86384497769177">
        <ele>144.81999999999999</ele>
        <time>2025-05-02T09:21:28Z</time>
      </trkpt>
      <trkpt lat="42.341017993167043" lon="-7.863794015720487">
        <ele>144.81999999999999</ele>
        <time>2025-05-02T09:21:29Z</time>
      </trkpt>
      <trkpt lat="42.34094699844718" lon="-7.863642973825336">
        <ele>144.81999999999999</ele>
        <time>2025-05-02T09:21:32Z</time>
      </trkpt>
      <trkpt lat="42.340873992070556" lon="-7.863487992435694">
        <ele>144.81999999999999</ele>
        <time>2025-05-02T09:21:35Z</time>
      </trkpt>
      <trkpt lat="42.340756980702281" lon="-7.863239971920848">
        <ele>144.34</ele>
        <time>2025-05-02T09:21:44Z</time>
      </trkpt>
      <trkpt lat="42.340660002082586" lon="-7.862940989434719">
        <ele>140.97</ele>
        <time>2025-05-02T09:21:56Z</time>
      </trkpt>
      <trkpt lat="42.340579032897949" lon="-7.862687017768621">
        <ele>138.09</ele>
        <time>2025-05-02T09:22:10Z</time>
      </trkpt>
      <trkpt lat="42.340482976287603" lon="-7.862385017797351">
        <ele>134.24000000000001</ele>
        <time>2025-05-02T09:22:15Z</time>
      </trkpt>
      <trkpt lat="42.340301005169749" lon="-7.861879002302885">
        <ele>130.88</ele>
        <time>2025-05-02T09:22:22Z</time>
      </trkpt>
      <trkpt lat="42.340265968814492" lon="-7.861785963177681">
        <ele>129.91999999999999</ele>
        <time>2025-05-02T09:22:23Z</time>
      </trkpt>
      <trkpt lat="42.340235961601138" lon="-7.861704993993044">
        <ele>129.91999999999999</ele>
        <time>2025-05-02T09:22:24Z</time>
      </trkpt>
      <trkpt lat="42.340202014893293" lon="-7.861651014536619">
        <ele>129.91999999999999</ele>
        <time>2025-05-02T09:22:25Z</time>
      </trkpt>
      <trkpt lat="42.340160021558404" lon="-7.861584965139628">
        <ele>129.91999999999999</ele>
        <time>2025-05-02T09:22:26Z</time>
      </trkpt>
      <trkpt lat="42.339693987742066" lon="-7.861048020422459">
        <ele>130.40000000000001</ele>
        <time>2025-05-02T09:22:35Z</time>
      </trkpt>
      <trkpt lat="42.339651994407177" lon="-7.861003009602428">
        <ele>130.40000000000001</ele>
        <time>2025-05-02T09:22:36Z</time>
      </trkpt>
      <trkpt lat="42.339590974152088" lon="-7.860936960205436">
        <ele>130.88</ele>
        <time>2025-05-02T09:22:37Z</time>
      </trkpt>
      <trkpt lat="42.339590974152088" lon="-7.860937966033816">
        <ele>130.88</ele>
        <time>2025-05-02T09:22:38Z</time>
      </trkpt>
      <trkpt lat="42.339590974152088" lon="-7.860937966033816">
        <ele>132.31999999999999</ele>
        <time>2025-05-02T09:22:39Z</time>
      </trkpt>
      <trkpt lat="42.339590974152088" lon="-7.860937966033816">
        <ele>133.75999999999999</ele>
        <time>2025-05-02T09:22:57Z</time>
      </trkpt>
      <trkpt lat="42.339538000524044" lon="-7.860879963263869">
        <ele>134.72</ele>
        <time>2025-05-02T09:23:23Z</time>
      </trkpt>
      <trkpt lat="42.339530037716031" lon="-7.860870994627476">
        <ele>138.56999999999999</ele>
        <time>2025-05-02T09:23:24Z</time>
      </trkpt>
      <trkpt lat="42.339506987482309" lon="-7.860847022384405">
        <ele>142.41</ele>
        <time>2025-05-02T09:23:25Z</time>
      </trkpt>
      <trkpt lat="42.339539006352425" lon="-7.860802011564374">
        <ele>144.34</ele>
        <time>2025-05-02T09:23:26Z</time>
      </trkpt>
      <trkpt lat="42.339577982202172" lon="-7.860748032107949">
        <ele>145.78</ele>
        <time>2025-05-02T09:23:27Z</time>
      </trkpt>
      <trkpt lat="42.339619975537062" lon="-7.860691035166383">
        <ele>146.25999999999999</ele>
        <time>2025-05-02T09:23:28Z</time>
      </trkpt>
      <trkpt lat="42.339668003842235" lon="-7.860624985769391">
        <ele>146.74000000000001</ele>
        <time>2025-05-02T09:23:29Z</time>
      </trkpt>
      <trkpt lat="42.339717037975788" lon="-7.860558014363051">
        <ele>146.74000000000001</ele>
        <time>2025-05-02T09:23:30Z</time>
      </trkpt>
      <trkpt lat="42.339817034080625" lon="-7.860419964417815">
        <ele>146.74000000000001</ele>
        <time>2025-05-02T09:23:32Z</time>
      </trkpt>
      <trkpt lat="42.339863972738385" lon="-7.860355004668236">
        <ele>146.25999999999999</ele>
        <time>2025-05-02T09:23:33Z</time>
      </trkpt>
      <trkpt lat="42.339914012700319" lon="-7.860286021605134">
        <ele>146.25999999999999</ele>
        <time>2025-05-02T09:23:34Z</time>
      </trkpt>
      <trkpt lat="42.339965980499983" lon="-7.860215026885271">
        <ele>145.78</ele>
        <time>2025-05-02T09:23:36Z</time>
      </trkpt>
      <trkpt lat="42.340021971613169" lon="-7.860139003023505">
        <ele>145.78</ele>
        <time>2025-05-02T09:23:37Z</time>
      </trkpt>
      <trkpt lat="42.340064970776439" lon="-7.860081000253558">
        <ele>145.30000000000001</ele>
        <time>2025-05-02T09:23:38Z</time>
      </trkpt>
      <trkpt lat="42.340116016566753" lon="-7.860014028847218">
        <ele>145.30000000000001</ele>
        <time>2025-05-02T09:23:39Z</time>
      </trkpt>
      <trkpt lat="42.340162033215165" lon="-7.859953008592129">
        <ele>145.30000000000001</ele>
        <time>2025-05-02T09:23:40Z</time>
      </trkpt>
      <trkpt lat="42.340202014893293" lon="-7.859901040792465">
        <ele>145.30000000000001</ele>
        <time>2025-05-02T09:23:41Z</time>
      </trkpt>
      <trkpt lat="42.340230010449886" lon="-7.859862986952066">
        <ele>145.30000000000001</ele>
        <time>2025-05-02T09:23:42Z</time>
      </trkpt>
      <trkpt lat="42.340249959379435" lon="-7.859837003052235">
        <ele>145.30000000000001</ele>
        <time>2025-05-02T09:23:53Z</time>
      </trkpt>
      <trkpt lat="42.340249959379435" lon="-7.859837003052235">
        <ele>145.30000000000001</ele>
        <time>2025-05-02T09:24:25Z</time>
      </trkpt>
      <trkpt lat="42.340249959379435" lon="-7.859837003052235">
        <ele>144.34</ele>
        <time>2025-05-02T09:24:32Z</time>
      </trkpt>
      <trkpt lat="42.340545002371073" lon="-7.859446993097663">
        <ele>148.66</ele>
        <time>2025-05-02T09:24:40Z</time>
      </trkpt>
      <trkpt lat="42.340585989877582" lon="-7.859392007812858">
        <ele>149.13999999999999</ele>
        <time>2025-05-02T09:24:41Z</time>
      </trkpt>
      <trkpt lat="42.34092797152698" lon="-7.858892027288675">
        <ele>147.69999999999999</ele>
        <time>2025-05-02T09:24:50Z</time>
      </trkpt>
      <trkpt lat="42.34099100343883" lon="-7.858798988163471">
        <ele>147.69999999999999</ele>
        <time>2025-05-02T09:25:00Z</time>
      </trkpt>
      <trkpt lat="42.34099100343883" lon="-7.858798988163471">
        <ele>147.69999999999999</ele>
        <time>2025-05-02T09:25:17Z</time>
      </trkpt>
      <trkpt lat="42.341003995388746" lon="-7.858779961243272">
        <ele>147.69999999999999</ele>
        <time>2025-05-02T09:25:18Z</time>
      </trkpt>
      <trkpt lat="42.341021010652184" lon="-7.85875397734344">
        <ele>147.69999999999999</ele>
        <time>2025-05-02T09:25:19Z</time>
      </trkpt>
      <trkpt lat="42.341055041179061" lon="-7.858704021200538">
        <ele>147.69999999999999</ele>
        <time>2025-05-02T09:25:20Z</time>
      </trkpt>
      <trkpt lat="42.341101979836822" lon="-7.858635038137436">
        <ele>147.69999999999999</ele>
        <time>2025-05-02T09:25:21Z</time>
      </trkpt>
      <trkpt lat="42.341345977038145" lon="-7.858319962397218">
        <ele>146.74000000000001</ele>
        <time>2025-05-02T09:25:25Z</time>
      </trkpt>
      <trkpt lat="42.341406997293234" lon="-7.858246034011245">
        <ele>146.74000000000001</ele>
        <time>2025-05-02T09:25:26Z</time>
      </trkpt>
      <trkpt lat="42.341465000063181" lon="-7.85817101597786">
        <ele>146.74000000000001</ele>
        <time>2025-05-02T09:25:27Z</time>
      </trkpt>
      <trkpt lat="42.341747973114252" lon="-7.857787040993571">
        <ele>146.25999999999999</ele>
        <time>2025-05-02T09:25:32Z</time>
      </trkpt>
      <trkpt lat="42.341804970055819" lon="-7.857709005475044">
        <ele>146.25999999999999</ele>
        <time>2025-05-02T09:25:33Z</time>
      </trkpt>
      <trkpt lat="42.342071011662483" lon="-7.85731203854084">
        <ele>145.30000000000001</ele>
        <time>2025-05-02T09:25:38Z</time>
      </trkpt>
      <trkpt lat="42.342109987512231" lon="-7.857212964445353">
        <ele>145.30000000000001</ele>
        <time>2025-05-02T09:25:39Z</time>
      </trkpt>
      <trkpt lat="42.342339986935258" lon="-7.85634602420032">
        <ele>146.25999999999999</ele>
        <time>2025-05-02T09:25:48Z</time>
      </trkpt>
      <trkpt lat="42.342358008027077" lon="-7.856261031702161">
        <ele>146.25999999999999</ele>
        <time>2025-05-02T09:25:49Z</time>
      </trkpt>
      <trkpt lat="42.342376029118896" lon="-7.856175033375621">
        <ele>146.25999999999999</ele>
        <time>2025-05-02T09:25:50Z</time>
      </trkpt>
      <trkpt lat="42.342380974441767" lon="-7.856089035049081">
        <ele>146.25999999999999</ele>
        <time>2025-05-02T09:25:51Z</time>
      </trkpt>
      <trkpt lat="42.342378962785006" lon="-7.856008987873793">
        <ele>146.25999999999999</ele>
        <time>2025-05-02T09:25:52Z</time>
      </trkpt>
      <trkpt lat="42.342364965006709" lon="-7.855463996529579">
        <ele>146.74000000000001</ele>
        <time>2025-05-02T09:26:03Z</time>
      </trkpt>
      <trkpt lat="42.342349039390683" lon="-7.855155039578676">
        <ele>145.30000000000001</ele>
        <time>2025-05-02T09:26:11Z</time>
      </trkpt>
      <trkpt lat="42.342320960015059" lon="-7.854809034615755">
        <ele>141.44999999999999</ele>
        <time>2025-05-02T09:26:24Z</time>
      </trkpt>
      <trkpt lat="42.342320960015059" lon="-7.854809034615755">
        <ele>140.97</ele>
        <time>2025-05-02T09:26:42Z</time>
      </trkpt>
      <trkpt lat="42.342295981943607" lon="-7.854518014937639">
        <ele>144.34</ele>
        <time>2025-05-02T09:27:01Z</time>
      </trkpt>
      <trkpt lat="42.342292964458466" lon="-7.85447602160275">
        <ele>144.81999999999999</ele>
        <time>2025-05-02T09:27:02Z</time>
      </trkpt>
      <trkpt lat="42.342249965295196" lon="-7.8539829980582">
        <ele>148.66</ele>
        <time>2025-05-02T09:27:09Z</time>
      </trkpt>
      <trkpt lat="42.34219397418201" lon="-7.853333987295628">
        <ele>149.62</ele>
        <time>2025-05-02T09:27:17Z</time>
      </trkpt>
      <trkpt lat="42.342189028859138" lon="-7.853271961212158">
        <ele>149.62</ele>
        <time>2025-05-02T09:27:18Z</time>
      </trkpt>
      <trkpt lat="42.342189028859138" lon="-7.853271961212158">
        <ele>149.62</ele>
        <time>2025-05-02T09:27:19Z</time>
      </trkpt>
      <trkpt lat="42.342141000553966" lon="-7.853170959278941">
        <ele>149.62</ele>
        <time>2025-05-02T09:27:20Z</time>
      </trkpt>
      <trkpt lat="42.342114010825753" lon="-7.853112034499645">
        <ele>149.62</ele>
        <time>2025-05-02T09:27:21Z</time>
      </trkpt>
      <trkpt lat="42.34208500944078" lon="-7.853052020072937">
        <ele>149.62</ele>
        <time>2025-05-02T09:27:22Z</time>
      </trkpt>
      <trkpt lat="42.342053996399045" lon="-7.852985970675945">
        <ele>149.62</ele>
        <time>2025-05-02T09:27:23Z</time>
      </trkpt>
      <trkpt lat="42.342020971700549" lon="-7.852914975956082">
        <ele>150.09999999999999</ele>
        <time>2025-05-02T09:27:24Z</time>
      </trkpt>
      <trkpt lat="42.341823996976018" lon="-7.8526930231601">
        <ele>150.09999999999999</ele>
        <time>2025-05-02T09:27:28Z</time>
      </trkpt>
      <trkpt lat="42.341760965064168" lon="-7.852655975148082">
        <ele>150.09999999999999</ele>
        <time>2025-05-02T09:27:29Z</time>
      </trkpt>
      <trkpt lat="42.341172974556684" lon="-7.852318016812205">
        <ele>150.09999999999999</ele>
        <time>2025-05-02T09:27:38Z</time>
      </trkpt>
      <trkpt lat="42.3407559748739" lon="-7.852077037096024">
        <ele>150.09999999999999</ele>
        <time>2025-05-02T09:27:45Z</time>
      </trkpt>
      <trkpt lat="42.340149963274598" lon="-7.85174896940589">
        <ele>149.62</ele>
        <time>2025-05-02T09:27:54Z</time>
      </trkpt>
      <trkpt lat="42.33987201936543" lon="-7.851449986919761">
        <ele>149.13999999999999</ele>
        <time>2025-05-02T09:27:59Z</time>
      </trkpt>
      <trkpt lat="42.339837988838553" lon="-7.85138200968504">
        <ele>149.13999999999999</ele>
        <time>2025-05-02T09:28:00Z</time>
      </trkpt>
      <trkpt lat="42.339802030473948" lon="-7.851310009136796">
        <ele>149.13999999999999</ele>
        <time>2025-05-02T09:28:01Z</time>
      </trkpt>
      <trkpt lat="42.339764982461929" lon="-7.851235996931791">
        <ele>149.62</ele>
        <time>2025-05-02T09:28:02Z</time>
      </trkpt>
      <trkpt lat="42.339728018268943" lon="-7.851109011098743">
        <ele>149.62</ele>
        <time>2025-05-02T09:28:03Z</time>
      </trkpt>
      <trkpt lat="42.339712008833885" lon="-7.851021001115441">
        <ele>149.62</ele>
        <time>2025-05-02T09:28:04Z</time>
      </trkpt>
      <trkpt lat="42.339650988578796" lon="-7.850002013146877">
        <ele>149.13999999999999</ele>
        <time>2025-05-02T09:28:14Z</time>
      </trkpt>
      <trkpt lat="42.339637996628881" lon="-7.849691966548562">
        <ele>150.58000000000001</ele>
        <time>2025-05-02T09:28:16Z</time>
      </trkpt>
      <trkpt lat="42.339634979143739" lon="-7.849623989313841">
        <ele>150.58000000000001</ele>
        <time>2025-05-02T09:28:17Z</time>
      </trkpt>
      <trkpt lat="42.339618969708681" lon="-7.849489962682128">
        <ele>150.58000000000001</ele>
        <time>2025-05-02T09:28:18Z</time>
      </trkpt>
      <trkpt lat="42.339589968323708" lon="-7.849403964355588">
        <ele>152.99000000000001</ele>
        <time>2025-05-02T09:28:19Z</time>
      </trkpt>
      <trkpt lat="42.339544035494328" lon="-7.849314026534557">
        <ele>154.91</ele>
        <time>2025-05-02T09:28:20Z</time>
      </trkpt>
      <trkpt lat="42.339506987482309" lon="-7.849238002672792">
        <ele>156.34999999999999</ele>
        <time>2025-05-02T09:28:21Z</time>
      </trkpt>
      <trkpt lat="42.339424006640911" lon="-7.849155021831393">
        <ele>157.31</ele>
        <time>2025-05-02T09:28:22Z</time>
      </trkpt>
      <trkpt lat="42.339362986385822" lon="-7.849094001576304">
        <ele>157.78999999999999</ele>
        <time>2025-05-02T09:28:23Z</time>
      </trkpt>
      <trkpt lat="42.339082024991512" lon="-7.848790995776653">
        <ele>162.59999999999999</ele>
        <time>2025-05-02T09:28:29Z</time>
      </trkpt>
      <trkpt lat="42.339027039706707" lon="-7.848727041855454">
        <ele>163.08000000000001</ele>
        <time>2025-05-02T09:28:30Z</time>
      </trkpt>
      <trkpt lat="42.338930983096361" lon="-7.848558984696865">
        <ele>163.56</ele>
        <time>2025-05-02T09:28:31Z</time>
      </trkpt>
      <trkpt lat="42.338909022510052" lon="-7.848428981378675">
        <ele>165</ele>
        <time>2025-05-02T09:28:32Z</time>
      </trkpt>
      <trkpt lat="42.338909022510052" lon="-7.848426969721913">
        <ele>165.96000000000001</ele>
        <time>2025-05-02T09:28:33Z</time>
      </trkpt>
      <trkpt lat="42.338955961167812" lon="-7.848200993612409">
        <ele>167.88999999999999</ele>
        <time>2025-05-02T09:28:34Z</time>
      </trkpt>
      <trkpt lat="42.33899200335145" lon="-7.848057998344302">
        <ele>169.33000000000001</ele>
        <time>2025-05-02T09:28:35Z</time>
      </trkpt>
      <trkpt lat="42.339036008343101" lon="-7.847776031121612">
        <ele>172.21000000000001</ele>
        <time>2025-05-02T09:28:37Z</time>
      </trkpt>
      <trkpt lat="42.339047994464636" lon="-7.847610991448164">
        <ele>173.66</ele>
        <time>2025-05-02T09:28:38Z</time>
      </trkpt>
      <trkpt lat="42.339017987251282" lon="-7.847460033372045">
        <ele>175.09999999999999</ele>
        <time>2025-05-02T09:28:39Z</time>
      </trkpt>
      <trkpt lat="42.338987980037928" lon="-7.847308991476893">
        <ele>176.53999999999999</ele>
        <time>2025-05-02T09:28:40Z</time>
      </trkpt>
      <trkpt lat="42.338957972824574" lon="-7.847161972895265">
        <ele>178.46000000000001</ele>
        <time>2025-05-02T09:28:41Z</time>
      </trkpt>
      <trkpt lat="42.3389289714396" lon="-7.847016965970397">
        <ele>179.41999999999999</ele>
        <time>2025-05-02T09:28:42Z</time>
      </trkpt>
      <trkpt lat="42.3389289714396" lon="-7.847015960142016">
        <ele>180.87</ele>
        <time>2025-05-02T09:28:43Z</time>
      </trkpt>
      <trkpt lat="42.338924026116729" lon="-7.846771040931344">
        <ele>182.31</ele>
        <time>2025-05-02T09:28:44Z</time>
      </trkpt>
      <trkpt lat="42.338924026116729" lon="-7.846770035102963">
        <ele>183.27000000000001</ele>
        <time>2025-05-02T09:28:45Z</time>
      </trkpt>
      <trkpt lat="42.338968031108379" lon="-7.846575994044542">
        <ele>184.22999999999999</ele>
        <time>2025-05-02T09:28:46Z</time>
      </trkpt>
      <trkpt lat="42.339056041091681" lon="-7.846469962969422">
        <ele>185.19</ele>
        <time>2025-05-02T09:28:47Z</time>
      </trkpt>
      <trkpt lat="42.339103985577822" lon="-7.846443979069591">
        <ele>186.15000000000001</ele>
        <time>2025-05-02T09:28:48Z</time>
      </trkpt>
      <trkpt lat="42.339182021096349" lon="-7.846402991563082">
        <ele>187.59</ele>
        <time>2025-05-02T09:28:49Z</time>
      </trkpt>
      <trkpt lat="42.339342031627893" lon="-7.846319004893303">
        <ele>189.03999999999999</ele>
        <time>2025-05-02T09:28:52Z</time>
      </trkpt>
      <trkpt lat="42.339470023289323" lon="-7.846155976876617">
        <ele>189.03999999999999</ele>
        <time>2025-05-02T09:28:53Z</time>
      </trkpt>
      <trkpt lat="42.339524002745748" lon="-7.846024967730045">
        <ele>189.52000000000001</ele>
        <time>2025-05-02T09:28:54Z</time>
      </trkpt>
      <trkpt lat="42.339576976373792" lon="-7.845895970240235">
        <ele>189.52000000000001</ele>
        <time>2025-05-02T09:28:55Z</time>
      </trkpt>
      <trkpt lat="42.339640008285642" lon="-7.845641998574138">
        <ele>190.47999999999999</ele>
        <time>2025-05-02T09:28:57Z</time>
      </trkpt>
      <trkpt lat="42.339663980528712" lon="-7.845497997477651">
        <ele>191.44</ele>
        <time>2025-05-02T09:28:58Z</time>
      </trkpt>
      <trkpt lat="42.339864978566766" lon="-7.844211962074041">
        <ele>195.28</ele>
        <time>2025-05-02T09:29:06Z</time>
      </trkpt>
      <trkpt lat="42.339886017143726" lon="-7.843886995688081">
        <ele>196.25</ele>
        <time>2025-05-02T09:29:08Z</time>
      </trkpt>
      <trkpt lat="42.33987201936543" lon="-7.843735031783581">
        <ele>197.21000000000001</ele>
        <time>2025-05-02T09:29:09Z</time>
      </trkpt>
      <trkpt lat="42.339812004938722" lon="-7.84309096634388">
        <ele>199.61000000000001</ele>
        <time>2025-05-02T09:29:13Z</time>
      </trkpt>
      <trkpt lat="42.33982902020216" lon="-7.842930033802986">
        <ele>200.09</ele>
        <time>2025-05-02T09:29:14Z</time>
      </trkpt>
      <trkpt lat="42.339860033243895" lon="-7.842772034928203">
        <ele>200.56999999999999</ele>
        <time>2025-05-02T09:29:15Z</time>
      </trkpt>
      <trkpt lat="42.339913006871939" lon="-7.842623004689813">
        <ele>201.53</ele>
        <time>2025-05-02T09:29:16Z</time>
      </trkpt>
      <trkpt lat="42.33998098410666" lon="-7.842475986108184">
        <ele>202.00999999999999</ele>
        <time>2025-05-02T09:29:17Z</time>
      </trkpt>
      <trkpt lat="42.340078968554735" lon="-7.842379007488489">
        <ele>202.49000000000001</ele>
        <time>2025-05-02T09:29:18Z</time>
      </trkpt>
      <trkpt lat="42.340175025165081" lon="-7.842282028868794">
        <ele>202.97999999999999</ele>
        <time>2025-05-02T09:29:19Z</time>
      </trkpt>
      <trkpt lat="42.340275021269917" lon="-7.842189995571971">
        <ele>203.46000000000001</ele>
        <time>2025-05-02T09:29:20Z</time>
      </trkpt>
      <trkpt lat="42.340383986011147" lon="-7.842131992802024">
        <ele>203.94</ele>
        <time>2025-05-02T09:29:21Z</time>
      </trkpt>
      <trkpt lat="42.340495968237519" lon="-7.842071978375316">
        <ele>204.41999999999999</ele>
        <time>2025-05-02T09:29:22Z</time>
      </trkpt>
      <trkpt lat="42.340607028454542" lon="-7.84201699309051">
        <ele>204.90000000000001</ele>
        <time>2025-05-02T09:29:23Z</time>
      </trkpt>
      <trkpt lat="42.341512022539973" lon="-7.841835021972656">
        <ele>204.90000000000001</ele>
        <time>2025-05-02T09:29:31Z</time>
      </trkpt>
      <trkpt lat="42.341862972825766" lon="-7.841793028637767">
        <ele>204.41999999999999</ele>
        <time>2025-05-02T09:29:34Z</time>
      </trkpt>
      <trkpt lat="42.341975038871169" lon="-7.841746006160975">
        <ele>203.94</ele>
        <time>2025-05-02T09:29:35Z</time>
      </trkpt>
      <trkpt lat="42.34206598252058" lon="-7.841645004227758">
        <ele>203.94</ele>
        <time>2025-05-02T09:29:36Z</time>
      </trkpt>
      <trkpt lat="42.342159021645784" lon="-7.841541990637779">
        <ele>203.94</ele>
        <time>2025-05-02T09:29:37Z</time>
      </trkpt>
      <trkpt lat="42.342252982780337" lon="-7.84143696539104">
        <ele>203.46000000000001</ele>
        <time>2025-05-02T09:29:38Z</time>
      </trkpt>
      <trkpt lat="42.342347027733922" lon="-7.841323977336288">
        <ele>203.46000000000001</ele>
        <time>2025-05-02T09:29:39Z</time>
      </trkpt>
      <trkpt lat="42.34240997582674" lon="-7.841185005381703">
        <ele>203.94</ele>
        <time>2025-05-02T09:29:40Z</time>
      </trkpt>
      <trkpt lat="42.342470996081829" lon="-7.841048967093229">
        <ele>204.41999999999999</ele>
        <time>2025-05-02T09:29:41Z</time>
      </trkpt>
      <trkpt lat="42.342534027993679" lon="-7.840904965996742">
        <ele>204.90000000000001</ele>
        <time>2025-05-02T09:29:42Z</time>
      </trkpt>
      <trkpt lat="42.342568980529904" lon="-7.840749984607101">
        <ele>205.38</ele>
        <time>2025-05-02T09:29:43Z</time>
      </trkpt>
      <trkpt lat="42.342655984684825" lon="-7.840259978547692">
        <ele>207.30000000000001</ele>
        <time>2025-05-02T09:29:46Z</time>
      </trkpt>
      <trkpt lat="42.342670988291502" lon="-7.840093011036515">
        <ele>208.25999999999999</ele>
        <time>2025-05-02T09:29:47Z</time>
      </trkpt>
      <trkpt lat="42.342680040746927" lon="-7.839923026040196">
        <ele>208.74000000000001</ele>
        <time>2025-05-02T09:29:48Z</time>
      </trkpt>
      <trkpt lat="42.342671994119883" lon="-7.839757986366749">
        <ele>209.22</ele>
        <time>2025-05-02T09:29:49Z</time>
      </trkpt>
      <trkpt lat="42.34266403131187" lon="-7.839592024683952">
        <ele>209.22</ele>
        <time>2025-05-02T09:29:50Z</time>
      </trkpt>
      <trkpt lat="42.342626983299851" lon="-7.839410975575447">
        <ele>209.69999999999999</ele>
        <time>2025-05-02T09:29:51Z</time>
      </trkpt>
      <trkpt lat="42.342531010508537" lon="-7.839114004746079">
        <ele>210.66999999999999</ele>
        <time>2025-05-02T09:29:53Z</time>
      </trkpt>
      <trkpt lat="42.342482982203364" lon="-7.83896497450769">
        <ele>211.15000000000001</ele>
        <time>2025-05-02T09:29:54Z</time>
      </trkpt>
      <trkpt lat="42.342303022742271" lon="-7.838538000360131">
        <ele>212.59</ele>
        <time>2025-05-02T09:29:58Z</time>
      </trkpt>
      <trkpt lat="42.342089032754302" lon="-7.838142961263657">
        <ele>213.55000000000001</ele>
        <time>2025-05-02T09:30:01Z</time>
      </trkpt>
      <trkpt lat="42.342030024155974" lon="-7.838025027886033">
        <ele>214.03</ele>
        <time>2025-05-02T09:30:02Z</time>
      </trkpt>
      <trkpt lat="42.34200001694262" lon="-7.837904999032617">
        <ele>214.50999999999999</ele>
        <time>2025-05-02T09:30:03Z</time>
      </trkpt>
      <trkpt lat="42.342007979750633" lon="-7.837819000706077">
        <ele>214.99000000000001</ele>
        <time>2025-05-02T09:30:04Z</time>
      </trkpt>
      <trkpt lat="42.342026000842452" lon="-7.837720010429621">
        <ele>215.47</ele>
        <time>2025-05-02T09:30:05Z</time>
      </trkpt>
      <trkpt lat="42.342029018327594" lon="-7.837580032646656">
        <ele>215.47</ele>
        <time>2025-05-02T09:30:06Z</time>
      </trkpt>
      <trkpt lat="42.34212800860405" lon="-7.837380962446332">
        <ele>215.94999999999999</ele>
        <time>2025-05-02T09:30:07Z</time>
      </trkpt>
      <trkpt lat="42.342173019424081" lon="-7.836134992539883">
        <ele>217.40000000000001</ele>
        <time>2025-05-02T09:30:17Z</time>
      </trkpt>
      <trkpt lat="42.342292964458466" lon="-7.834918024018407">
        <ele>219.31999999999999</ele>
        <time>2025-05-02T09:30:24Z</time>
      </trkpt>
      <trkpt lat="42.342292964458466" lon="-7.834918024018407">
        <ele>219.80000000000001</ele>
        <time>2025-05-02T09:30:25Z</time>
      </trkpt>
      <trkpt lat="42.342314003035426" lon="-7.834762958809733">
        <ele>220.28</ele>
        <time>2025-05-02T09:30:26Z</time>
      </trkpt>
      <trkpt lat="42.342335963621736" lon="-7.83460495993495">
        <ele>220.75999999999999</ele>
        <time>2025-05-02T09:30:27Z</time>
      </trkpt>
      <trkpt lat="42.342330012470484" lon="-7.834460958838463">
        <ele>221.24000000000001</ele>
        <time>2025-05-02T09:30:28Z</time>
      </trkpt>
      <trkpt lat="42.342318026348948" lon="-7.834296002984047">
        <ele>221.72</ele>
        <time>2025-05-02T09:30:29Z</time>
      </trkpt>
      <trkpt lat="42.34228097833693" lon="-7.833811026066542">
        <ele>222.68000000000001</ele>
        <time>2025-05-02T09:30:32Z</time>
      </trkpt>
      <trkpt lat="42.342275027185678" lon="-7.833641041070223">
        <ele>223.16</ele>
        <time>2025-05-02T09:30:33Z</time>
      </trkpt>
      <trkpt lat="42.342291958630085" lon="-7.83346401527524">
        <ele>223.16</ele>
        <time>2025-05-02T09:30:34Z</time>
      </trkpt>
      <trkpt lat="42.34232297167182" lon="-7.833312973380089">
        <ele>222.68000000000001</ele>
        <time>2025-05-02T09:30:35Z</time>
      </trkpt>
      <trkpt lat="42.342353984713554" lon="-7.833153968676925">
        <ele>222.19999999999999</ele>
        <time>2025-05-02T09:30:36Z</time>
      </trkpt>
      <trkpt lat="42.342381980270147" lon="-7.833016002550721">
        <ele>222.19999999999999</ele>
        <time>2025-05-02T09:30:37Z</time>
      </trkpt>
      <trkpt lat="42.342475019395351" lon="-7.832866972312331">
        <ele>221.72</ele>
        <time>2025-05-02T09:30:38Z</time>
      </trkpt>
      <trkpt lat="42.342551965266466" lon="-7.832741998136044">
        <ele>221.72</ele>
        <time>2025-05-02T09:30:39Z</time>
      </trkpt>
      <trkpt lat="42.342631006613374" lon="-7.832615012302995">
        <ele>221.72</ele>
        <time>2025-05-02T09:30:40Z</time>
      </trkpt>
      <trkpt lat="42.34270996414125" lon="-7.832488026469946">
        <ele>221.72</ele>
        <time>2025-05-02T09:30:41Z</time>
      </trkpt>
      <trkpt lat="42.342790011316538" lon="-7.832364980131388">
        <ele>221.72</ele>
        <time>2025-05-02T09:30:42Z</time>
      </trkpt>
      <trkpt lat="42.34288196079433" lon="-7.832246040925384">
        <ele>222.19999999999999</ele>
        <time>2025-05-02T09:30:43Z</time>
      </trkpt>
      <trkpt lat="42.343255039304495" lon="-7.831741031259298">
        <ele>222.68000000000001</ele>
        <time>2025-05-02T09:30:47Z</time>
      </trkpt>
      <trkpt lat="42.343498030677438" lon="-7.831341968849301">
        <ele>223.63999999999999</ele>
        <time>2025-05-02T09:30:50Z</time>
      </trkpt>
      <trkpt lat="42.343530971556902" lon="-7.831149017438293">
        <ele>224.12</ele>
        <time>2025-05-02T09:30:51Z</time>
      </trkpt>
      <trkpt lat="42.343558967113495" lon="-7.83099303022027">
        <ele>224.61000000000001</ele>
        <time>2025-05-02T09:30:52Z</time>
      </trkpt>
      <trkpt lat="42.343584029003978" lon="-7.830849029123783">
        <ele>225.09</ele>
        <time>2025-05-02T09:30:53Z</time>
      </trkpt>
      <trkpt lat="42.343559972941875" lon="-7.830725982785225">
        <ele>225.09</ele>
        <time>2025-05-02T09:30:54Z</time>
      </trkpt>
      <trkpt lat="42.343533989042044" lon="-7.830590028315783">
        <ele>225.56999999999999</ele>
        <time>2025-05-02T09:30:55Z</time>
      </trkpt>
      <trkpt lat="42.343509010970592" lon="-7.83045700751245">
        <ele>226.05000000000001</ele>
        <time>2025-05-02T09:30:56Z</time>
      </trkpt>
      <trkpt lat="42.343464000150561" lon="-7.830348964780569">
        <ele>226.53</ele>
        <time>2025-05-02T09:30:57Z</time>
      </trkpt>
      <trkpt lat="42.343344977125525" lon="-7.830175962299109">
        <ele>227.00999999999999</ele>
        <time>2025-05-02T09:30:58Z</time>
      </trkpt>
      <trkpt lat="42.343261996284127" lon="-7.830055011436343">
        <ele>228.44999999999999</ele>
        <time>2025-05-02T09:31:00Z</time>
      </trkpt>
      <trkpt lat="42.343227965757251" lon="-7.830020980909467">
        <ele>228.93000000000001</ele>
        <time>2025-05-02T09:31:01Z</time>
      </trkpt>
      <trkpt lat="42.34316099435091" lon="-7.829955015331507">
        <ele>229.41</ele>
        <time>2025-05-02T09:31:02Z</time>
      </trkpt>
      <trkpt lat="42.343045994639397" lon="-7.829968007281423">
        <ele>229.88999999999999</ele>
        <time>2025-05-02T09:31:03Z</time>
      </trkpt>
      <trkpt lat="42.34292596578598" lon="-7.8297049831599">
        <ele>231.33000000000001</ele>
        <time>2025-05-02T09:31:05Z</time>
      </trkpt>
      <trkpt lat="42.342633018270135" lon="-7.829525023698807">
        <ele>233.74000000000001</ele>
        <time>2025-05-02T09:31:08Z</time>
      </trkpt>
      <trkpt lat="42.342560011893511" lon="-7.829431984573603">
        <ele>234.69999999999999</ele>
        <time>2025-05-02T09:31:09Z</time>
      </trkpt>
      <trkpt lat="42.342499997466803" lon="-7.829323019832373">
        <ele>235.18000000000001</ele>
        <time>2025-05-02T09:31:10Z</time>
      </trkpt>
      <trkpt lat="42.342462027445436" lon="-7.829202990978956">
        <ele>236.13999999999999</ele>
        <time>2025-05-02T09:31:11Z</time>
      </trkpt>
      <trkpt lat="42.342440988868475" lon="-7.829063013195992">
        <ele>237.09999999999999</ele>
        <time>2025-05-02T09:31:12Z</time>
      </trkpt>
      <trkpt lat="42.342433026060462" lon="-7.828909959644079">
        <ele>238.06</ele>
        <time>2025-05-02T09:31:13Z</time>
      </trkpt>
      <trkpt lat="42.342456998303533" lon="-7.828756989911199">
        <ele>239.02000000000001</ele>
        <time>2025-05-02T09:31:14Z</time>
      </trkpt>
      <trkpt lat="42.342541990801692" lon="-7.828271007165313">
        <ele>241.43000000000001</ele>
        <time>2025-05-02T09:31:17Z</time>
      </trkpt>
      <trkpt lat="42.342576021328568" lon="-7.828109990805388">
        <ele>241.91</ele>
        <time>2025-05-02T09:31:18Z</time>
      </trkpt>
      <trkpt lat="42.342588007450104" lon="-7.826842982321978">
        <ele>247.68000000000001</ele>
        <time>2025-05-02T09:31:26Z</time>
      </trkpt>
      <trkpt lat="42.342575015500188" lon="-7.826689006760716">
        <ele>248.63999999999999</ele>
        <time>2025-05-02T09:31:27Z</time>
      </trkpt>
      <trkpt lat="42.342520030215383" lon="-7.826551040634513">
        <ele>249.12</ele>
        <time>2025-05-02T09:31:28Z</time>
      </trkpt>
      <trkpt lat="42.342293970286846" lon="-7.826000014320016">
        <ele>252</ele>
        <time>2025-05-02T09:31:32Z</time>
      </trkpt>
      <trkpt lat="42.342235967516899" lon="-7.825859030708671">
        <ele>252.47999999999999</ele>
        <time>2025-05-02T09:31:33Z</time>
      </trkpt>
      <trkpt lat="42.342202020809054" lon="-7.825712012127042">
        <ele>253.44</ele>
        <time>2025-05-02T09:31:34Z</time>
      </trkpt>
      <trkpt lat="42.342170001938939" lon="-7.82555895857513">
        <ele>253.93000000000001</ele>
        <time>2025-05-02T09:31:35Z</time>
      </trkpt>
      <trkpt lat="42.342183999717236" lon="-7.825410012155771">
        <ele>254.88999999999999</ele>
        <time>2025-05-02T09:31:36Z</time>
      </trkpt>
      <trkpt lat="42.342203026637435" lon="-7.825242038816214">
        <ele>255.37</ele>
        <time>2025-05-02T09:31:37Z</time>
      </trkpt>
      <trkpt lat="42.342222975566983" lon="-7.825075993314385">
        <ele>256.32999999999998</ele>
        <time>2025-05-02T09:31:38Z</time>
      </trkpt>
      <trkpt lat="42.342278966680169" lon="-7.824600990861654">
        <ele>257.76999999999998</ele>
        <time>2025-05-02T09:31:40Z</time>
      </trkpt>
      <trkpt lat="42.342278966680169" lon="-7.824600990861654">
        <ele>258.25</ele>
        <time>2025-05-02T09:31:41Z</time>
      </trkpt>
      <trkpt lat="42.342263963073492" lon="-7.824260015040636">
        <ele>260.17000000000002</ele>
        <time>2025-05-02T09:31:43Z</time>
      </trkpt>
      <trkpt lat="42.342218030244112" lon="-7.824100004509091">
        <ele>261.13999999999999</ele>
        <time>2025-05-02T09:31:44Z</time>
      </trkpt>
      <trkpt lat="42.342109987512231" lon="-7.823809990659356">
        <ele>263.06</ele>
        <time>2025-05-02T09:31:46Z</time>
      </trkpt>
      <trkpt lat="42.342057013884187" lon="-7.82366699539125">
        <ele>264.5</ele>
        <time>2025-05-02T09:31:47Z</time>
      </trkpt>
      <trkpt lat="42.342045027762651" lon="-7.823545960709453">
        <ele>265.94</ele>
        <time>2025-05-02T09:31:48Z</time>
      </trkpt>
      <trkpt lat="42.342055002227426" lon="-7.823426015675068">
        <ele>267.38</ele>
        <time>2025-05-02T09:31:49Z</time>
      </trkpt>
      <trkpt lat="42.342071011662483" lon="-7.823338005691767">
        <ele>268.35000000000002</ele>
        <time>2025-05-02T09:31:50Z</time>
      </trkpt>
      <trkpt lat="42.342121973633766" lon="-7.823235997930169">
        <ele>268.82999999999998</ele>
        <time>2025-05-02T09:31:51Z</time>
      </trkpt>
      <trkpt lat="42.342200009152293" lon="-7.823197022080421">
        <ele>269.79000000000002</ele>
        <time>2025-05-02T09:31:52Z</time>
      </trkpt>
      <trkpt lat="42.342415004968643" lon="-7.823117980733514">
        <ele>270.75</ele>
        <time>2025-05-02T09:31:53Z</time>
      </trkpt>
      <trkpt lat="42.342536961659789" lon="-7.823105994611979">
        <ele>271.23000000000002</ele>
        <time>2025-05-02T09:31:54Z</time>
      </trkpt>
      <trkpt lat="42.342536961659789" lon="-7.823105994611979">
        <ele>272.19</ele>
        <time>2025-05-02T09:31:55Z</time>
      </trkpt>
      <trkpt lat="42.343771029263735" lon="-7.822970962151885">
        <ele>277</ele>
        <time>2025-05-02T09:32:03Z</time>
      </trkpt>
      <trkpt lat="42.34389097429812" lon="-7.822925029322505">
        <ele>277</ele>
        <time>2025-05-02T09:32:04Z</time>
      </trkpt>
      <trkpt lat="42.343999017030001" lon="-7.822865014895797">
        <ele>276.51999999999998</ele>
        <time>2025-05-02T09:32:05Z</time>
      </trkpt>
      <trkpt lat="42.344103958457708" lon="-7.822805000469089">
        <ele>276.51999999999998</ele>
        <time>2025-05-02T09:32:06Z</time>
      </trkpt>
      <trkpt lat="42.344144023954868" lon="-7.822630992159247">
        <ele>276.51999999999998</ele>
        <time>2025-05-02T09:32:07Z</time>
      </trkpt>
      <trkpt lat="42.344204038381577" lon="-7.822513980790973">
        <ele>276.51999999999998</ele>
        <time>2025-05-02T09:32:08Z</time>
      </trkpt>
      <trkpt lat="42.344263968989253" lon="-7.822396969422698">
        <ele>277</ele>
        <time>2025-05-02T09:32:09Z</time>
      </trkpt>
      <trkpt lat="42.344329012557864" lon="-7.82227098941803">
        <ele>277.48000000000002</ele>
        <time>2025-05-02T09:32:10Z</time>
      </trkpt>
      <trkpt lat="42.344394978135824" lon="-7.82214199192822">
        <ele>277.95999999999998</ele>
        <time>2025-05-02T09:32:11Z</time>
      </trkpt>
      <trkpt lat="42.344394978135824" lon="-7.82214199192822">
        <ele>278.44</ele>
        <time>2025-05-02T09:32:12Z</time>
      </trkpt>
      <trkpt lat="42.344442000612617" lon="-7.821978963911533">
        <ele>278.92000000000002</ele>
        <time>2025-05-02T09:32:13Z</time>
      </trkpt>
      <trkpt lat="42.344453986734152" lon="-7.821805039420724">
        <ele>278.92000000000002</ele>
        <time>2025-05-02T09:32:14Z</time>
      </trkpt>
      <trkpt lat="42.344466978684068" lon="-7.821616027504206">
        <ele>279.39999999999998</ele>
        <time>2025-05-02T09:32:15Z</time>
      </trkpt>
      <trkpt lat="42.344669988378882" lon="-7.819735966622829">
        <ele>283.73000000000002</ele>
        <time>2025-05-02T09:32:24Z</time>
      </trkpt>
      <trkpt lat="42.344778031110764" lon="-7.819364983588457">
        <ele>284.69</ele>
        <time>2025-05-02T09:32:26Z</time>
      </trkpt>
      <trkpt lat="42.344842990860343" lon="-7.819202039390802">
        <ele>284.69</ele>
        <time>2025-05-02T09:32:27Z</time>
      </trkpt>
      <trkpt lat="42.344905016943812" lon="-7.81904898583889">
        <ele>285.17000000000002</ele>
        <time>2025-05-02T09:32:28Z</time>
      </trkpt>
      <trkpt lat="42.345560984686017" lon="-7.817902006208897">
        <ele>290.45999999999998</ele>
        <time>2025-05-02T09:32:37Z</time>
      </trkpt>
      <trkpt lat="42.345925010740757" lon="-7.816948983818293">
        <ele>295.25999999999999</ele>
        <time>2025-05-02T09:32:45Z</time>
      </trkpt>
      <trkpt lat="42.346031963825226" lon="-7.816483033820987">
        <ele>297.67000000000002</ele>
        <time>2025-05-02T09:32:48Z</time>
      </trkpt>
      <trkpt lat="42.346093989908695" lon="-7.816171981394291">
        <ele>299.58999999999997</ele>
        <time>2025-05-02T09:32:50Z</time>
      </trkpt>
      <trkpt lat="42.346076974645257" lon="-7.815994033589959">
        <ele>301.02999999999997</ele>
        <time>2025-05-02T09:32:51Z</time>
      </trkpt>
      <trkpt lat="42.34606197103858" lon="-7.815835028886795">
        <ele>301.99000000000001</ele>
        <time>2025-05-02T09:32:52Z</time>
      </trkpt>
      <trkpt lat="42.346041016280651" lon="-7.815690021961927">
        <ele>302.94999999999999</ele>
        <time>2025-05-02T09:32:53Z</time>
      </trkpt>
      <trkpt lat="42.345993993803859" lon="-7.815550966188312">
        <ele>303.91000000000003</ele>
        <time>2025-05-02T09:32:54Z</time>
      </trkpt>
      <trkpt lat="42.345626028254628" lon="-7.814657036215067">
        <ele>310.16000000000003</ele>
        <time>2025-05-02T09:33:02Z</time>
      </trkpt>
      <trkpt lat="42.345581017434597" lon="-7.814565002918243">
        <ele>311.12</ele>
        <time>2025-05-02T09:33:03Z</time>
      </trkpt>
      <trkpt lat="42.345535000786185" lon="-7.814474981278181">
        <ele>311.12</ele>
        <time>2025-05-02T09:33:04Z</time>
      </trkpt>
      <trkpt lat="42.345568025484681" lon="-7.8143410384655">
        <ele>311.60000000000002</ele>
        <time>2025-05-02T09:33:05Z</time>
      </trkpt>
      <trkpt lat="42.345574982464314" lon="-7.814230984076858">
        <ele>311.60000000000002</ele>
        <time>2025-05-02T09:33:06Z</time>
      </trkpt>
      <trkpt lat="42.345573976635933" lon="-7.814103998243809">
        <ele>311.60000000000002</ele>
        <time>2025-05-02T09:33:07Z</time>
      </trkpt>
      <trkpt lat="42.345561990514398" lon="-7.813983969390392">
        <ele>311.12</ele>
        <time>2025-05-02T09:33:08Z</time>
      </trkpt>
      <trkpt lat="42.345547992736101" lon="-7.813853966072202">
        <ele>310.63999999999999</ele>
        <time>2025-05-02T09:33:09Z</time>
      </trkpt>
      <trkpt lat="42.345482027158141" lon="-7.813116023316979">
        <ele>307.75999999999999</ele>
        <time>2025-05-02T09:33:14Z</time>
      </trkpt>
      <trkpt lat="42.345503987744451" lon="-7.812336003407836">
        <ele>304.88</ele>
        <time>2025-05-02T09:33:18Z</time>
      </trkpt>
      <trkpt lat="42.345512034371495" lon="-7.81217297539115">
        <ele>303.91000000000003</ele>
        <time>2025-05-02T09:33:19Z</time>
      </trkpt>
      <trkpt lat="42.345532989129424" lon="-7.811730997636914">
        <ele>301.02999999999997</ele>
        <time>2025-05-02T09:33:22Z</time>
      </trkpt>
      <trkpt lat="42.345556039363146" lon="-7.811598982661963">
        <ele>300.06999999999999</ele>
        <time>2025-05-02T09:33:23Z</time>
      </trkpt>
      <trkpt lat="42.345597026869655" lon="-7.811464034020901">
        <ele>299.11000000000001</ele>
        <time>2025-05-02T09:33:24Z</time>
      </trkpt>
      <trkpt lat="42.345666009932756" lon="-7.811340987682343">
        <ele>297.67000000000002</ele>
        <time>2025-05-02T09:33:25Z</time>
      </trkpt>
      <trkpt lat="42.345739016309381" lon="-7.811216013506055">
        <ele>296.69999999999999</ele>
        <time>2025-05-02T09:33:26Z</time>
      </trkpt>
      <trkpt lat="42.346108993515372" lon="-7.810642020776868">
        <ele>291.89999999999998</ele>
        <time>2025-05-02T09:33:31Z</time>
      </trkpt>
      <trkpt lat="42.346198009327054" lon="-7.810553004965186">
        <ele>290.94</ele>
        <time>2025-05-02T09:33:32Z</time>
      </trkpt>
      <trkpt lat="42.346287025138736" lon="-7.810464994981885">
        <ele>289.97000000000003</ele>
        <time>2025-05-02T09:33:33Z</time>
      </trkpt>
      <trkpt lat="42.346374029293656" lon="-7.810376984998584">
        <ele>289.00999999999999</ele>
        <time>2025-05-02T09:33:34Z</time>
      </trkpt>
      <trkpt lat="42.346462039276958" lon="-7.810289980843663">
        <ele>288.05000000000001</ele>
        <time>2025-05-02T09:33:35Z</time>
      </trkpt>
      <trkpt lat="42.346544014289975" lon="-7.810208005830646">
        <ele>287.08999999999997</ele>
        <time>2025-05-02T09:33:36Z</time>
      </trkpt>
      <trkpt lat="42.346611991524696" lon="-7.810125024989247">
        <ele>286.61000000000001</ele>
        <time>2025-05-02T09:33:37Z</time>
      </trkpt>
      <trkpt lat="42.346637975424528" lon="-7.809998039156199">
        <ele>285.64999999999998</ele>
        <time>2025-05-02T09:33:38Z</time>
      </trkpt>
      <trkpt lat="42.346663037315011" lon="-7.809870969504118">
        <ele>284.20999999999998</ele>
        <time>2025-05-02T09:33:40Z</time>
      </trkpt>
      <trkpt lat="42.346666976809502" lon="-7.809739038348198">
        <ele>283.73000000000002</ele>
        <time>2025-05-02T09:33:41Z</time>
      </trkpt>
      <trkpt lat="42.346651973202825" lon="-7.809111988171935">
        <ele>280.83999999999997</ele>
        <time>2025-05-02T09:33:45Z</time>
      </trkpt>
      <trkpt lat="42.346703018993139" lon="-7.809044010937214">
        <ele>279.88</ele>
        <time>2025-05-02T09:33:46Z</time>
      </trkpt>
      <trkpt lat="42.346755992621183" lon="-7.808973016217351">
        <ele>278.92000000000002</ele>
        <time>2025-05-02T09:33:47Z</time>
      </trkpt>
      <trkpt lat="42.34683402813971" lon="-7.808934962376952">
        <ele>278.44</ele>
        <time>2025-05-02T09:33:48Z</time>
      </trkpt>
      <trkpt lat="42.34692002646625" lon="-7.808924987912178">
        <ele>277.95999999999998</ele>
        <time>2025-05-02T09:33:49Z</time>
      </trkpt>
      <trkpt lat="42.347003007307649" lon="-7.808923982083798">
        <ele>277.48000000000002</ele>
        <time>2025-05-02T09:33:50Z</time>
      </trkpt>
      <trkpt lat="42.347103003412485" lon="-7.808940997347236">
        <ele>277</ele>
        <time>2025-05-02T09:33:51Z</time>
      </trkpt>
      <trkpt lat="42.347183972597122" lon="-7.808977961540222">
        <ele>277</ele>
        <time>2025-05-02T09:33:52Z</time>
      </trkpt>
      <trkpt lat="42.347272988408804" lon="-7.809018027037382">
        <ele>277.48000000000002</ele>
        <time>2025-05-02T09:33:53Z</time>
      </trkpt>
      <trkpt lat="42.347370972856879" lon="-7.80903697013855">
        <ele>277.48000000000002</ele>
        <time>2025-05-02T09:33:54Z</time>
      </trkpt>
      <trkpt lat="42.347455965355039" lon="-7.809008974581957">
        <ele>277.95999999999998</ele>
        <time>2025-05-02T09:33:55Z</time>
      </trkpt>
      <trkpt lat="42.347561996430159" lon="-7.808861033990979">
        <ele>278.44</ele>
        <time>2025-05-02T09:33:57Z</time>
      </trkpt>
      <trkpt lat="42.34758697450161" lon="-7.808755002915859">
        <ele>278.92000000000002</ele>
        <time>2025-05-02T09:33:58Z</time>
      </trkpt>
      <trkpt lat="42.347639026120305" lon="-7.808532966300845">
        <ele>279.88</ele>
        <time>2025-05-02T09:34:00Z</time>
      </trkpt>
      <trkpt lat="42.347688982263207" lon="-7.808432970196009">
        <ele>280.36000000000001</ele>
        <time>2025-05-02T09:34:01Z</time>
      </trkpt>
      <trkpt lat="42.347742961719632" lon="-7.808325011283159">
        <ele>280.83999999999997</ele>
        <time>2025-05-02T09:34:02Z</time>
      </trkpt>
      <trkpt lat="42.347808005288243" lon="-7.808216968551278">
        <ele>281.31999999999999</ele>
        <time>2025-05-02T09:34:03Z</time>
      </trkpt>
      <trkpt lat="42.347896015271544" lon="-7.808146979659796">
        <ele>282.76999999999998</ele>
        <time>2025-05-02T09:34:04Z</time>
      </trkpt>
      <trkpt lat="42.347987964749336" lon="-7.808072967454791">
        <ele>283.73000000000002</ele>
        <time>2025-05-02T09:34:05Z</time>
      </trkpt>
      <trkpt lat="42.348101958632469" lon="-7.808030974119902">
        <ele>284.69</ele>
        <time>2025-05-02T09:34:06Z</time>
      </trkpt>
      <trkpt lat="42.348202960565686" lon="-7.808000966906548">
        <ele>286.13</ele>
        <time>2025-05-02T09:34:07Z</time>
      </trkpt>
      <trkpt lat="42.348307985812426" lon="-7.807969031855464">
        <ele>287.56999999999999</ele>
        <time>2025-05-02T09:34:08Z</time>
      </trkpt>
      <trkpt lat="42.348417034372687" lon="-7.807937012985349">
        <ele>288.52999999999997</ele>
        <time>2025-05-02T09:34:09Z</time>
      </trkpt>
      <trkpt lat="42.348594982177019" lon="-7.807860989123583">
        <ele>291.42000000000002</ele>
        <time>2025-05-02T09:34:12Z</time>
      </trkpt>
      <trkpt lat="42.348662037402391" lon="-7.807803992182016">
        <ele>292.38</ele>
        <time>2025-05-02T09:34:13Z</time>
      </trkpt>
      <trkpt lat="42.348711993545294" lon="-7.807759987190366">
        <ele>292.86000000000001</ele>
        <time>2025-05-02T09:34:14Z</time>
      </trkpt>
      <trkpt lat="42.348711993545294" lon="-7.80768102966249">
        <ele>293.81999999999999</ele>
        <time>2025-05-02T09:34:15Z</time>
      </trkpt>
      <trkpt lat="42.348711993545294" lon="-7.807545997202396">
        <ele>294.30000000000001</ele>
        <time>2025-05-02T09:34:16Z</time>
      </trkpt>
      <trkpt lat="42.348671006038785" lon="-7.807498974725604">
        <ele>294.77999999999997</ele>
        <time>2025-05-02T09:34:17Z</time>
      </trkpt>
      <trkpt lat="42.348597999662161" lon="-7.807415993884206">
        <ele>295.74000000000001</ele>
        <time>2025-05-02T09:34:18Z</time>
      </trkpt>
      <trkpt lat="42.348219975829124" lon="-7.80688701197505">
        <ele>298.63</ele>
        <time>2025-05-02T09:34:23Z</time>
      </trkpt>
      <trkpt lat="42.347825020551682" lon="-7.806119984015822">
        <ele>303.43000000000001</ele>
        <time>2025-05-02T09:34:29Z</time>
      </trkpt>
      <trkpt lat="42.34687702730298" lon="-7.80491097830236">
        <ele>316.41000000000003</ele>
        <time>2025-05-02T09:34:40Z</time>
      </trkpt>
      <trkpt lat="42.346594976261258" lon="-7.804614007472992">
        <ele>319.77999999999997</ele>
        <time>2025-05-02T09:34:43Z</time>
      </trkpt>
      <trkpt lat="42.34653303399682" lon="-7.804495990276337">
        <ele>320.25999999999999</ele>
        <time>2025-05-02T09:34:44Z</time>
      </trkpt>
      <trkpt lat="42.346493974328041" lon="-7.804388031363487">
        <ele>320.74000000000001</ele>
        <time>2025-05-02T09:34:45Z</time>
      </trkpt>
      <trkpt lat="42.346474025398493" lon="-7.80426699668169">
        <ele>321.69999999999999</ele>
        <time>2025-05-02T09:34:46Z</time>
      </trkpt>
      <trkpt lat="42.346462961286306" lon="-7.804143028333783">
        <ele>321.69999999999999</ele>
        <time>2025-05-02T09:34:47Z</time>
      </trkpt>
      <trkpt lat="42.346480982378125" lon="-7.804001960903406">
        <ele>322.18000000000001</ele>
        <time>2025-05-02T09:34:48Z</time>
      </trkpt>
      <trkpt lat="42.346692038699985" lon="-7.803107025101781">
        <ele>322.18000000000001</ele>
        <time>2025-05-02T09:34:56Z</time>
      </trkpt>
      <trkpt lat="42.346751969307661" lon="-7.802936034277082">
        <ele>322.18000000000001</ele>
        <time>2025-05-02T09:34:58Z</time>
      </trkpt>
      <trkpt lat="42.346782982349396" lon="-7.802850035950542">
        <ele>322.18000000000001</ele>
        <time>2025-05-02T09:34:59Z</time>
      </trkpt>
      <trkpt lat="42.347425036132336" lon="-7.80175200663507">
        <ele>321.69999999999999</ele>
        <time>2025-05-02T09:35:10Z</time>
      </trkpt>
      <trkpt lat="42.347831977531314" lon="-7.801386974751949">
        <ele>322.18000000000001</ele>
        <time>2025-05-02T09:35:15Z</time>
      </trkpt>
      <trkpt lat="42.34788503497839" lon="-7.801282033324242">
        <ele>322.66000000000003</ele>
        <time>2025-05-02T09:35:16Z</time>
      </trkpt>
      <trkpt lat="42.347926022484899" lon="-7.801198968663812">
        <ele>322.66000000000003</ele>
        <time>2025-05-02T09:35:17Z</time>
      </trkpt>
      <trkpt lat="42.347940020263195" lon="-7.801114981994033">
        <ele>322.66000000000003</ele>
        <time>2025-05-02T09:35:18Z</time>
      </trkpt>
      <trkpt lat="42.347913030534983" lon="-7.801034012809396">
        <ele>323.13999999999999</ele>
        <time>2025-05-02T09:35:19Z</time>
      </trkpt>
      <trkpt lat="42.347781015560031" lon="-7.800918007269502">
        <ele>323.62</ele>
        <time>2025-05-02T09:35:20Z</time>
      </trkpt>
      <trkpt lat="42.347781015560031" lon="-7.800918007269502">
        <ele>323.62</ele>
        <time>2025-05-02T09:35:21Z</time>
      </trkpt>
      <trkpt lat="42.347582029178739" lon="-7.800843995064497">
        <ele>324.57999999999998</ele>
        <time>2025-05-02T09:35:23Z</time>
      </trkpt>
      <trkpt lat="42.347485972568393" lon="-7.800795966759324">
        <ele>325.54000000000002</ele>
        <time>2025-05-02T09:35:24Z</time>
      </trkpt>
      <trkpt lat="42.347408020868897" lon="-7.80072002671659">
        <ele>326.01999999999998</ele>
        <time>2025-05-02T09:35:25Z</time>
      </trkpt>
      <trkpt lat="42.347261002287269" lon="-7.800536965951324">
        <ele>326.5</ele>
        <time>2025-05-02T09:35:26Z</time>
      </trkpt>
      <trkpt lat="42.347197970375419" lon="-7.800433030351996">
        <ele>327.47000000000003</ele>
        <time>2025-05-02T09:35:27Z</time>
      </trkpt>
      <trkpt lat="42.347197970375419" lon="-7.800433030351996">
        <ele>327.94999999999999</ele>
        <time>2025-05-02T09:35:28Z</time>
      </trkpt>
      <trkpt lat="42.346969982609153" lon="-7.800007984042168">
        <ele>331.31</ele>
        <time>2025-05-02T09:35:32Z</time>
      </trkpt>
      <trkpt lat="42.346943998709321" lon="-7.799911005422473">
        <ele>331.79000000000002</ele>
        <time>2025-05-02T09:35:33Z</time>
      </trkpt>
      <trkpt lat="42.346931006759405" lon="-7.799812015146017">
        <ele>332.26999999999998</ele>
        <time>2025-05-02T09:35:34Z</time>
      </trkpt>
      <trkpt lat="42.346931006759405" lon="-7.799714030697942">
        <ele>333.23000000000002</ele>
        <time>2025-05-02T09:35:35Z</time>
      </trkpt>
      <trkpt lat="42.346980040892959" lon="-7.7996039763093">
        <ele>333.70999999999998</ele>
        <time>2025-05-02T09:35:36Z</time>
      </trkpt>
      <trkpt lat="42.347026979550719" lon="-7.799500962719321">
        <ele>334.19999999999999</ele>
        <time>2025-05-02T09:35:37Z</time>
      </trkpt>
      <trkpt lat="42.34730701893568" lon="-7.798966029658914">
        <ele>338.51999999999998</ele>
        <time>2025-05-02T09:35:42Z</time>
      </trkpt>
      <trkpt lat="42.347378013655543" lon="-7.798879025503993">
        <ele>339.48000000000002</ele>
        <time>2025-05-02T09:35:43Z</time>
      </trkpt>
      <trkpt lat="42.347450014203787" lon="-7.798792021349073">
        <ele>339.95999999999998</ele>
        <time>2025-05-02T09:35:44Z</time>
      </trkpt>
      <trkpt lat="42.347526960074902" lon="-7.798717003315687">
        <ele>340.92000000000002</ele>
        <time>2025-05-02T09:35:45Z</time>
      </trkpt>
      <trkpt lat="42.347684036940336" lon="-7.798579959198833">
        <ele>341.88999999999999</ele>
        <time>2025-05-02T09:35:46Z</time>
      </trkpt>
      <trkpt lat="42.347815968096256" lon="-7.798436963930726">
        <ele>343.81</ele>
        <time>2025-05-02T09:35:48Z</time>
      </trkpt>
      <trkpt lat="42.347836000844836" lon="-7.798319030553103">
        <ele>344.76999999999998</ele>
        <time>2025-05-02T09:35:49Z</time>
      </trkpt>
      <trkpt lat="42.347852010279894" lon="-7.798189027234912">
        <ele>346.20999999999998</ele>
        <time>2025-05-02T09:35:50Z</time>
      </trkpt>
      <trkpt lat="42.347840024158359" lon="-7.79805600643158">
        <ele>347.17000000000002</ele>
        <time>2025-05-02T09:35:51Z</time>
      </trkpt>
      <trkpt lat="42.347825020551682" lon="-7.797689968720079">
        <ele>350.54000000000002</ele>
        <time>2025-05-02T09:35:54Z</time>
      </trkpt>
      <trkpt lat="42.347849998623133" lon="-7.797601036727428">
        <ele>351.5</ele>
        <time>2025-05-02T09:35:55Z</time>
      </trkpt>
      <trkpt lat="42.347900960594416" lon="-7.797542028129101">
        <ele>352.45999999999998</ele>
        <time>2025-05-02T09:35:56Z</time>
      </trkpt>
      <trkpt lat="42.347953012213111" lon="-7.797505985945463">
        <ele>353.42000000000002</ele>
        <time>2025-05-02T09:35:57Z</time>
      </trkpt>
      <trkpt lat="42.347953012213111" lon="-7.797505985945463">
        <ele>353.89999999999998</ele>
        <time>2025-05-02T09:35:58Z</time>
      </trkpt>
      <trkpt lat="42.348095001652837" lon="-7.797544039785862">
        <ele>354.86000000000001</ele>
        <time>2025-05-02T09:35:59Z</time>
      </trkpt>
      <trkpt lat="42.348169013857841" lon="-7.797596007585526">
        <ele>355.33999999999997</ele>
        <time>2025-05-02T09:36:00Z</time>
      </trkpt>
      <trkpt lat="42.348327012732625" lon="-7.797707989811897">
        <ele>356.79000000000002</ele>
        <time>2025-05-02T09:36:02Z</time>
      </trkpt>
      <trkpt lat="42.348520969972014" lon="-7.797812009230256">
        <ele>358.70999999999998</ele>
        <time>2025-05-02T09:36:04Z</time>
      </trkpt>
      <trkpt lat="42.348622977733612" lon="-7.797846039757133">
        <ele>359.67000000000002</ele>
        <time>2025-05-02T09:36:05Z</time>
      </trkpt>
      <trkpt lat="42.348735965788364" lon="-7.797844028100371">
        <ele>360.63</ele>
        <time>2025-05-02T09:36:06Z</time>
      </trkpt>
      <trkpt lat="42.348735965788364" lon="-7.797844028100371">
        <ele>361.11000000000001</ele>
        <time>2025-05-02T09:36:07Z</time>
      </trkpt>
      <trkpt lat="42.34883202239871" lon="-7.797793988138437">
        <ele>362.06999999999999</ele>
        <time>2025-05-02T09:36:08Z</time>
      </trkpt>
      <trkpt lat="42.348934030160308" lon="-7.797740008682013">
        <ele>363.04000000000002</ele>
        <time>2025-05-02T09:36:09Z</time>
      </trkpt>
      <trkpt lat="42.349036037921906" lon="-7.797686029225588">
        <ele>364</ele>
        <time>2025-05-02T09:36:10Z</time>
      </trkpt>
      <trkpt lat="42.349137961864471" lon="-7.797646969556809">
        <ele>364.95999999999998</ele>
        <time>2025-05-02T09:36:11Z</time>
      </trkpt>
      <trkpt lat="42.349247010424733" lon="-7.797629032284021">
        <ele>365.44</ele>
        <time>2025-05-02T09:36:12Z</time>
      </trkpt>
      <trkpt lat="42.349355975165963" lon="-7.797611011192203">
        <ele>366.39999999999998</ele>
        <time>2025-05-02T09:36:13Z</time>
      </trkpt>
      <trkpt lat="42.349458988755941" lon="-7.797550996765494">
        <ele>366.88</ele>
        <time>2025-05-02T09:36:14Z</time>
      </trkpt>
      <trkpt lat="42.349566025659442" lon="-7.797487964853644">
        <ele>367.83999999999997</ele>
        <time>2025-05-02T09:36:15Z</time>
      </trkpt>
      <trkpt lat="42.349930973723531" lon="-7.797119999304414">
        <ele>372.17000000000002</ele>
        <time>2025-05-02T09:36:19Z</time>
      </trkpt>
      <trkpt lat="42.350003980100155" lon="-7.797017991542816">
        <ele>372.64999999999998</ele>
        <time>2025-05-02T09:36:20Z</time>
      </trkpt>
      <trkpt lat="42.350072963163257" lon="-7.796924030408263">
        <ele>373.61000000000001</ele>
        <time>2025-05-02T09:36:21Z</time>
      </trkpt>
      <trkpt lat="42.350129960104823" lon="-7.796843983232975">
        <ele>374.56999999999999</ele>
        <time>2025-05-02T09:36:22Z</time>
      </trkpt>
      <trkpt lat="42.35014203004539" lon="-7.796751027926803">
        <ele>375.05000000000001</ele>
        <time>2025-05-02T09:36:23Z</time>
      </trkpt>
      <trkpt lat="42.350133983418345" lon="-7.79668003320694">
        <ele>376.00999999999999</ele>
        <time>2025-05-02T09:36:24Z</time>
      </trkpt>
      <trkpt lat="42.350075980648398" lon="-7.796611972153187">
        <ele>376.49000000000001</ele>
        <time>2025-05-02T09:36:25Z</time>
      </trkpt>
      <trkpt lat="42.350004985928535" lon="-7.796595962718129">
        <ele>376.97000000000003</ele>
        <time>2025-05-02T09:36:26Z</time>
      </trkpt>
      <trkpt lat="42.349920999258757" lon="-7.796577019616962">
        <ele>377.94</ele>
        <time>2025-05-02T09:36:27Z</time>
      </trkpt>
      <trkpt lat="42.349827960133553" lon="-7.796555981040001">
        <ele>378.42000000000002</ele>
        <time>2025-05-02T09:36:28Z</time>
      </trkpt>
      <trkpt lat="42.349729975685477" lon="-7.796534020453692">
        <ele>378.89999999999998</ele>
        <time>2025-05-02T09:36:29Z</time>
      </trkpt>
      <trkpt lat="42.349635008722544" lon="-7.796503007411957">
        <ele>379.86000000000001</ele>
        <time>2025-05-02T09:36:30Z</time>
      </trkpt>
      <trkpt lat="42.34926201403141" lon="-7.796270996332169">
        <ele>382.74000000000001</ele>
        <time>2025-05-02T09:36:34Z</time>
      </trkpt>
      <trkpt lat="42.349169980734587" lon="-7.796212993562222">
        <ele>383.22000000000003</ele>
        <time>2025-05-02T09:36:35Z</time>
      </trkpt>
      <trkpt lat="42.34908901154995" lon="-7.796133030205965">
        <ele>383.69999999999999</ele>
        <time>2025-05-02T09:36:36Z</time>
      </trkpt>
      <trkpt lat="42.349010976031423" lon="-7.796040996909142">
        <ele>384.66000000000003</ele>
        <time>2025-05-02T09:36:37Z</time>
      </trkpt>
      <trkpt lat="42.348935035988688" lon="-7.79595198109746">
        <ele>385.63</ele>
        <time>2025-05-02T09:36:38Z</time>
      </trkpt>
      <trkpt lat="42.348880972713232" lon="-7.79584402218461">
        <ele>386.11000000000001</ele>
        <time>2025-05-02T09:36:39Z</time>
      </trkpt>
      <trkpt lat="42.348839985206723" lon="-7.795719970017672">
        <ele>387.06999999999999</ele>
        <time>2025-05-02T09:36:40Z</time>
      </trkpt>
      <trkpt lat="42.348795980215073" lon="-7.7955889608711">
        <ele>388.02999999999997</ele>
        <time>2025-05-02T09:36:41Z</time>
      </trkpt>
      <trkpt lat="42.348755998536944" lon="-7.795454012230039">
        <ele>388.99000000000001</ele>
        <time>2025-05-02T09:36:42Z</time>
      </trkpt>
      <trkpt lat="42.348717022687197" lon="-7.79530699364841">
        <ele>389.47000000000003</ele>
        <time>2025-05-02T09:36:43Z</time>
      </trkpt>
      <trkpt lat="42.348662037402391" lon="-7.795169027522206">
        <ele>390.43000000000001</ele>
        <time>2025-05-02T09:36:44Z</time>
      </trkpt>
      <trkpt lat="42.348577966913581" lon="-7.795056039467454">
        <ele>390.91000000000003</ele>
        <time>2025-05-02T09:36:45Z</time>
      </trkpt>
      <trkpt lat="42.348495991900563" lon="-7.794944979250431">
        <ele>391.87</ele>
        <time>2025-05-02T09:36:46Z</time>
      </trkpt>
      <trkpt lat="42.348418040201068" lon="-7.794839031994343">
        <ele>392.83999999999997</ele>
        <time>2025-05-02T09:36:47Z</time>
      </trkpt>
      <trkpt lat="42.348345033824444" lon="-7.794740963727236">
        <ele>393.80000000000001</ele>
        <time>2025-05-02T09:36:48Z</time>
      </trkpt>
      <trkpt lat="42.348308991640806" lon="-7.794628981500864">
        <ele>394.27999999999997</ele>
        <time>2025-05-02T09:36:49Z</time>
      </trkpt>
      <trkpt lat="42.348282001912594" lon="-7.794495960697532">
        <ele>395.24000000000001</ele>
        <time>2025-05-02T09:36:50Z</time>
      </trkpt>
      <trkpt lat="42.348261969164014" lon="-7.794359000399709">
        <ele>395.24000000000001</ele>
        <time>2025-05-02T09:36:51Z</time>
      </trkpt>
      <trkpt lat="42.348282001912594" lon="-7.79371602460742">
        <ele>394.75999999999999</ele>
        <time>2025-05-02T09:36:55Z</time>
      </trkpt>
      <trkpt lat="42.348347967490554" lon="-7.791921962052584">
        <ele>391.87</ele>
        <time>2025-05-02T09:37:06Z</time>
      </trkpt>
      <trkpt lat="42.348363976925611" lon="-7.791432039812207">
        <ele>391.38999999999999</ele>
        <time>2025-05-02T09:37:09Z</time>
      </trkpt>
      <trkpt lat="42.348365988582373" lon="-7.791271023452282">
        <ele>391.38999999999999</ele>
        <time>2025-05-02T09:37:10Z</time>
      </trkpt>
      <trkpt lat="42.348332041874528" lon="-7.791153006255627">
        <ele>391.38999999999999</ele>
        <time>2025-05-02T09:37:11Z</time>
      </trkpt>
      <trkpt lat="42.348274039104581" lon="-7.791067007929087">
        <ele>391.38999999999999</ele>
        <time>2025-05-02T09:37:12Z</time>
      </trkpt>
      <trkpt lat="42.348196003586054" lon="-7.791018979623914">
        <ele>391.87</ele>
        <time>2025-05-02T09:37:13Z</time>
      </trkpt>
      <trkpt lat="42.348107993602753" lon="-7.791011016815901">
        <ele>392.83999999999997</ele>
        <time>2025-05-02T09:37:14Z</time>
      </trkpt>
      <trkpt lat="42.348012020811439" lon="-7.791002970188856">
        <ele>393.31999999999999</ele>
        <time>2025-05-02T09:37:15Z</time>
      </trkpt>
      <trkpt lat="42.347919987514615" lon="-7.790987966582179">
        <ele>393.80000000000001</ele>
        <time>2025-05-02T09:37:16Z</time>
      </trkpt>
      <trkpt lat="42.347831977531314" lon="-7.790972962975502">
        <ele>394.75999999999999</ele>
        <time>2025-05-02T09:37:17Z</time>
      </trkpt>
      <trkpt lat="42.347745979204774" lon="-7.790958965197206">
        <ele>395.24000000000001</ele>
        <time>2025-05-02T09:37:18Z</time>
      </trkpt>
      <trkpt lat="42.347702980041504" lon="-7.790890987962484">
        <ele>396.19999999999999</ele>
        <time>2025-05-02T09:37:19Z</time>
      </trkpt>
      <trkpt lat="42.347639026120305" lon="-7.790793003514409">
        <ele>396.68000000000001</ele>
        <time>2025-05-02T09:37:20Z</time>
      </trkpt>
      <trkpt lat="42.347573982551694" lon="-7.790692001581192">
        <ele>397.16000000000003</ele>
        <time>2025-05-02T09:37:21Z</time>
      </trkpt>
      <trkpt lat="42.347365021705627" lon="-7.790233008563519">
        <ele>400.52999999999997</ele>
        <time>2025-05-02T09:37:25Z</time>
      </trkpt>
      <trkpt lat="42.347320010885596" lon="-7.79010602273047">
        <ele>401.00999999999999</ele>
        <time>2025-05-02T09:37:26Z</time>
      </trkpt>
      <trkpt lat="42.347075007855892" lon="-7.789415018633008">
        <ele>403.88999999999999</ele>
        <time>2025-05-02T09:37:32Z</time>
      </trkpt>
      <trkpt lat="42.347060004249215" lon="-7.789371013641357">
        <ele>404.85000000000002</ele>
        <time>2025-05-02T09:37:33Z</time>
      </trkpt>
      <trkpt lat="42.347072996199131" lon="-7.789237992838025">
        <ele>405.32999999999998</ele>
        <time>2025-05-02T09:37:34Z</time>
      </trkpt>
      <trkpt lat="42.347081964835525" lon="-7.789156017825007">
        <ele>405.32999999999998</ele>
        <time>2025-05-02T09:37:35Z</time>
      </trkpt>
      <trkpt lat="42.347144996747375" lon="-7.789086028933525">
        <ele>405.81</ele>
        <time>2025-05-02T09:37:36Z</time>
      </trkpt>
      <trkpt lat="42.347214985638857" lon="-7.789007993414998">
        <ele>405.81</ele>
        <time>2025-05-02T09:37:37Z</time>
      </trkpt>
      <trkpt lat="42.348325001075864" lon="-7.787908958271146">
        <ele>405.81</ele>
        <time>2025-05-02T09:37:48Z</time>
      </trkpt>
      <trkpt lat="42.348898993805051" lon="-7.78742004185915">
        <ele>405.81</ele>
        <time>2025-05-02T09:37:56Z</time>
      </trkpt>
      <trkpt lat="42.348923971876502" lon="-7.787329014390707">
        <ele>406.29000000000002</ele>
        <time>2025-05-02T09:37:57Z</time>
      </trkpt>
      <trkpt lat="42.348919026553631" lon="-7.787179984152317">
        <ele>406.29000000000002</ele>
        <time>2025-05-02T09:37:58Z</time>
      </trkpt>
      <trkpt lat="42.348905028775334" lon="-7.786049013957381">
        <ele>404.37</ele>
        <time>2025-05-02T09:38:07Z</time>
      </trkpt>
      <trkpt lat="42.348777959123254" lon="-7.784037021920085">
        <ele>400.52999999999997</ele>
        <time>2025-05-02T09:38:16Z</time>
      </trkpt>
      <trkpt lat="42.348744012415409" lon="-7.78383401222527">
        <ele>400.52999999999997</ele>
        <time>2025-05-02T09:38:18Z</time>
      </trkpt>
      <trkpt lat="42.348342016339302" lon="-7.781570982187986">
        <ele>401.49000000000001</ele>
        <time>2025-05-02T09:38:29Z</time>
      </trkpt>
      <trkpt lat="42.348313014954329" lon="-7.781383981928229">
        <ele>401.49000000000001</ele>
        <time>2025-05-02T09:38:30Z</time>
      </trkpt>
      <trkpt lat="42.348304968327284" lon="-7.781016016378999">
        <ele>401.49000000000001</ele>
        <time>2025-05-02T09:38:32Z</time>
      </trkpt>
      <trkpt lat="42.348398007452488" lon="-7.780328029766679">
        <ele>400.52999999999997</ele>
        <time>2025-05-02T09:38:37Z</time>
      </trkpt>
      <trkpt lat="42.348412005230784" lon="-7.780251000076532">
        <ele>400.52999999999997</ele>
        <time>2025-05-02T09:38:38Z</time>
      </trkpt>
      <trkpt lat="42.348421979695559" lon="-7.780198026448488">
        <ele>400.05000000000001</ele>
        <time>2025-05-02T09:38:39Z</time>
      </trkpt>
      <trkpt lat="42.348429020494223" lon="-7.780161984264851">
        <ele>400.05000000000001</ele>
        <time>2025-05-02T09:38:40Z</time>
      </trkpt>
      <trkpt lat="42.348434971645474" lon="-7.780128959566355">
        <ele>399.56999999999999</ele>
        <time>2025-05-02T09:38:41Z</time>
      </trkpt>
      <trkpt lat="42.348440000787377" lon="-7.780101969838142">
        <ele>399.56999999999999</ele>
        <time>2025-05-02T09:38:42Z</time>
      </trkpt>
      <trkpt lat="42.34844502992928" lon="-7.780076991766691">
        <ele>399.07999999999998</ele>
        <time>2025-05-02T09:38:43Z</time>
      </trkpt>
      <trkpt lat="42.348450981080532" lon="-7.780044972896576">
        <ele>399.07999999999998</ele>
        <time>2025-05-02T09:38:44Z</time>
      </trkpt>
      <trkpt lat="42.348461039364338" lon="-7.779985964298248">
        <ele>399.07999999999998</ele>
        <time>2025-05-02T09:38:45Z</time>
      </trkpt>
      <trkpt lat="42.348477970808744" lon="-7.779898038133979">
        <ele>398.60000000000002</ele>
        <time>2025-05-02T09:38:46Z</time>
      </trkpt>
      <trkpt lat="42.348495991900563" lon="-7.779786977916956">
        <ele>398.12</ele>
        <time>2025-05-02T09:38:47Z</time>
      </trkpt>
      <trkpt lat="42.348518036305904" lon="-7.779658986255527">
        <ele>398.12</ele>
        <time>2025-05-02T09:38:48Z</time>
      </trkpt>
      <trkpt lat="42.34876899048686" lon="-7.778221992775798">
        <ele>394.75999999999999</ele>
        <time>2025-05-02T09:38:55Z</time>
      </trkpt>
      <trkpt lat="42.349078031256795" lon="-7.776476964354515">
        <ele>393.31999999999999</ele>
        <time>2025-05-02T09:39:05Z</time>
      </trkpt>
      <trkpt lat="42.349511040374637" lon="-7.774163978174329">
        <ele>391.38999999999999</ele>
        <time>2025-05-02T09:39:17Z</time>
      </trkpt>
      <trkpt lat="42.349640959873796" lon="-7.773441039025784">
        <ele>390.91000000000003</ele>
        <time>2025-05-02T09:39:21Z</time>
      </trkpt>
      <trkpt lat="42.349903983995318" lon="-7.771961968392134">
        <ele>392.36000000000001</ele>
        <time>2025-05-02T09:39:31Z</time>
      </trkpt>
      <trkpt lat="42.350220987573266" lon="-7.770044021308422">
        <ele>395.24000000000001</ele>
        <time>2025-05-02T09:39:43Z</time>
      </trkpt>
      <trkpt lat="42.35052902251482" lon="-7.768312990665436">
        <ele>401.49000000000001</ele>
        <time>2025-05-02T09:39:54Z</time>
      </trkpt>
      <trkpt lat="42.350585013628006" lon="-7.767995987087488">
        <ele>401.97000000000003</ele>
        <time>2025-05-02T09:39:56Z</time>
      </trkpt>
      <trkpt lat="42.350612003356218" lon="-7.767837988212705">
        <ele>401.97000000000003</ele>
        <time>2025-05-02T09:39:57Z</time>
      </trkpt>
      <trkpt lat="42.350621977820992" lon="-7.767662974074483">
        <ele>402.44999999999999</ele>
        <time>2025-05-02T09:39:58Z</time>
      </trkpt>
      <trkpt lat="42.350608985871077" lon="-7.767487037926912">
        <ele>402.44999999999999</ele>
        <time>2025-05-02T09:39:59Z</time>
      </trkpt>
      <trkpt lat="42.350592976436019" lon="-7.767326021566987">
        <ele>401.97000000000003</ele>
        <time>2025-05-02T09:40:00Z</time>
      </trkpt>
      <trkpt lat="42.350577972829342" lon="-7.767174979671836">
        <ele>401.49000000000001</ele>
        <time>2025-05-02T09:40:01Z</time>
      </trkpt>
      <trkpt lat="42.350557018071413" lon="-7.766969036310911">
        <ele>401.00999999999999</ele>
        <time>2025-05-02T09:40:02Z</time>
      </trkpt>
      <trkpt lat="42.350585013628006" lon="-7.766866022720933">
        <ele>401.00999999999999</ele>
        <time>2025-05-02T09:40:03Z</time>
      </trkpt>
      <trkpt lat="42.350627006962895" lon="-7.766710035502911">
        <ele>400.52999999999997</ele>
        <time>2025-05-02T09:40:04Z</time>
      </trkpt>
      <trkpt lat="42.350669000297785" lon="-7.766553964465857">
        <ele>400.05000000000001</ele>
        <time>2025-05-02T09:40:05Z</time>
      </trkpt>
      <trkpt lat="42.350709987804294" lon="-7.766400994732976">
        <ele>400.05000000000001</ele>
        <time>2025-05-02T09:40:06Z</time>
      </trkpt>
      <trkpt lat="42.350750975310802" lon="-7.766246013343334">
        <ele>399.56999999999999</ele>
        <time>2025-05-02T09:40:07Z</time>
      </trkpt>
      <trkpt lat="42.350793974474072" lon="-7.766082985326648">
        <ele>399.56999999999999</ele>
        <time>2025-05-02T09:40:08Z</time>
      </trkpt>
      <trkpt lat="42.350806966423988" lon="-7.765913000330329">
        <ele>399.56999999999999</ele>
        <time>2025-05-02T09:40:09Z</time>
      </trkpt>
      <trkpt lat="42.350807972252369" lon="-7.765734968706965">
        <ele>399.07999999999998</ele>
        <time>2025-05-02T09:40:10Z</time>
      </trkpt>
      <trkpt lat="42.350792968645692" lon="-7.765572024509311">
        <ele>399.07999999999998</ele>
        <time>2025-05-02T09:40:11Z</time>
      </trkpt>
      <trkpt lat="42.350779976695776" lon="-7.765424000099301">
        <ele>399.07999999999998</ele>
        <time>2025-05-02T09:40:12Z</time>
      </trkpt>
      <trkpt lat="42.350772013887763" lon="-7.76527295820415">
        <ele>398.60000000000002</ele>
        <time>2025-05-02T09:40:13Z</time>
      </trkpt>
      <trkpt lat="42.350772013887763" lon="-7.765123005956411">
        <ele>398.60000000000002</ele>
        <time>2025-05-02T09:40:14Z</time>
      </trkpt>
      <trkpt lat="42.350776037201285" lon="-7.764973975718021">
        <ele>398.60000000000002</ele>
        <time>2025-05-02T09:40:15Z</time>
      </trkpt>
      <trkpt lat="42.350806966423988" lon="-7.764824023470283">
        <ele>398.60000000000002</ele>
        <time>2025-05-02T09:40:16Z</time>
      </trkpt>
      <trkpt lat="42.350838985294104" lon="-7.76467096991837">
        <ele>398.12</ele>
        <time>2025-05-02T09:40:17Z</time>
      </trkpt>
      <trkpt lat="42.35119697637856" lon="-7.763382000848651">
        <ele>398.60000000000002</ele>
        <time>2025-05-02T09:40:25Z</time>
      </trkpt>
      <trkpt lat="42.351280963048339" lon="-7.763118976727128">
        <ele>398.60000000000002</ele>
        <time>2025-05-02T09:40:27Z</time>
      </trkpt>
      <trkpt lat="42.351337037980556" lon="-7.763005988672376">
        <ele>398.60000000000002</ele>
        <time>2025-05-02T09:40:28Z</time>
      </trkpt>
      <trkpt lat="42.351468969136477" lon="-7.762781018391252">
        <ele>398.60000000000002</ele>
        <time>2025-05-02T09:40:29Z</time>
      </trkpt>
      <trkpt lat="42.351468969136477" lon="-7.762781018391252">
        <ele>398.12</ele>
        <time>2025-05-02T09:40:30Z</time>
      </trkpt>
      <trkpt lat="42.3515610024333" lon="-7.762706000357866">
        <ele>398.12</ele>
        <time>2025-05-02T09:40:31Z</time>
      </trkpt>
      <trkpt lat="42.351654963567853" lon="-7.7626299764961">
        <ele>397.63999999999999</ele>
        <time>2025-05-02T09:40:32Z</time>
      </trkpt>
      <trkpt lat="42.351843975484371" lon="-7.76247700676322">
        <ele>396.68000000000001</ele>
        <time>2025-05-02T09:40:34Z</time>
      </trkpt>
      <trkpt lat="42.35192796215415" lon="-7.762382039800286">
        <ele>396.19999999999999</ele>
        <time>2025-05-02T09:40:35Z</time>
      </trkpt>
      <trkpt lat="42.352192997932434" lon="-7.761907959356904">
        <ele>394.27999999999997</ele>
        <time>2025-05-02T09:40:39Z</time>
      </trkpt>
      <trkpt lat="42.352254018187523" lon="-7.761766975745559">
        <ele>393.80000000000001</ele>
        <time>2025-05-02T09:40:40Z</time>
      </trkpt>
      <trkpt lat="42.352392990142107" lon="-7.761326003819704">
        <ele>391.38999999999999</ele>
        <time>2025-05-02T09:40:43Z</time>
      </trkpt>
      <trkpt lat="42.352418974041939" lon="-7.761177979409695">
        <ele>390.91000000000003</ele>
        <time>2025-05-02T09:40:44Z</time>
      </trkpt>
      <trkpt lat="42.352443030104041" lon="-7.761042024940252">
        <ele>389.94999999999999</ele>
        <time>2025-05-02T09:40:45Z</time>
      </trkpt>
      <trkpt lat="42.352424003183842" lon="-7.760916966944933">
        <ele>389.47000000000003</ele>
        <time>2025-05-02T09:40:46Z</time>
      </trkpt>
      <trkpt lat="42.352401036769152" lon="-7.760800961405039">
        <ele>388.99000000000001</ele>
        <time>2025-05-02T09:40:47Z</time>
      </trkpt>
      <trkpt lat="42.352358037605882" lon="-7.760684033855796">
        <ele>388.02999999999997</ele>
        <time>2025-05-02T09:40:48Z</time>
      </trkpt>
      <trkpt lat="42.352176988497376" lon="-7.760529974475503">
        <ele>387.55000000000001</ele>
        <time>2025-05-02T09:40:49Z</time>
      </trkpt>
      <trkpt lat="42.352176988497376" lon="-7.760529974475503">
        <ele>386.58999999999997</ele>
        <time>2025-05-02T09:40:50Z</time>
      </trkpt>
      <trkpt lat="42.351801982149482" lon="-7.760210037231445">
        <ele>383.22000000000003</ele>
        <time>2025-05-02T09:40:54Z</time>
      </trkpt>
      <trkpt lat="42.351722018793225" lon="-7.760073998942971">
        <ele>382.25999999999999</ele>
        <time>2025-05-02T09:40:55Z</time>
      </trkpt>
      <trkpt lat="42.351637026295066" lon="-7.75983301922679">
        <ele>381.30000000000001</ele>
        <time>2025-05-02T09:40:56Z</time>
      </trkpt>
      <trkpt lat="42.351637026295066" lon="-7.75983301922679">
        <ele>380.33999999999997</ele>
        <time>2025-05-02T09:40:57Z</time>
      </trkpt>
      <trkpt lat="42.351640965789557" lon="-7.759694969281554">
        <ele>380.33999999999997</ele>
        <time>2025-05-02T09:40:58Z</time>
      </trkpt>
      <trkpt lat="42.351659992709756" lon="-7.759541999548674">
        <ele>379.38</ele>
        <time>2025-05-02T09:40:59Z</time>
      </trkpt>
      <trkpt lat="42.351680025458336" lon="-7.759385006502271">
        <ele>379.38</ele>
        <time>2025-05-02T09:41:00Z</time>
      </trkpt>
      <trkpt lat="42.351708021014929" lon="-7.759235976263881">
        <ele>379.38</ele>
        <time>2025-05-02T09:41:01Z</time>
      </trkpt>
      <trkpt lat="42.351769041270018" lon="-7.759094992652535">
        <ele>378.89999999999998</ele>
        <time>2025-05-02T09:41:02Z</time>
      </trkpt>
      <trkpt lat="42.351828971877694" lon="-7.758957026526332">
        <ele>378.42000000000002</ele>
        <time>2025-05-02T09:41:03Z</time>
      </trkpt>
      <trkpt lat="42.351890997961164" lon="-7.758813025429845">
        <ele>378.42000000000002</ele>
        <time>2025-05-02T09:41:04Z</time>
      </trkpt>
      <trkpt lat="42.351956963539124" lon="-7.758680004626513">
        <ele>377.94</ele>
        <time>2025-05-02T09:41:05Z</time>
      </trkpt>
      <trkpt lat="42.352025024592876" lon="-7.758551007136703">
        <ele>377.44999999999999</ele>
        <time>2025-05-02T09:41:06Z</time>
      </trkpt>
      <trkpt lat="42.352094007655978" lon="-7.75841798633337">
        <ele>377.44999999999999</ele>
        <time>2025-05-02T09:41:07Z</time>
      </trkpt>
      <trkpt lat="42.352643022313714" lon="-7.75736597366631">
        <ele>377.44999999999999</ele>
        <time>2025-05-02T09:41:15Z</time>
      </trkpt>
      <trkpt lat="42.352710999548435" lon="-7.757234964519739">
        <ele>377.44999999999999</ele>
        <time>2025-05-02T09:41:16Z</time>
      </trkpt>
      <trkpt lat="42.352779982611537" lon="-7.757103033363819">
        <ele>377.94</ele>
        <time>2025-05-02T09:41:17Z</time>
      </trkpt>
      <trkpt lat="42.352918032556772" lon="-7.756837997585535">
        <ele>378.42000000000002</ele>
        <time>2025-05-02T09:41:19Z</time>
      </trkpt>
      <trkpt lat="42.35298098064959" lon="-7.75669801980257">
        <ele>378.89999999999998</ele>
        <time>2025-05-02T09:41:20Z</time>
      </trkpt>
      <trkpt lat="42.353033032268286" lon="-7.756553012877703">
        <ele>378.89999999999998</ele>
        <time>2025-05-02T09:41:21Z</time>
      </trkpt>
      <trkpt lat="42.353075025603175" lon="-7.756402976810932">
        <ele>378.89999999999998</ele>
        <time>2025-05-02T09:41:22Z</time>
      </trkpt>
      <trkpt lat="42.353095980361104" lon="-7.756240032613277">
        <ele>379.38</ele>
        <time>2025-05-02T09:41:23Z</time>
      </trkpt>
      <trkpt lat="42.353110983967781" lon="-7.756080022081733">
        <ele>379.86000000000001</ele>
        <time>2025-05-02T09:41:24Z</time>
      </trkpt>
      <trkpt lat="42.352921972051263" lon="-7.754003992304206">
        <ele>385.14999999999998</ele>
        <time>2025-05-02T09:41:36Z</time>
      </trkpt>
      <trkpt lat="42.35278601758182" lon="-7.752693984657526">
        <ele>389.94999999999999</ele>
        <time>2025-05-02T09:41:47Z</time>
      </trkpt>
      <trkpt lat="42.352732960134745" lon="-7.752138013020158">
        <ele>391.38999999999999</ele>
        <time>2025-05-02T09:41:52Z</time>
      </trkpt>
      <trkpt lat="42.352730026468635" lon="-7.751982025802136">
        <ele>391.38999999999999</ele>
        <time>2025-05-02T09:41:53Z</time>
      </trkpt>
      <trkpt lat="42.352747041732073" lon="-7.75182100944221">
        <ele>391.38999999999999</ele>
        <time>2025-05-02T09:41:54Z</time>
      </trkpt>
      <trkpt lat="42.352907974272966" lon="-7.751064961776137">
        <ele>391.38999999999999</ele>
        <time>2025-05-02T09:41:59Z</time>
      </trkpt>
      <trkpt lat="42.353094974532723" lon="-7.750316960737109">
        <ele>390.91000000000003</ele>
        <time>2025-05-02T09:42:06Z</time>
      </trkpt>
      <trkpt lat="42.353149959817529" lon="-7.750097019597888">
        <ele>390.91000000000003</ele>
        <time>2025-05-02T09:42:07Z</time>
      </trkpt>
      <trkpt lat="42.353267977014184" lon="-7.749611958861351">
        <ele>390.91000000000003</ele>
        <time>2025-05-02T09:42:12Z</time>
      </trkpt>
      <trkpt lat="42.353298990055919" lon="-7.74947801604867">
        <ele>390.43000000000001</ele>
        <time>2025-05-02T09:42:13Z</time>
      </trkpt>
      <trkpt lat="42.353330003097653" lon="-7.749341977760196">
        <ele>390.43000000000001</ele>
        <time>2025-05-02T09:42:14Z</time>
      </trkpt>
      <trkpt lat="42.353363027796149" lon="-7.74920099414885">
        <ele>389.94999999999999</ele>
        <time>2025-05-02T09:42:15Z</time>
      </trkpt>
      <trkpt lat="42.353395968675613" lon="-7.749061016365886">
        <ele>389.94999999999999</ele>
        <time>2025-05-02T09:42:16Z</time>
      </trkpt>
      <trkpt lat="42.353428993374109" lon="-7.74891902692616">
        <ele>389.47000000000003</ele>
        <time>2025-05-02T09:42:17Z</time>
      </trkpt>
      <trkpt lat="42.353815985843539" lon="-7.747372984886169">
        <ele>393.31999999999999</ele>
        <time>2025-05-02T09:42:27Z</time>
      </trkpt>
      <trkpt lat="42.354039028286934" lon="-7.746537979692221">
        <ele>397.63999999999999</ele>
        <time>2025-05-02T09:42:33Z</time>
      </trkpt>
      <trkpt lat="42.354000974446535" lon="-7.746360031887889">
        <ele>398.12</ele>
        <time>2025-05-02T09:42:34Z</time>
      </trkpt>
      <trkpt lat="42.353950012475252" lon="-7.746250983327627">
        <ele>399.07999999999998</ele>
        <time>2025-05-02T09:42:36Z</time>
      </trkpt>
      <trkpt lat="42.353844987228513" lon="-7.746021989732981">
        <ele>399.56999999999999</ele>
        <time>2025-05-02T09:42:37Z</time>
      </trkpt>
      <trkpt lat="42.353598978370428" lon="-7.745685959234834">
        <ele>401.00999999999999</ele>
        <time>2025-05-02T09:42:40Z</time>
      </trkpt>
      <trkpt lat="42.353510968387127" lon="-7.745582023635507">
        <ele>401.49000000000001</ele>
        <time>2025-05-02T09:42:41Z</time>
      </trkpt>
      <trkpt lat="42.352533973753452" lon="-7.744424985721707">
        <ele>410.13999999999999</ele>
        <time>2025-05-02T09:42:53Z</time>
      </trkpt>
      <trkpt lat="42.352445963770151" lon="-7.744319960474968">
        <ele>411.10000000000002</ele>
        <time>2025-05-02T09:42:54Z</time>
      </trkpt>
      <trkpt lat="42.352354014292359" lon="-7.744212001562119">
        <ele>411.57999999999998</ele>
        <time>2025-05-02T09:42:55Z</time>
      </trkpt>
      <trkpt lat="42.352273967117071" lon="-7.744117034599185">
        <ele>412.54000000000002</ele>
        <time>2025-05-02T09:42:56Z</time>
      </trkpt>
      <trkpt lat="42.352177994325757" lon="-7.74380799382925">
        <ele>413.01999999999998</ele>
        <time>2025-05-02T09:42:57Z</time>
      </trkpt>
      <trkpt lat="42.352177994325757" lon="-7.74380799382925">
        <ele>413.01999999999998</ele>
        <time>2025-05-02T09:42:58Z</time>
      </trkpt>
      <trkpt lat="42.352157961577177" lon="-7.743651000782847">
        <ele>413.5</ele>
        <time>2025-05-02T09:42:59Z</time>
      </trkpt>
      <trkpt lat="42.352136000990868" lon="-7.743490990251303">
        <ele>413.5</ele>
        <time>2025-05-02T09:43:00Z</time>
      </trkpt>
      <trkpt lat="42.352114040404558" lon="-7.743327040225267">
        <ele>413.5</ele>
        <time>2025-05-02T09:43:01Z</time>
      </trkpt>
      <trkpt lat="42.352101970463991" lon="-7.743237018585205">
        <ele>413.5</ele>
        <time>2025-05-02T09:43:02Z</time>
      </trkpt>
      <trkpt lat="42.351935002952814" lon="-7.742973994463682">
        <ele>414.47000000000003</ele>
        <time>2025-05-02T09:43:04Z</time>
      </trkpt>
      <trkpt lat="42.351869037374854" lon="-7.742870980873704">
        <ele>414.94999999999999</ele>
        <time>2025-05-02T09:43:05Z</time>
      </trkpt>
      <trkpt lat="42.35179896466434" lon="-7.742749024182558">
        <ele>415.43000000000001</ele>
        <time>2025-05-02T09:43:06Z</time>
      </trkpt>
      <trkpt lat="42.351771974936128" lon="-7.742616003379226">
        <ele>415.43000000000001</ele>
        <time>2025-05-02T09:43:07Z</time>
      </trkpt>
      <trkpt lat="42.351738028228283" lon="-7.742437971755862">
        <ele>415.43000000000001</ele>
        <time>2025-05-02T09:43:08Z</time>
      </trkpt>
      <trkpt lat="42.351801982149482" lon="-7.741928016766906">
        <ele>415.43000000000001</ele>
        <time>2025-05-02T09:43:11Z</time>
      </trkpt>
      <trkpt lat="42.351801982149482" lon="-7.741758031770587">
        <ele>414.94999999999999</ele>
        <time>2025-05-02T09:43:12Z</time>
      </trkpt>
      <trkpt lat="42.351801982149482" lon="-7.741601960733533">
        <ele>414.94999999999999</ele>
        <time>2025-05-02T09:43:13Z</time>
      </trkpt>
      <trkpt lat="42.351799970492721" lon="-7.741496013477445">
        <ele>414.47000000000003</ele>
        <time>2025-05-02T09:43:14Z</time>
      </trkpt>
      <trkpt lat="42.351746996864676" lon="-7.741389982402325">
        <ele>414.47000000000003</ele>
        <time>2025-05-02T09:43:15Z</time>
      </trkpt>
      <trkpt lat="42.351627973839641" lon="-7.741262996569276">
        <ele>413.98000000000002</ele>
        <time>2025-05-02T09:43:16Z</time>
      </trkpt>
      <trkpt lat="42.351512974128127" lon="-7.741258973255754">
        <ele>413.98000000000002</ele>
        <time>2025-05-02T09:43:17Z</time>
      </trkpt>
      <trkpt lat="42.351512974128127" lon="-7.741258973255754">
        <ele>413.98000000000002</ele>
        <time>2025-05-02T09:43:18Z</time>
      </trkpt>
      <trkpt lat="42.351399986073375" lon="-7.741305995732546">
        <ele>413.5</ele>
        <time>2025-05-02T09:43:19Z</time>
      </trkpt>
      <trkpt lat="42.351179961115122" lon="-7.741430969908834">
        <ele>413.5</ele>
        <time>2025-05-02T09:43:20Z</time>
      </trkpt>
      <trkpt lat="42.351179961115122" lon="-7.741430969908834">
        <ele>413.5</ele>
        <time>2025-05-02T09:43:21Z</time>
      </trkpt>
      <trkpt lat="42.351066973060369" lon="-7.741496013477445">
        <ele>413.5</ele>
        <time>2025-05-02T09:43:22Z</time>
      </trkpt>
      <trkpt lat="42.350844014436007" lon="-7.741624005138874">
        <ele>413.5</ele>
        <time>2025-05-02T09:43:23Z</time>
      </trkpt>
      <trkpt lat="42.350535979494452" lon="-7.741799019277096">
        <ele>413.98000000000002</ele>
        <time>2025-05-02T09:43:26Z</time>
      </trkpt>
      <trkpt lat="42.350454004481435" lon="-7.741799019277096">
        <ele>414.47000000000003</ele>
        <time>2025-05-02T09:43:27Z</time>
      </trkpt>
      <trkpt lat="42.350363982841372" lon="-7.741799019277096">
        <ele>414.94999999999999</ele>
        <time>2025-05-02T09:43:28Z</time>
      </trkpt>
      <trkpt lat="42.350247977301478" lon="-7.741730958223343">
        <ele>415.91000000000003</ele>
        <time>2025-05-02T09:43:29Z</time>
      </trkpt>
      <trkpt lat="42.350247977301478" lon="-7.741730958223343">
        <ele>416.87</ele>
        <time>2025-05-02T09:43:30Z</time>
      </trkpt>
      <trkpt lat="42.350182011723518" lon="-7.741643032059073">
        <ele>417.82999999999998</ele>
        <time>2025-05-02T09:43:31Z</time>
      </trkpt>
      <trkpt lat="42.35009903088212" lon="-7.741523003205657">
        <ele>418.79000000000002</ele>
        <time>2025-05-02T09:43:32Z</time>
      </trkpt>
      <trkpt lat="42.349636014550924" lon="-7.740345010533929">
        <ele>427.44</ele>
        <time>2025-05-02T09:43:40Z</time>
      </trkpt>
      <trkpt lat="42.349574994295835" lon="-7.740210983902216">
        <ele>427.92000000000002</ele>
        <time>2025-05-02T09:43:41Z</time>
      </trkpt>
      <trkpt lat="42.349488995969296" lon="-7.740096990019083">
        <ele>428.39999999999998</ele>
        <time>2025-05-02T09:43:42Z</time>
      </trkpt>
      <trkpt lat="42.34941003844142" lon="-7.739990036934614">
        <ele>428.88999999999999</ele>
        <time>2025-05-02T09:43:43Z</time>
      </trkpt>
      <trkpt lat="42.349324962124228" lon="-7.739878976717591">
        <ele>429.37</ele>
        <time>2025-05-02T09:43:44Z</time>
      </trkpt>
      <trkpt lat="42.349233012646437" lon="-7.739772023633122">
        <ele>430.32999999999998</ele>
        <time>2025-05-02T09:43:45Z</time>
      </trkpt>
      <trkpt lat="42.34915497712791" lon="-7.739634979516268">
        <ele>431.29000000000002</ele>
        <time>2025-05-02T09:43:46Z</time>
      </trkpt>
      <trkpt lat="42.349088005721569" lon="-7.739495001733303">
        <ele>432.73000000000002</ele>
        <time>2025-05-02T09:43:47Z</time>
      </trkpt>
      <trkpt lat="42.348954984918237" lon="-7.739216974005103">
        <ele>434.64999999999998</ele>
        <time>2025-05-02T09:43:49Z</time>
      </trkpt>
      <trkpt lat="42.348891030997038" lon="-7.739084037020803">
        <ele>435.61000000000001</ele>
        <time>2025-05-02T09:43:50Z</time>
      </trkpt>
      <trkpt lat="42.348764967173338" lon="-7.73882101289928">
        <ele>437.06</ele>
        <time>2025-05-02T09:43:52Z</time>
      </trkpt>
      <trkpt lat="42.348711993545294" lon="-7.738710958510637">
        <ele>438.01999999999998</ele>
        <time>2025-05-02T09:43:53Z</time>
      </trkpt>
      <trkpt lat="42.348645022138953" lon="-7.73862898349762">
        <ele>438.98000000000002</ele>
        <time>2025-05-02T09:43:54Z</time>
      </trkpt>
      <trkpt lat="42.348360037431121" lon="-7.738547008484602">
        <ele>440.42000000000002</ele>
        <time>2025-05-02T09:43:57Z</time>
      </trkpt>
      <trkpt lat="42.347960975021124" lon="-7.738431002944708">
        <ele>441.86000000000001</ele>
        <time>2025-05-02T09:44:01Z</time>
      </trkpt>
      <trkpt lat="42.347862990573049" lon="-7.738324971869588">
        <ele>442.33999999999997</ele>
        <time>2025-05-02T09:44:02Z</time>
      </trkpt>
      <trkpt lat="42.347777998074889" lon="-7.738235034048557">
        <ele>442.33999999999997</ele>
        <time>2025-05-02T09:44:03Z</time>
      </trkpt>
      <trkpt lat="42.347691999748349" lon="-7.738141994923353">
        <ele>442.81999999999999</ele>
        <time>2025-05-02T09:44:04Z</time>
      </trkpt>
      <trkpt lat="42.347631985321641" lon="-7.738021966069937">
        <ele>442.81999999999999</ele>
        <time>2025-05-02T09:44:05Z</time>
      </trkpt>
      <trkpt lat="42.3475840408355" lon="-7.737879976630211">
        <ele>443.31</ele>
        <time>2025-05-02T09:44:06Z</time>
      </trkpt>
      <trkpt lat="42.347531989216805" lon="-7.737721977755427">
        <ele>443.31</ele>
        <time>2025-05-02T09:44:07Z</time>
      </trkpt>
      <trkpt lat="42.347514973953366" lon="-7.737571019679308">
        <ele>442.81999999999999</ele>
        <time>2025-05-02T09:44:08Z</time>
      </trkpt>
      <trkpt lat="42.347499970346689" lon="-7.73742500692606">
        <ele>442.81999999999999</ele>
        <time>2025-05-02T09:44:09Z</time>
      </trkpt>
      <trkpt lat="42.347483038902283" lon="-7.737266002222896">
        <ele>442.81999999999999</ele>
        <time>2025-05-02T09:44:10Z</time>
      </trkpt>
      <trkpt lat="42.347463006153703" lon="-7.737086964771152">
        <ele>442.33999999999997</ele>
        <time>2025-05-02T09:44:11Z</time>
      </trkpt>
      <trkpt lat="42.347444985061884" lon="-7.736923014745116">
        <ele>442.33999999999997</ele>
        <time>2025-05-02T09:44:12Z</time>
      </trkpt>
      <trkpt lat="42.347396034747362" lon="-7.73663098923862">
        <ele>441.86000000000001</ele>
        <time>2025-05-02T09:44:14Z</time>
      </trkpt>
      <trkpt lat="42.347353035584092" lon="-7.736507020890713">
        <ele>441.86000000000001</ele>
        <time>2025-05-02T09:44:15Z</time>
      </trkpt>
      <trkpt lat="42.347275000065565" lon="-7.736409036442637">
        <ele>441.86000000000001</ele>
        <time>2025-05-02T09:44:16Z</time>
      </trkpt>
      <trkpt lat="42.347210040315986" lon="-7.736327983438969">
        <ele>441.86000000000001</ele>
        <time>2025-05-02T09:44:17Z</time>
      </trkpt>
      <trkpt lat="42.347143990918994" lon="-7.736237039789558">
        <ele>441.86000000000001</ele>
        <time>2025-05-02T09:44:18Z</time>
      </trkpt>
      <trkpt lat="42.347037959843874" lon="-7.73609203286469">
        <ele>441.86000000000001</ele>
        <time>2025-05-02T09:44:19Z</time>
      </trkpt>
      <trkpt lat="42.347037959843874" lon="-7.73603000678122">
        <ele>442.33999999999997</ele>
        <time>2025-05-02T09:44:20Z</time>
      </trkpt>
      <trkpt lat="42.347037959843874" lon="-7.735906038433313">
        <ele>441.86000000000001</ele>
        <time>2025-05-02T09:44:21Z</time>
      </trkpt>
      <trkpt lat="42.347037959843874" lon="-7.735779974609613">
        <ele>441.86000000000001</ele>
        <time>2025-05-02T09:44:22Z</time>
      </trkpt>
      <trkpt lat="42.347082970663905" lon="-7.735617030411959">
        <ele>441.86000000000001</ele>
        <time>2025-05-02T09:44:23Z</time>
      </trkpt>
      <trkpt lat="42.347149020060897" lon="-7.735518962144852">
        <ele>441.86000000000001</ele>
        <time>2025-05-02T09:44:24Z</time>
      </trkpt>
      <trkpt lat="42.347226971760392" lon="-7.735409997403622">
        <ele>441.86000000000001</ele>
        <time>2025-05-02T09:44:25Z</time>
      </trkpt>
      <trkpt lat="42.347319005057216" lon="-7.735317964106798">
        <ele>441.86000000000001</ele>
        <time>2025-05-02T09:44:26Z</time>
      </trkpt>
      <trkpt lat="42.347421012818813" lon="-7.735216040164232">
        <ele>441.86000000000001</ele>
        <time>2025-05-02T09:44:27Z</time>
      </trkpt>
      <trkpt lat="42.3477169778198" lon="-7.734894007444382">
        <ele>442.33999999999997</ele>
        <time>2025-05-02T09:44:29Z</time>
      </trkpt>
      <trkpt lat="42.347789984196424" lon="-7.734770039096475">
        <ele>443.31</ele>
        <time>2025-05-02T09:44:30Z</time>
      </trkpt>
      <trkpt lat="42.347789984196424" lon="-7.734770039096475">
        <ele>444.26999999999998</ele>
        <time>2025-05-02T09:44:31Z</time>
      </trkpt>
      <trkpt lat="42.347923004999757" lon="-7.734310040250421">
        <ele>446.67000000000002</ele>
        <time>2025-05-02T09:44:33Z</time>
      </trkpt>
      <trkpt lat="42.347923004999757" lon="-7.734310040250421">
        <ele>447.63</ele>
        <time>2025-05-02T09:44:34Z</time>
      </trkpt>
      <trkpt lat="42.347999028861523" lon="-7.73392497561872">
        <ele>450.02999999999997</ele>
        <time>2025-05-02T09:44:36Z</time>
      </trkpt>
      <trkpt lat="42.347999028861523" lon="-7.73392497561872">
        <ele>450.51999999999998</ele>
        <time>2025-05-02T09:44:37Z</time>
      </trkpt>
      <trkpt lat="42.347988970577717" lon="-7.733832020312548">
        <ele>451</ele>
        <time>2025-05-02T09:44:38Z</time>
      </trkpt>
      <trkpt lat="42.347958041355014" lon="-7.733745016157627">
        <ele>451.95999999999998</ele>
        <time>2025-05-02T09:44:39Z</time>
      </trkpt>
      <trkpt lat="42.347874976694584" lon="-7.733646025881171">
        <ele>452.44</ele>
        <time>2025-05-02T09:44:40Z</time>
      </trkpt>
      <trkpt lat="42.347830971702933" lon="-7.733649965375662">
        <ele>453.39999999999998</ele>
        <time>2025-05-02T09:44:41Z</time>
      </trkpt>
      <trkpt lat="42.347632991150022" lon="-7.733695982024074">
        <ele>453.88</ele>
        <time>2025-05-02T09:44:42Z</time>
      </trkpt>
      <trkpt lat="42.347547998651862" lon="-7.733786003664136">
        <ele>454.36000000000001</ele>
        <time>2025-05-02T09:44:43Z</time>
      </trkpt>
      <trkpt lat="42.347547998651862" lon="-7.733786003664136">
        <ele>455.31999999999999</ele>
        <time>2025-05-02T09:44:44Z</time>
      </trkpt>
      <trkpt lat="42.347464011982083" lon="-7.733875019475818">
        <ele>455.80000000000001</ele>
        <time>2025-05-02T09:44:45Z</time>
      </trkpt>
      <trkpt lat="42.347315987572074" lon="-7.734032012522221">
        <ele>456.75999999999999</ele>
        <time>2025-05-02T09:44:46Z</time>
      </trkpt>
      <trkpt lat="42.347237030044198" lon="-7.734060008078814">
        <ele>457.24000000000001</ele>
        <time>2025-05-02T09:44:47Z</time>
      </trkpt>
      <trkpt lat="42.347168968990445" lon="-7.734068976715207">
        <ele>457.72000000000003</ele>
        <time>2025-05-02T09:44:48Z</time>
      </trkpt>
      <trkpt lat="42.347123958170414" lon="-7.734075011685491">
        <ele>458.69</ele>
        <time>2025-05-02T09:44:49Z</time>
      </trkpt>
      <trkpt lat="42.347123958170414" lon="-7.734075011685491">
        <ele>459.64999999999998</ele>
        <time>2025-05-02T09:44:50Z</time>
      </trkpt>
      <trkpt lat="42.347078025341034" lon="-7.733994964510202">
        <ele>460.13</ele>
        <time>2025-05-02T09:44:51Z</time>
      </trkpt>
      <trkpt lat="42.347009964287281" lon="-7.733791032806039">
        <ele>461.08999999999997</ele>
        <time>2025-05-02T09:44:52Z</time>
      </trkpt>
      <trkpt lat="42.346871998161077" lon="-7.733190972357988">
        <ele>461.56999999999999</ele>
        <time>2025-05-02T09:44:56Z</time>
      </trkpt>
      <trkpt lat="42.346871998161077" lon="-7.733190972357988">
        <ele>462.05000000000001</ele>
        <time>2025-05-02T09:44:57Z</time>
      </trkpt>
      <trkpt lat="42.346822964027524" lon="-7.733112014830113">
        <ele>462.52999999999997</ele>
        <time>2025-05-02T09:44:58Z</time>
      </trkpt>
      <trkpt lat="42.346692038699985" lon="-7.73304495960474">
        <ele>462.52999999999997</ele>
        <time>2025-05-02T09:44:59Z</time>
      </trkpt>
      <trkpt lat="42.346692038699985" lon="-7.73304495960474">
        <ele>462.52999999999997</ele>
        <time>2025-05-02T09:45:00Z</time>
      </trkpt>
      <trkpt lat="42.346579972654581" lon="-7.733200024813414">
        <ele>463.00999999999999</ele>
        <time>2025-05-02T09:45:01Z</time>
      </trkpt>
      <trkpt lat="42.346514007076621" lon="-7.733307983726263">
        <ele>463.00999999999999</ele>
        <time>2025-05-02T09:45:02Z</time>
      </trkpt>
      <trkpt lat="42.346299011260271" lon="-7.73366304114461">
        <ele>463.97000000000003</ele>
        <time>2025-05-02T09:45:05Z</time>
      </trkpt>
      <trkpt lat="42.346228016540408" lon="-7.733780974522233">
        <ele>463.97000000000003</ele>
        <time>2025-05-02T09:45:06Z</time>
      </trkpt>
      <trkpt lat="42.346128020435572" lon="-7.733908966183662">
        <ele>463.97000000000003</ele>
        <time>2025-05-02T09:45:07Z</time>
      </trkpt>
      <trkpt lat="42.345815040171146" lon="-7.73420300334692">
        <ele>464.93000000000001</ele>
        <time>2025-05-02T09:45:10Z</time>
      </trkpt>
      <trkpt lat="42.345723006874323" lon="-7.734261006116867">
        <ele>465.42000000000002</ele>
        <time>2025-05-02T09:45:11Z</time>
      </trkpt>
      <trkpt lat="42.345640026032925" lon="-7.734312973916531">
        <ele>465.89999999999998</ele>
        <time>2025-05-02T09:45:12Z</time>
      </trkpt>
      <trkpt lat="42.34556601382792" lon="-7.734358990564942">
        <ele>466.38</ele>
        <time>2025-05-02T09:45:13Z</time>
      </trkpt>
      <trkpt lat="42.345471968874335" lon="-7.73441799916327">
        <ele>467.81999999999999</ele>
        <time>2025-05-02T09:45:14Z</time>
      </trkpt>
      <trkpt lat="42.345466017723083" lon="-7.734439037740231">
        <ele>468.77999999999997</ele>
        <time>2025-05-02T09:45:15Z</time>
      </trkpt>
      <trkpt lat="42.345466017723083" lon="-7.734439037740231">
        <ele>470.22000000000003</ele>
        <time>2025-05-02T09:45:16Z</time>
      </trkpt>
      <trkpt lat="42.34543701633811" lon="-7.734551019966602">
        <ele>471.18000000000001</ele>
        <time>2025-05-02T09:45:17Z</time>
      </trkpt>
      <trkpt lat="42.345365015789866" lon="-7.734826030209661">
        <ele>472.13999999999999</ele>
        <time>2025-05-02T09:45:18Z</time>
      </trkpt>
      <trkpt lat="42.345299972221255" lon="-7.734932983294129">
        <ele>472.63</ele>
        <time>2025-05-02T09:45:19Z</time>
      </trkpt>
      <trkpt lat="42.345224032178521" lon="-7.734971037134528">
        <ele>473.58999999999997</ele>
        <time>2025-05-02T09:45:20Z</time>
      </trkpt>
      <trkpt lat="42.345081036910415" lon="-7.735012024641037">
        <ele>474.55000000000001</ele>
        <time>2025-05-02T09:45:21Z</time>
      </trkpt>
      <trkpt lat="42.345081036910415" lon="-7.735012024641037">
        <ele>475.50999999999999</ele>
        <time>2025-05-02T09:45:22Z</time>
      </trkpt>
      <trkpt lat="42.344957990571856" lon="-7.734995009377599">
        <ele>476.47000000000003</ele>
        <time>2025-05-02T09:45:23Z</time>
      </trkpt>
      <trkpt lat="42.344751041382551" lon="-7.734965002164245">
        <ele>476.94999999999999</ele>
        <time>2025-05-02T09:45:24Z</time>
      </trkpt>
      <trkpt lat="42.344678035005927" lon="-7.73495402187109">
        <ele>477.91000000000003</ele>
        <time>2025-05-02T09:45:25Z</time>
      </trkpt>
      <trkpt lat="42.344587007537484" lon="-7.734992997720838">
        <ele>478.38999999999999</ele>
        <time>2025-05-02T09:45:26Z</time>
      </trkpt>
      <trkpt lat="42.344587007537484" lon="-7.734992997720838">
        <ele>478.38999999999999</ele>
        <time>2025-05-02T09:45:27Z</time>
      </trkpt>
      <trkpt lat="42.344490028917789" lon="-7.735033985227346">
        <ele>478.87</ele>
        <time>2025-05-02T09:45:28Z</time>
      </trkpt>
      <trkpt lat="42.344401013106108" lon="-7.735071033239365">
        <ele>479.83999999999997</ele>
        <time>2025-05-02T09:45:29Z</time>
      </trkpt>
      <trkpt lat="42.344158021733165" lon="-7.735052006319165">
        <ele>480.31999999999999</ele>
        <time>2025-05-02T09:45:30Z</time>
      </trkpt>
      <trkpt lat="42.344158021733165" lon="-7.735052006319165">
        <ele>481.27999999999997</ele>
        <time>2025-05-02T09:45:31Z</time>
      </trkpt>
      <trkpt lat="42.343964986503124" lon="-7.734891995787621">
        <ele>482.24000000000001</ele>
        <time>2025-05-02T09:45:32Z</time>
      </trkpt>
      <trkpt lat="42.343867002055049" lon="-7.734799962490797">
        <ele>483.19999999999999</ele>
        <time>2025-05-02T09:45:33Z</time>
      </trkpt>
      <trkpt lat="42.343760970979929" lon="-7.734701978042722">
        <ele>484.16000000000003</ele>
        <time>2025-05-02T09:45:34Z</time>
      </trkpt>
      <trkpt lat="42.343655023723841" lon="-7.734635006636381">
        <ele>485.12</ele>
        <time>2025-05-02T09:45:35Z</time>
      </trkpt>
      <trkpt lat="42.343520997092128" lon="-7.734565017744899">
        <ele>486.07999999999998</ele>
        <time>2025-05-02T09:45:36Z</time>
      </trkpt>
      <trkpt lat="42.34339501708746" lon="-7.734499974176288">
        <ele>487.05000000000001</ele>
        <time>2025-05-02T09:45:37Z</time>
      </trkpt>
      <trkpt lat="42.343283034861088" lon="-7.734441971406341">
        <ele>488.97000000000003</ele>
        <time>2025-05-02T09:45:39Z</time>
      </trkpt>
      <trkpt lat="42.343079019337893" lon="-7.734298976138234">
        <ele>490.88999999999999</ele>
        <time>2025-05-02T09:45:40Z</time>
      </trkpt>
      <trkpt lat="42.342998972162604" lon="-7.734180958941579">
        <ele>492.81</ele>
        <time>2025-05-02T09:45:41Z</time>
      </trkpt>
      <trkpt lat="42.342947004362941" lon="-7.734054978936911">
        <ele>495.22000000000003</ele>
        <time>2025-05-02T09:45:42Z</time>
      </trkpt>
      <trkpt lat="42.342886989936233" lon="-7.733910977840424">
        <ele>497.13999999999999</ele>
        <time>2025-05-02T09:45:43Z</time>
      </trkpt>
      <trkpt lat="42.342829992994666" lon="-7.73377200588584">
        <ele>498.57999999999998</ele>
        <time>2025-05-02T09:45:44Z</time>
      </trkpt>
      <trkpt lat="42.342829992994666" lon="-7.73377200588584">
        <ele>500.5</ele>
        <time>2025-05-02T09:45:45Z</time>
      </trkpt>
      <trkpt lat="42.342223981395364" lon="-7.732738014310598">
        <ele>511.56</ele>
        <time>2025-05-02T09:45:52Z</time>
      </trkpt>
      <trkpt lat="42.342146029695868" lon="-7.732615973800421">
        <ele>513</ele>
        <time>2025-05-02T09:45:53Z</time>
      </trkpt>
      <trkpt lat="42.342099007219076" lon="-7.732450012117624">
        <ele>514.44000000000005</ele>
        <time>2025-05-02T09:45:54Z</time>
      </trkpt>
      <trkpt lat="42.342020971700549" lon="-7.732178019359708">
        <ele>516.85000000000002</ele>
        <time>2025-05-02T09:45:56Z</time>
      </trkpt>
      <trkpt lat="42.341989036649466" lon="-7.732066959142685">
        <ele>518.28999999999996</ele>
        <time>2025-05-02T09:45:57Z</time>
      </trkpt>
      <trkpt lat="42.341931033879519" lon="-7.731865039095283">
        <ele>519.25</ele>
        <time>2025-05-02T09:45:58Z</time>
      </trkpt>
      <trkpt lat="42.341917036101222" lon="-7.731851041316986">
        <ele>519.73000000000002</ele>
        <time>2025-05-02T09:45:59Z</time>
      </trkpt>
      <trkpt lat="42.341858027502894" lon="-7.731791026890278">
        <ele>520.69000000000005</ele>
        <time>2025-05-02T09:46:00Z</time>
      </trkpt>
      <trkpt lat="42.341726012527943" lon="-7.731807958334684">
        <ele>521.64999999999998</ele>
        <time>2025-05-02T09:46:01Z</time>
      </trkpt>
      <trkpt lat="42.341646971181035" lon="-7.731827991083264">
        <ele>522.13</ele>
        <time>2025-05-02T09:46:02Z</time>
      </trkpt>
      <trkpt lat="42.341587962582707" lon="-7.731842994689941">
        <ele>522.61000000000001</ele>
        <time>2025-05-02T09:46:03Z</time>
      </trkpt>
      <trkpt lat="42.341512022539973" lon="-7.73179697804153">
        <ele>523.58000000000004</ele>
        <time>2025-05-02T09:46:04Z</time>
      </trkpt>
      <trkpt lat="42.341452008113265" lon="-7.731724977493286">
        <ele>524.53999999999996</ele>
        <time>2025-05-02T09:46:05Z</time>
      </trkpt>
      <trkpt lat="42.341391993686557" lon="-7.731611989438534">
        <ele>525.5</ele>
        <time>2025-05-02T09:46:06Z</time>
      </trkpt>
      <trkpt lat="42.341331979259849" lon="-7.731497995555401">
        <ele>526.46000000000004</ele>
        <time>2025-05-02T09:46:07Z</time>
      </trkpt>
      <trkpt lat="42.341283028945327" lon="-7.731384001672268">
        <ele>527.89999999999998</ele>
        <time>2025-05-02T09:46:08Z</time>
      </trkpt>
      <trkpt lat="42.341260984539986" lon="-7.731246035546064">
        <ele>528.38</ele>
        <time>2025-05-02T09:46:09Z</time>
      </trkpt>
      <trkpt lat="42.341240029782057" lon="-7.731113014742732">
        <ele>529.34000000000003</ele>
        <time>2025-05-02T09:46:10Z</time>
      </trkpt>
      <trkpt lat="42.341215973719954" lon="-7.730992985889316">
        <ele>530.29999999999995</ele>
        <time>2025-05-02T09:46:11Z</time>
      </trkpt>
      <trkpt lat="42.341151013970375" lon="-7.730875974521041">
        <ele>530.78999999999996</ele>
        <time>2025-05-02T09:46:12Z</time>
      </trkpt>
      <trkpt lat="42.341052023693919" lon="-7.73085200227797">
        <ele>531.75</ele>
        <time>2025-05-02T09:46:13Z</time>
      </trkpt>
      <trkpt lat="42.340706018730998" lon="-7.730768015608192">
        <ele>533.19000000000005</ele>
        <time>2025-05-02T09:46:15Z</time>
      </trkpt>
      <trkpt lat="42.340588001534343" lon="-7.730739014223218">
        <ele>534.14999999999998</ele>
        <time>2025-05-02T09:46:16Z</time>
      </trkpt>
      <trkpt lat="42.34045104123652" lon="-7.730705989524722">
        <ele>534.63</ele>
        <time>2025-05-02T09:46:17Z</time>
      </trkpt>
      <trkpt lat="42.340348027646542" lon="-7.730602975934744">
        <ele>535.11000000000001</ele>
        <time>2025-05-02T09:46:18Z</time>
      </trkpt>
      <trkpt lat="42.340241996571422" lon="-7.730497028678656">
        <ele>536.07000000000005</ele>
        <time>2025-05-02T09:46:19Z</time>
      </trkpt>
      <trkpt lat="42.34015398658812" lon="-7.730409018695355">
        <ele>537.02999999999997</ele>
        <time>2025-05-02T09:46:20Z</time>
      </trkpt>
      <trkpt lat="42.340097995474935" lon="-7.730309022590518">
        <ele>537.50999999999999</ele>
        <time>2025-05-02T09:46:21Z</time>
      </trkpt>
      <trkpt lat="42.340051978826523" lon="-7.730198968201876">
        <ele>538.48000000000002</ele>
        <time>2025-05-02T09:46:22Z</time>
      </trkpt>
      <trkpt lat="42.339949971064925" lon="-7.729954971000552">
        <ele>539.44000000000005</ele>
        <time>2025-05-02T09:46:24Z</time>
      </trkpt>
      <trkpt lat="42.339891968294978" lon="-7.729850029572845">
        <ele>539.44000000000005</ele>
        <time>2025-05-02T09:46:25Z</time>
      </trkpt>
      <trkpt lat="42.339790966361761" lon="-7.729763025417924">
        <ele>539.91999999999996</ele>
        <time>2025-05-02T09:46:26Z</time>
      </trkpt>
      <trkpt lat="42.339688958600163" lon="-7.729676021263003">
        <ele>540.88</ele>
        <time>2025-05-02T09:46:27Z</time>
      </trkpt>
      <trkpt lat="42.339587034657598" lon="-7.729589017108083">
        <ele>541.36000000000001</ele>
        <time>2025-05-02T09:46:28Z</time>
      </trkpt>
      <trkpt lat="42.339482009410858" lon="-7.72949798963964">
        <ele>542.79999999999995</ele>
        <time>2025-05-02T09:46:29Z</time>
      </trkpt>
      <trkpt lat="42.339375978335738" lon="-7.729407967999578">
        <ele>543.75999999999999</ele>
        <time>2025-05-02T09:46:30Z</time>
      </trkpt>
      <trkpt lat="42.339263996109366" lon="-7.729334961622953">
        <ele>545.20000000000005</ele>
        <time>2025-05-02T09:46:31Z</time>
      </trkpt>
      <trkpt lat="42.338803997263312" lon="-7.729139998555183">
        <ele>552.40999999999997</ele>
        <time>2025-05-02T09:46:35Z</time>
      </trkpt>
      <trkpt lat="42.338610962033272" lon="-7.728998009115458">
        <ele>555.29999999999995</ele>
        <time>2025-05-02T09:46:37Z</time>
      </trkpt>
      <trkpt lat="42.338610962033272" lon="-7.728998009115458">
        <ele>556.74000000000001</ele>
        <time>2025-05-02T09:46:38Z</time>
      </trkpt>
      <trkpt lat="42.338517000898719" lon="-7.72893900051713">
        <ele>558.65999999999997</ele>
        <time>2025-05-02T09:46:39Z</time>
      </trkpt>
      <trkpt lat="42.338434020057321" lon="-7.728913016617298">
        <ele>560.11000000000001</ele>
        <time>2025-05-02T09:46:40Z</time>
      </trkpt>
      <trkpt lat="42.338365036994219" lon="-7.728891978040338">
        <ele>562.02999999999997</ele>
        <time>2025-05-02T09:46:41Z</time>
      </trkpt>
      <trkpt lat="42.338308962062001" lon="-7.728874962776899">
        <ele>563.47000000000003</ele>
        <time>2025-05-02T09:46:42Z</time>
      </trkpt>
      <trkpt lat="42.338262023404241" lon="-7.728859959170222">
        <ele>564.90999999999997</ele>
        <time>2025-05-02T09:46:43Z</time>
      </trkpt>
      <trkpt lat="42.338232016190886" lon="-7.728822994977236">
        <ele>566.83000000000004</ele>
        <time>2025-05-02T09:46:44Z</time>
      </trkpt>
      <trkpt lat="42.338001010939479" lon="-7.728293007239699">
        <ele>570.67999999999995</ele>
        <time>2025-05-02T09:46:49Z</time>
      </trkpt>
      <trkpt lat="42.337943008169532" lon="-7.728140959516168">
        <ele>570.67999999999995</ele>
        <time>2025-05-02T09:46:50Z</time>
      </trkpt>
      <trkpt lat="42.337880982086062" lon="-7.727979021146894">
        <ele>570.67999999999995</ele>
        <time>2025-05-02T09:46:51Z</time>
      </trkpt>
      <trkpt lat="42.337811999022961" lon="-7.727810963988304">
        <ele>570.67999999999995</ele>
        <time>2025-05-02T09:46:52Z</time>
      </trkpt>
      <trkpt lat="42.337729018181562" lon="-7.727645002305508">
        <ele>570.20000000000005</ele>
        <time>2025-05-02T09:46:53Z</time>
      </trkpt>
      <trkpt lat="42.337039019912481" lon="-7.726263999938965">
        <ele>565.38999999999999</ele>
        <time>2025-05-02T09:47:01Z</time>
      </trkpt>
      <trkpt lat="42.336867023259401" lon="-7.725889999419451">
        <ele>565.38999999999999</ele>
        <time>2025-05-02T09:47:03Z</time>
      </trkpt>
      <trkpt lat="42.336867023259401" lon="-7.725889999419451">
        <ele>565.38999999999999</ele>
        <time>2025-05-02T09:47:04Z</time>
      </trkpt>
      <trkpt lat="42.336824024096131" lon="-7.725749015808106">
        <ele>565.38999999999999</ele>
        <time>2025-05-02T09:47:05Z</time>
      </trkpt>
      <trkpt lat="42.336833998560905" lon="-7.725657988339663">
        <ele>565.38999999999999</ele>
        <time>2025-05-02T09:47:06Z</time>
      </trkpt>
      <trkpt lat="42.336868029087782" lon="-7.725514993071556">
        <ele>565.38999999999999</ele>
        <time>2025-05-02T09:47:07Z</time>
      </trkpt>
      <trkpt lat="42.336925026029348" lon="-7.725408039987087">
        <ele>565.38999999999999</ele>
        <time>2025-05-02T09:47:08Z</time>
      </trkpt>
      <trkpt lat="42.336982022970915" lon="-7.725301003083587">
        <ele>564.90999999999997</ele>
        <time>2025-05-02T09:47:09Z</time>
      </trkpt>
      <trkpt lat="42.337030973285437" lon="-7.725129006430507">
        <ele>564.90999999999997</ele>
        <time>2025-05-02T09:47:10Z</time>
      </trkpt>
      <trkpt lat="42.33701596967876" lon="-7.725023981183767">
        <ele>564.42999999999995</ele>
        <time>2025-05-02T09:47:11Z</time>
      </trkpt>
      <trkpt lat="42.336956961080432" lon="-7.724929014220834">
        <ele>563.95000000000005</ele>
        <time>2025-05-02T09:47:12Z</time>
      </trkpt>
      <trkpt lat="42.336888983845711" lon="-7.724818959832192">
        <ele>563.95000000000005</ele>
        <time>2025-05-02T09:47:13Z</time>
      </trkpt>
      <trkpt lat="42.336816983297467" lon="-7.724702032282949">
        <ele>563.47000000000003</ele>
        <time>2025-05-02T09:47:14Z</time>
      </trkpt>
      <trkpt lat="42.336745988577604" lon="-7.724586026743054">
        <ele>562.99000000000001</ele>
        <time>2025-05-02T09:47:15Z</time>
      </trkpt>
      <trkpt lat="42.336570974439383" lon="-7.724131979048252">
        <ele>559.62</ele>
        <time>2025-05-02T09:47:19Z</time>
      </trkpt>
      <trkpt lat="42.336524035781622" lon="-7.723989989608526">
        <ele>559.13999999999999</ele>
        <time>2025-05-02T09:47:20Z</time>
      </trkpt>
      <trkpt lat="42.336447006091475" lon="-7.72388999350369">
        <ele>558.17999999999995</ele>
        <time>2025-05-02T09:47:21Z</time>
      </trkpt>
      <trkpt lat="42.336309039965272" lon="-7.723711039870977">
        <ele>557.70000000000005</ele>
        <time>2025-05-02T09:47:22Z</time>
      </trkpt>
      <trkpt lat="42.336116004735231" lon="-7.723607020452619">
        <ele>557.22000000000003</ele>
        <time>2025-05-02T09:47:23Z</time>
      </trkpt>
      <trkpt lat="42.335993964225054" lon="-7.723541976884008">
        <ele>557.22000000000003</ele>
        <time>2025-05-02T09:47:24Z</time>
      </trkpt>
      <trkpt lat="42.33587603084743" lon="-7.723478022962809">
        <ele>557.22000000000003</ele>
        <time>2025-05-02T09:47:25Z</time>
      </trkpt>
      <trkpt lat="42.335750972852111" lon="-7.723411973565817">
        <ele>557.22000000000003</ele>
        <time>2025-05-02T09:47:26Z</time>
      </trkpt>
      <trkpt lat="42.335750972852111" lon="-7.723411973565817">
        <ele>557.70000000000005</ele>
        <time>2025-05-02T09:47:27Z</time>
      </trkpt>
      <trkpt lat="42.33563999645412" lon="-7.723326981067658">
        <ele>558.17999999999995</ele>
        <time>2025-05-02T09:47:28Z</time>
      </trkpt>
      <trkpt lat="42.335493983700871" lon="-7.723195971921086">
        <ele>558.65999999999997</ele>
        <time>2025-05-02T09:47:29Z</time>
      </trkpt>
      <trkpt lat="42.334682028740644" lon="-7.721951007843018">
        <ele>559.13999999999999</ele>
        <time>2025-05-02T09:47:39Z</time>
      </trkpt>
      <trkpt lat="42.334570968523622" lon="-7.721779011189938">
        <ele>558.65999999999997</ele>
        <time>2025-05-02T09:47:40Z</time>
      </trkpt>
      <trkpt lat="42.33439696021378" lon="-7.721605002880096">
        <ele>558.17999999999995</ele>
        <time>2025-05-02T09:47:42Z</time>
      </trkpt>
      <trkpt lat="42.334278021007776" lon="-7.721525961533189">
        <ele>558.17999999999995</ele>
        <time>2025-05-02T09:47:43Z</time>
      </trkpt>
      <trkpt lat="42.334184981882572" lon="-7.721479022875428">
        <ele>557.70000000000005</ele>
        <time>2025-05-02T09:47:44Z</time>
      </trkpt>
      <trkpt lat="42.334045004099607" lon="-7.721516992896795">
        <ele>556.74000000000001</ele>
        <time>2025-05-02T09:47:45Z</time>
      </trkpt>
      <trkpt lat="42.333892034366727" lon="-7.721623023971915">
        <ele>556.25999999999999</ele>
        <time>2025-05-02T09:47:46Z</time>
      </trkpt>
      <trkpt lat="42.333811987191439" lon="-7.721735006198287">
        <ele>555.29999999999995</ele>
        <time>2025-05-02T09:47:47Z</time>
      </trkpt>
      <trkpt lat="42.333716014400125" lon="-7.72186903283">
        <ele>554.82000000000005</ele>
        <time>2025-05-02T09:47:48Z</time>
      </trkpt>
      <trkpt lat="42.333283005282283" lon="-7.722460040822625">
        <ele>553.86000000000001</ele>
        <time>2025-05-02T09:47:52Z</time>
      </trkpt>
      <trkpt lat="42.333283005282283" lon="-7.722460040822625">
        <ele>553.86000000000001</ele>
        <time>2025-05-02T09:47:53Z</time>
      </trkpt>
      <trkpt lat="42.33314897865057" lon="-7.722555007785559">
        <ele>553.86000000000001</ele>
        <time>2025-05-02T09:47:54Z</time>
      </trkpt>
      <trkpt lat="42.333013024181128" lon="-7.722650980576873">
        <ele>554.34000000000003</ele>
        <time>2025-05-02T09:47:55Z</time>
      </trkpt>
      <trkpt lat="42.332845972850919" lon="-7.722717029973865">
        <ele>554.34000000000003</ele>
        <time>2025-05-02T09:47:56Z</time>
      </trkpt>
      <trkpt lat="42.332707000896335" lon="-7.722738990560174">
        <ele>554.82000000000005</ele>
        <time>2025-05-02T09:47:57Z</time>
      </trkpt>
      <trkpt lat="42.332383962348104" lon="-7.722722981125116">
        <ele>555.29999999999995</ele>
        <time>2025-05-02T09:47:58Z</time>
      </trkpt>
      <trkpt lat="42.332234010100365" lon="-7.722678976133466">
        <ele>555.77999999999997</ele>
        <time>2025-05-02T09:47:59Z</time>
      </trkpt>
      <trkpt lat="42.332081962376833" lon="-7.722633965313435">
        <ele>556.74000000000001</ele>
        <time>2025-05-02T09:48:00Z</time>
      </trkpt>
      <trkpt lat="42.331624981015921" lon="-7.722532041370869">
        <ele>560.59000000000003</ele>
        <time>2025-05-02T09:48:03Z</time>
      </trkpt>
      <trkpt lat="42.331462036818266" lon="-7.72251402027905">
        <ele>562.02999999999997</ele>
        <time>2025-05-02T09:48:04Z</time>
      </trkpt>
      <trkpt lat="42.331136986613274" lon="-7.722499016672373">
        <ele>566.35000000000002</ele>
        <time>2025-05-02T09:48:07Z</time>
      </trkpt>
      <trkpt lat="42.330974964424968" lon="-7.722492981702089">
        <ele>567.79999999999995</ele>
        <time>2025-05-02T09:48:08Z</time>
      </trkpt>
      <trkpt lat="42.329890010878444" lon="-7.721986966207624">
        <ele>575.49000000000001</ele>
        <time>2025-05-02T09:48:14Z</time>
      </trkpt>
      <trkpt lat="42.329890010878444" lon="-7.721986966207624">
        <ele>576.92999999999995</ele>
        <time>2025-05-02T09:48:15Z</time>
      </trkpt>
      <trkpt lat="42.329020975157619" lon="-7.720926990732551">
        <ele>586.05999999999995</ele>
        <time>2025-05-02T09:48:23Z</time>
      </trkpt>
      <trkpt lat="42.328677987679839" lon="-7.720514014363289">
        <ele>588.95000000000005</ele>
        <time>2025-05-02T09:48:26Z</time>
      </trkpt>
      <trkpt lat="42.328564999625087" lon="-7.720392979681492">
        <ele>589.42999999999995</ele>
        <time>2025-05-02T09:48:27Z</time>
      </trkpt>
      <trkpt lat="42.328476989641786" lon="-7.720299018546939">
        <ele>589.90999999999997</ele>
        <time>2025-05-02T09:48:28Z</time>
      </trkpt>
      <trkpt lat="42.32792504131794" lon="-7.718952968716621">
        <ele>591.35000000000002</ele>
        <time>2025-05-02T09:48:35Z</time>
      </trkpt>
      <trkpt lat="42.32764801941812" lon="-7.718420969322324">
        <ele>590.87</ele>
        <time>2025-05-02T09:48:37Z</time>
      </trkpt>
      <trkpt lat="42.32764801941812" lon="-7.718420969322324">
        <ele>590.38999999999999</ele>
        <time>2025-05-02T09:48:38Z</time>
      </trkpt>
      <trkpt lat="42.327473005279899" lon="-7.717797020450234">
        <ele>590.38999999999999</ele>
        <time>2025-05-02T09:48:40Z</time>
      </trkpt>
      <trkpt lat="42.327410979196429" lon="-7.717562997713685">
        <ele>590.38999999999999</ele>
        <time>2025-05-02T09:48:42Z</time>
      </trkpt>
      <trkpt lat="42.327225990593433" lon="-7.717162007465959">
        <ele>589.90999999999997</ele>
        <time>2025-05-02T09:48:43Z</time>
      </trkpt>
      <trkpt lat="42.327137980610132" lon="-7.716970983892679">
        <ele>589.90999999999997</ele>
        <time>2025-05-02T09:48:44Z</time>
      </trkpt>
      <trkpt lat="42.327050976455212" lon="-7.716783983632922">
        <ele>589.42999999999995</ele>
        <time>2025-05-02T09:48:45Z</time>
      </trkpt>
      <trkpt lat="42.32698199339211" lon="-7.716579968109727">
        <ele>589.42999999999995</ele>
        <time>2025-05-02T09:48:46Z</time>
      </trkpt>
      <trkpt lat="42.32691602781415" lon="-7.71637100726366">
        <ele>588.46000000000004</ele>
        <time>2025-05-02T09:48:47Z</time>
      </trkpt>
      <trkpt lat="42.326849978417158" lon="-7.716165985912085">
        <ele>587.5</ele>
        <time>2025-05-02T09:48:48Z</time>
      </trkpt>
      <trkpt lat="42.326782001182437" lon="-7.715956019237638">
        <ele>586.05999999999995</ele>
        <time>2025-05-02T09:48:49Z</time>
      </trkpt>
      <trkpt lat="42.326626013964415" lon="-7.715536002069712">
        <ele>583.65999999999997</ele>
        <time>2025-05-02T09:48:51Z</time>
      </trkpt>
      <trkpt lat="42.326517971232533" lon="-7.715345984324813">
        <ele>582.70000000000005</ele>
        <time>2025-05-02T09:48:52Z</time>
      </trkpt>
      <trkpt lat="42.326368018984795" lon="-7.715185973793268">
        <ele>580.76999999999998</ele>
        <time>2025-05-02T09:48:53Z</time>
      </trkpt>
      <trkpt lat="42.326226029545069" lon="-7.715042978525162">
        <ele>579.33000000000004</ele>
        <time>2025-05-02T09:48:54Z</time>
      </trkpt>
      <trkpt lat="42.326092002913356" lon="-7.714909035712481">
        <ele>577.88999999999999</ele>
        <time>2025-05-02T09:48:55Z</time>
      </trkpt>
      <trkpt lat="42.325965017080307" lon="-7.714782971888781">
        <ele>575.97000000000003</ele>
        <time>2025-05-02T09:48:56Z</time>
      </trkpt>
      <trkpt lat="42.325850017368793" lon="-7.714659003540874">
        <ele>574.52999999999997</ele>
        <time>2025-05-02T09:48:57Z</time>
      </trkpt>
      <trkpt lat="42.325765024870634" lon="-7.714504022151232">
        <ele>572.60000000000002</ele>
        <time>2025-05-02T09:48:58Z</time>
      </trkpt>
      <trkpt lat="42.325681960210204" lon="-7.7143519744277">
        <ele>570.67999999999995</ele>
        <time>2025-05-02T09:48:59Z</time>
      </trkpt>
      <trkpt lat="42.325603002682328" lon="-7.714206967502832">
        <ele>568.75999999999999</ele>
        <time>2025-05-02T09:49:00Z</time>
      </trkpt>
      <trkpt lat="42.325526978820562" lon="-7.714066989719868">
        <ele>567.32000000000005</ele>
        <time>2025-05-02T09:49:01Z</time>
      </trkpt>
      <trkpt lat="42.325418014079332" lon="-7.713925000280142">
        <ele>565.38999999999999</ele>
        <time>2025-05-02T09:49:02Z</time>
      </trkpt>
      <trkpt lat="42.325169993564487" lon="-7.713729031383991">
        <ele>562.50999999999999</ele>
        <time>2025-05-02T09:49:04Z</time>
      </trkpt>
      <trkpt lat="42.324806973338127" lon="-7.713302979245782">
        <ele>558.65999999999997</ele>
        <time>2025-05-02T09:49:07Z</time>
      </trkpt>
      <trkpt lat="42.324657021090388" lon="-7.713187979534268">
        <ele>557.22000000000003</ele>
        <time>2025-05-02T09:49:08Z</time>
      </trkpt>
      <trkpt lat="42.324260976165533" lon="-7.712884973734617">
        <ele>553.86000000000001</ele>
        <time>2025-05-02T09:49:11Z</time>
      </trkpt>
      <trkpt lat="42.324079005047679" lon="-7.712746001780033">
        <ele>552.40999999999997</ele>
        <time>2025-05-02T09:49:12Z</time>
      </trkpt>
      <trkpt lat="42.324030976742506" lon="-7.712657991796732">
        <ele>550.97000000000003</ele>
        <time>2025-05-02T09:49:13Z</time>
      </trkpt>
      <trkpt lat="42.323356987908483" lon="-7.711530039086938">
        <ele>541.84000000000003</ele>
        <time>2025-05-02T09:49:20Z</time>
      </trkpt>
      <trkpt lat="42.32326696626842" lon="-7.711388971656561">
        <ele>539.91999999999996</ele>
        <time>2025-05-02T09:49:21Z</time>
      </trkpt>
      <trkpt lat="42.323121037334204" lon="-7.711284030228853">
        <ele>538.96000000000004</ele>
        <time>2025-05-02T09:49:22Z</time>
      </trkpt>
      <trkpt lat="42.322419974952936" lon="-7.710899971425533">
        <ele>532.23000000000002</ele>
        <time>2025-05-02T09:49:28Z</time>
      </trkpt>
      <trkpt lat="42.322315033525229" lon="-7.710854038596153">
        <ele>530.78999999999996</ele>
        <time>2025-05-02T09:49:29Z</time>
      </trkpt>
      <trkpt lat="42.321898033842444" lon="-7.710721017792821">
        <ele>522.13</ele>
        <time>2025-05-02T09:49:36Z</time>
      </trkpt>
      <trkpt lat="42.321884036064148" lon="-7.710716994479299">
        <ele>521.16999999999996</ele>
        <time>2025-05-02T09:49:37Z</time>
      </trkpt>
      <trkpt lat="42.321870038285851" lon="-7.710712971165776">
        <ele>520.21000000000004</ele>
        <time>2025-05-02T09:49:38Z</time>
      </trkpt>
      <trkpt lat="42.321850005537271" lon="-7.710707020014525">
        <ele>519.25</ele>
        <time>2025-05-02T09:49:39Z</time>
      </trkpt>
      <trkpt lat="42.321797031909227" lon="-7.710641976445913">
        <ele>518.76999999999998</ele>
        <time>2025-05-02T09:49:40Z</time>
      </trkpt>
      <trkpt lat="42.321819998323917" lon="-7.710572993382812">
        <ele>518.76999999999998</ele>
        <time>2025-05-02T09:49:41Z</time>
      </trkpt>
      <trkpt lat="42.321872971951962" lon="-7.710391022264957">
        <ele>519.73000000000002</ele>
        <time>2025-05-02T09:49:43Z</time>
      </trkpt>
      <trkpt lat="42.321903984993696" lon="-7.710273005068302">
        <ele>519.73000000000002</ele>
        <time>2025-05-02T09:49:44Z</time>
      </trkpt>
      <trkpt lat="42.321939021348953" lon="-7.710135960951448">
        <ele>520.21000000000004</ele>
        <time>2025-05-02T09:49:45Z</time>
      </trkpt>
      <trkpt lat="42.321977997198701" lon="-7.709983997046948">
        <ele>520.21000000000004</ele>
        <time>2025-05-02T09:49:46Z</time>
      </trkpt>
      <trkpt lat="42.32201898470521" lon="-7.709828009828925">
        <ele>520.69000000000005</ele>
        <time>2025-05-02T09:49:47Z</time>
      </trkpt>
      <trkpt lat="42.322004986926913" lon="-7.709676967933774">
        <ele>521.16999999999996</ele>
        <time>2025-05-02T09:49:48Z</time>
      </trkpt>
      <trkpt lat="42.321988977491856" lon="-7.709503965452313">
        <ele>521.64999999999998</ele>
        <time>2025-05-02T09:49:49Z</time>
      </trkpt>
      <trkpt lat="42.321919994428754" lon="-7.709162989631295">
        <ele>521.64999999999998</ele>
        <time>2025-05-02T09:49:50Z</time>
      </trkpt>
      <trkpt lat="42.321869032457471" lon="-7.708989987149835">
        <ele>522.13</ele>
        <time>2025-05-02T09:49:51Z</time>
      </trkpt>
      <trkpt lat="42.321513975039124" lon="-7.707745023071766">
        <ele>525.98000000000002</ele>
        <time>2025-05-02T09:49:58Z</time>
      </trkpt>
      <trkpt lat="42.321482039988041" lon="-7.707532960921526">
        <ele>526.46000000000004</ele>
        <time>2025-05-02T09:49:59Z</time>
      </trkpt>
      <trkpt lat="42.321482039988041" lon="-7.707326011732221">
        <ele>526.94000000000005</ele>
        <time>2025-05-02T09:50:00Z</time>
      </trkpt>
      <trkpt lat="42.32150299474597" lon="-7.707105986773968">
        <ele>527.89999999999998</ele>
        <time>2025-05-02T09:50:01Z</time>
      </trkpt>
      <trkpt lat="42.32156996615231" lon="-7.706885961815715">
        <ele>528.86000000000001</ele>
        <time>2025-05-02T09:50:02Z</time>
      </trkpt>
      <trkpt lat="42.321636015549302" lon="-7.706671971827745">
        <ele>529.34000000000003</ele>
        <time>2025-05-02T09:50:03Z</time>
      </trkpt>
      <trkpt lat="42.321771970018744" lon="-7.706227982416749">
        <ele>531.26999999999998</ele>
        <time>2025-05-02T09:50:05Z</time>
      </trkpt>
      <trkpt lat="42.322498010471463" lon="-7.704028990119696">
        <ele>537.99000000000001</ele>
        <time>2025-05-02T09:50:15Z</time>
      </trkpt>
      <trkpt lat="42.323138974606991" lon="-7.702148007228971">
        <ele>547.61000000000001</ele>
        <time>2025-05-02T09:50:25Z</time>
      </trkpt>
      <trkpt lat="42.323616994544864" lon="-7.700698021799326">
        <ele>555.77999999999997</ele>
        <time>2025-05-02T09:50:35Z</time>
      </trkpt>
      <trkpt lat="42.324033994227648" lon="-7.699458003044128">
        <ele>561.07000000000005</ele>
        <time>2025-05-02T09:50:44Z</time>
      </trkpt>
      <trkpt lat="42.324454011395574" lon="-7.698227036744356">
        <ele>566.35000000000002</ele>
        <time>2025-05-02T09:50:53Z</time>
      </trkpt>
      <trkpt lat="42.324571022763848" lon="-7.697795033454895">
        <ele>568.27999999999997</ele>
        <time>2025-05-02T09:50:56Z</time>
      </trkpt>
      <trkpt lat="42.324601029977202" lon="-7.697646003216505">
        <ele>568.75999999999999</ele>
        <time>2025-05-02T09:50:57Z</time>
      </trkpt>
      <trkpt lat="42.324631037190557" lon="-7.697497978806496">
        <ele>569.24000000000001</ele>
        <time>2025-05-02T09:50:58Z</time>
      </trkpt>
      <trkpt lat="42.32461997307837" lon="-7.69733302295208">
        <ele>569.24000000000001</ele>
        <time>2025-05-02T09:50:59Z</time>
      </trkpt>
      <trkpt lat="42.324600024148822" lon="-7.697177035734057">
        <ele>569.72000000000003</ele>
        <time>2025-05-02T09:51:00Z</time>
      </trkpt>
      <trkpt lat="42.3245769739151" lon="-7.697017025202513">
        <ele>570.20000000000005</ele>
        <time>2025-05-02T09:51:01Z</time>
      </trkpt>
      <trkpt lat="42.324545960873365" lon="-7.695695031434298">
        <ele>574.52999999999997</ele>
        <time>2025-05-02T09:51:09Z</time>
      </trkpt>
      <trkpt lat="42.324550990015268" lon="-7.695514988154173">
        <ele>575.00999999999999</ele>
        <time>2025-05-02T09:51:10Z</time>
      </trkpt>
      <trkpt lat="42.324655009433627" lon="-7.693929970264435">
        <ele>578.85000000000002</ele>
        <time>2025-05-02T09:51:19Z</time>
      </trkpt>
      <trkpt lat="42.324249995872378" lon="-7.692403038963676">
        <ele>584.62</ele>
        <time>2025-05-02T09:51:28Z</time>
      </trkpt>
      <trkpt lat="42.324176989495754" lon="-7.692237999290228">
        <ele>585.58000000000004</ele>
        <time>2025-05-02T09:51:29Z</time>
      </trkpt>
      <trkpt lat="42.324084034189582" lon="-7.692086035385728">
        <ele>586.05999999999995</ele>
        <time>2025-05-02T09:51:30Z</time>
      </trkpt>
      <trkpt lat="42.323970962315798" lon="-7.691910015419126">
        <ele>587.01999999999998</ele>
        <time>2025-05-02T09:51:31Z</time>
      </trkpt>
      <trkpt lat="42.32386501505971" lon="-7.691813036799431">
        <ele>587.98000000000002</ele>
        <time>2025-05-02T09:51:32Z</time>
      </trkpt>
      <trkpt lat="42.323746997863054" lon="-7.69170599989593">
        <ele>588.46000000000004</ele>
        <time>2025-05-02T09:51:33Z</time>
      </trkpt>
      <trkpt lat="42.323626969009638" lon="-7.69159602932632">
        <ele>589.42999999999995</ele>
        <time>2025-05-02T09:51:34Z</time>
      </trkpt>
      <trkpt lat="42.323509035632014" lon="-7.691488992422819">
        <ele>590.38999999999999</ele>
        <time>2025-05-02T09:51:35Z</time>
      </trkpt>
      <trkpt lat="42.323390012606978" lon="-7.69138103350997">
        <ele>591.35000000000002</ele>
        <time>2025-05-02T09:51:36Z</time>
      </trkpt>
      <trkpt lat="42.322433972731233" lon="-7.690127016976476">
        <ele>600.96000000000004</ele>
        <time>2025-05-02T09:51:45Z</time>
      </trkpt>
      <trkpt lat="42.322347974404693" lon="-7.689981004223228">
        <ele>602.39999999999998</ele>
        <time>2025-05-02T09:51:46Z</time>
      </trkpt>
      <trkpt lat="42.32227697968483" lon="-7.689825017005205">
        <ele>603.36000000000001</ele>
        <time>2025-05-02T09:51:47Z</time>
      </trkpt>
      <trkpt lat="42.322225011885166" lon="-7.689656037837267">
        <ele>604.33000000000004</ele>
        <time>2025-05-02T09:51:48Z</time>
      </trkpt>
      <trkpt lat="42.322172960266471" lon="-7.689484041184187">
        <ele>605.28999999999996</ele>
        <time>2025-05-02T09:51:49Z</time>
      </trkpt>
      <trkpt lat="42.322128033265471" lon="-7.689308021217585">
        <ele>606.73000000000002</ele>
        <time>2025-05-02T09:51:50Z</time>
      </trkpt>
      <trkpt lat="42.321856962516904" lon="-7.687788968905807">
        <ele>614.41999999999996</ele>
        <time>2025-05-02T09:51:58Z</time>
      </trkpt>
      <trkpt lat="42.321879006922245" lon="-7.687590988352895">
        <ele>615.38</ele>
        <time>2025-05-02T09:51:59Z</time>
      </trkpt>
      <trkpt lat="42.321900967508554" lon="-7.687389990314841">
        <ele>616.34000000000003</ele>
        <time>2025-05-02T09:52:00Z</time>
      </trkpt>
      <trkpt lat="42.3219970241189" lon="-7.686389023438096">
        <ele>621.14999999999998</ele>
        <time>2025-05-02T09:52:05Z</time>
      </trkpt>
      <trkpt lat="42.321991994976997" lon="-7.686180984601378">
        <ele>622.11000000000001</ele>
        <time>2025-05-02T09:52:06Z</time>
      </trkpt>
      <trkpt lat="42.321946984156966" lon="-7.68598803319037">
        <ele>623.07000000000005</ele>
        <time>2025-05-02T09:52:07Z</time>
      </trkpt>
      <trkpt lat="42.32191102579236" lon="-7.685837997123599">
        <ele>624.02999999999997</ele>
        <time>2025-05-02T09:52:08Z</time>
      </trkpt>
      <trkpt lat="42.321802983060479" lon="-7.685650996863842">
        <ele>624.99000000000001</ele>
        <time>2025-05-02T09:52:09Z</time>
      </trkpt>
      <trkpt lat="42.321706004440784" lon="-7.685484029352665">
        <ele>625.47000000000003</ele>
        <time>2025-05-02T09:52:10Z</time>
      </trkpt>
      <trkpt lat="42.32158999890089" lon="-7.685336004942656">
        <ele>626.44000000000005</ele>
        <time>2025-05-02T09:52:11Z</time>
      </trkpt>
      <trkpt lat="42.321454966440797" lon="-7.685190998017788">
        <ele>627.39999999999998</ele>
        <time>2025-05-02T09:52:12Z</time>
      </trkpt>
      <trkpt lat="42.321289004758" lon="-7.685094019398093">
        <ele>628.36000000000001</ele>
        <time>2025-05-02T09:52:13Z</time>
      </trkpt>
      <trkpt lat="42.321104016155005" lon="-7.685036016628146">
        <ele>629.32000000000005</ele>
        <time>2025-05-02T09:52:14Z</time>
      </trkpt>
      <trkpt lat="42.321104016155005" lon="-7.685036016628146">
        <ele>630.27999999999997</ele>
        <time>2025-05-02T09:52:15Z</time>
      </trkpt>
      <trkpt lat="42.320722974836826" lon="-7.685003997758031">
        <ele>631.24000000000001</ele>
        <time>2025-05-02T09:52:16Z</time>
      </trkpt>
      <trkpt lat="42.320173038169742" lon="-7.684957981109619">
        <ele>634.13</ele>
        <time>2025-05-02T09:52:19Z</time>
      </trkpt>
      <trkpt lat="42.319983020424843" lon="-7.684853039681912">
        <ele>635.09000000000003</ele>
        <time>2025-05-02T09:52:20Z</time>
      </trkpt>
      <trkpt lat="42.319815969094634" lon="-7.684760000556707">
        <ele>636.04999999999995</ele>
        <time>2025-05-02T09:52:21Z</time>
      </trkpt>
      <trkpt lat="42.319684037938714" lon="-7.684629997238517">
        <ele>637.00999999999999</ele>
        <time>2025-05-02T09:52:22Z</time>
      </trkpt>
      <trkpt lat="42.319569038227201" lon="-7.684484990313649">
        <ele>637.97000000000003</ele>
        <time>2025-05-02T09:52:23Z</time>
      </trkpt>
      <trkpt lat="42.319569038227201" lon="-7.684484990313649">
        <ele>638.92999999999995</ele>
        <time>2025-05-02T09:52:24Z</time>
      </trkpt>
      <trkpt lat="42.319378014653921" lon="-7.684104032814503">
        <ele>639.88999999999999</ele>
        <time>2025-05-02T09:52:25Z</time>
      </trkpt>
      <trkpt lat="42.319291010499001" lon="-7.683881996199489">
        <ele>640.38</ele>
        <time>2025-05-02T09:52:26Z</time>
      </trkpt>
      <trkpt lat="42.319205012172461" lon="-7.683661971241236">
        <ele>641.34000000000003</ele>
        <time>2025-05-02T09:52:27Z</time>
      </trkpt>
      <trkpt lat="42.318801004439592" lon="-7.682808022946119">
        <ele>644.70000000000005</ele>
        <time>2025-05-02T09:52:31Z</time>
      </trkpt>
      <trkpt lat="42.318683993071318" lon="-7.682608030736446">
        <ele>645.65999999999997</ele>
        <time>2025-05-02T09:52:32Z</time>
      </trkpt>
      <trkpt lat="42.31791403144598" lon="-7.681526010856032">
        <ele>651.90999999999997</ele>
        <time>2025-05-02T09:52:38Z</time>
      </trkpt>
      <trkpt lat="42.317372979596257" lon="-7.680181972682476">
        <ele>658.15999999999997</ele>
        <time>2025-05-02T09:52:44Z</time>
      </trkpt>
      <trkpt lat="42.316799992695451" lon="-7.678541969507933">
        <ele>664.88999999999999</ele>
        <time>2025-05-02T09:52:51Z</time>
      </trkpt>
      <trkpt lat="42.316688010469079" lon="-7.678334014490247">
        <ele>665.85000000000002</ele>
        <time>2025-05-02T09:52:52Z</time>
      </trkpt>
      <trkpt lat="42.316688010469079" lon="-7.678334014490247">
        <ele>667.28999999999996</ele>
        <time>2025-05-02T09:52:53Z</time>
      </trkpt>
      <trkpt lat="42.31656001880765" lon="-7.678157994523644">
        <ele>668.25</ele>
        <time>2025-05-02T09:52:54Z</time>
      </trkpt>
      <trkpt lat="42.316258018836379" lon="-7.677920032292604">
        <ele>669.22000000000003</ele>
        <time>2025-05-02T09:52:55Z</time>
      </trkpt>
      <trkpt lat="42.316258018836379" lon="-7.677920032292604">
        <ele>670.17999999999995</ele>
        <time>2025-05-02T09:52:56Z</time>
      </trkpt>
      <trkpt lat="42.316091973334551" lon="-7.677857000380755">
        <ele>671.13999999999999</ele>
        <time>2025-05-02T09:52:57Z</time>
      </trkpt>
      <trkpt lat="42.315719984471798" lon="-7.677795980125666">
        <ele>672.10000000000002</ele>
        <time>2025-05-02T09:52:58Z</time>
      </trkpt>
      <trkpt lat="42.315718978643417" lon="-7.677795980125666">
        <ele>673.05999999999995</ele>
        <time>2025-05-02T09:52:59Z</time>
      </trkpt>
      <trkpt lat="42.315355958417058" lon="-7.67795599065721">
        <ele>674.01999999999998</ele>
        <time>2025-05-02T09:53:00Z</time>
      </trkpt>
      <trkpt lat="42.315182033926249" lon="-7.678059004247189">
        <ele>674.98000000000002</ele>
        <time>2025-05-02T09:53:01Z</time>
      </trkpt>
      <trkpt lat="42.314681969583035" lon="-7.67831901088357">
        <ele>677.38999999999999</ele>
        <time>2025-05-02T09:53:04Z</time>
      </trkpt>
      <trkpt lat="42.314510978758335" lon="-7.678343988955021">
        <ele>678.35000000000002</ele>
        <time>2025-05-02T09:53:05Z</time>
      </trkpt>
      <trkpt lat="42.314334036782384" lon="-7.678369972854853">
        <ele>679.30999999999995</ele>
        <time>2025-05-02T09:53:06Z</time>
      </trkpt>
      <trkpt lat="42.314170002937317" lon="-7.678311970084906">
        <ele>679.78999999999996</ele>
        <time>2025-05-02T09:53:07Z</time>
      </trkpt>
      <trkpt lat="42.314170002937317" lon="-7.678311970084906">
        <ele>680.75</ele>
        <time>2025-05-02T09:53:08Z</time>
      </trkpt>
      <trkpt lat="42.314007980749011" lon="-7.678254973143339">
        <ele>681.71000000000004</ele>
        <time>2025-05-02T09:53:09Z</time>
      </trkpt>
      <trkpt lat="42.313753003254533" lon="-7.678057998418808">
        <ele>682.66999999999996</ele>
        <time>2025-05-02T09:53:10Z</time>
      </trkpt>
      <trkpt lat="42.313642026856542" lon="-7.677941992878914">
        <ele>683.63</ele>
        <time>2025-05-02T09:53:11Z</time>
      </trkpt>
      <trkpt lat="42.313642026856542" lon="-7.677941992878914">
        <ele>685.08000000000004</ele>
        <time>2025-05-02T09:53:12Z</time>
      </trkpt>
      <trkpt lat="42.313530966639519" lon="-7.67782598733902">
        <ele>686.03999999999996</ele>
        <time>2025-05-02T09:53:13Z</time>
      </trkpt>
      <trkpt lat="42.313428036868572" lon="-7.677691038697958">
        <ele>687.48000000000002</ele>
        <time>2025-05-02T09:53:14Z</time>
      </trkpt>
      <trkpt lat="42.312698978930712" lon="-7.676502987742424">
        <ele>694.69000000000005</ele>
        <time>2025-05-02T09:53:21Z</time>
      </trkpt>
      <trkpt lat="42.312612980604172" lon="-7.676399974152446">
        <ele>695.64999999999998</ele>
        <time>2025-05-02T09:53:22Z</time>
      </trkpt>
      <trkpt lat="42.312524970620871" lon="-7.676302995532751">
        <ele>696.13</ele>
        <time>2025-05-02T09:53:23Z</time>
      </trkpt>
      <trkpt lat="42.312409970909357" lon="-7.676290003582835">
        <ele>697.09000000000003</ele>
        <time>2025-05-02T09:53:24Z</time>
      </trkpt>
      <trkpt lat="42.312315003946424" lon="-7.676263013854623">
        <ele>698.04999999999995</ele>
        <time>2025-05-02T09:53:25Z</time>
      </trkpt>
      <trkpt lat="42.312227999791503" lon="-7.676240969449282">
        <ele>698.52999999999997</ele>
        <time>2025-05-02T09:53:26Z</time>
      </trkpt>
      <trkpt lat="42.312143007293344" lon="-7.676224038004875">
        <ele>699.5</ele>
        <time>2025-05-02T09:53:27Z</time>
      </trkpt>
      <trkpt lat="42.312143007293344" lon="-7.676224038004875">
        <ele>699.98000000000002</ele>
        <time>2025-05-02T09:53:28Z</time>
      </trkpt>
      <trkpt lat="42.312039993703365" lon="-7.676204005256295">
        <ele>700.46000000000004</ele>
        <time>2025-05-02T09:53:29Z</time>
      </trkpt>
      <trkpt lat="42.311947038397193" lon="-7.676238035783172">
        <ele>700.46000000000004</ele>
        <time>2025-05-02T09:53:30Z</time>
      </trkpt>
      <trkpt lat="42.311844024807215" lon="-7.676280029118061">
        <ele>700.94000000000005</ele>
        <time>2025-05-02T09:53:31Z</time>
      </trkpt>
      <trkpt lat="42.310903994366527" lon="-7.676740027964115">
        <ele>700.94000000000005</ele>
        <time>2025-05-02T09:53:38Z</time>
      </trkpt>
      <trkpt lat="42.309311013668776" lon="-7.677415022626519">
        <ele>697.09000000000003</ele>
        <time>2025-05-02T09:53:47Z</time>
      </trkpt>
      <trkpt lat="42.30712803080678" lon="-7.678337031975389">
        <ele>685.08000000000004</ele>
        <time>2025-05-02T09:53:58Z</time>
      </trkpt>
      <trkpt lat="42.306933989748359" lon="-7.678412972018123">
        <ele>684.12</ele>
        <time>2025-05-02T09:53:59Z</time>
      </trkpt>
      <trkpt lat="42.306733997538686" lon="-7.678423030301929">
        <ele>683.14999999999998</ele>
        <time>2025-05-02T09:54:00Z</time>
      </trkpt>
      <trkpt lat="42.306542973965406" lon="-7.678431998938322">
        <ele>682.19000000000005</ele>
        <time>2025-05-02T09:54:01Z</time>
      </trkpt>
      <trkpt lat="42.306366031989455" lon="-7.678388999775052">
        <ele>681.71000000000004</ele>
        <time>2025-05-02T09:54:02Z</time>
      </trkpt>
      <trkpt lat="42.306182971224189" lon="-7.678318005055189">
        <ele>680.75</ele>
        <time>2025-05-02T09:54:03Z</time>
      </trkpt>
      <trkpt lat="42.30599001981318" lon="-7.678241981193423">
        <ele>680.26999999999998</ele>
        <time>2025-05-02T09:54:04Z</time>
      </trkpt>
      <trkpt lat="42.304082969203591" lon="-7.677113022655249">
        <ele>677.87</ele>
        <time>2025-05-02T09:54:15Z</time>
      </trkpt>
      <trkpt lat="42.303913990035653" lon="-7.677021995186806">
        <ele>677.87</ele>
        <time>2025-05-02T09:54:16Z</time>
      </trkpt>
      <trkpt lat="42.303721038624644" lon="-7.677018977701664">
        <ele>677.38999999999999</ele>
        <time>2025-05-02T09:54:17Z</time>
      </trkpt>
      <trkpt lat="42.303538983687758" lon="-7.677018977701664">
        <ele>677.38999999999999</ele>
        <time>2025-05-02T09:54:18Z</time>
      </trkpt>
      <trkpt lat="42.303353995084763" lon="-7.677058959379792">
        <ele>676.90999999999997</ele>
        <time>2025-05-02T09:54:19Z</time>
      </trkpt>
      <trkpt lat="42.30317504145205" lon="-7.677101036533713">
        <ele>676.41999999999996</ele>
        <time>2025-05-02T09:54:20Z</time>
      </trkpt>
      <trkpt lat="42.302688974887133" lon="-7.677254006266594">
        <ele>675.94000000000005</ele>
        <time>2025-05-02T09:54:23Z</time>
      </trkpt>
      <trkpt lat="42.302544973790646" lon="-7.677303040400147">
        <ele>675.46000000000004</ele>
        <time>2025-05-02T09:54:24Z</time>
      </trkpt>
      <trkpt lat="42.301820022985339" lon="-7.677533961832523">
        <ele>673.05999999999995</ele>
        <time>2025-05-02T09:54:30Z</time>
      </trkpt>
      <trkpt lat="42.301698988303542" lon="-7.677533961832523">
        <ele>672.58000000000004</ele>
        <time>2025-05-02T09:54:31Z</time>
      </trkpt>
      <trkpt lat="42.301577031612396" lon="-7.677533961832523">
        <ele>672.58000000000004</ele>
        <time>2025-05-02T09:54:32Z</time>
      </trkpt>
      <trkpt lat="42.301464965566993" lon="-7.677495991811156">
        <ele>672.10000000000002</ele>
        <time>2025-05-02T09:54:33Z</time>
      </trkpt>
      <trkpt lat="42.301357006654143" lon="-7.677430026233196">
        <ele>671.62</ele>
        <time>2025-05-02T09:54:34Z</time>
      </trkpt>
      <trkpt lat="42.301247958093882" lon="-7.677362971007824">
        <ele>671.13999999999999</ele>
        <time>2025-05-02T09:54:35Z</time>
      </trkpt>
      <trkpt lat="42.300916034728289" lon="-7.677159961313009">
        <ele>669.22000000000003</ele>
        <time>2025-05-02T09:54:38Z</time>
      </trkpt>
      <trkpt lat="42.300821989774704" lon="-7.677070023491979">
        <ele>668.73000000000002</ele>
        <time>2025-05-02T09:54:39Z</time>
      </trkpt>
      <trkpt lat="42.300740014761686" lon="-7.676954017952085">
        <ele>668.25</ele>
        <time>2025-05-02T09:54:40Z</time>
      </trkpt>
      <trkpt lat="42.300655022263527" lon="-7.676832983270288">
        <ele>668.25</ele>
        <time>2025-05-02T09:54:41Z</time>
      </trkpt>
      <trkpt lat="42.300569023936987" lon="-7.67670901492238">
        <ele>667.76999999999998</ele>
        <time>2025-05-02T09:54:42Z</time>
      </trkpt>
      <trkpt lat="42.300475984811783" lon="-7.676589991897345">
        <ele>667.28999999999996</ele>
        <time>2025-05-02T09:54:43Z</time>
      </trkpt>
      <trkpt lat="42.300380012020469" lon="-7.676510028541088">
        <ele>666.80999999999995</ele>
        <time>2025-05-02T09:54:44Z</time>
      </trkpt>
      <trkpt lat="42.300283033400774" lon="-7.676441967487335">
        <ele>666.33000000000004</ele>
        <time>2025-05-02T09:54:45Z</time>
      </trkpt>
      <trkpt lat="42.300179013982415" lon="-7.676368961110711">
        <ele>665.85000000000002</ele>
        <time>2025-05-02T09:54:46Z</time>
      </trkpt>
      <trkpt lat="42.299370998516679" lon="-7.675879038870335">
        <ele>661.51999999999998</ele>
        <time>2025-05-02T09:54:53Z</time>
      </trkpt>
      <trkpt lat="42.29795303195715" lon="-7.675059959292412">
        <ele>658.15999999999997</ele>
        <time>2025-05-02T09:55:02Z</time>
      </trkpt>
      <trkpt lat="42.297336962074041" lon="-7.674604989588261">
        <ele>658.63999999999999</ele>
        <time>2025-05-02T09:55:06Z</time>
      </trkpt>
      <trkpt lat="42.29662399739027" lon="-7.673710975795984">
        <ele>658.15999999999997</ele>
        <time>2025-05-02T09:55:12Z</time>
      </trkpt>
      <trkpt lat="42.296352004632354" lon="-7.673294981941581">
        <ele>658.15999999999997</ele>
        <time>2025-05-02T09:55:13Z</time>
      </trkpt>
      <trkpt lat="42.29529001750052" lon="-7.671670988202095">
        <ele>662.49000000000001</ele>
        <time>2025-05-02T09:55:21Z</time>
      </trkpt>
      <trkpt lat="42.294870000332594" lon="-7.671161033213139">
        <ele>663.92999999999995</ele>
        <time>2025-05-02T09:55:25Z</time>
      </trkpt>
      <trkpt lat="42.294723987579346" lon="-7.671039998531342">
        <ele>663.92999999999995</ele>
        <time>2025-05-02T09:55:26Z</time>
      </trkpt>
      <trkpt lat="42.294563977047801" lon="-7.670955006033182">
        <ele>663.92999999999995</ele>
        <time>2025-05-02T09:55:27Z</time>
      </trkpt>
      <trkpt lat="42.293858975172043" lon="-7.670626016333699">
        <ele>663.45000000000005</ele>
        <time>2025-05-02T09:55:32Z</time>
      </trkpt>
      <trkpt lat="42.293739030137658" lon="-7.670571031048894">
        <ele>663.45000000000005</ele>
        <time>2025-05-02T09:55:33Z</time>
      </trkpt>
      <trkpt lat="42.293648002669215" lon="-7.67045795917511">
        <ele>662.97000000000003</ele>
        <time>2025-05-02T09:55:34Z</time>
      </trkpt>
      <trkpt lat="42.293569967150688" lon="-7.670342037454248">
        <ele>662.49000000000001</ele>
        <time>2025-05-02T09:55:35Z</time>
      </trkpt>
      <trkpt lat="42.293531997129321" lon="-7.670198958367109">
        <ele>662.00999999999999</ele>
        <time>2025-05-02T09:55:36Z</time>
      </trkpt>
      <trkpt lat="42.293513976037502" lon="-7.670040959492326">
        <ele>661.51999999999998</ele>
        <time>2025-05-02T09:55:37Z</time>
      </trkpt>
      <trkpt lat="42.293496038764715" lon="-7.669882038608193">
        <ele>661.03999999999996</ele>
        <time>2025-05-02T09:55:38Z</time>
      </trkpt>
      <trkpt lat="42.293450022116303" lon="-7.669577021151781">
        <ele>660.08000000000004</ele>
        <time>2025-05-02T09:55:40Z</time>
      </trkpt>
      <trkpt lat="42.293424960225821" lon="-7.669430002570152">
        <ele>659.60000000000002</ele>
        <time>2025-05-02T09:55:41Z</time>
      </trkpt>
      <trkpt lat="42.293367041274905" lon="-7.669291030615568">
        <ele>659.12</ele>
        <time>2025-05-02T09:55:42Z</time>
      </trkpt>
      <trkpt lat="42.292962027713656" lon="-7.668916024267674">
        <ele>657.20000000000005</ele>
        <time>2025-05-02T09:55:46Z</time>
      </trkpt>
      <trkpt lat="42.292852979153395" lon="-7.668833965435624">
        <ele>656.72000000000003</ele>
        <time>2025-05-02T09:55:47Z</time>
      </trkpt>
      <trkpt lat="42.292216038331389" lon="-7.668381007388234">
        <ele>653.35000000000002</ele>
        <time>2025-05-02T09:55:52Z</time>
      </trkpt>
      <trkpt lat="42.292085029184818" lon="-7.668257039040327">
        <ele>652.38999999999999</ele>
        <time>2025-05-02T09:55:53Z</time>
      </trkpt>
      <trkpt lat="42.291949996724725" lon="-7.668112032115459">
        <ele>651.42999999999995</ele>
        <time>2025-05-02T09:55:54Z</time>
      </trkpt>
      <trkpt lat="42.291825022548437" lon="-7.667955039069057">
        <ele>650.47000000000003</ele>
        <time>2025-05-02T09:55:55Z</time>
      </trkpt>
      <trkpt lat="42.291700970381498" lon="-7.667782036587596">
        <ele>649.50999999999999</ele>
        <time>2025-05-02T09:55:56Z</time>
      </trkpt>
      <trkpt lat="42.291594017297029" lon="-7.667582966387272">
        <ele>648.54999999999995</ele>
        <time>2025-05-02T09:55:57Z</time>
      </trkpt>
      <trkpt lat="42.290810979902744" lon="-7.666172962635756">
        <ele>645.17999999999995</ele>
        <time>2025-05-02T09:56:03Z</time>
      </trkpt>
      <trkpt lat="42.290662033483386" lon="-7.666005995124579">
        <ele>644.22000000000003</ele>
        <time>2025-05-02T09:56:04Z</time>
      </trkpt>
      <trkpt lat="42.289751004427671" lon="-7.665315996855497">
        <ele>639.40999999999997</ele>
        <time>2025-05-02T09:56:10Z</time>
      </trkpt>
      <trkpt lat="42.289038961753249" lon="-7.66480503603816">
        <ele>635.09000000000003</ele>
        <time>2025-05-02T09:56:15Z</time>
      </trkpt>
      <trkpt lat="42.288934020325541" lon="-7.664663968607783">
        <ele>635.09000000000003</ele>
        <time>2025-05-02T09:56:16Z</time>
      </trkpt>
      <trkpt lat="42.288934020325541" lon="-7.664663968607783">
        <ele>634.61000000000001</ele>
        <time>2025-05-02T09:56:17Z</time>
      </trkpt>
      <trkpt lat="42.288834024220705" lon="-7.664513010531664">
        <ele>634.13</ele>
        <time>2025-05-02T09:56:18Z</time>
      </trkpt>
      <trkpt lat="42.288740985095501" lon="-7.664364986121655">
        <ele>634.13</ele>
        <time>2025-05-02T09:56:19Z</time>
      </trkpt>
      <trkpt lat="42.288662027567625" lon="-7.664201958104968">
        <ele>634.13</ele>
        <time>2025-05-02T09:56:20Z</time>
      </trkpt>
      <trkpt lat="42.288582986220717" lon="-7.664041025564075">
        <ele>634.61000000000001</ele>
        <time>2025-05-02T09:56:21Z</time>
      </trkpt>
      <trkpt lat="42.287819981575012" lon="-7.66282900236547">
        <ele>637.97000000000003</ele>
        <time>2025-05-02T09:56:29Z</time>
      </trkpt>
      <trkpt lat="42.287542037665844" lon="-7.662600008770824">
        <ele>637.00999999999999</ele>
        <time>2025-05-02T09:56:31Z</time>
      </trkpt>
      <trkpt lat="42.286261031404138" lon="-7.661802973598242">
        <ele>627.88</ele>
        <time>2025-05-02T09:56:38Z</time>
      </trkpt>
      <trkpt lat="42.284682970494032" lon="-7.660854980349541">
        <ele>617.77999999999997</ele>
        <time>2025-05-02T09:56:46Z</time>
      </trkpt>
      <trkpt lat="42.284510973840952" lon="-7.660712990909815">
        <ele>616.34000000000003</ele>
        <time>2025-05-02T09:56:47Z</time>
      </trkpt>
      <trkpt lat="42.284351969137788" lon="-7.660559015348554">
        <ele>615.38</ele>
        <time>2025-05-02T09:56:48Z</time>
      </trkpt>
      <trkpt lat="42.284078970551491" lon="-7.660170011222363">
        <ele>613.94000000000005</ele>
        <time>2025-05-02T09:56:50Z</time>
      </trkpt>
      <trkpt lat="42.283093007281423" lon="-7.658598991110921">
        <ele>607.69000000000005</ele>
        <time>2025-05-02T09:56:57Z</time>
      </trkpt>
      <trkpt lat="42.282048035413027" lon="-7.656918000429869">
        <ele>602.39999999999998</ele>
        <time>2025-05-02T09:57:04Z</time>
      </trkpt>
      <trkpt lat="42.280528983101249" lon="-7.654486997053027">
        <ele>605.28999999999996</ele>
        <time>2025-05-02T09:57:15Z</time>
      </trkpt>
      <trkpt lat="42.2802500333637" lon="-7.654075026512146">
        <ele>605.76999999999998</ele>
        <time>2025-05-02T09:57:17Z</time>
      </trkpt>
      <trkpt lat="42.280089017003775" lon="-7.653896994888783">
        <ele>606.25</ele>
        <time>2025-05-02T09:57:18Z</time>
      </trkpt>
      <trkpt lat="42.279733959585428" lon="-7.653671018779278">
        <ele>606.73000000000002</ele>
        <time>2025-05-02T09:57:19Z</time>
      </trkpt>
      <trkpt lat="42.279733959585428" lon="-7.653671018779278">
        <ele>606.73000000000002</ele>
        <time>2025-05-02T09:57:20Z</time>
      </trkpt>
      <trkpt lat="42.279361970722675" lon="-7.653541015461087">
        <ele>607.21000000000004</ele>
        <time>2025-05-02T09:57:21Z</time>
      </trkpt>
      <trkpt lat="42.279167007654905" lon="-7.653531963005662">
        <ele>607.69000000000005</ele>
        <time>2025-05-02T09:57:22Z</time>
      </trkpt>
      <trkpt lat="42.278969027101994" lon="-7.653522994369268">
        <ele>607.69000000000005</ele>
        <time>2025-05-02T09:57:23Z</time>
      </trkpt>
      <trkpt lat="42.277797991409898" lon="-7.653657021000981">
        <ele>608.64999999999998</ele>
        <time>2025-05-02T09:57:29Z</time>
      </trkpt>
      <trkpt lat="42.277796985581517" lon="-7.653657021000981">
        <ele>608.64999999999998</ele>
        <time>2025-05-02T09:57:30Z</time>
      </trkpt>
      <trkpt lat="42.277617026120424" lon="-7.653627013787627">
        <ele>608.64999999999998</ele>
        <time>2025-05-02T09:57:31Z</time>
      </trkpt>
      <trkpt lat="42.277273032814264" lon="-7.653450993821025">
        <ele>608.64999999999998</ele>
        <time>2025-05-02T09:57:32Z</time>
      </trkpt>
      <trkpt lat="42.277273032814264" lon="-7.653450993821025">
        <ele>608.16999999999996</ele>
        <time>2025-05-02T09:57:33Z</time>
      </trkpt>
      <trkpt lat="42.277126014232635" lon="-7.653309004381299">
        <ele>608.64999999999998</ele>
        <time>2025-05-02T09:57:34Z</time>
      </trkpt>
      <trkpt lat="42.277000034227967" lon="-7.653130972757936">
        <ele>608.64999999999998</ele>
        <time>2025-05-02T09:57:35Z</time>
      </trkpt>
      <trkpt lat="42.27690196596086" lon="-7.652937015518546">
        <ele>608.64999999999998</ele>
        <time>2025-05-02T09:57:36Z</time>
      </trkpt>
      <trkpt lat="42.276806998997927" lon="-7.652707016095519">
        <ele>608.64999999999998</ele>
        <time>2025-05-02T09:57:37Z</time>
      </trkpt>
      <trkpt lat="42.276711026206613" lon="-7.652218015864492">
        <ele>609.13</ele>
        <time>2025-05-02T09:57:38Z</time>
      </trkpt>
      <trkpt lat="42.276711026206613" lon="-7.652219021692872">
        <ele>609.13</ele>
        <time>2025-05-02T09:57:39Z</time>
      </trkpt>
      <trkpt lat="42.276530982926488" lon="-7.651030970737338">
        <ele>608.64999999999998</ele>
        <time>2025-05-02T09:57:44Z</time>
      </trkpt>
      <trkpt lat="42.276482032611966" lon="-7.6508429646492">
        <ele>608.64999999999998</ele>
        <time>2025-05-02T09:57:45Z</time>
      </trkpt>
      <trkpt lat="42.276429980993271" lon="-7.650673985481262">
        <ele>608.64999999999998</ele>
        <time>2025-05-02T09:57:46Z</time>
      </trkpt>
      <trkpt lat="42.276337025687099" lon="-7.650558985769749">
        <ele>608.16999999999996</ele>
        <time>2025-05-02T09:57:47Z</time>
      </trkpt>
      <trkpt lat="42.276248009875417" lon="-7.650447003543377">
        <ele>608.16999999999996</ele>
        <time>2025-05-02T09:57:48Z</time>
      </trkpt>
      <trkpt lat="42.276158994063735" lon="-7.650358993560076">
        <ele>608.16999999999996</ele>
        <time>2025-05-02T09:57:49Z</time>
      </trkpt>
      <trkpt lat="42.27593301795423" lon="-7.650274001061916">
        <ele>607.21000000000004</ele>
        <time>2025-05-02T09:57:51Z</time>
      </trkpt>
      <trkpt lat="42.275574021041393" lon="-7.650265032425523">
        <ele>606.25</ele>
        <time>2025-05-02T09:57:54Z</time>
      </trkpt>
      <trkpt lat="42.275449968874454" lon="-7.650277018547058">
        <ele>606.25</ele>
        <time>2025-05-02T09:57:55Z</time>
      </trkpt>
      <trkpt lat="42.274883016943932" lon="-7.650152966380119">
        <ele>603.36000000000001</ele>
        <time>2025-05-02T09:58:00Z</time>
      </trkpt>
      <trkpt lat="42.274768017232418" lon="-7.650132011622191">
        <ele>602.88</ele>
        <time>2025-05-02T09:58:01Z</time>
      </trkpt>
      <trkpt lat="42.274416983127594" lon="-7.650106027722359">
        <ele>600</ele>
        <time>2025-05-02T09:58:04Z</time>
      </trkpt>
      <trkpt lat="42.273937035351992" lon="-7.650175010785461">
        <ele>596.14999999999998</ele>
        <time>2025-05-02T09:58:08Z</time>
      </trkpt>
      <trkpt lat="42.273773001506925" lon="-7.650233013555408">
        <ele>595.19000000000005</ele>
        <time>2025-05-02T09:58:09Z</time>
      </trkpt>
      <trkpt lat="42.273561023175716" lon="-7.650338960811496">
        <ele>591.35000000000002</ele>
        <time>2025-05-02T09:58:13Z</time>
      </trkpt>
      <trkpt lat="42.273318031802773" lon="-7.650406016036868">
        <ele>589.90999999999997</ele>
        <time>2025-05-02T09:58:15Z</time>
      </trkpt>
      <trkpt lat="42.273231027647853" lon="-7.650416996330023">
        <ele>588.95000000000005</ele>
        <time>2025-05-02T09:58:16Z</time>
      </trkpt>
      <trkpt lat="42.273145029321313" lon="-7.650426970794797">
        <ele>588.46000000000004</ele>
        <time>2025-05-02T09:58:17Z</time>
      </trkpt>
      <trkpt lat="42.272756025195122" lon="-7.650413978844881">
        <ele>584.62</ele>
        <time>2025-05-02T09:58:22Z</time>
      </trkpt>
      <trkpt lat="42.27260397747159" lon="-7.650435017421842">
        <ele>583.65999999999997</ele>
        <time>2025-05-02T09:58:24Z</time>
      </trkpt>
      <trkpt lat="42.272518984973431" lon="-7.65045496635139">
        <ele>583.17999999999995</ele>
        <time>2025-05-02T09:58:25Z</time>
      </trkpt>
      <trkpt lat="42.272425023838878" lon="-7.650477010756731">
        <ele>583.17999999999995</ele>
        <time>2025-05-02T09:58:26Z</time>
      </trkpt>
      <trkpt lat="42.272242968901992" lon="-7.650507017970085">
        <ele>583.17999999999995</ele>
        <time>2025-05-02T09:58:29Z</time>
      </trkpt>
      <trkpt lat="42.272155964747071" lon="-7.650529984384775">
        <ele>583.17999999999995</ele>
        <time>2025-05-02T09:58:30Z</time>
      </trkpt>
      <trkpt lat="42.271636035293341" lon="-7.650669040158391">
        <ele>583.17999999999995</ele>
        <time>2025-05-02T09:58:36Z</time>
      </trkpt>
      <trkpt lat="42.271477030590177" lon="-7.650718996301293">
        <ele>583.17999999999995</ele>
        <time>2025-05-02T09:58:37Z</time>
      </trkpt>
      <trkpt lat="42.271392960101366" lon="-7.650744980201125">
        <ele>583.17999999999995</ele>
        <time>2025-05-02T09:58:38Z</time>
      </trkpt>
      <trkpt lat="42.271392960101366" lon="-7.650744980201125">
        <ele>583.17999999999995</ele>
        <time>2025-05-02T09:58:39Z</time>
      </trkpt>
      <trkpt lat="42.271221969276667" lon="-7.650787979364395">
        <ele>583.17999999999995</ele>
        <time>2025-05-02T09:58:40Z</time>
      </trkpt>
      <trkpt lat="42.271143011748791" lon="-7.650801977142692">
        <ele>583.17999999999995</ele>
        <time>2025-05-02T09:58:41Z</time>
      </trkpt>
      <trkpt lat="42.27114200592041" lon="-7.650801977142692">
        <ele>583.17999999999995</ele>
        <time>2025-05-02T09:58:42Z</time>
      </trkpt>
      <trkpt lat="42.270659962669015" lon="-7.650984032079577">
        <ele>583.65999999999997</ele>
        <time>2025-05-02T09:58:49Z</time>
      </trkpt>
      <trkpt lat="42.270577987655997" lon="-7.650984032079577">
        <ele>584.13999999999999</ele>
        <time>2025-05-02T09:58:50Z</time>
      </trkpt>
      <trkpt lat="42.270520990714431" lon="-7.650970034301281">
        <ele>584.62</ele>
        <time>2025-05-02T09:58:51Z</time>
      </trkpt>
      <trkpt lat="42.270448990166187" lon="-7.650927035138011">
        <ele>585.58000000000004</ele>
        <time>2025-05-02T09:58:52Z</time>
      </trkpt>
      <trkpt lat="42.270388975739479" lon="-7.650889987125993">
        <ele>586.05999999999995</ele>
        <time>2025-05-02T09:58:53Z</time>
      </trkpt>
      <trkpt lat="42.270327033475041" lon="-7.650853022933006">
        <ele>586.53999999999996</ele>
        <time>2025-05-02T09:58:54Z</time>
      </trkpt>
      <trkpt lat="42.27026198990643" lon="-7.650813963264227">
        <ele>587.01999999999998</ele>
        <time>2025-05-02T09:58:55Z</time>
      </trkpt>
      <trkpt lat="42.270192001014948" lon="-7.650771969929338">
        <ele>587.01999999999998</ele>
        <time>2025-05-02T09:58:56Z</time>
      </trkpt>
      <trkpt lat="42.270090999081731" lon="-7.650712039321661">
        <ele>587.5</ele>
        <time>2025-05-02T09:58:57Z</time>
      </trkpt>
      <trkpt lat="42.270018998533487" lon="-7.650694018229842">
        <ele>587.98000000000002</ele>
        <time>2025-05-02T09:58:59Z</time>
      </trkpt>
      <trkpt lat="42.26993702352047" lon="-7.650718996301293">
        <ele>588.46000000000004</ele>
        <time>2025-05-02T09:59:00Z</time>
      </trkpt>
      <trkpt lat="42.269643992185593" lon="-7.650853022933006">
        <ele>588.95000000000005</ele>
        <time>2025-05-02T09:59:03Z</time>
      </trkpt>
      <trkpt lat="42.269580960273743" lon="-7.650886969640851">
        <ele>588.95000000000005</ele>
        <time>2025-05-02T09:59:04Z</time>
      </trkpt>
      <trkpt lat="42.269235039129853" lon="-7.651078999042511">
        <ele>590.87</ele>
        <time>2025-05-02T09:59:10Z</time>
      </trkpt>
      <trkpt lat="42.269179970026016" lon="-7.651109006255865">
        <ele>590.87</ele>
        <time>2025-05-02T09:59:11Z</time>
      </trkpt>
      <trkpt lat="42.269133031368256" lon="-7.651133984327316">
        <ele>590.87</ele>
        <time>2025-05-02T09:59:12Z</time>
      </trkpt>
      <trkpt lat="42.269095983356237" lon="-7.651155022904277">
        <ele>591.35000000000002</ele>
        <time>2025-05-02T09:59:13Z</time>
      </trkpt>
      <trkpt lat="42.269053990021348" lon="-7.651113029569387">
        <ele>591.83000000000004</ele>
        <time>2025-05-02T09:59:14Z</time>
      </trkpt>
      <trkpt lat="42.269034963101149" lon="-7.651080004870892">
        <ele>592.30999999999995</ele>
        <time>2025-05-02T09:59:15Z</time>
      </trkpt>
      <trkpt lat="42.269004033878446" lon="-7.651026025414467">
        <ele>592.78999999999996</ele>
        <time>2025-05-02T09:59:16Z</time>
      </trkpt>
      <trkpt lat="42.268966985866427" lon="-7.650962993502617">
        <ele>592.78999999999996</ele>
        <time>2025-05-02T09:59:17Z</time>
      </trkpt>
      <trkpt lat="42.268930021673441" lon="-7.650898033753038">
        <ele>593.26999999999998</ele>
        <time>2025-05-02T09:59:18Z</time>
      </trkpt>
      <trkpt lat="42.268890039995313" lon="-7.650828966870904">
        <ele>593.26999999999998</ele>
        <time>2025-05-02T09:59:19Z</time>
      </trkpt>
      <trkpt lat="42.268849974498153" lon="-7.650759983807802">
        <ele>593.26999999999998</ele>
        <time>2025-05-02T09:59:20Z</time>
      </trkpt>
      <trkpt lat="42.268812004476786" lon="-7.650693012401462">
        <ele>593.75</ele>
        <time>2025-05-02T09:59:21Z</time>
      </trkpt>
      <trkpt lat="42.268734974786639" lon="-7.650559991598129">
        <ele>594.71000000000004</ele>
        <time>2025-05-02T09:59:24Z</time>
      </trkpt>
      <trkpt lat="42.268657023087144" lon="-7.650425964966416">
        <ele>594.71000000000004</ele>
        <time>2025-05-02T09:59:26Z</time>
      </trkpt>
      <trkpt lat="42.268616035580635" lon="-7.650353964418173">
        <ele>594.71000000000004</ele>
        <time>2025-05-02T09:59:27Z</time>
      </trkpt>
      <trkpt lat="42.26841202005744" lon="-7.650001002475619">
        <ele>595.19000000000005</ele>
        <time>2025-05-02T09:59:31Z</time>
      </trkpt>
      <trkpt lat="42.26841202005744" lon="-7.650001002475619">
        <ele>594.71000000000004</ele>
        <time>2025-05-02T09:59:32Z</time>
      </trkpt>
      <trkpt lat="42.268204987049103" lon="-7.649643011391163">
        <ele>593.26999999999998</ele>
        <time>2025-05-02T09:59:42Z</time>
      </trkpt>
      <trkpt lat="42.268202975392342" lon="-7.649638988077641">
        <ele>592.78999999999996</ele>
        <time>2025-05-02T09:59:45Z</time>
      </trkpt>
      <trkpt lat="42.268202975392342" lon="-7.649638988077641">
        <ele>592.78999999999996</ele>
        <time>2025-05-02T09:59:46Z</time>
      </trkpt>
      <trkpt lat="42.268224013969302" lon="-7.649623984470964">
        <ele>592.30999999999995</ele>
        <time>2025-05-02T09:59:47Z</time>
      </trkpt>
      <trkpt lat="42.268256032839417" lon="-7.649601018056274">
        <ele>591.83000000000004</ele>
        <time>2025-05-02T09:59:48Z</time>
      </trkpt>
      <trkpt lat="42.268296014517546" lon="-7.649571010842919">
        <ele>591.35000000000002</ele>
        <time>2025-05-02T09:59:49Z</time>
      </trkpt>
      <trkpt lat="42.268358040601015" lon="-7.649374958127737">
        <ele>588.46000000000004</ele>
        <time>2025-05-02T09:59:53Z</time>
      </trkpt>
      <trkpt lat="42.268334990367293" lon="-7.649348974227905">
        <ele>587.98000000000002</ele>
        <time>2025-05-02T09:59:54Z</time>
      </trkpt>
      <trkpt lat="42.268301965668797" lon="-7.649311004206538">
        <ele>587.5</ele>
        <time>2025-05-02T09:59:55Z</time>
      </trkpt>
      <trkpt lat="42.268257038667798" lon="-7.649259036406875">
        <ele>587.01999999999998</ele>
        <time>2025-05-02T09:59:56Z</time>
      </trkpt>
      <trkpt lat="42.268200041726232" lon="-7.649193992838264">
        <ele>586.53999999999996</ele>
        <time>2025-05-02T09:59:57Z</time>
      </trkpt>
      <trkpt lat="42.268126029521227" lon="-7.649110006168485">
        <ele>586.05999999999995</ele>
        <time>2025-05-02T09:59:58Z</time>
      </trkpt>
      <trkpt lat="42.268044976517558" lon="-7.649016967043281">
        <ele>585.10000000000002</ele>
        <time>2025-05-02T09:59:59Z</time>
      </trkpt>
      <trkpt lat="42.26794196292758" lon="-7.648963993415237">
        <ele>584.13999999999999</ele>
        <time>2025-05-02T10:00:00Z</time>
      </trkpt>
      <trkpt lat="42.26794196292758" lon="-7.648963993415237">
        <ele>583.65999999999997</ele>
        <time>2025-05-02T10:00:01Z</time>
      </trkpt>
      <trkpt lat="42.267849007621408" lon="-7.648986959829927">
        <ele>583.17999999999995</ele>
        <time>2025-05-02T10:00:02Z</time>
      </trkpt>
      <trkpt lat="42.267458997666836" lon="-7.649157028645277">
        <ele>582.22000000000003</ele>
        <time>2025-05-02T10:00:05Z</time>
      </trkpt>
      <trkpt lat="42.26716797798872" lon="-7.649307986721396">
        <ele>580.76999999999998</ele>
        <time>2025-05-02T10:00:09Z</time>
      </trkpt>
      <trkpt lat="42.266977038234472" lon="-7.649405971169472">
        <ele>579.80999999999995</ele>
        <time>2025-05-02T10:00:10Z</time>
      </trkpt>
      <trkpt lat="42.26592100225389" lon="-7.649952974170446">
        <ele>575.49000000000001</ele>
        <time>2025-05-02T10:00:22Z</time>
      </trkpt>
      <trkpt lat="42.26497502066195" lon="-7.650383971631527">
        <ele>569.72000000000003</ele>
        <time>2025-05-02T10:00:32Z</time>
      </trkpt>
      <trkpt lat="42.264897990971804" lon="-7.650410961359739">
        <ele>569.72000000000003</ele>
        <time>2025-05-02T10:00:33Z</time>
      </trkpt>
      <trkpt lat="42.264835964888334" lon="-7.650398975238204">
        <ele>568.75999999999999</ele>
        <time>2025-05-02T10:00:34Z</time>
      </trkpt>
      <trkpt lat="42.264791037887335" lon="-7.650390006601811">
        <ele>568.27999999999997</ele>
        <time>2025-05-02T10:00:35Z</time>
      </trkpt>
      <trkpt lat="42.264736974611878" lon="-7.650344995781779">
        <ele>567.32000000000005</ele>
        <time>2025-05-02T10:00:36Z</time>
      </trkpt>
      <trkpt lat="42.264668997377157" lon="-7.650287998840213">
        <ele>566.35000000000002</ele>
        <time>2025-05-02T10:00:37Z</time>
      </trkpt>
      <trkpt lat="42.264628009870648" lon="-7.650208035483956">
        <ele>565.38999999999999</ele>
        <time>2025-05-02T10:00:38Z</time>
      </trkpt>
      <trkpt lat="42.264575036242604" lon="-7.650093035772443">
        <ele>563.95000000000005</ele>
        <time>2025-05-02T10:00:39Z</time>
      </trkpt>
      <trkpt lat="42.26424596272409" lon="-7.649208996444941">
        <ele>557.22000000000003</ele>
        <time>2025-05-02T10:00:45Z</time>
      </trkpt>
      <trkpt lat="42.264187037944794" lon="-7.649070024490356">
        <ele>556.74000000000001</ele>
        <time>2025-05-02T10:00:46Z</time>
      </trkpt>
      <trkpt lat="42.263696026057005" lon="-7.647999990731478">
        <ele>556.74000000000001</ele>
        <time>2025-05-02T10:00:54Z</time>
      </trkpt>
      <trkpt lat="42.263070987537503" lon="-7.647231034934521">
        <ele>561.54999999999995</ele>
        <time>2025-05-02T10:01:01Z</time>
      </trkpt>
      <trkpt lat="42.262968979775906" lon="-7.64714696444571">
        <ele>562.50999999999999</ele>
        <time>2025-05-02T10:01:02Z</time>
      </trkpt>
      <trkpt lat="42.262863032519817" lon="-7.647089967504144">
        <ele>563.47000000000003</ele>
        <time>2025-05-02T10:01:03Z</time>
      </trkpt>
      <trkpt lat="42.262524990364909" lon="-7.646934986114502">
        <ele>565.87</ele>
        <time>2025-05-02T10:01:06Z</time>
      </trkpt>
      <trkpt lat="42.262415019795299" lon="-7.646889975294471">
        <ele>566.35000000000002</ele>
        <time>2025-05-02T10:01:07Z</time>
      </trkpt>
      <trkpt lat="42.262293985113502" lon="-7.646871032193303">
        <ele>567.32000000000005</ele>
        <time>2025-05-02T10:01:08Z</time>
      </trkpt>
      <trkpt lat="42.262176973745227" lon="-7.646853011101484">
        <ele>567.79999999999995</ele>
        <time>2025-05-02T10:01:09Z</time>
      </trkpt>
      <trkpt lat="42.262059040367603" lon="-7.646860973909497">
        <ele>568.27999999999997</ele>
        <time>2025-05-02T10:01:10Z</time>
      </trkpt>
      <trkpt lat="42.261950997635722" lon="-7.646882012486458">
        <ele>568.75999999999999</ele>
        <time>2025-05-02T10:01:11Z</time>
      </trkpt>
      <trkpt lat="42.26173298433423" lon="-7.646969016641378">
        <ele>569.72000000000003</ele>
        <time>2025-05-02T10:01:13Z</time>
      </trkpt>
      <trkpt lat="42.261613039299846" lon="-7.646999023854733">
        <ele>570.20000000000005</ele>
        <time>2025-05-02T10:01:14Z</time>
      </trkpt>
      <trkpt lat="42.261484963819385" lon="-7.646999023854733">
        <ele>571.15999999999997</ele>
        <time>2025-05-02T10:01:15Z</time>
      </trkpt>
      <trkpt lat="42.261362001299858" lon="-7.646991983056068">
        <ele>571.63999999999999</ele>
        <time>2025-05-02T10:01:16Z</time>
      </trkpt>
      <trkpt lat="42.261123033240438" lon="-7.646876983344555">
        <ele>572.12</ele>
        <time>2025-05-02T10:01:17Z</time>
      </trkpt>
      <trkpt lat="42.261006021872163" lon="-7.646788973361254">
        <ele>572.60000000000002</ele>
        <time>2025-05-02T10:01:18Z</time>
      </trkpt>
      <trkpt lat="42.261006021872163" lon="-7.646788973361254">
        <ele>573.08000000000004</ele>
        <time>2025-05-02T10:01:19Z</time>
      </trkpt>
      <trkpt lat="42.260533031076193" lon="-7.646473981440067">
        <ele>574.03999999999996</ele>
        <time>2025-05-02T10:01:22Z</time>
      </trkpt>
      <trkpt lat="42.260438986122608" lon="-7.646497031673789">
        <ele>574.03999999999996</ele>
        <time>2025-05-02T10:01:23Z</time>
      </trkpt>
      <trkpt lat="42.260349970310926" lon="-7.646547993645072">
        <ele>574.03999999999996</ele>
        <time>2025-05-02T10:01:24Z</time>
      </trkpt>
      <trkpt lat="42.260241005569696" lon="-7.646609013900161">
        <ele>573.55999999999995</ele>
        <time>2025-05-02T10:01:25Z</time>
      </trkpt>
      <trkpt lat="42.260119970887899" lon="-7.646676991134882">
        <ele>573.55999999999995</ele>
        <time>2025-05-02T10:01:26Z</time>
      </trkpt>
      <trkpt lat="42.259715041145682" lon="-7.646855022758246">
        <ele>572.12</ele>
        <time>2025-05-02T10:01:29Z</time>
      </trkpt>
      <trkpt lat="42.259159991517663" lon="-7.64705803245306">
        <ele>569.24000000000001</ele>
        <time>2025-05-02T10:01:34Z</time>
      </trkpt>
      <trkpt lat="42.25902303121984" lon="-7.647087033838034">
        <ele>569.24000000000001</ele>
        <time>2025-05-02T10:01:35Z</time>
      </trkpt>
      <trkpt lat="42.258882969617844" lon="-7.64710002578795">
        <ele>568.75999999999999</ele>
        <time>2025-05-02T10:01:36Z</time>
      </trkpt>
      <trkpt lat="42.258746009320021" lon="-7.647082004696131">
        <ele>568.27999999999997</ele>
        <time>2025-05-02T10:01:37Z</time>
      </trkpt>
      <trkpt lat="42.258607959374785" lon="-7.647062977775931">
        <ele>567.79999999999995</ele>
        <time>2025-05-02T10:01:38Z</time>
      </trkpt>
      <trkpt lat="42.258474016562104" lon="-7.6470179669559">
        <ele>567.79999999999995</ele>
        <time>2025-05-02T10:01:39Z</time>
      </trkpt>
      <trkpt lat="42.258339989930391" lon="-7.646962981671095">
        <ele>567.32000000000005</ele>
        <time>2025-05-02T10:01:40Z</time>
      </trkpt>
      <trkpt lat="42.258077971637249" lon="-7.646840019151568">
        <ele>566.35000000000002</ele>
        <time>2025-05-02T10:01:42Z</time>
      </trkpt>
      <trkpt lat="42.257831962779164" lon="-7.646724013611674">
        <ele>566.35000000000002</ele>
        <time>2025-05-02T10:01:44Z</time>
      </trkpt>
      <trkpt lat="42.256562020629644" lon="-7.646209029480815">
        <ele>563.47000000000003</ele>
        <time>2025-05-02T10:01:55Z</time>
      </trkpt>
      <trkpt lat="42.256449032574892" lon="-7.646171981468797">
        <ele>562.99000000000001</ele>
        <time>2025-05-02T10:01:56Z</time>
      </trkpt>
      <trkpt lat="42.256336966529489" lon="-7.646163012832403">
        <ele>562.50999999999999</ele>
        <time>2025-05-02T10:01:57Z</time>
      </trkpt>
      <trkpt lat="42.256214004009962" lon="-7.64617801643908">
        <ele>562.02999999999997</ele>
        <time>2025-05-02T10:01:58Z</time>
      </trkpt>
      <trkpt lat="42.256091041490436" lon="-7.646193020045757">
        <ele>562.02999999999997</ele>
        <time>2025-05-02T10:01:59Z</time>
      </trkpt>
      <trkpt lat="42.254438968375325" lon="-7.646613959223032">
        <ele>555.77999999999997</ele>
        <time>2025-05-02T10:02:13Z</time>
      </trkpt>
      <trkpt lat="42.253960026428103" lon="-7.646688977256417">
        <ele>553.38</ele>
        <time>2025-05-02T10:02:17Z</time>
      </trkpt>
      <trkpt lat="42.253718040883541" lon="-7.64667397364974">
        <ele>552.89999999999998</ele>
        <time>2025-05-02T10:02:18Z</time>
      </trkpt>
      <trkpt lat="42.253718040883541" lon="-7.64667397364974">
        <ele>552.40999999999997</ele>
        <time>2025-05-02T10:02:19Z</time>
      </trkpt>
      <trkpt lat="42.253598012030125" lon="-7.64662703499198">
        <ele>551.45000000000005</ele>
        <time>2025-05-02T10:02:20Z</time>
      </trkpt>
      <trkpt lat="42.253478989005089" lon="-7.646581018343568">
        <ele>550.97000000000003</ele>
        <time>2025-05-02T10:02:21Z</time>
      </trkpt>
      <trkpt lat="42.252460001036525" lon="-7.645912980660796">
        <ele>541.84000000000003</ele>
        <time>2025-05-02T10:02:30Z</time>
      </trkpt>
      <trkpt lat="42.252350030466914" lon="-7.645821031183004">
        <ele>540.39999999999998</ele>
        <time>2025-05-02T10:02:31Z</time>
      </trkpt>
      <trkpt lat="42.252241987735033" lon="-7.645732015371323">
        <ele>539.44000000000005</ele>
        <time>2025-05-02T10:02:32Z</time>
      </trkpt>
      <trkpt lat="42.251922972500324" lon="-7.645436972379684">
        <ele>537.02999999999997</ele>
        <time>2025-05-02T10:02:35Z</time>
      </trkpt>
      <trkpt lat="42.251843009144068" lon="-7.645304035395384">
        <ele>536.54999999999995</ele>
        <time>2025-05-02T10:02:36Z</time>
      </trkpt>
      <trkpt lat="42.25176396779716" lon="-7.645172020420432">
        <ele>536.07000000000005</ele>
        <time>2025-05-02T10:02:37Z</time>
      </trkpt>
      <trkpt lat="42.251694984734058" lon="-7.6450389996171">
        <ele>535.11000000000001</ele>
        <time>2025-05-02T10:02:38Z</time>
      </trkpt>
      <trkpt lat="42.251661038026214" lon="-7.644883012399077">
        <ele>534.63</ele>
        <time>2025-05-02T10:02:39Z</time>
      </trkpt>
      <trkpt lat="42.251624995842576" lon="-7.644720990210772">
        <ele>533.66999999999996</ele>
        <time>2025-05-02T10:02:40Z</time>
      </trkpt>
      <trkpt lat="42.251445958390832" lon="-7.643655985593796">
        <ele>528.38</ele>
        <time>2025-05-02T10:02:46Z</time>
      </trkpt>
      <trkpt lat="42.251402037218213" lon="-7.643474014475942">
        <ele>527.41999999999996</ele>
        <time>2025-05-02T10:02:47Z</time>
      </trkpt>
      <trkpt lat="42.25133003666997" lon="-7.643306963145733">
        <ele>526.46000000000004</ele>
        <time>2025-05-02T10:02:48Z</time>
      </trkpt>
      <trkpt lat="42.251259963959455" lon="-7.643143013119698">
        <ele>525.5</ele>
        <time>2025-05-02T10:02:49Z</time>
      </trkpt>
      <trkpt lat="42.25103197619319" lon="-7.642874959856272">
        <ele>524.53999999999996</ele>
        <time>2025-05-02T10:02:51Z</time>
      </trkpt>
      <trkpt lat="42.249647034332156" lon="-7.64171096496284">
        <ele>523.09000000000003</ele>
        <time>2025-05-02T10:02:59Z</time>
      </trkpt>
      <trkpt lat="42.247447036206722" lon="-7.639873987063766">
        <ele>524.05999999999995</ele>
        <time>2025-05-02T10:03:10Z</time>
      </trkpt>
      <trkpt lat="42.245074035599828" lon="-7.637896025553346">
        <ele>531.75</ele>
        <time>2025-05-02T10:03:22Z</time>
      </trkpt>
      <trkpt lat="42.243907023221254" lon="-7.636962030082941">
        <ele>537.99000000000001</ele>
        <time>2025-05-02T10:03:28Z</time>
      </trkpt>
      <trkpt lat="42.243723040446639" lon="-7.636818028986454">
        <ele>538.96000000000004</ele>
        <time>2025-05-02T10:03:29Z</time>
      </trkpt>
      <trkpt lat="42.24155698902905" lon="-7.636134987697005">
        <ele>549.04999999999995</ele>
        <time>2025-05-02T10:03:38Z</time>
      </trkpt>
      <trkpt lat="42.240880988538265" lon="-7.635991992428899">
        <ele>551.92999999999995</ele>
        <time>2025-05-02T10:03:41Z</time>
      </trkpt>
      <trkpt lat="42.240656018257141" lon="-7.635991992428899">
        <ele>552.89999999999998</ele>
        <time>2025-05-02T10:03:42Z</time>
      </trkpt>
      <trkpt lat="42.240432975813746" lon="-7.636063992977142">
        <ele>553.86000000000001</ele>
        <time>2025-05-02T10:03:43Z</time>
      </trkpt>
      <trkpt lat="42.2402039822191" lon="-7.636147979646921">
        <ele>554.82000000000005</ele>
        <time>2025-05-02T10:03:44Z</time>
      </trkpt>
      <trkpt lat="42.239967025816441" lon="-7.636235989630222">
        <ele>555.77999999999997</ele>
        <time>2025-05-02T10:03:45Z</time>
      </trkpt>
      <trkpt lat="42.237614979967475" lon="-7.637179037556052">
        <ele>563.95000000000005</ele>
        <time>2025-05-02T10:03:55Z</time>
      </trkpt>
      <trkpt lat="42.235825024545193" lon="-7.63788303360343">
        <ele>574.03999999999996</ele>
        <time>2025-05-02T10:04:04Z</time>
      </trkpt>
      <trkpt lat="42.23562796600163" lon="-7.637923015281558">
        <ele>575.00999999999999</ele>
        <time>2025-05-02T10:04:05Z</time>
      </trkpt>
      <trkpt lat="42.235438032075763" lon="-7.637933995574713">
        <ele>576.45000000000005</ele>
        <time>2025-05-02T10:04:06Z</time>
      </trkpt>
      <trkpt lat="42.235246002674103" lon="-7.637888984754682">
        <ele>577.40999999999997</ele>
        <time>2025-05-02T10:04:07Z</time>
      </trkpt>
      <trkpt lat="42.235054979100823" lon="-7.63784296810627">
        <ele>578.85000000000002</ele>
        <time>2025-05-02T10:04:08Z</time>
      </trkpt>
      <trkpt lat="42.234893962740898" lon="-7.637723023071885">
        <ele>580.28999999999996</ele>
        <time>2025-05-02T10:04:09Z</time>
      </trkpt>
      <trkpt lat="42.234735963866115" lon="-7.63758497312665">
        <ele>581.73000000000002</ele>
        <time>2025-05-02T10:04:10Z</time>
      </trkpt>
      <trkpt lat="42.234582994133234" lon="-7.637416999787092">
        <ele>582.70000000000005</ele>
        <time>2025-05-02T10:04:11Z</time>
      </trkpt>
      <trkpt lat="42.234446033835411" lon="-7.637225976213813">
        <ele>583.65999999999997</ele>
        <time>2025-05-02T10:04:12Z</time>
      </trkpt>
      <trkpt lat="42.233296036720276" lon="-7.635507015511394">
        <ele>589.42999999999995</ele>
        <time>2025-05-02T10:04:20Z</time>
      </trkpt>
      <trkpt lat="42.232784992083907" lon="-7.63474996201694">
        <ele>591.35000000000002</ele>
        <time>2025-05-02T10:04:24Z</time>
      </trkpt>
      <trkpt lat="42.232692958787084" lon="-7.634560028091073">
        <ele>592.30999999999995</ele>
        <time>2025-05-02T10:04:25Z</time>
      </trkpt>
      <trkpt lat="42.232614001259208" lon="-7.634375961497426">
        <ele>592.78999999999996</ele>
        <time>2025-05-02T10:04:26Z</time>
      </trkpt>
      <trkpt lat="42.232522973790765" lon="-7.634035991504788">
        <ele>594.71000000000004</ele>
        <time>2025-05-02T10:04:28Z</time>
      </trkpt>
      <trkpt lat="42.232496989890933" lon="-7.633683029562235">
        <ele>595.66999999999996</ele>
        <time>2025-05-02T10:04:29Z</time>
      </trkpt>
      <trkpt lat="42.232496989890933" lon="-7.633499968796969">
        <ele>596.14999999999998</ele>
        <time>2025-05-02T10:04:30Z</time>
      </trkpt>
      <trkpt lat="42.232485003769398" lon="-7.633177014067769">
        <ele>599.03999999999996</ele>
        <time>2025-05-02T10:04:33Z</time>
      </trkpt>
      <trkpt lat="42.232479974627495" lon="-7.633038964122534">
        <ele>599.51999999999998</ele>
        <time>2025-05-02T10:04:34Z</time>
      </trkpt>
      <trkpt lat="42.232226002961397" lon="-7.632478969171643">
        <ele>601.91999999999996</ele>
        <time>2025-05-02T10:04:38Z</time>
      </trkpt>
      <trkpt lat="42.23214796744287" lon="-7.632360029965639">
        <ele>602.88</ele>
        <time>2025-05-02T10:04:39Z</time>
      </trkpt>
      <trkpt lat="42.232068004086614" lon="-7.632236983627081">
        <ele>602.88</ele>
        <time>2025-05-02T10:04:40Z</time>
      </trkpt>
      <trkpt lat="42.231961973011494" lon="-7.632130030542612">
        <ele>603.36000000000001</ele>
        <time>2025-05-02T10:04:41Z</time>
      </trkpt>
      <trkpt lat="42.231788970530033" lon="-7.631958033889532">
        <ele>603.36000000000001</ele>
        <time>2025-05-02T10:04:42Z</time>
      </trkpt>
      <trkpt lat="42.231010962277651" lon="-7.631284967064858">
        <ele>601.91999999999996</ele>
        <time>2025-05-02T10:04:48Z</time>
      </trkpt>
      <trkpt lat="42.230750033631921" lon="-7.631000988185406">
        <ele>601.44000000000005</ele>
        <time>2025-05-02T10:04:49Z</time>
      </trkpt>
      <trkpt lat="42.230750033631921" lon="-7.631000988185406">
        <ele>600.48000000000002</ele>
        <time>2025-05-02T10:04:50Z</time>
      </trkpt>
      <trkpt lat="42.23062003031373" lon="-7.63085899874568">
        <ele>600</ele>
        <time>2025-05-02T10:04:51Z</time>
      </trkpt>
      <trkpt lat="42.230526991188526" lon="-7.630711980164051">
        <ele>599.51999999999998</ele>
        <time>2025-05-02T10:04:52Z</time>
      </trkpt>
      <trkpt lat="42.230439987033606" lon="-7.630519028753042">
        <ele>598.55999999999995</ele>
        <time>2025-05-02T10:04:53Z</time>
      </trkpt>
      <trkpt lat="42.23036496900022" lon="-7.630330016836524">
        <ele>598.08000000000004</ele>
        <time>2025-05-02T10:04:54Z</time>
      </trkpt>
      <trkpt lat="42.23032096400857" lon="-7.630103034898639">
        <ele>597.60000000000002</ele>
        <time>2025-05-02T10:04:55Z</time>
      </trkpt>
      <trkpt lat="42.230276959016919" lon="-7.629874963313341">
        <ele>597.12</ele>
        <time>2025-05-02T10:04:56Z</time>
      </trkpt>
      <trkpt lat="42.230215016752481" lon="-7.6293970271945">
        <ele>595.66999999999996</ele>
        <time>2025-05-02T10:04:58Z</time>
      </trkpt>
      <trkpt lat="42.23004000261426" lon="-7.626768965274096">
        <ele>588.46000000000004</ele>
        <time>2025-05-02T10:05:08Z</time>
      </trkpt>
      <trkpt lat="42.229973031207919" lon="-7.626534020528197">
        <ele>587.98000000000002</ele>
        <time>2025-05-02T10:05:09Z</time>
      </trkpt>
      <trkpt lat="42.229815032333136" lon="-7.626206958666444">
        <ele>586.53999999999996</ele>
        <time>2025-05-02T10:05:11Z</time>
      </trkpt>
      <trkpt lat="42.228277958929539" lon="-7.623979970812798">
        <ele>579.80999999999995</ele>
        <time>2025-05-02T10:05:22Z</time>
      </trkpt>
      <trkpt lat="42.226790003478527" lon="-7.621936965733767">
        <ele>570.67999999999995</ele>
        <time>2025-05-02T10:05:32Z</time>
      </trkpt>
      <trkpt lat="42.226628987118602" lon="-7.621739991009235">
        <ele>569.24000000000001</ele>
        <time>2025-05-02T10:05:33Z</time>
      </trkpt>
      <trkpt lat="42.226248029619455" lon="-7.621424999088049">
        <ele>566.83000000000004</ele>
        <time>2025-05-02T10:05:35Z</time>
      </trkpt>
      <trkpt lat="42.22447500564158" lon="-7.620302997529507">
        <ele>559.13999999999999</ele>
        <time>2025-05-02T10:05:43Z</time>
      </trkpt>
      <trkpt lat="42.223592977970839" lon="-7.619762029498816">
        <ele>556.74000000000001</ele>
        <time>2025-05-02T10:05:47Z</time>
      </trkpt>
      <trkpt lat="42.223375970497727" lon="-7.619629008695483">
        <ele>556.25999999999999</ele>
        <time>2025-05-02T10:05:48Z</time>
      </trkpt>
      <trkpt lat="42.222729977220297" lon="-7.619232041761279">
        <ele>554.82000000000005</ele>
        <time>2025-05-02T10:05:51Z</time>
      </trkpt>
      <trkpt lat="42.222309960052371" lon="-7.618973962962627">
        <ele>554.34000000000003</ele>
        <time>2025-05-02T10:05:52Z</time>
      </trkpt>
      <trkpt lat="42.221044963225722" lon="-7.618197966367006">
        <ele>555.77999999999997</ele>
        <time>2025-05-02T10:05:58Z</time>
      </trkpt>
      <trkpt lat="42.219805028289557" lon="-7.617436973378062">
        <ele>555.77999999999997</ele>
        <time>2025-05-02T10:06:05Z</time>
      </trkpt>
      <trkpt lat="42.21831195987761" lon="-7.616520998999476">
        <ele>555.29999999999995</ele>
        <time>2025-05-02T10:06:12Z</time>
      </trkpt>
      <trkpt lat="42.215963015332818" lon="-7.61508802883327">
        <ele>558.17999999999995</ele>
        <time>2025-05-02T10:06:22Z</time>
      </trkpt>
      <trkpt lat="42.21491502597928" lon="-7.614425020292401">
        <ele>562.99000000000001</ele>
        <time>2025-05-02T10:06:28Z</time>
      </trkpt>
      <trkpt lat="42.213979018852115" lon="-7.613856978714466">
        <ele>569.24000000000001</ele>
        <time>2025-05-02T10:06:36Z</time>
      </trkpt>
      <trkpt lat="42.212952990084887" lon="-7.613234035670757">
        <ele>569.24000000000001</ele>
        <time>2025-05-02T10:06:45Z</time>
      </trkpt>
      <trkpt lat="42.212305990979075" lon="-7.612841008231044">
        <ele>567.79999999999995</ele>
        <time>2025-05-02T10:06:50Z</time>
      </trkpt>
      <trkpt lat="42.212201971560717" lon="-7.612777976319194">
        <ele>567.79999999999995</ele>
        <time>2025-05-02T10:06:51Z</time>
      </trkpt>
      <trkpt lat="42.212090995162725" lon="-7.612709999084473">
        <ele>567.32000000000005</ele>
        <time>2025-05-02T10:06:52Z</time>
      </trkpt>
      <trkpt lat="42.212090995162725" lon="-7.612709999084473">
        <ele>567.32000000000005</ele>
        <time>2025-05-02T10:06:53Z</time>
      </trkpt>
      <trkpt lat="42.211881028488278" lon="-7.612611008808017">
        <ele>566.83000000000004</ele>
        <time>2025-05-02T10:06:54Z</time>
      </trkpt>
      <trkpt lat="42.211421029642224" lon="-7.612472036853433">
        <ele>565.87</ele>
        <time>2025-05-02T10:06:59Z</time>
      </trkpt>
      <trkpt lat="42.209855038672686" lon="-7.612343039363623">
        <ele>566.83000000000004</ele>
        <time>2025-05-02T10:07:12Z</time>
      </trkpt>
      <trkpt lat="42.209731992334127" lon="-7.612332981079817">
        <ele>566.83000000000004</ele>
        <time>2025-05-02T10:07:13Z</time>
      </trkpt>
      <trkpt lat="42.209609029814601" lon="-7.612323006615043">
        <ele>567.32000000000005</ele>
        <time>2025-05-02T10:07:14Z</time>
      </trkpt>
      <trkpt lat="42.208388959988952" lon="-7.612220998853445">
        <ele>571.15999999999997</ele>
        <time>2025-05-02T10:07:23Z</time>
      </trkpt>
      <trkpt lat="42.208388959988952" lon="-7.612220998853445">
        <ele>571.15999999999997</ele>
        <time>2025-05-02T10:07:24Z</time>
      </trkpt>
      <trkpt lat="42.208265997469425" lon="-7.612193003296852">
        <ele>571.63999999999999</ele>
        <time>2025-05-02T10:07:25Z</time>
      </trkpt>
      <trkpt lat="42.208143034949899" lon="-7.612152015790343">
        <ele>572.60000000000002</ele>
        <time>2025-05-02T10:07:26Z</time>
      </trkpt>
      <trkpt lat="42.208025017753243" lon="-7.612113039940596">
        <ele>573.08000000000004</ele>
        <time>2025-05-02T10:07:27Z</time>
      </trkpt>
      <trkpt lat="42.207789989188313" lon="-7.612012960016727">
        <ele>573.55999999999995</ele>
        <time>2025-05-02T10:07:28Z</time>
      </trkpt>
      <trkpt lat="42.207061015069485" lon="-7.611668966710568">
        <ele>573.08000000000004</ele>
        <time>2025-05-02T10:07:35Z</time>
      </trkpt>
      <trkpt lat="42.206947021186352" lon="-7.611613981425762">
        <ele>572.12</ele>
        <time>2025-05-02T10:07:36Z</time>
      </trkpt>
      <trkpt lat="42.206831015646458" lon="-7.611557990312576">
        <ele>571.15999999999997</ele>
        <time>2025-05-02T10:07:37Z</time>
      </trkpt>
      <trkpt lat="42.206714004278183" lon="-7.61150099337101">
        <ele>570.20000000000005</ele>
        <time>2025-05-02T10:07:38Z</time>
      </trkpt>
      <trkpt lat="42.206599004566669" lon="-7.611454976722598">
        <ele>569.72000000000003</ele>
        <time>2025-05-02T10:07:39Z</time>
      </trkpt>
      <trkpt lat="42.205177014693618" lon="-7.611036971211433">
        <ele>564.42999999999995</ele>
        <time>2025-05-02T10:07:51Z</time>
      </trkpt>
      <trkpt lat="42.205061009153724" lon="-7.611000007018447">
        <ele>562.99000000000001</ele>
        <time>2025-05-02T10:07:52Z</time>
      </trkpt>
      <trkpt lat="42.203737003728747" lon="-7.610822981223464">
        <ele>557.70000000000005</ele>
        <time>2025-05-02T10:08:02Z</time>
      </trkpt>
      <trkpt lat="42.203616974875331" lon="-7.610847037285566">
        <ele>557.22000000000003</ele>
        <time>2025-05-02T10:08:04Z</time>
      </trkpt>
      <trkpt lat="42.203499963507056" lon="-7.610871009528637">
        <ele>556.74000000000001</ele>
        <time>2025-05-02T10:08:05Z</time>
      </trkpt>
      <trkpt lat="42.203389992937446" lon="-7.610892970114946">
        <ele>556.74000000000001</ele>
        <time>2025-05-02T10:08:06Z</time>
      </trkpt>
      <trkpt lat="42.203280022367835" lon="-7.610896993428469">
        <ele>556.25999999999999</ele>
        <time>2025-05-02T10:08:07Z</time>
      </trkpt>
      <trkpt lat="42.203176002949476" lon="-7.610864974558353">
        <ele>555.77999999999997</ele>
        <time>2025-05-02T10:08:08Z</time>
      </trkpt>
      <trkpt lat="42.203070977702737" lon="-7.61083303950727">
        <ele>555.29999999999995</ele>
        <time>2025-05-02T10:08:09Z</time>
      </trkpt>
      <trkpt lat="42.202981039881706" lon="-7.610760033130646">
        <ele>555.29999999999995</ele>
        <time>2025-05-02T10:08:10Z</time>
      </trkpt>
      <trkpt lat="42.202895041555166" lon="-7.610665988177061">
        <ele>554.82000000000005</ele>
        <time>2025-05-02T10:08:11Z</time>
      </trkpt>
      <trkpt lat="42.202808959409595" lon="-7.610570015385747">
        <ele>554.82000000000005</ele>
        <time>2025-05-02T10:08:12Z</time>
      </trkpt>
      <trkpt lat="42.202724972739816" lon="-7.610476976260543">
        <ele>554.82000000000005</ele>
        <time>2025-05-02T10:08:13Z</time>
      </trkpt>
      <trkpt lat="42.20264702104032" lon="-7.610387960448861">
        <ele>554.82000000000005</ele>
        <time>2025-05-02T10:08:14Z</time>
      </trkpt>
      <trkpt lat="42.202586000785232" lon="-7.610280001536012">
        <ele>554.82000000000005</ele>
        <time>2025-05-02T10:08:15Z</time>
      </trkpt>
      <trkpt lat="42.202529003843665" lon="-7.610178999602795">
        <ele>554.82000000000005</ele>
        <time>2025-05-02T10:08:16Z</time>
      </trkpt>
      <trkpt lat="42.20221602357924" lon="-7.609549015760422">
        <ele>555.77999999999997</ele>
        <time>2025-05-02T10:08:21Z</time>
      </trkpt>
      <trkpt lat="42.20221602357924" lon="-7.609549015760422">
        <ele>556.25999999999999</ele>
        <time>2025-05-02T10:08:22Z</time>
      </trkpt>
      <trkpt lat="42.20217403024435" lon="-7.609427981078625">
        <ele>556.25999999999999</ele>
        <time>2025-05-02T10:08:23Z</time>
      </trkpt>
      <trkpt lat="42.202132036909461" lon="-7.609306024387479">
        <ele>556.74000000000001</ele>
        <time>2025-05-02T10:08:24Z</time>
      </trkpt>
      <trkpt lat="42.202091971412301" lon="-7.609191024675965">
        <ele>556.74000000000001</ele>
        <time>2025-05-02T10:08:25Z</time>
      </trkpt>
      <trkpt lat="42.202065987512469" lon="-7.609037971124053">
        <ele>556.74000000000001</ele>
        <time>2025-05-02T10:08:26Z</time>
      </trkpt>
      <trkpt lat="42.201970014721155" lon="-7.608641004189849">
        <ele>557.22000000000003</ele>
        <time>2025-05-02T10:08:29Z</time>
      </trkpt>
      <trkpt lat="42.201942019164562" lon="-7.608508989214897">
        <ele>557.70000000000005</ele>
        <time>2025-05-02T10:08:30Z</time>
      </trkpt>
      <trkpt lat="42.20182903110981" lon="-7.608316959813237">
        <ele>557.70000000000005</ele>
        <time>2025-05-02T10:08:32Z</time>
      </trkpt>
      <trkpt lat="42.201758036389947" lon="-7.60825602337718">
        <ele>557.70000000000005</ele>
        <time>2025-05-02T10:08:33Z</time>
      </trkpt>
      <trkpt lat="42.201661979779601" lon="-7.608197014778853">
        <ele>557.70000000000005</ele>
        <time>2025-05-02T10:08:34Z</time>
      </trkpt>
      <trkpt lat="42.201563995331526" lon="-7.608135994523764">
        <ele>557.70000000000005</ele>
        <time>2025-05-02T10:08:35Z</time>
      </trkpt>
      <trkpt lat="42.201456958428025" lon="-7.608070028945804">
        <ele>557.70000000000005</ele>
        <time>2025-05-02T10:08:36Z</time>
      </trkpt>
      <trkpt lat="42.201347993686795" lon="-7.608002973720431">
        <ele>557.70000000000005</ele>
        <time>2025-05-02T10:08:37Z</time>
      </trkpt>
      <trkpt lat="42.200217023491859" lon="-7.60735304094851">
        <ele>558.17999999999995</ele>
        <time>2025-05-02T10:08:48Z</time>
      </trkpt>
      <trkpt lat="42.200114009901881" lon="-7.607300989329815">
        <ele>558.17999999999995</ele>
        <time>2025-05-02T10:08:49Z</time>
      </trkpt>
      <trkpt lat="42.199911000207067" lon="-7.607198981568217">
        <ele>558.17999999999995</ele>
        <time>2025-05-02T10:08:51Z</time>
      </trkpt>
      <trkpt lat="42.19981100410223" lon="-7.607149025425315">
        <ele>558.17999999999995</ele>
        <time>2025-05-02T10:08:52Z</time>
      </trkpt>
      <trkpt lat="42.199708996340632" lon="-7.607121029868722">
        <ele>557.70000000000005</ele>
        <time>2025-05-02T10:08:53Z</time>
      </trkpt>
      <trkpt lat="42.199612017720938" lon="-7.607168974354863">
        <ele>557.70000000000005</ele>
        <time>2025-05-02T10:08:54Z</time>
      </trkpt>
      <trkpt lat="42.19951000995934" lon="-7.607220020145178">
        <ele>557.22000000000003</ele>
        <time>2025-05-02T10:08:55Z</time>
      </trkpt>
      <trkpt lat="42.199408002197742" lon="-7.607283974066377">
        <ele>557.22000000000003</ele>
        <time>2025-05-02T10:08:56Z</time>
      </trkpt>
      <trkpt lat="42.198657989501953" lon="-7.608011020347476">
        <ele>554.82000000000005</ele>
        <time>2025-05-02T10:09:03Z</time>
      </trkpt>
      <trkpt lat="42.198657989501953" lon="-7.608011020347476">
        <ele>554.82000000000005</ele>
        <time>2025-05-02T10:09:04Z</time>
      </trkpt>
      <trkpt lat="42.198548018932343" lon="-7.608042033389211">
        <ele>554.82000000000005</ele>
        <time>2025-05-02T10:09:05Z</time>
      </trkpt>
      <trkpt lat="42.198433019220829" lon="-7.608073968440294">
        <ele>554.82000000000005</ele>
        <time>2025-05-02T10:09:06Z</time>
      </trkpt>
      <trkpt lat="42.198310978710651" lon="-7.608107998967171">
        <ele>554.34000000000003</ele>
        <time>2025-05-02T10:09:07Z</time>
      </trkpt>
      <trkpt lat="42.198191033676267" lon="-7.608142029494047">
        <ele>554.34000000000003</ele>
        <time>2025-05-02T10:09:08Z</time>
      </trkpt>
      <trkpt lat="42.197849974036217" lon="-7.608205983415246">
        <ele>554.82000000000005</ele>
        <time>2025-05-02T10:09:11Z</time>
      </trkpt>
      <trkpt lat="42.19761704094708" lon="-7.608244959264994">
        <ele>555.77999999999997</ele>
        <time>2025-05-02T10:09:13Z</time>
      </trkpt>
      <trkpt lat="42.197496006265283" lon="-7.608264992013574">
        <ele>556.25999999999999</ele>
        <time>2025-05-02T10:09:14Z</time>
      </trkpt>
      <trkpt lat="42.196150040253997" lon="-7.608031975105405">
        <ele>559.62</ele>
        <time>2025-05-02T10:09:25Z</time>
      </trkpt>
      <trkpt lat="42.194697959348559" lon="-7.608291981741786">
        <ele>564.42999999999995</ele>
        <time>2025-05-02T10:09:37Z</time>
      </trkpt>
      <trkpt lat="42.193483002483845" lon="-7.608719961717725">
        <ele>568.27999999999997</ele>
        <time>2025-05-02T10:09:47Z</time>
      </trkpt>
      <trkpt lat="42.192895011976361" lon="-7.608972005546093">
        <ele>569.24000000000001</ele>
        <time>2025-05-02T10:09:53Z</time>
      </trkpt>
      <trkpt lat="42.192813036963344" lon="-7.609012993052602">
        <ele>569.72000000000003</ele>
        <time>2025-05-02T10:09:54Z</time>
      </trkpt>
      <trkpt lat="42.192745981737971" lon="-7.609080970287323">
        <ele>570.20000000000005</ele>
        <time>2025-05-02T10:09:55Z</time>
      </trkpt>
      <trkpt lat="42.192745981737971" lon="-7.609080970287323">
        <ele>570.20000000000005</ele>
        <time>2025-05-02T10:09:56Z</time>
      </trkpt>
      <trkpt lat="42.192679010331631" lon="-7.609155988320708">
        <ele>570.67999999999995</ele>
        <time>2025-05-02T10:09:57Z</time>
      </trkpt>
      <trkpt lat="42.192628970369697" lon="-7.609211979433894">
        <ele>571.15999999999997</ele>
        <time>2025-05-02T10:09:58Z</time>
      </trkpt>
      <trkpt lat="42.192578008398414" lon="-7.609467962756753">
        <ele>571.15999999999997</ele>
        <time>2025-05-02T10:09:59Z</time>
      </trkpt>
      <trkpt lat="42.192553030326962" lon="-7.609594026580453">
        <ele>571.15999999999997</ele>
        <time>2025-05-02T10:10:00Z</time>
      </trkpt>
      <trkpt lat="42.192553030326962" lon="-7.609594026580453">
        <ele>571.15999999999997</ele>
        <time>2025-05-02T10:10:01Z</time>
      </trkpt>
      <trkpt lat="42.192526962608099" lon="-7.609722018241882">
        <ele>571.15999999999997</ele>
        <time>2025-05-02T10:10:02Z</time>
      </trkpt>
      <trkpt lat="42.192501984536648" lon="-7.60984699241817">
        <ele>570.67999999999995</ele>
        <time>2025-05-02T10:10:03Z</time>
      </trkpt>
      <trkpt lat="42.192456973716617" lon="-7.609956962987781">
        <ele>570.20000000000005</ele>
        <time>2025-05-02T10:10:04Z</time>
      </trkpt>
      <trkpt lat="42.192402994260192" lon="-7.610044972971082">
        <ele>570.20000000000005</ele>
        <time>2025-05-02T10:10:05Z</time>
      </trkpt>
      <trkpt lat="42.192339040338993" lon="-7.610119991004467">
        <ele>569.72000000000003</ele>
        <time>2025-05-02T10:10:06Z</time>
      </trkpt>
      <trkpt lat="42.192277014255524" lon="-7.610157039016485">
        <ele>569.72000000000003</ele>
        <time>2025-05-02T10:10:07Z</time>
      </trkpt>
      <trkpt lat="42.192193027585745" lon="-7.610157039016485">
        <ele>569.24000000000001</ele>
        <time>2025-05-02T10:10:08Z</time>
      </trkpt>
      <trkpt lat="42.192111974582076" lon="-7.610146980732679">
        <ele>569.24000000000001</ele>
        <time>2025-05-02T10:10:09Z</time>
      </trkpt>
      <trkpt lat="42.192022958770394" lon="-7.610112028196454">
        <ele>568.75999999999999</ele>
        <time>2025-05-02T10:10:10Z</time>
      </trkpt>
      <trkpt lat="42.191936960443854" lon="-7.610076991841197">
        <ele>568.75999999999999</ele>
        <time>2025-05-02T10:10:11Z</time>
      </trkpt>
      <trkpt lat="42.191856997087598" lon="-7.610026029869914">
        <ele>568.27999999999997</ele>
        <time>2025-05-02T10:10:12Z</time>
      </trkpt>
      <trkpt lat="42.1917740162462" lon="-7.609966015443206">
        <ele>568.27999999999997</ele>
        <time>2025-05-02T10:10:13Z</time>
      </trkpt>
      <trkpt lat="42.191681982949376" lon="-7.609926033765078">
        <ele>568.27999999999997</ele>
        <time>2025-05-02T10:10:14Z</time>
      </trkpt>
      <trkpt lat="42.191591039299965" lon="-7.609886974096298">
        <ele>568.75999999999999</ele>
        <time>2025-05-02T10:10:15Z</time>
      </trkpt>
      <trkpt lat="42.191500011831522" lon="-7.609847998246551">
        <ele>568.75999999999999</ele>
        <time>2025-05-02T10:10:16Z</time>
      </trkpt>
      <trkpt lat="42.191403033211827" lon="-7.609845986589789">
        <ele>568.75999999999999</ele>
        <time>2025-05-02T10:10:17Z</time>
      </trkpt>
      <trkpt lat="42.191341007128358" lon="-7.609855961054564">
        <ele>568.75999999999999</ele>
        <time>2025-05-02T10:10:18Z</time>
      </trkpt>
      <trkpt lat="42.191251991316676" lon="-7.609945982694626">
        <ele>568.75999999999999</ele>
        <time>2025-05-02T10:10:19Z</time>
      </trkpt>
      <trkpt lat="42.191170016303658" lon="-7.610091995447874">
        <ele>568.75999999999999</ele>
        <time>2025-05-02T10:10:20Z</time>
      </trkpt>
      <trkpt lat="42.191115031018853" lon="-7.610186040401459">
        <ele>568.75999999999999</ele>
        <time>2025-05-02T10:10:21Z</time>
      </trkpt>
      <trkpt lat="42.191115031018853" lon="-7.610186962410808">
        <ele>568.27999999999997</ele>
        <time>2025-05-02T10:10:22Z</time>
      </trkpt>
      <trkpt lat="42.191063985228539" lon="-7.610273966565728">
        <ele>568.27999999999997</ele>
        <time>2025-05-02T10:10:23Z</time>
      </trkpt>
      <trkpt lat="42.191019980236888" lon="-7.610349990427494">
        <ele>568.75999999999999</ele>
        <time>2025-05-02T10:10:24Z</time>
      </trkpt>
      <trkpt lat="42.190925013273954" lon="-7.610377985984087">
        <ele>568.75999999999999</ele>
        <time>2025-05-02T10:10:25Z</time>
      </trkpt>
      <trkpt lat="42.190843038260937" lon="-7.610402964055538">
        <ele>569.24000000000001</ele>
        <time>2025-05-02T10:10:26Z</time>
      </trkpt>
      <trkpt lat="42.190767014399171" lon="-7.610388966277242">
        <ele>569.72000000000003</ele>
        <time>2025-05-02T10:10:27Z</time>
      </trkpt>
      <trkpt lat="42.190675986930728" lon="-7.610328029841185">
        <ele>570.67999999999995</ele>
        <time>2025-05-02T10:10:28Z</time>
      </trkpt>
      <trkpt lat="42.19061597250402" lon="-7.6102339848876">
        <ele>571.63999999999999</ele>
        <time>2025-05-02T10:10:29Z</time>
      </trkpt>
      <trkpt lat="42.190543971955776" lon="-7.610119991004467">
        <ele>572.12</ele>
        <time>2025-05-02T10:10:30Z</time>
      </trkpt>
      <trkpt lat="42.190251024439931" lon="-7.609553961083293">
        <ele>574.03999999999996</ele>
        <time>2025-05-02T10:10:34Z</time>
      </trkpt>
      <trkpt lat="42.190182963386178" lon="-7.609399985522032">
        <ele>574.03999999999996</ele>
        <time>2025-05-02T10:10:35Z</time>
      </trkpt>
      <trkpt lat="42.190118003636599" lon="-7.609254978597164">
        <ele>574.52999999999997</ele>
        <time>2025-05-02T10:10:36Z</time>
      </trkpt>
      <trkpt lat="42.190019013360143" lon="-7.609136961400509">
        <ele>574.52999999999997</ele>
        <time>2025-05-02T10:10:37Z</time>
      </trkpt>
      <trkpt lat="42.189924968406558" lon="-7.609023973345757">
        <ele>575.00999999999999</ele>
        <time>2025-05-02T10:10:38Z</time>
      </trkpt>
      <trkpt lat="42.189806029200554" lon="-7.608935963362455">
        <ele>575.00999999999999</ele>
        <time>2025-05-02T10:10:39Z</time>
      </trkpt>
      <trkpt lat="42.189678037539124" lon="-7.608853988349438">
        <ele>575.00999999999999</ele>
        <time>2025-05-02T10:10:40Z</time>
      </trkpt>
      <trkpt lat="42.18943202868104" lon="-7.608698001131415">
        <ele>575.97000000000003</ele>
        <time>2025-05-02T10:10:42Z</time>
      </trkpt>
      <trkpt lat="42.189270006492734" lon="-7.608657013624907">
        <ele>576.45000000000005</ele>
        <time>2025-05-02T10:10:43Z</time>
      </trkpt>
      <trkpt lat="42.189120976254344" lon="-7.608619965612888">
        <ele>577.40999999999997</ele>
        <time>2025-05-02T10:10:44Z</time>
      </trkpt>
      <trkpt lat="42.187421964481473" lon="-7.608476970344782">
        <ele>582.70000000000005</ele>
        <time>2025-05-02T10:10:55Z</time>
      </trkpt>
      <trkpt lat="42.185851028189063" lon="-7.60862298309803">
        <ele>585.10000000000002</ele>
        <time>2025-05-02T10:11:06Z</time>
      </trkpt>
      <trkpt lat="42.185730999335647" lon="-7.608576966449618">
        <ele>585.58000000000004</ele>
        <time>2025-05-02T10:11:07Z</time>
      </trkpt>
      <trkpt lat="42.185608958825469" lon="-7.608531033620238">
        <ele>586.05999999999995</ele>
        <time>2025-05-02T10:11:08Z</time>
      </trkpt>
      <trkpt lat="42.185488007962704" lon="-7.608485016971827">
        <ele>586.53999999999996</ele>
        <time>2025-05-02T10:11:09Z</time>
      </trkpt>
      <trkpt lat="42.185391029343009" lon="-7.608390972018242">
        <ele>587.01999999999998</ele>
        <time>2025-05-02T10:11:10Z</time>
      </trkpt>
      <trkpt lat="42.185292039066553" lon="-7.608290975913405">
        <ele>587.01999999999998</ele>
        <time>2025-05-02T10:11:11Z</time>
      </trkpt>
      <trkpt lat="42.185202017426491" lon="-7.608187962323427">
        <ele>587.01999999999998</ele>
        <time>2025-05-02T10:11:12Z</time>
      </trkpt>
      <trkpt lat="42.18502901494503" lon="-7.607965003699064">
        <ele>587.5</ele>
        <time>2025-05-02T10:11:14Z</time>
      </trkpt>
      <trkpt lat="42.184947039932013" lon="-7.607857966795564">
        <ele>587.98000000000002</ele>
        <time>2025-05-02T10:11:15Z</time>
      </trkpt>
      <trkpt lat="42.184861963614821" lon="-7.607768028974533">
        <ele>587.98000000000002</ele>
        <time>2025-05-02T10:11:16Z</time>
      </trkpt>
      <trkpt lat="42.184758028015494" lon="-7.607732992619276">
        <ele>588.46000000000004</ele>
        <time>2025-05-02T10:11:17Z</time>
      </trkpt>
      <trkpt lat="42.184647973626852" lon="-7.60769703425467">
        <ele>588.95000000000005</ele>
        <time>2025-05-02T10:11:18Z</time>
      </trkpt>
      <trkpt lat="42.184407999739051" lon="-7.607680018991232">
        <ele>589.90999999999997</ele>
        <time>2025-05-02T10:11:20Z</time>
      </trkpt>
      <trkpt lat="42.184067023918033" lon="-7.607753025367856">
        <ele>589.90999999999997</ele>
        <time>2025-05-02T10:11:21Z</time>
      </trkpt>
      <trkpt lat="42.184067023918033" lon="-7.607753025367856">
        <ele>590.38999999999999</ele>
        <time>2025-05-02T10:11:22Z</time>
      </trkpt>
      <trkpt lat="42.183894021436572" lon="-7.607884034514427">
        <ele>590.38999999999999</ele>
        <time>2025-05-02T10:11:23Z</time>
      </trkpt>
      <trkpt lat="42.183894021436572" lon="-7.607884034514427">
        <ele>590.87</ele>
        <time>2025-05-02T10:11:24Z</time>
      </trkpt>
      <trkpt lat="42.183772986754775" lon="-7.607973972335458">
        <ele>590.87</ele>
        <time>2025-05-02T10:11:25Z</time>
      </trkpt>
      <trkpt lat="42.18365496955812" lon="-7.60806298814714">
        <ele>591.35000000000002</ele>
        <time>2025-05-02T10:11:26Z</time>
      </trkpt>
      <trkpt lat="42.183539969846606" lon="-7.60814898647368">
        <ele>591.83000000000004</ele>
        <time>2025-05-02T10:11:27Z</time>
      </trkpt>
      <trkpt lat="42.182991039007902" lon="-7.608499014750123">
        <ele>593.75</ele>
        <time>2025-05-02T10:11:31Z</time>
      </trkpt>
      <trkpt lat="42.182896994054317" lon="-7.608565986156464">
        <ele>594.23000000000002</ele>
        <time>2025-05-02T10:11:32Z</time>
      </trkpt>
      <trkpt lat="42.182791968807578" lon="-7.608650978654623">
        <ele>594.71000000000004</ele>
        <time>2025-05-02T10:11:33Z</time>
      </trkpt>
      <trkpt lat="42.182791968807578" lon="-7.608650978654623">
        <ele>595.19000000000005</ele>
        <time>2025-05-02T10:11:34Z</time>
      </trkpt>
      <trkpt lat="42.182726003229618" lon="-7.608775030821562">
        <ele>595.66999999999996</ele>
        <time>2025-05-02T10:11:35Z</time>
      </trkpt>
      <trkpt lat="42.182297017425299" lon="-7.609585979953408">
        <ele>597.60000000000002</ele>
        <time>2025-05-02T10:11:41Z</time>
      </trkpt>
      <trkpt lat="42.182232979685068" lon="-7.609708020463586">
        <ele>598.08000000000004</ele>
        <time>2025-05-02T10:11:42Z</time>
      </trkpt>
      <trkpt lat="42.18217103742063" lon="-7.609826037660241">
        <ele>598.55999999999995</ele>
        <time>2025-05-02T10:11:43Z</time>
      </trkpt>
      <trkpt lat="42.182047991082072" lon="-7.610056959092617">
        <ele>599.51999999999998</ele>
        <time>2025-05-02T10:11:45Z</time>
      </trkpt>
      <trkpt lat="42.181981019675732" lon="-7.610163995996118">
        <ele>600.48000000000002</ele>
        <time>2025-05-02T10:11:46Z</time>
      </trkpt>
      <trkpt lat="42.181900972500443" lon="-7.610252005979419">
        <ele>600.48000000000002</ele>
        <time>2025-05-02T10:11:47Z</time>
      </trkpt>
      <trkpt lat="42.181659992784262" lon="-7.610518969595432">
        <ele>600.96000000000004</ele>
        <time>2025-05-02T10:11:49Z</time>
      </trkpt>
      <trkpt lat="42.181659992784262" lon="-7.610518969595432">
        <ele>600.96000000000004</ele>
        <time>2025-05-02T10:11:50Z</time>
      </trkpt>
      <trkpt lat="42.181467041373253" lon="-7.610664982348681">
        <ele>600.96000000000004</ele>
        <time>2025-05-02T10:11:51Z</time>
      </trkpt>
      <trkpt lat="42.181364027783275" lon="-7.610726002603769">
        <ele>600.96000000000004</ele>
        <time>2025-05-02T10:11:52Z</time>
      </trkpt>
      <trkpt lat="42.181364027783275" lon="-7.610726002603769">
        <ele>600.96000000000004</ele>
        <time>2025-05-02T10:11:53Z</time>
      </trkpt>
      <trkpt lat="42.181268977001309" lon="-7.610781993716955">
        <ele>600.96000000000004</ele>
        <time>2025-05-02T10:11:54Z</time>
      </trkpt>
      <trkpt lat="42.181171998381615" lon="-7.610838990658522">
        <ele>600.96000000000004</ele>
        <time>2025-05-02T10:11:55Z</time>
      </trkpt>
      <trkpt lat="42.181055992841721" lon="-7.61087897233665">
        <ele>601.44000000000005</ele>
        <time>2025-05-02T10:11:56Z</time>
      </trkpt>
      <trkpt lat="42.180806966498494" lon="-7.610873021185398">
        <ele>601.91999999999996</ele>
        <time>2025-05-02T10:11:57Z</time>
      </trkpt>
      <trkpt lat="42.180806966498494" lon="-7.610873021185398">
        <ele>602.88</ele>
        <time>2025-05-02T10:11:58Z</time>
      </trkpt>
      <trkpt lat="42.180685009807348" lon="-7.610819963738322">
        <ele>603.85000000000002</ele>
        <time>2025-05-02T10:11:59Z</time>
      </trkpt>
      <trkpt lat="42.18012903816998" lon="-7.610456021502614">
        <ele>608.16999999999996</ele>
        <time>2025-05-02T10:12:04Z</time>
      </trkpt>
      <trkpt lat="42.180032981559634" lon="-7.610392989590764">
        <ele>609.13</ele>
        <time>2025-05-02T10:12:05Z</time>
      </trkpt>
      <trkpt lat="42.17995896935463" lon="-7.610251000151038">
        <ele>610.09000000000003</ele>
        <time>2025-05-02T10:12:06Z</time>
      </trkpt>
      <trkpt lat="42.179517997428775" lon="-7.609446002170444">
        <ele>614.89999999999998</ele>
        <time>2025-05-02T10:12:12Z</time>
      </trkpt>
      <trkpt lat="42.179426969960332" lon="-7.609322033822537">
        <ele>615.86000000000001</ele>
        <time>2025-05-02T10:12:13Z</time>
      </trkpt>
      <trkpt lat="42.179160006344318" lon="-7.608957001939416">
        <ele>618.25999999999999</ele>
        <time>2025-05-02T10:12:16Z</time>
      </trkpt>
      <trkpt lat="42.178999995812774" lon="-7.608737982809544">
        <ele>620.19000000000005</ele>
        <time>2025-05-02T10:12:18Z</time>
      </trkpt>
      <trkpt lat="42.178930006921291" lon="-7.608603034168482">
        <ele>621.14999999999998</ele>
        <time>2025-05-02T10:12:19Z</time>
      </trkpt>
      <trkpt lat="42.178878039121628" lon="-7.608289970085025">
        <ele>623.07000000000005</ele>
        <time>2025-05-02T10:12:21Z</time>
      </trkpt>
      <trkpt lat="42.178845014423132" lon="-7.608138006180525">
        <ele>624.50999999999999</ele>
        <time>2025-05-02T10:12:22Z</time>
      </trkpt>
      <trkpt lat="42.178802015259862" lon="-7.608009008690715">
        <ele>625.96000000000004</ele>
        <time>2025-05-02T10:12:23Z</time>
      </trkpt>
      <trkpt lat="42.178745018318295" lon="-7.607882022857666">
        <ele>626.91999999999996</ele>
        <time>2025-05-02T10:12:24Z</time>
      </trkpt>
      <trkpt lat="42.17851703055203" lon="-7.607769034802914">
        <ele>627.88</ele>
        <time>2025-05-02T10:12:25Z</time>
      </trkpt>
      <trkpt lat="42.17851703055203" lon="-7.607769034802914">
        <ele>628.84000000000003</ele>
        <time>2025-05-02T10:12:26Z</time>
      </trkpt>
      <trkpt lat="42.178384009748697" lon="-7.607746990397573">
        <ele>629.79999999999995</ele>
        <time>2025-05-02T10:12:27Z</time>
      </trkpt>
      <trkpt lat="42.178116962313652" lon="-7.60769996792078">
        <ele>631.24000000000001</ele>
        <time>2025-05-02T10:12:29Z</time>
      </trkpt>
      <trkpt lat="42.17798100784421" lon="-7.607629979029298">
        <ele>632.20000000000005</ele>
        <time>2025-05-02T10:12:30Z</time>
      </trkpt>
      <trkpt lat="42.177861984819174" lon="-7.60752503760159">
        <ele>633.64999999999998</ele>
        <time>2025-05-02T10:12:31Z</time>
      </trkpt>
      <trkpt lat="42.177762994542718" lon="-7.607387993484736">
        <ele>635.09000000000003</ele>
        <time>2025-05-02T10:12:32Z</time>
      </trkpt>
      <trkpt lat="42.177665010094643" lon="-7.607252039015293">
        <ele>636.52999999999997</ele>
        <time>2025-05-02T10:12:33Z</time>
      </trkpt>
      <trkpt lat="42.177408020943403" lon="-7.606801008805633">
        <ele>641.82000000000005</ele>
        <time>2025-05-02T10:12:36Z</time>
      </trkpt>
      <trkpt lat="42.177308024838567" lon="-7.606616020202637">
        <ele>643.74000000000001</ele>
        <time>2025-05-02T10:12:37Z</time>
      </trkpt>
      <trkpt lat="42.17721096239984" lon="-7.606525998562574">
        <ele>645.17999999999995</ele>
        <time>2025-05-02T10:12:38Z</time>
      </trkpt>
      <trkpt lat="42.17710099183023" lon="-7.606421979144216">
        <ele>646.62</ele>
        <time>2025-05-02T10:12:39Z</time>
      </trkpt>
      <trkpt lat="42.176947016268969" lon="-7.606314020231366">
        <ele>648.07000000000005</ele>
        <time>2025-05-02T10:12:40Z</time>
      </trkpt>
      <trkpt lat="42.176808966323733" lon="-7.606307985261083">
        <ele>649.50999999999999</ele>
        <time>2025-05-02T10:12:41Z</time>
      </trkpt>
      <trkpt lat="42.17667100019753" lon="-7.60630102828145">
        <ele>650.95000000000005</ele>
        <time>2025-05-02T10:12:42Z</time>
      </trkpt>
      <trkpt lat="42.176261963322759" lon="-7.606206983327866">
        <ele>654.79999999999995</ele>
        <time>2025-05-02T10:12:45Z</time>
      </trkpt>
      <trkpt lat="42.176122991368175" lon="-7.606158033013344">
        <ele>655.75999999999999</ele>
        <time>2025-05-02T10:12:46Z</time>
      </trkpt>
      <trkpt lat="42.175996005535126" lon="-7.60610799305141">
        <ele>656.72000000000003</ele>
        <time>2025-05-02T10:12:47Z</time>
      </trkpt>
      <trkpt lat="42.175861978903413" lon="-7.606028029695153">
        <ele>657.67999999999995</ele>
        <time>2025-05-02T10:12:48Z</time>
      </trkpt>
      <trkpt lat="42.175723006948829" lon="-7.605943959206343">
        <ele>658.63999999999999</ele>
        <time>2025-05-02T10:12:49Z</time>
      </trkpt>
      <trkpt lat="42.175587974488735" lon="-7.605859972536564">
        <ele>659.12</ele>
        <time>2025-05-02T10:12:50Z</time>
      </trkpt>
      <trkpt lat="42.175473980605602" lon="-7.605713959783316">
        <ele>660.08000000000004</ele>
        <time>2025-05-02T10:12:51Z</time>
      </trkpt>
      <trkpt lat="42.175359986722469" lon="-7.605567025020719">
        <ele>661.03999999999996</ele>
        <time>2025-05-02T10:12:52Z</time>
      </trkpt>
      <trkpt lat="42.175255967304111" lon="-7.605403997004032">
        <ele>662.00999999999999</ele>
        <time>2025-05-02T10:12:53Z</time>
      </trkpt>
      <trkpt lat="42.174992021173239" lon="-7.604891024529934">
        <ele>664.88999999999999</ele>
        <time>2025-05-02T10:12:56Z</time>
      </trkpt>
      <trkpt lat="42.174898982048035" lon="-7.604722967371345">
        <ele>665.85000000000002</ele>
        <time>2025-05-02T10:12:57Z</time>
      </trkpt>
      <trkpt lat="42.174472007900476" lon="-7.604103041812778">
        <ele>670.17999999999995</ele>
        <time>2025-05-02T10:13:01Z</time>
      </trkpt>
      <trkpt lat="42.174361031502485" lon="-7.603950994089246">
        <ele>671.13999999999999</ele>
        <time>2025-05-02T10:13:02Z</time>
      </trkpt>
      <trkpt lat="42.173430975526571" lon="-7.602678034454584">
        <ele>679.30999999999995</ele>
        <time>2025-05-02T10:13:10Z</time>
      </trkpt>
      <trkpt lat="42.173333996906877" lon="-7.602602010592818">
        <ele>680.26999999999998</ele>
        <time>2025-05-02T10:13:11Z</time>
      </trkpt>
      <trkpt lat="42.173228971660137" lon="-7.602525986731052">
        <ele>681.23000000000002</ele>
        <time>2025-05-02T10:13:12Z</time>
      </trkpt>
      <trkpt lat="42.173111038282514" lon="-7.602473013103008">
        <ele>681.71000000000004</ele>
        <time>2025-05-02T10:13:13Z</time>
      </trkpt>
      <trkpt lat="42.172972988337278" lon="-7.602432025596499">
        <ele>682.66999999999996</ele>
        <time>2025-05-02T10:13:14Z</time>
      </trkpt>
      <trkpt lat="42.17282596975565" lon="-7.602388020604849">
        <ele>683.63</ele>
        <time>2025-05-02T10:13:15Z</time>
      </trkpt>
      <trkpt lat="42.171755013987422" lon="-7.602040003985167">
        <ele>691.33000000000004</ele>
        <time>2025-05-02T10:13:23Z</time>
      </trkpt>
      <trkpt lat="42.171756019815803" lon="-7.602040003985167">
        <ele>692.28999999999996</ele>
        <time>2025-05-02T10:13:24Z</time>
      </trkpt>
      <trkpt lat="42.171663986518979" lon="-7.602017959579825">
        <ele>692.76999999999998</ele>
        <time>2025-05-02T10:13:25Z</time>
      </trkpt>
      <trkpt lat="42.171573964878917" lon="-7.602019971236587">
        <ele>693.73000000000002</ele>
        <time>2025-05-02T10:13:26Z</time>
      </trkpt>
      <trkpt lat="42.171424012631178" lon="-7.602147040888667">
        <ele>695.64999999999998</ele>
        <time>2025-05-02T10:13:28Z</time>
      </trkpt>
      <trkpt lat="42.171201976016164" lon="-7.602420961484313">
        <ele>698.52999999999997</ele>
        <time>2025-05-02T10:13:31Z</time>
      </trkpt>
      <trkpt lat="42.171120001003146" lon="-7.602522969245911">
        <ele>699.5</ele>
        <time>2025-05-02T10:13:32Z</time>
      </trkpt>
      <trkpt lat="42.171022016555071" lon="-7.60260502807796">
        <ele>700.94000000000005</ele>
        <time>2025-05-02T10:13:33Z</time>
      </trkpt>
      <trkpt lat="42.170926965773106" lon="-7.602679040282965">
        <ele>701.89999999999998</ele>
        <time>2025-05-02T10:13:34Z</time>
      </trkpt>
      <trkpt lat="42.170691015198827" lon="-7.602679040282965">
        <ele>702.86000000000001</ele>
        <time>2025-05-02T10:13:35Z</time>
      </trkpt>
      <trkpt lat="42.170563023537397" lon="-7.602632017806172">
        <ele>704.77999999999997</ele>
        <time>2025-05-02T10:13:37Z</time>
      </trkpt>
      <trkpt lat="42.169501036405563" lon="-7.602364970371127">
        <ele>707.19000000000005</ele>
        <time>2025-05-02T10:13:45Z</time>
      </trkpt>
      <trkpt lat="42.169378995895386" lon="-7.602375028654933">
        <ele>707.19000000000005</ele>
        <time>2025-05-02T10:13:46Z</time>
      </trkpt>
      <trkpt lat="42.169256033375859" lon="-7.602383997291327">
        <ele>707.66999999999996</ele>
        <time>2025-05-02T10:13:47Z</time>
      </trkpt>
      <trkpt lat="42.169134998694062" lon="-7.602418027818203">
        <ele>707.66999999999996</ele>
        <time>2025-05-02T10:13:48Z</time>
      </trkpt>
      <trkpt lat="42.169013964012265" lon="-7.602474018931389">
        <ele>708.14999999999998</ele>
        <time>2025-05-02T10:13:49Z</time>
      </trkpt>
      <trkpt lat="42.168887984007597" lon="-7.602533027529717">
        <ele>708.14999999999998</ele>
        <time>2025-05-02T10:13:50Z</time>
      </trkpt>
      <trkpt lat="42.168385991826653" lon="-7.602765960618854">
        <ele>709.59000000000003</ele>
        <time>2025-05-02T10:13:54Z</time>
      </trkpt>
      <trkpt lat="42.167043965309858" lon="-7.603300977498293">
        <ele>713.91999999999996</ele>
        <time>2025-05-02T10:14:04Z</time>
      </trkpt>
      <trkpt lat="42.166494028642774" lon="-7.603343976661563">
        <ele>715.84000000000003</ele>
        <time>2025-05-02T10:14:08Z</time>
      </trkpt>
      <trkpt lat="42.16635899618268" lon="-7.603310029953718">
        <ele>716.32000000000005</ele>
        <time>2025-05-02T10:14:09Z</time>
      </trkpt>
      <trkpt lat="42.166223041713238" lon="-7.603275999426842">
        <ele>716.79999999999995</ele>
        <time>2025-05-02T10:14:10Z</time>
      </trkpt>
      <trkpt lat="42.164977993816137" lon="-7.602693038061261">
        <ele>720.64999999999998</ele>
        <time>2025-05-02T10:14:18Z</time>
      </trkpt>
      <trkpt lat="42.164831981062889" lon="-7.602679040282965">
        <ele>721.13</ele>
        <time>2025-05-02T10:14:19Z</time>
      </trkpt>
      <trkpt lat="42.164688985794783" lon="-7.602674011141062">
        <ele>722.09000000000003</ele>
        <time>2025-05-02T10:14:20Z</time>
      </trkpt>
      <trkpt lat="42.164250025525689" lon="-7.602797979488969">
        <ele>724.49000000000001</ele>
        <time>2025-05-02T10:14:23Z</time>
      </trkpt>
      <trkpt lat="42.164250025525689" lon="-7.602797979488969">
        <ele>725.45000000000005</ele>
        <time>2025-05-02T10:14:24Z</time>
      </trkpt>
      <trkpt lat="42.164095966145396" lon="-7.602822035551071">
        <ele>725.92999999999995</ele>
        <time>2025-05-02T10:14:25Z</time>
      </trkpt>
      <trkpt lat="42.163944002240896" lon="-7.602828992530704">
        <ele>726.88999999999999</ele>
        <time>2025-05-02T10:14:26Z</time>
      </trkpt>
      <trkpt lat="42.163792960345745" lon="-7.602836033329368">
        <ele>727.37</ele>
        <time>2025-05-02T10:14:27Z</time>
      </trkpt>
      <trkpt lat="42.163634039461613" lon="-7.602829998359084">
        <ele>728.34000000000003</ele>
        <time>2025-05-02T10:14:28Z</time>
      </trkpt>
      <trkpt lat="42.162497034296393" lon="-7.602710975334048">
        <ele>730.74000000000001</ele>
        <time>2025-05-02T10:14:35Z</time>
      </trkpt>
      <trkpt lat="42.161497995257378" lon="-7.602566974237561">
        <ele>731.22000000000003</ele>
        <time>2025-05-02T10:14:41Z</time>
      </trkpt>
      <trkpt lat="42.161333961412311" lon="-7.60254099033773">
        <ele>731.22000000000003</ele>
        <time>2025-05-02T10:14:42Z</time>
      </trkpt>
      <trkpt lat="42.161183003336191" lon="-7.602464966475964">
        <ele>731.22000000000003</ele>
        <time>2025-05-02T10:14:43Z</time>
      </trkpt>
      <trkpt lat="42.160166027024388" lon="-7.60191997513175">
        <ele>730.74000000000001</ele>
        <time>2025-05-02T10:14:51Z</time>
      </trkpt>
      <trkpt lat="42.160024959594011" lon="-7.601868007332087">
        <ele>730.25999999999999</ele>
        <time>2025-05-02T10:14:53Z</time>
      </trkpt>
      <trkpt lat="42.159971985965967" lon="-7.60185300372541">
        <ele>730.25999999999999</ele>
        <time>2025-05-02T10:14:54Z</time>
      </trkpt>
      <trkpt lat="42.159969974309206" lon="-7.60185300372541">
        <ele>730.25999999999999</ele>
        <time>2025-05-02T10:14:55Z</time>
      </trkpt>
      <trkpt lat="42.160010961815715" lon="-7.601772034540772">
        <ele>729.77999999999997</ele>
        <time>2025-05-02T10:14:56Z</time>
      </trkpt>
      <trkpt lat="42.16004197485745" lon="-7.601710008457303">
        <ele>729.29999999999995</ele>
        <time>2025-05-02T10:14:57Z</time>
      </trkpt>
      <trkpt lat="42.160167032852769" lon="-7.601642031222582">
        <ele>728.82000000000005</ele>
        <time>2025-05-02T10:14:58Z</time>
      </trkpt>
      <trkpt lat="42.160167032852769" lon="-7.601642031222582">
        <ele>728.82000000000005</ele>
        <time>2025-05-02T10:14:59Z</time>
      </trkpt>
      <trkpt lat="42.160265017300844" lon="-7.601606994867325">
        <ele>728.34000000000003</ele>
        <time>2025-05-02T10:15:00Z</time>
      </trkpt>
      <trkpt lat="42.160376999527216" lon="-7.601568019017577">
        <ele>728.34000000000003</ele>
        <time>2025-05-02T10:15:01Z</time>
      </trkpt>
      <trkpt lat="42.160503985360265" lon="-7.601523008197546">
        <ele>727.86000000000001</ele>
        <time>2025-05-02T10:15:02Z</time>
      </trkpt>
      <trkpt lat="42.160641029477119" lon="-7.601474979892373">
        <ele>727.86000000000001</ele>
        <time>2025-05-02T10:15:03Z</time>
      </trkpt>
      <trkpt lat="42.160783018916845" lon="-7.60142401792109">
        <ele>727.37</ele>
        <time>2025-05-02T10:15:04Z</time>
      </trkpt>
      <trkpt lat="42.160935988649726" lon="-7.601370960474014">
        <ele>726.88999999999999</ele>
        <time>2025-05-02T10:15:05Z</time>
      </trkpt>
      <trkpt lat="42.161275958642364" lon="-7.601198041811585">
        <ele>726.88999999999999</ele>
        <time>2025-05-02T10:15:06Z</time>
      </trkpt>
      <trkpt lat="42.162091014906764" lon="-7.600567974150181">
        <ele>723.04999999999995</ele>
        <time>2025-05-02T10:15:12Z</time>
      </trkpt>
      <trkpt lat="42.162429979071021" lon="-7.600426990538836">
        <ele>722.09000000000003</ele>
        <time>2025-05-02T10:15:13Z</time>
      </trkpt>
      <trkpt lat="42.16259803622961" lon="-7.600358007475734">
        <ele>721.13</ele>
        <time>2025-05-02T10:15:14Z</time>
      </trkpt>
      <trkpt lat="42.162752011790872" lon="-7.600294975563884">
        <ele>720.64999999999998</ele>
        <time>2025-05-02T10:15:15Z</time>
      </trkpt>
      <trkpt lat="42.162875980138779" lon="-7.600196991115809">
        <ele>719.67999999999995</ele>
        <time>2025-05-02T10:15:16Z</time>
      </trkpt>
      <trkpt lat="42.16296499595046" lon="-7.600081991404295">
        <ele>718.72000000000003</ele>
        <time>2025-05-02T10:15:17Z</time>
      </trkpt>
      <trkpt lat="42.163044959306717" lon="-7.599956011399627">
        <ele>718.24000000000001</ele>
        <time>2025-05-02T10:15:18Z</time>
      </trkpt>
      <trkpt lat="42.163079995661974" lon="-7.599802035838366">
        <ele>717.27999999999997</ele>
        <time>2025-05-02T10:15:19Z</time>
      </trkpt>
      <trkpt lat="42.163082007318735" lon="-7.599646970629692">
        <ele>716.32000000000005</ele>
        <time>2025-05-02T10:15:20Z</time>
      </trkpt>
      <trkpt lat="42.163082007318735" lon="-7.599646970629692">
        <ele>715.36000000000001</ele>
        <time>2025-05-02T10:15:21Z</time>
      </trkpt>
      <trkpt lat="42.163062980398536" lon="-7.599483020603657">
        <ele>714.39999999999998</ele>
        <time>2025-05-02T10:15:22Z</time>
      </trkpt>
      <trkpt lat="42.163016041740775" lon="-7.599301971495152">
        <ele>713.44000000000005</ele>
        <time>2025-05-02T10:15:23Z</time>
      </trkpt>
      <trkpt lat="42.162910010665655" lon="-7.598891006782651">
        <ele>712.95000000000005</ele>
        <time>2025-05-02T10:15:24Z</time>
      </trkpt>
      <trkpt lat="42.16285603120923" lon="-7.598662013188005">
        <ele>712.47000000000003</ele>
        <time>2025-05-02T10:15:25Z</time>
      </trkpt>
      <trkpt lat="42.162437019869685" lon="-7.596925031393766">
        <ele>710.54999999999995</ele>
        <time>2025-05-02T10:15:33Z</time>
      </trkpt>
      <trkpt lat="42.161888005211949" lon="-7.594624031335115">
        <ele>709.59000000000003</ele>
        <time>2025-05-02T10:15:42Z</time>
      </trkpt>
      <trkpt lat="42.161532025784254" lon="-7.593230037018657">
        <ele>715.84000000000003</ele>
        <time>2025-05-02T10:15:50Z</time>
      </trkpt>
      <trkpt lat="42.161450972780585" lon="-7.592920996248722">
        <ele>716.32000000000005</ele>
        <time>2025-05-02T10:15:51Z</time>
      </trkpt>
      <trkpt lat="42.161391964182258" lon="-7.5927650090307">
        <ele>716.79999999999995</ele>
        <time>2025-05-02T10:15:52Z</time>
      </trkpt>
      <trkpt lat="42.161391964182258" lon="-7.5927650090307">
        <ele>716.79999999999995</ele>
        <time>2025-05-02T10:15:53Z</time>
      </trkpt>
      <trkpt lat="42.161206975579262" lon="-7.592476001009345">
        <ele>716.79999999999995</ele>
        <time>2025-05-02T10:15:54Z</time>
      </trkpt>
      <trkpt lat="42.161206975579262" lon="-7.592476001009345">
        <ele>716.79999999999995</ele>
        <time>2025-05-02T10:15:55Z</time>
      </trkpt>
      <trkpt lat="42.159938039258122" lon="-7.590984022244811">
        <ele>721.61000000000001</ele>
        <time>2025-05-02T10:16:05Z</time>
      </trkpt>
      <trkpt lat="42.159277964383364" lon="-7.590204002335668">
        <ele>726.40999999999997</ele>
        <time>2025-05-02T10:16:09Z</time>
      </trkpt>
      <trkpt lat="42.159277964383364" lon="-7.590204002335668">
        <ele>727.86000000000001</ele>
        <time>2025-05-02T10:16:10Z</time>
      </trkpt>
      <trkpt lat="42.158606993034482" lon="-7.589405039325357">
        <ele>734.10000000000002</ele>
        <time>2025-05-02T10:16:17Z</time>
      </trkpt>
      <trkpt lat="42.157972985878587" lon="-7.588733984157443">
        <ele>739.87</ele>
        <time>2025-05-02T10:16:24Z</time>
      </trkpt>
      <trkpt lat="42.157880030572414" lon="-7.588689979165793">
        <ele>740.83000000000004</ele>
        <time>2025-05-02T10:16:25Z</time>
      </trkpt>
      <trkpt lat="42.157781040295959" lon="-7.588672041893005">
        <ele>741.30999999999995</ele>
        <time>2025-05-02T10:16:26Z</time>
      </trkpt>
      <trkpt lat="42.157781040295959" lon="-7.588672041893005">
        <ele>742.27999999999997</ele>
        <time>2025-05-02T10:16:27Z</time>
      </trkpt>
      <trkpt lat="42.157574007287621" lon="-7.588676987215877">
        <ele>742.75999999999999</ele>
        <time>2025-05-02T10:16:28Z</time>
      </trkpt>
      <trkpt lat="42.157466970384121" lon="-7.588696014136076">
        <ele>742.75999999999999</ele>
        <time>2025-05-02T10:16:29Z</time>
      </trkpt>
      <trkpt lat="42.157466970384121" lon="-7.588696014136076">
        <ele>743.24000000000001</ele>
        <time>2025-05-02T10:16:30Z</time>
      </trkpt>
      <trkpt lat="42.157263038679957" lon="-7.588744964450598">
        <ele>743.72000000000003</ele>
        <time>2025-05-02T10:16:31Z</time>
      </trkpt>
      <trkpt lat="42.156971013173461" lon="-7.588819982483983">
        <ele>745.15999999999997</ele>
        <time>2025-05-02T10:16:34Z</time>
      </trkpt>
      <trkpt lat="42.156971013173461" lon="-7.588819982483983">
        <ele>745.63999999999999</ele>
        <time>2025-05-02T10:16:35Z</time>
      </trkpt>
      <trkpt lat="42.15686003677547" lon="-7.588805984705687">
        <ele>746.60000000000002</ele>
        <time>2025-05-02T10:16:36Z</time>
      </trkpt>
      <trkpt lat="42.156182024627924" lon="-7.588624013587833">
        <ele>750.45000000000005</ele>
        <time>2025-05-02T10:16:41Z</time>
      </trkpt>
      <trkpt lat="42.15495097450912" lon="-7.588483029976487">
        <ele>758.62</ele>
        <time>2025-05-02T10:16:48Z</time>
      </trkpt>
      <trkpt lat="42.153082983568311" lon="-7.588062006980181">
        <ele>769.19000000000005</ele>
        <time>2025-05-02T10:16:56Z</time>
      </trkpt>
      <trkpt lat="42.152141025289893" lon="-7.587721031159163">
        <ele>779.28999999999996</ele>
        <time>2025-05-02T10:17:03Z</time>
      </trkpt>
      <trkpt lat="42.151231002062559" lon="-7.587432023137808">
        <ele>788.41999999999996</ele>
        <time>2025-05-02T10:17:10Z</time>
      </trkpt>
      <trkpt lat="42.151120025664568" lon="-7.587359016761184">
        <ele>789.38</ele>
        <time>2025-05-02T10:17:11Z</time>
      </trkpt>
      <trkpt lat="42.151013994589448" lon="-7.587252985686064">
        <ele>791.29999999999995</ele>
        <time>2025-05-02T10:17:12Z</time>
      </trkpt>
      <trkpt lat="42.150898994877934" lon="-7.587125999853015">
        <ele>792.74000000000001</ele>
        <time>2025-05-02T10:17:13Z</time>
      </trkpt>
      <trkpt lat="42.150796987116337" lon="-7.586945034563541">
        <ele>794.66999999999996</ele>
        <time>2025-05-02T10:17:14Z</time>
      </trkpt>
      <trkpt lat="42.150693973526359" lon="-7.586755016818643">
        <ele>796.11000000000001</ele>
        <time>2025-05-02T10:17:15Z</time>
      </trkpt>
      <trkpt lat="42.150592971593142" lon="-7.586571034044027">
        <ele>797.54999999999995</ele>
        <time>2025-05-02T10:17:16Z</time>
      </trkpt>
      <trkpt lat="42.150494987145066" lon="-7.586390990763903">
        <ele>798.99000000000001</ele>
        <time>2025-05-02T10:17:17Z</time>
      </trkpt>
      <trkpt lat="42.150419969111681" lon="-7.586194016039372">
        <ele>800.91999999999996</ele>
        <time>2025-05-02T10:17:18Z</time>
      </trkpt>
      <trkpt lat="42.150368001312017" lon="-7.585968961939216">
        <ele>802.36000000000001</ele>
        <time>2025-05-02T10:17:19Z</time>
      </trkpt>
      <trkpt lat="42.150317961350083" lon="-7.585752038285136">
        <ele>803.79999999999995</ele>
        <time>2025-05-02T10:17:20Z</time>
      </trkpt>
      <trkpt lat="42.150199022144079" lon="-7.585398992523551">
        <ele>805.24000000000001</ele>
        <time>2025-05-02T10:17:21Z</time>
      </trkpt>
      <trkpt lat="42.150089973583817" lon="-7.585290027782321">
        <ele>806.67999999999995</ele>
        <time>2025-05-02T10:17:22Z</time>
      </trkpt>
      <trkpt lat="42.150089973583817" lon="-7.585290027782321">
        <ele>808.13</ele>
        <time>2025-05-02T10:17:23Z</time>
      </trkpt>
      <trkpt lat="42.149832984432578" lon="-7.585133034735918">
        <ele>809.09000000000003</ele>
        <time>2025-05-02T10:17:24Z</time>
      </trkpt>
      <trkpt lat="42.14970700442791" lon="-7.585043013095856">
        <ele>810.52999999999997</ele>
        <time>2025-05-02T10:17:25Z</time>
      </trkpt>
      <trkpt lat="42.149590998888016" lon="-7.584917033091188">
        <ele>811.97000000000003</ele>
        <time>2025-05-02T10:17:26Z</time>
      </trkpt>
      <trkpt lat="42.149468036368489" lon="-7.584786023944616">
        <ele>813.40999999999997</ele>
        <time>2025-05-02T10:17:27Z</time>
      </trkpt>
      <trkpt lat="42.149272989481688" lon="-7.584413029253483">
        <ele>816.77999999999997</ele>
        <time>2025-05-02T10:17:29Z</time>
      </trkpt>
      <trkpt lat="42.148749958723783" lon="-7.583474004641175">
        <ele>823.99000000000001</ele>
        <time>2025-05-02T10:17:34Z</time>
      </trkpt>
      <trkpt lat="42.148749958723783" lon="-7.583474004641175">
        <ele>824.95000000000005</ele>
        <time>2025-05-02T10:17:35Z</time>
      </trkpt>
      <trkpt lat="42.148620961233974" lon="-7.583365039899945">
        <ele>826.38999999999999</ele>
        <time>2025-05-02T10:17:36Z</time>
      </trkpt>
      <trkpt lat="42.148358020931482" lon="-7.583207041025162">
        <ele>827.35000000000002</ele>
        <time>2025-05-02T10:17:37Z</time>
      </trkpt>
      <trkpt lat="42.148358020931482" lon="-7.583207041025162">
        <ele>828.30999999999995</ele>
        <time>2025-05-02T10:17:38Z</time>
      </trkpt>
      <trkpt lat="42.148135984316468" lon="-7.583311982452869">
        <ele>828.78999999999996</ele>
        <time>2025-05-02T10:17:39Z</time>
      </trkpt>
      <trkpt lat="42.148022996261716" lon="-7.583406027406454">
        <ele>829.75999999999999</ele>
        <time>2025-05-02T10:17:40Z</time>
      </trkpt>
      <trkpt lat="42.147890981286764" lon="-7.583497976884246">
        <ele>830.72000000000003</ele>
        <time>2025-05-02T10:17:41Z</time>
      </trkpt>
      <trkpt lat="42.147740023210645" lon="-7.583581963554025">
        <ele>831.20000000000005</ele>
        <time>2025-05-02T10:17:42Z</time>
      </trkpt>
      <trkpt lat="42.147575989365578" lon="-7.583671985194087">
        <ele>832.15999999999997</ele>
        <time>2025-05-02T10:17:43Z</time>
      </trkpt>
      <trkpt lat="42.147076008841395" lon="-7.583923023194075">
        <ele>835.51999999999998</ele>
        <time>2025-05-02T10:17:46Z</time>
      </trkpt>
      <trkpt lat="42.146906023845077" lon="-7.583950012922287">
        <ele>836.96000000000004</ele>
        <time>2025-05-02T10:17:47Z</time>
      </trkpt>
      <trkpt lat="42.146750958636403" lon="-7.583912964910269">
        <ele>838.40999999999997</ele>
        <time>2025-05-02T10:17:48Z</time>
      </trkpt>
      <trkpt lat="42.146595977246761" lon="-7.583852028474212">
        <ele>839.37</ele>
        <time>2025-05-02T10:17:49Z</time>
      </trkpt>
      <trkpt lat="42.14646496810019" lon="-7.583758989349008">
        <ele>840.80999999999995</ele>
        <time>2025-05-02T10:17:50Z</time>
      </trkpt>
      <trkpt lat="42.146333958953619" lon="-7.583635021001101">
        <ele>842.25</ele>
        <time>2025-05-02T10:17:51Z</time>
      </trkpt>
      <trkpt lat="42.14620697312057" lon="-7.583514992147684">
        <ele>843.21000000000004</ele>
        <time>2025-05-02T10:17:52Z</time>
      </trkpt>
      <trkpt lat="42.14605500921607" lon="-7.583427987992764">
        <ele>844.65999999999997</ele>
        <time>2025-05-02T10:17:53Z</time>
      </trkpt>
      <trkpt lat="42.14590203948319" lon="-7.583400998264551">
        <ele>846.10000000000002</ele>
        <time>2025-05-02T10:17:54Z</time>
      </trkpt>
      <trkpt lat="42.145736999809742" lon="-7.583370991051197">
        <ele>847.53999999999996</ele>
        <time>2025-05-02T10:17:55Z</time>
      </trkpt>
      <trkpt lat="42.145566008985043" lon="-7.583340983837843">
        <ele>848.98000000000002</ele>
        <time>2025-05-02T10:17:56Z</time>
      </trkpt>
      <trkpt lat="42.144280979409814" lon="-7.583135962486267">
        <ele>859.55999999999995</ele>
        <time>2025-05-02T10:18:04Z</time>
      </trkpt>
      <trkpt lat="42.144200010225177" lon="-7.583191031590104">
        <ele>860.51999999999998</ele>
        <time>2025-05-02T10:18:05Z</time>
      </trkpt>
      <trkpt lat="42.144124992191792" lon="-7.583240987733007">
        <ele>861.48000000000002</ele>
        <time>2025-05-02T10:18:06Z</time>
      </trkpt>
      <trkpt lat="42.144123986363411" lon="-7.583240987733007">
        <ele>862.44000000000005</ele>
        <time>2025-05-02T10:18:07Z</time>
      </trkpt>
      <trkpt lat="42.144105965271592" lon="-7.583349030464888">
        <ele>863.39999999999998</ele>
        <time>2025-05-02T10:18:08Z</time>
      </trkpt>
      <trkpt lat="42.144095990806818" lon="-7.58348498493433">
        <ele>863.88</ele>
        <time>2025-05-02T10:18:09Z</time>
      </trkpt>
      <trkpt lat="42.144115017727017" lon="-7.583606019616127">
        <ele>864.84000000000003</ele>
        <time>2025-05-02T10:18:10Z</time>
      </trkpt>
      <trkpt lat="42.144177965819836" lon="-7.583762006834149">
        <ele>865.32000000000005</ele>
        <time>2025-05-02T10:18:11Z</time>
      </trkpt>
      <trkpt lat="42.144248960539699" lon="-7.583937020972371">
        <ele>865.79999999999995</ele>
        <time>2025-05-02T10:18:12Z</time>
      </trkpt>
      <trkpt lat="42.144319033250213" lon="-7.584109017625451">
        <ele>865.79999999999995</ele>
        <time>2025-05-02T10:18:13Z</time>
      </trkpt>
      <trkpt lat="42.144371001049876" lon="-7.584309009835124">
        <ele>866.28999999999996</ele>
        <time>2025-05-02T10:18:14Z</time>
      </trkpt>
      <trkpt lat="42.144371001049876" lon="-7.584406994283199">
        <ele>866.76999999999998</ele>
        <time>2025-05-02T10:18:15Z</time>
      </trkpt>
      <trkpt lat="42.144307969138026" lon="-7.584659038111568">
        <ele>867.73000000000002</ele>
        <time>2025-05-02T10:18:16Z</time>
      </trkpt>
      <trkpt lat="42.144259018823504" lon="-7.584854001179338">
        <ele>868.21000000000004</ele>
        <time>2025-05-02T10:18:17Z</time>
      </trkpt>
      <trkpt lat="42.144210990518332" lon="-7.585044018924236">
        <ele>869.16999999999996</ele>
        <time>2025-05-02T10:18:18Z</time>
      </trkpt>
      <trkpt lat="42.144159022718668" lon="-7.585206963121891">
        <ele>870.13</ele>
        <time>2025-05-02T10:18:19Z</time>
      </trkpt>
      <trkpt lat="42.144091967493296" lon="-7.585308970883489">
        <ele>870.13</ele>
        <time>2025-05-02T10:18:20Z</time>
      </trkpt>
      <trkpt lat="42.143990965560079" lon="-7.585359010845423">
        <ele>870.61000000000001</ele>
        <time>2025-05-02T10:18:21Z</time>
      </trkpt>
      <trkpt lat="42.143905973061919" lon="-7.585347024723887">
        <ele>871.09000000000003</ele>
        <time>2025-05-02T10:18:22Z</time>
      </trkpt>
      <trkpt lat="42.143788961693645" lon="-7.585292961448431">
        <ele>871.57000000000005</ele>
        <time>2025-05-02T10:18:23Z</time>
      </trkpt>
      <trkpt lat="42.143684020265937" lon="-7.585244011133909">
        <ele>872.04999999999995</ele>
        <time>2025-05-02T10:18:24Z</time>
      </trkpt>
      <trkpt lat="42.143587963655591" lon="-7.585120964795351">
        <ele>872.52999999999997</ele>
        <time>2025-05-02T10:18:25Z</time>
      </trkpt>
      <trkpt lat="42.142807021737099" lon="-7.583814980462194">
        <ele>879.74000000000001</ele>
        <time>2025-05-02T10:18:32Z</time>
      </trkpt>
      <trkpt lat="42.142366971820593" lon="-7.583293039351702">
        <ele>883.59000000000003</ele>
        <time>2025-05-02T10:18:35Z</time>
      </trkpt>
      <trkpt lat="42.142097996547818" lon="-7.582981986925006">
        <ele>885.99000000000001</ele>
        <time>2025-05-02T10:18:37Z</time>
      </trkpt>
      <trkpt lat="42.141993977129459" lon="-7.582798004150391">
        <ele>887.42999999999995</ele>
        <time>2025-05-02T10:18:38Z</time>
      </trkpt>
      <trkpt lat="42.141924994066358" lon="-7.58260396309197">
        <ele>888.39999999999998</ele>
        <time>2025-05-02T10:18:39Z</time>
      </trkpt>
      <trkpt lat="42.141860034316778" lon="-7.582419980317354">
        <ele>890.32000000000005</ele>
        <time>2025-05-02T10:18:40Z</time>
      </trkpt>
      <trkpt lat="42.141795996576548" lon="-7.582240020856261">
        <ele>891.75999999999999</ele>
        <time>2025-05-02T10:18:41Z</time>
      </trkpt>
      <trkpt lat="42.141688037663698" lon="-7.582089984789491">
        <ele>893.67999999999995</ele>
        <time>2025-05-02T10:18:42Z</time>
      </trkpt>
      <trkpt lat="42.141587035730481" lon="-7.58204204030335">
        <ele>895.61000000000001</ele>
        <time>2025-05-02T10:18:43Z</time>
      </trkpt>
      <trkpt lat="42.141129970550537" lon="-7.581778010353446">
        <ele>898.49000000000001</ele>
        <time>2025-05-02T10:18:45Z</time>
      </trkpt>
      <trkpt lat="42.140977000817657" lon="-7.581655969843268">
        <ele>900.40999999999997</ele>
        <time>2025-05-02T10:18:46Z</time>
      </trkpt>
      <trkpt lat="42.14083400554955" lon="-7.581542981788516">
        <ele>902.33000000000004</ele>
        <time>2025-05-02T10:18:47Z</time>
      </trkpt>
      <trkpt lat="42.140707019716501" lon="-7.581441979855299">
        <ele>904.25999999999999</ele>
        <time>2025-05-02T10:18:48Z</time>
      </trkpt>
      <trkpt lat="42.140595959499478" lon="-7.581352964043617">
        <ele>906.17999999999995</ele>
        <time>2025-05-02T10:18:49Z</time>
      </trkpt>
      <trkpt lat="42.140482971444726" lon="-7.58129496127367">
        <ele>907.62</ele>
        <time>2025-05-02T10:18:50Z</time>
      </trkpt>
      <trkpt lat="42.140357997268438" lon="-7.581252967938781">
        <ele>909.53999999999996</ele>
        <time>2025-05-02T10:18:51Z</time>
      </trkpt>
      <trkpt lat="42.140260012820363" lon="-7.581315999850631">
        <ele>910.99000000000001</ele>
        <time>2025-05-02T10:18:52Z</time>
      </trkpt>
      <trkpt lat="42.140121962875128" lon="-7.581403004005551">
        <ele>912.90999999999997</ele>
        <time>2025-05-02T10:18:53Z</time>
      </trkpt>
      <trkpt lat="42.140036970376968" lon="-7.581536024808884">
        <ele>914.35000000000002</ele>
        <time>2025-05-02T10:18:54Z</time>
      </trkpt>
      <trkpt lat="42.139936974272132" lon="-7.581691006198525">
        <ele>915.78999999999996</ele>
        <time>2025-05-02T10:18:55Z</time>
      </trkpt>
      <trkpt lat="42.139841001480818" lon="-7.581840958446264">
        <ele>917.24000000000001</ele>
        <time>2025-05-02T10:18:56Z</time>
      </trkpt>
      <trkpt lat="42.139675039798021" lon="-7.58204597979784">
        <ele>919.63999999999999</ele>
        <time>2025-05-02T10:18:58Z</time>
      </trkpt>
      <trkpt lat="42.139675039798021" lon="-7.58204597979784">
        <ele>921.08000000000004</ele>
        <time>2025-05-02T10:18:59Z</time>
      </trkpt>
      <trkpt lat="42.139585018157959" lon="-7.58210901170969">
        <ele>922.03999999999996</ele>
        <time>2025-05-02T10:19:00Z</time>
      </trkpt>
      <trkpt lat="42.13950103148818" lon="-7.58215100504458">
        <ele>923</ele>
        <time>2025-05-02T10:19:01Z</time>
      </trkpt>
      <trkpt lat="42.139402041211724" lon="-7.582130972296">
        <ele>923.96000000000004</ele>
        <time>2025-05-02T10:19:02Z</time>
      </trkpt>
      <trkpt lat="42.139306990429759" lon="-7.582111023366451">
        <ele>924.92999999999995</ele>
        <time>2025-05-02T10:19:03Z</time>
      </trkpt>
      <trkpt lat="42.139215962961316" lon="-7.582016978412867">
        <ele>925.40999999999997</ele>
        <time>2025-05-02T10:19:04Z</time>
      </trkpt>
      <trkpt lat="42.13911596685648" lon="-7.581913964822888">
        <ele>926.37</ele>
        <time>2025-05-02T10:19:05Z</time>
      </trkpt>
      <trkpt lat="42.139005996286869" lon="-7.581798965111375">
        <ele>927.33000000000004</ele>
        <time>2025-05-02T10:19:06Z</time>
      </trkpt>
      <trkpt lat="42.138889990746975" lon="-7.58167801424861">
        <ele>928.76999999999998</ele>
        <time>2025-05-02T10:19:07Z</time>
      </trkpt>
      <trkpt lat="42.138769961893559" lon="-7.581553962081671">
        <ele>929.73000000000002</ele>
        <time>2025-05-02T10:19:08Z</time>
      </trkpt>
      <trkpt lat="42.138625960797071" lon="-7.581495959311724">
        <ele>931.16999999999996</ele>
        <time>2025-05-02T10:19:09Z</time>
      </trkpt>
      <trkpt lat="42.13849101215601" lon="-7.581441979855299">
        <ele>932.13999999999999</ele>
        <time>2025-05-02T10:19:10Z</time>
      </trkpt>
      <trkpt lat="42.138366959989071" lon="-7.581444997340441">
        <ele>933.58000000000004</ele>
        <time>2025-05-02T10:19:11Z</time>
      </trkpt>
      <trkpt lat="42.138243997469544" lon="-7.58148699067533">
        <ele>934.53999999999996</ele>
        <time>2025-05-02T10:19:12Z</time>
      </trkpt>
      <trkpt lat="42.138122040778399" lon="-7.581558991223574">
        <ele>935.98000000000002</ele>
        <time>2025-05-02T10:19:13Z</time>
      </trkpt>
      <trkpt lat="42.137991031631827" lon="-7.58163602091372">
        <ele>936.94000000000005</ele>
        <time>2025-05-02T10:19:14Z</time>
      </trkpt>
      <trkpt lat="42.137853987514973" lon="-7.581717995926738">
        <ele>938.38</ele>
        <time>2025-05-02T10:19:15Z</time>
      </trkpt>
      <trkpt lat="42.137682996690273" lon="-7.581735011190176">
        <ele>939.83000000000004</ele>
        <time>2025-05-02T10:19:16Z</time>
      </trkpt>
      <trkpt lat="42.137520974501967" lon="-7.581698969006538">
        <ele>940.78999999999996</ele>
        <time>2025-05-02T10:19:17Z</time>
      </trkpt>
      <trkpt lat="42.137368004769087" lon="-7.581639960408211">
        <ele>941.75</ele>
        <time>2025-05-02T10:19:18Z</time>
      </trkpt>
      <trkpt lat="42.137215035036206" lon="-7.581581035628915">
        <ele>943.19000000000005</ele>
        <time>2025-05-02T10:19:19Z</time>
      </trkpt>
      <trkpt lat="42.1370720397681" lon="-7.581525966525078">
        <ele>944.63</ele>
        <time>2025-05-02T10:19:20Z</time>
      </trkpt>
      <trkpt lat="42.136933989822865" lon="-7.581535018980503">
        <ele>945.59000000000003</ele>
        <time>2025-05-02T10:19:21Z</time>
      </trkpt>
      <trkpt lat="42.136799041181803" lon="-7.58159201592207">
        <ele>946.55999999999995</ele>
        <time>2025-05-02T10:19:22Z</time>
      </trkpt>
      <trkpt lat="42.136659985408187" lon="-7.58167902007699">
        <ele>947.51999999999998</ele>
        <time>2025-05-02T10:19:23Z</time>
      </trkpt>
      <trkpt lat="42.1365159843117" lon="-7.581769041717053">
        <ele>948.48000000000002</ele>
        <time>2025-05-02T10:19:24Z</time>
      </trkpt>
      <trkpt lat="42.136378018185496" lon="-7.581855040043593">
        <ele>949.44000000000005</ele>
        <time>2025-05-02T10:19:25Z</time>
      </trkpt>
      <trkpt lat="42.136232005432248" lon="-7.581898039206862">
        <ele>950.39999999999998</ele>
        <time>2025-05-02T10:19:26Z</time>
      </trkpt>
      <trkpt lat="42.136083981022239" lon="-7.581898039206862">
        <ele>951.84000000000003</ele>
        <time>2025-05-02T10:19:27Z</time>
      </trkpt>
      <trkpt lat="42.135941991582513" lon="-7.581835007295013">
        <ele>952.32000000000005</ele>
        <time>2025-05-02T10:19:28Z</time>
      </trkpt>
      <trkpt lat="42.13580503128469" lon="-7.581735011190176">
        <ele>953.27999999999997</ele>
        <time>2025-05-02T10:19:29Z</time>
      </trkpt>
      <trkpt lat="42.135386019945145" lon="-7.581426976248622">
        <ele>956.64999999999998</ele>
        <time>2025-05-02T10:19:32Z</time>
      </trkpt>
      <trkpt lat="42.135260039940476" lon="-7.58133402094245">
        <ele>957.61000000000001</ele>
        <time>2025-05-02T10:19:33Z</time>
      </trkpt>
      <trkpt lat="42.135174963623285" lon="-7.581201000139117">
        <ele>958.09000000000003</ele>
        <time>2025-05-02T10:19:34Z</time>
      </trkpt>
      <trkpt lat="42.135118972510099" lon="-7.581043001264334">
        <ele>959.04999999999995</ele>
        <time>2025-05-02T10:19:35Z</time>
      </trkpt>
      <trkpt lat="42.135063987225294" lon="-7.580886008217931">
        <ele>959.52999999999997</ele>
        <time>2025-05-02T10:19:36Z</time>
      </trkpt>
      <trkpt lat="42.134949993342161" lon="-7.580561963841319">
        <ele>960.49000000000001</ele>
        <time>2025-05-02T10:19:38Z</time>
      </trkpt>
      <trkpt lat="42.134857960045338" lon="-7.58043497800827">
        <ele>961.46000000000004</ele>
        <time>2025-05-02T10:19:39Z</time>
      </trkpt>
      <trkpt lat="42.134733991697431" lon="-7.580316960811615">
        <ele>961.94000000000005</ele>
        <time>2025-05-02T10:19:40Z</time>
      </trkpt>
      <trkpt lat="42.13460398837924" lon="-7.580192992463708">
        <ele>962.41999999999996</ele>
        <time>2025-05-02T10:19:41Z</time>
      </trkpt>
      <trkpt lat="42.134479014202952" lon="-7.580072963610292">
        <ele>962.89999999999998</ele>
        <time>2025-05-02T10:19:42Z</time>
      </trkpt>
      <trkpt lat="42.134383041411638" lon="-7.579908007755876">
        <ele>962.89999999999998</ele>
        <time>2025-05-02T10:19:43Z</time>
      </trkpt>
      <trkpt lat="42.134290002286434" lon="-7.579747997224331">
        <ele>963.38</ele>
        <time>2025-05-02T10:19:44Z</time>
      </trkpt>
      <trkpt lat="42.134229987859726" lon="-7.579571977257729">
        <ele>963.38</ele>
        <time>2025-05-02T10:19:45Z</time>
      </trkpt>
      <trkpt lat="42.134204003959894" lon="-7.579370979219675">
        <ele>963.86000000000001</ele>
        <time>2025-05-02T10:19:46Z</time>
      </trkpt>
      <trkpt lat="42.134178020060062" lon="-7.579171992838383">
        <ele>964.34000000000003</ele>
        <time>2025-05-02T10:19:47Z</time>
      </trkpt>
      <trkpt lat="42.13419402949512" lon="-7.57895196788013">
        <ele>964.34000000000003</ele>
        <time>2025-05-02T10:19:48Z</time>
      </trkpt>
      <trkpt lat="42.134209033101797" lon="-7.578739989548922">
        <ele>964.82000000000005</ele>
        <time>2025-05-02T10:19:49Z</time>
      </trkpt>
      <trkpt lat="42.134221019223332" lon="-7.578571010380983">
        <ele>964.82000000000005</ele>
        <time>2025-05-02T10:19:50Z</time>
      </trkpt>
      <trkpt lat="42.134305005893111" lon="-7.578433966264129">
        <ele>964.82000000000005</ele>
        <time>2025-05-02T10:19:51Z</time>
      </trkpt>
      <trkpt lat="42.134386980906129" lon="-7.578301029279828">
        <ele>964.34000000000003</ele>
        <time>2025-05-02T10:19:52Z</time>
      </trkpt>
      <trkpt lat="42.134502986446023" lon="-7.578223999589682">
        <ele>964.34000000000003</ele>
        <time>2025-05-02T10:19:53Z</time>
      </trkpt>
      <trkpt lat="42.13464698754251" lon="-7.578133977949619">
        <ele>964.34000000000003</ele>
        <time>2025-05-02T10:19:54Z</time>
      </trkpt>
      <trkpt lat="42.135130036622286" lon="-7.577846981585026">
        <ele>964.34000000000003</ele>
        <time>2025-05-02T10:19:57Z</time>
      </trkpt>
      <trkpt lat="42.135285018011928" lon="-7.577742962166667">
        <ele>964.34000000000003</ele>
        <time>2025-05-02T10:19:58Z</time>
      </trkpt>
      <trkpt lat="42.135413009673357" lon="-7.577614970505238">
        <ele>963.86000000000001</ele>
        <time>2025-05-02T10:19:59Z</time>
      </trkpt>
      <trkpt lat="42.135515017434955" lon="-7.577463006600738">
        <ele>963.86000000000001</ele>
        <time>2025-05-02T10:20:00Z</time>
      </trkpt>
      <trkpt lat="42.135602021589875" lon="-7.577288998290896">
        <ele>963.86000000000001</ele>
        <time>2025-05-02T10:20:01Z</time>
      </trkpt>
      <trkpt lat="42.135652983561158" lon="-7.577099986374378">
        <ele>963.38</ele>
        <time>2025-05-02T10:20:02Z</time>
      </trkpt>
      <trkpt lat="42.13567896746099" lon="-7.576905023306608">
        <ele>963.38</ele>
        <time>2025-05-02T10:20:03Z</time>
      </trkpt>
      <trkpt lat="42.1356560010463" lon="-7.576727997511625">
        <ele>962.89999999999998</ele>
        <time>2025-05-02T10:20:04Z</time>
      </trkpt>
      <trkpt lat="42.135618031024933" lon="-7.576543008908629">
        <ele>962.89999999999998</ele>
        <time>2025-05-02T10:20:05Z</time>
      </trkpt>
      <trkpt lat="42.135550975799561" lon="-7.576361037790775">
        <ele>962.41999999999996</ele>
        <time>2025-05-02T10:20:06Z</time>
      </trkpt>
      <trkpt lat="42.135432958602905" lon="-7.576212007552385">
        <ele>962.41999999999996</ele>
        <time>2025-05-02T10:20:07Z</time>
      </trkpt>
      <trkpt lat="42.135309996083379" lon="-7.576057026162744">
        <ele>962.41999999999996</ele>
        <time>2025-05-02T10:20:08Z</time>
      </trkpt>
      <trkpt lat="42.133676027879119" lon="-7.574112005531788">
        <ele>966.25999999999999</ele>
        <time>2025-05-02T10:20:20Z</time>
      </trkpt>
      <trkpt lat="42.13221799582243" lon="-7.572363959625363">
        <ele>963.86000000000001</ele>
        <time>2025-05-02T10:20:30Z</time>
      </trkpt>
      <trkpt lat="42.132096961140633" lon="-7.572192968800664">
        <ele>963.86000000000001</ele>
        <time>2025-05-02T10:20:31Z</time>
      </trkpt>
      <trkpt lat="42.131348960101604" lon="-7.570425979793072">
        <ele>963.86000000000001</ele>
        <time>2025-05-02T10:20:39Z</time>
      </trkpt>
      <trkpt lat="42.131318030878901" lon="-7.570197992026806">
        <ele>963.86000000000001</ele>
        <time>2025-05-02T10:20:40Z</time>
      </trkpt>
      <trkpt lat="42.131290035322309" lon="-7.569967992603779">
        <ele>963.86000000000001</ele>
        <time>2025-05-02T10:20:41Z</time>
      </trkpt>
      <trkpt lat="42.131121978163719" lon="-7.567603038623929">
        <ele>959.04999999999995</ele>
        <time>2025-05-02T10:20:50Z</time>
      </trkpt>
      <trkpt lat="42.130934977903962" lon="-7.564624026417732">
        <ele>956.16999999999996</ele>
        <time>2025-05-02T10:21:01Z</time>
      </trkpt>
      <trkpt lat="42.13088502176106" lon="-7.564070988446474">
        <ele>955.21000000000004</ele>
        <time>2025-05-02T10:21:03Z</time>
      </trkpt>
      <trkpt lat="42.130313040688634" lon="-7.562270974740386">
        <ele>953.76999999999998</ele>
        <time>2025-05-02T10:21:10Z</time>
      </trkpt>
      <trkpt lat="42.129846001043916" lon="-7.561047971248627">
        <ele>952.32000000000005</ele>
        <time>2025-05-02T10:21:15Z</time>
      </trkpt>
      <trkpt lat="42.129729995504022" lon="-7.560827024281025">
        <ele>952.32000000000005</ele>
        <time>2025-05-02T10:21:16Z</time>
      </trkpt>
      <trkpt lat="42.129600998014212" lon="-7.560622002929449">
        <ele>951.84000000000003</ele>
        <time>2025-05-02T10:21:17Z</time>
      </trkpt>
      <trkpt lat="42.128895996138453" lon="-7.559665963053703">
        <ele>949.91999999999996</ele>
        <time>2025-05-02T10:21:22Z</time>
      </trkpt>
      <trkpt lat="42.128764986991882" lon="-7.559488015249372">
        <ele>949.44000000000005</ele>
        <time>2025-05-02T10:21:23Z</time>
      </trkpt>
      <trkpt lat="42.128657028079033" lon="-7.559277964755893">
        <ele>948.48000000000002</ele>
        <time>2025-05-02T10:21:24Z</time>
      </trkpt>
      <trkpt lat="42.128567006438971" lon="-7.559036985039711">
        <ele>947.51999999999998</ele>
        <time>2025-05-02T10:21:25Z</time>
      </trkpt>
      <trkpt lat="42.128474973142147" lon="-7.558791982010007">
        <ele>946.07000000000005</ele>
        <time>2025-05-02T10:21:26Z</time>
      </trkpt>
      <trkpt lat="42.127566039562225" lon="-7.55634798668325">
        <ele>934.53999999999996</ele>
        <time>2025-05-02T10:21:35Z</time>
      </trkpt>
      <trkpt lat="42.127479035407305" lon="-7.55613399669528">
        <ele>932.62</ele>
        <time>2025-05-02T10:21:37Z</time>
      </trkpt>
      <trkpt lat="42.127397982403636" lon="-7.555932998657227">
        <ele>931.64999999999998</ele>
        <time>2025-05-02T10:21:38Z</time>
      </trkpt>
      <trkpt lat="42.127143004909158" lon="-7.55563703365624">
        <ele>929.73000000000002</ele>
        <time>2025-05-02T10:21:40Z</time>
      </trkpt>
      <trkpt lat="42.125740963965654" lon="-7.554060984402895">
        <ele>923</ele>
        <time>2025-05-02T10:21:49Z</time>
      </trkpt>
      <trkpt lat="42.12448401376605" lon="-7.552892966195941">
        <ele>916.26999999999998</ele>
        <time>2025-05-02T10:21:57Z</time>
      </trkpt>
      <trkpt lat="42.123720003291965" lon="-7.552293995395303">
        <ele>907.62</ele>
        <time>2025-05-02T10:22:03Z</time>
      </trkpt>
      <trkpt lat="42.123249024152756" lon="-7.55194497294724">
        <ele>903.29999999999995</ele>
        <time>2025-05-02T10:22:08Z</time>
      </trkpt>
      <trkpt lat="42.12297803722322" lon="-7.55168697796762">
        <ele>901.85000000000002</ele>
        <time>2025-05-02T10:22:11Z</time>
      </trkpt>
      <trkpt lat="42.122692968696356" lon="-7.551352037116885">
        <ele>899.45000000000005</ele>
        <time>2025-05-02T10:22:15Z</time>
      </trkpt>
      <trkpt lat="42.122600013390183" lon="-7.551240976899862">
        <ele>898.49000000000001</ele>
        <time>2025-05-02T10:22:16Z</time>
      </trkpt>
      <trkpt lat="42.122504962608218" lon="-7.551126983016729">
        <ele>898.00999999999999</ele>
        <time>2025-05-02T10:22:17Z</time>
      </trkpt>
      <trkpt lat="42.122391974553466" lon="-7.551066968590021">
        <ele>897.52999999999997</ele>
        <time>2025-05-02T10:22:18Z</time>
      </trkpt>
      <trkpt lat="42.122157029807568" lon="-7.550943000242114">
        <ele>897.04999999999995</ele>
        <time>2025-05-02T10:22:19Z</time>
      </trkpt>
      <trkpt lat="42.12108900770545" lon="-7.550504039973021">
        <ele>894.63999999999999</ele>
        <time>2025-05-02T10:22:28Z</time>
      </trkpt>
      <trkpt lat="42.119568027555943" lon="-7.549828039482236">
        <ele>894.15999999999997</ele>
        <time>2025-05-02T10:22:37Z</time>
      </trkpt>
      <trkpt lat="42.118358016014099" lon="-7.54927801899612">
        <ele>893.67999999999995</ele>
        <time>2025-05-02T10:22:44Z</time>
      </trkpt>
      <trkpt lat="42.118218960240483" lon="-7.549178022891283">
        <ele>893.20000000000005</ele>
        <time>2025-05-02T10:22:45Z</time>
      </trkpt>
      <trkpt lat="42.117526028305292" lon="-7.548088040202856">
        <ele>892.72000000000003</ele>
        <time>2025-05-02T10:22:51Z</time>
      </trkpt>
      <trkpt lat="42.117405999451876" lon="-7.547891987487674">
        <ele>893.20000000000005</ele>
        <time>2025-05-02T10:22:52Z</time>
      </trkpt>
      <trkpt lat="42.116182995960116" lon="-7.545844037085772">
        <ele>897.52999999999997</ele>
        <time>2025-05-02T10:23:02Z</time>
      </trkpt>
      <trkpt lat="42.114896960556507" lon="-7.543591987341642">
        <ele>910.02999999999997</ele>
        <time>2025-05-02T10:23:13Z</time>
      </trkpt>
      <trkpt lat="42.114172009751201" lon="-7.542077964171767">
        <ele>915.30999999999995</ele>
        <time>2025-05-02T10:23:20Z</time>
      </trkpt>
      <trkpt lat="42.114073019474745" lon="-7.541894987225533">
        <ele>915.30999999999995</ele>
        <time>2025-05-02T10:23:21Z</time>
      </trkpt>
      <trkpt lat="42.11395500227809" lon="-7.541750986129046">
        <ele>915.30999999999995</ele>
        <time>2025-05-02T10:23:22Z</time>
      </trkpt>
      <trkpt lat="42.113815024495125" lon="-7.541633974760771">
        <ele>914.83000000000004</ele>
        <time>2025-05-02T10:23:23Z</time>
      </trkpt>
      <trkpt lat="42.113660965114832" lon="-7.541548982262611">
        <ele>914.83000000000004</ele>
        <time>2025-05-02T10:23:24Z</time>
      </trkpt>
      <trkpt lat="42.113501038402319" lon="-7.541501959785819">
        <ele>914.35000000000002</ele>
        <time>2025-05-02T10:23:25Z</time>
      </trkpt>
      <trkpt lat="42.113335998728871" lon="-7.541454015299678">
        <ele>913.87</ele>
        <time>2025-05-02T10:23:26Z</time>
      </trkpt>
      <trkpt lat="42.113172970712185" lon="-7.54139400087297">
        <ele>913.38999999999999</ele>
        <time>2025-05-02T10:23:27Z</time>
      </trkpt>
      <trkpt lat="42.113004997372627" lon="-7.54133096896112">
        <ele>912.42999999999995</ele>
        <time>2025-05-02T10:23:28Z</time>
      </trkpt>
      <trkpt lat="42.112854039296508" lon="-7.541214963421226">
        <ele>911.95000000000005</ele>
        <time>2025-05-02T10:23:29Z</time>
      </trkpt>
      <trkpt lat="42.112701991572976" lon="-7.541085965931416">
        <ele>911.47000000000003</ele>
        <time>2025-05-02T10:23:30Z</time>
      </trkpt>
      <trkpt lat="42.112552039325237" lon="-7.540957974269986">
        <ele>910.50999999999999</ele>
        <time>2025-05-02T10:23:31Z</time>
      </trkpt>
      <trkpt lat="42.112441984936595" lon="-7.54077298566699">
        <ele>910.02999999999997</ele>
        <time>2025-05-02T10:23:32Z</time>
      </trkpt>
      <trkpt lat="42.112330002710223" lon="-7.540580034255981">
        <ele>909.05999999999995</ele>
        <time>2025-05-02T10:23:33Z</time>
      </trkpt>
      <trkpt lat="42.112006964161992" lon="-7.540028002113104">
        <ele>906.17999999999995</ele>
        <time>2025-05-02T10:23:36Z</time>
      </trkpt>
      <trkpt lat="42.111896993592381" lon="-7.539867991581559">
        <ele>905.22000000000003</ele>
        <time>2025-05-02T10:23:37Z</time>
      </trkpt>
      <trkpt lat="42.111774031072855" lon="-7.539743017405272">
        <ele>904.25999999999999</ele>
        <time>2025-05-02T10:23:38Z</time>
      </trkpt>
      <trkpt lat="42.111631035804749" lon="-7.539678979665041">
        <ele>903.29999999999995</ele>
        <time>2025-05-02T10:23:39Z</time>
      </trkpt>
      <trkpt lat="42.111473958939314" lon="-7.539608990773559">
        <ele>902.33000000000004</ele>
        <time>2025-05-02T10:23:40Z</time>
      </trkpt>
      <trkpt lat="42.110080970451236" lon="-7.538982024416328">
        <ele>897.04999999999995</ele>
        <time>2025-05-02T10:23:48Z</time>
      </trkpt>
      <trkpt lat="42.109921965748072" lon="-7.538879010826349">
        <ele>896.57000000000005</ele>
        <time>2025-05-02T10:23:49Z</time>
      </trkpt>
      <trkpt lat="42.109768996015191" lon="-7.538777003064752">
        <ele>895.61000000000001</ele>
        <time>2025-05-02T10:23:50Z</time>
      </trkpt>
      <trkpt lat="42.108143996447325" lon="-7.537031974643469">
        <ele>890.32000000000005</ele>
        <time>2025-05-02T10:24:01Z</time>
      </trkpt>
      <trkpt lat="42.107757003977895" lon="-7.536606006324291">
        <ele>888.88</ele>
        <time>2025-05-02T10:24:04Z</time>
      </trkpt>
      <trkpt lat="42.107656002044678" lon="-7.536492012441158">
        <ele>888.88</ele>
        <time>2025-05-02T10:24:05Z</time>
      </trkpt>
      <trkpt lat="42.107607973739505" lon="-7.536347005516291">
        <ele>888.39999999999998</ele>
        <time>2025-05-02T10:24:06Z</time>
      </trkpt>
      <trkpt lat="42.107571009546518" lon="-7.536235023289919">
        <ele>887.90999999999997</ele>
        <time>2025-05-02T10:24:07Z</time>
      </trkpt>
      <trkpt lat="42.107613002881408" lon="-7.53610703162849">
        <ele>886.95000000000005</ele>
        <time>2025-05-02T10:24:08Z</time>
      </trkpt>
      <trkpt lat="42.107656002044678" lon="-7.535977028310299">
        <ele>886.47000000000003</ele>
        <time>2025-05-02T10:24:09Z</time>
      </trkpt>
      <trkpt lat="42.107737977057695" lon="-7.53589597530663">
        <ele>885.99000000000001</ele>
        <time>2025-05-02T10:24:10Z</time>
      </trkpt>
      <trkpt lat="42.107845013961196" lon="-7.535819029435515">
        <ele>885.50999999999999</ele>
        <time>2025-05-02T10:24:11Z</time>
      </trkpt>
      <trkpt lat="42.108279028907418" lon="-7.535602021962404">
        <ele>884.54999999999995</ele>
        <time>2025-05-02T10:24:14Z</time>
      </trkpt>
      <trkpt lat="42.108444990590215" lon="-7.535481993108988">
        <ele>884.07000000000005</ele>
        <time>2025-05-02T10:24:15Z</time>
      </trkpt>
      <trkpt lat="42.108764005824924" lon="-7.53520698286593">
        <ele>884.07000000000005</ele>
        <time>2025-05-02T10:24:17Z</time>
      </trkpt>
      <trkpt lat="42.108916975557804" lon="-7.535074967890978">
        <ele>883.59000000000003</ele>
        <time>2025-05-02T10:24:18Z</time>
      </trkpt>
      <trkpt lat="42.109085032716393" lon="-7.535001961514354">
        <ele>883.59000000000003</ele>
        <time>2025-05-02T10:24:19Z</time>
      </trkpt>
      <trkpt lat="42.109263986349106" lon="-7.534956028684974">
        <ele>883.59000000000003</ele>
        <time>2025-05-02T10:24:20Z</time>
      </trkpt>
      <trkpt lat="42.109436988830566" lon="-7.534912023693323">
        <ele>883.59000000000003</ele>
        <time>2025-05-02T10:24:21Z</time>
      </trkpt>
      <trkpt lat="42.109898999333382" lon="-7.53479802981019">
        <ele>883.11000000000001</ele>
        <time>2025-05-02T10:24:24Z</time>
      </trkpt>
      <trkpt lat="42.110022967681289" lon="-7.534768022596836">
        <ele>882.63</ele>
        <time>2025-05-02T10:24:25Z</time>
      </trkpt>
      <trkpt lat="42.11013101041317" lon="-7.534687975421548">
        <ele>882.14999999999998</ele>
        <time>2025-05-02T10:24:26Z</time>
      </trkpt>
      <trkpt lat="42.110195970162749" lon="-7.534601977095008">
        <ele>881.66999999999996</ele>
        <time>2025-05-02T10:24:27Z</time>
      </trkpt>
      <trkpt lat="42.110187001526356" lon="-7.534468034282327">
        <ele>881.19000000000005</ele>
        <time>2025-05-02T10:24:28Z</time>
      </trkpt>
      <trkpt lat="42.110163029283285" lon="-7.53434699960053">
        <ele>880.71000000000004</ele>
        <time>2025-05-02T10:24:29Z</time>
      </trkpt>
      <trkpt lat="42.110120030120015" lon="-7.534223031252623">
        <ele>879.74000000000001</ele>
        <time>2025-05-02T10:24:30Z</time>
      </trkpt>
      <trkpt lat="42.110033025965095" lon="-7.534095961600542">
        <ele>878.77999999999997</ele>
        <time>2025-05-02T10:24:31Z</time>
      </trkpt>
      <trkpt lat="42.109716022387147" lon="-7.533630011603236">
        <ele>875.41999999999996</ele>
        <time>2025-05-02T10:24:34Z</time>
      </trkpt>
      <trkpt lat="42.109490968286991" lon="-7.533300016075373">
        <ele>872.52999999999997</ele>
        <time>2025-05-02T10:24:36Z</time>
      </trkpt>
      <trkpt lat="42.10935702547431" lon="-7.53318996168673">
        <ele>870.61000000000001</ele>
        <time>2025-05-02T10:24:37Z</time>
      </trkpt>
      <trkpt lat="42.109215036034584" lon="-7.533103041350842">
        <ele>869.16999999999996</ele>
        <time>2025-05-02T10:24:38Z</time>
      </trkpt>
      <trkpt lat="42.109082015231252" lon="-7.533019976690412">
        <ele>867.73000000000002</ele>
        <time>2025-05-02T10:24:39Z</time>
      </trkpt>
      <trkpt lat="42.108955029398203" lon="-7.532942024990916">
        <ele>866.28999999999996</ele>
        <time>2025-05-02T10:24:40Z</time>
      </trkpt>
      <trkpt lat="42.108862996101379" lon="-7.532829036936164">
        <ele>864.84000000000003</ele>
        <time>2025-05-02T10:24:41Z</time>
      </trkpt>
      <trkpt lat="42.108644982799888" lon="-7.532365014776588">
        <ele>860.51999999999998</ele>
        <time>2025-05-02T10:24:44Z</time>
      </trkpt>
      <trkpt lat="42.108566025272012" lon="-7.532197963446379">
        <ele>859.08000000000004</ele>
        <time>2025-05-02T10:24:45Z</time>
      </trkpt>
      <trkpt lat="42.108444990590215" lon="-7.532079024240375">
        <ele>857.63</ele>
        <time>2025-05-02T10:24:46Z</time>
      </trkpt>
      <trkpt lat="42.108313981443644" lon="-7.5319620128721">
        <ele>855.71000000000004</ele>
        <time>2025-05-02T10:24:47Z</time>
      </trkpt>
      <trkpt lat="42.108189007267356" lon="-7.531850030645728">
        <ele>854.26999999999998</ele>
        <time>2025-05-02T10:24:48Z</time>
      </trkpt>
      <trkpt lat="42.108040982857347" lon="-7.531791022047401">
        <ele>852.83000000000004</ele>
        <time>2025-05-02T10:24:49Z</time>
      </trkpt>
      <trkpt lat="42.107878038659692" lon="-7.531755985692143">
        <ele>851.38</ele>
        <time>2025-05-02T10:24:50Z</time>
      </trkpt>
      <trkpt lat="42.107718028128147" lon="-7.531721033155918">
        <ele>849.46000000000004</ele>
        <time>2025-05-02T10:24:51Z</time>
      </trkpt>
      <trkpt lat="42.107562040910125" lon="-7.531742993742228">
        <ele>848.01999999999998</ele>
        <time>2025-05-02T10:24:52Z</time>
      </trkpt>
      <trkpt lat="42.107428014278412" lon="-7.531813988462091">
        <ele>846.58000000000004</ele>
        <time>2025-05-02T10:24:53Z</time>
      </trkpt>
      <trkpt lat="42.107301028445363" lon="-7.531909961253405">
        <ele>845.13999999999999</ele>
        <time>2025-05-02T10:24:54Z</time>
      </trkpt>
      <trkpt lat="42.106697028502822" lon="-7.532165022566915">
        <ele>839.37</ele>
        <time>2025-05-02T10:24:58Z</time>
      </trkpt>
      <trkpt lat="42.106555961072445" lon="-7.532191006466746">
        <ele>838.40999999999997</ele>
        <time>2025-05-02T10:24:59Z</time>
      </trkpt>
      <trkpt lat="42.106427969411016" lon="-7.532184971496463">
        <ele>837.45000000000005</ele>
        <time>2025-05-02T10:25:00Z</time>
      </trkpt>
      <trkpt lat="42.10630601271987" lon="-7.532143983989954">
        <ele>836.48000000000002</ele>
        <time>2025-05-02T10:25:01Z</time>
      </trkpt>
      <trkpt lat="42.10620098747313" lon="-7.532038958743215">
        <ele>835.51999999999998</ele>
        <time>2025-05-02T10:25:02Z</time>
      </trkpt>
      <trkpt lat="42.105741994455457" lon="-7.531490027904511">
        <ele>831.20000000000005</ele>
        <time>2025-05-02T10:25:06Z</time>
      </trkpt>
      <trkpt lat="42.10561802610755" lon="-7.531343009322882">
        <ele>829.75999999999999</ele>
        <time>2025-05-02T10:25:07Z</time>
      </trkpt>
      <trkpt lat="42.10542700253427" lon="-7.53101896494627">
        <ele>828.78999999999996</ele>
        <time>2025-05-02T10:25:08Z</time>
      </trkpt>
      <trkpt lat="42.105235978960991" lon="-7.530693998560309">
        <ele>824.47000000000003</ele>
        <time>2025-05-02T10:25:11Z</time>
      </trkpt>
      <trkpt lat="42.105128020048141" lon="-7.530559971928597">
        <ele>823.50999999999999</ele>
        <time>2025-05-02T10:25:12Z</time>
      </trkpt>
      <trkpt lat="42.104988964274526" lon="-7.530448995530605">
        <ele>821.58000000000004</ele>
        <time>2025-05-02T10:25:13Z</time>
      </trkpt>
      <trkpt lat="42.104829959571362" lon="-7.530369032174349">
        <ele>820.13999999999999</ele>
        <time>2025-05-02T10:25:14Z</time>
      </trkpt>
      <trkpt lat="42.104677995666862" lon="-7.530293008312583">
        <ele>818.70000000000005</ele>
        <time>2025-05-02T10:25:15Z</time>
      </trkpt>
      <trkpt lat="42.104541035369039" lon="-7.530225031077862">
        <ele>817.25999999999999</ele>
        <time>2025-05-02T10:25:16Z</time>
      </trkpt>
      <trkpt lat="42.104413965716958" lon="-7.530134003609419">
        <ele>816.29999999999995</ele>
        <time>2025-05-02T10:25:17Z</time>
      </trkpt>
      <trkpt lat="42.104297038167715" lon="-7.53000601194799">
        <ele>814.85000000000002</ele>
        <time>2025-05-02T10:25:18Z</time>
      </trkpt>
      <trkpt lat="42.104170974344015" lon="-7.529867962002754">
        <ele>813.40999999999997</ele>
        <time>2025-05-02T10:25:19Z</time>
      </trkpt>
      <trkpt lat="42.104039965197444" lon="-7.529723960906267">
        <ele>811.97000000000003</ele>
        <time>2025-05-02T10:25:20Z</time>
      </trkpt>
      <trkpt lat="42.103886995464563" lon="-7.529637040570378">
        <ele>810.04999999999995</ele>
        <time>2025-05-02T10:25:21Z</time>
      </trkpt>
      <trkpt lat="42.103731008246541" lon="-7.529567973688245">
        <ele>809.09000000000003</ele>
        <time>2025-05-02T10:25:22Z</time>
      </trkpt>
      <trkpt lat="42.10357803851366" lon="-7.529501002281904">
        <ele>807.63999999999999</ele>
        <time>2025-05-02T10:25:23Z</time>
      </trkpt>
      <trkpt lat="42.103434959426522" lon="-7.529406035318971">
        <ele>806.20000000000005</ele>
        <time>2025-05-02T10:25:24Z</time>
      </trkpt>
      <trkpt lat="42.103319959715009" lon="-7.529258010908961">
        <ele>804.75999999999999</ele>
        <time>2025-05-02T10:25:25Z</time>
      </trkpt>
      <trkpt lat="42.102951994165778" lon="-7.528786025941372">
        <ele>800.44000000000005</ele>
        <time>2025-05-02T10:25:28Z</time>
      </trkpt>
      <trkpt lat="42.102673966437578" lon="-7.528497017920017">
        <ele>798.02999999999997</ele>
        <time>2025-05-02T10:25:30Z</time>
      </trkpt>
      <trkpt lat="42.102537006139755" lon="-7.528369026258588">
        <ele>797.07000000000005</ele>
        <time>2025-05-02T10:25:31Z</time>
      </trkpt>
      <trkpt lat="42.102413037791848" lon="-7.528253020718694">
        <ele>795.14999999999998</ele>
        <time>2025-05-02T10:25:32Z</time>
      </trkpt>
      <trkpt lat="42.102302983403206" lon="-7.528150007128716">
        <ele>793.71000000000004</ele>
        <time>2025-05-02T10:25:33Z</time>
      </trkpt>
      <trkpt lat="42.102187983691692" lon="-7.528059985488653">
        <ele>792.25999999999999</ele>
        <time>2025-05-02T10:25:34Z</time>
      </trkpt>
      <trkpt lat="42.102078013122082" lon="-7.528059985488653">
        <ele>790.82000000000005</ele>
        <time>2025-05-02T10:25:35Z</time>
      </trkpt>
      <trkpt lat="42.10196896456182" lon="-7.528100972995162">
        <ele>788.89999999999998</ele>
        <time>2025-05-02T10:25:36Z</time>
      </trkpt>
      <trkpt lat="42.101862011477351" lon="-7.528167022392154">
        <ele>787.46000000000004</ele>
        <time>2025-05-02T10:25:37Z</time>
      </trkpt>
      <trkpt lat="42.101742988452315" lon="-7.528242040425539">
        <ele>786.01999999999998</ele>
        <time>2025-05-02T10:25:38Z</time>
      </trkpt>
      <trkpt lat="42.101611979305744" lon="-7.528324015438557">
        <ele>784.09000000000003</ele>
        <time>2025-05-02T10:25:39Z</time>
      </trkpt>
      <trkpt lat="42.101477030664682" lon="-7.528408002108336">
        <ele>782.64999999999998</ele>
        <time>2025-05-02T10:25:40Z</time>
      </trkpt>
      <trkpt lat="42.101348033174872" lon="-7.528488971292973">
        <ele>781.69000000000005</ele>
        <time>2025-05-02T10:25:41Z</time>
      </trkpt>
      <trkpt lat="42.100990964099765" lon="-7.52893497236073">
        <ele>777.36000000000001</ele>
        <time>2025-05-02T10:25:44Z</time>
      </trkpt>
      <trkpt lat="42.100514033809304" lon="-7.529422966763377">
        <ele>771.60000000000002</ele>
        <time>2025-05-02T10:25:48Z</time>
      </trkpt>
      <trkpt lat="42.100410014390945" lon="-7.529519023373723">
        <ele>770.63</ele>
        <time>2025-05-02T10:25:49Z</time>
      </trkpt>
      <trkpt lat="42.10031102411449" lon="-7.529588006436825">
        <ele>769.66999999999996</ele>
        <time>2025-05-02T10:25:50Z</time>
      </trkpt>
      <trkpt lat="42.100203987210989" lon="-7.529602004215121">
        <ele>769.19000000000005</ele>
        <time>2025-05-02T10:25:51Z</time>
      </trkpt>
      <trkpt lat="42.100107008591294" lon="-7.529560010880232">
        <ele>768.71000000000004</ele>
        <time>2025-05-02T10:25:52Z</time>
      </trkpt>
      <trkpt lat="42.100023021921515" lon="-7.529450040310621">
        <ele>768.23000000000002</ele>
        <time>2025-05-02T10:25:53Z</time>
      </trkpt>
      <trkpt lat="42.09996803663671" lon="-7.529315007850528">
        <ele>768.23000000000002</ele>
        <time>2025-05-02T10:25:54Z</time>
      </trkpt>
      <trkpt lat="42.099853036925197" lon="-7.528964979574084">
        <ele>766.78999999999996</ele>
        <time>2025-05-02T10:25:56Z</time>
      </trkpt>
      <trkpt lat="42.099477024748921" lon="-7.527673998847604">
        <ele>762.94000000000005</ele>
        <time>2025-05-02T10:26:02Z</time>
      </trkpt>
      <trkpt lat="42.099406030029058" lon="-7.527459003031254">
        <ele>761.98000000000002</ele>
        <time>2025-05-02T10:26:03Z</time>
      </trkpt>
      <trkpt lat="42.099307961761951" lon="-7.527264039963484">
        <ele>761.01999999999998</ele>
        <time>2025-05-02T10:26:04Z</time>
      </trkpt>
      <trkpt lat="42.099211988970637" lon="-7.527071004733443">
        <ele>760.05999999999995</ele>
        <time>2025-05-02T10:26:05Z</time>
      </trkpt>
      <trkpt lat="42.099137976765633" lon="-7.526921974495053">
        <ele>759.58000000000004</ele>
        <time>2025-05-02T10:26:06Z</time>
      </trkpt>
      <trkpt lat="42.098976960405707" lon="-7.526736985892057">
        <ele>759.10000000000002</ele>
        <time>2025-05-02T10:26:07Z</time>
      </trkpt>
      <trkpt lat="42.098845029249787" lon="-7.526585021987557">
        <ele>758.62</ele>
        <time>2025-05-02T10:26:08Z</time>
      </trkpt>
      <trkpt lat="42.098726006224751" lon="-7.526447977870703">
        <ele>758.13999999999999</ele>
        <time>2025-05-02T10:26:09Z</time>
      </trkpt>
      <trkpt lat="42.09861796349287" lon="-7.526323003694415">
        <ele>757.17999999999995</ele>
        <time>2025-05-02T10:26:10Z</time>
      </trkpt>
      <trkpt lat="42.098546968773007" lon="-7.526158969849348">
        <ele>756.69000000000005</ele>
        <time>2025-05-02T10:26:11Z</time>
      </trkpt>
      <trkpt lat="42.09844596683979" lon="-7.525785975158215">
        <ele>756.21000000000004</ele>
        <time>2025-05-02T10:26:12Z</time>
      </trkpt>
      <trkpt lat="42.09844596683979" lon="-7.525785975158215">
        <ele>755.25</ele>
        <time>2025-05-02T10:26:13Z</time>
      </trkpt>
      <trkpt lat="42.098392993211746" lon="-7.525594029575586">
        <ele>754.76999999999998</ele>
        <time>2025-05-02T10:26:14Z</time>
      </trkpt>
      <trkpt lat="42.098340019583702" lon="-7.525396971032023">
        <ele>753.80999999999995</ele>
        <time>2025-05-02T10:26:15Z</time>
      </trkpt>
      <trkpt lat="42.098262989893556" lon="-7.525221034884453">
        <ele>753.33000000000004</ele>
        <time>2025-05-02T10:26:16Z</time>
      </trkpt>
      <trkpt lat="42.098166011273861" lon="-7.525037974119186">
        <ele>752.85000000000002</ele>
        <time>2025-05-02T10:26:17Z</time>
      </trkpt>
      <trkpt lat="42.098053023219109" lon="-7.524877963587642">
        <ele>751.88999999999999</ele>
        <time>2025-05-02T10:26:18Z</time>
      </trkpt>
      <trkpt lat="42.097914973273873" lon="-7.524755001068115">
        <ele>751.40999999999997</ele>
        <time>2025-05-02T10:26:19Z</time>
      </trkpt>
      <trkpt lat="42.09775697439909" lon="-7.524675959721208">
        <ele>750.45000000000005</ele>
        <time>2025-05-02T10:26:20Z</time>
      </trkpt>
      <trkpt lat="42.097593024373055" lon="-7.524602031335235">
        <ele>749.49000000000001</ele>
        <time>2025-05-02T10:26:21Z</time>
      </trkpt>
      <trkpt lat="42.096905959770083" lon="-7.524498011916876">
        <ele>745.63999999999999</ele>
        <time>2025-05-02T10:26:25Z</time>
      </trkpt>
      <trkpt lat="42.096756007522345" lon="-7.524403966963291">
        <ele>744.20000000000005</ele>
        <time>2025-05-02T10:26:26Z</time>
      </trkpt>
      <trkpt lat="42.096634972840548" lon="-7.524278992787004">
        <ele>743.24000000000001</ele>
        <time>2025-05-02T10:26:27Z</time>
      </trkpt>
      <trkpt lat="42.096514021977782" lon="-7.524143038317561">
        <ele>742.27999999999997</ele>
        <time>2025-05-02T10:26:28Z</time>
      </trkpt>
      <trkpt lat="42.096390975639224" lon="-7.524003982543945">
        <ele>741.30999999999995</ele>
        <time>2025-05-02T10:26:29Z</time>
      </trkpt>
      <trkpt lat="42.09625200368464" lon="-7.523937011137605">
        <ele>740.35000000000002</ele>
        <time>2025-05-02T10:26:30Z</time>
      </trkpt>
      <trkpt lat="42.096113031730056" lon="-7.523870039731264">
        <ele>738.90999999999997</ele>
        <time>2025-05-02T10:26:31Z</time>
      </trkpt>
      <trkpt lat="42.095974981784821" lon="-7.523802984505892">
        <ele>737.95000000000005</ele>
        <time>2025-05-02T10:26:32Z</time>
      </trkpt>
      <trkpt lat="42.095840033143759" lon="-7.523738024756312">
        <ele>736.99000000000001</ele>
        <time>2025-05-02T10:26:33Z</time>
      </trkpt>
      <trkpt lat="42.095730984583497" lon="-7.523651020601392">
        <ele>736.02999999999997</ele>
        <time>2025-05-02T10:26:34Z</time>
      </trkpt>
      <trkpt lat="42.095662001520395" lon="-7.523553036153317">
        <ele>735.07000000000005</ele>
        <time>2025-05-02T10:26:35Z</time>
      </trkpt>
      <trkpt lat="42.095613973215222" lon="-7.523405011743307">
        <ele>734.10000000000002</ele>
        <time>2025-05-02T10:26:36Z</time>
      </trkpt>
      <trkpt lat="42.095574997365475" lon="-7.523281965404749">
        <ele>733.13999999999999</ele>
        <time>2025-05-02T10:26:37Z</time>
      </trkpt>
      <trkpt lat="42.095475001260638" lon="-7.522973008453846">
        <ele>730.25999999999999</ele>
        <time>2025-05-02T10:26:40Z</time>
      </trkpt>
      <trkpt lat="42.095410041511059" lon="-7.522780979052186">
        <ele>725.92999999999995</ele>
        <time>2025-05-02T10:26:46Z</time>
      </trkpt>
      <trkpt lat="42.095410041511059" lon="-7.522780979052186">
        <ele>723.52999999999997</ele>
        <time>2025-05-02T10:26:55Z</time>
      </trkpt>
      <trkpt lat="42.09541498683393" lon="-7.522794976830483">
        <ele>723.04999999999995</ele>
        <time>2025-05-02T10:27:11Z</time>
      </trkpt>
      <trkpt lat="42.09541498683393" lon="-7.522734040394425">
        <ele>726.40999999999997</ele>
        <time>2025-05-02T10:41:12Z</time>
      </trkpt>
      <trkpt lat="42.095358995720744" lon="-7.5227440148592">
        <ele>729.29999999999995</ele>
        <time>2025-05-02T10:41:20Z</time>
      </trkpt>
      <trkpt lat="42.095331000164151" lon="-7.522710990160704">
        <ele>729.77999999999997</ele>
        <time>2025-05-02T10:41:21Z</time>
      </trkpt>
      <trkpt lat="42.095289006829262" lon="-7.522662039846182">
        <ele>729.77999999999997</ele>
        <time>2025-05-02T10:41:22Z</time>
      </trkpt>
      <trkpt lat="42.095313984900713" lon="-7.522506974637508">
        <ele>729.77999999999997</ele>
        <time>2025-05-02T10:41:23Z</time>
      </trkpt>
      <trkpt lat="42.095279032364488" lon="-7.522407984361053">
        <ele>729.29999999999995</ele>
        <time>2025-05-02T10:41:24Z</time>
      </trkpt>
      <trkpt lat="42.095102006569505" lon="-7.521995007991791">
        <ele>728.34000000000003</ele>
        <time>2025-05-02T10:41:28Z</time>
      </trkpt>
      <trkpt lat="42.095036963000894" lon="-7.521900041028857">
        <ele>727.37</ele>
        <time>2025-05-02T10:41:29Z</time>
      </trkpt>
      <trkpt lat="42.094959011301398" lon="-7.521834997460246">
        <ele>725.92999999999995</ele>
        <time>2025-05-02T10:41:30Z</time>
      </trkpt>
      <trkpt lat="42.094847029075027" lon="-7.521818988025188">
        <ele>724.49000000000001</ele>
        <time>2025-05-02T10:41:31Z</time>
      </trkpt>
      <trkpt lat="42.094759019091725" lon="-7.521855030208826">
        <ele>723.04999999999995</ele>
        <time>2025-05-02T10:41:32Z</time>
      </trkpt>
      <trkpt lat="42.09466296248138" lon="-7.521909009665251">
        <ele>722.09000000000003</ele>
        <time>2025-05-02T10:41:33Z</time>
      </trkpt>
      <trkpt lat="42.09457796998322" lon="-7.521986039355397">
        <ele>720.64999999999998</ele>
        <time>2025-05-02T10:41:34Z</time>
      </trkpt>
      <trkpt lat="42.0944909658283" lon="-7.522064996883273">
        <ele>719.20000000000005</ele>
        <time>2025-05-02T10:41:35Z</time>
      </trkpt>
      <trkpt lat="42.094389963895082" lon="-7.522113025188446">
        <ele>717.75999999999999</ele>
        <time>2025-05-02T10:41:36Z</time>
      </trkpt>
      <trkpt lat="42.094277981668711" lon="-7.522159041836858">
        <ele>716.79999999999995</ele>
        <time>2025-05-02T10:41:37Z</time>
      </trkpt>
      <trkpt lat="42.094143033027649" lon="-7.522159041836858">
        <ele>715.84000000000003</ele>
        <time>2025-05-02T10:41:38Z</time>
      </trkpt>
      <trkpt lat="42.094001965597272" lon="-7.522134985774756">
        <ele>714.88</ele>
        <time>2025-05-02T10:41:39Z</time>
      </trkpt>
      <trkpt lat="42.093855030834675" lon="-7.52209902741015">
        <ele>713.91999999999996</ele>
        <time>2025-05-02T10:41:40Z</time>
      </trkpt>
      <trkpt lat="42.093711029738188" lon="-7.522062985226512">
        <ele>712.95000000000005</ele>
        <time>2025-05-02T10:41:41Z</time>
      </trkpt>
      <trkpt lat="42.093574991449714" lon="-7.522029038518667">
        <ele>711.99000000000001</ele>
        <time>2025-05-02T10:41:42Z</time>
      </trkpt>
      <trkpt lat="42.093451023101807" lon="-7.522018980234861">
        <ele>711.02999999999997</ele>
        <time>2025-05-02T10:41:43Z</time>
      </trkpt>
      <trkpt lat="42.093328982591629" lon="-7.522047981619835">
        <ele>710.07000000000005</ele>
        <time>2025-05-02T10:41:44Z</time>
      </trkpt>
      <trkpt lat="42.093089008703828" lon="-7.522104978561401">
        <ele>708.63</ele>
        <time>2025-05-02T10:41:46Z</time>
      </trkpt>
      <trkpt lat="42.092997981235385" lon="-7.52208000048995">
        <ele>707.66999999999996</ele>
        <time>2025-05-02T10:41:47Z</time>
      </trkpt>
      <trkpt lat="42.092936960980296" lon="-7.522029960528016">
        <ele>706.71000000000004</ele>
        <time>2025-05-02T10:41:48Z</time>
      </trkpt>
      <trkpt lat="42.092909971252084" lon="-7.521901968866587">
        <ele>706.23000000000002</ele>
        <time>2025-05-02T10:41:49Z</time>
      </trkpt>
      <trkpt lat="42.092882981523871" lon="-7.521776994690299">
        <ele>705.75</ele>
        <time>2025-05-02T10:41:50Z</time>
      </trkpt>
      <trkpt lat="42.092855991795659" lon="-7.521645985543728">
        <ele>704.77999999999997</ele>
        <time>2025-05-02T10:41:51Z</time>
      </trkpt>
      <trkpt lat="42.09279203787446" lon="-7.521527968347073">
        <ele>703.82000000000005</ele>
        <time>2025-05-02T10:41:52Z</time>
      </trkpt>
      <trkpt lat="42.092704027891159" lon="-7.52143400721252">
        <ele>702.86000000000001</ele>
        <time>2025-05-02T10:41:53Z</time>
      </trkpt>
      <trkpt lat="42.092592967674136" lon="-7.521385978907347">
        <ele>701.41999999999996</ele>
        <time>2025-05-02T10:41:54Z</time>
      </trkpt>
      <trkpt lat="42.092464976012707" lon="-7.521385978907347">
        <ele>700.46000000000004</ele>
        <time>2025-05-02T10:41:55Z</time>
      </trkpt>
      <trkpt lat="42.092344025149941" lon="-7.521385978907347">
        <ele>699.01999999999998</ele>
        <time>2025-05-02T10:41:56Z</time>
      </trkpt>
      <trkpt lat="42.092229025438428" lon="-7.521377010270953">
        <ele>698.04999999999995</ele>
        <time>2025-05-02T10:41:57Z</time>
      </trkpt>
      <trkpt lat="42.092124000191689" lon="-7.521340968087316">
        <ele>697.09000000000003</ele>
        <time>2025-05-02T10:41:58Z</time>
      </trkpt>
      <trkpt lat="42.092057028785348" lon="-7.521256981417537">
        <ele>696.13</ele>
        <time>2025-05-02T10:41:59Z</time>
      </trkpt>
      <trkpt lat="42.092015035450459" lon="-7.521109962835908">
        <ele>695.16999999999996</ele>
        <time>2025-05-02T10:42:00Z</time>
      </trkpt>
      <trkpt lat="42.091974969953299" lon="-7.520965961739421">
        <ele>694.21000000000004</ele>
        <time>2025-05-02T10:42:01Z</time>
      </trkpt>
      <trkpt lat="42.09193398244679" lon="-7.520820032805204">
        <ele>693.25</ele>
        <time>2025-05-02T10:42:02Z</time>
      </trkpt>
      <trkpt lat="42.091878997161984" lon="-7.520693968981504">
        <ele>692.28999999999996</ele>
        <time>2025-05-02T10:42:03Z</time>
      </trkpt>
      <trkpt lat="42.091788975521922" lon="-7.520604031160474">
        <ele>690.84000000000003</ele>
        <time>2025-05-02T10:42:04Z</time>
      </trkpt>
      <trkpt lat="42.091587977483869" lon="-7.52040303312242">
        <ele>688.91999999999996</ele>
        <time>2025-05-02T10:42:06Z</time>
      </trkpt>
      <trkpt lat="42.091498961672187" lon="-7.520259032025933">
        <ele>687.96000000000004</ele>
        <time>2025-05-02T10:42:07Z</time>
      </trkpt>
      <trkpt lat="42.09128899499774" lon="-7.519777994602919">
        <ele>685.08000000000004</ele>
        <time>2025-05-02T10:42:10Z</time>
      </trkpt>
      <trkpt lat="42.09122403524816" lon="-7.519658971577883">
        <ele>684.12</ele>
        <time>2025-05-02T10:42:11Z</time>
      </trkpt>
      <trkpt lat="42.091132001951337" lon="-7.519604992121458">
        <ele>682.66999999999996</ele>
        <time>2025-05-02T10:42:12Z</time>
      </trkpt>
      <trkpt lat="42.091027982532978" lon="-7.519612032920122">
        <ele>681.71000000000004</ele>
        <time>2025-05-02T10:42:13Z</time>
      </trkpt>
      <trkpt lat="42.090917006134987" lon="-7.519618989899755">
        <ele>680.26999999999998</ele>
        <time>2025-05-02T10:42:14Z</time>
      </trkpt>
      <trkpt lat="42.090808963403106" lon="-7.519625024870038">
        <ele>679.30999999999995</ele>
        <time>2025-05-02T10:42:15Z</time>
      </trkpt>
      <trkpt lat="42.090717013925314" lon="-7.519553024321795">
        <ele>678.35000000000002</ele>
        <time>2025-05-02T10:42:16Z</time>
      </trkpt>
      <trkpt lat="42.09064400754869" lon="-7.519446993246675">
        <ele>677.38999999999999</ele>
        <time>2025-05-02T10:42:17Z</time>
      </trkpt>
      <trkpt lat="42.090487014502287" lon="-7.519224034622312">
        <ele>675.46000000000004</ele>
        <time>2025-05-02T10:42:19Z</time>
      </trkpt>
      <trkpt lat="42.090382995083928" lon="-7.519154967740178">
        <ele>674.01999999999998</ele>
        <time>2025-05-02T10:42:20Z</time>
      </trkpt>
      <trkpt lat="42.090246034786105" lon="-7.519154967740178">
        <ele>673.05999999999995</ele>
        <time>2025-05-02T10:42:21Z</time>
      </trkpt>
      <trkpt lat="42.090104967355728" lon="-7.519154967740178">
        <ele>672.10000000000002</ele>
        <time>2025-05-02T10:42:22Z</time>
      </trkpt>
      <trkpt lat="42.089959960430861" lon="-7.519154967740178">
        <ele>671.13999999999999</ele>
        <time>2025-05-02T10:42:23Z</time>
      </trkpt>
      <trkpt lat="42.089835992082953" lon="-7.519126972183585">
        <ele>670.65999999999997</ele>
        <time>2025-05-02T10:42:24Z</time>
      </trkpt>
      <trkpt lat="42.089731972664595" lon="-7.519090007990599">
        <ele>669.70000000000005</ele>
        <time>2025-05-02T10:42:25Z</time>
      </trkpt>
      <trkpt lat="42.089668018743396" lon="-7.519023036584258">
        <ele>669.22000000000003</ele>
        <time>2025-05-02T10:42:26Z</time>
      </trkpt>
      <trkpt lat="42.089648991823196" lon="-7.518898984417319">
        <ele>668.25</ele>
        <time>2025-05-02T10:42:27Z</time>
      </trkpt>
      <trkpt lat="42.089638011530042" lon="-7.518777027726173">
        <ele>667.76999999999998</ele>
        <time>2025-05-02T10:42:28Z</time>
      </trkpt>
      <trkpt lat="42.089696014299989" lon="-7.518655993044376">
        <ele>666.80999999999995</ele>
        <time>2025-05-02T10:42:29Z</time>
      </trkpt>
      <trkpt lat="42.089758962392807" lon="-7.518523978069425">
        <ele>665.85000000000002</ele>
        <time>2025-05-02T10:42:30Z</time>
      </trkpt>
      <trkpt lat="42.089825011789799" lon="-7.518387017771602">
        <ele>664.88999999999999</ele>
        <time>2025-05-02T10:42:31Z</time>
      </trkpt>
      <trkpt lat="42.089889971539378" lon="-7.518252991139889">
        <ele>663.92999999999995</ele>
        <time>2025-05-02T10:42:32Z</time>
      </trkpt>
      <trkpt lat="42.089903969317675" lon="-7.518097003921866">
        <ele>662.97000000000003</ele>
        <time>2025-05-02T10:42:33Z</time>
      </trkpt>
      <trkpt lat="42.089888965710998" lon="-7.517968006432056">
        <ele>662.00999999999999</ele>
        <time>2025-05-02T10:42:34Z</time>
      </trkpt>
      <trkpt lat="42.089844960719347" lon="-7.517870021983981">
        <ele>660.55999999999995</ele>
        <time>2025-05-02T10:42:35Z</time>
      </trkpt>
      <trkpt lat="42.089762985706329" lon="-7.517833979800344">
        <ele>659.60000000000002</ele>
        <time>2025-05-02T10:42:36Z</time>
      </trkpt>
      <trkpt lat="42.089671958237886" lon="-7.517849989235401">
        <ele>658.15999999999997</ele>
        <time>2025-05-02T10:42:37Z</time>
      </trkpt>
      <trkpt lat="42.08956902846694" lon="-7.517867004498839">
        <ele>657.20000000000005</ele>
        <time>2025-05-02T10:42:38Z</time>
      </trkpt>
      <trkpt lat="42.089470038190484" lon="-7.517883013933897">
        <ele>655.75999999999999</ele>
        <time>2025-05-02T10:42:39Z</time>
      </trkpt>
      <trkpt lat="42.08939703181386" lon="-7.517845965921879">
        <ele>654.79999999999995</ele>
        <time>2025-05-02T10:42:40Z</time>
      </trkpt>
      <trkpt lat="42.089310027658939" lon="-7.517759967595339">
        <ele>653.83000000000004</ele>
        <time>2025-05-02T10:42:41Z</time>
      </trkpt>
      <trkpt lat="42.089292006567121" lon="-7.517651002854109">
        <ele>652.87</ele>
        <time>2025-05-02T10:42:42Z</time>
      </trkpt>
      <trkpt lat="42.089294018223882" lon="-7.517507001757622">
        <ele>651.42999999999995</ele>
        <time>2025-05-02T10:42:43Z</time>
      </trkpt>
      <trkpt lat="42.089300975203514" lon="-7.517343973740935">
        <ele>650.47000000000003</ele>
        <time>2025-05-02T10:42:44Z</time>
      </trkpt>
      <trkpt lat="42.089308016002178" lon="-7.517181029543281">
        <ele>649.50999999999999</ele>
        <time>2025-05-02T10:42:45Z</time>
      </trkpt>
      <trkpt lat="42.089266022667289" lon="-7.51702998764813">
        <ele>649.02999999999997</ele>
        <time>2025-05-02T10:42:46Z</time>
      </trkpt>
      <trkpt lat="42.089206008240581" lon="-7.51688196323812">
        <ele>647.59000000000003</ele>
        <time>2025-05-02T10:42:47Z</time>
      </trkpt>
      <trkpt lat="42.089143982157111" lon="-7.51672899350524">
        <ele>646.62</ele>
        <time>2025-05-02T10:42:48Z</time>
      </trkpt>
      <trkpt lat="42.089079022407532" lon="-7.516568982973695">
        <ele>646.13999999999999</ele>
        <time>2025-05-02T10:42:49Z</time>
      </trkpt>
      <trkpt lat="42.089027976617217" lon="-7.516397992148995">
        <ele>645.17999999999995</ele>
        <time>2025-05-02T10:42:50Z</time>
      </trkpt>
      <trkpt lat="42.089014984667301" lon="-7.516211997717619">
        <ele>644.22000000000003</ele>
        <time>2025-05-02T10:42:51Z</time>
      </trkpt>
      <trkpt lat="42.089001992717385" lon="-7.516023991629481">
        <ele>643.74000000000001</ele>
        <time>2025-05-02T10:42:52Z</time>
      </trkpt>
      <trkpt lat="42.088989000767469" lon="-7.515845037996769">
        <ele>642.77999999999997</ele>
        <time>2025-05-02T10:42:53Z</time>
      </trkpt>
      <trkpt lat="42.088938960805535" lon="-7.515679998323321">
        <ele>641.82000000000005</ele>
        <time>2025-05-02T10:42:54Z</time>
      </trkpt>
      <trkpt lat="42.088885987177491" lon="-7.515521999448538">
        <ele>640.86000000000001</ele>
        <time>2025-05-02T10:42:55Z</time>
      </trkpt>
      <trkpt lat="42.088798983022571" lon="-7.515400964766741">
        <ele>639.88999999999999</ele>
        <time>2025-05-02T10:42:56Z</time>
      </trkpt>
      <trkpt lat="42.088707033544779" lon="-7.515283031389117">
        <ele>638.92999999999995</ele>
        <time>2025-05-02T10:42:57Z</time>
      </trkpt>
      <trkpt lat="42.088619023561478" lon="-7.515169959515333">
        <ele>637.00999999999999</ele>
        <time>2025-05-02T10:42:58Z</time>
      </trkpt>
      <trkpt lat="42.088518021628261" lon="-7.515100976452231">
        <ele>635.57000000000005</ele>
        <time>2025-05-02T10:42:59Z</time>
      </trkpt>
      <trkpt lat="42.088406961411238" lon="-7.515065018087626">
        <ele>634.13</ele>
        <time>2025-05-02T10:43:00Z</time>
      </trkpt>
      <trkpt lat="42.087896000593901" lon="-7.514898972585797">
        <ele>628.84000000000003</ele>
        <time>2025-05-02T10:43:04Z</time>
      </trkpt>
      <trkpt lat="42.087787035852671" lon="-7.514821020886302">
        <ele>627.88</ele>
        <time>2025-05-02T10:43:05Z</time>
      </trkpt>
      <trkpt lat="42.08767999894917" lon="-7.514713983982801">
        <ele>626.91999999999996</ele>
        <time>2025-05-02T10:43:06Z</time>
      </trkpt>
      <trkpt lat="42.08757103420794" lon="-7.514605019241571">
        <ele>625.96000000000004</ele>
        <time>2025-05-02T10:43:07Z</time>
      </trkpt>
      <trkpt lat="42.087459973990917" lon="-7.514481972903013">
        <ele>624.50999999999999</ele>
        <time>2025-05-02T10:43:08Z</time>
      </trkpt>
      <trkpt lat="42.08735603839159" lon="-7.51432397402823">
        <ele>623.54999999999995</ele>
        <time>2025-05-02T10:43:09Z</time>
      </trkpt>
      <trkpt lat="42.086680037900805" lon="-7.5132289621979">
        <ele>615.38</ele>
        <time>2025-05-02T10:43:15Z</time>
      </trkpt>
      <trkpt lat="42.086339984089136" lon="-7.512679025530815">
        <ele>612.01999999999998</ele>
        <time>2025-05-02T10:43:18Z</time>
      </trkpt>
      <trkpt lat="42.08598199300468" lon="-7.512020040303469">
        <ele>606.73000000000002</ele>
        <time>2025-05-02T10:43:22Z</time>
      </trkpt>
      <trkpt lat="42.085922984406352" lon="-7.511858018115163">
        <ele>605.28999999999996</ele>
        <time>2025-05-02T10:43:23Z</time>
      </trkpt>
      <trkpt lat="42.085883002728224" lon="-7.511668000370264">
        <ele>603.85000000000002</ele>
        <time>2025-05-02T10:43:24Z</time>
      </trkpt>
      <trkpt lat="42.085803039371967" lon="-7.511289976537228">
        <ele>601.44000000000005</ele>
        <time>2025-05-02T10:43:26Z</time>
      </trkpt>
      <trkpt lat="42.085719974711537" lon="-7.51112200319767">
        <ele>600.48000000000002</ele>
        <time>2025-05-02T10:43:27Z</time>
      </trkpt>
      <trkpt lat="42.085627019405365" lon="-7.510971967130899">
        <ele>599.51999999999998</ele>
        <time>2025-05-02T10:43:28Z</time>
      </trkpt>
      <trkpt lat="42.085453011095524" lon="-7.51069201156497">
        <ele>597.60000000000002</ele>
        <time>2025-05-02T10:43:30Z</time>
      </trkpt>
      <trkpt lat="42.085387967526913" lon="-7.510564019903541">
        <ele>596.63999999999999</ele>
        <time>2025-05-02T10:43:31Z</time>
      </trkpt>
      <trkpt lat="42.085341028869152" lon="-7.510417001321912">
        <ele>595.66999999999996</ele>
        <time>2025-05-02T10:43:32Z</time>
      </trkpt>
      <trkpt lat="42.085348991677165" lon="-7.510278029367328">
        <ele>595.19000000000005</ele>
        <time>2025-05-02T10:43:33Z</time>
      </trkpt>
      <trkpt lat="42.08535703830421" lon="-7.510128999128938">
        <ele>594.23000000000002</ele>
        <time>2025-05-02T10:43:34Z</time>
      </trkpt>
      <trkpt lat="42.085399031639099" lon="-7.509632036089897">
        <ele>591.35000000000002</ele>
        <time>2025-05-02T10:43:37Z</time>
      </trkpt>
      <trkpt lat="42.085459968075156" lon="-7.509483005851507">
        <ele>590.38999999999999</ele>
        <time>2025-05-02T10:43:38Z</time>
      </trkpt>
      <trkpt lat="42.085518976673484" lon="-7.50933900475502">
        <ele>589.42999999999995</ele>
        <time>2025-05-02T10:43:39Z</time>
      </trkpt>
      <trkpt lat="42.0857909694314" lon="-7.508800970390439">
        <ele>585.58000000000004</ele>
        <time>2025-05-02T10:43:43Z</time>
      </trkpt>
      <trkpt lat="42.08583396859467" lon="-7.508661998435855">
        <ele>584.62</ele>
        <time>2025-05-02T10:43:44Z</time>
      </trkpt>
      <trkpt lat="42.085818964987993" lon="-7.508511962369084">
        <ele>584.13999999999999</ele>
        <time>2025-05-02T10:43:45Z</time>
      </trkpt>
      <trkpt lat="42.085764985531569" lon="-7.508361004292965">
        <ele>583.17999999999995</ele>
        <time>2025-05-02T10:43:46Z</time>
      </trkpt>
      <trkpt lat="42.085677981376648" lon="-7.508208034560084">
        <ele>582.70000000000005</ele>
        <time>2025-05-02T10:43:47Z</time>
      </trkpt>
      <trkpt lat="42.08555200137198" lon="-7.508149025961757">
        <ele>581.73000000000002</ele>
        <time>2025-05-02T10:43:48Z</time>
      </trkpt>
      <trkpt lat="42.085412023589015" lon="-7.508083982393146">
        <ele>581.25</ele>
        <time>2025-05-02T10:43:49Z</time>
      </trkpt>
      <trkpt lat="42.085256036370993" lon="-7.50802899710834">
        <ele>580.76999999999998</ele>
        <time>2025-05-02T10:43:50Z</time>
      </trkpt>
      <trkpt lat="42.085106000304222" lon="-7.508004019036889">
        <ele>580.28999999999996</ele>
        <time>2025-05-02T10:43:51Z</time>
      </trkpt>
      <trkpt lat="42.084954958409071" lon="-7.508050035685301">
        <ele>580.28999999999996</ele>
        <time>2025-05-02T10:43:52Z</time>
      </trkpt>
      <trkpt lat="42.084812968969345" lon="-7.508121030405164">
        <ele>579.80999999999995</ele>
        <time>2025-05-02T10:43:53Z</time>
      </trkpt>
      <trkpt lat="42.084671985358" lon="-7.508191019296646">
        <ele>579.80999999999995</ele>
        <time>2025-05-02T10:43:54Z</time>
      </trkpt>
      <trkpt lat="42.084547011181712" lon="-7.508253967389464">
        <ele>579.33000000000004</ele>
        <time>2025-05-02T10:43:55Z</time>
      </trkpt>
      <trkpt lat="42.084432011470199" lon="-7.508253967389464">
        <ele>578.85000000000002</ele>
        <time>2025-05-02T10:43:56Z</time>
      </trkpt>
      <trkpt lat="42.084346013143659" lon="-7.508209962397814">
        <ele>578.37</ele>
        <time>2025-05-02T10:43:57Z</time>
      </trkpt>
      <trkpt lat="42.084224978461862" lon="-7.508104015141726">
        <ele>578.37</ele>
        <time>2025-05-02T10:43:58Z</time>
      </trkpt>
      <trkpt lat="42.084164964035153" lon="-7.508023967966437">
        <ele>578.37</ele>
        <time>2025-05-02T10:43:59Z</time>
      </trkpt>
      <trkpt lat="42.083758022636175" lon="-7.507467996329069">
        <ele>577.40999999999997</ele>
        <time>2025-05-02T10:44:03Z</time>
      </trkpt>
      <trkpt lat="42.083346974104643" lon="-7.506880005821586">
        <ele>575.00999999999999</ele>
        <time>2025-05-02T10:44:07Z</time>
      </trkpt>
      <trkpt lat="42.083303974941373" lon="-7.506732987239957">
        <ele>574.03999999999996</ele>
        <time>2025-05-02T10:44:08Z</time>
      </trkpt>
      <trkpt lat="42.083259969949722" lon="-7.506573982536793">
        <ele>573.08000000000004</ele>
        <time>2025-05-02T10:44:09Z</time>
      </trkpt>
      <trkpt lat="42.083289977163076" lon="-7.506410032510757">
        <ele>572.12</ele>
        <time>2025-05-02T10:44:10Z</time>
      </trkpt>
      <trkpt lat="42.083324007689953" lon="-7.50622596591711">
        <ele>571.63999999999999</ele>
        <time>2025-05-02T10:44:11Z</time>
      </trkpt>
      <trkpt lat="42.083360971882939" lon="-7.506026979535818">
        <ele>570.67999999999995</ele>
        <time>2025-05-02T10:44:12Z</time>
      </trkpt>
      <trkpt lat="42.083494998514652" lon="-7.505292976275086">
        <ele>566.35000000000002</ele>
        <time>2025-05-02T10:44:16Z</time>
      </trkpt>
      <trkpt lat="42.083478989079595" lon="-7.504991982132196">
        <ele>565.38999999999999</ele>
        <time>2025-05-02T10:44:17Z</time>
      </trkpt>
      <trkpt lat="42.083373041823506" lon="-7.504696017131209">
        <ele>562.99000000000001</ele>
        <time>2025-05-02T10:44:19Z</time>
      </trkpt>
      <trkpt lat="42.083286959677935" lon="-7.504532989114523">
        <ele>562.02999999999997</ele>
        <time>2025-05-02T10:44:20Z</time>
      </trkpt>
      <trkpt lat="42.083186041563749" lon="-7.504417989403009">
        <ele>561.07000000000005</ele>
        <time>2025-05-02T10:44:21Z</time>
      </trkpt>
      <trkpt lat="42.082663010805845" lon="-7.503819018602371">
        <ele>557.22000000000003</ele>
        <time>2025-05-02T10:44:25Z</time>
      </trkpt>
      <trkpt lat="42.082567038014531" lon="-7.503655990585685">
        <ele>556.25999999999999</ele>
        <time>2025-05-02T10:44:26Z</time>
      </trkpt>
      <trkpt lat="42.082485985010862" lon="-7.503477958962321">
        <ele>555.29999999999995</ele>
        <time>2025-05-02T10:44:27Z</time>
      </trkpt>
      <trkpt lat="42.082435023039579" lon="-7.50330101698637">
        <ele>554.34000000000003</ele>
        <time>2025-05-02T10:44:28Z</time>
      </trkpt>
      <trkpt lat="42.082422031089664" lon="-7.503095995634794">
        <ele>552.89999999999998</ele>
        <time>2025-05-02T10:44:29Z</time>
      </trkpt>
      <trkpt lat="42.082440974190831" lon="-7.502899020910263">
        <ele>551.92999999999995</ele>
        <time>2025-05-02T10:44:30Z</time>
      </trkpt>
      <trkpt lat="42.082464024424553" lon="-7.502709003165364">
        <ele>550.49000000000001</ele>
        <time>2025-05-02T10:44:31Z</time>
      </trkpt>
      <trkpt lat="42.082486990839243" lon="-7.502514040097594">
        <ele>549.04999999999995</ele>
        <time>2025-05-02T10:44:32Z</time>
      </trkpt>
      <trkpt lat="42.082511968910694" lon="-7.502298960462213">
        <ele>547.61000000000001</ele>
        <time>2025-05-02T10:44:33Z</time>
      </trkpt>
      <trkpt lat="42.082538036629558" lon="-7.502080025151372">
        <ele>546.16999999999996</ele>
        <time>2025-05-02T10:44:34Z</time>
      </trkpt>
      <trkpt lat="42.082590004429221" lon="-7.501637963578105">
        <ele>543.75999999999999</ele>
        <time>2025-05-02T10:44:36Z</time>
      </trkpt>
      <trkpt lat="42.082594027742743" lon="-7.501602005213499">
        <ele>542.32000000000005</ele>
        <time>2025-05-02T10:44:37Z</time>
      </trkpt>
      <trkpt lat="42.082519009709358" lon="-7.501363037154079">
        <ele>540.39999999999998</ele>
        <time>2025-05-02T10:44:38Z</time>
      </trkpt>
      <trkpt lat="42.082486990839243" lon="-7.50125901773572">
        <ele>538.96000000000004</ele>
        <time>2025-05-02T10:44:39Z</time>
      </trkpt>
      <trkpt lat="42.082368973642588" lon="-7.501091966405511">
        <ele>537.50999999999999</ele>
        <time>2025-05-02T10:44:40Z</time>
      </trkpt>
      <trkpt lat="42.082250034436584" lon="-7.500923993065953">
        <ele>536.54999999999995</ele>
        <time>2025-05-02T10:44:41Z</time>
      </trkpt>
      <trkpt lat="42.082121958956122" lon="-7.500771023333073">
        <ele>535.11000000000001</ele>
        <time>2025-05-02T10:44:42Z</time>
      </trkpt>
      <trkpt lat="42.081969995051622" lon="-7.500598020851612">
        <ele>533.66999999999996</ele>
        <time>2025-05-02T10:44:43Z</time>
      </trkpt>
      <trkpt lat="42.081275973469019" lon="-7.499672994017601">
        <ele>524.05999999999995</ele>
        <time>2025-05-02T10:44:48Z</time>
      </trkpt>
      <trkpt lat="42.080554040148854" lon="-7.498447978869081">
        <ele>513.48000000000002</ele>
        <time>2025-05-02T10:44:54Z</time>
      </trkpt>
      <trkpt lat="42.080409033223987" lon="-7.49827497638762">
        <ele>511.56</ele>
        <time>2025-05-02T10:44:55Z</time>
      </trkpt>
      <trkpt lat="42.079633036628366" lon="-7.497390015050769">
        <ele>500.01999999999998</ele>
        <time>2025-05-02T10:45:01Z</time>
      </trkpt>
      <trkpt lat="42.079504039138556" lon="-7.497246013954282">
        <ele>498.57999999999998</ele>
        <time>2025-05-02T10:45:02Z</time>
      </trkpt>
      <trkpt lat="42.079415023326874" lon="-7.497146017849445">
        <ele>497.13999999999999</ele>
        <time>2025-05-02T10:45:03Z</time>
      </trkpt>
      <trkpt lat="42.079313015565276" lon="-7.497033029794693">
        <ele>496.18000000000001</ele>
        <time>2025-05-02T10:45:04Z</time>
      </trkpt>
      <trkpt lat="42.079207990318537" lon="-7.496916018426418">
        <ele>495.22000000000003</ele>
        <time>2025-05-02T10:45:05Z</time>
      </trkpt>
      <trkpt lat="42.0791079942137" lon="-7.496804958209395">
        <ele>494.25999999999999</ele>
        <time>2025-05-02T10:45:06Z</time>
      </trkpt>
      <trkpt lat="42.079007998108864" lon="-7.496696999296546">
        <ele>493.29000000000002</ele>
        <time>2025-05-02T10:45:07Z</time>
      </trkpt>
      <trkpt lat="42.078911019489169" lon="-7.496590968221426">
        <ele>492.32999999999998</ele>
        <time>2025-05-02T10:45:08Z</time>
      </trkpt>
      <trkpt lat="42.078832983970642" lon="-7.496525002643466">
        <ele>491.37</ele>
        <time>2025-05-02T10:45:09Z</time>
      </trkpt>
      <trkpt lat="42.078731982037425" lon="-7.496451996266842">
        <ele>490.41000000000003</ele>
        <time>2025-05-02T10:45:10Z</time>
      </trkpt>
      <trkpt lat="42.078637015074492" lon="-7.496451996266842">
        <ele>489.44999999999999</ele>
        <time>2025-05-02T10:45:11Z</time>
      </trkpt>
      <trkpt lat="42.078513968735933" lon="-7.496454007923603">
        <ele>488.49000000000001</ele>
        <time>2025-05-02T10:45:12Z</time>
      </trkpt>
      <trkpt lat="42.078382959589362" lon="-7.496509999036789">
        <ele>487.52999999999997</ele>
        <time>2025-05-02T10:45:13Z</time>
      </trkpt>
      <trkpt lat="42.078266032040119" lon="-7.496560038998723">
        <ele>486.07999999999998</ele>
        <time>2025-05-02T10:45:14Z</time>
      </trkpt>
      <trkpt lat="42.078165030106902" lon="-7.496590968221426">
        <ele>485.12</ele>
        <time>2025-05-02T10:45:15Z</time>
      </trkpt>
      <trkpt lat="42.078002002090216" lon="-7.496623992919922">
        <ele>484.16000000000003</ele>
        <time>2025-05-02T10:45:16Z</time>
      </trkpt>
      <trkpt lat="42.077928995713592" lon="-7.496574958786368">
        <ele>483.19999999999999</ele>
        <time>2025-05-02T10:45:17Z</time>
      </trkpt>
      <trkpt lat="42.0778180193156" lon="-7.496455013751984">
        <ele>482.72000000000003</ele>
        <time>2025-05-02T10:45:18Z</time>
      </trkpt>
      <trkpt lat="42.077746018767357" lon="-7.49631897546351">
        <ele>482.24000000000001</ele>
        <time>2025-05-02T10:45:19Z</time>
      </trkpt>
      <trkpt lat="42.077088039368391" lon="-7.494961023330689">
        <ele>478.87</ele>
        <time>2025-05-02T10:45:30Z</time>
      </trkpt>
      <trkpt lat="42.076317993924022" lon="-7.493340969085693">
        <ele>477.91000000000003</ele>
        <time>2025-05-02T10:45:42Z</time>
      </trkpt>
      <trkpt lat="42.075689015910029" lon="-7.49199902638793">
        <ele>477.91000000000003</ele>
        <time>2025-05-02T10:45:52Z</time>
      </trkpt>
      <trkpt lat="42.075624978169799" lon="-7.491869023069739">
        <ele>477.91000000000003</ele>
        <time>2025-05-02T10:45:53Z</time>
      </trkpt>
      <trkpt lat="42.075121980160475" lon="-7.490802006796002">
        <ele>477.91000000000003</ele>
        <time>2025-05-02T10:46:01Z</time>
      </trkpt>
      <trkpt lat="42.075063977390528" lon="-7.490659011527896">
        <ele>478.38999999999999</ele>
        <time>2025-05-02T10:46:02Z</time>
      </trkpt>
      <trkpt lat="42.07500396296382" lon="-7.490511992946267">
        <ele>478.38999999999999</ele>
        <time>2025-05-02T10:46:03Z</time>
      </trkpt>
      <trkpt lat="42.074945960193872" lon="-7.490361034870148">
        <ele>478.38999999999999</ele>
        <time>2025-05-02T10:46:04Z</time>
      </trkpt>
      <trkpt lat="42.074888963252306" lon="-7.490204963833094">
        <ele>478.87</ele>
        <time>2025-05-02T10:46:05Z</time>
      </trkpt>
      <trkpt lat="42.074820986017585" lon="-7.490069009363651">
        <ele>478.87</ele>
        <time>2025-05-02T10:46:06Z</time>
      </trkpt>
      <trkpt lat="42.07474404014647" lon="-7.489927019923925">
        <ele>478.87</ele>
        <time>2025-05-02T10:46:07Z</time>
      </trkpt>
      <trkpt lat="42.07465804181993" lon="-7.489811014384031">
        <ele>478.87</ele>
        <time>2025-05-02T10:46:08Z</time>
      </trkpt>
      <trkpt lat="42.074570031836629" lon="-7.489692997187376">
        <ele>478.87</ele>
        <time>2025-05-02T10:46:09Z</time>
      </trkpt>
      <trkpt lat="42.074477998539805" lon="-7.489569028839469">
        <ele>478.87</ele>
        <time>2025-05-02T10:46:10Z</time>
      </trkpt>
      <trkpt lat="42.07427297718823" lon="-7.48929301276803">
        <ele>478.87</ele>
        <time>2025-05-02T10:46:12Z</time>
      </trkpt>
      <trkpt lat="42.074181027710438" lon="-7.489135013893247">
        <ele>478.87</ele>
        <time>2025-05-02T10:46:13Z</time>
      </trkpt>
      <trkpt lat="42.074109027162194" lon="-7.488933010026813">
        <ele>478.87</ele>
        <time>2025-05-02T10:46:14Z</time>
      </trkpt>
      <trkpt lat="42.073665959760547" lon="-7.487415969371796">
        <ele>473.58999999999997</ele>
        <time>2025-05-02T10:46:21Z</time>
      </trkpt>
      <trkpt lat="42.072932962328196" lon="-7.486081989482045">
        <ele>468.77999999999997</ele>
        <time>2025-05-02T10:46:28Z</time>
      </trkpt>
      <trkpt lat="42.072497019544244" lon="-7.485587038099766">
        <ele>467.33999999999997</ele>
        <time>2025-05-02T10:46:31Z</time>
      </trkpt>
      <trkpt lat="42.072026962414384" lon="-7.485152017325163">
        <ele>465.89999999999998</ele>
        <time>2025-05-02T10:46:34Z</time>
      </trkpt>
      <trkpt lat="42.071768967434764" lon="-7.484815986827016">
        <ele>463.97000000000003</ele>
        <time>2025-05-02T10:46:36Z</time>
      </trkpt>
      <trkpt lat="42.071637036278844" lon="-7.484632004052401">
        <ele>463.49000000000001</ele>
        <time>2025-05-02T10:46:37Z</time>
      </trkpt>
      <trkpt lat="42.071043010801077" lon="-7.483720974996686">
        <ele>461.08999999999997</ele>
        <time>2025-05-02T10:46:42Z</time>
      </trkpt>
      <trkpt lat="42.070905966684222" lon="-7.483585020527244">
        <ele>461.08999999999997</ele>
        <time>2025-05-02T10:46:43Z</time>
      </trkpt>
      <trkpt lat="42.069413987919688" lon="-7.48237400315702">
        <ele>464.93000000000001</ele>
        <time>2025-05-02T10:46:53Z</time>
      </trkpt>
      <trkpt lat="42.068080008029938" lon="-7.481331964954734">
        <ele>465.42000000000002</ele>
        <time>2025-05-02T10:47:02Z</time>
      </trkpt>
      <trkpt lat="42.067084992304444" lon="-7.480559991672635">
        <ele>467.33999999999997</ele>
        <time>2025-05-02T10:47:09Z</time>
      </trkpt>
      <trkpt lat="42.066952977329493" lon="-7.480457983911037">
        <ele>467.81999999999999</ele>
        <time>2025-05-02T10:47:10Z</time>
      </trkpt>
      <trkpt lat="42.066146973520517" lon="-7.479822970926762">
        <ele>469.74000000000001</ele>
        <time>2025-05-02T10:47:16Z</time>
      </trkpt>
      <trkpt lat="42.066018981859088" lon="-7.479686010628939">
        <ele>469.74000000000001</ele>
        <time>2025-05-02T10:47:17Z</time>
      </trkpt>
      <trkpt lat="42.065901970490813" lon="-7.479536980390549">
        <ele>469.74000000000001</ele>
        <time>2025-05-02T10:47:18Z</time>
      </trkpt>
      <trkpt lat="42.065770961344242" lon="-7.479372024536133">
        <ele>470.22000000000003</ele>
        <time>2025-05-02T10:47:19Z</time>
      </trkpt>
      <trkpt lat="42.06569803878665" lon="-7.479191981256008">
        <ele>470.22000000000003</ele>
        <time>2025-05-02T10:47:20Z</time>
      </trkpt>
      <trkpt lat="42.065618997439742" lon="-7.478998024016619">
        <ele>470.22000000000003</ele>
        <time>2025-05-02T10:47:21Z</time>
      </trkpt>
      <trkpt lat="42.065538028255105" lon="-7.478799959644675">
        <ele>470.22000000000003</ele>
        <time>2025-05-02T10:47:22Z</time>
      </trkpt>
      <trkpt lat="42.064881976693869" lon="-7.476330986246467">
        <ele>472.13999999999999</ele>
        <time>2025-05-02T10:47:33Z</time>
      </trkpt>
      <trkpt lat="42.064284011721611" lon="-7.474119001999497">
        <ele>474.06999999999999</ele>
        <time>2025-05-02T10:47:42Z</time>
      </trkpt>
      <trkpt lat="42.063631983473897" lon="-7.47216803021729">
        <ele>473.11000000000001</ele>
        <time>2025-05-02T10:47:50Z</time>
      </trkpt>
      <trkpt lat="42.063411036506295" lon="-7.471647011116147">
        <ele>471.66000000000003</ele>
        <time>2025-05-02T10:47:52Z</time>
      </trkpt>
      <trkpt lat="42.062707962468266" lon="-7.469736021012068">
        <ele>469.25999999999999</ele>
        <time>2025-05-02T10:48:00Z</time>
      </trkpt>
      <trkpt lat="42.062275037169456" lon="-7.468790039420128">
        <ele>467.81999999999999</ele>
        <time>2025-05-02T10:48:06Z</time>
      </trkpt>
      <trkpt lat="42.061539022251964" lon="-7.467213990166783">
        <ele>466.86000000000001</ele>
        <time>2025-05-02T10:48:18Z</time>
      </trkpt>
      <trkpt lat="42.060709968209267" lon="-7.465436020866036">
        <ele>466.86000000000001</ele>
        <time>2025-05-02T10:48:31Z</time>
      </trkpt>
      <trkpt lat="42.059940006583929" lon="-7.463766010478139">
        <ele>467.33999999999997</ele>
        <time>2025-05-02T10:48:43Z</time>
      </trkpt>
      <trkpt lat="42.059114975854754" lon="-7.46196398511529">
        <ele>465.89999999999998</ele>
        <time>2025-05-02T10:48:56Z</time>
      </trkpt>
      <trkpt lat="42.058220040053129" lon="-7.460042014718056">
        <ele>463.97000000000003</ele>
        <time>2025-05-02T10:49:10Z</time>
      </trkpt>
      <trkpt lat="42.058071009814739" lon="-7.459775973111391">
        <ele>463.49000000000001</ele>
        <time>2025-05-02T10:49:12Z</time>
      </trkpt>
      <trkpt lat="42.057988028973341" lon="-7.459657033905387">
        <ele>463.49000000000001</ele>
        <time>2025-05-02T10:49:13Z</time>
      </trkpt>
      <trkpt lat="42.057894989848137" lon="-7.459546979516745">
        <ele>463.00999999999999</ele>
        <time>2025-05-02T10:49:14Z</time>
      </trkpt>
      <trkpt lat="42.057797005400062" lon="-7.459455030038953">
        <ele>463.00999999999999</ele>
        <time>2025-05-02T10:49:15Z</time>
      </trkpt>
      <trkpt lat="42.057697009295225" lon="-7.459360985085368">
        <ele>463.00999999999999</ele>
        <time>2025-05-02T10:49:16Z</time>
      </trkpt>
      <trkpt lat="42.056439975276589" lon="-7.458179974928498">
        <ele>463.97000000000003</ele>
        <time>2025-05-02T10:49:28Z</time>
      </trkpt>
      <trkpt lat="42.056307960301638" lon="-7.458055000752211">
        <ele>464.93000000000001</ele>
        <time>2025-05-02T10:49:29Z</time>
      </trkpt>
      <trkpt lat="42.055887021124363" lon="-7.457648981362581">
        <ele>466.38</ele>
        <time>2025-05-02T10:49:32Z</time>
      </trkpt>
      <trkpt lat="42.055735979229212" lon="-7.457512021064758">
        <ele>466.86000000000001</ele>
        <time>2025-05-02T10:49:33Z</time>
      </trkpt>
      <trkpt lat="42.05465798266232" lon="-7.456481968984008">
        <ele>469.74000000000001</ele>
        <time>2025-05-02T10:49:40Z</time>
      </trkpt>
      <trkpt lat="42.054353971034288" lon="-7.456191033124924">
        <ele>470.22000000000003</ele>
        <time>2025-05-02T10:49:42Z</time>
      </trkpt>
      <trkpt lat="42.05334504134953" lon="-7.45517598465085">
        <ele>470.22000000000003</ele>
        <time>2025-05-02T10:49:49Z</time>
      </trkpt>
      <trkpt lat="42.053227024152875" lon="-7.455035001039505">
        <ele>470.22000000000003</ele>
        <time>2025-05-02T10:49:50Z</time>
      </trkpt>
      <trkpt lat="42.053027031943202" lon="-7.454757979139686">
        <ele>470.69999999999999</ele>
        <time>2025-05-02T10:49:52Z</time>
      </trkpt>
      <trkpt lat="42.052952013909817" lon="-7.454598974436522">
        <ele>470.69999999999999</ele>
        <time>2025-05-02T10:49:53Z</time>
      </trkpt>
      <trkpt lat="42.052884036675096" lon="-7.454440975561738">
        <ele>470.69999999999999</ele>
        <time>2025-05-02T10:49:54Z</time>
      </trkpt>
      <trkpt lat="42.0528319850564" lon="-7.454274008050561">
        <ele>470.69999999999999</ele>
        <time>2025-05-02T10:49:55Z</time>
      </trkpt>
      <trkpt lat="42.052783034741879" lon="-7.454105028882623">
        <ele>470.22000000000003</ele>
        <time>2025-05-02T10:49:56Z</time>
      </trkpt>
      <trkpt lat="42.052751015871763" lon="-7.453924985602498">
        <ele>470.22000000000003</ele>
        <time>2025-05-02T10:49:57Z</time>
      </trkpt>
      <trkpt lat="42.052716985344887" lon="-7.453739996999502">
        <ele>470.22000000000003</ele>
        <time>2025-05-02T10:49:58Z</time>
      </trkpt>
      <trkpt lat="42.052582036703825" lon="-7.451822971925139">
        <ele>467.81999999999999</ele>
        <time>2025-05-02T10:50:07Z</time>
      </trkpt>
      <trkpt lat="42.052466031163931" lon="-7.449561031535268">
        <ele>464.93000000000001</ele>
        <time>2025-05-02T10:50:16Z</time>
      </trkpt>
      <trkpt lat="42.052324963733554" lon="-7.447212003171444">
        <ele>465.89999999999998</ele>
        <time>2025-05-02T10:50:25Z</time>
      </trkpt>
      <trkpt lat="42.052103010937572" lon="-7.445589015260339">
        <ele>464.44999999999999</ele>
        <time>2025-05-02T10:50:32Z</time>
      </trkpt>
      <trkpt lat="42.051442014053464" lon="-7.443062039092183">
        <ele>462.52999999999997</ele>
        <time>2025-05-02T10:50:43Z</time>
      </trkpt>
      <trkpt lat="42.050732988864183" lon="-7.441344000399113">
        <ele>461.08999999999997</ele>
        <time>2025-05-02T10:50:51Z</time>
      </trkpt>
      <trkpt lat="42.050039973109961" lon="-7.440095013007522">
        <ele>462.52999999999997</ele>
        <time>2025-05-02T10:50:58Z</time>
      </trkpt>
      <trkpt lat="42.049956992268562" lon="-7.439954029396176">
        <ele>463.00999999999999</ele>
        <time>2025-05-02T10:50:59Z</time>
      </trkpt>
      <trkpt lat="42.049865964800119" lon="-7.439879011362791">
        <ele>463.49000000000001</ele>
        <time>2025-05-02T10:51:00Z</time>
      </trkpt>
      <trkpt lat="42.049748031422496" lon="-7.439827965572476">
        <ele>463.97000000000003</ele>
        <time>2025-05-02T10:51:01Z</time>
      </trkpt>
      <trkpt lat="42.049606963992119" lon="-7.439796030521393">
        <ele>464.44999999999999</ele>
        <time>2025-05-02T10:51:02Z</time>
      </trkpt>
      <trkpt lat="42.049455000087619" lon="-7.439759988337755">
        <ele>464.93000000000001</ele>
        <time>2025-05-02T10:51:03Z</time>
      </trkpt>
      <trkpt lat="42.049292977899313" lon="-7.439723024144769">
        <ele>465.42000000000002</ele>
        <time>2025-05-02T10:51:04Z</time>
      </trkpt>
      <trkpt lat="42.048239959403872" lon="-7.439345000311732">
        <ele>466.38</ele>
        <time>2025-05-02T10:51:11Z</time>
      </trkpt>
      <trkpt lat="42.04812403768301" lon="-7.439249027520418">
        <ele>466.38</ele>
        <time>2025-05-02T10:51:12Z</time>
      </trkpt>
      <trkpt lat="42.048021024093032" lon="-7.439123969525099">
        <ele>465.89999999999998</ele>
        <time>2025-05-02T10:51:13Z</time>
      </trkpt>
      <trkpt lat="42.047921027988195" lon="-7.438972005620599">
        <ele>465.42000000000002</ele>
        <time>2025-05-02T10:51:14Z</time>
      </trkpt>
      <trkpt lat="42.047833018004894" lon="-7.438795985653997">
        <ele>464.93000000000001</ele>
        <time>2025-05-02T10:51:15Z</time>
      </trkpt>
      <trkpt lat="42.04722298309207" lon="-7.43759703822434">
        <ele>462.05000000000001</ele>
        <time>2025-05-02T10:51:21Z</time>
      </trkpt>
      <trkpt lat="42.047119969502091" lon="-7.437392016872764">
        <ele>461.08999999999997</ele>
        <time>2025-05-02T10:51:22Z</time>
      </trkpt>
      <trkpt lat="42.046143980696797" lon="-7.435641959309578">
        <ele>457.24000000000001</ele>
        <time>2025-05-02T10:51:31Z</time>
      </trkpt>
      <trkpt lat="42.046004002913833" lon="-7.435498964041472">
        <ele>456.75999999999999</ele>
        <time>2025-05-02T10:51:32Z</time>
      </trkpt>
      <trkpt lat="42.045861007645726" lon="-7.435382036492229">
        <ele>456.27999999999997</ele>
        <time>2025-05-02T10:51:33Z</time>
      </trkpt>
      <trkpt lat="42.045694962143898" lon="-7.43530098348856">
        <ele>456.27999999999997</ele>
        <time>2025-05-02T10:51:34Z</time>
      </trkpt>
      <trkpt lat="42.045351974666119" lon="-7.435154970735312">
        <ele>454.83999999999997</ele>
        <time>2025-05-02T10:51:36Z</time>
      </trkpt>
      <trkpt lat="42.045176960527897" lon="-7.435080036520958">
        <ele>454.36000000000001</ele>
        <time>2025-05-02T10:51:37Z</time>
      </trkpt>
      <trkpt lat="42.044362993910909" lon="-7.434577038511634">
        <ele>451.95999999999998</ele>
        <time>2025-05-02T10:51:42Z</time>
      </trkpt>
      <trkpt lat="42.043829988688231" lon="-7.434042021632195">
        <ele>449.55000000000001</ele>
        <time>2025-05-02T10:51:46Z</time>
      </trkpt>
      <trkpt lat="42.043732004240155" lon="-7.433869019150734">
        <ele>449.55000000000001</ele>
        <time>2025-05-02T10:51:47Z</time>
      </trkpt>
      <trkpt lat="42.043669978156686" lon="-7.433694005012512">
        <ele>449.55000000000001</ele>
        <time>2025-05-02T10:51:48Z</time>
      </trkpt>
      <trkpt lat="42.043624967336655" lon="-7.433479009196162">
        <ele>449.06999999999999</ele>
        <time>2025-05-02T10:51:49Z</time>
      </trkpt>
      <trkpt lat="42.043583979830146" lon="-7.433281028643251">
        <ele>449.06999999999999</ele>
        <time>2025-05-02T10:51:50Z</time>
      </trkpt>
      <trkpt lat="42.043576017022133" lon="-7.433039965108037">
        <ele>449.06999999999999</ele>
        <time>2025-05-02T10:51:51Z</time>
      </trkpt>
      <trkpt lat="42.043569982051849" lon="-7.432828992605209">
        <ele>449.06999999999999</ele>
        <time>2025-05-02T10:51:52Z</time>
      </trkpt>
      <trkpt lat="42.043564030900598" lon="-7.432638974860311">
        <ele>449.06999999999999</ele>
        <time>2025-05-02T10:51:53Z</time>
      </trkpt>
      <trkpt lat="42.043536035344005" lon="-7.432477036491036">
        <ele>449.06999999999999</ele>
        <time>2025-05-02T10:51:54Z</time>
      </trkpt>
      <trkpt lat="42.043489012867212" lon="-7.432371005415916">
        <ele>448.58999999999997</ele>
        <time>2025-05-02T10:51:55Z</time>
      </trkpt>
      <trkpt lat="42.043409971520305" lon="-7.432291964069009">
        <ele>448.58999999999997</ele>
        <time>2025-05-02T10:51:56Z</time>
      </trkpt>
      <trkpt lat="42.043321961537004" lon="-7.432217029854655">
        <ele>448.58999999999997</ele>
        <time>2025-05-02T10:51:57Z</time>
      </trkpt>
      <trkpt lat="42.043202016502619" lon="-7.432160032913089">
        <ele>448.58999999999997</ele>
        <time>2025-05-02T10:51:58Z</time>
      </trkpt>
      <trkpt lat="42.042330969125032" lon="-7.431599032133818">
        <ele>447.63</ele>
        <time>2025-05-02T10:52:04Z</time>
      </trkpt>
      <trkpt lat="42.041720012202859" lon="-7.43091699667275">
        <ele>447.14999999999998</ele>
        <time>2025-05-02T10:52:09Z</time>
      </trkpt>
      <trkpt lat="42.041622027754784" lon="-7.430795039981604">
        <ele>447.14999999999998</ele>
        <time>2025-05-02T10:52:10Z</time>
      </trkpt>
      <trkpt lat="42.041417006403208" lon="-7.430571997538209">
        <ele>446.19</ele>
        <time>2025-05-02T10:52:12Z</time>
      </trkpt>
      <trkpt lat="42.04129396006465" lon="-7.430479964241386">
        <ele>445.70999999999998</ele>
        <time>2025-05-02T10:52:13Z</time>
      </trkpt>
      <trkpt lat="42.041170997545123" lon="-7.430426990613341">
        <ele>445.70999999999998</ele>
        <time>2025-05-02T10:52:14Z</time>
      </trkpt>
      <trkpt lat="42.041037976741791" lon="-7.430426990613341">
        <ele>445.23000000000002</ele>
        <time>2025-05-02T10:52:15Z</time>
      </trkpt>
      <trkpt lat="42.040891963988543" lon="-7.430426990613341">
        <ele>444.75</ele>
        <time>2025-05-02T10:52:16Z</time>
      </trkpt>
      <trkpt lat="42.040747040882707" lon="-7.430472001433373">
        <ele>443.79000000000002</ele>
        <time>2025-05-02T10:52:17Z</time>
      </trkpt>
      <trkpt lat="42.04058300703764" lon="-7.430536961182952">
        <ele>443.31</ele>
        <time>2025-05-02T10:52:18Z</time>
      </trkpt>
      <trkpt lat="42.039800975471735" lon="-7.430968964472413">
        <ele>440.89999999999998</ele>
        <time>2025-05-02T10:52:23Z</time>
      </trkpt>
      <trkpt lat="42.039652029052377" lon="-7.43110902607441">
        <ele>440.42000000000002</ele>
        <time>2025-05-02T10:52:24Z</time>
      </trkpt>
      <trkpt lat="42.039238968864083" lon="-7.431597020477057">
        <ele>439.94</ele>
        <time>2025-05-02T10:52:27Z</time>
      </trkpt>
      <trkpt lat="42.03912204131484" lon="-7.43179801851511">
        <ele>439.94</ele>
        <time>2025-05-02T10:52:28Z</time>
      </trkpt>
      <trkpt lat="42.039012992754579" lon="-7.432015025988221">
        <ele>439.94</ele>
        <time>2025-05-02T10:52:29Z</time>
      </trkpt>
      <trkpt lat="42.038946021348238" lon="-7.432225998491049">
        <ele>439.94</ele>
        <time>2025-05-02T10:52:30Z</time>
      </trkpt>
      <trkpt lat="42.038879971951246" lon="-7.432433031499386">
        <ele>439.94</ele>
        <time>2025-05-02T10:52:31Z</time>
      </trkpt>
      <trkpt lat="42.03852298669517" lon="-7.433571964502335">
        <ele>440.42000000000002</ele>
        <time>2025-05-02T10:52:38Z</time>
      </trkpt>
      <trkpt lat="42.038283012807369" lon="-7.43433203548193">
        <ele>441.38</ele>
        <time>2025-05-02T10:52:43Z</time>
      </trkpt>
      <trkpt lat="42.037640959024429" lon="-7.435529977083206">
        <ele>440.89999999999998</ele>
        <time>2025-05-02T10:52:52Z</time>
      </trkpt>
      <trkpt lat="42.037567030638456" lon="-7.435660986229777">
        <ele>440.42000000000002</ele>
        <time>2025-05-02T10:52:53Z</time>
      </trkpt>
      <trkpt lat="42.036520969122648" lon="-7.43747097440064">
        <ele>438.01999999999998</ele>
        <time>2025-05-02T10:53:07Z</time>
      </trkpt>
      <trkpt lat="42.035762993618846" lon="-7.438748041167855">
        <ele>441.38</ele>
        <time>2025-05-02T10:53:17Z</time>
      </trkpt>
      <trkpt lat="42.035609018057585" lon="-7.439004024490714">
        <ele>441.86000000000001</ele>
        <time>2025-05-02T10:53:19Z</time>
      </trkpt>
      <trkpt lat="42.034579971805215" lon="-7.44011202827096">
        <ele>442.33999999999997</ele>
        <time>2025-05-02T10:53:28Z</time>
      </trkpt>
      <trkpt lat="42.033184971660376" lon="-7.441469980403781">
        <ele>441.86000000000001</ele>
        <time>2025-05-02T10:53:38Z</time>
      </trkpt>
      <trkpt lat="42.031700033694506" lon="-7.442912003025413">
        <ele>439.45999999999998</ele>
        <time>2025-05-02T10:53:48Z</time>
      </trkpt>
      <trkpt lat="42.03145201317966" lon="-7.443223977461457">
        <ele>438.98000000000002</ele>
        <time>2025-05-02T10:53:50Z</time>
      </trkpt>
      <trkpt lat="42.031229976564646" lon="-7.443598983809352">
        <ele>438.5</ele>
        <time>2025-05-02T10:53:52Z</time>
      </trkpt>
      <trkpt lat="42.030427996069193" lon="-7.445024996995926">
        <ele>435.13</ele>
        <time>2025-05-02T10:53:59Z</time>
      </trkpt>
      <trkpt lat="42.030042009428144" lon="-7.446486968547106">
        <ele>431.76999999999998</ele>
        <time>2025-05-02T10:54:05Z</time>
      </trkpt>
      <trkpt lat="42.029838999733329" lon="-7.447429010644555">
        <ele>431.29000000000002</ele>
        <time>2025-05-02T10:54:09Z</time>
      </trkpt>
      <trkpt lat="42.029776973649859" lon="-7.447641994804144">
        <ele>430.81</ele>
        <time>2025-05-02T10:54:10Z</time>
      </trkpt>
      <trkpt lat="42.029686030000448" lon="-7.447850033640862">
        <ele>430.81</ele>
        <time>2025-05-02T10:54:11Z</time>
      </trkpt>
      <trkpt lat="42.029591985046864" lon="-7.44806201197207">
        <ele>430.81</ele>
        <time>2025-05-02T10:54:12Z</time>
      </trkpt>
      <trkpt lat="42.029498023912311" lon="-7.448274996131659">
        <ele>430.32999999999998</ele>
        <time>2025-05-02T10:54:13Z</time>
      </trkpt>
      <trkpt lat="42.028614990413189" lon="-7.450111974030733">
        <ele>429.85000000000002</ele>
        <time>2025-05-02T10:54:22Z</time>
      </trkpt>
      <trkpt lat="42.028293963521719" lon="-7.450874978676438">
        <ele>429.37</ele>
        <time>2025-05-02T10:54:27Z</time>
      </trkpt>
      <trkpt lat="42.028221962973475" lon="-7.450991990044713">
        <ele>428.88999999999999</ele>
        <time>2025-05-02T10:54:28Z</time>
      </trkpt>
      <trkpt lat="42.028133030980825" lon="-7.451102966442704">
        <ele>428.88999999999999</ele>
        <time>2025-05-02T10:54:29Z</time>
      </trkpt>
      <trkpt lat="42.028030017390847" lon="-7.451203968375921">
        <ele>428.88999999999999</ele>
        <time>2025-05-02T10:54:30Z</time>
      </trkpt>
      <trkpt lat="42.027920968830585" lon="-7.451289966702461">
        <ele>428.88999999999999</ele>
        <time>2025-05-02T10:54:31Z</time>
      </trkpt>
      <trkpt lat="42.027616035193205" lon="-7.451557014137507">
        <ele>429.37</ele>
        <time>2025-05-02T10:54:34Z</time>
      </trkpt>
      <trkpt lat="42.027404978871346" lon="-7.451756000518799">
        <ele>428.88999999999999</ele>
        <time>2025-05-02T10:54:36Z</time>
      </trkpt>
      <trkpt lat="42.027338007465005" lon="-7.451869994401932">
        <ele>428.88999999999999</ele>
        <time>2025-05-02T10:54:37Z</time>
      </trkpt>
      <trkpt lat="42.026690002530813" lon="-7.453246973454952">
        <ele>426.95999999999998</ele>
        <time>2025-05-02T10:54:47Z</time>
      </trkpt>
      <trkpt lat="42.02648900449276" lon="-7.453840998932719">
        <ele>427.44</ele>
        <time>2025-05-02T10:54:51Z</time>
      </trkpt>
      <trkpt lat="42.025963040068746" lon="-7.454930981621146">
        <ele>428.88999999999999</ele>
        <time>2025-05-02T10:54:59Z</time>
      </trkpt>
      <trkpt lat="42.025865977630019" lon="-7.455018991604447">
        <ele>428.39999999999998</ele>
        <time>2025-05-02T10:55:00Z</time>
      </trkpt>
      <trkpt lat="42.024757973849773" lon="-7.456014007329941">
        <ele>428.88999999999999</ele>
        <time>2025-05-02T10:55:11Z</time>
      </trkpt>
      <trkpt lat="42.024131007492542" lon="-7.456767037510872">
        <ele>427.92000000000002</ele>
        <time>2025-05-02T10:55:17Z</time>
      </trkpt>
      <trkpt lat="42.024032017216086" lon="-7.45689301751554">
        <ele>427.92000000000002</ele>
        <time>2025-05-02T10:55:18Z</time>
      </trkpt>
      <trkpt lat="42.023946018889546" lon="-7.457058979198337">
        <ele>427.44</ele>
        <time>2025-05-02T10:55:19Z</time>
      </trkpt>
      <trkpt lat="42.023892039433122" lon="-7.457248996943235">
        <ele>427.44</ele>
        <time>2025-05-02T10:55:20Z</time>
      </trkpt>
      <trkpt lat="42.023837976157665" lon="-7.457437003031373">
        <ele>426.95999999999998</ele>
        <time>2025-05-02T10:55:21Z</time>
      </trkpt>
      <trkpt lat="42.023789025843143" lon="-7.457616040483117">
        <ele>426.95999999999998</ele>
        <time>2025-05-02T10:55:22Z</time>
      </trkpt>
      <trkpt lat="42.023620968684554" lon="-7.458303021267057">
        <ele>426.95999999999998</ele>
        <time>2025-05-02T10:55:26Z</time>
      </trkpt>
      <trkpt lat="42.023576963692904" lon="-7.458470994606614">
        <ele>426.95999999999998</ele>
        <time>2025-05-02T10:55:27Z</time>
      </trkpt>
      <trkpt lat="42.023514015600085" lon="-7.458629999309778">
        <ele>427.44</ele>
        <time>2025-05-02T10:55:28Z</time>
      </trkpt>
      <trkpt lat="42.023446038365364" lon="-7.458789004012942">
        <ele>427.44</ele>
        <time>2025-05-02T10:55:29Z</time>
      </trkpt>
      <trkpt lat="42.023354005068541" lon="-7.458926970139146">
        <ele>427.44</ele>
        <time>2025-05-02T10:55:30Z</time>
      </trkpt>
      <trkpt lat="42.022660989314318" lon="-7.459911005571485">
        <ele>426.48000000000002</ele>
        <time>2025-05-02T10:55:37Z</time>
      </trkpt>
      <trkpt lat="42.022408023476601" lon="-7.460074033588171">
        <ele>426</ele>
        <time>2025-05-02T10:55:39Z</time>
      </trkpt>
      <trkpt lat="42.021883986890316" lon="-7.46043998748064">
        <ele>424.56</ele>
        <time>2025-05-02T10:55:43Z</time>
      </trkpt>
      <trkpt lat="42.021750966086984" lon="-7.460558004677296">
        <ele>424.07999999999998</ele>
        <time>2025-05-02T10:55:44Z</time>
      </trkpt>
      <trkpt lat="42.021517027169466" lon="-7.460794039070606">
        <ele>423.12</ele>
        <time>2025-05-02T10:55:46Z</time>
      </trkpt>
      <trkpt lat="42.021414013579488" lon="-7.460914989933372">
        <ele>422.63999999999999</ele>
        <time>2025-05-02T10:55:47Z</time>
      </trkpt>
      <trkpt lat="42.02124604023993" lon="-7.461111964657903">
        <ele>422.16000000000003</ele>
        <time>2025-05-02T10:55:48Z</time>
      </trkpt>
      <trkpt lat="42.021186025813222" lon="-7.461184971034527">
        <ele>421.68000000000001</ele>
        <time>2025-05-02T10:55:49Z</time>
      </trkpt>
      <trkpt lat="42.021073959767818" lon="-7.461322015151382">
        <ele>420.70999999999998</ele>
        <time>2025-05-02T10:55:50Z</time>
      </trkpt>
      <trkpt lat="42.020969018340111" lon="-7.46144900098443">
        <ele>419.75</ele>
        <time>2025-05-02T10:55:51Z</time>
      </trkpt>
      <trkpt lat="42.020871033892035" lon="-7.461569029837847">
        <ele>418.79000000000002</ele>
        <time>2025-05-02T10:55:52Z</time>
      </trkpt>
      <trkpt lat="42.020536009222269" lon="-7.46190195903182">
        <ele>416.38999999999999</ele>
        <time>2025-05-02T10:55:55Z</time>
      </trkpt>
      <trkpt lat="42.019367991015315" lon="-7.462533032521606">
        <ele>420.23000000000002</ele>
        <time>2025-05-02T10:56:04Z</time>
      </trkpt>
      <trkpt lat="42.01854002662003" lon="-7.462814999744296">
        <ele>423.12</ele>
        <time>2025-05-02T10:56:10Z</time>
      </trkpt>
      <trkpt lat="42.018399965018034" lon="-7.46282497420907">
        <ele>423.60000000000002</ele>
        <time>2025-05-02T10:56:11Z</time>
      </trkpt>
      <trkpt lat="42.018242971971631" lon="-7.462787004187703">
        <ele>423.60000000000002</ele>
        <time>2025-05-02T10:56:12Z</time>
      </trkpt>
      <trkpt lat="42.017448032274842" lon="-7.462420966476202">
        <ele>423.12</ele>
        <time>2025-05-02T10:56:17Z</time>
      </trkpt>
      <trkpt lat="42.017336972057819" lon="-7.462435970082879">
        <ele>422.16000000000003</ele>
        <time>2025-05-02T10:56:18Z</time>
      </trkpt>
      <trkpt lat="42.01585496775806" lon="-7.462667981162667">
        <ele>418.31</ele>
        <time>2025-05-02T10:56:27Z</time>
      </trkpt>
      <trkpt lat="42.015263959765434" lon="-7.462927987799048">
        <ele>416.38999999999999</ele>
        <time>2025-05-02T10:56:31Z</time>
      </trkpt>
      <trkpt lat="42.014164002612233" lon="-7.463240968063474">
        <ele>415.43000000000001</ele>
        <time>2025-05-02T10:56:39Z</time>
      </trkpt>
      <trkpt lat="42.013928974047303" lon="-7.463268041610718">
        <ele>415.91000000000003</ele>
        <time>2025-05-02T10:56:41Z</time>
      </trkpt>
      <trkpt lat="42.013757983222604" lon="-7.463279021903873">
        <ele>415.91000000000003</ele>
        <time>2025-05-02T10:56:42Z</time>
      </trkpt>
      <trkpt lat="42.01366301625967" lon="-7.463253038004041">
        <ele>415.91000000000003</ele>
        <time>2025-05-02T10:56:43Z</time>
      </trkpt>
      <trkpt lat="42.013289015740156" lon="-7.463161004707217">
        <ele>415.43000000000001</ele>
        <time>2025-05-02T10:56:46Z</time>
      </trkpt>
      <trkpt lat="42.01267302967608" lon="-7.463106019422412">
        <ele>417.35000000000002</ele>
        <time>2025-05-02T10:56:51Z</time>
      </trkpt>
      <trkpt lat="42.01256699860096" lon="-7.463094033300877">
        <ele>417.35000000000002</ele>
        <time>2025-05-02T10:56:52Z</time>
      </trkpt>
      <trkpt lat="42.012432971969247" lon="-7.463035024702549">
        <ele>418.31</ele>
        <time>2025-05-02T10:56:53Z</time>
      </trkpt>
      <trkpt lat="42.012316966429353" lon="-7.46293100528419">
        <ele>419.26999999999998</ele>
        <time>2025-05-02T10:56:54Z</time>
      </trkpt>
      <trkpt lat="42.012237003073096" lon="-7.4627819750458">
        <ele>419.75</ele>
        <time>2025-05-02T10:56:55Z</time>
      </trkpt>
      <trkpt lat="42.012148993089795" lon="-7.462590029463172">
        <ele>420.23000000000002</ele>
        <time>2025-05-02T10:56:56Z</time>
      </trkpt>
      <trkpt lat="42.011525966227055" lon="-7.461055973544717">
        <ele>421.19</ele>
        <time>2025-05-02T10:57:03Z</time>
      </trkpt>
      <trkpt lat="42.010770002380013" lon="-7.458720020949841">
        <ele>423.12</ele>
        <time>2025-05-02T10:57:13Z</time>
      </trkpt>
      <trkpt lat="42.010622983798385" lon="-7.458088025450707">
        <ele>422.16000000000003</ele>
        <time>2025-05-02T10:57:16Z</time>
      </trkpt>
      <trkpt lat="42.010613009333611" lon="-7.457863977178931">
        <ele>422.16000000000003</ele>
        <time>2025-05-02T10:57:17Z</time>
      </trkpt>
      <trkpt lat="42.010704036802053" lon="-7.456209976226091">
        <ele>422.16000000000003</ele>
        <time>2025-05-02T10:57:24Z</time>
      </trkpt>
      <trkpt lat="42.010699007660151" lon="-7.455993974581361">
        <ele>422.16000000000003</ele>
        <time>2025-05-02T10:57:25Z</time>
      </trkpt>
      <trkpt lat="42.010688027366996" lon="-7.455548979341984">
        <ele>422.63999999999999</ele>
        <time>2025-05-02T10:57:27Z</time>
      </trkpt>
      <trkpt lat="42.010621977970004" lon="-7.455342030152679">
        <ele>423.12</ele>
        <time>2025-05-02T10:57:28Z</time>
      </trkpt>
      <trkpt lat="42.010538997128606" lon="-7.455082023516297">
        <ele>423.60000000000002</ele>
        <time>2025-05-02T10:57:29Z</time>
      </trkpt>
      <trkpt lat="42.010452998802066" lon="-7.454946991056204">
        <ele>424.07999999999998</ele>
        <time>2025-05-02T10:57:30Z</time>
      </trkpt>
      <trkpt lat="42.010319977998734" lon="-7.454783963039517">
        <ele>424.56</ele>
        <time>2025-05-02T10:57:31Z</time>
      </trkpt>
      <trkpt lat="42.010172959417105" lon="-7.454650020226836">
        <ele>425.04000000000002</ele>
        <time>2025-05-02T10:57:32Z</time>
      </trkpt>
      <trkpt lat="42.009998029097915" lon="-7.454541977494955">
        <ele>425.51999999999998</ele>
        <time>2025-05-02T10:57:33Z</time>
      </trkpt>
      <trkpt lat="42.008733032271266" lon="-7.453632038086653">
        <ele>425.04000000000002</ele>
        <time>2025-05-02T10:57:41Z</time>
      </trkpt>
      <trkpt lat="42.007575994357467" lon="-7.452342985197902">
        <ele>423.12</ele>
        <time>2025-05-02T10:57:50Z</time>
      </trkpt>
      <trkpt lat="42.006598999723792" lon="-7.450841031968594">
        <ele>425.04000000000002</ele>
        <time>2025-05-02T10:57:59Z</time>
      </trkpt>
      <trkpt lat="42.006504032760859" lon="-7.450674986466765">
        <ele>425.04000000000002</ele>
        <time>2025-05-02T10:58:00Z</time>
      </trkpt>
      <trkpt lat="42.005825014784932" lon="-7.449494982138276">
        <ele>426</ele>
        <time>2025-05-02T10:58:07Z</time>
      </trkpt>
      <trkpt lat="42.004893030971289" lon="-7.448200983926654">
        <ele>427.44</ele>
        <time>2025-05-02T10:58:16Z</time>
      </trkpt>
      <trkpt lat="42.004435965791345" lon="-7.447669990360737">
        <ele>426.95999999999998</ele>
        <time>2025-05-02T10:58:20Z</time>
      </trkpt>
      <trkpt lat="42.004327001050115" lon="-7.447574017569423">
        <ele>427.44</ele>
        <time>2025-05-02T10:58:21Z</time>
      </trkpt>
      <trkpt lat="42.004217030480504" lon="-7.44750302284956">
        <ele>427.44</ele>
        <time>2025-05-02T10:58:22Z</time>
      </trkpt>
      <trkpt lat="42.003316981717944" lon="-7.446932969614863">
        <ele>426.48000000000002</ele>
        <time>2025-05-02T10:58:31Z</time>
      </trkpt>
      <trkpt lat="42.00236395932734" lon="-7.446327041834593">
        <ele>424.56</ele>
        <time>2025-05-02T10:58:40Z</time>
      </trkpt>
      <trkpt lat="42.002266980707645" lon="-7.446216987445951">
        <ele>424.07999999999998</ele>
        <time>2025-05-02T10:58:41Z</time>
      </trkpt>
      <trkpt lat="42.001511016860604" lon="-7.445244016125798">
        <ele>419.26999999999998</ele>
        <time>2025-05-02T10:58:49Z</time>
      </trkpt>
      <trkpt lat="42.001046994701028" lon="-7.444586036726832">
        <ele>417.82999999999998</ele>
        <time>2025-05-02T10:58:54Z</time>
      </trkpt>
      <trkpt lat="42.000946998596191" lon="-7.444439018145204">
        <ele>418.31</ele>
        <time>2025-05-02T10:58:55Z</time>
      </trkpt>
      <trkpt lat="42.000907016918063" lon="-7.444284036755562">
        <ele>418.31</ele>
        <time>2025-05-02T10:58:56Z</time>
      </trkpt>
      <trkpt lat="42.000862006098032" lon="-7.444112040102482">
        <ele>418.31</ele>
        <time>2025-05-02T10:58:57Z</time>
      </trkpt>
      <trkpt lat="42.000818001106381" lon="-7.443940965458751">
        <ele>418.31</ele>
        <time>2025-05-02T10:58:58Z</time>
      </trkpt>
      <trkpt lat="42.000337969511747" lon="-7.442181017249823">
        <ele>420.23000000000002</ele>
        <time>2025-05-02T10:59:08Z</time>
      </trkpt>
      <trkpt lat="42.000245014205575" lon="-7.442064005881548">
        <ele>419.75</ele>
        <time>2025-05-02T10:59:09Z</time>
      </trkpt>
      <trkpt lat="42.000122973695397" lon="-7.442010026425123">
        <ele>419.75</ele>
        <time>2025-05-02T10:59:10Z</time>
      </trkpt>
      <trkpt lat="41.999081019312143" lon="-7.441668966785073">
        <ele>419.26999999999998</ele>
        <time>2025-05-02T10:59:18Z</time>
      </trkpt>
      <trkpt lat="41.998721016570926" lon="-7.441552961245179">
        <ele>418.31</ele>
        <time>2025-05-02T10:59:21Z</time>
      </trkpt>
      <trkpt lat="41.998504009097815" lon="-7.441448019817472">
        <ele>417.82999999999998</ele>
        <time>2025-05-02T10:59:23Z</time>
      </trkpt>
      <trkpt lat="41.998398983851075" lon="-7.441385993734002">
        <ele>417.82999999999998</ele>
        <time>2025-05-02T10:59:24Z</time>
      </trkpt>
      <trkpt lat="41.998310973867774" lon="-7.441271999850869">
        <ele>417.82999999999998</ele>
        <time>2025-05-02T10:59:25Z</time>
      </trkpt>
      <trkpt lat="41.998141994699836" lon="-7.440993972122669">
        <ele>418.31</ele>
        <time>2025-05-02T10:59:27Z</time>
      </trkpt>
      <trkpt lat="41.997704962268472" lon="-7.440286036580801">
        <ele>419.26999999999998</ele>
        <time>2025-05-02T10:59:32Z</time>
      </trkpt>
      <trkpt lat="41.996677005663514" lon="-7.439200999215245">
        <ele>420.23000000000002</ele>
        <time>2025-05-02T10:59:41Z</time>
      </trkpt>
      <trkpt lat="41.995935039594769" lon="-7.438431037589908">
        <ele>419.26999999999998</ele>
        <time>2025-05-02T10:59:46Z</time>
      </trkpt>
      <trkpt lat="41.995355011895299" lon="-7.437841035425663">
        <ele>419.75</ele>
        <time>2025-05-02T10:59:50Z</time>
      </trkpt>
      <trkpt lat="41.994260000064969" lon="-7.436728002503514">
        <ele>422.16000000000003</ele>
        <time>2025-05-02T10:59:58Z</time>
      </trkpt>
      <trkpt lat="41.992838010191917" lon="-7.43527801707387">
        <ele>429.85000000000002</ele>
        <time>2025-05-02T11:00:08Z</time>
      </trkpt>
      <trkpt lat="41.992698032408953" lon="-7.435138039290905">
        <ele>430.32999999999998</ele>
        <time>2025-05-02T11:00:09Z</time>
      </trkpt>
      <trkpt lat="41.992546990513802" lon="-7.435051035135984">
        <ele>430.81</ele>
        <time>2025-05-02T11:00:10Z</time>
      </trkpt>
      <trkpt lat="41.992394020780921" lon="-7.434974005445838">
        <ele>431.29000000000002</ele>
        <time>2025-05-02T11:00:11Z</time>
      </trkpt>
      <trkpt lat="41.992226969450712" lon="-7.434949027374387">
        <ele>431.29000000000002</ele>
        <time>2025-05-02T11:00:12Z</time>
      </trkpt>
      <trkpt lat="41.992052961140871" lon="-7.434922959655523">
        <ele>431.29000000000002</ele>
        <time>2025-05-02T11:00:13Z</time>
      </trkpt>
      <trkpt lat="41.991207981482148" lon="-7.434783987700939">
        <ele>434.17000000000002</ele>
        <time>2025-05-02T11:00:18Z</time>
      </trkpt>
      <trkpt lat="41.991073032841086" lon="-7.43470000103116">
        <ele>435.13</ele>
        <time>2025-05-02T11:00:19Z</time>
      </trkpt>
      <trkpt lat="41.990946969017386" lon="-7.434585001319647">
        <ele>436.10000000000002</ele>
        <time>2025-05-02T11:00:20Z</time>
      </trkpt>
      <trkpt lat="41.990827023983002" lon="-7.434429014101625">
        <ele>437.06</ele>
        <time>2025-05-02T11:00:21Z</time>
      </trkpt>
      <trkpt lat="41.990697020664811" lon="-7.434233967214823">
        <ele>437.54000000000002</ele>
        <time>2025-05-02T11:00:22Z</time>
      </trkpt>
      <trkpt lat="41.990576991811395" lon="-7.434007991105318">
        <ele>438.5</ele>
        <time>2025-05-02T11:00:23Z</time>
      </trkpt>
      <trkpt lat="41.990464003756642" lon="-7.433760976418853">
        <ele>438.98000000000002</ele>
        <time>2025-05-02T11:00:24Z</time>
      </trkpt>
      <trkpt lat="41.990242972970009" lon="-7.433314975351095">
        <ele>440.42000000000002</ele>
        <time>2025-05-02T11:00:26Z</time>
      </trkpt>
      <trkpt lat="41.990133002400398" lon="-7.43317399173975">
        <ele>440.42000000000002</ele>
        <time>2025-05-02T11:00:27Z</time>
      </trkpt>
      <trkpt lat="41.989958994090557" lon="-7.433081036433578">
        <ele>440.89999999999998</ele>
        <time>2025-05-02T11:00:28Z</time>
      </trkpt>
      <trkpt lat="41.98979496024549" lon="-7.432992020621896">
        <ele>441.38</ele>
        <time>2025-05-02T11:00:29Z</time>
      </trkpt>
      <trkpt lat="41.989636961370707" lon="-7.432907028123736">
        <ele>441.38</ele>
        <time>2025-05-02T11:00:30Z</time>
      </trkpt>
      <trkpt lat="41.989516010507941" lon="-7.432808959856629">
        <ele>441.86000000000001</ele>
        <time>2025-05-02T11:00:31Z</time>
      </trkpt>
      <trkpt lat="41.989418026059866" lon="-7.432702006772161">
        <ele>441.86000000000001</ele>
        <time>2025-05-02T11:00:32Z</time>
      </trkpt>
      <trkpt lat="41.989335967227817" lon="-7.432605028152466">
        <ele>441.86000000000001</ele>
        <time>2025-05-02T11:00:33Z</time>
      </trkpt>
      <trkpt lat="41.989300008863211" lon="-7.432448035106063">
        <ele>441.86000000000001</ele>
        <time>2025-05-02T11:00:34Z</time>
      </trkpt>
      <trkpt lat="41.989276958629489" lon="-7.432300010696054">
        <ele>441.86000000000001</ele>
        <time>2025-05-02T11:00:35Z</time>
      </trkpt>
      <trkpt lat="41.989287016913295" lon="-7.432130025699735">
        <ele>441.86000000000001</ele>
        <time>2025-05-02T11:00:36Z</time>
      </trkpt>
      <trkpt lat="41.989304032176733" lon="-7.431955011561513">
        <ele>441.86000000000001</ele>
        <time>2025-05-02T11:00:37Z</time>
      </trkpt>
      <trkpt lat="41.989375026896596" lon="-7.431795001029968">
        <ele>441.86000000000001</ele>
        <time>2025-05-02T11:00:38Z</time>
      </trkpt>
      <trkpt lat="41.989451972767711" lon="-7.431623004376888">
        <ele>441.86000000000001</ele>
        <time>2025-05-02T11:00:39Z</time>
      </trkpt>
      <trkpt lat="41.989619024097919" lon="-7.431250009685755">
        <ele>441.38</ele>
        <time>2025-05-02T11:00:41Z</time>
      </trkpt>
      <trkpt lat="41.98968599550426" lon="-7.431042976677418">
        <ele>440.89999999999998</ele>
        <time>2025-05-02T11:00:42Z</time>
      </trkpt>
      <trkpt lat="41.989735029637814" lon="-7.430822029709816">
        <ele>440.42000000000002</ele>
        <time>2025-05-02T11:00:43Z</time>
      </trkpt>
      <trkpt lat="41.989755984395742" lon="-7.430594963952899">
        <ele>440.42000000000002</ele>
        <time>2025-05-02T11:00:44Z</time>
      </trkpt>
      <trkpt lat="41.989766964688897" lon="-7.43037804029882">
        <ele>440.42000000000002</ele>
        <time>2025-05-02T11:00:45Z</time>
      </trkpt>
      <trkpt lat="41.989797977730632" lon="-7.430176958441734">
        <ele>440.42000000000002</ele>
        <time>2025-05-02T11:00:46Z</time>
      </trkpt>
      <trkpt lat="41.989856986328959" lon="-7.429817039519548">
        <ele>439.94</ele>
        <time>2025-05-02T11:00:48Z</time>
      </trkpt>
      <trkpt lat="41.989913983270526" lon="-7.429653005674481">
        <ele>439.45999999999998</ele>
        <time>2025-05-02T11:00:49Z</time>
      </trkpt>
      <trkpt lat="41.990139959380031" lon="-7.429067026823759">
        <ele>438.5</ele>
        <time>2025-05-02T11:00:53Z</time>
      </trkpt>
      <trkpt lat="41.990189999341965" lon="-7.428924031555653">
        <ele>438.01999999999998</ele>
        <time>2025-05-02T11:00:54Z</time>
      </trkpt>
      <trkpt lat="41.990654021501541" lon="-7.427822984755039">
        <ele>432.73000000000002</ele>
        <time>2025-05-02T11:01:02Z</time>
      </trkpt>
      <trkpt lat="41.991466982290149" lon="-7.426420021802187">
        <ele>431.29000000000002</ele>
        <time>2025-05-02T11:01:13Z</time>
      </trkpt>
      <trkpt lat="41.991531020030379" lon="-7.426277026534081">
        <ele>431.29000000000002</ele>
        <time>2025-05-02T11:01:14Z</time>
      </trkpt>
      <trkpt lat="41.991547029465437" lon="-7.426121039316058">
        <ele>430.81</ele>
        <time>2025-05-02T11:01:15Z</time>
      </trkpt>
      <trkpt lat="41.991563960909843" lon="-7.425961028784514">
        <ele>430.81</ele>
        <time>2025-05-02T11:01:16Z</time>
      </trkpt>
      <trkpt lat="41.991574019193649" lon="-7.425798000767827">
        <ele>431.29000000000002</ele>
        <time>2025-05-02T11:01:17Z</time>
      </trkpt>
      <trkpt lat="41.991612995043397" lon="-7.425127029418945">
        <ele>430.81</ele>
        <time>2025-05-02T11:01:21Z</time>
      </trkpt>
      <trkpt lat="41.991612995043397" lon="-7.424982022494078">
        <ele>430.81</ele>
        <time>2025-05-02T11:01:22Z</time>
      </trkpt>
      <trkpt lat="41.991634033620358" lon="-7.424025982618332">
        <ele>429.37</ele>
        <time>2025-05-02T11:01:28Z</time>
      </trkpt>
      <trkpt lat="41.991611989215016" lon="-7.423879969865084">
        <ele>428.88999999999999</ele>
        <time>2025-05-02T11:01:29Z</time>
      </trkpt>
      <trkpt lat="41.991549963131547" lon="-7.423777040094137">
        <ele>428.88999999999999</ele>
        <time>2025-05-02T11:01:30Z</time>
      </trkpt>
      <trkpt lat="41.991454996168613" lon="-7.423723982647061">
        <ele>428.88999999999999</ele>
        <time>2025-05-02T11:01:31Z</time>
      </trkpt>
      <trkpt lat="41.991358017548919" lon="-7.423671009019017">
        <ele>428.39999999999998</ele>
        <time>2025-05-02T11:01:32Z</time>
      </trkpt>
      <trkpt lat="41.991252992302179" lon="-7.423617029562593">
        <ele>428.88999999999999</ele>
        <time>2025-05-02T11:01:33Z</time>
      </trkpt>
      <trkpt lat="41.991141010075808" lon="-7.423561038449407">
        <ele>428.88999999999999</ele>
        <time>2025-05-02T11:01:34Z</time>
      </trkpt>
      <trkpt lat="41.990706995129585" lon="-7.423372026532888">
        <ele>427.92000000000002</ele>
        <time>2025-05-02T11:01:38Z</time>
      </trkpt>
      <trkpt lat="41.990481019020081" lon="-7.423243029043078">
        <ele>427.92000000000002</ele>
        <time>2025-05-02T11:01:40Z</time>
      </trkpt>
      <trkpt lat="41.990387979894876" lon="-7.423150995746255">
        <ele>427.44</ele>
        <time>2025-05-02T11:01:41Z</time>
      </trkpt>
      <trkpt lat="41.990293012931943" lon="-7.423056028783321">
        <ele>427.44</ele>
        <time>2025-05-02T11:01:42Z</time>
      </trkpt>
      <trkpt lat="41.98970602825284" lon="-7.422487987205386">
        <ele>426.48000000000002</ele>
        <time>2025-05-02T11:01:48Z</time>
      </trkpt>
      <trkpt lat="41.989596979692578" lon="-7.422444988042116">
        <ele>426.48000000000002</ele>
        <time>2025-05-02T11:01:49Z</time>
      </trkpt>
      <trkpt lat="41.989482985809445" lon="-7.422426966950297">
        <ele>426.48000000000002</ele>
        <time>2025-05-02T11:01:50Z</time>
      </trkpt>
      <trkpt lat="41.989363040775061" lon="-7.422443982213736">
        <ele>426.48000000000002</ele>
        <time>2025-05-02T11:01:51Z</time>
      </trkpt>
      <trkpt lat="41.989239994436502" lon="-7.422462003305554">
        <ele>426.48000000000002</ele>
        <time>2025-05-02T11:01:52Z</time>
      </trkpt>
      <trkpt lat="41.987767964601517" lon="-7.422695020213723">
        <ele>426.48000000000002</ele>
        <time>2025-05-02T11:02:04Z</time>
      </trkpt>
      <trkpt lat="41.985596967861056" lon="-7.423090981319547">
        <ele>425.51999999999998</ele>
        <time>2025-05-02T11:02:19Z</time>
      </trkpt>
      <trkpt lat="41.983850011602044" lon="-7.423385018482804">
        <ele>424.56</ele>
        <time>2025-05-02T11:02:27Z</time>
      </trkpt>
      <trkpt lat="41.980320978909731" lon="-7.424001004546881">
        <ele>423.60000000000002</ele>
        <time>2025-05-02T11:02:42Z</time>
      </trkpt>
      <trkpt lat="41.976464968174696" lon="-7.424650015309453">
        <ele>422.16000000000003</ele>
        <time>2025-05-02T11:02:59Z</time>
      </trkpt>
      <trkpt lat="41.973516969010234" lon="-7.425148990005255">
        <ele>419.75</ele>
        <time>2025-05-02T11:03:11Z</time>
      </trkpt>
      <trkpt lat="41.97196003049612" lon="-7.425420982763171">
        <ele>417.35000000000002</ele>
        <time>2025-05-02T11:03:17Z</time>
      </trkpt>
      <trkpt lat="41.969870002940297" lon="-7.425786014646292">
        <ele>415.91000000000003</ele>
        <time>2025-05-02T11:03:27Z</time>
      </trkpt>
      <trkpt lat="41.967864967882633" lon="-7.426167977973819">
        <ele>416.38999999999999</ele>
        <time>2025-05-02T11:03:39Z</time>
      </trkpt>
      <trkpt lat="41.965266996994615" lon="-7.426935005933046">
        <ele>415.43000000000001</ele>
        <time>2025-05-02T11:03:55Z</time>
      </trkpt>
      <trkpt lat="41.963536972180009" lon="-7.427469016984105">
        <ele>412.06</ele>
        <time>2025-05-02T11:04:06Z</time>
      </trkpt>
      <trkpt lat="41.962006017565727" lon="-7.427928010001779">
        <ele>404.85000000000002</ele>
        <time>2025-05-02T11:04:15Z</time>
      </trkpt>
      <trkpt lat="41.96083003655076" lon="-7.428266974166036">
        <ele>401.00999999999999</ele>
        <time>2025-05-02T11:04:22Z</time>
      </trkpt>
      <trkpt lat="41.959336968138814" lon="-7.428450034931302">
        <ele>397.63999999999999</ele>
        <time>2025-05-02T11:04:31Z</time>
      </trkpt>
      <trkpt lat="41.957552041858435" lon="-7.428601998835802">
        <ele>395.24000000000001</ele>
        <time>2025-05-02T11:04:42Z</time>
      </trkpt>
      <trkpt lat="41.955700982362032" lon="-7.428796961903572">
        <ele>394.75999999999999</ele>
        <time>2025-05-02T11:04:54Z</time>
      </trkpt>
      <trkpt lat="41.95477101020515" lon="-7.42906903848052">
        <ele>393.80000000000001</ele>
        <time>2025-05-02T11:05:02Z</time>
      </trkpt>
      <trkpt lat="41.953510036692023" lon="-7.42963096126914">
        <ele>393.80000000000001</ele>
        <time>2025-05-02T11:05:13Z</time>
      </trkpt>
      <trkpt lat="41.95230396464467" lon="-7.430348033085465">
        <ele>393.31999999999999</ele>
        <time>2025-05-02T11:05:24Z</time>
      </trkpt>
      <trkpt lat="41.951772971078753" lon="-7.430737037211657">
        <ele>392.83999999999997</ele>
        <time>2025-05-02T11:05:29Z</time>
      </trkpt>
      <trkpt lat="41.951230997219682" lon="-7.431124029681087">
        <ele>391.87</ele>
        <time>2025-05-02T11:05:34Z</time>
      </trkpt>
      <trkpt lat="41.951124966144562" lon="-7.431198041886091">
        <ele>391.87</ele>
        <time>2025-05-02T11:05:35Z</time>
      </trkpt>
      <trkpt lat="41.950063984841108" lon="-7.431950988247991">
        <ele>390.91000000000003</ele>
        <time>2025-05-02T11:05:45Z</time>
      </trkpt>
      <trkpt lat="41.948875011876225" lon="-7.432742994278669">
        <ele>391.87</ele>
        <time>2025-05-02T11:05:56Z</time>
      </trkpt>
      <trkpt lat="41.947711016982794" lon="-7.433152031153441">
        <ele>394.27999999999997</ele>
        <time>2025-05-02T11:06:06Z</time>
      </trkpt>
      <trkpt lat="41.946777021512389" lon="-7.433458976447582">
        <ele>394.75999999999999</ele>
        <time>2025-05-02T11:06:14Z</time>
      </trkpt>
      <trkpt lat="41.946441996842623" lon="-7.433575987815857">
        <ele>394.75999999999999</ele>
        <time>2025-05-02T11:06:17Z</time>
      </trkpt>
      <trkpt lat="41.946326997131109" lon="-7.433617981150746">
        <ele>394.75999999999999</ele>
        <time>2025-05-02T11:06:18Z</time>
      </trkpt>
      <trkpt lat="41.946216020733118" lon="-7.433650000020862">
        <ele>394.75999999999999</ele>
        <time>2025-05-02T11:06:19Z</time>
      </trkpt>
      <trkpt lat="41.946112001314759" lon="-7.433680007234216">
        <ele>394.75999999999999</ele>
        <time>2025-05-02T11:06:20Z</time>
      </trkpt>
      <trkpt lat="41.946018962189555" lon="-7.433709008619189">
        <ele>394.75999999999999</ele>
        <time>2025-05-02T11:06:21Z</time>
      </trkpt>
      <trkpt lat="41.945371041074395" lon="-7.433945965021849">
        <ele>394.27999999999997</ele>
        <time>2025-05-02T11:06:28Z</time>
      </trkpt>
      <trkpt lat="41.945271966978908" lon="-7.433965997770429">
        <ele>394.75999999999999</ele>
        <time>2025-05-02T11:06:29Z</time>
      </trkpt>
      <trkpt lat="41.944222971796989" lon="-7.434315020218492">
        <ele>395.24000000000001</ele>
        <time>2025-05-02T11:06:39Z</time>
      </trkpt>
      <trkpt lat="41.943934969604015" lon="-7.434410993009806">
        <ele>395.24000000000001</ele>
        <time>2025-05-02T11:06:42Z</time>
      </trkpt>
      <trkpt lat="41.943840002641082" lon="-7.434430019930005">
        <ele>395.24000000000001</ele>
        <time>2025-05-02T11:06:43Z</time>
      </trkpt>
      <trkpt lat="41.943740006536245" lon="-7.434457009658217">
        <ele>395.24000000000001</ele>
        <time>2025-05-02T11:06:44Z</time>
      </trkpt>
      <trkpt lat="41.94323499687016" lon="-7.434640992432833">
        <ele>396.19999999999999</ele>
        <time>2025-05-02T11:06:50Z</time>
      </trkpt>
      <trkpt lat="41.943012038245797" lon="-7.43471902795136">
        <ele>396.68000000000001</ele>
        <time>2025-05-02T11:06:57Z</time>
      </trkpt>
      <trkpt lat="41.942554973065853" lon="-7.434834027662873">
        <ele>396.19999999999999</ele>
        <time>2025-05-02T11:07:10Z</time>
      </trkpt>
      <trkpt lat="41.942381970584393" lon="-7.434847019612789">
        <ele>394.75999999999999</ele>
        <time>2025-05-02T11:07:14Z</time>
      </trkpt>
      <trkpt lat="41.942146020010114" lon="-7.434855988249183">
        <ele>393.80000000000001</ele>
        <time>2025-05-02T11:07:19Z</time>
      </trkpt>
      <trkpt lat="41.942103020846844" lon="-7.434862023219466">
        <ele>393.31999999999999</ele>
        <time>2025-05-02T11:07:20Z</time>
      </trkpt>
      <trkpt lat="41.942057004198432" lon="-7.434867974370718">
        <ele>393.31999999999999</ele>
        <time>2025-05-02T11:07:21Z</time>
      </trkpt>
      <trkpt lat="41.94201098755002" lon="-7.434874009341002">
        <ele>392.83999999999997</ele>
        <time>2025-05-02T11:07:22Z</time>
      </trkpt>
      <trkpt lat="41.941964970901608" lon="-7.434879960492253">
        <ele>392.36000000000001</ele>
        <time>2025-05-02T11:07:23Z</time>
      </trkpt>
      <trkpt lat="41.9419239833951" lon="-7.434885995462537">
        <ele>391.87</ele>
        <time>2025-05-02T11:07:24Z</time>
      </trkpt>
      <trkpt lat="41.941895987838507" lon="-7.434890018776059">
        <ele>391.87</ele>
        <time>2025-05-02T11:07:25Z</time>
      </trkpt>
      <trkpt lat="41.94185801781714" lon="-7.434895969927311">
        <ele>391.38999999999999</ele>
        <time>2025-05-02T11:07:26Z</time>
      </trkpt>
      <trkpt lat="41.941647967323661" lon="-7.434925977140665">
        <ele>390.91000000000003</ele>
        <time>2025-05-02T11:07:32Z</time>
      </trkpt>
      <trkpt lat="41.941561968997121" lon="-7.434933017939329">
        <ele>390.43000000000001</ele>
        <time>2025-05-02T11:07:34Z</time>
      </trkpt>
      <trkpt lat="41.94151503033936" lon="-7.434933017939329">
        <ele>390.43000000000001</ele>
        <time>2025-05-02T11:07:35Z</time>
      </trkpt>
      <trkpt lat="41.94147395901382" lon="-7.434933017939329">
        <ele>390.43000000000001</ele>
        <time>2025-05-02T11:07:36Z</time>
      </trkpt>
      <trkpt lat="41.94143095985055" lon="-7.43493502959609">
        <ele>390.43000000000001</ele>
        <time>2025-05-02T11:07:37Z</time>
      </trkpt>
      <trkpt lat="41.94138896651566" lon="-7.434938969090581">
        <ele>389.94999999999999</ele>
        <time>2025-05-02T11:07:38Z</time>
      </trkpt>
      <trkpt lat="41.94134596735239" lon="-7.434942992404103">
        <ele>389.47000000000003</ele>
        <time>2025-05-02T11:07:39Z</time>
      </trkpt>
      <trkpt lat="41.941303974017501" lon="-7.434947015717626">
        <ele>389.47000000000003</ele>
        <time>2025-05-02T11:07:40Z</time>
      </trkpt>
      <trkpt lat="41.941260974854231" lon="-7.434951961040497">
        <ele>388.99000000000001</ele>
        <time>2025-05-02T11:07:41Z</time>
      </trkpt>
      <trkpt lat="41.941218981519341" lon="-7.4349569901824">
        <ele>388.99000000000001</ele>
        <time>2025-05-02T11:07:42Z</time>
      </trkpt>
      <trkpt lat="41.941181011497974" lon="-7.434963025152683">
        <ele>388.99000000000001</ele>
        <time>2025-05-02T11:07:43Z</time>
      </trkpt>
      <trkpt lat="41.94115100428462" lon="-7.434967970475555">
        <ele>388.50999999999999</ele>
        <time>2025-05-02T11:07:44Z</time>
      </trkpt>
      <trkpt lat="41.941124014556408" lon="-7.434971993789077">
        <ele>388.50999999999999</ele>
        <time>2025-05-02T11:07:45Z</time>
      </trkpt>
      <trkpt lat="41.941101970151067" lon="-7.434976017102599">
        <ele>388.02999999999997</ele>
        <time>2025-05-02T11:07:46Z</time>
      </trkpt>
      <trkpt lat="41.941090989857912" lon="-7.43497802875936">
        <ele>388.02999999999997</ele>
        <time>2025-05-02T11:07:47Z</time>
      </trkpt>
      <trkpt lat="41.9410449732095" lon="-7.434982974082232">
        <ele>387.06999999999999</ele>
        <time>2025-05-02T11:07:56Z</time>
      </trkpt>
      <trkpt lat="41.940620010718703" lon="-7.435023039579392">
        <ele>382.25999999999999</ele>
        <time>2025-05-02T11:08:07Z</time>
      </trkpt>
      <trkpt lat="41.940553961321712" lon="-7.435025973245502">
        <ele>380.81999999999999</ele>
        <time>2025-05-02T11:08:15Z</time>
      </trkpt>
      <trkpt lat="41.940553961321712" lon="-7.435025973245502">
        <ele>380.81999999999999</ele>
        <time>2025-05-02T11:08:51Z</time>
      </trkpt>
      <trkpt lat="41.940553961321712" lon="-7.435025973245502">
        <ele>380.33999999999997</ele>
        <time>2025-05-02T11:09:33Z</time>
      </trkpt>
      <trkpt lat="41.940501993522048" lon="-7.435028990730643">
        <ele>380.81999999999999</ele>
        <time>2025-05-02T11:09:52Z</time>
      </trkpt>
      <trkpt lat="41.94046201184392" lon="-7.435031002387404">
        <ele>381.30000000000001</ele>
        <time>2025-05-02T11:09:53Z</time>
      </trkpt>
      <trkpt lat="41.94042001850903" lon="-7.435034019872546">
        <ele>381.77999999999997</ele>
        <time>2025-05-02T11:09:54Z</time>
      </trkpt>
      <trkpt lat="41.940381964668632" lon="-7.435036031529307">
        <ele>381.77999999999997</ele>
        <time>2025-05-02T11:09:55Z</time>
      </trkpt>
      <trkpt lat="41.940283980220556" lon="-7.435078024864197">
        <ele>381.77999999999997</ele>
        <time>2025-05-02T11:09:56Z</time>
      </trkpt>
      <trkpt lat="41.940278029069304" lon="-7.43515002541244">
        <ele>381.77999999999997</ele>
        <time>2025-05-02T11:09:57Z</time>
      </trkpt>
      <trkpt lat="41.94027098827064" lon="-7.435237029567361">
        <ele>381.77999999999997</ele>
        <time>2025-05-02T11:09:58Z</time>
      </trkpt>
      <trkpt lat="41.940264031291008" lon="-7.435328979045153">
        <ele>381.30000000000001</ele>
        <time>2025-05-02T11:09:59Z</time>
      </trkpt>
      <trkpt lat="41.940222959965467" lon="-7.435910012573004">
        <ele>380.81999999999999</ele>
        <time>2025-05-02T11:10:09Z</time>
      </trkpt>
      <trkpt lat="41.940193958580494" lon="-7.43631100282073">
        <ele>379.38</ele>
        <time>2025-05-02T11:10:21Z</time>
      </trkpt>
      <trkpt lat="41.940179038792849" lon="-7.436572015285492">
        <ele>378.89999999999998</ele>
        <time>2025-05-02T11:10:25Z</time>
      </trkpt>
      <trkpt lat="41.940179038792849" lon="-7.436915002763271">
        <ele>376.97000000000003</ele>
        <time>2025-05-02T11:10:35Z</time>
      </trkpt>
      <trkpt lat="41.940179038792849" lon="-7.437008963897824">
        <ele>376.97000000000003</ele>
        <time>2025-05-02T11:10:44Z</time>
      </trkpt>
      <trkpt lat="41.940179038792849" lon="-7.4370620213449">
        <ele>376.97000000000003</ele>
        <time>2025-05-02T11:10:45Z</time>
      </trkpt>
      <trkpt lat="41.940179038792849" lon="-7.437266958877444">
        <ele>376.49000000000001</ele>
        <time>2025-05-02T11:10:48Z</time>
      </trkpt>
      <trkpt lat="41.940179038792849" lon="-7.437335019931197">
        <ele>376.97000000000003</ele>
        <time>2025-05-02T11:10:49Z</time>
      </trkpt>
      <trkpt lat="41.940170992165804" lon="-7.437445996329188">
        <ele>376.97000000000003</ele>
        <time>2025-05-02T11:10:50Z</time>
      </trkpt>
      <trkpt lat="41.940150959417224" lon="-7.437450019642711">
        <ele>376.97000000000003</ele>
        <time>2025-05-02T11:10:51Z</time>
      </trkpt>
      <trkpt lat="41.940131010487676" lon="-7.437453959137201">
        <ele>376.97000000000003</ele>
        <time>2025-05-02T11:10:52Z</time>
      </trkpt>
      <trkpt lat="41.940107960253954" lon="-7.437458988279104">
        <ele>376.97000000000003</ele>
        <time>2025-05-02T11:10:53Z</time>
      </trkpt>
      <trkpt lat="41.940107960253954" lon="-7.437458988279104">
        <ele>376.49000000000001</ele>
        <time>2025-05-02T11:10:54Z</time>
      </trkpt>
      <trkpt lat="41.939761033281684" lon="-7.437542974948883">
        <ele>372.64999999999998</ele>
        <time>2025-05-02T11:11:09Z</time>
      </trkpt>
      <trkpt lat="41.939316038042307" lon="-7.437674989923835">
        <ele>372.17000000000002</ele>
        <time>2025-05-02T11:11:17Z</time>
      </trkpt>
      <trkpt lat="41.939269015565515" lon="-7.437687981873751">
        <ele>372.64999999999998</ele>
        <time>2025-05-02T11:11:18Z</time>
      </trkpt>
      <trkpt lat="41.939222998917103" lon="-7.437701979652047">
        <ele>373.13</ele>
        <time>2025-05-02T11:11:19Z</time>
      </trkpt>
      <trkpt lat="41.939178993925452" lon="-7.437713965773583">
        <ele>373.13</ele>
        <time>2025-05-02T11:11:20Z</time>
      </trkpt>
      <trkpt lat="41.939133983105421" lon="-7.437727963551879">
        <ele>373.13</ele>
        <time>2025-05-02T11:11:21Z</time>
      </trkpt>
      <trkpt lat="41.939087966457009" lon="-7.437742967158556">
        <ele>373.13</ele>
        <time>2025-05-02T11:11:22Z</time>
      </trkpt>
      <trkpt lat="41.939035998657346" lon="-7.437759982421994">
        <ele>373.13</ele>
        <time>2025-05-02T11:11:23Z</time>
      </trkpt>
      <trkpt lat="41.938735004514456" lon="-7.437854027375579">
        <ele>372.64999999999998</ele>
        <time>2025-05-02T11:11:30Z</time>
      </trkpt>
      <trkpt lat="41.938693011179566" lon="-7.437868025153875">
        <ele>372.64999999999998</ele>
        <time>2025-05-02T11:11:31Z</time>
      </trkpt>
      <trkpt lat="41.938651017844677" lon="-7.437882022932172">
        <ele>372.17000000000002</ele>
        <time>2025-05-02T11:11:32Z</time>
      </trkpt>
      <trkpt lat="41.938602989539504" lon="-7.43789803236723">
        <ele>372.17000000000002</ele>
        <time>2025-05-02T11:11:33Z</time>
      </trkpt>
      <trkpt lat="41.93855001591146" lon="-7.437914963811636">
        <ele>372.17000000000002</ele>
        <time>2025-05-02T11:11:34Z</time>
      </trkpt>
      <trkpt lat="41.938496036455035" lon="-7.437932984903455">
        <ele>372.17000000000002</ele>
        <time>2025-05-02T11:11:35Z</time>
      </trkpt>
      <trkpt lat="41.938296966254711" lon="-7.43798797018826">
        <ele>372.64999999999998</ele>
        <time>2025-05-02T11:11:39Z</time>
      </trkpt>
      <trkpt lat="41.938197975978255" lon="-7.438015965744853">
        <ele>372.64999999999998</ele>
        <time>2025-05-02T11:11:41Z</time>
      </trkpt>
      <trkpt lat="41.937556006014347" lon="-7.438198020681739">
        <ele>374.08999999999997</ele>
        <time>2025-05-02T11:11:50Z</time>
      </trkpt>
      <trkpt lat="41.937444023787975" lon="-7.438229033723474">
        <ele>374.56999999999999</ele>
        <time>2025-05-02T11:11:52Z</time>
      </trkpt>
      <trkpt lat="41.937385015189648" lon="-7.4382449593395">
        <ele>375.05000000000001</ele>
        <time>2025-05-02T11:11:53Z</time>
      </trkpt>
      <trkpt lat="41.937082009389997" lon="-7.438328023999929">
        <ele>376.49000000000001</ele>
        <time>2025-05-02T11:11:58Z</time>
      </trkpt>
      <trkpt lat="41.93693901412189" lon="-7.438365994021297">
        <ele>376.97000000000003</ele>
        <time>2025-05-02T11:12:00Z</time>
      </trkpt>
      <trkpt lat="41.936886962503195" lon="-7.438375968486071">
        <ele>377.44999999999999</ele>
        <time>2025-05-02T11:12:01Z</time>
      </trkpt>
      <trkpt lat="41.936522014439106" lon="-7.438446041196585">
        <ele>378.42000000000002</ele>
        <time>2025-05-02T11:12:06Z</time>
      </trkpt>
      <trkpt lat="41.93638002499938" lon="-7.438471019268036">
        <ele>378.89999999999998</ele>
        <time>2025-05-02T11:12:08Z</time>
      </trkpt>
      <trkpt lat="41.935403030365705" lon="-7.438639998435974">
        <ele>378.89999999999998</ele>
        <time>2025-05-02T11:12:19Z</time>
      </trkpt>
      <trkpt lat="41.935001034289598" lon="-7.438723985105753">
        <ele>379.38</ele>
        <time>2025-05-02T11:12:24Z</time>
      </trkpt>
      <trkpt lat="41.934914030134678" lon="-7.438743012025952">
        <ele>379.38</ele>
        <time>2025-05-02T11:12:25Z</time>
      </trkpt>
      <trkpt lat="41.934825014322996" lon="-7.438762038946152">
        <ele>379.86000000000001</ele>
        <time>2025-05-02T11:12:26Z</time>
      </trkpt>
      <trkpt lat="41.934737004339695" lon="-7.438779976218939">
        <ele>379.86000000000001</ele>
        <time>2025-05-02T11:12:27Z</time>
      </trkpt>
      <trkpt lat="41.934650000184774" lon="-7.438797997310758">
        <ele>379.86000000000001</ele>
        <time>2025-05-02T11:12:28Z</time>
      </trkpt>
      <trkpt lat="41.93423300050199" lon="-7.438887013122439">
        <ele>379.38</ele>
        <time>2025-05-02T11:12:33Z</time>
      </trkpt>
      <trkpt lat="41.934140967205167" lon="-7.438912997022271">
        <ele>379.38</ele>
        <time>2025-05-02T11:12:34Z</time>
      </trkpt>
      <trkpt lat="41.933941980823874" lon="-7.438968988135457">
        <ele>379.86000000000001</ele>
        <time>2025-05-02T11:12:36Z</time>
      </trkpt>
      <trkpt lat="41.933302022516727" lon="-7.439307030290365">
        <ele>379.86000000000001</ele>
        <time>2025-05-02T11:12:43Z</time>
      </trkpt>
      <trkpt lat="41.933213006705046" lon="-7.439369978383184">
        <ele>380.33999999999997</ele>
        <time>2025-05-02T11:12:44Z</time>
      </trkpt>
      <trkpt lat="41.932284962385893" lon="-7.440002979710698">
        <ele>381.77999999999997</ele>
        <time>2025-05-02T11:12:55Z</time>
      </trkpt>
      <trkpt lat="41.932195024564862" lon="-7.440057964995503">
        <ele>381.77999999999997</ele>
        <time>2025-05-02T11:12:56Z</time>
      </trkpt>
      <trkpt lat="41.932107014581561" lon="-7.44011303409934">
        <ele>381.77999999999997</ele>
        <time>2025-05-02T11:12:57Z</time>
      </trkpt>
      <trkpt lat="41.930992975831032" lon="-7.440572027117014">
        <ele>380.33999999999997</ele>
        <time>2025-05-02T11:13:08Z</time>
      </trkpt>
      <trkpt lat="41.929959990084171" lon="-7.440874027088285">
        <ele>377.94</ele>
        <time>2025-05-02T11:13:18Z</time>
      </trkpt>
      <trkpt lat="41.928602959960699" lon="-7.44125297293067">
        <ele>375.52999999999997</ele>
        <time>2025-05-02T11:13:31Z</time>
      </trkpt>
      <trkpt lat="41.927372999489307" lon="-7.441591015085578">
        <ele>375.05000000000001</ele>
        <time>2025-05-02T11:13:41Z</time>
      </trkpt>
      <trkpt lat="41.926350994035602" lon="-7.441931990906596">
        <ele>377.94</ele>
        <time>2025-05-02T11:13:50Z</time>
      </trkpt>
      <trkpt lat="41.926267007365823" lon="-7.441959986463189">
        <ele>377.94</ele>
        <time>2025-05-02T11:13:51Z</time>
      </trkpt>
      <trkpt lat="41.926186038181186" lon="-7.441986976191402">
        <ele>378.42000000000002</ele>
        <time>2025-05-02T11:13:52Z</time>
      </trkpt>
      <trkpt lat="41.926105991005898" lon="-7.442016983404756">
        <ele>378.89999999999998</ele>
        <time>2025-05-02T11:13:53Z</time>
      </trkpt>
      <trkpt lat="41.926026027649641" lon="-7.442049002274871">
        <ele>379.38</ele>
        <time>2025-05-02T11:13:54Z</time>
      </trkpt>
      <trkpt lat="41.925940029323101" lon="-7.442083032801747">
        <ele>379.38</ele>
        <time>2025-05-02T11:13:55Z</time>
      </trkpt>
      <trkpt lat="41.925845984369516" lon="-7.442119996994734">
        <ele>379.38</ele>
        <time>2025-05-02T11:13:56Z</time>
      </trkpt>
      <trkpt lat="41.925749005749822" lon="-7.442157967016101">
        <ele>379.86000000000001</ele>
        <time>2025-05-02T11:13:57Z</time>
      </trkpt>
      <trkpt lat="41.924681989476085" lon="-7.442578990012407">
        <ele>378.89999999999998</ele>
        <time>2025-05-02T11:14:06Z</time>
      </trkpt>
      <trkpt lat="41.923177018761635" lon="-7.443173015490174">
        <ele>379.38</ele>
        <time>2025-05-02T11:14:18Z</time>
      </trkpt>
      <trkpt lat="41.921395026147366" lon="-7.443684982135892">
        <ele>380.33999999999997</ele>
        <time>2025-05-02T11:14:32Z</time>
      </trkpt>
      <trkpt lat="41.919598029926419" lon="-7.443795036524534">
        <ele>383.22000000000003</ele>
        <time>2025-05-02T11:14:46Z</time>
      </trkpt>
      <trkpt lat="41.918170005083084" lon="-7.443706020712853">
        <ele>382.25999999999999</ele>
        <time>2025-05-02T11:14:57Z</time>
      </trkpt>
      <trkpt lat="41.917068036273122" lon="-7.443409971892834">
        <ele>380.33999999999997</ele>
        <time>2025-05-02T11:15:06Z</time>
      </trkpt>
      <trkpt lat="41.915310015901923" lon="-7.443302012979984">
        <ele>381.30000000000001</ele>
        <time>2025-05-02T11:15:20Z</time>
      </trkpt>
      <trkpt lat="41.913583008572459" lon="-7.443226994946599">
        <ele>380.33999999999997</ele>
        <time>2025-05-02T11:15:35Z</time>
      </trkpt>
      <trkpt lat="41.913494998589158" lon="-7.443219032138586">
        <ele>380.33999999999997</ele>
        <time>2025-05-02T11:15:36Z</time>
      </trkpt>
      <trkpt lat="41.913406988605857" lon="-7.443364961072803">
        <ele>379.86000000000001</ele>
        <time>2025-05-02T11:15:37Z</time>
      </trkpt>
      <trkpt lat="41.91326298750937" lon="-7.443541986867786">
        <ele>379.86000000000001</ele>
        <time>2025-05-02T11:15:39Z</time>
      </trkpt>
      <trkpt lat="41.913140024989843" lon="-7.443546010181308">
        <ele>379.86000000000001</ele>
        <time>2025-05-02T11:15:40Z</time>
      </trkpt>
      <trkpt lat="41.913067018613219" lon="-7.443492030724883">
        <ele>379.86000000000001</ele>
        <time>2025-05-02T11:15:41Z</time>
      </trkpt>
      <trkpt lat="41.913013961166143" lon="-7.443451965227723">
        <ele>379.86000000000001</ele>
        <time>2025-05-02T11:15:42Z</time>
      </trkpt>
      <trkpt lat="41.912954030558467" lon="-7.443321039900184">
        <ele>379.86000000000001</ele>
        <time>2025-05-02T11:15:43Z</time>
      </trkpt>
      <trkpt lat="41.912845987826586" lon="-7.44320897385478">
        <ele>379.86000000000001</ele>
        <time>2025-05-02T11:15:44Z</time>
      </trkpt>
      <trkpt lat="41.912754960358143" lon="-7.443198999390006">
        <ele>379.38</ele>
        <time>2025-05-02T11:15:45Z</time>
      </trkpt>
      <trkpt lat="41.912656975910068" lon="-7.443188019096851">
        <ele>379.86000000000001</ele>
        <time>2025-05-02T11:15:46Z</time>
      </trkpt>
      <trkpt lat="41.912553962320089" lon="-7.443177038803697">
        <ele>379.86000000000001</ele>
        <time>2025-05-02T11:15:47Z</time>
      </trkpt>
      <trkpt lat="41.912451032549143" lon="-7.443173015490174">
        <ele>379.86000000000001</ele>
        <time>2025-05-02T11:15:48Z</time>
      </trkpt>
      <trkpt lat="41.912351036444306" lon="-7.443171003833413">
        <ele>379.86000000000001</ele>
        <time>2025-05-02T11:15:49Z</time>
      </trkpt>
      <trkpt lat="41.912249028682709" lon="-7.44316203519702">
        <ele>379.86000000000001</ele>
        <time>2025-05-02T11:15:50Z</time>
      </trkpt>
      <trkpt lat="41.912150960415602" lon="-7.443152982741594">
        <ele>379.86000000000001</ele>
        <time>2025-05-02T11:15:51Z</time>
      </trkpt>
      <trkpt lat="41.912065967917442" lon="-7.443145019933581">
        <ele>379.86000000000001</ele>
        <time>2025-05-02T11:15:52Z</time>
      </trkpt>
      <trkpt lat="41.911990027874708" lon="-7.443138984963298">
        <ele>379.86000000000001</ele>
        <time>2025-05-02T11:15:53Z</time>
      </trkpt>
      <trkpt lat="41.911854995414615" lon="-7.443345012143254">
        <ele>380.33999999999997</ele>
        <time>2025-05-02T11:15:54Z</time>
      </trkpt>
      <trkpt lat="41.911690961569548" lon="-7.443504016846418">
        <ele>380.81999999999999</ele>
        <time>2025-05-02T11:15:57Z</time>
      </trkpt>
      <trkpt lat="41.911604963243008" lon="-7.443519020453095">
        <ele>380.81999999999999</ele>
        <time>2025-05-02T11:15:58Z</time>
      </trkpt>
      <trkpt lat="41.911519970744848" lon="-7.443533018231392">
        <ele>380.81999999999999</ele>
        <time>2025-05-02T11:15:59Z</time>
      </trkpt>
      <trkpt lat="41.911417040973902" lon="-7.443438973277807">
        <ele>381.30000000000001</ele>
        <time>2025-05-02T11:16:00Z</time>
      </trkpt>
      <trkpt lat="41.911356020718813" lon="-7.443359009921551">
        <ele>381.30000000000001</ele>
        <time>2025-05-02T11:16:01Z</time>
      </trkpt>
      <trkpt lat="41.911297012120485" lon="-7.443279968574643">
        <ele>381.30000000000001</ele>
        <time>2025-05-02T11:16:02Z</time>
      </trkpt>
      <trkpt lat="41.911191986873746" lon="-7.443234035745263">
        <ele>381.30000000000001</ele>
        <time>2025-05-02T11:16:03Z</time>
      </trkpt>
      <trkpt lat="41.91109299659729" lon="-7.443191036581993">
        <ele>381.30000000000001</ele>
        <time>2025-05-02T11:16:04Z</time>
      </trkpt>
      <trkpt lat="41.910954024642706" lon="-7.443130016326904">
        <ele>381.30000000000001</ele>
        <time>2025-05-02T11:16:05Z</time>
      </trkpt>
      <trkpt lat="41.909854989498854" lon="-7.443063966929913">
        <ele>380.81999999999999</ele>
        <time>2025-05-02T11:16:15Z</time>
      </trkpt>
      <trkpt lat="41.908810017630458" lon="-7.443023985251784">
        <ele>381.30000000000001</ele>
        <time>2025-05-02T11:16:27Z</time>
      </trkpt>
      <trkpt lat="41.908379020169377" lon="-7.443007975816727">
        <ele>382.25999999999999</ele>
        <time>2025-05-02T11:16:32Z</time>
      </trkpt>
      <trkpt lat="41.908298972994089" lon="-7.443004958331585">
        <ele>382.25999999999999</ele>
        <time>2025-05-02T11:16:33Z</time>
      </trkpt>
      <trkpt lat="41.908185984939337" lon="-7.443130016326904">
        <ele>382.25999999999999</ele>
        <time>2025-05-02T11:16:34Z</time>
      </trkpt>
      <trkpt lat="41.908153966069221" lon="-7.44314300827682">
        <ele>382.25999999999999</ele>
        <time>2025-05-02T11:16:35Z</time>
      </trkpt>
      <trkpt lat="41.908068973571062" lon="-7.443173015490174">
        <ele>382.25999999999999</ele>
        <time>2025-05-02T11:16:36Z</time>
      </trkpt>
      <trkpt lat="41.907982975244522" lon="-7.443147031590343">
        <ele>382.25999999999999</ele>
        <time>2025-05-02T11:16:37Z</time>
      </trkpt>
      <trkpt lat="41.907950034365058" lon="-7.443130016326904">
        <ele>381.77999999999997</ele>
        <time>2025-05-02T11:16:38Z</time>
      </trkpt>
      <trkpt lat="41.907820031046867" lon="-7.442976040765643">
        <ele>381.77999999999997</ele>
        <time>2025-05-02T11:16:39Z</time>
      </trkpt>
      <trkpt lat="41.90772196277976" lon="-7.44297101162374">
        <ele>381.77999999999997</ele>
        <time>2025-05-02T11:16:40Z</time>
      </trkpt>
      <trkpt lat="41.907615009695292" lon="-7.442965982481837">
        <ele>381.77999999999997</ele>
        <time>2025-05-02T11:16:41Z</time>
      </trkpt>
      <trkpt lat="41.907494980841875" lon="-7.442960031330586">
        <ele>381.77999999999997</ele>
        <time>2025-05-02T11:16:42Z</time>
      </trkpt>
      <trkpt lat="41.906406003981829" lon="-7.442805971950293">
        <ele>382.25999999999999</ele>
        <time>2025-05-02T11:16:49Z</time>
      </trkpt>
      <trkpt lat="41.903729997575283" lon="-7.442324012517929">
        <ele>383.69999999999999</ele>
        <time>2025-05-02T11:17:04Z</time>
      </trkpt>
      <trkpt lat="41.900532972067595" lon="-7.441761000081897">
        <ele>383.22000000000003</ele>
        <time>2025-05-02T11:17:20Z</time>
      </trkpt>
      <trkpt lat="41.897808015346527" lon="-7.441472997888923">
        <ele>383.69999999999999</ele>
        <time>2025-05-02T11:17:34Z</time>
      </trkpt>
      <trkpt lat="41.894630016759038" lon="-7.441609958186746">
        <ele>384.66000000000003</ele>
        <time>2025-05-02T11:17:50Z</time>
      </trkpt>
      <trkpt lat="41.891357973217964" lon="-7.441737027838826">
        <ele>384.66000000000003</ele>
        <time>2025-05-02T11:18:06Z</time>
      </trkpt>
      <trkpt lat="41.889524012804031" lon="-7.441697968170047">
        <ele>384.66000000000003</ele>
        <time>2025-05-02T11:18:15Z</time>
      </trkpt>
      <trkpt lat="41.889330977573991" lon="-7.441615993157029">
        <ele>384.66000000000003</ele>
        <time>2025-05-02T11:18:16Z</time>
      </trkpt>
      <trkpt lat="41.887054033577442" lon="-7.440622989088297">
        <ele>387.06999999999999</ele>
        <time>2025-05-02T11:18:28Z</time>
      </trkpt>
      <trkpt lat="41.884078960865736" lon="-7.439501993358135">
        <ele>386.11000000000001</ele>
        <time>2025-05-02T11:18:43Z</time>
      </trkpt>
      <trkpt lat="41.881866976618767" lon="-7.438785005360842">
        <ele>388.99000000000001</ele>
        <time>2025-05-02T11:18:56Z</time>
      </trkpt>
      <trkpt lat="41.881387028843164" lon="-7.438668999820948">
        <ele>388.99000000000001</ele>
        <time>2025-05-02T11:18:59Z</time>
      </trkpt>
      <trkpt lat="41.881234981119633" lon="-7.438633963465691">
        <ele>388.50999999999999</ele>
        <time>2025-05-02T11:19:00Z</time>
      </trkpt>
      <trkpt lat="41.881075976416469" lon="-7.438636980950832">
        <ele>388.50999999999999</ele>
        <time>2025-05-02T11:19:01Z</time>
      </trkpt>
      <trkpt lat="41.880911020562053" lon="-7.438655002042651">
        <ele>388.50999999999999</ele>
        <time>2025-05-02T11:19:02Z</time>
      </trkpt>
      <trkpt lat="41.880741035565734" lon="-7.438678974285722">
        <ele>388.02999999999997</ele>
        <time>2025-05-02T11:19:03Z</time>
      </trkpt>
      <trkpt lat="41.878891987726092" lon="-7.439096979796886">
        <ele>389.94999999999999</ele>
        <time>2025-05-02T11:19:14Z</time>
      </trkpt>
      <trkpt lat="41.876346990466118" lon="-7.4396419711411">
        <ele>388.99000000000001</ele>
        <time>2025-05-02T11:19:29Z</time>
      </trkpt>
      <trkpt lat="41.874462990090251" lon="-7.440057964995503">
        <ele>387.06999999999999</ele>
        <time>2025-05-02T11:19:41Z</time>
      </trkpt>
      <trkpt lat="41.872553005814552" lon="-7.440338004380465">
        <ele>384.18000000000001</ele>
        <time>2025-05-02T11:19:54Z</time>
      </trkpt>
      <trkpt lat="41.871229000389576" lon="-7.440389972180128">
        <ele>382.25999999999999</ele>
        <time>2025-05-02T11:20:05Z</time>
      </trkpt>
      <trkpt lat="41.870013037696481" lon="-7.440443029627204">
        <ele>380.33999999999997</ele>
        <time>2025-05-02T11:20:15Z</time>
      </trkpt>
      <trkpt lat="41.868072040379047" lon="-7.44049902074039">
        <ele>376.00999999999999</ele>
        <time>2025-05-02T11:20:31Z</time>
      </trkpt>
      <trkpt lat="41.866750968620181" lon="-7.440361976623535">
        <ele>372.64999999999998</ele>
        <time>2025-05-02T11:20:42Z</time>
      </trkpt>
      <trkpt lat="41.865224959328771" lon="-7.439696034416556">
        <ele>371.69</ele>
        <time>2025-05-02T11:20:55Z</time>
      </trkpt>
      <trkpt lat="41.863381024450064" lon="-7.438876032829285">
        <ele>372.17000000000002</ele>
        <time>2025-05-02T11:21:08Z</time>
      </trkpt>
      <trkpt lat="41.861460981890559" lon="-7.438005991280079">
        <ele>374.56999999999999</ele>
        <time>2025-05-02T11:21:22Z</time>
      </trkpt>
      <trkpt lat="41.859437003731728" lon="-7.43710401467979">
        <ele>375.52999999999997</ele>
        <time>2025-05-02T11:21:36Z</time>
      </trkpt>
      <trkpt lat="41.858236966654658" lon="-7.436572015285492">
        <ele>374.56999999999999</ele>
        <time>2025-05-02T11:21:44Z</time>
      </trkpt>
      <trkpt lat="41.856080973520875" lon="-7.435598960146308">
        <ele>377.94</ele>
        <time>2025-05-02T11:21:59Z</time>
      </trkpt>
      <trkpt lat="41.854332005605102" lon="-7.434815000742674">
        <ele>383.22000000000003</ele>
        <time>2025-05-02T11:22:11Z</time>
      </trkpt>
      <trkpt lat="41.853236993774772" lon="-7.434229021891952">
        <ele>386.58999999999997</ele>
        <time>2025-05-02T11:22:20Z</time>
      </trkpt>
      <trkpt lat="41.851774016395211" lon="-7.433035019785166">
        <ele>383.69999999999999</ele>
        <time>2025-05-02T11:22:33Z</time>
      </trkpt>
      <trkpt lat="41.850427966564894" lon="-7.431643959134817">
        <ele>383.69999999999999</ele>
        <time>2025-05-02T11:22:46Z</time>
      </trkpt>
      <trkpt lat="41.850025970488787" lon="-7.431116988882422">
        <ele>384.66000000000003</ele>
        <time>2025-05-02T11:22:50Z</time>
      </trkpt>
      <trkpt lat="41.848975969478488" lon="-7.430283995345235">
        <ele>384.18000000000001</ele>
        <time>2025-05-02T11:22:58Z</time>
      </trkpt>
      <trkpt lat="41.846827017143369" lon="-7.429232988506556">
        <ele>379.38</ele>
        <time>2025-05-02T11:23:11Z</time>
      </trkpt>
      <trkpt lat="41.844088984653354" lon="-7.428004033863545">
        <ele>376.49000000000001</ele>
        <time>2025-05-02T11:23:28Z</time>
      </trkpt>
      <trkpt lat="41.841516997665167" lon="-7.426853030920029">
        <ele>375.05000000000001</ele>
        <time>2025-05-02T11:23:44Z</time>
      </trkpt>
      <trkpt lat="41.838948028162122" lon="-7.425562972202897">
        <ele>372.17000000000002</ele>
        <time>2025-05-02T11:24:00Z</time>
      </trkpt>
      <trkpt lat="41.836462039500475" lon="-7.424182975664735">
        <ele>372.64999999999998</ele>
        <time>2025-05-02T11:24:16Z</time>
      </trkpt>
      <trkpt lat="41.836058031767607" lon="-7.423895979300141">
        <ele>376.00999999999999</ele>
        <time>2025-05-02T11:24:21Z</time>
      </trkpt>
      <trkpt lat="41.835731975734234" lon="-7.423671009019017">
        <ele>378.89999999999998</ele>
        <time>2025-05-02T11:24:28Z</time>
      </trkpt>
      <trkpt lat="41.835511028766632" lon="-7.423559026792646">
        <ele>379.86000000000001</ele>
        <time>2025-05-02T11:24:31Z</time>
      </trkpt>
      <trkpt lat="41.835417989641428" lon="-7.42354704067111">
        <ele>379.86000000000001</ele>
        <time>2025-05-02T11:24:32Z</time>
      </trkpt>
      <trkpt lat="41.83531497605145" lon="-7.42354704067111">
        <ele>379.86000000000001</ele>
        <time>2025-05-02T11:24:33Z</time>
      </trkpt>
      <trkpt lat="41.834893031045794" lon="-7.423619963228703">
        <ele>379.86000000000001</ele>
        <time>2025-05-02T11:24:37Z</time>
      </trkpt>
      <trkpt lat="41.834785994142294" lon="-7.423599008470774">
        <ele>379.86000000000001</ele>
        <time>2025-05-02T11:24:38Z</time>
      </trkpt>
      <trkpt lat="41.834680968895555" lon="-7.423557015135884">
        <ele>379.86000000000001</ele>
        <time>2025-05-02T11:24:39Z</time>
      </trkpt>
      <trkpt lat="41.834570998325944" lon="-7.42350697517395">
        <ele>379.38</ele>
        <time>2025-05-02T11:24:40Z</time>
      </trkpt>
      <trkpt lat="41.834457004442811" lon="-7.423455007374287">
        <ele>378.89999999999998</ele>
        <time>2025-05-02T11:24:41Z</time>
      </trkpt>
      <trkpt lat="41.834337981417775" lon="-7.423400022089481">
        <ele>378.42000000000002</ele>
        <time>2025-05-02T11:24:42Z</time>
      </trkpt>
      <trkpt lat="41.833687964826822" lon="-7.423196006566286">
        <ele>376.00999999999999</ele>
        <time>2025-05-02T11:24:47Z</time>
      </trkpt>
      <trkpt lat="41.833545975387096" lon="-7.423196006566286">
        <ele>375.52999999999997</ele>
        <time>2025-05-02T11:24:48Z</time>
      </trkpt>
      <trkpt lat="41.832090960815549" lon="-7.423303965479136">
        <ele>374.08999999999997</ele>
        <time>2025-05-02T11:24:59Z</time>
      </trkpt>
      <trkpt lat="41.830810038372874" lon="-7.423500018194318">
        <ele>371.20999999999998</ele>
        <time>2025-05-02T11:25:11Z</time>
      </trkpt>
      <trkpt lat="41.830139989033341" lon="-7.423604959622026">
        <ele>370.73000000000002</ele>
        <time>2025-05-02T11:25:20Z</time>
      </trkpt>
      <trkpt lat="41.829629028216004" lon="-7.423750972375274">
        <ele>370.24000000000001</ele>
        <time>2025-05-02T11:25:27Z</time>
      </trkpt>
      <trkpt lat="41.828792011365294" lon="-7.423992035910487">
        <ele>369.75999999999999</ele>
        <time>2025-05-02T11:25:36Z</time>
      </trkpt>
      <trkpt lat="41.827964968979359" lon="-7.424248019233346">
        <ele>368.31999999999999</ele>
        <time>2025-05-02T11:25:43Z</time>
      </trkpt>
      <trkpt lat="41.826182976365089" lon="-7.424956960603595">
        <ele>368.31999999999999</ele>
        <time>2025-05-02T11:25:57Z</time>
      </trkpt>
      <trkpt lat="41.825544023886323" lon="-7.425307994708419">
        <ele>368.80000000000001</ele>
        <time>2025-05-02T11:26:06Z</time>
      </trkpt>
      <trkpt lat="41.825335985049605" lon="-7.425420982763171">
        <ele>368.80000000000001</ele>
        <time>2025-05-02T11:26:10Z</time>
      </trkpt>
      <trkpt lat="41.825288040563464" lon="-7.425445960834622">
        <ele>368.80000000000001</ele>
        <time>2025-05-02T11:26:11Z</time>
      </trkpt>
      <trkpt lat="41.825245963409543" lon="-7.425468005239964">
        <ele>368.80000000000001</ele>
        <time>2025-05-02T11:26:12Z</time>
      </trkpt>
      <trkpt lat="41.825210005044937" lon="-7.425487032160163">
        <ele>368.80000000000001</ele>
        <time>2025-05-02T11:26:13Z</time>
      </trkpt>
      <trkpt lat="41.825181003659964" lon="-7.42550203576684">
        <ele>368.80000000000001</ele>
        <time>2025-05-02T11:26:14Z</time>
      </trkpt>
      <trkpt lat="41.825161976739764" lon="-7.425512010231614">
        <ele>368.31999999999999</ele>
        <time>2025-05-02T11:26:15Z</time>
      </trkpt>
      <trkpt lat="41.824974976480007" lon="-7.42546197026968">
        <ele>368.31999999999999</ele>
        <time>2025-05-02T11:26:16Z</time>
      </trkpt>
      <trkpt lat="41.824972964823246" lon="-7.425448978319764">
        <ele>368.31999999999999</ele>
        <time>2025-05-02T11:26:17Z</time>
      </trkpt>
      <trkpt lat="41.824972964823246" lon="-7.425448978319764">
        <ele>367.83999999999997</ele>
        <time>2025-05-02T11:26:26Z</time>
      </trkpt>
      <trkpt lat="41.825011018663645" lon="-7.425321992486715">
        <ele>367.36000000000001</ele>
        <time>2025-05-02T11:26:32Z</time>
      </trkpt>
      <trkpt lat="41.825011018663645" lon="-7.425321992486715">
        <ele>366.39999999999998</ele>
        <time>2025-05-02T11:26:51Z</time>
      </trkpt>
      <trkpt lat="41.825011018663645" lon="-7.425321992486715">
        <ele>366.88</ele>
        <time>2025-05-02T11:27:34Z</time>
      </trkpt>
      <trkpt lat="41.825011018663645" lon="-7.425321992486715">
        <ele>366.88</ele>
        <time>2025-05-02T11:28:24Z</time>
      </trkpt>
      <trkpt lat="41.825011018663645" lon="-7.425321992486715">
        <ele>365.92000000000002</ele>
        <time>2025-05-02T11:29:25Z</time>
      </trkpt>
      <trkpt lat="41.825011018663645" lon="-7.425321992486715">
        <ele>365.92000000000002</ele>
        <time>2025-05-02T11:30:00Z</time>
      </trkpt>
      <trkpt lat="41.825011018663645" lon="-7.425321992486715">
        <ele>365.44</ele>
        <time>2025-05-02T11:30:50Z</time>
      </trkpt>
      <trkpt lat="41.825197013095021" lon="-7.425182014703751">
        <ele>354.38</ele>
        <time>2025-05-02T11:36:35Z</time>
      </trkpt>
      <trkpt lat="41.825250992551446" lon="-7.425110014155507">
        <ele>350.54000000000002</ele>
        <time>2025-05-02T11:36:56Z</time>
      </trkpt>
      <trkpt lat="41.825287034735084" lon="-7.425190983340144">
        <ele>347.64999999999998</ele>
        <time>2025-05-02T11:37:41Z</time>
      </trkpt>
      <trkpt lat="41.82532399892807" lon="-7.425169022753835">
        <ele>354.86000000000001</ele>
        <time>2025-05-02T11:38:22Z</time>
      </trkpt>
      <trkpt lat="41.825395999476314" lon="-7.425197018310428">
        <ele>362.55000000000001</ele>
        <time>2025-05-02T11:38:30Z</time>
      </trkpt>
      <trkpt lat="41.825415026396513" lon="-7.425226019695401">
        <ele>362.55000000000001</ele>
        <time>2025-05-02T11:38:31Z</time>
      </trkpt>
      <trkpt lat="41.825434975326061" lon="-7.425258038565517">
        <ele>364</ele>
        <time>2025-05-02T11:38:32Z</time>
      </trkpt>
      <trkpt lat="41.825450984761119" lon="-7.425283016636968">
        <ele>364.95999999999998</ele>
        <time>2025-05-02T11:38:33Z</time>
      </trkpt>
      <trkpt lat="41.825463976711035" lon="-7.425303971394897">
        <ele>365.92000000000002</ele>
        <time>2025-05-02T11:38:34Z</time>
      </trkpt>
      <trkpt lat="41.82543003000319" lon="-7.425372032448649">
        <ele>365.92000000000002</ele>
        <time>2025-05-02T11:38:35Z</time>
      </trkpt>
      <trkpt lat="41.825380995869637" lon="-7.425398016348481">
        <ele>365.92000000000002</ele>
        <time>2025-05-02T11:38:36Z</time>
      </trkpt>
      <trkpt lat="41.825315030291677" lon="-7.425431963056326">
        <ele>365.92000000000002</ele>
        <time>2025-05-02T11:38:37Z</time>
      </trkpt>
      <trkpt lat="41.825246969237924" lon="-7.425466999411583">
        <ele>365.44</ele>
        <time>2025-05-02T11:38:38Z</time>
      </trkpt>
      <trkpt lat="41.824438031762838" lon="-7.425880981609225">
        <ele>367.36000000000001</ele>
        <time>2025-05-02T11:38:47Z</time>
      </trkpt>
      <trkpt lat="41.823979038745165" lon="-7.426073011010885">
        <ele>369.27999999999997</ele>
        <time>2025-05-02T11:38:51Z</time>
      </trkpt>
      <trkpt lat="41.82287598028779" lon="-7.425955999642611">
        <ele>372.17000000000002</ele>
        <time>2025-05-02T11:39:00Z</time>
      </trkpt>
      <trkpt lat="41.821240000426769" lon="-7.425091993063688">
        <ele>370.73000000000002</ele>
        <time>2025-05-02T11:39:14Z</time>
      </trkpt>
      <trkpt lat="41.819790014997125" lon="-7.424317002296448">
        <ele>369.27999999999997</ele>
        <time>2025-05-02T11:39:26Z</time>
      </trkpt>
      <trkpt lat="41.818710006773472" lon="-7.423727000132203">
        <ele>371.20999999999998</ele>
        <time>2025-05-02T11:39:36Z</time>
      </trkpt>
      <trkpt lat="41.817023986950517" lon="-7.422919990494847">
        <ele>370.24000000000001</ele>
        <time>2025-05-02T11:39:51Z</time>
      </trkpt>
      <trkpt lat="41.815360011532903" lon="-7.422658978030086">
        <ele>371.69</ele>
        <time>2025-05-02T11:40:05Z</time>
      </trkpt>
      <trkpt lat="41.814155029132962" lon="-7.422735001891851">
        <ele>375.52999999999997</ele>
        <time>2025-05-02T11:40:15Z</time>
      </trkpt>
      <trkpt lat="41.814039023593068" lon="-7.422743970528245">
        <ele>375.05000000000001</ele>
        <time>2025-05-02T11:40:16Z</time>
      </trkpt>
      <trkpt lat="41.813538037240505" lon="-7.422724021598697">
        <ele>372.64999999999998</ele>
        <time>2025-05-02T11:40:21Z</time>
      </trkpt>
      <trkpt lat="41.813449021428823" lon="-7.422724021598697">
        <ele>371.69</ele>
        <time>2025-05-02T11:40:22Z</time>
      </trkpt>
      <trkpt lat="41.812501028180122" lon="-7.422701977193356">
        <ele>364</ele>
        <time>2025-05-02T11:40:32Z</time>
      </trkpt>
      <trkpt lat="41.812099032104015" lon="-7.422853019088507">
        <ele>362.06999999999999</ele>
        <time>2025-05-02T11:40:37Z</time>
      </trkpt>
      <trkpt lat="41.812043040990829" lon="-7.422842960804701">
        <ele>362.06999999999999</ele>
        <time>2025-05-02T11:40:38Z</time>
      </trkpt>
      <trkpt lat="41.811971962451935" lon="-7.422831980511546">
        <ele>361.58999999999997</ele>
        <time>2025-05-02T11:40:39Z</time>
      </trkpt>
      <trkpt lat="41.811905996873975" lon="-7.422821000218391">
        <ele>361.58999999999997</ele>
        <time>2025-05-02T11:40:40Z</time>
      </trkpt>
      <trkpt lat="41.811828967183828" lon="-7.422802979126573">
        <ele>361.11000000000001</ele>
        <time>2025-05-02T11:40:41Z</time>
      </trkpt>
      <trkpt lat="41.811756966635585" lon="-7.422758974134922">
        <ele>360.63</ele>
        <time>2025-05-02T11:40:42Z</time>
      </trkpt>
      <trkpt lat="41.811681026592851" lon="-7.422713963314891">
        <ele>360.63</ele>
        <time>2025-05-02T11:40:43Z</time>
      </trkpt>
      <trkpt lat="41.811519004404545" lon="-7.422616984695196">
        <ele>360.63</ele>
        <time>2025-05-02T11:40:45Z</time>
      </trkpt>
      <trkpt lat="41.811371985822916" lon="-7.422578008845449">
        <ele>360.14999999999998</ele>
        <time>2025-05-02T11:40:47Z</time>
      </trkpt>
      <trkpt lat="41.811291016638279" lon="-7.422556970268488">
        <ele>360.14999999999998</ele>
        <time>2025-05-02T11:40:48Z</time>
      </trkpt>
      <trkpt lat="41.81120996363461" lon="-7.422535009682179">
        <ele>360.14999999999998</ele>
        <time>2025-05-02T11:40:49Z</time>
      </trkpt>
      <trkpt lat="41.811130000278354" lon="-7.422513971105218">
        <ele>360.14999999999998</ele>
        <time>2025-05-02T11:40:50Z</time>
      </trkpt>
      <trkpt lat="41.811060011386871" lon="-7.422455968335271">
        <ele>360.14999999999998</ele>
        <time>2025-05-02T11:40:51Z</time>
      </trkpt>
      <trkpt lat="41.811002008616924" lon="-7.422396037727594">
        <ele>360.14999999999998</ele>
        <time>2025-05-02T11:40:52Z</time>
      </trkpt>
      <trkpt lat="41.810947023332119" lon="-7.422338034957647">
        <ele>360.14999999999998</ele>
        <time>2025-05-02T11:40:53Z</time>
      </trkpt>
      <trkpt lat="41.810849038884044" lon="-7.42223703302443">
        <ele>360.14999999999998</ele>
        <time>2025-05-02T11:40:55Z</time>
      </trkpt>
      <trkpt lat="41.810803022235632" lon="-7.422189004719257">
        <ele>360.14999999999998</ele>
        <time>2025-05-02T11:40:56Z</time>
      </trkpt>
      <trkpt lat="41.810619961470366" lon="-7.421998986974359">
        <ele>360.63</ele>
        <time>2025-05-02T11:41:03Z</time>
      </trkpt>
      <trkpt lat="41.810601018369198" lon="-7.421979960054159">
        <ele>360.63</ele>
        <time>2025-05-02T11:41:04Z</time>
      </trkpt>
      <trkpt lat="41.810427010059357" lon="-7.421804023906589">
        <ele>362.55000000000001</ele>
        <time>2025-05-02T11:41:14Z</time>
      </trkpt>
      <trkpt lat="41.810386022552848" lon="-7.421754989773035">
        <ele>363.51999999999998</ele>
        <time>2025-05-02T11:41:27Z</time>
      </trkpt>
      <trkpt lat="41.810386022552848" lon="-7.421754989773035">
        <ele>364.48000000000002</ele>
        <time>2025-05-02T11:42:13Z</time>
      </trkpt>
      <trkpt lat="41.810386022552848" lon="-7.421754989773035">
        <ele>364.48000000000002</ele>
        <time>2025-05-02T11:43:11Z</time>
      </trkpt>
      <trkpt lat="41.810386022552848" lon="-7.421754989773035">
        <ele>365.44</ele>
        <time>2025-05-02T11:44:12Z</time>
      </trkpt>
      <trkpt lat="41.810386022552848" lon="-7.421754989773035">
        <ele>365.44</ele>
        <time>2025-05-02T11:45:01Z</time>
      </trkpt>
      <trkpt lat="41.810386022552848" lon="-7.421754989773035">
        <ele>366.39999999999998</ele>
        <time>2025-05-02T11:45:53Z</time>
      </trkpt>
      <trkpt lat="41.810299018397927" lon="-7.422068975865841">
        <ele>371.20999999999998</ele>
        <time>2025-05-02T12:08:26Z</time>
      </trkpt>
      <trkpt lat="41.810251995921135" lon="-7.421934027224779">
        <ele>378.42000000000002</ele>
        <time>2025-05-02T12:09:09Z</time>
      </trkpt>
      <trkpt lat="41.810249984264374" lon="-7.421920029446483">
        <ele>373.61000000000001</ele>
        <time>2025-05-02T12:09:59Z</time>
      </trkpt>
      <trkpt lat="41.810271022841334" lon="-7.421629009768367">
        <ele>370.73000000000002</ele>
        <time>2025-05-02T12:10:37Z</time>
      </trkpt>
      <trkpt lat="41.810228023678064" lon="-7.421591039747">
        <ele>371.20999999999998</ele>
        <time>2025-05-02T12:10:38Z</time>
      </trkpt>
      <trkpt lat="41.810187036171556" lon="-7.421553991734982">
        <ele>371.20999999999998</ele>
        <time>2025-05-02T12:10:39Z</time>
      </trkpt>
      <trkpt lat="41.810146970674396" lon="-7.421518033370376">
        <ele>371.69</ele>
        <time>2025-05-02T12:10:40Z</time>
      </trkpt>
      <trkpt lat="41.81004798039794" lon="-7.42142197676003">
        <ele>371.69</ele>
        <time>2025-05-02T12:10:43Z</time>
      </trkpt>
      <trkpt lat="41.810015039518476" lon="-7.421387024223805">
        <ele>371.69</ele>
        <time>2025-05-02T12:10:44Z</time>
      </trkpt>
      <trkpt lat="41.809925017878413" lon="-7.421291973441839">
        <ele>372.64999999999998</ele>
        <time>2025-05-02T12:10:47Z</time>
      </trkpt>
      <trkpt lat="41.809785962104797" lon="-7.421145960688591">
        <ele>373.61000000000001</ele>
        <time>2025-05-02T12:10:50Z</time>
      </trkpt>
      <trkpt lat="41.80912303738296" lon="-7.420451017096639">
        <ele>377.94</ele>
        <time>2025-05-02T12:10:59Z</time>
      </trkpt>
      <trkpt lat="41.807991983368993" lon="-7.419286016374826">
        <ele>387.55000000000001</ele>
        <time>2025-05-02T12:11:10Z</time>
      </trkpt>
      <trkpt lat="41.806808039546013" lon="-7.418142976239324">
        <ele>394.27999999999997</ele>
        <time>2025-05-02T12:11:21Z</time>
      </trkpt>
      <trkpt lat="41.806705025956035" lon="-7.418076004832983">
        <ele>394.75999999999999</ele>
        <time>2025-05-02T12:11:22Z</time>
      </trkpt>
      <trkpt lat="41.806602012366056" lon="-7.418042980134487">
        <ele>394.75999999999999</ele>
        <time>2025-05-02T12:11:23Z</time>
      </trkpt>
      <trkpt lat="41.806495981290936" lon="-7.418013978749514">
        <ele>395.24000000000001</ele>
        <time>2025-05-02T12:11:24Z</time>
      </trkpt>
      <trkpt lat="41.806381987407804" lon="-7.418014984577894">
        <ele>395.24000000000001</ele>
        <time>2025-05-02T12:11:25Z</time>
      </trkpt>
      <trkpt lat="41.806267993524671" lon="-7.418050020933151">
        <ele>395.24000000000001</ele>
        <time>2025-05-02T12:11:26Z</time>
      </trkpt>
      <trkpt lat="41.806155005469918" lon="-7.418100982904434">
        <ele>394.75999999999999</ele>
        <time>2025-05-02T12:11:27Z</time>
      </trkpt>
      <trkpt lat="41.806036988273263" lon="-7.41815303452313">
        <ele>394.27999999999997</ele>
        <time>2025-05-02T12:11:28Z</time>
      </trkpt>
      <trkpt lat="41.805068962275982" lon="-7.418724009767175">
        <ele>391.38999999999999</ele>
        <time>2025-05-02T12:11:37Z</time>
      </trkpt>
      <trkpt lat="41.804982963949442" lon="-7.418810008093715">
        <ele>390.91000000000003</ele>
        <time>2025-05-02T12:11:38Z</time>
      </trkpt>
      <trkpt lat="41.804898977279663" lon="-7.418895000591874">
        <ele>390.43000000000001</ele>
        <time>2025-05-02T12:11:39Z</time>
      </trkpt>
      <trkpt lat="41.804780960083008" lon="-7.419183002784848">
        <ele>389.47000000000003</ele>
        <time>2025-05-02T12:11:41Z</time>
      </trkpt>
      <trkpt lat="41.804699990898371" lon="-7.419237988069654">
        <ele>389.47000000000003</ele>
        <time>2025-05-02T12:11:42Z</time>
      </trkpt>
      <trkpt lat="41.804609969258308" lon="-7.419298002496362">
        <ele>389.47000000000003</ele>
        <time>2025-05-02T12:11:43Z</time>
      </trkpt>
      <trkpt lat="41.804494969546795" lon="-7.419270006939769">
        <ele>388.99000000000001</ele>
        <time>2025-05-02T12:11:44Z</time>
      </trkpt>
      <trkpt lat="41.804395979270339" lon="-7.419224996119738">
        <ele>388.99000000000001</ele>
        <time>2025-05-02T12:11:45Z</time>
      </trkpt>
      <trkpt lat="41.804265975952148" lon="-7.419230025261641">
        <ele>388.50999999999999</ele>
        <time>2025-05-02T12:11:46Z</time>
      </trkpt>
      <trkpt lat="41.804150976240635" lon="-7.419261960312724">
        <ele>388.50999999999999</ele>
        <time>2025-05-02T12:11:47Z</time>
      </trkpt>
      <trkpt lat="41.80403002537787" lon="-7.419296996667981">
        <ele>388.02999999999997</ele>
        <time>2025-05-02T12:11:48Z</time>
      </trkpt>
      <trkpt lat="41.80390203371644" lon="-7.419333960860968">
        <ele>387.55000000000001</ele>
        <time>2025-05-02T12:11:49Z</time>
      </trkpt>
      <trkpt lat="41.802618009969592" lon="-7.420020019635558">
        <ele>391.38999999999999</ele>
        <time>2025-05-02T12:12:00Z</time>
      </trkpt>
      <trkpt lat="41.800851020962" lon="-7.42099299095571">
        <ele>397.16000000000003</ele>
        <time>2025-05-02T12:12:15Z</time>
      </trkpt>
      <trkpt lat="41.799080008640885" lon="-7.421963028609753">
        <ele>402.44999999999999</ele>
        <time>2025-05-02T12:12:30Z</time>
      </trkpt>
      <trkpt lat="41.797443022951484" lon="-7.422810019925237">
        <ele>402.93000000000001</ele>
        <time>2025-05-02T12:12:44Z</time>
      </trkpt>
      <trkpt lat="41.797335986047983" lon="-7.422853019088507">
        <ele>402.93000000000001</ele>
        <time>2025-05-02T12:12:45Z</time>
      </trkpt>
      <trkpt lat="41.79627500474453" lon="-7.423045970499516">
        <ele>400.05000000000001</ele>
        <time>2025-05-02T12:12:53Z</time>
      </trkpt>
      <trkpt lat="41.794631984084845" lon="-7.42326901294291">
        <ele>393.31999999999999</ele>
        <time>2025-05-02T12:13:06Z</time>
      </trkpt>
      <trkpt lat="41.793246958404779" lon="-7.423294996842742">
        <ele>388.50999999999999</ele>
        <time>2025-05-02T12:13:17Z</time>
      </trkpt>
      <trkpt lat="41.791915996000171" lon="-7.423185026273131">
        <ele>388.99000000000001</ele>
        <time>2025-05-02T12:13:28Z</time>
      </trkpt>
      <trkpt lat="41.791673004627228" lon="-7.423164993524551">
        <ele>388.02999999999997</ele>
        <time>2025-05-02T12:13:35Z</time>
      </trkpt>
      <trkpt lat="41.791510982438922" lon="-7.423156024888158">
        <ele>387.06999999999999</ele>
        <time>2025-05-02T12:13:42Z</time>
      </trkpt>
      <trkpt lat="41.791059030219913" lon="-7.423110008239746">
        <ele>386.58999999999997</ele>
        <time>2025-05-02T12:13:48Z</time>
      </trkpt>
      <trkpt lat="41.790971020236611" lon="-7.423110008239746">
        <ele>386.58999999999997</ele>
        <time>2025-05-02T12:13:49Z</time>
      </trkpt>
      <trkpt lat="41.78968096151948" lon="-7.422998026013374">
        <ele>383.69999999999999</ele>
        <time>2025-05-02T12:14:02Z</time>
      </trkpt>
      <trkpt lat="41.788430968299508" lon="-7.422932982444763">
        <ele>377.94</ele>
        <time>2025-05-02T12:14:13Z</time>
      </trkpt>
      <trkpt lat="41.788320997729897" lon="-7.422943962737918">
        <ele>377.44999999999999</ele>
        <time>2025-05-02T12:14:14Z</time>
      </trkpt>
      <trkpt lat="41.788209015503526" lon="-7.422956032678485">
        <ele>376.97000000000003</ele>
        <time>2025-05-02T12:14:15Z</time>
      </trkpt>
      <trkpt lat="41.788086974993348" lon="-7.422981010749936">
        <ele>376.49000000000001</ele>
        <time>2025-05-02T12:14:16Z</time>
      </trkpt>
      <trkpt lat="41.786991041153669" lon="-7.423459030687809">
        <ele>376.00999999999999</ele>
        <time>2025-05-02T12:14:26Z</time>
      </trkpt>
      <trkpt lat="41.786875035613775" lon="-7.423474034294486">
        <ele>375.52999999999997</ele>
        <time>2025-05-02T12:14:27Z</time>
      </trkpt>
      <trkpt lat="41.786759030073881" lon="-7.423488032072783">
        <ele>375.52999999999997</ele>
        <time>2025-05-02T12:14:28Z</time>
      </trkpt>
      <trkpt lat="41.785138975828886" lon="-7.423374960198999">
        <ele>370.24000000000001</ele>
        <time>2025-05-02T12:14:42Z</time>
      </trkpt>
      <trkpt lat="41.783747998997569" lon="-7.423301031813026">
        <ele>369.75999999999999</ele>
        <time>2025-05-02T12:14:54Z</time>
      </trkpt>
      <trkpt lat="41.781848995015025" lon="-7.423382000997663">
        <ele>369.27999999999997</ele>
        <time>2025-05-02T12:15:10Z</time>
      </trkpt>
      <trkpt lat="41.780073959380388" lon="-7.423476967960596">
        <ele>367.36000000000001</ele>
        <time>2025-05-02T12:15:25Z</time>
      </trkpt>
      <trkpt lat="41.778396992012858" lon="-7.423732029274106">
        <ele>365.44</ele>
        <time>2025-05-02T12:15:39Z</time>
      </trkpt>
      <trkpt lat="41.776946000754833" lon="-7.424281965941191">
        <ele>362.06999999999999</ele>
        <time>2025-05-02T12:15:50Z</time>
      </trkpt>
      <trkpt lat="41.774850022047758" lon="-7.425079001113772">
        <ele>357.75</ele>
        <time>2025-05-02T12:16:02Z</time>
      </trkpt>
      <trkpt lat="41.773427026346326" lon="-7.425961028784514">
        <ele>357.26999999999998</ele>
        <time>2025-05-02T12:16:10Z</time>
      </trkpt>
      <trkpt lat="41.770566031336784" lon="-7.429203987121582">
        <ele>357.26999999999998</ele>
        <time>2025-05-02T12:16:29Z</time>
      </trkpt>
      <trkpt lat="41.768739027902484" lon="-7.431295020505786">
        <ele>358.23000000000002</ele>
        <time>2025-05-02T12:16:42Z</time>
      </trkpt>
      <trkpt lat="41.767370011657476" lon="-7.432863023132086">
        <ele>357.75</ele>
        <time>2025-05-02T12:16:52Z</time>
      </trkpt>
      <trkpt lat="41.766343982890248" lon="-7.434029029682279">
        <ele>356.79000000000002</ele>
        <time>2025-05-02T12:17:01Z</time>
      </trkpt>
      <trkpt lat="41.765693966299295" lon="-7.434707963839173">
        <ele>356.31</ele>
        <time>2025-05-02T12:17:08Z</time>
      </trkpt>
      <trkpt lat="41.765635963529348" lon="-7.434755992144346">
        <ele>356.31</ele>
        <time>2025-05-02T12:17:09Z</time>
      </trkpt>
      <trkpt lat="41.765577960759401" lon="-7.4348050262779">
        <ele>356.31</ele>
        <time>2025-05-02T12:17:10Z</time>
      </trkpt>
      <trkpt lat="41.76555298268795" lon="-7.434733025729656">
        <ele>356.31</ele>
        <time>2025-05-02T12:17:11Z</time>
      </trkpt>
      <trkpt lat="41.765533033758402" lon="-7.43467703461647">
        <ele>356.79000000000002</ele>
        <time>2025-05-02T12:17:12Z</time>
      </trkpt>
      <trkpt lat="41.765506966039538" lon="-7.434605034068227">
        <ele>356.79000000000002</ele>
        <time>2025-05-02T12:17:13Z</time>
      </trkpt>
      <trkpt lat="41.7651860229671" lon="-7.433723006397486">
        <ele>359.19</ele>
        <time>2025-05-02T12:17:21Z</time>
      </trkpt>
      <trkpt lat="41.764484038576484" lon="-7.431800030171871">
        <ele>360.63</ele>
        <time>2025-05-02T12:17:36Z</time>
      </trkpt>
      <trkpt lat="41.763826981186867" lon="-7.430292963981628">
        <ele>364.48000000000002</ele>
        <time>2025-05-02T12:17:48Z</time>
      </trkpt>
      <trkpt lat="41.763351978734136" lon="-7.429081024602056">
        <ele>365.44</ele>
        <time>2025-05-02T12:17:58Z</time>
      </trkpt>
      <trkpt lat="41.76276097074151" lon="-7.427064003422856">
        <ele>368.31999999999999</ele>
        <time>2025-05-02T12:18:12Z</time>
      </trkpt>
      <trkpt lat="41.762141967192292" lon="-7.424898035824299">
        <ele>369.27999999999997</ele>
        <time>2025-05-02T12:18:27Z</time>
      </trkpt>
      <trkpt lat="41.761602004989982" lon="-7.423368003219366">
        <ele>371.20999999999998</ele>
        <time>2025-05-02T12:18:38Z</time>
      </trkpt>
      <trkpt lat="41.761123985052109" lon="-7.422254970297217">
        <ele>372.64999999999998</ele>
        <time>2025-05-02T12:18:47Z</time>
      </trkpt>
      <trkpt lat="41.761079980060458" lon="-7.422163020819426">
        <ele>373.13</ele>
        <time>2025-05-02T12:18:48Z</time>
      </trkpt>
      <trkpt lat="41.761023988947272" lon="-7.422082973644137">
        <ele>373.13</ele>
        <time>2025-05-02T12:18:49Z</time>
      </trkpt>
      <trkpt lat="41.760959029197693" lon="-7.422036034986377">
        <ele>373.61000000000001</ele>
        <time>2025-05-02T12:18:50Z</time>
      </trkpt>
      <trkpt lat="41.760887028649449" lon="-7.421988006681204">
        <ele>374.08999999999997</ele>
        <time>2025-05-02T12:18:51Z</time>
      </trkpt>
      <trkpt lat="41.760075995698571" lon="-7.421489031985402">
        <ele>378.42000000000002</ele>
        <time>2025-05-02T12:19:01Z</time>
      </trkpt>
      <trkpt lat="41.75985898822546" lon="-7.42133597843349">
        <ele>380.33999999999997</ele>
        <time>2025-05-02T12:19:04Z</time>
      </trkpt>
      <trkpt lat="41.759799979627132" lon="-7.421289039775729">
        <ele>380.81999999999999</ele>
        <time>2025-05-02T12:19:05Z</time>
      </trkpt>
      <trkpt lat="41.759669976308942" lon="-7.42118401452899">
        <ele>381.30000000000001</ele>
        <time>2025-05-02T12:19:07Z</time>
      </trkpt>
      <trkpt lat="41.759606022387743" lon="-7.421131962910295">
        <ele>381.77999999999997</ele>
        <time>2025-05-02T12:19:08Z</time>
      </trkpt>
      <trkpt lat="41.759543996304274" lon="-7.421082006767392">
        <ele>381.77999999999997</ele>
        <time>2025-05-02T12:19:09Z</time>
      </trkpt>
      <trkpt lat="41.759482976049185" lon="-7.421032972633839">
        <ele>382.25999999999999</ele>
        <time>2025-05-02T12:19:10Z</time>
      </trkpt>
      <trkpt lat="41.759397983551025" lon="-7.420963989570737">
        <ele>382.25999999999999</ele>
        <time>2025-05-02T12:19:11Z</time>
      </trkpt>
      <trkpt lat="41.759370993822813" lon="-7.420901963487268">
        <ele>382.74000000000001</ele>
        <time>2025-05-02T12:19:12Z</time>
      </trkpt>
      <trkpt lat="41.759312991052866" lon="-7.420771038159728">
        <ele>383.22000000000003</ele>
        <time>2025-05-02T12:19:13Z</time>
      </trkpt>
      <trkpt lat="41.759297987446189" lon="-7.420724015682936">
        <ele>383.69999999999999</ele>
        <time>2025-05-02T12:19:14Z</time>
      </trkpt>
      <trkpt lat="41.759270997717977" lon="-7.420632988214493">
        <ele>384.18000000000001</ele>
        <time>2025-05-02T12:19:15Z</time>
      </trkpt>
      <trkpt lat="41.759243002161384" lon="-7.42054196074605">
        <ele>384.18000000000001</ele>
        <time>2025-05-02T12:19:16Z</time>
      </trkpt>
      <trkpt lat="41.75921400077641" lon="-7.420449005439878">
        <ele>385.14999999999998</ele>
        <time>2025-05-02T12:19:17Z</time>
      </trkpt>
      <trkpt lat="41.759154992178082" lon="-7.420179024338722">
        <ele>387.06999999999999</ele>
        <time>2025-05-02T12:19:20Z</time>
      </trkpt>
      <trkpt lat="41.759140994399786" lon="-7.419991018250585">
        <ele>388.99000000000001</ele>
        <time>2025-05-02T12:19:22Z</time>
      </trkpt>
      <trkpt lat="41.759140994399786" lon="-7.41989403963089">
        <ele>389.47000000000003</ele>
        <time>2025-05-02T12:19:23Z</time>
      </trkpt>
      <trkpt lat="41.759152980521321" lon="-7.419780967757106">
        <ele>390.43000000000001</ele>
        <time>2025-05-02T12:19:24Z</time>
      </trkpt>
      <trkpt lat="41.759227998554707" lon="-7.419632021337748">
        <ele>392.36000000000001</ele>
        <time>2025-05-02T12:19:26Z</time>
      </trkpt>
      <trkpt lat="41.759264040738344" lon="-7.419561026617885">
        <ele>393.31999999999999</ele>
        <time>2025-05-02T12:19:27Z</time>
      </trkpt>
      <trkpt lat="41.759355990216136" lon="-7.419376038014889">
        <ele>396.19999999999999</ele>
        <time>2025-05-02T12:19:31Z</time>
      </trkpt>
      <trkpt lat="41.759423967450857" lon="-7.419234970584512">
        <ele>396.68000000000001</ele>
        <time>2025-05-02T12:19:32Z</time>
      </trkpt>
      <trkpt lat="41.759398989379406" lon="-7.419188031926751">
        <ele>397.16000000000003</ele>
        <time>2025-05-02T12:19:33Z</time>
      </trkpt>
      <trkpt lat="41.759373005479574" lon="-7.419136986136437">
        <ele>398.12</ele>
        <time>2025-05-02T12:19:34Z</time>
      </trkpt>
      <trkpt lat="41.75934299826622" lon="-7.419078983366489">
        <ele>398.60000000000002</ele>
        <time>2025-05-02T12:19:35Z</time>
      </trkpt>
      <trkpt lat="41.759305028244853" lon="-7.419005976989865">
        <ele>399.07999999999998</ele>
        <time>2025-05-02T12:19:36Z</time>
      </trkpt>
      <trkpt lat="41.759264962747693" lon="-7.418929031118751">
        <ele>400.05000000000001</ele>
        <time>2025-05-02T12:19:37Z</time>
      </trkpt>
      <trkpt lat="41.759227998554707" lon="-7.418857030570507">
        <ele>400.52999999999997</ele>
        <time>2025-05-02T12:19:38Z</time>
      </trkpt>
      <trkpt lat="41.758732041344047" lon="-7.417892022058368">
        <ele>407.74000000000001</ele>
        <time>2025-05-02T12:19:49Z</time>
      </trkpt>
      <trkpt lat="41.758228959515691" lon="-7.41686699911952">
        <ele>416.87</ele>
        <time>2025-05-02T12:19:59Z</time>
      </trkpt>
      <trkpt lat="41.758154025301337" lon="-7.416790975257754">
        <ele>417.82999999999998</ele>
        <time>2025-05-02T12:20:00Z</time>
      </trkpt>
      <trkpt lat="41.758065009489655" lon="-7.416769014671445">
        <ele>418.31</ele>
        <time>2025-05-02T12:20:01Z</time>
      </trkpt>
      <trkpt lat="41.75796995870769" lon="-7.416744958609343">
        <ele>419.26999999999998</ele>
        <time>2025-05-02T12:20:02Z</time>
      </trkpt>
      <trkpt lat="41.757854036986828" lon="-7.416716041043401">
        <ele>420.23000000000002</ele>
        <time>2025-05-02T12:20:03Z</time>
      </trkpt>
      <trkpt lat="41.757766027003527" lon="-7.416729032993317">
        <ele>421.19</ele>
        <time>2025-05-02T12:20:04Z</time>
      </trkpt>
      <trkpt lat="41.757482970133424" lon="-7.416771026328206">
        <ele>424.56</ele>
        <time>2025-05-02T12:20:07Z</time>
      </trkpt>
      <trkpt lat="41.757394960150123" lon="-7.416765997186303">
        <ele>425.51999999999998</ele>
        <time>2025-05-02T12:20:08Z</time>
      </trkpt>
      <trkpt lat="41.757308039814234" lon="-7.416721992194653">
        <ele>426.95999999999998</ele>
        <time>2025-05-02T12:20:09Z</time>
      </trkpt>
      <trkpt lat="41.757231010124087" lon="-7.416684022173286">
        <ele>427.92000000000002</ele>
        <time>2025-05-02T12:20:10Z</time>
      </trkpt>
      <trkpt lat="41.757162027060986" lon="-7.416619984433055">
        <ele>428.88999999999999</ele>
        <time>2025-05-02T12:20:11Z</time>
      </trkpt>
      <trkpt lat="41.75714903511107" lon="-7.416529040783644">
        <ele>429.85000000000002</ele>
        <time>2025-05-02T12:20:12Z</time>
      </trkpt>
      <trkpt lat="41.757205026224256" lon="-7.416434995830059">
        <ele>430.32999999999998</ele>
        <time>2025-05-02T12:20:13Z</time>
      </trkpt>
      <trkpt lat="41.757275015115738" lon="-7.416355032473803">
        <ele>431.76999999999998</ele>
        <time>2025-05-02T12:20:14Z</time>
      </trkpt>
      <trkpt lat="41.757360007613897" lon="-7.416259981691837">
        <ele>432.73000000000002</ele>
        <time>2025-05-02T12:20:15Z</time>
      </trkpt>
      <trkpt lat="41.757449023425579" lon="-7.416159985587001">
        <ele>434.17000000000002</ele>
        <time>2025-05-02T12:20:16Z</time>
      </trkpt>
      <trkpt lat="41.757577015087008" lon="-7.416087985038757">
        <ele>435.61000000000001</ele>
        <time>2025-05-02T12:20:17Z</time>
      </trkpt>
      <trkpt lat="41.757716992869973" lon="-7.416045991703868">
        <ele>437.54000000000002</ele>
        <time>2025-05-02T12:20:18Z</time>
      </trkpt>
      <trkpt lat="41.758314035832882" lon="-7.41579101420939">
        <ele>443.79000000000002</ele>
        <time>2025-05-02T12:20:23Z</time>
      </trkpt>
      <trkpt lat="41.758415959775448" lon="-7.415695963427424">
        <ele>444.75</ele>
        <time>2025-05-02T12:20:24Z</time>
      </trkpt>
      <trkpt lat="41.758506987243891" lon="-7.415610970929265">
        <ele>445.23000000000002</ele>
        <time>2025-05-02T12:20:25Z</time>
      </trkpt>
      <trkpt lat="41.758593991398811" lon="-7.41555598564446">
        <ele>445.70999999999998</ele>
        <time>2025-05-02T12:20:26Z</time>
      </trkpt>
      <trkpt lat="41.758671021088958" lon="-7.415510974824429">
        <ele>446.67000000000002</ele>
        <time>2025-05-02T12:20:27Z</time>
      </trkpt>
      <trkpt lat="41.758794989436865" lon="-7.415392035618424">
        <ele>447.63</ele>
        <time>2025-05-02T12:20:29Z</time>
      </trkpt>
      <trkpt lat="41.758824996650219" lon="-7.415302013978362">
        <ele>448.11000000000001</ele>
        <time>2025-05-02T12:20:30Z</time>
      </trkpt>
      <trkpt lat="41.758829019963741" lon="-7.415228001773357">
        <ele>448.58999999999997</ele>
        <time>2025-05-02T12:20:31Z</time>
      </trkpt>
      <trkpt lat="41.758789960294962" lon="-7.415131023153663">
        <ele>449.06999999999999</ele>
        <time>2025-05-02T12:20:32Z</time>
      </trkpt>
      <trkpt lat="41.75874000415206" lon="-7.415038989856839">
        <ele>449.55000000000001</ele>
        <time>2025-05-02T12:20:33Z</time>
      </trkpt>
      <trkpt lat="41.758652999997139" lon="-7.415021974593401">
        <ele>450.51999999999998</ele>
        <time>2025-05-02T12:20:34Z</time>
      </trkpt>
      <trkpt lat="41.758554009720683" lon="-7.415002025663853">
        <ele>451</ele>
        <time>2025-05-02T12:20:35Z</time>
      </trkpt>
      <trkpt lat="41.758449990302324" lon="-7.414980987086892">
        <ele>451.95999999999998</ele>
        <time>2025-05-02T12:20:36Z</time>
      </trkpt>
      <trkpt lat="41.758339013904333" lon="-7.414959026500583">
        <ele>452.92000000000002</ele>
        <time>2025-05-02T12:20:37Z</time>
      </trkpt>
      <trkpt lat="41.758223008364439" lon="-7.414935976266861">
        <ele>453.88</ele>
        <time>2025-05-02T12:20:38Z</time>
      </trkpt>
      <trkpt lat="41.75730099901557" lon="-7.41493103094399">
        <ele>458.69</ele>
        <time>2025-05-02T12:20:45Z</time>
      </trkpt>
      <trkpt lat="41.757182981818914" lon="-7.4149339646101">
        <ele>459.17000000000002</ele>
        <time>2025-05-02T12:20:46Z</time>
      </trkpt>
      <trkpt lat="41.757070999592543" lon="-7.414907980710268">
        <ele>459.64999999999998</ele>
        <time>2025-05-02T12:20:47Z</time>
      </trkpt>
      <trkpt lat="41.756488038226962" lon="-7.414534986019135">
        <ele>465.89999999999998</ele>
        <time>2025-05-02T12:20:55Z</time>
      </trkpt>
      <trkpt lat="41.756437998265028" lon="-7.414485029876232">
        <ele>467.33999999999997</ele>
        <time>2025-05-02T12:20:57Z</time>
      </trkpt>
      <trkpt lat="41.756416037678719" lon="-7.414462985470891">
        <ele>467.81999999999999</ele>
        <time>2025-05-02T12:20:58Z</time>
      </trkpt>
      <trkpt lat="41.756456019356847" lon="-7.414401965215802">
        <ele>468.77999999999997</ele>
        <time>2025-05-02T12:20:59Z</time>
      </trkpt>
      <trkpt lat="41.756508992984891" lon="-7.414322001859546">
        <ele>469.74000000000001</ele>
        <time>2025-05-02T12:21:00Z</time>
      </trkpt>
      <trkpt lat="41.756568001583219" lon="-7.414233991876245">
        <ele>470.22000000000003</ele>
        <time>2025-05-02T12:21:01Z</time>
      </trkpt>
      <trkpt lat="41.756778974086046" lon="-7.413911959156394">
        <ele>472.13999999999999</ele>
        <time>2025-05-02T12:21:04Z</time>
      </trkpt>
      <trkpt lat="41.757414992898703" lon="-7.412799010053277">
        <ele>476.47000000000003</ele>
        <time>2025-05-02T12:21:11Z</time>
      </trkpt>
      <trkpt lat="41.757949003949761" lon="-7.411686982959509">
        <ele>481.27999999999997</ele>
        <time>2025-05-02T12:21:17Z</time>
      </trkpt>
      <trkpt lat="41.758058974519372" lon="-7.411507023498416">
        <ele>482.24000000000001</ele>
        <time>2025-05-02T12:21:18Z</time>
      </trkpt>
      <trkpt lat="41.758172968402505" lon="-7.411329997703433">
        <ele>483.19999999999999</ele>
        <time>2025-05-02T12:21:19Z</time>
      </trkpt>
      <trkpt lat="41.758312024176121" lon="-7.411179039627314">
        <ele>484.16000000000003</ele>
        <time>2025-05-02T12:21:20Z</time>
      </trkpt>
      <trkpt lat="41.758449990302324" lon="-7.411031015217304">
        <ele>484.63999999999999</ele>
        <time>2025-05-02T12:21:21Z</time>
      </trkpt>
      <trkpt lat="41.758586028590798" lon="-7.410890031605959">
        <ele>485.60000000000002</ele>
        <time>2025-05-02T12:21:22Z</time>
      </trkpt>
      <trkpt lat="41.758718965575099" lon="-7.410749970003963">
        <ele>486.56</ele>
        <time>2025-05-02T12:21:23Z</time>
      </trkpt>
      <trkpt lat="41.758851986378431" lon="-7.410610998049378">
        <ele>487.05000000000001</ele>
        <time>2025-05-02T12:21:24Z</time>
      </trkpt>
      <trkpt lat="41.758949970826507" lon="-7.410432966426015">
        <ele>488.00999999999999</ele>
        <time>2025-05-02T12:21:25Z</time>
      </trkpt>
      <trkpt lat="41.759035969153047" lon="-7.410243032500148">
        <ele>488.49000000000001</ele>
        <time>2025-05-02T12:21:26Z</time>
      </trkpt>
      <trkpt lat="41.759101012721658" lon="-7.410039016976953">
        <ele>488.97000000000003</ele>
        <time>2025-05-02T12:21:27Z</time>
      </trkpt>
      <trkpt lat="41.759110987186432" lon="-7.4098189920187">
        <ele>489.93000000000001</ele>
        <time>2025-05-02T12:21:28Z</time>
      </trkpt>
      <trkpt lat="41.759120961651206" lon="-7.409597961232066">
        <ele>490.41000000000003</ele>
        <time>2025-05-02T12:21:29Z</time>
      </trkpt>
      <trkpt lat="41.759130014106631" lon="-7.409381959587336">
        <ele>491.37</ele>
        <time>2025-05-02T12:21:30Z</time>
      </trkpt>
      <trkpt lat="41.759139988571405" lon="-7.409167969599366">
        <ele>491.85000000000002</ele>
        <time>2025-05-02T12:21:31Z</time>
      </trkpt>
      <trkpt lat="41.759180976077914" lon="-7.40896001458168">
        <ele>492.81</ele>
        <time>2025-05-02T12:21:32Z</time>
      </trkpt>
      <trkpt lat="41.759226992726326" lon="-7.408754993230104">
        <ele>493.29000000000002</ele>
        <time>2025-05-02T12:21:33Z</time>
      </trkpt>
      <trkpt lat="41.759307961910963" lon="-7.408564975485206">
        <ele>493.76999999999998</ele>
        <time>2025-05-02T12:21:34Z</time>
      </trkpt>
      <trkpt lat="41.759395971894264" lon="-7.408403037115932">
        <ele>494.74000000000001</ele>
        <time>2025-05-02T12:21:35Z</time>
      </trkpt>
      <trkpt lat="41.759510971605778" lon="-7.408258030191064">
        <ele>495.22000000000003</ele>
        <time>2025-05-02T12:21:36Z</time>
      </trkpt>
      <trkpt lat="41.759627982974052" lon="-7.408111011609435">
        <ele>496.18000000000001</ele>
        <time>2025-05-02T12:21:37Z</time>
      </trkpt>
      <trkpt lat="41.759763015434146" lon="-7.407940020784736">
        <ele>496.66000000000003</ele>
        <time>2025-05-02T12:21:38Z</time>
      </trkpt>
      <trkpt lat="41.7609310336411" lon="-7.406480982899666">
        <ele>504.82999999999998</ele>
        <time>2025-05-02T12:21:47Z</time>
      </trkpt>
      <trkpt lat="41.76155699416995" lon="-7.405536007136107">
        <ele>510.60000000000002</ele>
        <time>2025-05-02T12:21:52Z</time>
      </trkpt>
      <trkpt lat="41.761675011366606" lon="-7.405335009098053">
        <ele>512.03999999999996</ele>
        <time>2025-05-02T12:21:53Z</time>
      </trkpt>
      <trkpt lat="41.761737959459424" lon="-7.405089000239968">
        <ele>513.48000000000002</ele>
        <time>2025-05-02T12:21:54Z</time>
      </trkpt>
      <trkpt lat="41.761929988861084" lon="-7.404328007251024">
        <ele>516.85000000000002</ele>
        <time>2025-05-02T12:21:57Z</time>
      </trkpt>
      <trkpt lat="41.761929988861084" lon="-7.40406003780663">
        <ele>517.80999999999995</ele>
        <time>2025-05-02T12:21:58Z</time>
      </trkpt>
      <trkpt lat="41.761929988861084" lon="-7.403788967058063">
        <ele>519.25</ele>
        <time>2025-05-02T12:21:59Z</time>
      </trkpt>
      <trkpt lat="41.761901993304491" lon="-7.403520997613668">
        <ele>520.21000000000004</ele>
        <time>2025-05-02T12:22:00Z</time>
      </trkpt>
      <trkpt lat="41.761869974434376" lon="-7.403240958228707">
        <ele>521.64999999999998</ele>
        <time>2025-05-02T12:22:01Z</time>
      </trkpt>
      <trkpt lat="41.761774001643062" lon="-7.401017993688583">
        <ele>532.71000000000004</ele>
        <time>2025-05-02T12:22:09Z</time>
      </trkpt>
      <trkpt lat="41.761882966384292" lon="-7.399976039305329">
        <ele>537.99000000000001</ele>
        <time>2025-05-02T12:22:13Z</time>
      </trkpt>
      <trkpt lat="41.761939963325858" lon="-7.399748973548412">
        <ele>539.44000000000005</ele>
        <time>2025-05-02T12:22:14Z</time>
      </trkpt>
      <trkpt lat="41.761995032429695" lon="-7.399528026580811">
        <ele>540.88</ele>
        <time>2025-05-02T12:22:15Z</time>
      </trkpt>
      <trkpt lat="41.762121012434363" lon="-7.399366004392505">
        <ele>542.32000000000005</ele>
        <time>2025-05-02T12:22:16Z</time>
      </trkpt>
      <trkpt lat="41.76224498078227" lon="-7.399206999689341">
        <ele>543.27999999999997</ele>
        <time>2025-05-02T12:22:17Z</time>
      </trkpt>
      <trkpt lat="41.762384958565235" lon="-7.399089988321066">
        <ele>544.72000000000003</ele>
        <time>2025-05-02T12:22:18Z</time>
      </trkpt>
      <trkpt lat="41.762547986581922" lon="-7.398996027186513">
        <ele>546.16999999999996</ele>
        <time>2025-05-02T12:22:19Z</time>
      </trkpt>
      <trkpt lat="41.76271503791213" lon="-7.398899970576167">
        <ele>547.61000000000001</ele>
        <time>2025-05-02T12:22:20Z</time>
      </trkpt>
      <trkpt lat="41.763894958421588" lon="-7.398226987570524">
        <ele>556.25999999999999</ele>
        <time>2025-05-02T12:22:27Z</time>
      </trkpt>
      <trkpt lat="41.764053041115403" lon="-7.398116011172533">
        <ele>557.70000000000005</ele>
        <time>2025-05-02T12:22:28Z</time>
      </trkpt>
      <trkpt lat="41.764183966442943" lon="-7.397965975105763">
        <ele>559.13999999999999</ele>
        <time>2025-05-02T12:22:29Z</time>
      </trkpt>
      <trkpt lat="41.764288991689682" lon="-7.397795990109444">
        <ele>560.11000000000001</ele>
        <time>2025-05-02T12:22:30Z</time>
      </trkpt>
      <trkpt lat="41.764357974752784" lon="-7.397613013163209">
        <ele>561.07000000000005</ele>
        <time>2025-05-02T12:22:31Z</time>
      </trkpt>
      <trkpt lat="41.764398040249944" lon="-7.397403968498111">
        <ele>562.50999999999999</ele>
        <time>2025-05-02T12:22:32Z</time>
      </trkpt>
      <trkpt lat="41.764398040249944" lon="-7.397177992388606">
        <ele>563.47000000000003</ele>
        <time>2025-05-02T12:22:33Z</time>
      </trkpt>
      <trkpt lat="41.764366021379828" lon="-7.396968025714159">
        <ele>564.42999999999995</ele>
        <time>2025-05-02T12:22:34Z</time>
      </trkpt>
      <trkpt lat="41.764309024438262" lon="-7.396769961342216">
        <ele>565.38999999999999</ele>
        <time>2025-05-02T12:22:35Z</time>
      </trkpt>
      <trkpt lat="41.764237023890018" lon="-7.396593019366264">
        <ele>566.83000000000004</ele>
        <time>2025-05-02T12:22:36Z</time>
      </trkpt>
      <trkpt lat="41.764138033613563" lon="-7.39647600799799">
        <ele>567.79999999999995</ele>
        <time>2025-05-02T12:22:37Z</time>
      </trkpt>
      <trkpt lat="41.764046000316739" lon="-7.396371988579631">
        <ele>568.75999999999999</ele>
        <time>2025-05-02T12:22:38Z</time>
      </trkpt>
      <trkpt lat="41.763958996161819" lon="-7.396280961111188">
        <ele>569.72000000000003</ele>
        <time>2025-05-02T12:22:39Z</time>
      </trkpt>
      <trkpt lat="41.763072023168206" lon="-7.395455008372665">
        <ele>574.52999999999997</ele>
        <time>2025-05-02T12:22:48Z</time>
      </trkpt>
      <trkpt lat="41.762982001528144" lon="-7.395364986732602">
        <ele>575.49000000000001</ele>
        <time>2025-05-02T12:22:49Z</time>
      </trkpt>
      <trkpt lat="41.762921987101436" lon="-7.395219979807735">
        <ele>575.97000000000003</ele>
        <time>2025-05-02T12:22:50Z</time>
      </trkpt>
      <trkpt lat="41.762864990159869" lon="-7.395082013681531">
        <ele>576.92999999999995</ele>
        <time>2025-05-02T12:22:51Z</time>
      </trkpt>
      <trkpt lat="41.76282400265336" lon="-7.394929965957999">
        <ele>577.40999999999997</ele>
        <time>2025-05-02T12:22:52Z</time>
      </trkpt>
      <trkpt lat="41.762807993218303" lon="-7.394770039245486">
        <ele>578.37</ele>
        <time>2025-05-02T12:22:53Z</time>
      </trkpt>
      <trkpt lat="41.76267396658659" lon="-7.393486015498638">
        <ele>582.22000000000003</ele>
        <time>2025-05-02T12:23:01Z</time>
      </trkpt>
      <trkpt lat="41.762753007933497" lon="-7.392053967341781">
        <ele>587.01999999999998</ele>
        <time>2025-05-02T12:23:10Z</time>
      </trkpt>
      <trkpt lat="41.763002034276724" lon="-7.389501007273793">
        <ele>597.60000000000002</ele>
        <time>2025-05-02T12:23:26Z</time>
      </trkpt>
      <trkpt lat="41.763097001239657" lon="-7.388696009293199">
        <ele>600</ele>
        <time>2025-05-02T12:23:31Z</time>
      </trkpt>
      <trkpt lat="41.763238990679383" lon="-7.387091964483261">
        <ele>604.80999999999995</ele>
        <time>2025-05-02T12:23:41Z</time>
      </trkpt>
      <trkpt lat="41.763222981244326" lon="-7.386919967830181">
        <ele>605.28999999999996</ele>
        <time>2025-05-02T12:23:42Z</time>
      </trkpt>
      <trkpt lat="41.7629290279001" lon="-7.384662972763181">
        <ele>616.34000000000003</ele>
        <time>2025-05-02T12:23:54Z</time>
      </trkpt>
      <trkpt lat="41.763042015954852" lon="-7.382809985429049">
        <ele>625.96000000000004</ele>
        <time>2025-05-02T12:24:04Z</time>
      </trkpt>
      <trkpt lat="41.763621037825942" lon="-7.380843004211783">
        <ele>634.61000000000001</ele>
        <time>2025-05-02T12:24:15Z</time>
      </trkpt>
      <trkpt lat="41.763636963441968" lon="-7.380657009780407">
        <ele>635.57000000000005</ele>
        <time>2025-05-02T12:24:16Z</time>
      </trkpt>
      <trkpt lat="41.763603016734123" lon="-7.380477972328663">
        <ele>636.04999999999995</ele>
        <time>2025-05-02T12:24:17Z</time>
      </trkpt>
      <trkpt lat="41.763357007876039" lon="-7.379189003258944">
        <ele>641.82000000000005</ele>
        <time>2025-05-02T12:24:25Z</time>
      </trkpt>
      <trkpt lat="41.763336975127459" lon="-7.379081966355443">
        <ele>642.77999999999997</ele>
        <time>2025-05-02T12:24:26Z</time>
      </trkpt>
      <trkpt lat="41.763304034247994" lon="-7.378907036036253">
        <ele>643.25999999999999</ele>
        <time>2025-05-02T12:24:27Z</time>
      </trkpt>
      <trkpt lat="41.763237984851003" lon="-7.378898989409208">
        <ele>643.74000000000001</ele>
        <time>2025-05-02T12:24:28Z</time>
      </trkpt>
      <trkpt lat="41.763159027323127" lon="-7.378889014944434">
        <ele>644.22000000000003</ele>
        <time>2025-05-02T12:24:29Z</time>
      </trkpt>
      <trkpt lat="41.763072023168206" lon="-7.378878034651279">
        <ele>644.70000000000005</ele>
        <time>2025-05-02T12:24:30Z</time>
      </trkpt>
      <trkpt lat="41.762976972386241" lon="-7.378866970539093">
        <ele>645.65999999999997</ele>
        <time>2025-05-02T12:24:31Z</time>
      </trkpt>
      <trkpt lat="41.76288896240294" lon="-7.378888009116054">
        <ele>646.13999999999999</ele>
        <time>2025-05-02T12:24:32Z</time>
      </trkpt>
      <trkpt lat="41.76280103623867" lon="-7.378917010501027">
        <ele>646.62</ele>
        <time>2025-05-02T12:24:33Z</time>
      </trkpt>
      <trkpt lat="41.762735992670059" lon="-7.378976019099355">
        <ele>647.59000000000003</ele>
        <time>2025-05-02T12:24:34Z</time>
      </trkpt>
      <trkpt lat="41.762670027092099" lon="-7.379075009375811">
        <ele>648.07000000000005</ele>
        <time>2025-05-02T12:24:35Z</time>
      </trkpt>
      <trkpt lat="41.762600038200617" lon="-7.37918003462255">
        <ele>649.02999999999997</ele>
        <time>2025-05-02T12:24:36Z</time>
      </trkpt>
      <trkpt lat="41.762467017397285" lon="-7.379379021003842">
        <ele>650.47000000000003</ele>
        <time>2025-05-02T12:24:38Z</time>
      </trkpt>
      <trkpt lat="41.762370960786939" lon="-7.379446998238564">
        <ele>650.95000000000005</ele>
        <time>2025-05-02T12:24:39Z</time>
      </trkpt>
      <trkpt lat="41.762281022965908" lon="-7.379510030150414">
        <ele>651.90999999999997</ele>
        <time>2025-05-02T12:24:40Z</time>
      </trkpt>
      <trkpt lat="41.76217901520431" lon="-7.379499971866608">
        <ele>652.87</ele>
        <time>2025-05-02T12:24:41Z</time>
      </trkpt>
      <trkpt lat="41.762084970250726" lon="-7.379463007673621">
        <ele>653.83000000000004</ele>
        <time>2025-05-02T12:24:42Z</time>
      </trkpt>
      <trkpt lat="41.762000983580947" lon="-7.379391007125378">
        <ele>654.79999999999995</ele>
        <time>2025-05-02T12:24:43Z</time>
      </trkpt>
      <trkpt lat="41.761927977204323" lon="-7.379285981878638">
        <ele>656.24000000000001</ele>
        <time>2025-05-02T12:24:44Z</time>
      </trkpt>
      <trkpt lat="41.761855976656079" lon="-7.379181040450931">
        <ele>657.20000000000005</ele>
        <time>2025-05-02T12:24:45Z</time>
      </trkpt>
      <trkpt lat="41.761786993592978" lon="-7.379080960527062">
        <ele>658.63999999999999</ele>
        <time>2025-05-02T12:24:46Z</time>
      </trkpt>
      <trkpt lat="41.761721028015018" lon="-7.37898699939251">
        <ele>659.60000000000002</ele>
        <time>2025-05-02T12:24:47Z</time>
      </trkpt>
      <trkpt lat="41.761651961132884" lon="-7.378885997459292">
        <ele>661.03999999999996</ele>
        <time>2025-05-02T12:24:48Z</time>
      </trkpt>
      <trkpt lat="41.761571997776628" lon="-7.378855990245938">
        <ele>662.00999999999999</ele>
        <time>2025-05-02T12:24:49Z</time>
      </trkpt>
      <trkpt lat="41.761464960873127" lon="-7.378833023831248">
        <ele>662.97000000000003</ele>
        <time>2025-05-02T12:24:50Z</time>
      </trkpt>
      <trkpt lat="41.761375023052096" lon="-7.378899995237589">
        <ele>663.92999999999995</ele>
        <time>2025-05-02T12:24:51Z</time>
      </trkpt>
      <trkpt lat="41.761281983926892" lon="-7.378993034362793">
        <ele>664.88999999999999</ele>
        <time>2025-05-02T12:24:52Z</time>
      </trkpt>
      <trkpt lat="41.761199003085494" lon="-7.379125971347094">
        <ele>666.33000000000004</ele>
        <time>2025-05-02T12:24:53Z</time>
      </trkpt>
      <trkpt lat="41.761110993102193" lon="-7.37926796078682">
        <ele>667.28999999999996</ele>
        <time>2025-05-02T12:24:54Z</time>
      </trkpt>
      <trkpt lat="41.760836988687515" lon="-7.379709016531706">
        <ele>671.13999999999999</ele>
        <time>2025-05-02T12:24:57Z</time>
      </trkpt>
      <trkpt lat="41.760741015896201" lon="-7.379817981272936">
        <ele>672.58000000000004</ele>
        <time>2025-05-02T12:24:58Z</time>
      </trkpt>
      <trkpt lat="41.760642025619745" lon="-7.379885036498308">
        <ele>674.01999999999998</ele>
        <time>2025-05-02T12:24:59Z</time>
      </trkpt>
      <trkpt lat="41.760543035343289" lon="-7.379914037883282">
        <ele>675.46000000000004</ele>
        <time>2025-05-02T12:25:00Z</time>
      </trkpt>
      <trkpt lat="41.760456031188369" lon="-7.379875984042883">
        <ele>676.41999999999996</ele>
        <time>2025-05-02T12:25:01Z</time>
      </trkpt>
      <trkpt lat="41.760383024811745" lon="-7.379814963787794">
        <ele>677.87</ele>
        <time>2025-05-02T12:25:02Z</time>
      </trkpt>
      <trkpt lat="41.760319992899895" lon="-7.379708010703325">
        <ele>679.78999999999996</ele>
        <time>2025-05-02T12:25:03Z</time>
      </trkpt>
      <trkpt lat="41.760310018435121" lon="-7.379554035142064">
        <ele>681.23000000000002</ele>
        <time>2025-05-02T12:25:04Z</time>
      </trkpt>
      <trkpt lat="41.760298032313585" lon="-7.379379021003842">
        <ele>682.66999999999996</ele>
        <time>2025-05-02T12:25:05Z</time>
      </trkpt>
      <trkpt lat="41.760285962373018" lon="-7.379195960238576">
        <ele>684.60000000000002</ele>
        <time>2025-05-02T12:25:06Z</time>
      </trkpt>
      <trkpt lat="41.76026601344347" lon="-7.379023041576147">
        <ele>686.03999999999996</ele>
        <time>2025-05-02T12:25:07Z</time>
      </trkpt>
      <trkpt lat="41.760228965431452" lon="-7.378848027437925">
        <ele>687.96000000000004</ele>
        <time>2025-05-02T12:25:08Z</time>
      </trkpt>
      <trkpt lat="41.760155959054828" lon="-7.378691034391522">
        <ele>689.39999999999998</ele>
        <time>2025-05-02T12:25:09Z</time>
      </trkpt>
      <trkpt lat="41.760059986263514" lon="-7.378548039123416">
        <ele>691.33000000000004</ele>
        <time>2025-05-02T12:25:10Z</time>
      </trkpt>
      <trkpt lat="41.759963007643819" lon="-7.378402026370168">
        <ele>693.25</ele>
        <time>2025-05-02T12:25:11Z</time>
      </trkpt>
      <trkpt lat="41.759870974346995" lon="-7.378263976424933">
        <ele>694.69000000000005</ele>
        <time>2025-05-02T12:25:12Z</time>
      </trkpt>
      <trkpt lat="41.759736025705934" lon="-7.37817102111876">
        <ele>696.61000000000001</ele>
        <time>2025-05-02T12:25:13Z</time>
      </trkpt>
      <trkpt lat="41.759618008509278" lon="-7.378088962286711">
        <ele>698.52999999999997</ele>
        <time>2025-05-02T12:25:14Z</time>
      </trkpt>
      <trkpt lat="41.759496973827481" lon="-7.378058033064008">
        <ele>700.46000000000004</ele>
        <time>2025-05-02T12:25:15Z</time>
      </trkpt>
      <trkpt lat="41.759362025186419" lon="-7.378040011972189">
        <ele>702.38</ele>
        <time>2025-05-02T12:25:16Z</time>
      </trkpt>
      <trkpt lat="41.759219029918313" lon="-7.37802098505199">
        <ele>704.29999999999995</ele>
        <time>2025-05-02T12:25:17Z</time>
      </trkpt>
      <trkpt lat="41.758649982511997" lon="-7.377944961190224">
        <ele>711.50999999999999</ele>
        <time>2025-05-02T12:25:21Z</time>
      </trkpt>
      <trkpt lat="41.758542023599148" lon="-7.377962982282043">
        <ele>713.44000000000005</ele>
        <time>2025-05-02T12:25:22Z</time>
      </trkpt>
      <trkpt lat="41.758464993909001" lon="-7.378049986436963">
        <ele>714.88</ele>
        <time>2025-05-02T12:25:23Z</time>
      </trkpt>
      <trkpt lat="41.758411014452577" lon="-7.378145959228277">
        <ele>716.79999999999995</ele>
        <time>2025-05-02T12:25:24Z</time>
      </trkpt>
      <trkpt lat="41.758411014452577" lon="-7.378269005566835">
        <ele>718.72000000000003</ele>
        <time>2025-05-02T12:25:25Z</time>
      </trkpt>
      <trkpt lat="41.758443033322692" lon="-7.378375036641955">
        <ele>719.67999999999995</ele>
        <time>2025-05-02T12:25:26Z</time>
      </trkpt>
      <trkpt lat="41.758515033870935" lon="-7.378460029140115">
        <ele>721.13</ele>
        <time>2025-05-02T12:25:27Z</time>
      </trkpt>
      <trkpt lat="41.758617963641882" lon="-7.378481989726424">
        <ele>722.09000000000003</ele>
        <time>2025-05-02T12:25:28Z</time>
      </trkpt>
      <trkpt lat="41.758746039122343" lon="-7.378507973626256">
        <ele>723.04999999999995</ele>
        <time>2025-05-02T12:25:29Z</time>
      </trkpt>
      <trkpt lat="41.758884005248547" lon="-7.37853697501123">
        <ele>724.49000000000001</ele>
        <time>2025-05-02T12:25:30Z</time>
      </trkpt>
      <trkpt lat="41.759014008566737" lon="-7.378565976396203">
        <ele>724.97000000000003</ele>
        <time>2025-05-02T12:25:31Z</time>
      </trkpt>
      <trkpt lat="41.759103024378419" lon="-7.378654992207885">
        <ele>725.92999999999995</ele>
        <time>2025-05-02T12:25:32Z</time>
      </trkpt>
      <trkpt lat="41.759155998006463" lon="-7.378780972212553">
        <ele>726.88999999999999</ele>
        <time>2025-05-02T12:25:33Z</time>
      </trkpt>
      <trkpt lat="41.759140994399786" lon="-7.378908963873982">
        <ele>727.86000000000001</ele>
        <time>2025-05-02T12:25:34Z</time>
      </trkpt>
      <trkpt lat="41.759094977751374" lon="-7.379008959978819">
        <ele>728.82000000000005</ele>
        <time>2025-05-02T12:25:35Z</time>
      </trkpt>
      <trkpt lat="41.759010991081595" lon="-7.379061011597514">
        <ele>729.77999999999997</ele>
        <time>2025-05-02T12:25:36Z</time>
      </trkpt>
      <trkpt lat="41.758928010240197" lon="-7.379092024639249">
        <ele>730.25999999999999</ele>
        <time>2025-05-02T12:25:37Z</time>
      </trkpt>
      <trkpt lat="41.758824996650219" lon="-7.379047013819218">
        <ele>731.22000000000003</ele>
        <time>2025-05-02T12:25:38Z</time>
      </trkpt>
      <trkpt lat="41.758709996938705" lon="-7.378996973857284">
        <ele>732.17999999999995</ele>
        <time>2025-05-02T12:25:39Z</time>
      </trkpt>
      <trkpt lat="41.758589968085289" lon="-7.37894500605762">
        <ele>733.13999999999999</ele>
        <time>2025-05-02T12:25:40Z</time>
      </trkpt>
      <trkpt lat="41.758465999737382" lon="-7.378891026601195">
        <ele>734.58000000000004</ele>
        <time>2025-05-02T12:25:41Z</time>
      </trkpt>
      <trkpt lat="41.758337002247572" lon="-7.37885900773108">
        <ele>735.54999999999995</ele>
        <time>2025-05-02T12:25:42Z</time>
      </trkpt>
      <trkpt lat="41.758199958130717" lon="-7.378827994689345">
        <ele>736.99000000000001</ele>
        <time>2025-05-02T12:25:43Z</time>
      </trkpt>
      <trkpt lat="41.758056962862611" lon="-7.37879597581923">
        <ele>738.90999999999997</ele>
        <time>2025-05-02T12:25:44Z</time>
      </trkpt>
      <trkpt lat="41.757920002564788" lon="-7.378743002191186">
        <ele>740.35000000000002</ele>
        <time>2025-05-02T12:25:45Z</time>
      </trkpt>
      <trkpt lat="41.757792010903358" lon="-7.378669995814562">
        <ele>741.78999999999996</ele>
        <time>2025-05-02T12:25:46Z</time>
      </trkpt>
      <trkpt lat="41.757682040333748" lon="-7.378606963902712">
        <ele>743.24000000000001</ele>
        <time>2025-05-02T12:25:47Z</time>
      </trkpt>
      <trkpt lat="41.75753703340888" lon="-7.378606963902712">
        <ele>745.15999999999997</ele>
        <time>2025-05-02T12:25:48Z</time>
      </trkpt>
      <trkpt lat="41.757409041747451" lon="-7.37862397916615">
        <ele>746.60000000000002</ele>
        <time>2025-05-02T12:25:49Z</time>
      </trkpt>
      <trkpt lat="41.75727803260088" lon="-7.378684999421239">
        <ele>748.03999999999996</ele>
        <time>2025-05-02T12:25:50Z</time>
      </trkpt>
      <trkpt lat="41.757145011797547" lon="-7.378747025504708">
        <ele>749.97000000000003</ele>
        <time>2025-05-02T12:25:51Z</time>
      </trkpt>
      <trkpt lat="41.757012996822596" lon="-7.378767980262637">
        <ele>751.40999999999997</ele>
        <time>2025-05-02T12:25:52Z</time>
      </trkpt>
      <trkpt lat="41.75689397379756" lon="-7.378769991919398">
        <ele>752.37</ele>
        <time>2025-05-02T12:25:53Z</time>
      </trkpt>
      <trkpt lat="41.756782997399569" lon="-7.378711989149451">
        <ele>753.80999999999995</ele>
        <time>2025-05-02T12:25:54Z</time>
      </trkpt>
      <trkpt lat="41.756552997976542" lon="-7.378591038286686">
        <ele>756.21000000000004</ele>
        <time>2025-05-02T12:25:56Z</time>
      </trkpt>
      <trkpt lat="41.756436992436647" lon="-7.378547033295035">
        <ele>757.65999999999997</ele>
        <time>2025-05-02T12:25:57Z</time>
      </trkpt>
      <trkpt lat="41.756190983578563" lon="-7.378480983898044">
        <ele>759.58000000000004</ele>
        <time>2025-05-02T12:25:59Z</time>
      </trkpt>
      <trkpt lat="41.75609802827239" lon="-7.378396997228265">
        <ele>760.53999999999996</ele>
        <time>2025-05-02T12:26:00Z</time>
      </trkpt>
      <trkpt lat="41.755999037995934" lon="-7.378297001123428">
        <ele>761.5</ele>
        <time>2025-05-02T12:26:01Z</time>
      </trkpt>
      <trkpt lat="41.755909016355872" lon="-7.378175966441631">
        <ele>762.94000000000005</ele>
        <time>2025-05-02T12:26:02Z</time>
      </trkpt>
      <trkpt lat="41.755856964737177" lon="-7.378006987273693">
        <ele>764.38999999999999</ele>
        <time>2025-05-02T12:26:03Z</time>
      </trkpt>
      <trkpt lat="41.755804996937513" lon="-7.377834990620613">
        <ele>765.35000000000002</ele>
        <time>2025-05-02T12:26:04Z</time>
      </trkpt>
      <trkpt lat="41.755771972239017" lon="-7.37765503115952">
        <ele>766.78999999999996</ele>
        <time>2025-05-02T12:26:05Z</time>
      </trkpt>
      <trkpt lat="41.755783958360553" lon="-7.377469036728144">
        <ele>768.71000000000004</ele>
        <time>2025-05-02T12:26:06Z</time>
      </trkpt>
      <trkpt lat="41.75581899471581" lon="-7.377285975962877">
        <ele>770.14999999999998</ele>
        <time>2025-05-02T12:26:07Z</time>
      </trkpt>
      <trkpt lat="41.755855958908796" lon="-7.377095958217979">
        <ele>771.60000000000002</ele>
        <time>2025-05-02T12:26:08Z</time>
      </trkpt>
      <trkpt lat="41.755892001092434" lon="-7.37690401263535">
        <ele>773.03999999999996</ele>
        <time>2025-05-02T12:26:09Z</time>
      </trkpt>
      <trkpt lat="41.755927037447691" lon="-7.376720029860735">
        <ele>774</ele>
        <time>2025-05-02T12:26:10Z</time>
      </trkpt>
      <trkpt lat="41.755933994427323" lon="-7.376550966873765">
        <ele>775.44000000000005</ele>
        <time>2025-05-02T12:26:11Z</time>
      </trkpt>
      <trkpt lat="41.755915973335505" lon="-7.376396991312504">
        <ele>776.39999999999998</ele>
        <time>2025-05-02T12:26:12Z</time>
      </trkpt>
      <trkpt lat="41.755878003314137" lon="-7.37623798660934">
        <ele>777.36000000000001</ele>
        <time>2025-05-02T12:26:13Z</time>
      </trkpt>
      <trkpt lat="41.755784964188933" lon="-7.376117035746574">
        <ele>778.80999999999995</ele>
        <time>2025-05-02T12:26:14Z</time>
      </trkpt>
      <trkpt lat="41.755684968084097" lon="-7.375988038256764">
        <ele>779.76999999999998</ele>
        <time>2025-05-02T12:26:15Z</time>
      </trkpt>
      <trkpt lat="41.755564017221332" lon="-7.375877983868122">
        <ele>780.73000000000002</ele>
        <time>2025-05-02T12:26:16Z</time>
      </trkpt>
      <trkpt lat="41.75543200224638" lon="-7.375762984156609">
        <ele>782.16999999999996</ele>
        <time>2025-05-02T12:26:17Z</time>
      </trkpt>
      <trkpt lat="41.754822973161936" lon="-7.375367023050785">
        <ele>786.5</ele>
        <time>2025-05-02T12:26:21Z</time>
      </trkpt>
      <trkpt lat="41.754656005650759" lon="-7.375258980318904">
        <ele>787.46000000000004</ele>
        <time>2025-05-02T12:26:22Z</time>
      </trkpt>
      <trkpt lat="41.753838015720248" lon="-7.374871987849474">
        <ele>791.77999999999997</ele>
        <time>2025-05-02T12:26:27Z</time>
      </trkpt>
      <trkpt lat="41.753679011017084" lon="-7.374758999794722">
        <ele>792.74000000000001</ele>
        <time>2025-05-02T12:26:28Z</time>
      </trkpt>
      <trkpt lat="41.75352000631392" lon="-7.374646011739969">
        <ele>793.71000000000004</ele>
        <time>2025-05-02T12:26:29Z</time>
      </trkpt>
      <trkpt lat="41.753359995782375" lon="-7.374533023685217">
        <ele>794.66999999999996</ele>
        <time>2025-05-02T12:26:30Z</time>
      </trkpt>
      <trkpt lat="41.753185987472534" lon="-7.374449959024787">
        <ele>795.63</ele>
        <time>2025-05-02T12:26:31Z</time>
      </trkpt>
      <trkpt lat="41.753006028011441" lon="-7.374374018982053">
        <ele>796.59000000000003</ele>
        <time>2025-05-02T12:26:32Z</time>
      </trkpt>
      <trkpt lat="41.751356972381473" lon="-7.373578995466232">
        <ele>807.63999999999999</ele>
        <time>2025-05-02T12:26:42Z</time>
      </trkpt>
      <trkpt lat="41.750262966379523" lon="-7.373067028820515">
        <ele>810.52999999999997</ele>
        <time>2025-05-02T12:26:49Z</time>
      </trkpt>
      <trkpt lat="41.750084012746811" lon="-7.372983964160085">
        <ele>810.04999999999995</ele>
        <time>2025-05-02T12:26:50Z</time>
      </trkpt>
      <trkpt lat="41.749019008129835" lon="-7.372535029426217">
        <ele>806.67999999999995</ele>
        <time>2025-05-02T12:26:56Z</time>
      </trkpt>
      <trkpt lat="41.74842900596559" lon="-7.372401002794504">
        <ele>804.27999999999997</ele>
        <time>2025-05-02T12:26:59Z</time>
      </trkpt>
      <trkpt lat="41.746527990326285" lon="-7.371586030349135">
        <ele>796.59000000000003</ele>
        <time>2025-05-02T12:27:09Z</time>
      </trkpt>
      <trkpt lat="41.746394969522953" lon="-7.371462984010577">
        <ele>796.59000000000003</ele>
        <time>2025-05-02T12:27:10Z</time>
      </trkpt>
      <trkpt lat="41.745285959914327" lon="-7.370489006862044">
        <ele>796.11000000000001</ele>
        <time>2025-05-02T12:27:17Z</time>
      </trkpt>
      <trkpt lat="41.744016017764807" lon="-7.369656013324857">
        <ele>796.11000000000001</ele>
        <time>2025-05-02T12:27:25Z</time>
      </trkpt>
      <trkpt lat="41.742931986227632" lon="-7.369128037244082">
        <ele>792.25999999999999</ele>
        <time>2025-05-02T12:27:33Z</time>
      </trkpt>
      <trkpt lat="41.742824027314782" lon="-7.369046984240413">
        <ele>791.77999999999997</ele>
        <time>2025-05-02T12:27:34Z</time>
      </trkpt>
      <trkpt lat="41.742724031209946" lon="-7.368942964822054">
        <ele>790.82000000000005</ele>
        <time>2025-05-02T12:27:35Z</time>
      </trkpt>
      <trkpt lat="41.741577973589301" lon="-7.367834039032459">
        <ele>782.16999999999996</ele>
        <time>2025-05-02T12:27:46Z</time>
      </trkpt>
      <trkpt lat="41.740726958960295" lon="-7.367281001061201">
        <ele>776.88</ele>
        <time>2025-05-02T12:27:54Z</time>
      </trkpt>
      <trkpt lat="41.740034027025104" lon="-7.366799041628838">
        <ele>773.51999999999998</ele>
        <time>2025-05-02T12:28:02Z</time>
      </trkpt>
      <trkpt lat="41.7393400054425" lon="-7.366235023364425">
        <ele>770.14999999999998</ele>
        <time>2025-05-02T12:28:11Z</time>
      </trkpt>
      <trkpt lat="41.739130960777402" lon="-7.365879965946078">
        <ele>770.14999999999998</ele>
        <time>2025-05-02T12:28:15Z</time>
      </trkpt>
      <trkpt lat="41.739096008241177" lon="-7.365775024518371">
        <ele>770.14999999999998</ele>
        <time>2025-05-02T12:28:16Z</time>
      </trkpt>
      <trkpt lat="41.739062983542681" lon="-7.365660024806857">
        <ele>770.63</ele>
        <time>2025-05-02T12:28:17Z</time>
      </trkpt>
      <trkpt lat="41.739028031006455" lon="-7.365542007610202">
        <ele>770.63</ele>
        <time>2025-05-02T12:28:18Z</time>
      </trkpt>
      <trkpt lat="41.738994000479579" lon="-7.365421978756785">
        <ele>771.60000000000002</ele>
        <time>2025-05-02T12:28:19Z</time>
      </trkpt>
      <trkpt lat="41.738692000508308" lon="-7.364315986633301">
        <ele>776.88</ele>
        <time>2025-05-02T12:28:29Z</time>
      </trkpt>
      <trkpt lat="41.738696023821831" lon="-7.364196041598916">
        <ele>776.88</ele>
        <time>2025-05-02T12:28:30Z</time>
      </trkpt>
      <trkpt lat="41.738699963316321" lon="-7.3640760127455">
        <ele>776.39999999999998</ele>
        <time>2025-05-02T12:28:31Z</time>
      </trkpt>
      <trkpt lat="41.738900039345026" lon="-7.362631978467107">
        <ele>771.11000000000001</ele>
        <time>2025-05-02T12:28:40Z</time>
      </trkpt>
      <trkpt lat="41.738948989659548" lon="-7.362321009859443">
        <ele>770.14999999999998</ele>
        <time>2025-05-02T12:28:42Z</time>
      </trkpt>
      <trkpt lat="41.738916970789433" lon="-7.362125962972641">
        <ele>769.66999999999996</ele>
        <time>2025-05-02T12:28:43Z</time>
      </trkpt>
      <trkpt lat="41.738887969404459" lon="-7.36195002682507">
        <ele>769.19000000000005</ele>
        <time>2025-05-02T12:28:44Z</time>
      </trkpt>
      <trkpt lat="41.738797025755048" lon="-7.361366981640458">
        <ele>768.71000000000004</ele>
        <time>2025-05-02T12:28:47Z</time>
      </trkpt>
      <trkpt lat="41.738785961642861" lon="-7.361165983602405">
        <ele>769.19000000000005</ele>
        <time>2025-05-02T12:28:48Z</time>
      </trkpt>
      <trkpt lat="41.738731982186437" lon="-7.35975899733603">
        <ele>769.66999999999996</ele>
        <time>2025-05-02T12:28:55Z</time>
      </trkpt>
      <trkpt lat="41.738699963316321" lon="-7.359577026218176">
        <ele>770.14999999999998</ele>
        <time>2025-05-02T12:28:56Z</time>
      </trkpt>
      <trkpt lat="41.738649001345038" lon="-7.359407041221857">
        <ele>770.14999999999998</ele>
        <time>2025-05-02T12:28:57Z</time>
      </trkpt>
      <trkpt lat="41.738412966951728" lon="-7.358414959162474">
        <ele>771.11000000000001</ele>
        <time>2025-05-02T12:29:03Z</time>
      </trkpt>
      <trkpt lat="41.738403998315334" lon="-7.358221001923084">
        <ele>771.11000000000001</ele>
        <time>2025-05-02T12:29:04Z</time>
      </trkpt>
      <trkpt lat="41.738557973876595" lon="-7.356445966288447">
        <ele>771.60000000000002</ele>
        <time>2025-05-02T12:29:12Z</time>
      </trkpt>
      <trkpt lat="41.738600973039865" lon="-7.355684973299503">
        <ele>770.14999999999998</ele>
        <time>2025-05-02T12:29:15Z</time>
      </trkpt>
      <trkpt lat="41.738613964989781" lon="-7.355429995805025">
        <ele>770.63</ele>
        <time>2025-05-02T12:29:16Z</time>
      </trkpt>
      <trkpt lat="41.738596027716994" lon="-7.354032984003425">
        <ele>772.08000000000004</ele>
        <time>2025-05-02T12:29:22Z</time>
      </trkpt>
      <trkpt lat="41.738549005240202" lon="-7.353822011500597">
        <ele>772.55999999999995</ele>
        <time>2025-05-02T12:29:23Z</time>
      </trkpt>
      <trkpt lat="41.738412966951728" lon="-7.353222034871578">
        <ele>775.91999999999996</ele>
        <time>2025-05-02T12:29:26Z</time>
      </trkpt>
      <trkpt lat="41.738407015800476" lon="-7.353030005469918">
        <ele>776.88</ele>
        <time>2025-05-02T12:29:27Z</time>
      </trkpt>
      <trkpt lat="41.738401986658573" lon="-7.352831019088626">
        <ele>778.32000000000005</ele>
        <time>2025-05-02T12:29:28Z</time>
      </trkpt>
      <trkpt lat="41.738484967499971" lon="-7.351457979530096">
        <ele>787.46000000000004</ele>
        <time>2025-05-02T12:29:35Z</time>
      </trkpt>
      <trkpt lat="41.738507011905313" lon="-7.351291012018919">
        <ele>788.89999999999998</ele>
        <time>2025-05-02T12:29:36Z</time>
      </trkpt>
      <trkpt lat="41.738568032160401" lon="-7.351135024800897">
        <ele>789.86000000000001</ele>
        <time>2025-05-02T12:29:37Z</time>
      </trkpt>
      <trkpt lat="41.738628968596458" lon="-7.350978031754494">
        <ele>790.82000000000005</ele>
        <time>2025-05-02T12:29:38Z</time>
      </trkpt>
      <trkpt lat="41.738715972751379" lon="-7.350864037871361">
        <ele>791.77999999999997</ele>
        <time>2025-05-02T12:29:39Z</time>
      </trkpt>
      <trkpt lat="41.73882401548326" lon="-7.350763035938144">
        <ele>792.74000000000001</ele>
        <time>2025-05-02T12:29:40Z</time>
      </trkpt>
      <trkpt lat="41.738940021023154" lon="-7.350654993206263">
        <ele>793.71000000000004</ele>
        <time>2025-05-02T12:29:41Z</time>
      </trkpt>
      <trkpt lat="41.739075975492597" lon="-7.350588021799922">
        <ele>794.66999999999996</ele>
        <time>2025-05-02T12:29:42Z</time>
      </trkpt>
      <trkpt lat="41.739232968539" lon="-7.350531024858356">
        <ele>795.63</ele>
        <time>2025-05-02T12:29:43Z</time>
      </trkpt>
      <trkpt lat="41.739398008212447" lon="-7.350471010431647">
        <ele>796.11000000000001</ele>
        <time>2025-05-02T12:29:44Z</time>
      </trkpt>
      <trkpt lat="41.7400480248034" lon="-7.350203040987253">
        <ele>798.50999999999999</ele>
        <time>2025-05-02T12:29:48Z</time>
      </trkpt>
      <trkpt lat="41.740165036171675" lon="-7.350101033225656">
        <ele>799.47000000000003</ele>
        <time>2025-05-02T12:29:49Z</time>
      </trkpt>
      <trkpt lat="41.740268971771002" lon="-7.349948985502124">
        <ele>800.44000000000005</ele>
        <time>2025-05-02T12:29:50Z</time>
      </trkpt>
      <trkpt lat="41.741078998893499" lon="-7.348639983683825">
        <ele>808.61000000000001</ele>
        <time>2025-05-02T12:29:58Z</time>
      </trkpt>
      <trkpt lat="41.741138007491827" lon="-7.34847997315228">
        <ele>809.57000000000005</ele>
        <time>2025-05-02T12:29:59Z</time>
      </trkpt>
      <trkpt lat="41.741120992228389" lon="-7.34828601591289">
        <ele>810.52999999999997</ele>
        <time>2025-05-02T12:30:00Z</time>
      </trkpt>
      <trkpt lat="41.741104982793331" lon="-7.348097003996372">
        <ele>811.97000000000003</ele>
        <time>2025-05-02T12:30:01Z</time>
      </trkpt>
      <trkpt lat="41.741088973358274" lon="-7.347913021221757">
        <ele>812.92999999999995</ele>
        <time>2025-05-02T12:30:02Z</time>
      </trkpt>
      <trkpt lat="41.741084028035402" lon="-7.347195027396083">
        <ele>818.22000000000003</ele>
        <time>2025-05-02T12:30:07Z</time>
      </trkpt>
      <trkpt lat="41.741100959479809" lon="-7.347065024077892">
        <ele>819.17999999999995</ele>
        <time>2025-05-02T12:30:08Z</time>
      </trkpt>
      <trkpt lat="41.741434978321195" lon="-7.346139997243881">
        <ele>821.58000000000004</ele>
        <time>2025-05-02T12:30:17Z</time>
      </trkpt>
      <trkpt lat="41.741604041308165" lon="-7.34566499479115">
        <ele>821.58000000000004</ele>
        <time>2025-05-02T12:30:21Z</time>
      </trkpt>
      <trkpt lat="41.741632036864758" lon="-7.345561981201172">
        <ele>821.10000000000002</ele>
        <time>2025-05-02T12:30:22Z</time>
      </trkpt>
      <trkpt lat="41.741632036864758" lon="-7.345423009246588">
        <ele>820.62</ele>
        <time>2025-05-02T12:30:23Z</time>
      </trkpt>
      <trkpt lat="41.741632036864758" lon="-7.345293005928397">
        <ele>820.13999999999999</ele>
        <time>2025-05-02T12:30:24Z</time>
      </trkpt>
      <trkpt lat="41.741621978580952" lon="-7.345165014266968">
        <ele>820.13999999999999</ele>
        <time>2025-05-02T12:30:25Z</time>
      </trkpt>
      <trkpt lat="41.741597000509501" lon="-7.345030987635255">
        <ele>820.13999999999999</ele>
        <time>2025-05-02T12:30:26Z</time>
      </trkpt>
      <trkpt lat="41.74138099886477" lon="-7.343577984720469">
        <ele>818.22000000000003</ele>
        <time>2025-05-02T12:30:36Z</time>
      </trkpt>
      <trkpt lat="41.741391979157925" lon="-7.343441024422646">
        <ele>817.74000000000001</ele>
        <time>2025-05-02T12:30:37Z</time>
      </trkpt>
      <trkpt lat="41.74140203744173" lon="-7.343308003619313">
        <ele>817.25999999999999</ele>
        <time>2025-05-02T12:30:38Z</time>
      </trkpt>
      <trkpt lat="41.741517037153244" lon="-7.341924989596009">
        <ele>810.52999999999997</ele>
        <time>2025-05-02T12:30:50Z</time>
      </trkpt>
      <trkpt lat="41.741579985246062" lon="-7.341258963569999">
        <ele>807.15999999999997</ele>
        <time>2025-05-02T12:30:59Z</time>
      </trkpt>
      <trkpt lat="41.741615021601319" lon="-7.340858979150653">
        <ele>802.84000000000003</ele>
        <time>2025-05-02T12:31:08Z</time>
      </trkpt>
      <trkpt lat="41.741624996066093" lon="-7.340731993317604">
        <ele>802.36000000000001</ele>
        <time>2025-05-02T12:31:10Z</time>
      </trkpt>
      <trkpt lat="41.741632036864758" lon="-7.340648006647825">
        <ele>801.88</ele>
        <time>2025-05-02T12:31:11Z</time>
      </trkpt>
      <trkpt lat="41.741546038538218" lon="-7.339982986450195">
        <ele>796.11000000000001</ele>
        <time>2025-05-02T12:31:22Z</time>
      </trkpt>
      <trkpt lat="41.74153002910316" lon="-7.339963959529996">
        <ele>795.14999999999998</ele>
        <time>2025-05-02T12:31:23Z</time>
      </trkpt>
      <trkpt lat="41.741384016349912" lon="-7.339789029210806">
        <ele>793.71000000000004</ele>
        <time>2025-05-02T12:31:27Z</time>
      </trkpt>
      <trkpt lat="41.741346968337893" lon="-7.339745024219155">
        <ele>793.71000000000004</ele>
        <time>2025-05-02T12:31:28Z</time>
      </trkpt>
      <trkpt lat="41.741328025236726" lon="-7.339680986478925">
        <ele>793.22000000000003</ele>
        <time>2025-05-02T12:31:29Z</time>
      </trkpt>
      <trkpt lat="41.741324001923203" lon="-7.339618960395455">
        <ele>792.74000000000001</ele>
        <time>2025-05-02T12:31:30Z</time>
      </trkpt>
      <trkpt lat="41.741318972781301" lon="-7.339555006474257">
        <ele>792.74000000000001</ele>
        <time>2025-05-02T12:31:31Z</time>
      </trkpt>
      <trkpt lat="41.741314027458429" lon="-7.339488035067916">
        <ele>792.25999999999999</ele>
        <time>2025-05-02T12:31:32Z</time>
      </trkpt>
      <trkpt lat="41.741310004144907" lon="-7.339425003156066">
        <ele>791.77999999999997</ele>
        <time>2025-05-02T12:31:33Z</time>
      </trkpt>
      <trkpt lat="41.74131503328681" lon="-7.339346967637539">
        <ele>791.77999999999997</ele>
        <time>2025-05-02T12:31:34Z</time>
      </trkpt>
      <trkpt lat="41.741320984438062" lon="-7.339272033423185">
        <ele>791.29999999999995</ele>
        <time>2025-05-02T12:31:35Z</time>
      </trkpt>
      <trkpt lat="41.741325007751584" lon="-7.339080004021525">
        <ele>790.34000000000003</ele>
        <time>2025-05-02T12:31:38Z</time>
      </trkpt>
      <trkpt lat="41.741316961124539" lon="-7.339026024565101">
        <ele>789.86000000000001</ele>
        <time>2025-05-02T12:31:39Z</time>
      </trkpt>
      <trkpt lat="41.741310004144907" lon="-7.338974978774786">
        <ele>789.86000000000001</ele>
        <time>2025-05-02T12:31:40Z</time>
      </trkpt>
      <trkpt lat="41.741269016638398" lon="-7.338893003761768">
        <ele>789.38</ele>
        <time>2025-05-02T12:31:42Z</time>
      </trkpt>
      <trkpt lat="41.741245966404676" lon="-7.338847992941737">
        <ele>789.38</ele>
        <time>2025-05-02T12:31:43Z</time>
      </trkpt>
      <trkpt lat="41.741235991939902" lon="-7.338841035962105">
        <ele>789.38</ele>
        <time>2025-05-02T12:31:44Z</time>
      </trkpt>
      <trkpt lat="41.741201961413026" lon="-7.338824020698667">
        <ele>788.89999999999998</ele>
        <time>2025-05-02T12:31:45Z</time>
      </trkpt>
      <trkpt lat="41.741158962249756" lon="-7.338802982121706">
        <ele>788.89999999999998</ele>
        <time>2025-05-02T12:31:46Z</time>
      </trkpt>
      <trkpt lat="41.741111017763615" lon="-7.338747996836901">
        <ele>788.89999999999998</ele>
        <time>2025-05-02T12:31:47Z</time>
      </trkpt>
      <trkpt lat="41.741061983630061" lon="-7.338693011552095">
        <ele>788.41999999999996</ele>
        <time>2025-05-02T12:31:48Z</time>
      </trkpt>
      <trkpt lat="41.740987971425056" lon="-7.338610030710697">
        <ele>788.41999999999996</ele>
        <time>2025-05-02T12:31:49Z</time>
      </trkpt>
      <trkpt lat="41.740961987525225" lon="-7.33855496160686">
        <ele>787.94000000000005</ele>
        <time>2025-05-02T12:31:50Z</time>
      </trkpt>
      <trkpt lat="41.740686977282166" lon="-7.337965965270996">
        <ele>782.64999999999998</ele>
        <time>2025-05-02T12:32:00Z</time>
      </trkpt>
      <trkpt lat="41.740610031411052" lon="-7.337920032441616">
        <ele>781.69000000000005</ele>
        <time>2025-05-02T12:32:02Z</time>
      </trkpt>
      <trkpt lat="41.740580024197698" lon="-7.337902011349797">
        <ele>781.21000000000004</ele>
        <time>2025-05-02T12:32:03Z</time>
      </trkpt>
      <trkpt lat="41.740577006712556" lon="-7.337902011349797">
        <ele>780.73000000000002</ele>
        <time>2025-05-02T12:32:04Z</time>
      </trkpt>
      <trkpt lat="41.740511963143945" lon="-7.337896982207894">
        <ele>778.32000000000005</ele>
        <time>2025-05-02T12:32:14Z</time>
      </trkpt>
      <trkpt lat="41.740511963143945" lon="-7.337896982207894">
        <ele>777.84000000000003</ele>
        <time>2025-05-02T12:32:27Z</time>
      </trkpt>
      <trkpt lat="41.740511963143945" lon="-7.337896982207894">
        <ele>777.36000000000001</ele>
        <time>2025-05-02T12:33:11Z</time>
      </trkpt>
      <trkpt lat="41.740511963143945" lon="-7.337896982207894">
        <ele>776.88</ele>
        <time>2025-05-02T12:33:48Z</time>
      </trkpt>
      <trkpt lat="41.740511963143945" lon="-7.337896982207894">
        <ele>777.84000000000003</ele>
        <time>2025-05-02T12:34:29Z</time>
      </trkpt>
      <trkpt lat="41.740511963143945" lon="-7.337896982207894">
        <ele>778.32000000000005</ele>
        <time>2025-05-02T12:35:14Z</time>
      </trkpt>
      <trkpt lat="41.740511963143945" lon="-7.337896982207894">
        <ele>778.32000000000005</ele>
        <time>2025-05-02T12:35:57Z</time>
      </trkpt>
      <trkpt lat="41.740511963143945" lon="-7.337896982207894">
        <ele>777.84000000000003</ele>
        <time>2025-05-02T12:36:34Z</time>
      </trkpt>
      <trkpt lat="41.740267965942621" lon="-7.337880972772837">
        <ele>775.91999999999996</ele>
        <time>2025-05-02T12:36:44Z</time>
      </trkpt>
      <trkpt lat="41.73949096351862" lon="-7.337763039395213">
        <ele>773.51999999999998</ele>
        <time>2025-05-02T12:36:54Z</time>
      </trkpt>
      <trkpt lat="41.738761989399791" lon="-7.337440000846982">
        <ele>771.11000000000001</ele>
        <time>2025-05-02T12:37:02Z</time>
      </trkpt>
      <trkpt lat="41.738297967240214" lon="-7.337190974503756">
        <ele>769.66999999999996</ele>
        <time>2025-05-02T12:37:06Z</time>
      </trkpt>
      <trkpt lat="41.73817802220583" lon="-7.33717898838222">
        <ele>769.66999999999996</ele>
        <time>2025-05-02T12:37:07Z</time>
      </trkpt>
      <trkpt lat="41.738053970038891" lon="-7.337165996432304">
        <ele>769.19000000000005</ele>
        <time>2025-05-02T12:37:08Z</time>
      </trkpt>
      <trkpt lat="41.737032970413566" lon="-7.337013026699424">
        <ele>767.26999999999998</ele>
        <time>2025-05-02T12:37:16Z</time>
      </trkpt>
      <trkpt lat="41.736902967095375" lon="-7.336930967867374">
        <ele>766.78999999999996</ele>
        <time>2025-05-02T12:37:17Z</time>
      </trkpt>
      <trkpt lat="41.736769024282694" lon="-7.336832983419299">
        <ele>765.83000000000004</ele>
        <time>2025-05-02T12:37:18Z</time>
      </trkpt>
      <trkpt lat="41.736080031841993" lon="-7.336245998740196">
        <ele>759.58000000000004</ele>
        <time>2025-05-02T12:37:23Z</time>
      </trkpt>
      <trkpt lat="41.735947011038661" lon="-7.336108032613993">
        <ele>758.62</ele>
        <time>2025-05-02T12:37:24Z</time>
      </trkpt>
      <trkpt lat="41.735396990552545" lon="-7.335370006039739">
        <ele>754.76999999999998</ele>
        <time>2025-05-02T12:37:29Z</time>
      </trkpt>
      <trkpt lat="41.735302023589611" lon="-7.335241008549929">
        <ele>754.28999999999996</ele>
        <time>2025-05-02T12:37:30Z</time>
      </trkpt>
      <trkpt lat="41.735204961150885" lon="-7.335204966366291">
        <ele>754.28999999999996</ele>
        <time>2025-05-02T12:37:31Z</time>
      </trkpt>
      <trkpt lat="41.735080992802978" lon="-7.335160039365292">
        <ele>753.80999999999995</ele>
        <time>2025-05-02T12:37:32Z</time>
      </trkpt>
      <trkpt lat="41.734948977828026" lon="-7.335111005231738">
        <ele>753.33000000000004</ele>
        <time>2025-05-02T12:37:33Z</time>
      </trkpt>
      <trkpt lat="41.733463034033775" lon="-7.334478003904223">
        <ele>749.97000000000003</ele>
        <time>2025-05-02T12:37:43Z</time>
      </trkpt>
      <trkpt lat="41.7325499933213" lon="-7.333765961229801">
        <ele>749.49000000000001</ele>
        <time>2025-05-02T12:37:50Z</time>
      </trkpt>
      <trkpt lat="41.732438011094928" lon="-7.333627995103598">
        <ele>749.49000000000001</ele>
        <time>2025-05-02T12:37:51Z</time>
      </trkpt>
      <trkpt lat="41.731495968997478" lon="-7.332152025774121">
        <ele>745.15999999999997</ele>
        <time>2025-05-02T12:38:00Z</time>
      </trkpt>
      <trkpt lat="41.731203021481633" lon="-7.331679034978151">
        <ele>741.78999999999996</ele>
        <time>2025-05-02T12:38:04Z</time>
      </trkpt>
      <trkpt lat="41.731148036196828" lon="-7.331450963392854">
        <ele>740.35000000000002</ele>
        <time>2025-05-02T12:38:05Z</time>
      </trkpt>
      <trkpt lat="41.73111098818481" lon="-7.331301011145115">
        <ele>739.38999999999999</ele>
        <time>2025-05-02T12:38:06Z</time>
      </trkpt>
      <trkpt lat="41.730771018192172" lon="-7.329987986013293">
        <ele>730.74000000000001</ele>
        <time>2025-05-02T12:38:13Z</time>
      </trkpt>
      <trkpt lat="41.730022011324763" lon="-7.327984040603042">
        <ele>718.72000000000003</ele>
        <time>2025-05-02T12:38:24Z</time>
      </trkpt>
      <trkpt lat="41.72971498221159" lon="-7.327560000121594">
        <ele>714.39999999999998</ele>
        <time>2025-05-02T12:38:27Z</time>
      </trkpt>
      <trkpt lat="41.729623032733798" lon="-7.327441982924938">
        <ele>712.95000000000005</ele>
        <time>2025-05-02T12:38:28Z</time>
      </trkpt>
      <trkpt lat="41.729509960860014" lon="-7.327363025397062">
        <ele>711.99000000000001</ele>
        <time>2025-05-02T12:38:29Z</time>
      </trkpt>
      <trkpt lat="41.729138977825642" lon="-7.32710100710392">
        <ele>707.66999999999996</ele>
        <time>2025-05-02T12:38:32Z</time>
      </trkpt>
      <trkpt lat="41.728541012853384" lon="-7.326613012701273">
        <ele>700.94000000000005</ele>
        <time>2025-05-02T12:38:37Z</time>
      </trkpt>
      <trkpt lat="41.728448979556561" lon="-7.326507987454534">
        <ele>699.98000000000002</ele>
        <time>2025-05-02T12:38:38Z</time>
      </trkpt>
      <trkpt lat="41.727706007659435" lon="-7.325341980904341">
        <ele>687.48000000000002</ele>
        <time>2025-05-02T12:38:46Z</time>
      </trkpt>
      <trkpt lat="41.727613974362612" lon="-7.325182976201177">
        <ele>686.03999999999996</ele>
        <time>2025-05-02T12:38:47Z</time>
      </trkpt>
      <trkpt lat="41.727222036570311" lon="-7.324612000957131">
        <ele>680.26999999999998</ele>
        <time>2025-05-02T12:38:51Z</time>
      </trkpt>
      <trkpt lat="41.727016009390354" lon="-7.324359035119414">
        <ele>677.87</ele>
        <time>2025-05-02T12:38:53Z</time>
      </trkpt>
      <trkpt lat="41.726905032992363" lon="-7.32422299683094">
        <ele>675.94000000000005</ele>
        <time>2025-05-02T12:38:54Z</time>
      </trkpt>
      <trkpt lat="41.726796990260482" lon="-7.324057035148144">
        <ele>674.5</ele>
        <time>2025-05-02T12:38:55Z</time>
      </trkpt>
      <trkpt lat="41.72606298699975" lon="-7.322313012555242">
        <ele>661.03999999999996</ele>
        <time>2025-05-02T12:39:04Z</time>
      </trkpt>
      <trkpt lat="41.725904988124967" lon="-7.322014030069113">
        <ele>658.63999999999999</ele>
        <time>2025-05-02T12:39:06Z</time>
      </trkpt>
      <trkpt lat="41.72582401894033" lon="-7.321869023144245">
        <ele>658.15999999999997</ele>
        <time>2025-05-02T12:39:07Z</time>
      </trkpt>
      <trkpt lat="41.725736008957028" lon="-7.321726027876139">
        <ele>657.20000000000005</ele>
        <time>2025-05-02T12:39:08Z</time>
      </trkpt>
      <trkpt lat="41.725624026730657" lon="-7.321608010679483">
        <ele>655.75999999999999</ele>
        <time>2025-05-02T12:39:09Z</time>
      </trkpt>
      <trkpt lat="41.725514978170395" lon="-7.32149301096797">
        <ele>654.79999999999995</ele>
        <time>2025-05-02T12:39:10Z</time>
      </trkpt>
      <trkpt lat="41.725412970408797" lon="-7.321384968236089">
        <ele>653.83000000000004</ele>
        <time>2025-05-02T12:39:11Z</time>
      </trkpt>
      <trkpt lat="41.725304005667567" lon="-7.321311961859465">
        <ele>652.87</ele>
        <time>2025-05-02T12:39:12Z</time>
      </trkpt>
      <trkpt lat="41.725188000127673" lon="-7.321266029030085">
        <ele>651.90999999999997</ele>
        <time>2025-05-02T12:39:13Z</time>
      </trkpt>
      <trkpt lat="41.725070988759398" lon="-7.321221018210053">
        <ele>650.95000000000005</ele>
        <time>2025-05-02T12:39:14Z</time>
      </trkpt>
      <trkpt lat="41.724955989047885" lon="-7.321175001561642">
        <ele>649.50999999999999</ele>
        <time>2025-05-02T12:39:15Z</time>
      </trkpt>
      <trkpt lat="41.724847024306655" lon="-7.321132002398372">
        <ele>649.02999999999997</ele>
        <time>2025-05-02T12:39:16Z</time>
      </trkpt>
      <trkpt lat="41.724747028201818" lon="-7.321072993800044">
        <ele>647.59000000000003</ele>
        <time>2025-05-02T12:39:17Z</time>
      </trkpt>
      <trkpt lat="41.724672010168433" lon="-7.320967968553305">
        <ele>646.62</ele>
        <time>2025-05-02T12:39:18Z</time>
      </trkpt>
      <trkpt lat="41.724597997963428" lon="-7.320863027125597">
        <ele>645.65999999999997</ele>
        <time>2025-05-02T12:39:19Z</time>
      </trkpt>
      <trkpt lat="41.724507976323366" lon="-7.320736041292548">
        <ele>645.17999999999995</ele>
        <time>2025-05-02T12:39:20Z</time>
      </trkpt>
      <trkpt lat="41.724466988816857" lon="-7.320608971640468">
        <ele>644.22000000000003</ele>
        <time>2025-05-02T12:39:21Z</time>
      </trkpt>
      <trkpt lat="41.724418960511684" lon="-7.320460025221109">
        <ele>643.74000000000001</ele>
        <time>2025-05-02T12:39:22Z</time>
      </trkpt>
      <trkpt lat="41.724228020757437" lon="-7.319829035550356">
        <ele>641.82000000000005</ele>
        <time>2025-05-02T12:39:26Z</time>
      </trkpt>
      <trkpt lat="41.724198013544083" lon="-7.319678999483585">
        <ele>641.34000000000003</ele>
        <time>2025-05-02T12:39:27Z</time>
      </trkpt>
      <trkpt lat="41.723782019689679" lon="-7.318256003782153">
        <ele>637.00999999999999</ele>
        <time>2025-05-02T12:39:36Z</time>
      </trkpt>
      <trkpt lat="41.723478008061647" lon="-7.317526023834944">
        <ele>633.16999999999996</ele>
        <time>2025-05-02T12:39:41Z</time>
      </trkpt>
      <trkpt lat="41.723366025835276" lon="-7.317256964743137">
        <ele>631.24000000000001</ele>
        <time>2025-05-02T12:39:44Z</time>
      </trkpt>
      <trkpt lat="41.723345993086696" lon="-7.317192004993558">
        <ele>630.27999999999997</ele>
        <time>2025-05-02T12:39:45Z</time>
      </trkpt>
      <trkpt lat="41.72333300113678" lon="-7.317102989181876">
        <ele>629.32000000000005</ele>
        <time>2025-05-02T12:39:46Z</time>
      </trkpt>
      <trkpt lat="41.723308023065329" lon="-7.316896039992571">
        <ele>628.36000000000001</ele>
        <time>2025-05-02T12:39:48Z</time>
      </trkpt>
      <trkpt lat="41.723367031663656" lon="-7.316137980669737">
        <ele>624.50999999999999</ele>
        <time>2025-05-02T12:39:54Z</time>
      </trkpt>
      <trkpt lat="41.72335697337985" lon="-7.316005965694785">
        <ele>623.54999999999995</ele>
        <time>2025-05-02T12:39:55Z</time>
      </trkpt>
      <trkpt lat="41.723337024450302" lon="-7.315870011225343">
        <ele>622.59000000000003</ele>
        <time>2025-05-02T12:39:56Z</time>
      </trkpt>
      <trkpt lat="41.72329100780189" lon="-7.31573699042201">
        <ele>622.11000000000001</ele>
        <time>2025-05-02T12:39:57Z</time>
      </trkpt>
      <trkpt lat="41.723245996981859" lon="-7.315603969618678">
        <ele>621.14999999999998</ele>
        <time>2025-05-02T12:39:58Z</time>
      </trkpt>
      <trkpt lat="41.723155975341797" lon="-7.315341029316187">
        <ele>619.23000000000002</ele>
        <time>2025-05-02T12:40:00Z</time>
      </trkpt>
      <trkpt lat="41.722871996462345" lon="-7.314512981101871">
        <ele>612.98000000000002</ele>
        <time>2025-05-02T12:40:08Z</time>
      </trkpt>
      <trkpt lat="41.722852969542146" lon="-7.314456989988685">
        <ele>612.5</ele>
        <time>2025-05-02T12:40:09Z</time>
      </trkpt>
      <trkpt lat="41.722838971763849" lon="-7.314413990825415">
        <ele>612.01999999999998</ele>
        <time>2025-05-02T12:40:10Z</time>
      </trkpt>
      <trkpt lat="41.722828997299075" lon="-7.314384989440441">
        <ele>611.05999999999995</ele>
        <time>2025-05-02T12:40:11Z</time>
      </trkpt>
      <trkpt lat="41.722739981487393" lon="-7.314342996105552">
        <ele>610.57000000000005</ele>
        <time>2025-05-02T12:40:12Z</time>
      </trkpt>
      <trkpt lat="41.722720032557845" lon="-7.314368980005384">
        <ele>609.61000000000001</ele>
        <time>2025-05-02T12:40:13Z</time>
      </trkpt>
      <trkpt lat="41.722691031172872" lon="-7.314406028017402">
        <ele>609.13</ele>
        <time>2025-05-02T12:40:14Z</time>
      </trkpt>
      <trkpt lat="41.722653983160853" lon="-7.314452966675162">
        <ele>608.64999999999998</ele>
        <time>2025-05-02T12:40:15Z</time>
      </trkpt>
      <trkpt lat="41.722606960684061" lon="-7.314513986930251">
        <ele>607.69000000000005</ele>
        <time>2025-05-02T12:40:16Z</time>
      </trkpt>
      <trkpt lat="41.722072027623653" lon="-7.3151970282197">
        <ele>606.25</ele>
        <time>2025-05-02T12:40:23Z</time>
      </trkpt>
      <trkpt lat="41.721002999693155" lon="-7.316562021151185">
        <ele>602.39999999999998</ele>
        <time>2025-05-02T12:40:33Z</time>
      </trkpt>
      <trkpt lat="41.719666002318263" lon="-7.318275030702353">
        <ele>599.51999999999998</ele>
        <time>2025-05-02T12:40:45Z</time>
      </trkpt>
      <trkpt lat="41.718505024909973" lon="-7.319764997810125">
        <ele>600.96000000000004</ele>
        <time>2025-05-02T12:40:55Z</time>
      </trkpt>
      <trkpt lat="41.717383023351431" lon="-7.321206014603376">
        <ele>606.25</ele>
        <time>2025-05-02T12:41:04Z</time>
      </trkpt>
      <trkpt lat="41.71587604098022" lon="-7.323151035234332">
        <ele>611.05999999999995</ele>
        <time>2025-05-02T12:41:16Z</time>
      </trkpt>
      <trkpt lat="41.715222001075745" lon="-7.324190977960825">
        <ele>611.53999999999996</ele>
        <time>2025-05-02T12:41:22Z</time>
      </trkpt>
      <trkpt lat="41.715159974992275" lon="-7.32439499348402">
        <ele>612.01999999999998</ele>
        <time>2025-05-02T12:41:23Z</time>
      </trkpt>
      <trkpt lat="41.714535020291805" lon="-7.326501030474901">
        <ele>618.75</ele>
        <time>2025-05-02T12:41:33Z</time>
      </trkpt>
      <trkpt lat="41.714115003123879" lon="-7.328361980617046">
        <ele>621.63</ele>
        <time>2025-05-02T12:41:42Z</time>
      </trkpt>
      <trkpt lat="41.714101005345583" lon="-7.328570019453764">
        <ele>621.63</ele>
        <time>2025-05-02T12:41:43Z</time>
      </trkpt>
      <trkpt lat="41.714101005345583" lon="-7.328785015270114">
        <ele>621.63</ele>
        <time>2025-05-02T12:41:44Z</time>
      </trkpt>
      <trkpt lat="41.71407300978899" lon="-7.330663986504078">
        <ele>618.75</ele>
        <time>2025-05-02T12:41:53Z</time>
      </trkpt>
      <trkpt lat="41.713899001479149" lon="-7.331268992275">
        <ele>618.75</ele>
        <time>2025-05-02T12:41:57Z</time>
      </trkpt>
      <trkpt lat="41.713848961517215" lon="-7.331367982551456">
        <ele>618.75</ele>
        <time>2025-05-02T12:41:58Z</time>
      </trkpt>
      <trkpt lat="41.713784001767635" lon="-7.331420034170151">
        <ele>618.75</ele>
        <time>2025-05-02T12:41:59Z</time>
      </trkpt>
      <trkpt lat="41.713706972077489" lon="-7.331473007798195">
        <ele>618.25999999999999</ele>
        <time>2025-05-02T12:42:00Z</time>
      </trkpt>
      <trkpt lat="41.713634971529245" lon="-7.331522963941097">
        <ele>618.25999999999999</ele>
        <time>2025-05-02T12:42:01Z</time>
      </trkpt>
      <trkpt lat="41.713564982637763" lon="-7.33157099224627">
        <ele>618.25999999999999</ele>
        <time>2025-05-02T12:42:02Z</time>
      </trkpt>
      <trkpt lat="41.713421987369657" lon="-7.331622960045934">
        <ele>619.23000000000002</ele>
        <time>2025-05-02T12:42:04Z</time>
      </trkpt>
      <trkpt lat="41.713350992649794" lon="-7.331649027764797">
        <ele>619.71000000000004</ele>
        <time>2025-05-02T12:42:05Z</time>
      </trkpt>
      <trkpt lat="41.713273962959647" lon="-7.331659002229571">
        <ele>620.19000000000005</ele>
        <time>2025-05-02T12:42:06Z</time>
      </trkpt>
      <trkpt lat="41.713187964633107" lon="-7.331661013886333">
        <ele>620.66999999999996</ele>
        <time>2025-05-02T12:42:07Z</time>
      </trkpt>
      <trkpt lat="41.713092997670174" lon="-7.331663025543094">
        <ele>621.14999999999998</ele>
        <time>2025-05-02T12:42:08Z</time>
      </trkpt>
      <trkpt lat="41.711981976404786" lon="-7.331790011376143">
        <ele>628.36000000000001</ele>
        <time>2025-05-02T12:42:18Z</time>
      </trkpt>
      <trkpt lat="41.711872005835176" lon="-7.331818006932735">
        <ele>629.32000000000005</ele>
        <time>2025-05-02T12:42:19Z</time>
      </trkpt>
      <trkpt lat="41.711654998362064" lon="-7.331905011087656">
        <ele>630.27999999999997</ele>
        <time>2025-05-02T12:42:21Z</time>
      </trkpt>
      <trkpt lat="41.711556008085608" lon="-7.331984974443913">
        <ele>630.75999999999999</ele>
        <time>2025-05-02T12:42:22Z</time>
      </trkpt>
      <trkpt lat="41.711458023637533" lon="-7.332073990255594">
        <ele>631.24000000000001</ele>
        <time>2025-05-02T12:42:23Z</time>
      </trkpt>
      <trkpt lat="41.711369007825851" lon="-7.332169963046908">
        <ele>631.24000000000001</ele>
        <time>2025-05-02T12:42:24Z</time>
      </trkpt>
      <trkpt lat="41.711288038641214" lon="-7.332283034920692">
        <ele>631.72000000000003</ele>
        <time>2025-05-02T12:42:25Z</time>
      </trkpt>
      <trkpt lat="41.711208997294307" lon="-7.332395017147064">
        <ele>631.72000000000003</ele>
        <time>2025-05-02T12:42:26Z</time>
      </trkpt>
      <trkpt lat="41.710376003757119" lon="-7.333549037575722">
        <ele>634.61000000000001</ele>
        <time>2025-05-02T12:42:37Z</time>
      </trkpt>
      <trkpt lat="41.710290005430579" lon="-7.333661019802094">
        <ele>635.57000000000005</ele>
        <time>2025-05-02T12:42:38Z</time>
      </trkpt>
      <trkpt lat="41.710195960476995" lon="-7.333781970664859">
        <ele>636.52999999999997</ele>
        <time>2025-05-02T12:42:39Z</time>
      </trkpt>
      <trkpt lat="41.710109040141106" lon="-7.333879033103585">
        <ele>637.97000000000003</ele>
        <time>2025-05-02T12:42:40Z</time>
      </trkpt>
      <trkpt lat="41.710023963823915" lon="-7.333975005894899">
        <ele>639.40999999999997</ele>
        <time>2025-05-02T12:42:41Z</time>
      </trkpt>
      <trkpt lat="41.709907036274672" lon="-7.334013981744647">
        <ele>640.38</ele>
        <time>2025-05-02T12:42:42Z</time>
      </trkpt>
      <trkpt lat="41.709781978279352" lon="-7.334044994786382">
        <ele>641.82000000000005</ele>
        <time>2025-05-02T12:42:43Z</time>
      </trkpt>
      <trkpt lat="41.709644012153149" lon="-7.334061004221439">
        <ele>642.77999999999997</ele>
        <time>2025-05-02T12:42:44Z</time>
      </trkpt>
      <trkpt lat="41.709501016885042" lon="-7.334078019484878">
        <ele>643.25999999999999</ele>
        <time>2025-05-02T12:42:45Z</time>
      </trkpt>
      <trkpt lat="41.709106983616948" lon="-7.334124036133289">
        <ele>646.13999999999999</ele>
        <time>2025-05-02T12:42:48Z</time>
      </trkpt>
      <trkpt lat="41.708996007218957" lon="-7.334205005317926">
        <ele>647.10000000000002</ele>
        <time>2025-05-02T12:42:49Z</time>
      </trkpt>
      <trkpt lat="41.708881007507443" lon="-7.334291003644466">
        <ele>648.54999999999995</ele>
        <time>2025-05-02T12:42:50Z</time>
      </trkpt>
      <trkpt lat="41.70846501365304" lon="-7.334819985553622">
        <ele>652.87</ele>
        <time>2025-05-02T12:42:54Z</time>
      </trkpt>
      <trkpt lat="41.707575023174286" lon="-7.336363010108471">
        <ele>659.60000000000002</ele>
        <time>2025-05-02T12:43:03Z</time>
      </trkpt>
      <trkpt lat="41.707491958513856" lon="-7.336507011204958">
        <ele>660.55999999999995</ele>
        <time>2025-05-02T12:43:04Z</time>
      </trkpt>
      <trkpt lat="41.707457005977631" lon="-7.336674984544516">
        <ele>661.03999999999996</ele>
        <time>2025-05-02T12:43:05Z</time>
      </trkpt>
      <trkpt lat="41.707419035956264" lon="-7.33685402199626">
        <ele>661.51999999999998</ele>
        <time>2025-05-02T12:43:06Z</time>
      </trkpt>
      <trkpt lat="41.707393974065781" lon="-7.337041022256017">
        <ele>662.00999999999999</ele>
        <time>2025-05-02T12:43:07Z</time>
      </trkpt>
      <trkpt lat="41.707375030964613" lon="-7.337245959788561">
        <ele>662.49000000000001</ele>
        <time>2025-05-02T12:43:08Z</time>
      </trkpt>
      <trkpt lat="41.707252990454435" lon="-7.337969988584518">
        <ele>664.88999999999999</ele>
        <time>2025-05-02T12:43:12Z</time>
      </trkpt>
      <trkpt lat="41.70719800516963" lon="-7.338095968589187">
        <ele>665.37</ele>
        <time>2025-05-02T12:43:13Z</time>
      </trkpt>
      <trkpt lat="41.707126004621387" lon="-7.338170986622572">
        <ele>666.80999999999995</ele>
        <time>2025-05-02T12:43:14Z</time>
      </trkpt>
      <trkpt lat="41.707027014344931" lon="-7.338196970522404">
        <ele>667.28999999999996</ele>
        <time>2025-05-02T12:43:15Z</time>
      </trkpt>
      <trkpt lat="41.70691997744143" lon="-7.338225971907377">
        <ele>668.25</ele>
        <time>2025-05-02T12:43:16Z</time>
      </trkpt>
      <trkpt lat="41.706804977729917" lon="-7.338256984949112">
        <ele>669.22000000000003</ele>
        <time>2025-05-02T12:43:17Z</time>
      </trkpt>
      <trkpt lat="41.706555029377341" lon="-7.338323034346104">
        <ele>671.13999999999999</ele>
        <time>2025-05-02T12:43:19Z</time>
      </trkpt>
      <trkpt lat="41.705408971756697" lon="-7.338808011263609">
        <ele>679.30999999999995</ele>
        <time>2025-05-02T12:43:27Z</time>
      </trkpt>
      <trkpt lat="41.704783011227846" lon="-7.339034993201494">
        <ele>684.12</ele>
        <time>2025-05-02T12:43:32Z</time>
      </trkpt>
      <trkpt lat="41.704574972391129" lon="-7.339144041761756">
        <ele>686.03999999999996</ele>
        <time>2025-05-02T12:43:34Z</time>
      </trkpt>
      <trkpt lat="41.704476987943053" lon="-7.339188968762755">
        <ele>686.51999999999998</ele>
        <time>2025-05-02T12:43:35Z</time>
      </trkpt>
      <trkpt lat="41.704368023201823" lon="-7.339188968762755">
        <ele>687.48000000000002</ele>
        <time>2025-05-02T12:43:36Z</time>
      </trkpt>
      <trkpt lat="41.704256040975451" lon="-7.339188968762755">
        <ele>687.96000000000004</ele>
        <time>2025-05-02T12:43:37Z</time>
      </trkpt>
      <trkpt lat="41.704141963273287" lon="-7.339188968762755">
        <ele>688.91999999999996</ele>
        <time>2025-05-02T12:43:38Z</time>
      </trkpt>
      <trkpt lat="41.703283991664648" lon="-7.339143035933375">
        <ele>690.36000000000001</ele>
        <time>2025-05-02T12:43:47Z</time>
      </trkpt>
      <trkpt lat="41.702889036387205" lon="-7.339186035096645">
        <ele>688.91999999999996</ele>
        <time>2025-05-02T12:43:51Z</time>
      </trkpt>
      <trkpt lat="41.702791973948479" lon="-7.339168014004827">
        <ele>688.91999999999996</ele>
        <time>2025-05-02T12:43:52Z</time>
      </trkpt>
      <trkpt lat="41.702689966186881" lon="-7.33913297764957">
        <ele>688.91999999999996</ele>
        <time>2025-05-02T12:43:53Z</time>
      </trkpt>
      <trkpt lat="41.701699979603291" lon="-7.338663004338741">
        <ele>689.88</ele>
        <time>2025-05-02T12:44:02Z</time>
      </trkpt>
      <trkpt lat="41.701594032347202" lon="-7.338608019053936">
        <ele>689.88</ele>
        <time>2025-05-02T12:44:03Z</time>
      </trkpt>
      <trkpt lat="41.700582001358271" lon="-7.338159000501037">
        <ele>697.57000000000005</ele>
        <time>2025-05-02T12:44:12Z</time>
      </trkpt>
      <trkpt lat="41.700461972504854" lon="-7.33816696330905">
        <ele>698.52999999999997</ele>
        <time>2025-05-02T12:44:13Z</time>
      </trkpt>
      <trkpt lat="41.700339009985328" lon="-7.338174004107714">
        <ele>699.5</ele>
        <time>2025-05-02T12:44:14Z</time>
      </trkpt>
      <trkpt lat="41.70021403580904" lon="-7.338191019371152">
        <ele>699.98000000000002</ele>
        <time>2025-05-02T12:44:15Z</time>
      </trkpt>
      <trkpt lat="41.700096018612385" lon="-7.338238963857293">
        <ele>700.94000000000005</ele>
        <time>2025-05-02T12:44:16Z</time>
      </trkpt>
      <trkpt lat="41.69997800141573" lon="-7.338287997990847">
        <ele>701.41999999999996</ele>
        <time>2025-05-02T12:44:17Z</time>
      </trkpt>
      <trkpt lat="41.698469007387757" lon="-7.338876994326711">
        <ele>708.63</ele>
        <time>2025-05-02T12:44:30Z</time>
      </trkpt>
      <trkpt lat="41.697137961164117" lon="-7.338953018188477">
        <ele>713.44000000000005</ele>
        <time>2025-05-02T12:44:41Z</time>
      </trkpt>
      <trkpt lat="41.695325039327145" lon="-7.338953018188477">
        <ele>727.37</ele>
        <time>2025-05-02T12:44:56Z</time>
      </trkpt>
      <trkpt lat="41.695094034075737" lon="-7.338990988209844">
        <ele>729.29999999999995</ele>
        <time>2025-05-02T12:44:58Z</time>
      </trkpt>
      <trkpt lat="41.694974005222321" lon="-7.339023007079959">
        <ele>730.74000000000001</ele>
        <time>2025-05-02T12:44:59Z</time>
      </trkpt>
      <trkpt lat="41.694854982197285" lon="-7.339054020121694">
        <ele>731.70000000000005</ele>
        <time>2025-05-02T12:45:00Z</time>
      </trkpt>
      <trkpt lat="41.693745972588658" lon="-7.339681992307305">
        <ele>736.02999999999997</ele>
        <time>2025-05-02T12:45:09Z</time>
      </trkpt>
      <trkpt lat="41.691795000806451" lon="-7.340853027999401">
        <ele>739.38999999999999</ele>
        <time>2025-05-02T12:45:21Z</time>
      </trkpt>
      <trkpt lat="41.689199041575193" lon="-7.342409966513515">
        <ele>743.72000000000003</ele>
        <time>2025-05-02T12:45:37Z</time>
      </trkpt>
      <trkpt lat="41.687271036207676" lon="-7.343789963051677">
        <ele>735.07000000000005</ele>
        <time>2025-05-02T12:45:48Z</time>
      </trkpt>
      <trkpt lat="41.685143038630486" lon="-7.345086978748441">
        <ele>730.74000000000001</ele>
        <time>2025-05-02T12:46:01Z</time>
      </trkpt>
      <trkpt lat="41.684980010613799" lon="-7.345155961811543">
        <ele>730.74000000000001</ele>
        <time>2025-05-02T12:46:02Z</time>
      </trkpt>
      <trkpt lat="41.684815976768732" lon="-7.345221005380154">
        <ele>731.22000000000003</ele>
        <time>2025-05-02T12:46:03Z</time>
      </trkpt>
      <trkpt lat="41.684642974287271" lon="-7.345242965966463">
        <ele>731.70000000000005</ele>
        <time>2025-05-02T12:46:04Z</time>
      </trkpt>
      <trkpt lat="41.682499973103404" lon="-7.345563992857933">
        <ele>738.90999999999997</ele>
        <time>2025-05-02T12:46:16Z</time>
      </trkpt>
      <trkpt lat="41.681545022875071" lon="-7.345817964524031">
        <ele>739.38999999999999</ele>
        <time>2025-05-02T12:46:22Z</time>
      </trkpt>
      <trkpt lat="41.681377971544862" lon="-7.345904968678951">
        <ele>738.90999999999997</ele>
        <time>2025-05-02T12:46:23Z</time>
      </trkpt>
      <trkpt lat="41.680053966119885" lon="-7.347070975229144">
        <ele>739.38999999999999</ele>
        <time>2025-05-02T12:46:33Z</time>
      </trkpt>
      <trkpt lat="41.678556958213449" lon="-7.348485002294183">
        <ele>741.30999999999995</ele>
        <time>2025-05-02T12:46:47Z</time>
      </trkpt>
      <trkpt lat="41.677579963579774" lon="-7.349339034408331">
        <ele>741.30999999999995</ele>
        <time>2025-05-02T12:46:57Z</time>
      </trkpt>
      <trkpt lat="41.676670024171472" lon="-7.350064991042018">
        <ele>739.87</ele>
        <time>2025-05-02T12:47:07Z</time>
      </trkpt>
      <trkpt lat="41.676584025844932" lon="-7.350092986598611">
        <ele>739.87</ele>
        <time>2025-05-02T12:47:08Z</time>
      </trkpt>
      <trkpt lat="41.676486963406205" lon="-7.350098015740514">
        <ele>739.87</ele>
        <time>2025-05-02T12:47:09Z</time>
      </trkpt>
      <trkpt lat="41.676386967301369" lon="-7.350103966891766">
        <ele>739.87</ele>
        <time>2025-05-02T12:47:10Z</time>
      </trkpt>
      <trkpt lat="41.676270961761475" lon="-7.35011100769043">
        <ele>739.87</ele>
        <time>2025-05-02T12:47:11Z</time>
      </trkpt>
      <trkpt lat="41.674634981900454" lon="-7.349973041564226">
        <ele>738.90999999999997</ele>
        <time>2025-05-02T12:47:25Z</time>
      </trkpt>
      <trkpt lat="41.674276990815997" lon="-7.349943034350872">
        <ele>738.90999999999997</ele>
        <time>2025-05-02T12:47:29Z</time>
      </trkpt>
      <trkpt lat="41.674217982217669" lon="-7.349941022694111">
        <ele>738.90999999999997</ele>
        <time>2025-05-02T12:47:30Z</time>
      </trkpt>
      <trkpt lat="41.674176994711161" lon="-7.349944962188602">
        <ele>738.90999999999997</ele>
        <time>2025-05-02T12:47:31Z</time>
      </trkpt>
      <trkpt lat="41.674146987497807" lon="-7.349947979673743">
        <ele>738.90999999999997</ele>
        <time>2025-05-02T12:47:32Z</time>
      </trkpt>
      <trkpt lat="41.674125026911497" lon="-7.349949991330504">
        <ele>738.90999999999997</ele>
        <time>2025-05-02T12:47:33Z</time>
      </trkpt>
      <trkpt lat="41.674099965021014" lon="-7.349953008815646">
        <ele>738.90999999999997</ele>
        <time>2025-05-02T12:47:34Z</time>
      </trkpt>
      <trkpt lat="41.674065012484789" lon="-7.349956026300788">
        <ele>738.90999999999997</ele>
        <time>2025-05-02T12:47:35Z</time>
      </trkpt>
      <trkpt lat="41.674017990007997" lon="-7.349960971623659">
        <ele>739.38999999999999</ele>
        <time>2025-05-02T12:47:36Z</time>
      </trkpt>
      <trkpt lat="41.673983037471771" lon="-7.349871033802629">
        <ele>739.38999999999999</ele>
        <time>2025-05-02T12:47:37Z</time>
      </trkpt>
      <trkpt lat="41.673946995288134" lon="-7.349786041304469">
        <ele>739.38999999999999</ele>
        <time>2025-05-02T12:47:38Z</time>
      </trkpt>
      <trkpt lat="41.673905001953244" lon="-7.349690990522504">
        <ele>739.87</ele>
        <time>2025-05-02T12:47:39Z</time>
      </trkpt>
      <trkpt lat="41.673382977023721" lon="-7.34862900339067">
        <ele>738.90999999999997</ele>
        <time>2025-05-02T12:47:49Z</time>
      </trkpt>
      <trkpt lat="41.673350958153605" lon="-7.34856303781271">
        <ele>738.90999999999997</ele>
        <time>2025-05-02T12:47:50Z</time>
      </trkpt>
      <trkpt lat="41.673262026160955" lon="-7.348546022549272">
        <ele>738.42999999999995</ele>
        <time>2025-05-02T12:47:51Z</time>
      </trkpt>
      <trkpt lat="41.673226989805698" lon="-7.348593967035413">
        <ele>737.95000000000005</ele>
        <time>2025-05-02T12:47:52Z</time>
      </trkpt>
      <trkpt lat="41.673178961500525" lon="-7.348660016432405">
        <ele>736.99000000000001</ele>
        <time>2025-05-02T12:47:53Z</time>
      </trkpt>
      <trkpt lat="41.67312003672123" lon="-7.348739979788661">
        <ele>736.50999999999999</ele>
        <time>2025-05-02T12:47:54Z</time>
      </trkpt>
      <trkpt lat="41.67305700480938" lon="-7.348826983943582">
        <ele>736.99000000000001</ele>
        <time>2025-05-02T12:47:55Z</time>
      </trkpt>
      <trkpt lat="41.672919038683176" lon="-7.349014990031719">
        <ele>736.99000000000001</ele>
        <time>2025-05-02T12:47:57Z</time>
      </trkpt>
      <trkpt lat="41.672828011214733" lon="-7.349098976701498">
        <ele>737.47000000000003</ele>
        <time>2025-05-02T12:47:58Z</time>
      </trkpt>
      <trkpt lat="41.672642016783357" lon="-7.349250018596649">
        <ele>737.95000000000005</ele>
        <time>2025-05-02T12:48:00Z</time>
      </trkpt>
      <trkpt lat="41.671438962221146" lon="-7.349770031869412">
        <ele>734.10000000000002</ele>
        <time>2025-05-02T12:48:11Z</time>
      </trkpt>
      <trkpt lat="41.670183017849922" lon="-7.350030038505793">
        <ele>725.92999999999995</ele>
        <time>2025-05-02T12:48:21Z</time>
      </trkpt>
      <trkpt lat="41.669308030977845" lon="-7.350428011268377">
        <ele>718.24000000000001</ele>
        <time>2025-05-02T12:48:28Z</time>
      </trkpt>
      <trkpt lat="41.669195964932442" lon="-7.350515015423298">
        <ele>716.79999999999995</ele>
        <time>2025-05-02T12:48:29Z</time>
      </trkpt>
      <trkpt lat="41.669094962999225" lon="-7.350630015134811">
        <ele>715.36000000000001</ele>
        <time>2025-05-02T12:48:30Z</time>
      </trkpt>
      <trkpt lat="41.66871702298522" lon="-7.351050032302737">
        <ele>711.02999999999997</ele>
        <time>2025-05-02T12:48:34Z</time>
      </trkpt>
      <trkpt lat="41.667799958959222" lon="-7.351687978953123">
        <ele>705.25999999999999</ele>
        <time>2025-05-02T12:48:42Z</time>
      </trkpt>
      <trkpt lat="41.66766501031816" lon="-7.351730978116393">
        <ele>704.29999999999995</ele>
        <time>2025-05-02T12:48:43Z</time>
      </trkpt>
      <trkpt lat="41.666367994621396" lon="-7.352232970297337">
        <ele>698.52999999999997</ele>
        <time>2025-05-02T12:48:52Z</time>
      </trkpt>
      <trkpt lat="41.665234006941319" lon="-7.352673020213842">
        <ele>690.36000000000001</ele>
        <time>2025-05-02T12:48:59Z</time>
      </trkpt>
      <trkpt lat="41.665064021945" lon="-7.352691041305661">
        <ele>689.39999999999998</ele>
        <time>2025-05-02T12:49:00Z</time>
      </trkpt>
      <trkpt lat="41.663532983511686" lon="-7.352828001603484">
        <ele>682.19000000000005</ele>
        <time>2025-05-02T12:49:09Z</time>
      </trkpt>
      <trkpt lat="41.663388982415199" lon="-7.352868989109993">
        <ele>681.71000000000004</ele>
        <time>2025-05-02T12:49:10Z</time>
      </trkpt>
      <trkpt lat="41.663270965218544" lon="-7.352967979386449">
        <ele>681.71000000000004</ele>
        <time>2025-05-02T12:49:11Z</time>
      </trkpt>
      <trkpt lat="41.663159988820553" lon="-7.353085996583104">
        <ele>681.71000000000004</ele>
        <time>2025-05-02T12:49:12Z</time>
      </trkpt>
      <trkpt lat="41.6630470007658" lon="-7.353207031264901">
        <ele>681.71000000000004</ele>
        <time>2025-05-02T12:49:13Z</time>
      </trkpt>
      <trkpt lat="41.66242104023695" lon="-7.353837015107274">
        <ele>683.63</ele>
        <time>2025-05-02T12:49:19Z</time>
      </trkpt>
      <trkpt lat="41.661202982068062" lon="-7.354675959795713">
        <ele>687.96000000000004</ele>
        <time>2025-05-02T12:49:29Z</time>
      </trkpt>
      <trkpt lat="41.661088988184929" lon="-7.354805041104555">
        <ele>687.96000000000004</ele>
        <time>2025-05-02T12:49:30Z</time>
      </trkpt>
      <trkpt lat="41.660951022058725" lon="-7.354961028322578">
        <ele>688.44000000000005</ele>
        <time>2025-05-02T12:49:31Z</time>
      </trkpt>
      <trkpt lat="41.660150969401002" lon="-7.356139020994306">
        <ele>688.44000000000005</ele>
        <time>2025-05-02T12:49:39Z</time>
      </trkpt>
      <trkpt lat="41.659189984202385" lon="-7.357018031179905">
        <ele>685.55999999999995</ele>
        <time>2025-05-02T12:49:48Z</time>
      </trkpt>
      <trkpt lat="41.659078001976013" lon="-7.357081985101104">
        <ele>685.55999999999995</ele>
        <time>2025-05-02T12:49:49Z</time>
      </trkpt>
      <trkpt lat="41.658959984779358" lon="-7.357141999527812">
        <ele>685.08000000000004</ele>
        <time>2025-05-02T12:49:50Z</time>
      </trkpt>
      <trkpt lat="41.65883501060307" lon="-7.357190027832985">
        <ele>685.08000000000004</ele>
        <time>2025-05-02T12:49:51Z</time>
      </trkpt>
      <trkpt lat="41.657231971621513" lon="-7.357810959219933">
        <ele>675.46000000000004</ele>
        <time>2025-05-02T12:50:03Z</time>
      </trkpt>
      <trkpt lat="41.657122001051903" lon="-7.357884971424937">
        <ele>674.98000000000002</ele>
        <time>2025-05-02T12:50:04Z</time>
      </trkpt>
      <trkpt lat="41.657036002725363" lon="-7.357981028035283">
        <ele>674.01999999999998</ele>
        <time>2025-05-02T12:50:05Z</time>
      </trkpt>
      <trkpt lat="41.656970959156752" lon="-7.358108013868332">
        <ele>673.53999999999996</ele>
        <time>2025-05-02T12:50:06Z</time>
      </trkpt>
      <trkpt lat="41.656638029962778" lon="-7.358719976618886">
        <ele>672.58000000000004</ele>
        <time>2025-05-02T12:50:11Z</time>
      </trkpt>
      <trkpt lat="41.656568963080645" lon="-7.358828019350767">
        <ele>672.10000000000002</ele>
        <time>2025-05-02T12:50:12Z</time>
      </trkpt>
      <trkpt lat="41.656485982239246" lon="-7.358914017677307">
        <ele>671.13999999999999</ele>
        <time>2025-05-02T12:50:13Z</time>
      </trkpt>
      <trkpt lat="41.65638598613441" lon="-7.358974032104015">
        <ele>670.17999999999995</ele>
        <time>2025-05-02T12:50:14Z</time>
      </trkpt>
      <trkpt lat="41.656286995857954" lon="-7.359033040702343">
        <ele>669.70000000000005</ele>
        <time>2025-05-02T12:50:15Z</time>
      </trkpt>
      <trkpt lat="41.656208960339427" lon="-7.359079979360104">
        <ele>668.73000000000002</ele>
        <time>2025-05-02T12:50:16Z</time>
      </trkpt>
      <trkpt lat="41.656093960627913" lon="-7.359102023765445">
        <ele>668.25</ele>
        <time>2025-05-02T12:50:17Z</time>
      </trkpt>
      <trkpt lat="41.655992958694696" lon="-7.359120966866612">
        <ele>667.28999999999996</ele>
        <time>2025-05-02T12:50:18Z</time>
      </trkpt>
      <trkpt lat="41.655895980075002" lon="-7.359138987958431">
        <ele>666.80999999999995</ele>
        <time>2025-05-02T12:50:19Z</time>
      </trkpt>
      <trkpt lat="41.655518040060997" lon="-7.359087020158768">
        <ele>663.45000000000005</ele>
        <time>2025-05-02T12:50:23Z</time>
      </trkpt>
      <trkpt lat="41.655436987057328" lon="-7.359037986025214">
        <ele>662.49000000000001</ele>
        <time>2025-05-02T12:50:24Z</time>
      </trkpt>
      <trkpt lat="41.655353000387549" lon="-7.358955005183816">
        <ele>661.51999999999998</ele>
        <time>2025-05-02T12:50:25Z</time>
      </trkpt>
      <trkpt lat="41.655262978747487" lon="-7.358864983543754">
        <ele>660.55999999999995</ele>
        <time>2025-05-02T12:50:26Z</time>
      </trkpt>
      <trkpt lat="41.655168011784554" lon="-7.35876901075244">
        <ele>659.60000000000002</ele>
        <time>2025-05-02T12:50:27Z</time>
      </trkpt>
      <trkpt lat="41.654249019920826" lon="-7.358049005270004">
        <ele>649.02999999999997</ele>
        <time>2025-05-02T12:50:35Z</time>
      </trkpt>
      <trkpt lat="41.654141983017325" lon="-7.358022015541792">
        <ele>647.59000000000003</ele>
        <time>2025-05-02T12:50:36Z</time>
      </trkpt>
      <trkpt lat="41.654050033539534" lon="-7.358015980571508">
        <ele>646.62</ele>
        <time>2025-05-02T12:50:37Z</time>
      </trkpt>
      <trkpt lat="41.653864961117506" lon="-7.358059985563159">
        <ele>645.17999999999995</ele>
        <time>2025-05-02T12:50:39Z</time>
      </trkpt>
      <trkpt lat="41.65359003469348" lon="-7.358101978898048">
        <ele>642.77999999999997</ele>
        <time>2025-05-02T12:50:42Z</time>
      </trkpt>
      <trkpt lat="41.653493978083134" lon="-7.358074989169836">
        <ele>641.34000000000003</ele>
        <time>2025-05-02T12:50:43Z</time>
      </trkpt>
      <trkpt lat="41.652701972052455" lon="-7.357724038884044">
        <ele>634.61000000000001</ele>
        <time>2025-05-02T12:50:49Z</time>
      </trkpt>
      <trkpt lat="41.651797983795404" lon="-7.357232021167874">
        <ele>626.91999999999996</ele>
        <time>2025-05-02T12:50:55Z</time>
      </trkpt>
      <trkpt lat="41.651654988527298" lon="-7.357218023389578">
        <ele>625.47000000000003</ele>
        <time>2025-05-02T12:50:56Z</time>
      </trkpt>
      <trkpt lat="41.65150998160243" lon="-7.357232021167874">
        <ele>624.99000000000001</ele>
        <time>2025-05-02T12:50:57Z</time>
      </trkpt>
      <trkpt lat="41.651359023526311" lon="-7.357258005067706">
        <ele>624.02999999999997</ele>
        <time>2025-05-02T12:50:58Z</time>
      </trkpt>
      <trkpt lat="41.651201024651527" lon="-7.357284994795919">
        <ele>623.07000000000005</ele>
        <time>2025-05-02T12:50:59Z</time>
      </trkpt>
      <trkpt lat="41.649095993489027" lon="-7.357649020850658">
        <ele>610.57000000000005</ele>
        <time>2025-05-02T12:51:11Z</time>
      </trkpt>
      <trkpt lat="41.647793026641011" lon="-7.358093010261655">
        <ele>605.76999999999998</ele>
        <time>2025-05-02T12:51:19Z</time>
      </trkpt>
      <trkpt lat="41.646299958229065" lon="-7.358721988275647">
        <ele>596.63999999999999</ele>
        <time>2025-05-02T12:51:29Z</time>
      </trkpt>
      <trkpt lat="41.645971974357963" lon="-7.358843022957444">
        <ele>594.23000000000002</ele>
        <time>2025-05-02T12:51:32Z</time>
      </trkpt>
      <trkpt lat="41.645876001566648" lon="-7.358861966058612">
        <ele>593.75</ele>
        <time>2025-05-02T12:51:33Z</time>
      </trkpt>
      <trkpt lat="41.645767036825418" lon="-7.358849979937077">
        <ele>592.78999999999996</ele>
        <time>2025-05-02T12:51:34Z</time>
      </trkpt>
      <trkpt lat="41.645654970780015" lon="-7.358814021572471">
        <ele>591.83000000000004</ele>
        <time>2025-05-02T12:51:35Z</time>
      </trkpt>
      <trkpt lat="41.64553795941174" lon="-7.358756018802524">
        <ele>590.87</ele>
        <time>2025-05-02T12:51:36Z</time>
      </trkpt>
      <trkpt lat="41.644123010337353" lon="-7.358056968078017">
        <ele>577.40999999999997</ele>
        <time>2025-05-02T12:51:48Z</time>
      </trkpt>
      <trkpt lat="41.642786012962461" lon="-7.35745900310576">
        <ele>568.75999999999999</ele>
        <time>2025-05-02T12:52:00Z</time>
      </trkpt>
      <trkpt lat="41.642690040171146" lon="-7.357450034469366">
        <ele>568.75999999999999</ele>
        <time>2025-05-02T12:52:01Z</time>
      </trkpt>
      <trkpt lat="41.642558025196195" lon="-7.357509965077043">
        <ele>568.75999999999999</ele>
        <time>2025-05-02T12:52:02Z</time>
      </trkpt>
      <trkpt lat="41.642445959150791" lon="-7.357561010867357">
        <ele>568.75999999999999</ele>
        <time>2025-05-02T12:52:03Z</time>
      </trkpt>
      <trkpt lat="41.642330959439278" lon="-7.357613984495401">
        <ele>568.75999999999999</ele>
        <time>2025-05-02T12:52:04Z</time>
      </trkpt>
      <trkpt lat="41.640615016222" lon="-7.358457958325744">
        <ele>566.83000000000004</ele>
        <time>2025-05-02T12:52:19Z</time>
      </trkpt>
      <trkpt lat="41.639321018010378" lon="-7.359117027372122">
        <ele>559.62</ele>
        <time>2025-05-02T12:52:28Z</time>
      </trkpt>
      <trkpt lat="41.637354036793113" lon="-7.359956977888942">
        <ele>549.04999999999995</ele>
        <time>2025-05-02T12:52:40Z</time>
      </trkpt>
      <trkpt lat="41.635350007563829" lon="-7.360759964212775">
        <ele>532.71000000000004</ele>
        <time>2025-05-02T12:52:52Z</time>
      </trkpt>
      <trkpt lat="41.635232996195555" lon="-7.360883010551333">
        <ele>530.78999999999996</ele>
        <time>2025-05-02T12:52:53Z</time>
      </trkpt>
      <trkpt lat="41.635106010362506" lon="-7.361016031354666">
        <ele>528.86000000000001</ele>
        <time>2025-05-02T12:52:54Z</time>
      </trkpt>
      <trkpt lat="41.63412599824369" lon="-7.362322015687823">
        <ele>525.98000000000002</ele>
        <time>2025-05-02T12:53:02Z</time>
      </trkpt>
      <trkpt lat="41.633508000522852" lon="-7.363160960376263">
        <ele>534.14999999999998</ele>
        <time>2025-05-02T12:53:09Z</time>
      </trkpt>
      <trkpt lat="41.63305101916194" lon="-7.363817011937499">
        <ele>538.48000000000002</ele>
        <time>2025-05-02T12:53:16Z</time>
      </trkpt>
      <trkpt lat="41.633012965321541" lon="-7.363865040242672">
        <ele>538.48000000000002</ele>
        <time>2025-05-02T12:53:17Z</time>
      </trkpt>
      <trkpt lat="41.632936019450426" lon="-7.36392698250711">
        <ele>538.96000000000004</ele>
        <time>2025-05-02T12:53:18Z</time>
      </trkpt>
      <trkpt lat="41.632866030558944" lon="-7.363950032740831">
        <ele>538.96000000000004</ele>
        <time>2025-05-02T12:53:19Z</time>
      </trkpt>
      <trkpt lat="41.632783971726894" lon="-7.363946009427309">
        <ele>538.96000000000004</ele>
        <time>2025-05-02T12:53:20Z</time>
      </trkpt>
      <trkpt lat="41.632695961743593" lon="-7.363941986113787">
        <ele>538.96000000000004</ele>
        <time>2025-05-02T12:53:21Z</time>
      </trkpt>
      <trkpt lat="41.63260099478066" lon="-7.363937962800264">
        <ele>538.96000000000004</ele>
        <time>2025-05-02T12:53:22Z</time>
      </trkpt>
      <trkpt lat="41.632420029491186" lon="-7.363923965021968">
        <ele>538.96000000000004</ele>
        <time>2025-05-02T12:53:24Z</time>
      </trkpt>
      <trkpt lat="41.632219031453133" lon="-7.363844001665711">
        <ele>539.44000000000005</ele>
        <time>2025-05-02T12:53:27Z</time>
      </trkpt>
      <trkpt lat="41.631967993453145" lon="-7.363844001665711">
        <ele>539.44000000000005</ele>
        <time>2025-05-02T12:53:30Z</time>
      </trkpt>
      <trkpt lat="41.631867997348309" lon="-7.363844001665711">
        <ele>538.96000000000004</ele>
        <time>2025-05-02T12:53:31Z</time>
      </trkpt>
      <trkpt lat="41.63103399798274" lon="-7.364150024950504">
        <ele>536.54999999999995</ele>
        <time>2025-05-02T12:53:40Z</time>
      </trkpt>
      <trkpt lat="41.63092696107924" lon="-7.364156981930137">
        <ele>536.54999999999995</ele>
        <time>2025-05-02T12:53:42Z</time>
      </trkpt>
      <trkpt lat="41.630892008543015" lon="-7.364158993586898">
        <ele>536.54999999999995</ele>
        <time>2025-05-02T12:53:43Z</time>
      </trkpt>
      <trkpt lat="41.630870969966054" lon="-7.364159999415278">
        <ele>536.07000000000005</ele>
        <time>2025-05-02T12:53:44Z</time>
      </trkpt>
      <trkpt lat="41.630845991894603" lon="-7.36416201107204">
        <ele>536.54999999999995</ele>
        <time>2025-05-02T12:53:45Z</time>
      </trkpt>
      <trkpt lat="41.630781032145023" lon="-7.364166034385562">
        <ele>536.54999999999995</ele>
        <time>2025-05-02T12:53:46Z</time>
      </trkpt>
      <trkpt lat="41.630770973861217" lon="-7.364122029393911">
        <ele>536.54999999999995</ele>
        <time>2025-05-02T12:53:47Z</time>
      </trkpt>
      <trkpt lat="41.630751024931669" lon="-7.364036031067371">
        <ele>536.54999999999995</ele>
        <time>2025-05-02T12:53:48Z</time>
      </trkpt>
      <trkpt lat="41.630653040483594" lon="-7.363611990585923">
        <ele>537.50999999999999</ele>
        <time>2025-05-02T12:53:52Z</time>
      </trkpt>
      <trkpt lat="41.630622027441859" lon="-7.363488022238016">
        <ele>537.50999999999999</ele>
        <time>2025-05-02T12:53:53Z</time>
      </trkpt>
      <trkpt lat="41.630480960011482" lon="-7.362943030893803">
        <ele>537.99000000000001</ele>
        <time>2025-05-02T12:53:57Z</time>
      </trkpt>
      <trkpt lat="41.630419017747045" lon="-7.362819984555244">
        <ele>537.99000000000001</ele>
        <time>2025-05-02T12:53:58Z</time>
      </trkpt>
      <trkpt lat="41.630349028855562" lon="-7.362719988450408">
        <ele>537.99000000000001</ele>
        <time>2025-05-02T12:53:59Z</time>
      </trkpt>
      <trkpt lat="41.630258001387119" lon="-7.362618986517191">
        <ele>537.99000000000001</ele>
        <time>2025-05-02T12:54:00Z</time>
      </trkpt>
      <trkpt lat="41.630155993625522" lon="-7.362526031211019">
        <ele>537.99000000000001</ele>
        <time>2025-05-02T12:54:01Z</time>
      </trkpt>
      <trkpt lat="41.630036970600486" lon="-7.362446989864111">
        <ele>537.99000000000001</ele>
        <time>2025-05-02T12:54:02Z</time>
      </trkpt>
      <trkpt lat="41.629019994288683" lon="-7.361525986343622">
        <ele>537.02999999999997</ele>
        <time>2025-05-02T12:54:10Z</time>
      </trkpt>
      <trkpt lat="41.628876999020576" lon="-7.361453985795379">
        <ele>537.02999999999997</ele>
        <time>2025-05-02T12:54:11Z</time>
      </trkpt>
      <trkpt lat="41.628732997924089" lon="-7.361381985247135">
        <ele>537.02999999999997</ele>
        <time>2025-05-02T12:54:12Z</time>
      </trkpt>
      <trkpt lat="41.62858497351408" lon="-7.361337980255485">
        <ele>536.54999999999995</ele>
        <time>2025-05-02T12:54:13Z</time>
      </trkpt>
      <trkpt lat="41.628428986296058" lon="-7.361307973042131">
        <ele>536.54999999999995</ele>
        <time>2025-05-02T12:54:14Z</time>
      </trkpt>
      <trkpt lat="41.626861989498138" lon="-7.361176963895559">
        <ele>532.71000000000004</ele>
        <time>2025-05-02T12:54:24Z</time>
      </trkpt>
      <trkpt lat="41.626166962087154" lon="-7.361212000250816">
        <ele>532.23000000000002</ele>
        <time>2025-05-02T12:54:28Z</time>
      </trkpt>
      <trkpt lat="41.625988008454442" lon="-7.361189033836126">
        <ele>532.23000000000002</ele>
        <time>2025-05-02T12:54:29Z</time>
      </trkpt>
      <trkpt lat="41.623894963413477" lon="-7.360603976994753">
        <ele>532.23000000000002</ele>
        <time>2025-05-02T12:54:40Z</time>
      </trkpt>
      <trkpt lat="41.622523013502359" lon="-7.360232993960381">
        <ele>530.78999999999996</ele>
        <time>2025-05-02T12:54:48Z</time>
      </trkpt>
      <trkpt lat="41.622349005192518" lon="-7.360229976475239">
        <ele>530.29999999999995</ele>
        <time>2025-05-02T12:54:49Z</time>
      </trkpt>
      <trkpt lat="41.621798984706402" lon="-7.360217990353704">
        <ele>528.86000000000001</ele>
        <time>2025-05-02T12:54:52Z</time>
      </trkpt>
      <trkpt lat="41.621616007760167" lon="-7.360157975926995">
        <ele>527.89999999999998</ele>
        <time>2025-05-02T12:54:53Z</time>
      </trkpt>
      <trkpt lat="41.619512988254428" lon="-7.359336968511343">
        <ele>518.76999999999998</ele>
        <time>2025-05-02T12:55:04Z</time>
      </trkpt>
      <trkpt lat="41.618777979165316" lon="-7.358931032940745">
        <ele>516.37</ele>
        <time>2025-05-02T12:55:09Z</time>
      </trkpt>
      <trkpt lat="41.618696004152298" lon="-7.358793988823891">
        <ele>515.88</ele>
        <time>2025-05-02T12:55:10Z</time>
      </trkpt>
      <trkpt lat="41.61863598972559" lon="-7.358693992719054">
        <ele>515.39999999999998</ele>
        <time>2025-05-02T12:55:11Z</time>
      </trkpt>
      <trkpt lat="41.618585027754307" lon="-7.358525013551116">
        <ele>514.44000000000005</ele>
        <time>2025-05-02T12:55:12Z</time>
      </trkpt>
      <trkpt lat="41.618533981963992" lon="-7.358356034383178">
        <ele>513.48000000000002</ele>
        <time>2025-05-02T12:55:13Z</time>
      </trkpt>
      <trkpt lat="41.618480002507567" lon="-7.358176996931434">
        <ele>513</ele>
        <time>2025-05-02T12:55:14Z</time>
      </trkpt>
      <trkpt lat="41.61812100559473" lon="-7.357171000912786">
        <ele>508.19</ele>
        <time>2025-05-02T12:55:20Z</time>
      </trkpt>
      <trkpt lat="41.618000976741314" lon="-7.357114003971219">
        <ele>507.70999999999998</ele>
        <time>2025-05-02T12:55:21Z</time>
      </trkpt>
      <trkpt lat="41.617913972586393" lon="-7.35707301646471">
        <ele>506.75</ele>
        <time>2025-05-02T12:55:22Z</time>
      </trkpt>
      <trkpt lat="41.617824034765363" lon="-7.357031023129821">
        <ele>506.26999999999998</ele>
        <time>2025-05-02T12:55:23Z</time>
      </trkpt>
      <trkpt lat="41.617732001468539" lon="-7.35698701813817">
        <ele>505.79000000000002</ele>
        <time>2025-05-02T12:55:24Z</time>
      </trkpt>
      <trkpt lat="41.617639968171716" lon="-7.356941001489759">
        <ele>505.31</ele>
        <time>2025-05-02T12:55:25Z</time>
      </trkpt>
      <trkpt lat="41.617549024522305" lon="-7.356895990669727">
        <ele>504.82999999999998</ele>
        <time>2025-05-02T12:55:26Z</time>
      </trkpt>
      <trkpt lat="41.616893978789449" lon="-7.356632966548204">
        <ele>500.01999999999998</ele>
        <time>2025-05-02T12:55:35Z</time>
      </trkpt>
      <trkpt lat="41.61674503237009" lon="-7.356564989313483">
        <ele>498.57999999999998</ele>
        <time>2025-05-02T12:55:38Z</time>
      </trkpt>
      <trkpt lat="41.616703039035201" lon="-7.356541017070413">
        <ele>498.10000000000002</ele>
        <time>2025-05-02T12:55:39Z</time>
      </trkpt>
      <trkpt lat="41.61666096188128" lon="-7.35651696100831">
        <ele>497.62</ele>
        <time>2025-05-02T12:55:40Z</time>
      </trkpt>
      <trkpt lat="41.616641012951732" lon="-7.356504974886775">
        <ele>497.13999999999999</ele>
        <time>2025-05-02T12:55:41Z</time>
      </trkpt>
      <trkpt lat="41.616592984646559" lon="-7.356458036229014">
        <ele>496.66000000000003</ele>
        <time>2025-05-02T12:55:42Z</time>
      </trkpt>
      <trkpt lat="41.616559037938714" lon="-7.356424005702138">
        <ele>496.66000000000003</ele>
        <time>2025-05-02T12:55:43Z</time>
      </trkpt>
      <trkpt lat="41.616521989926696" lon="-7.356387041509152">
        <ele>496.18000000000001</ele>
        <time>2025-05-02T12:55:44Z</time>
      </trkpt>
      <trkpt lat="41.616454012691975" lon="-7.356318980455399">
        <ele>495.22000000000003</ele>
        <time>2025-05-02T12:55:46Z</time>
      </trkpt>
      <trkpt lat="41.616420987993479" lon="-7.356286039575934">
        <ele>494.74000000000001</ele>
        <time>2025-05-02T12:55:47Z</time>
      </trkpt>
      <trkpt lat="41.616388969123363" lon="-7.356254020705819">
        <ele>494.25999999999999</ele>
        <time>2025-05-02T12:55:48Z</time>
      </trkpt>
      <trkpt lat="41.616256032139063" lon="-7.356120999902487">
        <ele>492.81</ele>
        <time>2025-05-02T12:55:52Z</time>
      </trkpt>
      <trkpt lat="41.616083029657602" lon="-7.355969035997987">
        <ele>490.41000000000003</ele>
        <time>2025-05-02T12:55:57Z</time>
      </trkpt>
      <trkpt lat="41.616054028272629" lon="-7.355926958844066">
        <ele>489.93000000000001</ele>
        <time>2025-05-02T12:55:58Z</time>
      </trkpt>
      <trkpt lat="41.616025026887655" lon="-7.355883037671447">
        <ele>489.44999999999999</ele>
        <time>2025-05-02T12:55:59Z</time>
      </trkpt>
      <trkpt lat="41.615970963612199" lon="-7.355801984667778">
        <ele>488.00999999999999</ele>
        <time>2025-05-02T12:56:01Z</time>
      </trkpt>
      <trkpt lat="41.615941040217876" lon="-7.355755968019366">
        <ele>487.52999999999997</ele>
        <time>2025-05-02T12:56:02Z</time>
      </trkpt>
      <trkpt lat="41.615910027176142" lon="-7.355711041018367">
        <ele>486.56</ele>
        <time>2025-05-02T12:56:03Z</time>
      </trkpt>
      <trkpt lat="41.615855963900685" lon="-7.355679022148252">
        <ele>486.07999999999998</ele>
        <time>2025-05-02T12:56:04Z</time>
      </trkpt>
      <trkpt lat="41.615802990272641" lon="-7.355647003278136">
        <ele>485.60000000000002</ele>
        <time>2025-05-02T12:56:05Z</time>
      </trkpt>
      <trkpt lat="41.615631999447942" lon="-7.355554969981313">
        <ele>483.68000000000001</ele>
        <time>2025-05-02T12:56:08Z</time>
      </trkpt>
      <trkpt lat="41.615452039986849" lon="-7.355509037151933">
        <ele>482.24000000000001</ele>
        <time>2025-05-02T12:56:11Z</time>
      </trkpt>
      <trkpt lat="41.615394959226251" lon="-7.355518005788326">
        <ele>481.75999999999999</ele>
        <time>2025-05-02T12:56:12Z</time>
      </trkpt>
      <trkpt lat="41.615335028618574" lon="-7.355528986081481">
        <ele>481.27999999999997</ele>
        <time>2025-05-02T12:56:13Z</time>
      </trkpt>
      <trkpt lat="41.615221034735441" lon="-7.355580031871796">
        <ele>479.83999999999997</ele>
        <time>2025-05-02T12:56:15Z</time>
      </trkpt>
      <trkpt lat="41.615164037793875" lon="-7.355629988014698">
        <ele>479.35000000000002</ele>
        <time>2025-05-02T12:56:16Z</time>
      </trkpt>
      <trkpt lat="41.615107040852308" lon="-7.355680027976632">
        <ele>478.38999999999999</ele>
        <time>2025-05-02T12:56:17Z</time>
      </trkpt>
      <trkpt lat="41.614906964823604" lon="-7.355840960517526">
        <ele>476.47000000000003</ele>
        <time>2025-05-02T12:56:20Z</time>
      </trkpt>
      <trkpt lat="41.614839993417263" lon="-7.355895023792982">
        <ele>475.99000000000001</ele>
        <time>2025-05-02T12:56:21Z</time>
      </trkpt>
      <trkpt lat="41.614762041717768" lon="-7.355949003249407">
        <ele>475.50999999999999</ele>
        <time>2025-05-02T12:56:22Z</time>
      </trkpt>
      <trkpt lat="41.61468300037086" lon="-7.355963001027703">
        <ele>474.55000000000001</ele>
        <time>2025-05-02T12:56:23Z</time>
      </trkpt>
      <trkpt lat="41.614606976509094" lon="-7.355975992977619">
        <ele>474.06999999999999</ele>
        <time>2025-05-02T12:56:24Z</time>
      </trkpt>
      <trkpt lat="41.614040024578571" lon="-7.356027038767934">
        <ele>468.77999999999997</ele>
        <time>2025-05-02T12:56:32Z</time>
      </trkpt>
      <trkpt lat="41.613969029858708" lon="-7.356009017676115">
        <ele>468.30000000000001</ele>
        <time>2025-05-02T12:56:33Z</time>
      </trkpt>
      <trkpt lat="41.613895017653704" lon="-7.355990996584296">
        <ele>467.81999999999999</ele>
        <time>2025-05-02T12:56:34Z</time>
      </trkpt>
      <trkpt lat="41.613808013498783" lon="-7.355969035997987">
        <ele>467.81999999999999</ele>
        <time>2025-05-02T12:56:35Z</time>
      </trkpt>
      <trkpt lat="41.613756967708468" lon="-7.355907009914517">
        <ele>467.81999999999999</ele>
        <time>2025-05-02T12:56:36Z</time>
      </trkpt>
      <trkpt lat="41.61369301378727" lon="-7.355829980224371">
        <ele>467.81999999999999</ele>
        <time>2025-05-02T12:56:37Z</time>
      </trkpt>
      <trkpt lat="41.613627970218658" lon="-7.355752028524876">
        <ele>468.30000000000001</ele>
        <time>2025-05-02T12:56:38Z</time>
      </trkpt>
      <trkpt lat="41.613567033782601" lon="-7.355665024369955">
        <ele>468.30000000000001</ele>
        <time>2025-05-02T12:56:39Z</time>
      </trkpt>
      <trkpt lat="41.612961022183299" lon="-7.354653999209404">
        <ele>470.69999999999999</ele>
        <time>2025-05-02T12:56:48Z</time>
      </trkpt>
      <trkpt lat="41.612882986664772" lon="-7.354529025033116">
        <ele>470.69999999999999</ele>
        <time>2025-05-02T12:56:49Z</time>
      </trkpt>
      <trkpt lat="41.612807968631387" lon="-7.354407990351319">
        <ele>470.69999999999999</ele>
        <time>2025-05-02T12:56:50Z</time>
      </trkpt>
      <trkpt lat="41.612703027203679" lon="-7.354325009509921">
        <ele>471.18000000000001</ele>
        <time>2025-05-02T12:56:51Z</time>
      </trkpt>
      <trkpt lat="41.612592972815037" lon="-7.354273963719606">
        <ele>470.69999999999999</ele>
        <time>2025-05-02T12:56:52Z</time>
      </trkpt>
      <trkpt lat="41.612479984760284" lon="-7.354230964556336">
        <ele>470.69999999999999</ele>
        <time>2025-05-02T12:56:53Z</time>
      </trkpt>
      <trkpt lat="41.612361967563629" lon="-7.354230964556336">
        <ele>471.18000000000001</ele>
        <time>2025-05-02T12:56:54Z</time>
      </trkpt>
      <trkpt lat="41.612241016700864" lon="-7.354230964556336">
        <ele>471.66000000000003</ele>
        <time>2025-05-02T12:56:55Z</time>
      </trkpt>
      <trkpt lat="41.612121993675828" lon="-7.354230964556336">
        <ele>472.13999999999999</ele>
        <time>2025-05-02T12:56:56Z</time>
      </trkpt>
      <trkpt lat="41.612009005621076" lon="-7.354230964556336">
        <ele>473.11000000000001</ele>
        <time>2025-05-02T12:56:57Z</time>
      </trkpt>
      <trkpt lat="41.611912027001381" lon="-7.354209003970027">
        <ele>473.58999999999997</ele>
        <time>2025-05-02T12:56:58Z</time>
      </trkpt>
      <trkpt lat="41.61182502284646" lon="-7.354142032563686">
        <ele>474.55000000000001</ele>
        <time>2025-05-02T12:56:59Z</time>
      </trkpt>
      <trkpt lat="41.611735001206398" lon="-7.354071959853172">
        <ele>475.50999999999999</ele>
        <time>2025-05-02T12:57:00Z</time>
      </trkpt>
      <trkpt lat="41.611642967909575" lon="-7.353985961526632">
        <ele>475.99000000000001</ele>
        <time>2025-05-02T12:57:01Z</time>
      </trkpt>
      <trkpt lat="41.611569039523602" lon="-7.353871967643499">
        <ele>476.94999999999999</ele>
        <time>2025-05-02T12:57:02Z</time>
      </trkpt>
      <trkpt lat="41.610879963263869" lon="-7.352794976904988">
        <ele>485.60000000000002</ele>
        <time>2025-05-02T12:57:13Z</time>
      </trkpt>
      <trkpt lat="41.610352993011475" lon="-7.35213196836412">
        <ele>490.41000000000003</ele>
        <time>2025-05-02T12:57:21Z</time>
      </trkpt>
      <trkpt lat="41.610030960291624" lon="-7.351861987262964">
        <ele>491.85000000000002</ele>
        <time>2025-05-02T12:57:28Z</time>
      </trkpt>
      <trkpt lat="41.610021991655231" lon="-7.351855030283332">
        <ele>491.85000000000002</ele>
        <time>2025-05-02T12:57:31Z</time>
      </trkpt>
      <trkpt lat="41.609989972785115" lon="-7.351824017241597">
        <ele>491.85000000000002</ele>
        <time>2025-05-02T12:57:32Z</time>
      </trkpt>
      <trkpt lat="41.610008999705315" lon="-7.351757967844605">
        <ele>492.32999999999998</ele>
        <time>2025-05-02T12:57:33Z</time>
      </trkpt>
      <trkpt lat="41.610032971948385" lon="-7.351671969518066">
        <ele>491.85000000000002</ele>
        <time>2025-05-02T12:57:34Z</time>
      </trkpt>
      <trkpt lat="41.610059961676598" lon="-7.351579014211893">
        <ele>491.85000000000002</ele>
        <time>2025-05-02T12:57:35Z</time>
      </trkpt>
      <trkpt lat="41.610380988568068" lon="-7.350565977394581">
        <ele>488.97000000000003</ele>
        <time>2025-05-02T12:57:43Z</time>
      </trkpt>
      <trkpt lat="41.610898990184069" lon="-7.348899990320206">
        <ele>482.72000000000003</ele>
        <time>2025-05-02T12:57:54Z</time>
      </trkpt>
      <trkpt lat="41.610942995175719" lon="-7.348753977566958">
        <ele>481.75999999999999</ele>
        <time>2025-05-02T12:57:55Z</time>
      </trkpt>
      <trkpt lat="41.611056989058852" lon="-7.347962977364659">
        <ele>477.43000000000001</ele>
        <time>2025-05-02T12:58:00Z</time>
      </trkpt>
      <trkpt lat="41.611046008765697" lon="-7.347802966833115">
        <ele>476.94999999999999</ele>
        <time>2025-05-02T12:58:01Z</time>
      </trkpt>
      <trkpt lat="41.611035028472543" lon="-7.347645973786712">
        <ele>475.99000000000001</ele>
        <time>2025-05-02T12:58:02Z</time>
      </trkpt>
      <trkpt lat="41.611023964360356" lon="-7.347488980740309">
        <ele>475.50999999999999</ele>
        <time>2025-05-02T12:58:03Z</time>
      </trkpt>
      <trkpt lat="41.610992029309273" lon="-7.347340034320951">
        <ele>475.02999999999997</ele>
        <time>2025-05-02T12:58:04Z</time>
      </trkpt>
      <trkpt lat="41.610936960205436" lon="-7.347201984375715">
        <ele>474.06999999999999</ele>
        <time>2025-05-02T12:58:05Z</time>
      </trkpt>
      <trkpt lat="41.610883986577392" lon="-7.347069969400764">
        <ele>473.58999999999997</ele>
        <time>2025-05-02T12:58:06Z</time>
      </trkpt>
      <trkpt lat="41.610808968544006" lon="-7.346939966082573">
        <ele>473.58999999999997</ele>
        <time>2025-05-02T12:58:07Z</time>
      </trkpt>
      <trkpt lat="41.610714001581073" lon="-7.34684600494802">
        <ele>473.11000000000001</ele>
        <time>2025-05-02T12:58:08Z</time>
      </trkpt>
      <trkpt lat="41.610618028789759" lon="-7.346749026328325">
        <ele>473.11000000000001</ele>
        <time>2025-05-02T12:58:09Z</time>
      </trkpt>
      <trkpt lat="41.610519960522652" lon="-7.346651963889599">
        <ele>472.63</ele>
        <time>2025-05-02T12:58:10Z</time>
      </trkpt>
      <trkpt lat="41.610414013266563" lon="-7.346561020240188">
        <ele>472.63</ele>
        <time>2025-05-02T12:58:11Z</time>
      </trkpt>
      <trkpt lat="41.610303958877921" lon="-7.346487008035183">
        <ele>472.63</ele>
        <time>2025-05-02T12:58:12Z</time>
      </trkpt>
      <trkpt lat="41.609872961416841" lon="-7.346188025549054">
        <ele>472.63</ele>
        <time>2025-05-02T12:58:16Z</time>
      </trkpt>
      <trkpt lat="41.609812024980783" lon="-7.346052993088961">
        <ele>472.63</ele>
        <time>2025-05-02T12:58:17Z</time>
      </trkpt>
      <trkpt lat="41.609749998897314" lon="-7.345915026962757">
        <ele>473.11000000000001</ele>
        <time>2025-05-02T12:58:18Z</time>
      </trkpt>
      <trkpt lat="41.608995962888002" lon="-7.343934969976544">
        <ele>483.68000000000001</ele>
        <time>2025-05-02T12:58:32Z</time>
      </trkpt>
      <trkpt lat="41.608964027836919" lon="-7.343777976930141">
        <ele>484.63999999999999</ele>
        <time>2025-05-02T12:58:33Z</time>
      </trkpt>
      <trkpt lat="41.608941983431578" lon="-7.343618972226977">
        <ele>485.60000000000002</ele>
        <time>2025-05-02T12:58:34Z</time>
      </trkpt>
      <trkpt lat="41.608915999531746" lon="-7.343438006937504">
        <ele>486.07999999999998</ele>
        <time>2025-05-02T12:58:35Z</time>
      </trkpt>
      <trkpt lat="41.608915999531746" lon="-7.343291994184256">
        <ele>487.05000000000001</ele>
        <time>2025-05-02T12:58:36Z</time>
      </trkpt>
      <trkpt lat="41.608935026451945" lon="-7.341154022142291">
        <ele>487.52999999999997</ele>
        <time>2025-05-02T12:58:49Z</time>
      </trkpt>
      <trkpt lat="41.608898984268308" lon="-7.340982025489211">
        <ele>487.52999999999997</ele>
        <time>2025-05-02T12:58:50Z</time>
      </trkpt>
      <trkpt lat="41.608864031732082" lon="-7.340813968330622">
        <ele>487.52999999999997</ele>
        <time>2025-05-02T12:58:51Z</time>
      </trkpt>
      <trkpt lat="41.608288027346134" lon="-7.339077992364764">
        <ele>488.97000000000003</ele>
        <time>2025-05-02T12:59:02Z</time>
      </trkpt>
      <trkpt lat="41.608058027923107" lon="-7.337945010513067">
        <ele>491.85000000000002</ele>
        <time>2025-05-02T12:59:08Z</time>
      </trkpt>
      <trkpt lat="41.607969012111425" lon="-7.337773013859987">
        <ele>491.85000000000002</ele>
        <time>2025-05-02T12:59:09Z</time>
      </trkpt>
      <trkpt lat="41.607884019613266" lon="-7.33760797418654">
        <ele>492.32999999999998</ele>
        <time>2025-05-02T12:59:10Z</time>
      </trkpt>
      <trkpt lat="41.607369035482407" lon="-7.336199982091785">
        <ele>493.29000000000002</ele>
        <time>2025-05-02T12:59:18Z</time>
      </trkpt>
      <trkpt lat="41.607349002733827" lon="-7.336014993488789">
        <ele>493.29000000000002</ele>
        <time>2025-05-02T12:59:19Z</time>
      </trkpt>
      <trkpt lat="41.607349002733827" lon="-7.335836961865425">
        <ele>492.81</ele>
        <time>2025-05-02T12:59:20Z</time>
      </trkpt>
      <trkpt lat="41.607375992462039" lon="-7.335677035152912">
        <ele>492.32999999999998</ele>
        <time>2025-05-02T12:59:21Z</time>
      </trkpt>
      <trkpt lat="41.607427038252354" lon="-7.335522975772619">
        <ele>491.85000000000002</ele>
        <time>2025-05-02T12:59:22Z</time>
      </trkpt>
      <trkpt lat="41.607497027143836" lon="-7.33537302352488">
        <ele>491.37</ele>
        <time>2025-05-02T12:59:23Z</time>
      </trkpt>
      <trkpt lat="41.60759299993515" lon="-7.335230028256774">
        <ele>490.88999999999999</ele>
        <time>2025-05-02T12:59:24Z</time>
      </trkpt>
      <trkpt lat="41.608304958790541" lon="-7.334124036133289">
        <ele>485.60000000000002</ele>
        <time>2025-05-02T12:59:31Z</time>
      </trkpt>
      <trkpt lat="41.608371008187532" lon="-7.333950027823448">
        <ele>484.63999999999999</ele>
        <time>2025-05-02T12:59:32Z</time>
      </trkpt>
      <trkpt lat="41.608444014564157" lon="-7.333760010078549">
        <ele>483.68000000000001</ele>
        <time>2025-05-02T12:59:33Z</time>
      </trkpt>
      <trkpt lat="41.609001997858286" lon="-7.331429002806544">
        <ele>472.63</ele>
        <time>2025-05-02T12:59:45Z</time>
      </trkpt>
      <trkpt lat="41.609523016959429" lon="-7.328986013308168">
        <ele>461.56999999999999</ele>
        <time>2025-05-02T12:59:57Z</time>
      </trkpt>
      <trkpt lat="41.609551012516022" lon="-7.328794989734888">
        <ele>460.61000000000001</ele>
        <time>2025-05-02T12:59:58Z</time>
      </trkpt>
      <trkpt lat="41.609543971717358" lon="-7.328612012788653">
        <ele>459.17000000000002</ele>
        <time>2025-05-02T12:59:59Z</time>
      </trkpt>
      <trkpt lat="41.609490998089314" lon="-7.32845501974225">
        <ele>458.20999999999998</ele>
        <time>2025-05-02T13:00:00Z</time>
      </trkpt>
      <trkpt lat="41.609427966177464" lon="-7.328306995332241">
        <ele>457.24000000000001</ele>
        <time>2025-05-02T13:00:01Z</time>
      </trkpt>
      <trkpt lat="41.609326964244246" lon="-7.328206999227405">
        <ele>456.27999999999997</ele>
        <time>2025-05-02T13:00:02Z</time>
      </trkpt>
      <trkpt lat="41.609221016988158" lon="-7.328117983415723">
        <ele>454.83999999999997</ele>
        <time>2025-05-02T13:00:03Z</time>
      </trkpt>
      <trkpt lat="41.609105011448264" lon="-7.328054029494524">
        <ele>453.88</ele>
        <time>2025-05-02T13:00:04Z</time>
      </trkpt>
      <trkpt lat="41.608984982594848" lon="-7.327999966219068">
        <ele>452.92000000000002</ele>
        <time>2025-05-02T13:00:05Z</time>
      </trkpt>
      <trkpt lat="41.608857996761799" lon="-7.327966019511223">
        <ele>451.95999999999998</ele>
        <time>2025-05-02T13:00:06Z</time>
      </trkpt>
      <trkpt lat="41.607815036550164" lon="-7.327608028426766">
        <ele>440.89999999999998</ele>
        <time>2025-05-02T13:00:14Z</time>
      </trkpt>
      <trkpt lat="41.607711017131805" lon="-7.327501997351646">
        <ele>439.94</ele>
        <time>2025-05-02T13:00:15Z</time>
      </trkpt>
      <trkpt lat="41.607619989663363" lon="-7.327389009296894">
        <ele>438.98000000000002</ele>
        <time>2025-05-02T13:00:16Z</time>
      </trkpt>
      <trkpt lat="41.607563998550177" lon="-7.327259005978704">
        <ele>438.5</ele>
        <time>2025-05-02T13:00:17Z</time>
      </trkpt>
      <trkpt lat="41.607560981065035" lon="-7.327087009325624">
        <ele>438.01999999999998</ele>
        <time>2025-05-02T13:00:18Z</time>
      </trkpt>
      <trkpt lat="41.607557963579893" lon="-7.326926998794079">
        <ele>437.54000000000002</ele>
        <time>2025-05-02T13:00:19Z</time>
      </trkpt>
      <trkpt lat="41.607554024085402" lon="-7.326763970777392">
        <ele>437.54000000000002</ele>
        <time>2025-05-02T13:00:20Z</time>
      </trkpt>
      <trkpt lat="41.607547989115119" lon="-7.326446967199445">
        <ele>438.5</ele>
        <time>2025-05-02T13:00:22Z</time>
      </trkpt>
      <trkpt lat="41.607544971629977" lon="-7.326286034658551">
        <ele>438.5</ele>
        <time>2025-05-02T13:00:23Z</time>
      </trkpt>
      <trkpt lat="41.607532985508442" lon="-7.326141027733684">
        <ele>438.98000000000002</ele>
        <time>2025-05-02T13:00:24Z</time>
      </trkpt>
      <trkpt lat="41.607474982738495" lon="-7.326001971960068">
        <ele>439.45999999999998</ele>
        <time>2025-05-02T13:00:25Z</time>
      </trkpt>
      <trkpt lat="41.607404993847013" lon="-7.325885966420174">
        <ele>439.45999999999998</ele>
        <time>2025-05-02T13:00:26Z</time>
      </trkpt>
      <trkpt lat="41.607303991913795" lon="-7.325814971700311">
        <ele>439.94</ele>
        <time>2025-05-02T13:00:27Z</time>
      </trkpt>
      <trkpt lat="41.607196033000946" lon="-7.325749006122351">
        <ele>440.42000000000002</ele>
        <time>2025-05-02T13:00:28Z</time>
      </trkpt>
      <trkpt lat="41.60707600414753" lon="-7.325711958110333">
        <ele>440.89999999999998</ele>
        <time>2025-05-02T13:00:29Z</time>
      </trkpt>
      <trkpt lat="41.606829995289445" lon="-7.325612967833877">
        <ele>442.33999999999997</ele>
        <time>2025-05-02T13:00:31Z</time>
      </trkpt>
      <trkpt lat="41.60671197809279" lon="-7.325522024184465">
        <ele>442.81999999999999</ele>
        <time>2025-05-02T13:00:32Z</time>
      </trkpt>
      <trkpt lat="41.606593038886786" lon="-7.325428985059261">
        <ele>443.79000000000002</ele>
        <time>2025-05-02T13:00:33Z</time>
      </trkpt>
      <trkpt lat="41.605534991249442" lon="-7.324031973257661">
        <ele>451</ele>
        <time>2025-05-02T13:00:45Z</time>
      </trkpt>
      <trkpt lat="41.604766035452485" lon="-7.322575030848384">
        <ele>456.75999999999999</ele>
        <time>2025-05-02T13:00:56Z</time>
      </trkpt>
      <trkpt lat="41.604652041569352" lon="-7.322321981191635">
        <ele>457.72000000000003</ele>
        <time>2025-05-02T13:00:58Z</time>
      </trkpt>
      <trkpt lat="41.604620022699237" lon="-7.322179991751909">
        <ele>458.20999999999998</ele>
        <time>2025-05-02T13:00:59Z</time>
      </trkpt>
      <trkpt lat="41.604611976072192" lon="-7.32203003950417">
        <ele>458.69</ele>
        <time>2025-05-02T13:01:00Z</time>
      </trkpt>
      <trkpt lat="41.604604013264179" lon="-7.321872962638736">
        <ele>459.17000000000002</ele>
        <time>2025-05-02T13:01:01Z</time>
      </trkpt>
      <trkpt lat="41.604621028527617" lon="-7.321716975420713">
        <ele>459.64999999999998</ele>
        <time>2025-05-02T13:01:02Z</time>
      </trkpt>
      <trkpt lat="41.604641983285546" lon="-7.321559982374311">
        <ele>459.64999999999998</ele>
        <time>2025-05-02T13:01:03Z</time>
      </trkpt>
      <trkpt lat="41.604663021862507" lon="-7.321402989327908">
        <ele>459.17000000000002</ele>
        <time>2025-05-02T13:01:04Z</time>
      </trkpt>
      <trkpt lat="41.604872988536954" lon="-7.319330982863903">
        <ele>453.88</ele>
        <time>2025-05-02T13:01:17Z</time>
      </trkpt>
      <trkpt lat="41.604847004637122" lon="-7.318692030385137">
        <ele>451</ele>
        <time>2025-05-02T13:01:21Z</time>
      </trkpt>
      <trkpt lat="41.604825966060162" lon="-7.318537971004844">
        <ele>450.02999999999997</ele>
        <time>2025-05-02T13:01:22Z</time>
      </trkpt>
      <trkpt lat="41.604787996038795" lon="-7.318388018757105">
        <ele>449.55000000000001</ele>
        <time>2025-05-02T13:01:23Z</time>
      </trkpt>
      <trkpt lat="41.604752037674189" lon="-7.318242006003857">
        <ele>448.58999999999997</ele>
        <time>2025-05-02T13:01:24Z</time>
      </trkpt>
      <trkpt lat="41.604721024632454" lon="-7.318112002685666">
        <ele>448.11000000000001</ele>
        <time>2025-05-02T13:01:25Z</time>
      </trkpt>
      <trkpt lat="41.604695040732622" lon="-7.317999014630914">
        <ele>448.11000000000001</ele>
        <time>2025-05-02T13:01:26Z</time>
      </trkpt>
      <trkpt lat="41.6046719904989" lon="-7.3179030418396">
        <ele>447.63</ele>
        <time>2025-05-02T13:01:27Z</time>
      </trkpt>
      <trkpt lat="41.604666961356997" lon="-7.317882003262639">
        <ele>447.14999999999998</ele>
        <time>2025-05-02T13:01:28Z</time>
      </trkpt>
      <trkpt lat="41.604566965252161" lon="-7.317764991894364">
        <ele>447.14999999999998</ele>
        <time>2025-05-02T13:01:29Z</time>
      </trkpt>
      <trkpt lat="41.604579035192728" lon="-7.317686034366489">
        <ele>446.67000000000002</ele>
        <time>2025-05-02T13:01:30Z</time>
      </trkpt>
      <trkpt lat="41.604689005762339" lon="-7.317645968869329">
        <ele>446.19</ele>
        <time>2025-05-02T13:01:31Z</time>
      </trkpt>
      <trkpt lat="41.604719012975693" lon="-7.317571034654975">
        <ele>446.67000000000002</ele>
        <time>2025-05-02T13:01:32Z</time>
      </trkpt>
      <trkpt lat="41.60475698299706" lon="-7.317479001358151">
        <ele>446.67000000000002</ele>
        <time>2025-05-02T13:01:33Z</time>
      </trkpt>
      <trkpt lat="41.604798976331949" lon="-7.317375987768173">
        <ele>447.14999999999998</ele>
        <time>2025-05-02T13:01:34Z</time>
      </trkpt>
      <trkpt lat="41.6048429813236" lon="-7.317268028855324">
        <ele>448.11000000000001</ele>
        <time>2025-05-02T13:01:35Z</time>
      </trkpt>
      <trkpt lat="41.6052729729563" lon="-7.316288016736507">
        <ele>454.83999999999997</ele>
        <time>2025-05-02T13:01:43Z</time>
      </trkpt>
      <trkpt lat="41.605639010667801" lon="-7.315470026805997">
        <ele>456.75999999999999</ele>
        <time>2025-05-02T13:01:51Z</time>
      </trkpt>
      <trkpt lat="41.606134967878461" lon="-7.314333021640778">
        <ele>451</ele>
        <time>2025-05-02T13:02:01Z</time>
      </trkpt>
      <trkpt lat="41.606181990355253" lon="-7.314223973080516">
        <ele>450.51999999999998</ele>
        <time>2025-05-02T13:02:02Z</time>
      </trkpt>
      <trkpt lat="41.606423975899816" lon="-7.313681999221444">
        <ele>447.14999999999998</ele>
        <time>2025-05-02T13:02:08Z</time>
      </trkpt>
      <trkpt lat="41.606472004204988" lon="-7.31358602643013">
        <ele>445.70999999999998</ele>
        <time>2025-05-02T13:02:15Z</time>
      </trkpt>
      <trkpt lat="41.606483990326524" lon="-7.313525006175041">
        <ele>445.70999999999998</ele>
        <time>2025-05-02T13:02:21Z</time>
      </trkpt>
      <trkpt lat="41.60647401586175" lon="-7.313494998961687">
        <ele>445.70999999999998</ele>
        <time>2025-05-02T13:02:22Z</time>
      </trkpt>
      <trkpt lat="41.606459012255073" lon="-7.313451999798417">
        <ele>445.23000000000002</ele>
        <time>2025-05-02T13:02:23Z</time>
      </trkpt>
      <trkpt lat="41.606441996991634" lon="-7.313399026170373">
        <ele>445.23000000000002</ele>
        <time>2025-05-02T13:02:24Z</time>
      </trkpt>
      <trkpt lat="41.606426993384957" lon="-7.313354015350342">
        <ele>445.23000000000002</ele>
        <time>2025-05-02T13:02:25Z</time>
      </trkpt>
      <trkpt lat="41.606248039752245" lon="-7.312967022880912">
        <ele>440.89999999999998</ele>
        <time>2025-05-02T13:02:33Z</time>
      </trkpt>
      <trkpt lat="41.605690978467464" lon="-7.312214998528361">
        <ele>434.17000000000002</ele>
        <time>2025-05-02T13:02:44Z</time>
      </trkpt>
      <trkpt lat="41.6049500182271" lon="-7.311231968924403">
        <ele>426.95999999999998</ele>
        <time>2025-05-02T13:02:57Z</time>
      </trkpt>
      <trkpt lat="41.604762012138963" lon="-7.310995012521744">
        <ele>423.60000000000002</ele>
        <time>2025-05-02T13:03:02Z</time>
      </trkpt>
      <trkpt lat="41.604762012138963" lon="-7.310995012521744">
        <ele>422.63999999999999</ele>
        <time>2025-05-02T13:03:07Z</time>
      </trkpt>
      <trkpt lat="41.604742985218763" lon="-7.310971040278673">
        <ele>422.16000000000003</ele>
        <time>2025-05-02T13:03:08Z</time>
      </trkpt>
      <trkpt lat="41.60471498966217" lon="-7.310936003923416">
        <ele>421.19</ele>
        <time>2025-05-02T13:03:09Z</time>
      </trkpt>
      <trkpt lat="41.604679031297565" lon="-7.310889987275004">
        <ele>420.23000000000002</ele>
        <time>2025-05-02T13:03:10Z</time>
      </trkpt>
      <trkpt lat="41.604636032134295" lon="-7.31083701364696">
        <ele>419.75</ele>
        <time>2025-05-02T13:03:11Z</time>
      </trkpt>
      <trkpt lat="41.604517009109259" lon="-7.310865009203553">
        <ele>419.26999999999998</ele>
        <time>2025-05-02T13:03:12Z</time>
      </trkpt>
      <trkpt lat="41.604471998289227" lon="-7.310789991170168">
        <ele>418.79000000000002</ele>
        <time>2025-05-02T13:03:13Z</time>
      </trkpt>
      <trkpt lat="41.604474009945989" lon="-7.310628974810243">
        <ele>418.31</ele>
        <time>2025-05-02T13:03:14Z</time>
      </trkpt>
      <trkpt lat="41.604415001347661" lon="-7.310562003403902">
        <ele>418.31</ele>
        <time>2025-05-02T13:03:15Z</time>
      </trkpt>
      <trkpt lat="41.604064973071218" lon="-7.310140980407596">
        <ele>417.82999999999998</ele>
        <time>2025-05-02T13:03:20Z</time>
      </trkpt>
      <trkpt lat="41.603210018947721" lon="-7.309082010760903">
        <ele>417.35000000000002</ele>
        <time>2025-05-02T13:03:31Z</time>
      </trkpt>
      <trkpt lat="41.602745996788144" lon="-7.30851698666811">
        <ele>415.43000000000001</ele>
        <time>2025-05-02T13:03:37Z</time>
      </trkpt>
      <trkpt lat="41.602679025381804" lon="-7.308434005826712">
        <ele>415.43000000000001</ele>
        <time>2025-05-02T13:03:38Z</time>
      </trkpt>
      <trkpt lat="41.602535024285316" lon="-7.308416990563273">
        <ele>414.94999999999999</ele>
        <time>2025-05-02T13:03:39Z</time>
      </trkpt>
      <trkpt lat="41.602428993210196" lon="-7.308314982801676">
        <ele>414.94999999999999</ele>
        <time>2025-05-02T13:03:40Z</time>
      </trkpt>
      <trkpt lat="41.602326985448599" lon="-7.308329986408353">
        <ele>414.47000000000003</ele>
        <time>2025-05-02T13:03:41Z</time>
      </trkpt>
      <trkpt lat="41.602221038192511" lon="-7.30834499001503">
        <ele>413.98000000000002</ele>
        <time>2025-05-02T13:03:42Z</time>
      </trkpt>
      <trkpt lat="41.602108972147107" lon="-7.308356976136565">
        <ele>413.98000000000002</ele>
        <time>2025-05-02T13:03:43Z</time>
      </trkpt>
      <trkpt lat="41.601995984092355" lon="-7.308364016935229">
        <ele>413.5</ele>
        <time>2025-05-02T13:03:44Z</time>
      </trkpt>
      <trkpt lat="41.601880984380841" lon="-7.308369968086481">
        <ele>413.01999999999998</ele>
        <time>2025-05-02T13:03:45Z</time>
      </trkpt>
      <trkpt lat="41.600555973127484" lon="-7.308419002220035">
        <ele>409.18000000000001</ele>
        <time>2025-05-02T13:03:57Z</time>
      </trkpt>
      <trkpt lat="41.599596999585629" lon="-7.307964032515883">
        <ele>408.69999999999999</ele>
        <time>2025-05-02T13:04:05Z</time>
      </trkpt>
      <trkpt lat="41.598159000277519" lon="-7.306967005133629">
        <ele>406.29000000000002</ele>
        <time>2025-05-02T13:04:18Z</time>
      </trkpt>
      <trkpt lat="41.596942031756043" lon="-7.306236019358039">
        <ele>405.32999999999998</ele>
        <time>2025-05-02T13:04:29Z</time>
      </trkpt>
      <trkpt lat="41.59528199583292" lon="-7.305769985541701">
        <ele>403.88999999999999</ele>
        <time>2025-05-02T13:04:43Z</time>
      </trkpt>
      <trkpt lat="41.59504696726799" lon="-7.305794963613153">
        <ele>403.41000000000003</ele>
        <time>2025-05-02T13:04:45Z</time>
      </trkpt>
      <trkpt lat="41.594926016405225" lon="-7.305827988311648">
        <ele>403.41000000000003</ele>
        <time>2025-05-02T13:04:46Z</time>
      </trkpt>
      <trkpt lat="41.593205966055393" lon="-7.30653801932931">
        <ele>400.05000000000001</ele>
        <time>2025-05-02T13:05:01Z</time>
      </trkpt>
      <trkpt lat="41.591704012826085" lon="-7.307140007615089">
        <ele>397.16000000000003</ele>
        <time>2025-05-02T13:05:14Z</time>
      </trkpt>
      <trkpt lat="41.590168029069901" lon="-7.307539992034435">
        <ele>395.72000000000003</ele>
        <time>2025-05-02T13:05:27Z</time>
      </trkpt>
      <trkpt lat="41.588602960109711" lon="-7.307361038401723">
        <ele>391.38999999999999</ele>
        <time>2025-05-02T13:05:40Z</time>
      </trkpt>
      <trkpt lat="41.588242035359144" lon="-7.307281997054815">
        <ele>389.94999999999999</ele>
        <time>2025-05-02T13:05:43Z</time>
      </trkpt>
      <trkpt lat="41.588127035647631" lon="-7.307231035083532">
        <ele>389.47000000000003</ele>
        <time>2025-05-02T13:05:44Z</time>
      </trkpt>
      <trkpt lat="41.588013041764498" lon="-7.307179989293218">
        <ele>388.99000000000001</ele>
        <time>2025-05-02T13:05:45Z</time>
      </trkpt>
      <trkpt lat="41.587028000503778" lon="-7.306555034592748">
        <ele>384.18000000000001</ele>
        <time>2025-05-02T13:05:54Z</time>
      </trkpt>
      <trkpt lat="41.586595997214317" lon="-7.306332997977734">
        <ele>383.22000000000003</ele>
        <time>2025-05-02T13:05:57Z</time>
      </trkpt>
      <trkpt lat="41.586430035531521" lon="-7.306262003257871">
        <ele>382.74000000000001</ele>
        <time>2025-05-02T13:05:58Z</time>
      </trkpt>
      <trkpt lat="41.58625703305006" lon="-7.306186985224485">
        <ele>382.74000000000001</ele>
        <time>2025-05-02T13:05:59Z</time>
      </trkpt>
      <trkpt lat="41.5860840305686" lon="-7.306186985224485">
        <ele>382.25999999999999</ele>
        <time>2025-05-02T13:06:00Z</time>
      </trkpt>
      <trkpt lat="41.585900969803333" lon="-7.306186985224485">
        <ele>381.77999999999997</ele>
        <time>2025-05-02T13:06:01Z</time>
      </trkpt>
      <trkpt lat="41.585716987028718" lon="-7.306186985224485">
        <ele>381.77999999999997</ele>
        <time>2025-05-02T13:06:02Z</time>
      </trkpt>
      <trkpt lat="41.585530992597342" lon="-7.306205006316304">
        <ele>381.77999999999997</ele>
        <time>2025-05-02T13:06:03Z</time>
      </trkpt>
      <trkpt lat="41.585344998165965" lon="-7.306267032399774">
        <ele>381.77999999999997</ele>
        <time>2025-05-02T13:06:04Z</time>
      </trkpt>
      <trkpt lat="41.583881014958024" lon="-7.306508012115955">
        <ele>383.22000000000003</ele>
        <time>2025-05-02T13:06:12Z</time>
      </trkpt>
      <trkpt lat="41.582581987604499" lon="-7.306115990504623">
        <ele>387.06999999999999</ele>
        <time>2025-05-02T13:06:20Z</time>
      </trkpt>
      <trkpt lat="41.580916000530124" lon="-7.305124998092651">
        <ele>393.80000000000001</ele>
        <time>2025-05-02T13:06:32Z</time>
      </trkpt>
      <trkpt lat="41.579484036192298" lon="-7.304223021492362">
        <ele>397.16000000000003</ele>
        <time>2025-05-02T13:06:41Z</time>
      </trkpt>
      <trkpt lat="41.577186975628138" lon="-7.302767001092434">
        <ele>400.52999999999997</ele>
        <time>2025-05-02T13:06:52Z</time>
      </trkpt>
      <trkpt lat="41.574196983128786" lon="-7.300864979624748">
        <ele>404.85000000000002</ele>
        <time>2025-05-02T13:07:06Z</time>
      </trkpt>
      <trkpt lat="41.572690000757575" lon="-7.299450030550361">
        <ele>406.29000000000002</ele>
        <time>2025-05-02T13:07:14Z</time>
      </trkpt>
      <trkpt lat="41.571676963940263" lon="-7.297659991309047">
        <ele>405.81</ele>
        <time>2025-05-02T13:07:21Z</time>
      </trkpt>
      <trkpt lat="41.571575039997697" lon="-7.297366037964821">
        <ele>405.32999999999998</ele>
        <time>2025-05-02T13:07:22Z</time>
      </trkpt>
      <trkpt lat="41.570967016741633" lon="-7.294826991856098">
        <ele>400.52999999999997</ele>
        <time>2025-05-02T13:07:30Z</time>
      </trkpt>
      <trkpt lat="41.57016696408391" lon="-7.290837038308382">
        <ele>389.94999999999999</ele>
        <time>2025-05-02T13:07:42Z</time>
      </trkpt>
      <trkpt lat="41.569331036880612" lon="-7.28662203066051">
        <ele>376.00999999999999</ele>
        <time>2025-05-02T13:07:55Z</time>
      </trkpt>
      <trkpt lat="41.568366028368473" lon="-7.281816015020013">
        <ele>354.86000000000001</ele>
        <time>2025-05-02T13:08:10Z</time>
      </trkpt>
      <trkpt lat="41.567666977643967" lon="-7.278335010632873">
        <ele>339.95999999999998</ele>
        <time>2025-05-02T13:08:21Z</time>
      </trkpt>
      <trkpt lat="41.56698795966804" lon="-7.275008987635374">
        <ele>322.66000000000003</ele>
        <time>2025-05-02T13:08:32Z</time>
      </trkpt>
      <trkpt lat="41.566293016076088" lon="-7.272573038935661">
        <ele>310.63999999999999</ele>
        <time>2025-05-02T13:08:42Z</time>
      </trkpt>
      <trkpt lat="41.565426997840405" lon="-7.270968994125724">
        <ele>299.58999999999997</ele>
        <time>2025-05-02T13:08:49Z</time>
      </trkpt>
      <trkpt lat="41.563554983586073" lon="-7.268852982670069">
        <ele>282.27999999999997</ele>
        <time>2025-05-02T13:09:00Z</time>
      </trkpt>
      <trkpt lat="41.561421034857631" lon="-7.266499008983374">
        <ele>261.62</ele>
        <time>2025-05-02T13:09:13Z</time>
      </trkpt>
      <trkpt lat="41.559793017804623" lon="-7.26473000831902">
        <ele>249.12</ele>
        <time>2025-05-02T13:09:24Z</time>
      </trkpt>
      <trkpt lat="41.557335024699569" lon="-7.262011002749205">
        <ele>247.19999999999999</ele>
        <time>2025-05-02T13:09:40Z</time>
      </trkpt>
      <trkpt lat="41.55544800683856" lon="-7.260307967662811">
        <ele>251.52000000000001</ele>
        <time>2025-05-02T13:09:51Z</time>
      </trkpt>
      <trkpt lat="41.553976982831955" lon="-7.2597870323807">
        <ele>255.37</ele>
        <time>2025-05-02T13:09:58Z</time>
      </trkpt>
      <trkpt lat="41.552215022966266" lon="-7.259801030158997">
        <ele>261.13999999999999</ele>
        <time>2025-05-02T13:10:06Z</time>
      </trkpt>
      <trkpt lat="41.550196995958686" lon="-7.259768005460501">
        <ele>266.42000000000002</ele>
        <time>2025-05-02T13:10:15Z</time>
      </trkpt>
      <trkpt lat="41.548618013039231" lon="-7.259201975539327">
        <ele>271.70999999999998</ele>
        <time>2025-05-02T13:10:22Z</time>
      </trkpt>
      <trkpt lat="41.545356027781963" lon="-7.257435992360115">
        <ele>277.48000000000002</ele>
        <time>2025-05-02T13:10:37Z</time>
      </trkpt>
      <trkpt lat="41.542619001120329" lon="-7.255798000842333">
        <ele>273.63</ele>
        <time>2025-05-02T13:10:50Z</time>
      </trkpt>
      <trkpt lat="41.541130039840937" lon="-7.254705000668764">
        <ele>266.42000000000002</ele>
        <time>2025-05-02T13:10:58Z</time>
      </trkpt>
      <trkpt lat="41.539228018373251" lon="-7.253134986385703">
        <ele>255.84999999999999</ele>
        <time>2025-05-02T13:11:10Z</time>
      </trkpt>
      <trkpt lat="41.537028020247817" lon="-7.251375960186124">
        <ele>248.63999999999999</ele>
        <time>2025-05-02T13:11:23Z</time>
      </trkpt>
      <trkpt lat="41.535779032856226" lon="-7.249793959781528">
        <ele>250.08000000000001</ele>
        <time>2025-05-02T13:11:31Z</time>
      </trkpt>
      <trkpt lat="41.534742023795843" lon="-7.247665040194988">
        <ele>259.20999999999998</ele>
        <time>2025-05-02T13:11:39Z</time>
      </trkpt>
      <trkpt lat="41.533258007839322" lon="-7.245076959952712">
        <ele>270.26999999999998</ele>
        <time>2025-05-02T13:11:49Z</time>
      </trkpt>
      <trkpt lat="41.531885974109173" lon="-7.243973985314369">
        <ele>275.56</ele>
        <time>2025-05-02T13:11:56Z</time>
      </trkpt>
      <trkpt lat="41.530388966202736" lon="-7.243463024497032">
        <ele>280.36000000000001</ele>
        <time>2025-05-02T13:12:04Z</time>
      </trkpt>
      <trkpt lat="41.529078036546707" lon="-7.243110984563828">
        <ele>281.80000000000001</ele>
        <time>2025-05-02T13:12:10Z</time>
      </trkpt>
      <trkpt lat="41.526664970442653" lon="-7.242462979629636">
        <ele>281.31999999999999</ele>
        <time>2025-05-02T13:12:20Z</time>
      </trkpt>
      <trkpt lat="41.522825974971056" lon="-7.241421025246382">
        <ele>270.26999999999998</ele>
        <time>2025-05-02T13:12:36Z</time>
      </trkpt>
      <trkpt lat="41.521528959274292" lon="-7.240645028650761">
        <ele>268.82999999999998</ele>
        <time>2025-05-02T13:12:42Z</time>
      </trkpt>
      <trkpt lat="41.520683979615569" lon="-7.239746991544962">
        <ele>271.23000000000002</ele>
        <time>2025-05-02T13:12:48Z</time>
      </trkpt>
      <trkpt lat="41.519960034638643" lon="-7.238333970308304">
        <ele>275.06999999999999</ele>
        <time>2025-05-02T13:12:56Z</time>
      </trkpt>
      <trkpt lat="41.519501963630319" lon="-7.236646022647619">
        <ele>277.48000000000002</ele>
        <time>2025-05-02T13:13:03Z</time>
      </trkpt>
      <trkpt lat="41.518755974248052" lon="-7.232857989147306">
        <ele>278.92000000000002</ele>
        <time>2025-05-02T13:13:16Z</time>
      </trkpt>
      <trkpt lat="41.518178964033723" lon="-7.230427991598845">
        <ele>276.04000000000002</ele>
        <time>2025-05-02T13:13:25Z</time>
      </trkpt>
      <trkpt lat="41.517506986856461" lon="-7.229151008650661">
        <ele>272.19</ele>
        <time>2025-05-02T13:13:31Z</time>
      </trkpt>
      <trkpt lat="41.516701988875866" lon="-7.228199997916818">
        <ele>266.89999999999998</ele>
        <time>2025-05-02T13:13:38Z</time>
      </trkpt>
      <trkpt lat="41.516519011929631" lon="-7.228017020970583">
        <ele>265.45999999999998</ele>
        <time>2025-05-02T13:13:41Z</time>
      </trkpt>
      <trkpt lat="41.516476012766361" lon="-7.227974021807313">
        <ele>264.98000000000002</ele>
        <time>2025-05-02T13:13:42Z</time>
      </trkpt>
      <trkpt lat="41.516510965302587" lon="-7.227836977690458">
        <ele>264.5</ele>
        <time>2025-05-02T13:13:43Z</time>
      </trkpt>
      <trkpt lat="41.516541978344321" lon="-7.227765982970595">
        <ele>264.01999999999998</ele>
        <time>2025-05-02T13:13:44Z</time>
      </trkpt>
      <trkpt lat="41.516579026356339" lon="-7.227680990472436">
        <ele>263.54000000000002</ele>
        <time>2025-05-02T13:13:45Z</time>
      </trkpt>
      <trkpt lat="41.516622025519609" lon="-7.22758200019598">
        <ele>263.06</ele>
        <time>2025-05-02T13:13:46Z</time>
      </trkpt>
      <trkpt lat="41.516670975834131" lon="-7.227462977170944">
        <ele>262.57999999999998</ele>
        <time>2025-05-02T13:13:47Z</time>
      </trkpt>
      <trkpt lat="41.516716992482543" lon="-7.227340014651418">
        <ele>262.10000000000002</ele>
        <time>2025-05-02T13:13:48Z</time>
      </trkpt>
      <trkpt lat="41.516760997474194" lon="-7.227220991626382">
        <ele>261.62</ele>
        <time>2025-05-02T13:13:49Z</time>
      </trkpt>
      <trkpt lat="41.516777006909251" lon="-7.227070033550263">
        <ele>261.13999999999999</ele>
        <time>2025-05-02T13:13:50Z</time>
      </trkpt>
      <trkpt lat="41.516777006909251" lon="-7.226941036060453">
        <ele>260.64999999999998</ele>
        <time>2025-05-02T13:13:51Z</time>
      </trkpt>
      <trkpt lat="41.516734007745981" lon="-7.226803991943598">
        <ele>260.17000000000002</ele>
        <time>2025-05-02T13:13:52Z</time>
      </trkpt>
      <trkpt lat="41.516691008582711" lon="-7.226686980575323">
        <ele>259.20999999999998</ele>
        <time>2025-05-02T13:13:53Z</time>
      </trkpt>
      <trkpt lat="41.516629988327622" lon="-7.226570975035429">
        <ele>258.25</ele>
        <time>2025-05-02T13:13:54Z</time>
      </trkpt>
      <trkpt lat="41.516567962244153" lon="-7.226451030001044">
        <ele>257.76999999999998</ele>
        <time>2025-05-02T13:13:55Z</time>
      </trkpt>
      <trkpt lat="41.516009978950024" lon="-7.22536800429225">
        <ele>249.12</ele>
        <time>2025-05-02T13:14:03Z</time>
      </trkpt>
      <trkpt lat="41.515983995050192" lon="-7.225214028730989">
        <ele>247.68000000000001</ele>
        <time>2025-05-02T13:14:04Z</time>
      </trkpt>
      <trkpt lat="41.515962034463882" lon="-7.225060975179076">
        <ele>246.72</ele>
        <time>2025-05-02T13:14:05Z</time>
      </trkpt>
      <trkpt lat="41.516004027798772" lon="-7.224928038194776">
        <ele>245.27000000000001</ele>
        <time>2025-05-02T13:14:06Z</time>
      </trkpt>
      <trkpt lat="41.516049038618803" lon="-7.224790994077921">
        <ele>243.34999999999999</ele>
        <time>2025-05-02T13:14:07Z</time>
      </trkpt>
      <trkpt lat="41.516096983104944" lon="-7.22465998493135">
        <ele>241.91</ele>
        <time>2025-05-02T13:14:08Z</time>
      </trkpt>
      <trkpt lat="41.516176024451852" lon="-7.224544985219836">
        <ele>240.94999999999999</ele>
        <time>2025-05-02T13:14:09Z</time>
      </trkpt>
      <trkpt lat="41.516255987808108" lon="-7.224429985508323">
        <ele>239.99000000000001</ele>
        <time>2025-05-02T13:14:10Z</time>
      </trkpt>
      <trkpt lat="41.516458997502923" lon="-7.224139971658588">
        <ele>238.53999999999999</ele>
        <time>2025-05-02T13:14:13Z</time>
      </trkpt>
      <trkpt lat="41.516508031636477" lon="-7.224048022180796">
        <ele>238.53999999999999</ele>
        <time>2025-05-02T13:14:14Z</time>
      </trkpt>
      <trkpt lat="41.516519011929631" lon="-7.223876025527716">
        <ele>238.53999999999999</ele>
        <time>2025-05-02T13:14:15Z</time>
      </trkpt>
      <trkpt lat="41.516538960859179" lon="-7.223787009716034">
        <ele>238.06</ele>
        <time>2025-05-02T13:14:16Z</time>
      </trkpt>
      <trkpt lat="41.516487998887897" lon="-7.223691958934069">
        <ele>237.58000000000001</ele>
        <time>2025-05-02T13:14:17Z</time>
      </trkpt>
      <trkpt lat="41.516432007774711" lon="-7.223588023334742">
        <ele>237.58000000000001</ele>
        <time>2025-05-02T13:14:18Z</time>
      </trkpt>
      <trkpt lat="41.516372999176383" lon="-7.223477968946099">
        <ele>237.58000000000001</ele>
        <time>2025-05-02T13:14:19Z</time>
      </trkpt>
      <trkpt lat="41.516250958666205" lon="-7.223251992836595">
        <ele>237.58000000000001</ele>
        <time>2025-05-02T13:14:21Z</time>
      </trkpt>
      <trkpt lat="41.516234027221799" lon="-7.223119977861643">
        <ele>237.58000000000001</ele>
        <time>2025-05-02T13:14:22Z</time>
      </trkpt>
      <trkpt lat="41.516226986423135" lon="-7.222984023392201">
        <ele>237.58000000000001</ele>
        <time>2025-05-02T13:14:23Z</time>
      </trkpt>
      <trkpt lat="41.516219023615122" lon="-7.222824012860656">
        <ele>237.58000000000001</ele>
        <time>2025-05-02T13:14:24Z</time>
      </trkpt>
      <trkpt lat="41.516263028606772" lon="-7.222714964300394">
        <ele>237.09999999999999</ele>
        <time>2025-05-02T13:14:25Z</time>
      </trkpt>
      <trkpt lat="41.516308961436152" lon="-7.222597030922771">
        <ele>237.09999999999999</ele>
        <time>2025-05-02T13:14:26Z</time>
      </trkpt>
      <trkpt lat="41.516348021104932" lon="-7.222479013726115">
        <ele>237.09999999999999</ele>
        <time>2025-05-02T13:14:27Z</time>
      </trkpt>
      <trkpt lat="41.516435025259852" lon="-7.222113981842995">
        <ele>236.62</ele>
        <time>2025-05-02T13:14:30Z</time>
      </trkpt>
      <trkpt lat="41.516426978632808" lon="-7.221851041540504">
        <ele>237.09999999999999</ele>
        <time>2025-05-02T13:14:32Z</time>
      </trkpt>
      <trkpt lat="41.516403006389737" lon="-7.221713997423649">
        <ele>237.09999999999999</ele>
        <time>2025-05-02T13:14:33Z</time>
      </trkpt>
      <trkpt lat="41.51623603887856" lon="-7.221105974167585">
        <ele>239.99000000000001</ele>
        <time>2025-05-02T13:14:38Z</time>
      </trkpt>
      <trkpt lat="41.51619303971529" lon="-7.220994997769594">
        <ele>240.47</ele>
        <time>2025-05-02T13:14:39Z</time>
      </trkpt>
      <trkpt lat="41.51615004055202" lon="-7.220885027199984">
        <ele>241.43000000000001</ele>
        <time>2025-05-02T13:14:40Z</time>
      </trkpt>
      <trkpt lat="41.516062030568719" lon="-7.220661984756589">
        <ele>242.87</ele>
        <time>2025-05-02T13:14:42Z</time>
      </trkpt>
      <trkpt lat="41.516020959243178" lon="-7.220539022237063">
        <ele>243.34999999999999</ele>
        <time>2025-05-02T13:14:43Z</time>
      </trkpt>
      <trkpt lat="41.516002016142011" lon="-7.22040600143373">
        <ele>244.31</ele>
        <time>2025-05-02T13:14:44Z</time>
      </trkpt>
      <trkpt lat="41.515949964523315" lon="-7.220015991479158">
        <ele>245.27000000000001</ele>
        <time>2025-05-02T13:14:47Z</time>
      </trkpt>
      <trkpt lat="41.515933033078909" lon="-7.21988900564611">
        <ele>245.75</ele>
        <time>2025-05-02T13:14:48Z</time>
      </trkpt>
      <trkpt lat="41.51591501198709" lon="-7.219768976792693">
        <ele>245.75</ele>
        <time>2025-05-02T13:14:49Z</time>
      </trkpt>
      <trkpt lat="41.515865977853537" lon="-7.219656994566321">
        <ele>246.22999999999999</ele>
        <time>2025-05-02T13:14:50Z</time>
      </trkpt>
      <trkpt lat="41.515814010053873" lon="-7.219538977369666">
        <ele>246.22999999999999</ele>
        <time>2025-05-02T13:14:51Z</time>
      </trkpt>
      <trkpt lat="41.515723988413811" lon="-7.219292968511581">
        <ele>246.22999999999999</ele>
        <time>2025-05-02T13:14:53Z</time>
      </trkpt>
      <trkpt lat="41.515684006735682" lon="-7.219163971021771">
        <ele>246.22999999999999</ele>
        <time>2025-05-02T13:14:54Z</time>
      </trkpt>
      <trkpt lat="41.51565601117909" lon="-7.219035979360342">
        <ele>245.75</ele>
        <time>2025-05-02T13:14:55Z</time>
      </trkpt>
      <trkpt lat="41.515644025057554" lon="-7.218902036547661">
        <ele>245.75</ele>
        <time>2025-05-02T13:14:56Z</time>
      </trkpt>
      <trkpt lat="41.515632038936019" lon="-7.21877203322947">
        <ele>245.75</ele>
        <time>2025-05-02T13:14:57Z</time>
      </trkpt>
      <trkpt lat="41.515619968995452" lon="-7.218638006597757">
        <ele>246.22999999999999</ele>
        <time>2025-05-02T13:14:58Z</time>
      </trkpt>
      <trkpt lat="41.515546962618828" lon="-7.21780501306057">
        <ele>246.72</ele>
        <time>2025-05-02T13:15:04Z</time>
      </trkpt>
      <trkpt lat="41.515535982325673" lon="-7.217653971165419">
        <ele>246.72</ele>
        <time>2025-05-02T13:15:05Z</time>
      </trkpt>
      <trkpt lat="41.515548974275589" lon="-7.21750401891768">
        <ele>247.19999999999999</ele>
        <time>2025-05-02T13:15:06Z</time>
      </trkpt>
      <trkpt lat="41.515573030337691" lon="-7.217351971194148">
        <ele>247.19999999999999</ele>
        <time>2025-05-02T13:15:07Z</time>
      </trkpt>
      <trkpt lat="41.515597002580762" lon="-7.217205036431551">
        <ele>247.19999999999999</ele>
        <time>2025-05-02T13:15:08Z</time>
      </trkpt>
      <trkpt lat="41.515646958723664" lon="-7.216660967096686">
        <ele>248.16</ele>
        <time>2025-05-02T13:15:12Z</time>
      </trkpt>
      <trkpt lat="41.515628015622497" lon="-7.216536998748779">
        <ele>247.68000000000001</ele>
        <time>2025-05-02T13:15:13Z</time>
      </trkpt>
      <trkpt lat="41.515587028115988" lon="-7.216437002643943">
        <ele>248.16</ele>
        <time>2025-05-02T13:15:14Z</time>
      </trkpt>
      <trkpt lat="41.515514021739364" lon="-7.216352010145783">
        <ele>248.16</ele>
        <time>2025-05-02T13:15:15Z</time>
      </trkpt>
      <trkpt lat="41.515426011756063" lon="-7.216284032911062">
        <ele>248.16</ele>
        <time>2025-05-02T13:15:16Z</time>
      </trkpt>
      <trkpt lat="41.515328027307987" lon="-7.216226030141115">
        <ele>248.16</ele>
        <time>2025-05-02T13:15:17Z</time>
      </trkpt>
      <trkpt lat="41.515240017324686" lon="-7.216172972694039">
        <ele>248.16</ele>
        <time>2025-05-02T13:15:18Z</time>
      </trkpt>
      <trkpt lat="41.515164999291301" lon="-7.216119999065995">
        <ele>248.16</ele>
        <time>2025-05-02T13:15:19Z</time>
      </trkpt>
      <trkpt lat="41.515130968764424" lon="-7.21600198186934">
        <ele>248.16</ele>
        <time>2025-05-02T13:15:20Z</time>
      </trkpt>
      <trkpt lat="41.51509702205658" lon="-7.215884970501065">
        <ele>248.16</ele>
        <time>2025-05-02T13:15:21Z</time>
      </trkpt>
      <trkpt lat="41.515102973207831" lon="-7.215769970789552">
        <ele>248.63999999999999</ele>
        <time>2025-05-02T13:15:22Z</time>
      </trkpt>
      <trkpt lat="41.515146978199482" lon="-7.215652959421277">
        <ele>249.12</ele>
        <time>2025-05-02T13:15:23Z</time>
      </trkpt>
      <trkpt lat="41.515192994847894" lon="-7.215532008558512">
        <ele>249.59999999999999</ele>
        <time>2025-05-02T13:15:24Z</time>
      </trkpt>
      <trkpt lat="41.515240017324686" lon="-7.215406028553844">
        <ele>250.08000000000001</ele>
        <time>2025-05-02T13:15:25Z</time>
      </trkpt>
      <trkpt lat="41.515278993174434" lon="-7.21527099609375">
        <ele>250.08000000000001</ele>
        <time>2025-05-02T13:15:26Z</time>
      </trkpt>
      <trkpt lat="41.51529299095273" lon="-7.215128000825644">
        <ele>250.56</ele>
        <time>2025-05-02T13:15:27Z</time>
      </trkpt>
      <trkpt lat="41.515268012881279" lon="-7.214996991679072">
        <ele>250.56</ele>
        <time>2025-05-02T13:15:28Z</time>
      </trkpt>
      <trkpt lat="41.515231970697641" lon="-7.21486296504736">
        <ele>250.56</ele>
        <time>2025-05-02T13:15:29Z</time>
      </trkpt>
      <trkpt lat="41.51516298763454" lon="-7.214742014184594">
        <ele>251.03999999999999</ele>
        <time>2025-05-02T13:15:30Z</time>
      </trkpt>
      <trkpt lat="41.515087969601154" lon="-7.214608993381262">
        <ele>251.03999999999999</ele>
        <time>2025-05-02T13:15:31Z</time>
      </trkpt>
      <trkpt lat="41.514296969398856" lon="-7.213566033169627">
        <ele>252.47999999999999</ele>
        <time>2025-05-02T13:15:40Z</time>
      </trkpt>
      <trkpt lat="41.51419403962791" lon="-7.213481040671468">
        <ele>252.47999999999999</ele>
        <time>2025-05-02T13:15:41Z</time>
      </trkpt>
      <trkpt lat="41.51408901438117" lon="-7.213398981839418">
        <ele>252.47999999999999</ele>
        <time>2025-05-02T13:15:42Z</time>
      </trkpt>
      <trkpt lat="41.513978037983179" lon="-7.213319018483162">
        <ele>252.47999999999999</ele>
        <time>2025-05-02T13:15:43Z</time>
      </trkpt>
      <trkpt lat="41.513864966109395" lon="-7.213326981291175">
        <ele>252.47999999999999</ele>
        <time>2025-05-02T13:15:44Z</time>
      </trkpt>
      <trkpt lat="41.513753989711404" lon="-7.213334022089839">
        <ele>252.47999999999999</ele>
        <time>2025-05-02T13:15:45Z</time>
      </trkpt>
      <trkpt lat="41.513630021363497" lon="-7.213372997939587">
        <ele>252.47999999999999</ele>
        <time>2025-05-02T13:15:46Z</time>
      </trkpt>
      <trkpt lat="41.513534970581532" lon="-7.213463019579649">
        <ele>252</ele>
        <time>2025-05-02T13:15:47Z</time>
      </trkpt>
      <trkpt lat="41.513438997790217" lon="-7.213553041219711">
        <ele>252</ele>
        <time>2025-05-02T13:15:48Z</time>
      </trkpt>
      <trkpt lat="41.513342019170523" lon="-7.213644990697503">
        <ele>251.03999999999999</ele>
        <time>2025-05-02T13:15:49Z</time>
      </trkpt>
      <trkpt lat="41.513254009187222" lon="-7.213709028437734">
        <ele>250.56</ele>
        <time>2025-05-02T13:15:50Z</time>
      </trkpt>
      <trkpt lat="41.51314202696085" lon="-7.213729983195663">
        <ele>250.08000000000001</ele>
        <time>2025-05-02T13:15:51Z</time>
      </trkpt>
      <trkpt lat="41.513033984228969" lon="-7.21374498680234">
        <ele>250.08000000000001</ele>
        <time>2025-05-02T13:15:52Z</time>
      </trkpt>
      <trkpt lat="41.512919990345836" lon="-7.213707016780973">
        <ele>250.08000000000001</ele>
        <time>2025-05-02T13:15:53Z</time>
      </trkpt>
      <trkpt lat="41.512825023382902" lon="-7.21361598931253">
        <ele>250.56</ele>
        <time>2025-05-02T13:15:54Z</time>
      </trkpt>
      <trkpt lat="41.512730978429317" lon="-7.213522028177977">
        <ele>251.03999999999999</ele>
        <time>2025-05-02T13:15:55Z</time>
      </trkpt>
      <trkpt lat="41.512638023123145" lon="-7.213427983224392">
        <ele>251.52000000000001</ele>
        <time>2025-05-02T13:15:56Z</time>
      </trkpt>
      <trkpt lat="41.512538027018309" lon="-7.213349025696516">
        <ele>252</ele>
        <time>2025-05-02T13:15:57Z</time>
      </trkpt>
      <trkpt lat="41.512429984286427" lon="-7.213308960199356">
        <ele>252</ele>
        <time>2025-05-02T13:15:58Z</time>
      </trkpt>
      <trkpt lat="41.512320013716817" lon="-7.213329998776317">
        <ele>252.47999999999999</ele>
        <time>2025-05-02T13:15:59Z</time>
      </trkpt>
      <trkpt lat="41.512210965156555" lon="-7.213376015424728">
        <ele>252.47999999999999</ele>
        <time>2025-05-02T13:16:00Z</time>
      </trkpt>
      <trkpt lat="41.512093031778932" lon="-7.21342496573925">
        <ele>252.96000000000001</ele>
        <time>2025-05-02T13:16:01Z</time>
      </trkpt>
      <trkpt lat="41.511971997097135" lon="-7.213476011529565">
        <ele>252.96000000000001</ele>
        <time>2025-05-02T13:16:02Z</time>
      </trkpt>
      <trkpt lat="41.511849034577608" lon="-7.213527979329228">
        <ele>252.96000000000001</ele>
        <time>2025-05-02T13:16:03Z</time>
      </trkpt>
      <trkpt lat="41.511729005724192" lon="-7.213575001806021">
        <ele>252.96000000000001</ele>
        <time>2025-05-02T13:16:04Z</time>
      </trkpt>
      <trkpt lat="41.511601014062762" lon="-7.213542982935906">
        <ele>252.96000000000001</ele>
        <time>2025-05-02T13:16:05Z</time>
      </trkpt>
      <trkpt lat="41.511474028229713" lon="-7.21350995823741">
        <ele>253.44</ele>
        <time>2025-05-02T13:16:06Z</time>
      </trkpt>
      <trkpt lat="41.511360034346581" lon="-7.21342496573925">
        <ele>253.44</ele>
        <time>2025-05-02T13:16:07Z</time>
      </trkpt>
      <trkpt lat="41.511245034635067" lon="-7.213340979069471">
        <ele>253.44</ele>
        <time>2025-05-02T13:16:08Z</time>
      </trkpt>
      <trkpt lat="41.511133974418044" lon="-7.213259004056454">
        <ele>253.44</ele>
        <time>2025-05-02T13:16:09Z</time>
      </trkpt>
      <trkpt lat="41.511022998020053" lon="-7.213177029043436">
        <ele>253.44</ele>
        <time>2025-05-02T13:16:10Z</time>
      </trkpt>
      <trkpt lat="41.510903974995017" lon="-7.213117014616728">
        <ele>253.44</ele>
        <time>2025-05-02T13:16:11Z</time>
      </trkpt>
      <trkpt lat="41.510777994990349" lon="-7.213069992139936">
        <ele>253.44</ele>
        <time>2025-05-02T13:16:12Z</time>
      </trkpt>
      <trkpt lat="41.510653020814061" lon="-7.213022969663143">
        <ele>252.96000000000001</ele>
        <time>2025-05-02T13:16:13Z</time>
      </trkpt>
      <trkpt lat="41.510518994182348" lon="-7.213033027946949">
        <ele>252.96000000000001</ele>
        <time>2025-05-02T13:16:14Z</time>
      </trkpt>
      <trkpt lat="41.510386979207397" lon="-7.213049959391356">
        <ele>252.47999999999999</ele>
        <time>2025-05-02T13:16:15Z</time>
      </trkpt>
      <trkpt lat="41.510258987545967" lon="-7.213063035160303">
        <ele>252.47999999999999</ele>
        <time>2025-05-02T13:16:16Z</time>
      </trkpt>
      <trkpt lat="41.51013501919806" lon="-7.213072003796697">
        <ele>252</ele>
        <time>2025-05-02T13:16:17Z</time>
      </trkpt>
      <trkpt lat="41.510014990344644" lon="-7.21307996660471">
        <ele>252</ele>
        <time>2025-05-02T13:16:18Z</time>
      </trkpt>
      <trkpt lat="41.509907031431794" lon="-7.21303797326982">
        <ele>251.52000000000001</ele>
        <time>2025-05-02T13:16:19Z</time>
      </trkpt>
      <trkpt lat="41.509780967608094" lon="-7.212953986600041">
        <ele>250.56</ele>
        <time>2025-05-02T13:16:20Z</time>
      </trkpt>
      <trkpt lat="41.50970502756536" lon="-7.212831024080515">
        <ele>250.56</ele>
        <time>2025-05-02T13:16:21Z</time>
      </trkpt>
      <trkpt lat="41.509624980390072" lon="-7.212675958871841">
        <ele>250.08000000000001</ele>
        <time>2025-05-02T13:16:22Z</time>
      </trkpt>
      <trkpt lat="41.509548034518957" lon="-7.212508991360664">
        <ele>249.59999999999999</ele>
        <time>2025-05-02T13:16:23Z</time>
      </trkpt>
      <trkpt lat="41.50918803177774" lon="-7.211457984521985">
        <ele>246.22999999999999</ele>
        <time>2025-05-02T13:16:29Z</time>
      </trkpt>
      <trkpt lat="41.509121982380748" lon="-7.211349019780755">
        <ele>245.27000000000001</ele>
        <time>2025-05-02T13:16:30Z</time>
      </trkpt>
      <trkpt lat="41.509042019024491" lon="-7.211263021454215">
        <ele>244.78999999999999</ele>
        <time>2025-05-02T13:16:31Z</time>
      </trkpt>
      <trkpt lat="41.50893397629261" lon="-7.211203007027507">
        <ele>243.83000000000001</ele>
        <time>2025-05-02T13:16:32Z</time>
      </trkpt>
      <trkpt lat="41.508812019601464" lon="-7.211136035621166">
        <ele>242.87</ele>
        <time>2025-05-02T13:16:33Z</time>
      </trkpt>
      <trkpt lat="41.508677992969751" lon="-7.211063029244542">
        <ele>242.38999999999999</ele>
        <time>2025-05-02T13:16:34Z</time>
      </trkpt>
      <trkpt lat="41.508532986044884" lon="-7.211008965969086">
        <ele>241.43000000000001</ele>
        <time>2025-05-02T13:16:35Z</time>
      </trkpt>
      <trkpt lat="41.5083940140903" lon="-7.210965966805816">
        <ele>240.47</ele>
        <time>2025-05-02T13:16:36Z</time>
      </trkpt>
      <trkpt lat="41.508300974965096" lon="-7.210936965420842">
        <ele>239.99000000000001</ele>
        <time>2025-05-02T13:16:37Z</time>
      </trkpt>
      <trkpt lat="41.508208019658923" lon="-7.210808973759413">
        <ele>239.02000000000001</ele>
        <time>2025-05-02T13:16:38Z</time>
      </trkpt>
      <trkpt lat="41.508128978312016" lon="-7.210701014846563">
        <ele>239.02000000000001</ele>
        <time>2025-05-02T13:16:39Z</time>
      </trkpt>
      <trkpt lat="41.508088996633887" lon="-7.210553996264935">
        <ele>239.02000000000001</ele>
        <time>2025-05-02T13:16:40Z</time>
      </trkpt>
      <trkpt lat="41.508041974157095" lon="-7.210380993783474">
        <ele>239.02000000000001</ele>
        <time>2025-05-02T13:16:41Z</time>
      </trkpt>
      <trkpt lat="41.507985983043909" lon="-7.210205979645252">
        <ele>239.50999999999999</ele>
        <time>2025-05-02T13:16:42Z</time>
      </trkpt>
      <trkpt lat="41.507898978888988" lon="-7.21007002517581">
        <ele>239.50999999999999</ele>
        <time>2025-05-02T13:16:43Z</time>
      </trkpt>
      <trkpt lat="41.507799988612533" lon="-7.209961982443929">
        <ele>239.99000000000001</ele>
        <time>2025-05-02T13:16:44Z</time>
      </trkpt>
      <trkpt lat="41.507677026093006" lon="-7.209887970238924">
        <ele>240.47</ele>
        <time>2025-05-02T13:16:45Z</time>
      </trkpt>
      <trkpt lat="41.507545011118054" lon="-7.209808006882668">
        <ele>240.47</ele>
        <time>2025-05-02T13:16:46Z</time>
      </trkpt>
      <trkpt lat="41.50740503333509" lon="-7.209723014384508">
        <ele>240.94999999999999</ele>
        <time>2025-05-02T13:16:47Z</time>
      </trkpt>
      <trkpt lat="41.506886025890708" lon="-7.209385978057981">
        <ele>243.83000000000001</ele>
        <time>2025-05-02T13:16:51Z</time>
      </trkpt>
      <trkpt lat="41.506799021735787" lon="-7.209283970296383">
        <ele>244.31</ele>
        <time>2025-05-02T13:16:52Z</time>
      </trkpt>
      <trkpt lat="41.50676398538053" lon="-7.209124965593219">
        <ele>245.27000000000001</ele>
        <time>2025-05-02T13:16:53Z</time>
      </trkpt>
      <trkpt lat="41.506728027015924" lon="-7.208962021395564">
        <ele>246.22999999999999</ele>
        <time>2025-05-02T13:16:54Z</time>
      </trkpt>
      <trkpt lat="41.506689973175526" lon="-7.208788013085723">
        <ele>246.72</ele>
        <time>2025-05-02T13:16:55Z</time>
      </trkpt>
      <trkpt lat="41.506584025919437" lon="-7.208404038101435">
        <ele>248.63999999999999</ele>
        <time>2025-05-02T13:16:57Z</time>
      </trkpt>
      <trkpt lat="41.505954964086413" lon="-7.207150021567941">
        <ele>254.41</ele>
        <time>2025-05-02T13:17:04Z</time>
      </trkpt>
      <trkpt lat="41.505092969164252" lon="-7.205959036946297">
        <ele>261.62</ele>
        <time>2025-05-02T13:17:12Z</time>
      </trkpt>
      <trkpt lat="41.504999008029699" lon="-7.205896005034447">
        <ele>262.57999999999998</ele>
        <time>2025-05-02T13:17:13Z</time>
      </trkpt>
      <trkpt lat="41.504905968904495" lon="-7.205902962014079">
        <ele>263.54000000000002</ele>
        <time>2025-05-02T13:17:14Z</time>
      </trkpt>
      <trkpt lat="41.504820976406336" lon="-7.205912014469504">
        <ele>264.01999999999998</ele>
        <time>2025-05-02T13:17:15Z</time>
      </trkpt>
      <trkpt lat="41.504741013050079" lon="-7.205960964784026">
        <ele>264.98000000000002</ele>
        <time>2025-05-02T13:17:16Z</time>
      </trkpt>
      <trkpt lat="41.504665995016694" lon="-7.206046041101217">
        <ele>265.45999999999998</ele>
        <time>2025-05-02T13:17:17Z</time>
      </trkpt>
      <trkpt lat="41.504581002518535" lon="-7.206143019720912">
        <ele>265.94</ele>
        <time>2025-05-02T13:17:18Z</time>
      </trkpt>
      <trkpt lat="41.504203984513879" lon="-7.206516014412046">
        <ele>264.5</ele>
        <time>2025-05-02T13:17:22Z</time>
      </trkpt>
      <trkpt lat="41.504116980358958" lon="-7.206559013575316">
        <ele>264.01999999999998</ele>
        <time>2025-05-02T13:17:23Z</time>
      </trkpt>
      <trkpt lat="41.504029976204038" lon="-7.206531018018723">
        <ele>263.06</ele>
        <time>2025-05-02T13:17:24Z</time>
      </trkpt>
      <trkpt lat="41.503923023119569" lon="-7.206494975835085">
        <ele>262.57999999999998</ele>
        <time>2025-05-02T13:17:25Z</time>
      </trkpt>
      <trkpt lat="41.503851022571325" lon="-7.206432027742267">
        <ele>262.57999999999998</ele>
        <time>2025-05-02T13:17:26Z</time>
      </trkpt>
      <trkpt lat="41.50375597178936" lon="-7.206350974738598">
        <ele>262.10000000000002</ele>
        <time>2025-05-02T13:17:27Z</time>
      </trkpt>
      <trkpt lat="41.503451038151979" lon="-7.206087028607726">
        <ele>260.17000000000002</ele>
        <time>2025-05-02T13:17:30Z</time>
      </trkpt>
      <trkpt lat="41.503337966278195" lon="-7.206039000302553">
        <ele>259.69</ele>
        <time>2025-05-02T13:17:31Z</time>
      </trkpt>
      <trkpt lat="41.503211986273527" lon="-7.206047968938947">
        <ele>259.20999999999998</ele>
        <time>2025-05-02T13:17:32Z</time>
      </trkpt>
      <trkpt lat="41.503092041239142" lon="-7.206083005294204">
        <ele>258.73000000000002</ele>
        <time>2025-05-02T13:17:33Z</time>
      </trkpt>
      <trkpt lat="41.502966983243823" lon="-7.206118041649461">
        <ele>258.25</ele>
        <time>2025-05-02T13:17:34Z</time>
      </trkpt>
      <trkpt lat="41.502838991582394" lon="-7.206163974478841">
        <ele>257.76999999999998</ele>
        <time>2025-05-02T13:17:35Z</time>
      </trkpt>
      <trkpt lat="41.502745030447841" lon="-7.206261958926916">
        <ele>257.29000000000002</ele>
        <time>2025-05-02T13:17:36Z</time>
      </trkpt>
      <trkpt lat="41.502654002979398" lon="-7.206358015537262">
        <ele>256.81</ele>
        <time>2025-05-02T13:17:37Z</time>
      </trkpt>
      <trkpt lat="41.502565992996097" lon="-7.206449965015054">
        <ele>255.84999999999999</ele>
        <time>2025-05-02T13:17:38Z</time>
      </trkpt>
      <trkpt lat="41.502483012154698" lon="-7.206536969169974">
        <ele>255.37</ele>
        <time>2025-05-02T13:17:39Z</time>
      </trkpt>
      <trkpt lat="41.502420986071229" lon="-7.206602012738586">
        <ele>253.93000000000001</ele>
        <time>2025-05-02T13:17:40Z</time>
      </trkpt>
      <trkpt lat="41.50233599357307" lon="-7.206582985818386">
        <ele>252.96000000000001</ele>
        <time>2025-05-02T13:17:41Z</time>
      </trkpt>
      <trkpt lat="41.502241026610136" lon="-7.206562031060457">
        <ele>252.96000000000001</ele>
        <time>2025-05-02T13:17:42Z</time>
      </trkpt>
      <trkpt lat="41.502161985263228" lon="-7.20650402829051">
        <ele>252.96000000000001</ele>
        <time>2025-05-02T13:17:43Z</time>
      </trkpt>
      <trkpt lat="41.502074981108308" lon="-7.206432027742267">
        <ele>252.96000000000001</ele>
        <time>2025-05-02T13:17:44Z</time>
      </trkpt>
      <trkpt lat="41.501995017752051" lon="-7.206364972516894">
        <ele>252.96000000000001</ele>
        <time>2025-05-02T13:17:45Z</time>
      </trkpt>
      <trkpt lat="41.501956041902304" lon="-7.206265982240439">
        <ele>253.44</ele>
        <time>2025-05-02T13:17:46Z</time>
      </trkpt>
      <trkpt lat="41.501930980011821" lon="-7.206136984750629">
        <ele>253.93000000000001</ele>
        <time>2025-05-02T13:17:47Z</time>
      </trkpt>
      <trkpt lat="41.50190700776875" lon="-7.206008993089199">
        <ele>254.41</ele>
        <time>2025-05-02T13:17:48Z</time>
      </trkpt>
      <trkpt lat="41.501882029697299" lon="-7.205875972285867">
        <ele>254.88999999999999</ele>
        <time>2025-05-02T13:17:49Z</time>
      </trkpt>
      <trkpt lat="41.501826960593462" lon="-7.205589981749654">
        <ele>255.84999999999999</ele>
        <time>2025-05-02T13:17:51Z</time>
      </trkpt>
      <trkpt lat="41.501798965036869" lon="-7.205442963168025">
        <ele>256.32999999999998</ele>
        <time>2025-05-02T13:17:52Z</time>
      </trkpt>
      <trkpt lat="41.501721013337374" lon="-7.205308014526963">
        <ele>256.81</ele>
        <time>2025-05-02T13:17:53Z</time>
      </trkpt>
      <trkpt lat="41.501639960333705" lon="-7.205168036743999">
        <ele>257.29000000000002</ele>
        <time>2025-05-02T13:17:54Z</time>
      </trkpt>
      <trkpt lat="41.501553039997816" lon="-7.205018000677228">
        <ele>257.76999999999998</ele>
        <time>2025-05-02T13:17:55Z</time>
      </trkpt>
      <trkpt lat="41.501102009788156" lon="-7.204167991876602">
        <ele>260.64999999999998</ele>
        <time>2025-05-02T13:18:00Z</time>
      </trkpt>
      <trkpt lat="41.501040989533067" lon="-7.203986020758748">
        <ele>261.62</ele>
        <time>2025-05-02T13:18:01Z</time>
      </trkpt>
      <trkpt lat="41.50081099011004" lon="-7.203294010832906">
        <ele>263.54000000000002</ele>
        <time>2025-05-02T13:18:05Z</time>
      </trkpt>
      <trkpt lat="41.500747036188841" lon="-7.203156966716051">
        <ele>264.01999999999998</ele>
        <time>2025-05-02T13:18:06Z</time>
      </trkpt>
      <trkpt lat="41.500666989013553" lon="-7.203057976439595">
        <ele>264.01999999999998</ele>
        <time>2025-05-02T13:18:07Z</time>
      </trkpt>
      <trkpt lat="41.500566992908716" lon="-7.202991005033255">
        <ele>264.01999999999998</ele>
        <time>2025-05-02T13:18:08Z</time>
      </trkpt>
      <trkpt lat="41.500462973490357" lon="-7.202947000041604">
        <ele>263.54000000000002</ele>
        <time>2025-05-02T13:18:09Z</time>
      </trkpt>
      <trkpt lat="41.500341016799212" lon="-7.202928978949785">
        <ele>263.54000000000002</ele>
        <time>2025-05-02T13:18:10Z</time>
      </trkpt>
      <trkpt lat="41.500213025137782" lon="-7.202910035848618">
        <ele>263.06</ele>
        <time>2025-05-02T13:18:11Z</time>
      </trkpt>
      <trkpt lat="41.500084027647972" lon="-7.202891008928418">
        <ele>262.10000000000002</ele>
        <time>2025-05-02T13:18:12Z</time>
      </trkpt>
      <trkpt lat="41.499958969652653" lon="-7.202872987836599">
        <ele>261.62</ele>
        <time>2025-05-02T13:18:13Z</time>
      </trkpt>
      <trkpt lat="41.499860985204577" lon="-7.202777015045285">
        <ele>261.13999999999999</ele>
        <time>2025-05-02T13:18:14Z</time>
      </trkpt>
      <trkpt lat="41.499757971614599" lon="-7.202646005898714">
        <ele>260.64999999999998</ele>
        <time>2025-05-02T13:18:15Z</time>
      </trkpt>
      <trkpt lat="41.499652024358511" lon="-7.202510973438621">
        <ele>260.17000000000002</ele>
        <time>2025-05-02T13:18:16Z</time>
      </trkpt>
      <trkpt lat="41.499549010768533" lon="-7.20237803645432">
        <ele>259.69</ele>
        <time>2025-05-02T13:18:17Z</time>
      </trkpt>
      <trkpt lat="41.499511040747166" lon="-7.202218025922775">
        <ele>259.20999999999998</ele>
        <time>2025-05-02T13:18:18Z</time>
      </trkpt>
      <trkpt lat="41.49947801604867" lon="-7.202071007341147">
        <ele>258.73000000000002</ele>
        <time>2025-05-02T13:18:19Z</time>
      </trkpt>
      <trkpt lat="41.499471981078386" lon="-7.201943015679717">
        <ele>258.25</ele>
        <time>2025-05-02T13:18:20Z</time>
      </trkpt>
      <trkpt lat="41.499510034918785" lon="-7.201797002926469">
        <ele>258.25</ele>
        <time>2025-05-02T13:18:21Z</time>
      </trkpt>
      <trkpt lat="41.499551022425294" lon="-7.201640009880066">
        <ele>258.25</ele>
        <time>2025-05-02T13:18:22Z</time>
      </trkpt>
      <trkpt lat="41.499610031023622" lon="-7.201324012130499">
        <ele>258.25</ele>
        <time>2025-05-02T13:18:24Z</time>
      </trkpt>
      <trkpt lat="41.499610031023622" lon="-7.201147992163897">
        <ele>258.73000000000002</ele>
        <time>2025-05-02T13:18:25Z</time>
      </trkpt>
      <trkpt lat="41.499573988839984" lon="-7.200988987460733">
        <ele>258.73000000000002</ele>
        <time>2025-05-02T13:18:26Z</time>
      </trkpt>
      <trkpt lat="41.499513974413276" lon="-7.200829982757568">
        <ele>258.73000000000002</ele>
        <time>2025-05-02T13:18:27Z</time>
      </trkpt>
      <trkpt lat="41.499438034370542" lon="-7.200700985267758">
        <ele>258.73000000000002</ele>
        <time>2025-05-02T13:18:28Z</time>
      </trkpt>
      <trkpt lat="41.499334014952183" lon="-7.200595960021019">
        <ele>258.73000000000002</ele>
        <time>2025-05-02T13:18:29Z</time>
      </trkpt>
      <trkpt lat="41.499219015240669" lon="-7.20050803385675">
        <ele>258.73000000000002</ele>
        <time>2025-05-02T13:18:30Z</time>
      </trkpt>
      <trkpt lat="41.499082976952195" lon="-7.200447013601661">
        <ele>258.73000000000002</ele>
        <time>2025-05-02T13:18:31Z</time>
      </trkpt>
      <trkpt lat="41.498939981684089" lon="-7.20038297586143">
        <ele>258.25</ele>
        <time>2025-05-02T13:18:32Z</time>
      </trkpt>
      <trkpt lat="41.498514013364911" lon="-7.20023101195693">
        <ele>256.81</ele>
        <time>2025-05-02T13:18:35Z</time>
      </trkpt>
      <trkpt lat="41.498406976461411" lon="-7.200213996693492">
        <ele>256.32999999999998</ele>
        <time>2025-05-02T13:18:36Z</time>
      </trkpt>
      <trkpt lat="41.498317960649729" lon="-7.200236963108182">
        <ele>255.84999999999999</ele>
        <time>2025-05-02T13:18:37Z</time>
      </trkpt>
      <trkpt lat="41.498239003121853" lon="-7.200287003070116">
        <ele>254.88999999999999</ele>
        <time>2025-05-02T13:18:38Z</time>
      </trkpt>
      <trkpt lat="41.498171025887132" lon="-7.200377024710178">
        <ele>254.41</ele>
        <time>2025-05-02T13:18:39Z</time>
      </trkpt>
      <trkpt lat="41.498124003410339" lon="-7.200503004714847">
        <ele>253.93000000000001</ele>
        <time>2025-05-02T13:18:40Z</time>
      </trkpt>
      <trkpt lat="41.498071029782295" lon="-7.200642982497811">
        <ele>252.96000000000001</ele>
        <time>2025-05-02T13:18:41Z</time>
      </trkpt>
      <trkpt lat="41.498014032840729" lon="-7.200797041878104">
        <ele>251.52000000000001</ele>
        <time>2025-05-02T13:18:42Z</time>
      </trkpt>
      <trkpt lat="41.497929040342569" lon="-7.200916986912489">
        <ele>250.56</ele>
        <time>2025-05-02T13:18:43Z</time>
      </trkpt>
      <trkpt lat="41.497828038409352" lon="-7.200974989682436">
        <ele>249.59999999999999</ele>
        <time>2025-05-02T13:18:44Z</time>
      </trkpt>
      <trkpt lat="41.497702980414033" lon="-7.201006002724171">
        <ele>249.12</ele>
        <time>2025-05-02T13:18:45Z</time>
      </trkpt>
      <trkpt lat="41.497569037601352" lon="-7.201040033251047">
        <ele>248.63999999999999</ele>
        <time>2025-05-02T13:18:46Z</time>
      </trkpt>
      <trkpt lat="41.49696403183043" lon="-7.201128965243697">
        <ele>245.27000000000001</ele>
        <time>2025-05-02T13:18:50Z</time>
      </trkpt>
      <trkpt lat="41.496819024905562" lon="-7.201109016314149">
        <ele>244.78999999999999</ele>
        <time>2025-05-02T13:18:51Z</time>
      </trkpt>
      <trkpt lat="41.496576033532619" lon="-7.201073979958892">
        <ele>243.34999999999999</ele>
        <time>2025-05-02T13:18:53Z</time>
      </trkpt>
      <trkpt lat="41.496482994407415" lon="-7.201109016314149">
        <ele>242.38999999999999</ele>
        <time>2025-05-02T13:18:54Z</time>
      </trkpt>
      <trkpt lat="41.496415017172694" lon="-7.201185962185264">
        <ele>241.91</ele>
        <time>2025-05-02T13:18:55Z</time>
      </trkpt>
      <trkpt lat="41.496361037716269" lon="-7.201275983825326">
        <ele>240.94999999999999</ele>
        <time>2025-05-02T13:18:56Z</time>
      </trkpt>
      <trkpt lat="41.496326001361012" lon="-7.201409004628658">
        <ele>240.47</ele>
        <time>2025-05-02T13:18:57Z</time>
      </trkpt>
      <trkpt lat="41.496287025511265" lon="-7.20156298018992">
        <ele>239.99000000000001</ele>
        <time>2025-05-02T13:18:58Z</time>
      </trkpt>
      <trkpt lat="41.496158028021455" lon="-7.202041000127792">
        <ele>238.53999999999999</ele>
        <time>2025-05-02T13:19:01Z</time>
      </trkpt>
      <trkpt lat="41.496109999716282" lon="-7.202174020931125">
        <ele>238.06</ele>
        <time>2025-05-02T13:19:02Z</time>
      </trkpt>
      <trkpt lat="41.496046967804432" lon="-7.202245015650988">
        <ele>237.09999999999999</ele>
        <time>2025-05-02T13:19:03Z</time>
      </trkpt>
      <trkpt lat="41.495944038033485" lon="-7.202290026471019">
        <ele>237.09999999999999</ele>
        <time>2025-05-02T13:19:04Z</time>
      </trkpt>
      <trkpt lat="41.495837001129985" lon="-7.202302012592554">
        <ele>236.62</ele>
        <time>2025-05-02T13:19:05Z</time>
      </trkpt>
      <trkpt lat="41.495714038610458" lon="-7.202283991500735">
        <ele>237.09999999999999</ele>
        <time>2025-05-02T13:19:06Z</time>
      </trkpt>
      <trkpt lat="41.495585041120648" lon="-7.202262030914426">
        <ele>237.09999999999999</ele>
        <time>2025-05-02T13:19:07Z</time>
      </trkpt>
      <trkpt lat="41.495471969246864" lon="-7.202205033972859">
        <ele>237.58000000000001</ele>
        <time>2025-05-02T13:19:08Z</time>
      </trkpt>
      <trkpt lat="41.495380019769073" lon="-7.202124986797571">
        <ele>238.06</ele>
        <time>2025-05-02T13:19:09Z</time>
      </trkpt>
      <trkpt lat="41.495301984250546" lon="-7.202027002349496">
        <ele>238.53999999999999</ele>
        <time>2025-05-02T13:19:10Z</time>
      </trkpt>
      <trkpt lat="41.495257979258895" lon="-7.201910996809602">
        <ele>239.02000000000001</ele>
        <time>2025-05-02T13:19:11Z</time>
      </trkpt>
      <trkpt lat="41.49526602588594" lon="-7.201774036511779">
        <ele>239.99000000000001</ele>
        <time>2025-05-02T13:19:12Z</time>
      </trkpt>
      <trkpt lat="41.495272982865572" lon="-7.201635986566544">
        <ele>240.47</ele>
        <time>2025-05-02T13:19:13Z</time>
      </trkpt>
      <trkpt lat="41.495281029492617" lon="-7.201502965763211">
        <ele>240.94999999999999</ele>
        <time>2025-05-02T13:19:14Z</time>
      </trkpt>
      <trkpt lat="41.495287986472249" lon="-7.201372962445021">
        <ele>241.91</ele>
        <time>2025-05-02T13:19:15Z</time>
      </trkpt>
      <trkpt lat="41.495295027270913" lon="-7.201252011582255">
        <ele>242.38999999999999</ele>
        <time>2025-05-02T13:19:16Z</time>
      </trkpt>
      <trkpt lat="41.495237024500966" lon="-7.201136006042361">
        <ele>243.34999999999999</ele>
        <time>2025-05-02T13:19:17Z</time>
      </trkpt>
      <trkpt lat="41.495178015902638" lon="-7.201056964695454">
        <ele>243.83000000000001</ele>
        <time>2025-05-02T13:19:18Z</time>
      </trkpt>
      <trkpt lat="41.49509503506124" lon="-7.201012037694454">
        <ele>244.31</ele>
        <time>2025-05-02T13:19:19Z</time>
      </trkpt>
      <trkpt lat="41.494990009814501" lon="-7.200965015217662">
        <ele>244.31</ele>
        <time>2025-05-02T13:19:20Z</time>
      </trkpt>
      <trkpt lat="41.494861012324691" lon="-7.200969960540533">
        <ele>244.78999999999999</ele>
        <time>2025-05-02T13:19:21Z</time>
      </trkpt>
      <trkpt lat="41.494718017056584" lon="-7.200983036309481">
        <ele>245.75</ele>
        <time>2025-05-02T13:19:22Z</time>
      </trkpt>
      <trkpt lat="41.49455901235342" lon="-7.200998039916158">
        <ele>246.22999999999999</ele>
        <time>2025-05-02T13:19:23Z</time>
      </trkpt>
      <trkpt lat="41.493200976401567" lon="-7.201112033799291">
        <ele>252.96000000000001</ele>
        <time>2025-05-02T13:19:31Z</time>
      </trkpt>
      <trkpt lat="41.493069967254996" lon="-7.201076997444034">
        <ele>253.93000000000001</ele>
        <time>2025-05-02T13:19:32Z</time>
      </trkpt>
      <trkpt lat="41.492945998907089" lon="-7.201028969138861">
        <ele>254.41</ele>
        <time>2025-05-02T13:19:33Z</time>
      </trkpt>
      <trkpt lat="41.492728991433978" lon="-7.200965015217662">
        <ele>255.84999999999999</ele>
        <time>2025-05-02T13:19:35Z</time>
      </trkpt>
      <trkpt lat="41.492641987279058" lon="-7.200979012995958">
        <ele>256.32999999999998</ele>
        <time>2025-05-02T13:19:36Z</time>
      </trkpt>
      <trkpt lat="41.492573004215956" lon="-7.201036009937525">
        <ele>256.81</ele>
        <time>2025-05-02T13:19:37Z</time>
      </trkpt>
      <trkpt lat="41.492464961484075" lon="-7.201129971072078">
        <ele>257.29000000000002</ele>
        <time>2025-05-02T13:19:38Z</time>
      </trkpt>
      <trkpt lat="41.492439983412623" lon="-7.20119995996356">
        <ele>257.29000000000002</ele>
        <time>2025-05-02T13:19:39Z</time>
      </trkpt>
      <trkpt lat="41.492400001734495" lon="-7.201312026008964">
        <ele>257.29000000000002</ele>
        <time>2025-05-02T13:19:40Z</time>
      </trkpt>
      <trkpt lat="41.492362031713128" lon="-7.201418979093432">
        <ele>257.29000000000002</ele>
        <time>2025-05-02T13:19:41Z</time>
      </trkpt>
      <trkpt lat="41.492311991751194" lon="-7.20149701461196">
        <ele>256.81</ele>
        <time>2025-05-02T13:19:42Z</time>
      </trkpt>
      <trkpt lat="41.492249965667725" lon="-7.201587036252022">
        <ele>256.32999999999998</ele>
        <time>2025-05-02T13:19:43Z</time>
      </trkpt>
      <trkpt lat="41.492189029231668" lon="-7.201674040406942">
        <ele>256.32999999999998</ele>
        <time>2025-05-02T13:19:44Z</time>
      </trkpt>
      <trkpt lat="41.492132032290101" lon="-7.20171301625669">
        <ele>255.84999999999999</ele>
        <time>2025-05-02T13:19:45Z</time>
      </trkpt>
      <trkpt lat="41.4920440223068" lon="-7.201722990721464">
        <ele>255.84999999999999</ele>
        <time>2025-05-02T13:19:46Z</time>
      </trkpt>
      <trkpt lat="41.491961041465402" lon="-7.201726008206606">
        <ele>255.84999999999999</ele>
        <time>2025-05-02T13:19:47Z</time>
      </trkpt>
      <trkpt lat="41.491865990683436" lon="-7.201677979901433">
        <ele>255.84999999999999</ele>
        <time>2025-05-02T13:19:48Z</time>
      </trkpt>
      <trkpt lat="41.491761971265078" lon="-7.20162701793015">
        <ele>255.84999999999999</ele>
        <time>2025-05-02T13:19:49Z</time>
      </trkpt>
      <trkpt lat="41.491655018180609" lon="-7.201550994068384">
        <ele>255.37</ele>
        <time>2025-05-02T13:19:50Z</time>
      </trkpt>
      <trkpt lat="41.490955967456102" lon="-7.200883040204644">
        <ele>251.03999999999999</ele>
        <time>2025-05-02T13:19:56Z</time>
      </trkpt>
      <trkpt lat="41.490861000493169" lon="-7.200731998309493">
        <ele>249.59999999999999</ele>
        <time>2025-05-02T13:19:57Z</time>
      </trkpt>
      <trkpt lat="41.490491023287177" lon="-7.200164962559938">
        <ele>245.75</ele>
        <time>2025-05-02T13:20:01Z</time>
      </trkpt>
      <trkpt lat="41.490407958626747" lon="-7.200117018073797">
        <ele>244.78999999999999</ele>
        <time>2025-05-02T13:20:02Z</time>
      </trkpt>
      <trkpt lat="41.490291031077504" lon="-7.200082987546921">
        <ele>243.83000000000001</ele>
        <time>2025-05-02T13:20:03Z</time>
      </trkpt>
      <trkpt lat="41.490174019709229" lon="-7.200092962011695">
        <ele>243.34999999999999</ele>
        <time>2025-05-02T13:20:04Z</time>
      </trkpt>
      <trkpt lat="41.490054996684194" lon="-7.200112994760275">
        <ele>242.87</ele>
        <time>2025-05-02T13:20:05Z</time>
      </trkpt>
      <trkpt lat="41.48993999697268" lon="-7.200164962559938">
        <ele>242.87</ele>
        <time>2025-05-02T13:20:06Z</time>
      </trkpt>
      <trkpt lat="41.489821979776025" lon="-7.200218020007014">
        <ele>242.87</ele>
        <time>2025-05-02T13:20:07Z</time>
      </trkpt>
      <trkpt lat="41.489439010620117" lon="-7.20037903636694">
        <ele>243.34999999999999</ele>
        <time>2025-05-02T13:20:10Z</time>
      </trkpt>
      <trkpt lat="41.48931797593832" lon="-7.200365960597992">
        <ele>243.34999999999999</ele>
        <time>2025-05-02T13:20:11Z</time>
      </trkpt>
      <trkpt lat="41.489198030903935" lon="-7.200352968648076">
        <ele>243.34999999999999</ele>
        <time>2025-05-02T13:20:12Z</time>
      </trkpt>
      <trkpt lat="41.489053023979068" lon="-7.200336959213018">
        <ele>243.34999999999999</ele>
        <time>2025-05-02T13:20:13Z</time>
      </trkpt>
      <trkpt lat="41.488959984853864" lon="-7.200305024161935">
        <ele>243.34999999999999</ele>
        <time>2025-05-02T13:20:14Z</time>
      </trkpt>
      <trkpt lat="41.488840039819479" lon="-7.200264036655426">
        <ele>243.34999999999999</ele>
        <time>2025-05-02T13:20:15Z</time>
      </trkpt>
      <trkpt lat="41.488717999309301" lon="-7.200221959501505">
        <ele>242.87</ele>
        <time>2025-05-02T13:20:16Z</time>
      </trkpt>
      <trkpt lat="41.487987013533711" lon="-7.199942003935576">
        <ele>240.47</ele>
        <time>2025-05-02T13:20:22Z</time>
      </trkpt>
      <trkpt lat="41.487889029085636" lon="-7.199878972023726">
        <ele>239.99000000000001</ele>
        <time>2025-05-02T13:20:23Z</time>
      </trkpt>
      <trkpt lat="41.487820968031883" lon="-7.199793979525566">
        <ele>239.99000000000001</ele>
        <time>2025-05-02T13:20:24Z</time>
      </trkpt>
      <trkpt lat="41.487800013273954" lon="-7.199666993692517">
        <ele>239.50999999999999</ele>
        <time>2025-05-02T13:20:25Z</time>
      </trkpt>
      <trkpt lat="41.487790960818529" lon="-7.19954595901072">
        <ele>239.02000000000001</ele>
        <time>2025-05-02T13:20:26Z</time>
      </trkpt>
      <trkpt lat="41.48781300522387" lon="-7.199448980391026">
        <ele>238.06</ele>
        <time>2025-05-02T13:20:27Z</time>
      </trkpt>
      <trkpt lat="41.487851981073618" lon="-7.19937102869153">
        <ele>237.58000000000001</ele>
        <time>2025-05-02T13:20:28Z</time>
      </trkpt>
      <trkpt lat="41.487924987450242" lon="-7.199297016486526">
        <ele>237.09999999999999</ele>
        <time>2025-05-02T13:20:29Z</time>
      </trkpt>
      <trkpt lat="41.488009979948401" lon="-7.199267009273171">
        <ele>236.62</ele>
        <time>2025-05-02T13:20:30Z</time>
      </trkpt>
      <trkpt lat="41.488108970224857" lon="-7.19924203120172">
        <ele>236.62</ele>
        <time>2025-05-02T13:20:31Z</time>
      </trkpt>
      <trkpt lat="41.48822195827961" lon="-7.199262985959649">
        <ele>236.62</ele>
        <time>2025-05-02T13:20:32Z</time>
      </trkpt>
      <trkpt lat="41.488350033760071" lon="-7.19928695820272">
        <ele>236.13999999999999</ele>
        <time>2025-05-02T13:20:33Z</time>
      </trkpt>
      <trkpt lat="41.489229965955019" lon="-7.199361976236105">
        <ele>235.18000000000001</ele>
        <time>2025-05-02T13:20:40Z</time>
      </trkpt>
      <trkpt lat="41.489312024787068" lon="-7.199311014264822">
        <ele>234.69999999999999</ele>
        <time>2025-05-02T13:20:41Z</time>
      </trkpt>
      <trkpt lat="41.489369021728635" lon="-7.19924496486783">
        <ele>234.22</ele>
        <time>2025-05-02T13:20:42Z</time>
      </trkpt>
      <trkpt lat="41.48940397426486" lon="-7.199152009561658">
        <ele>233.74000000000001</ele>
        <time>2025-05-02T13:20:43Z</time>
      </trkpt>
      <trkpt lat="41.489406991750002" lon="-7.199052013456821">
        <ele>233.74000000000001</ele>
        <time>2025-05-02T13:20:44Z</time>
      </trkpt>
      <trkpt lat="41.489384025335312" lon="-7.198927961289883">
        <ele>233.74000000000001</ele>
        <time>2025-05-02T13:20:45Z</time>
      </trkpt>
      <trkpt lat="41.489345971494913" lon="-7.198804998770356">
        <ele>233.25999999999999</ele>
        <time>2025-05-02T13:20:46Z</time>
      </trkpt>
      <trkpt lat="41.48929400369525" lon="-7.198671977967024">
        <ele>233.74000000000001</ele>
        <time>2025-05-02T13:20:47Z</time>
      </trkpt>
      <trkpt lat="41.489007007330656" lon="-7.197928000241518">
        <ele>235.18000000000001</ele>
        <time>2025-05-02T13:20:52Z</time>
      </trkpt>
      <trkpt lat="41.488983035087585" lon="-7.197756003588438">
        <ele>236.13999999999999</ele>
        <time>2025-05-02T13:20:53Z</time>
      </trkpt>
      <trkpt lat="41.488958979025483" lon="-7.197581995278597">
        <ele>236.62</ele>
        <time>2025-05-02T13:20:54Z</time>
      </trkpt>
      <trkpt lat="41.488936012610793" lon="-7.197414021939039">
        <ele>237.09999999999999</ele>
        <time>2025-05-02T13:20:55Z</time>
      </trkpt>
      <trkpt lat="41.488936012610793" lon="-7.197259040549398">
        <ele>238.06</ele>
        <time>2025-05-02T13:20:56Z</time>
      </trkpt>
      <trkpt lat="41.488956967368722" lon="-7.197118978947401">
        <ele>239.02000000000001</ele>
        <time>2025-05-02T13:20:57Z</time>
      </trkpt>
      <trkpt lat="41.48899300955236" lon="-7.196996016427875">
        <ele>239.99000000000001</ele>
        <time>2025-05-02T13:20:58Z</time>
      </trkpt>
      <trkpt lat="41.489046989008784" lon="-7.196871964260936">
        <ele>240.94999999999999</ele>
        <time>2025-05-02T13:20:59Z</time>
      </trkpt>
      <trkpt lat="41.48910298012197" lon="-7.196743972599506">
        <ele>241.43000000000001</ele>
        <time>2025-05-02T13:21:00Z</time>
      </trkpt>
      <trkpt lat="41.489161988720298" lon="-7.196612041443586">
        <ele>242.38999999999999</ele>
        <time>2025-05-02T13:21:01Z</time>
      </trkpt>
      <trkpt lat="41.489212028682232" lon="-7.196470974013209">
        <ele>243.34999999999999</ele>
        <time>2025-05-02T13:21:02Z</time>
      </trkpt>
      <trkpt lat="41.489241030067205" lon="-7.196318004280329">
        <ele>243.83000000000001</ele>
        <time>2025-05-02T13:21:03Z</time>
      </trkpt>
      <trkpt lat="41.489271959289908" lon="-7.196157993748784">
        <ele>244.31</ele>
        <time>2025-05-02T13:21:04Z</time>
      </trkpt>
      <trkpt lat="41.489277994260192" lon="-7.195993959903717">
        <ele>244.78999999999999</ele>
        <time>2025-05-02T13:21:05Z</time>
      </trkpt>
      <trkpt lat="41.489254022017121" lon="-7.195832021534443">
        <ele>245.75</ele>
        <time>2025-05-02T13:21:06Z</time>
      </trkpt>
      <trkpt lat="41.4892309717834" lon="-7.195676034316421">
        <ele>246.72</ele>
        <time>2025-05-02T13:21:07Z</time>
      </trkpt>
      <trkpt lat="41.489167017862201" lon="-7.195538990199566">
        <ele>247.68000000000001</ele>
        <time>2025-05-02T13:21:08Z</time>
      </trkpt>
      <trkpt lat="41.489095017313957" lon="-7.19541703350842">
        <ele>248.63999999999999</ele>
        <time>2025-05-02T13:21:09Z</time>
      </trkpt>
      <trkpt lat="41.489029973745346" lon="-7.195305973291397">
        <ele>249.59999999999999</ele>
        <time>2025-05-02T13:21:10Z</time>
      </trkpt>
      <trkpt lat="41.48892997764051" lon="-7.195244031026959">
        <ele>250.56</ele>
        <time>2025-05-02T13:21:11Z</time>
      </trkpt>
      <trkpt lat="41.488835010677576" lon="-7.195211006328464">
        <ele>251.52000000000001</ele>
        <time>2025-05-02T13:21:12Z</time>
      </trkpt>
      <trkpt lat="41.488737026229501" lon="-7.195176975801587">
        <ele>252</ele>
        <time>2025-05-02T13:21:13Z</time>
      </trkpt>
      <trkpt lat="41.488633006811142" lon="-7.195141017436981">
        <ele>252.96000000000001</ele>
        <time>2025-05-02T13:21:14Z</time>
      </trkpt>
      <trkpt lat="41.488548014312983" lon="-7.195086032152176">
        <ele>253.44</ele>
        <time>2025-05-02T13:21:15Z</time>
      </trkpt>
      <trkpt lat="41.488463021814823" lon="-7.194995004683733">
        <ele>253.93000000000001</ele>
        <time>2025-05-02T13:21:16Z</time>
      </trkpt>
      <trkpt lat="41.488384986296296" lon="-7.194910012185574">
        <ele>254.41</ele>
        <time>2025-05-02T13:21:17Z</time>
      </trkpt>
      <trkpt lat="41.488317009061575" lon="-7.194835999980569">
        <ele>254.88999999999999</ele>
        <time>2025-05-02T13:21:18Z</time>
      </trkpt>
      <trkpt lat="41.488253977149725" lon="-7.194766011089087">
        <ele>255.84999999999999</ele>
        <time>2025-05-02T13:21:19Z</time>
      </trkpt>
      <trkpt lat="41.488189017400146" lon="-7.194694010540843">
        <ele>255.84999999999999</ele>
        <time>2025-05-02T13:21:20Z</time>
      </trkpt>
      <trkpt lat="41.488115005195141" lon="-7.1946220099926">
        <ele>256.32999999999998</ele>
        <time>2025-05-02T13:21:21Z</time>
      </trkpt>
      <trkpt lat="41.488031018525362" lon="-7.194585967808962">
        <ele>256.32999999999998</ele>
        <time>2025-05-02T13:21:22Z</time>
      </trkpt>
      <trkpt lat="41.4879409968853" lon="-7.194573981687427">
        <ele>256.81</ele>
        <time>2025-05-02T13:21:23Z</time>
      </trkpt>
      <trkpt lat="41.487857010215521" lon="-7.194595020264387">
        <ele>256.81</ele>
        <time>2025-05-02T13:21:24Z</time>
      </trkpt>
      <trkpt lat="41.487778974696994" lon="-7.194614969193935">
        <ele>257.29000000000002</ele>
        <time>2025-05-02T13:21:25Z</time>
      </trkpt>
      <trkpt lat="41.487694988027215" lon="-7.19470901414752">
        <ele>257.29000000000002</ele>
        <time>2025-05-02T13:21:26Z</time>
      </trkpt>
      <trkpt lat="41.48766003549099" lon="-7.194812027737498">
        <ele>257.29000000000002</ele>
        <time>2025-05-02T13:21:27Z</time>
      </trkpt>
      <trkpt lat="41.487624999135733" lon="-7.194913029670715">
        <ele>257.76999999999998</ele>
        <time>2025-05-02T13:21:28Z</time>
      </trkpt>
      <trkpt lat="41.487592980265617" lon="-7.19500900246203">
        <ele>257.76999999999998</ele>
        <time>2025-05-02T13:21:29Z</time>
      </trkpt>
      <trkpt lat="41.487530032172799" lon="-7.195191979408264">
        <ele>258.25</ele>
        <time>2025-05-02T13:21:31Z</time>
      </trkpt>
      <trkpt lat="41.487464988604188" lon="-7.195379985496402">
        <ele>257.29000000000002</ele>
        <time>2025-05-02T13:21:33Z</time>
      </trkpt>
      <trkpt lat="41.487411009147763" lon="-7.195453997701407">
        <ele>256.81</ele>
        <time>2025-05-02T13:21:34Z</time>
      </trkpt>
      <trkpt lat="41.487349988892674" lon="-7.195537984371185">
        <ele>256.32999999999998</ele>
        <time>2025-05-02T13:21:35Z</time>
      </trkpt>
      <trkpt lat="41.487293997779489" lon="-7.195616019889712">
        <ele>256.32999999999998</ele>
        <time>2025-05-02T13:21:36Z</time>
      </trkpt>
      <trkpt lat="41.487223003059626" lon="-7.195628006011248">
        <ele>255.84999999999999</ele>
        <time>2025-05-02T13:21:37Z</time>
      </trkpt>
      <trkpt lat="41.487140022218227" lon="-7.195640997961164">
        <ele>255.84999999999999</ele>
        <time>2025-05-02T13:21:38Z</time>
      </trkpt>
      <trkpt lat="41.487057963386178" lon="-7.19565499573946">
        <ele>255.84999999999999</ele>
        <time>2025-05-02T13:21:39Z</time>
      </trkpt>
      <trkpt lat="41.486884038895369" lon="-7.195617025718093">
        <ele>255.84999999999999</ele>
        <time>2025-05-02T13:21:41Z</time>
      </trkpt>
      <trkpt lat="41.486799968406558" lon="-7.195593975484371">
        <ele>256.32999999999998</ele>
        <time>2025-05-02T13:21:42Z</time>
      </trkpt>
      <trkpt lat="41.486735008656979" lon="-7.195495991036296">
        <ele>256.32999999999998</ele>
        <time>2025-05-02T13:21:43Z</time>
      </trkpt>
      <trkpt lat="41.48667499423027" lon="-7.195406975224614">
        <ele>255.84999999999999</ele>
        <time>2025-05-02T13:21:44Z</time>
      </trkpt>
      <trkpt lat="41.486656973138452" lon="-7.195297004655004">
        <ele>255.84999999999999</ele>
        <time>2025-05-02T13:21:45Z</time>
      </trkpt>
      <trkpt lat="41.486640041694045" lon="-7.19518200494349">
        <ele>255.84999999999999</ele>
        <time>2025-05-02T13:21:46Z</time>
      </trkpt>
      <trkpt lat="41.486628977581859" lon="-7.195062981918454">
        <ele>255.84999999999999</ele>
        <time>2025-05-02T13:21:47Z</time>
      </trkpt>
      <trkpt lat="41.486628977581859" lon="-7.19494597055018">
        <ele>255.37</ele>
        <time>2025-05-02T13:21:48Z</time>
      </trkpt>
      <trkpt lat="41.486628977581859" lon="-7.194865001365542">
        <ele>254.88999999999999</ele>
        <time>2025-05-02T13:21:49Z</time>
      </trkpt>
      <trkpt lat="41.486555971205235" lon="-7.194732986390591">
        <ele>254.88999999999999</ele>
        <time>2025-05-02T13:21:50Z</time>
      </trkpt>
      <trkpt lat="41.486496962606907" lon="-7.194650005549192">
        <ele>254.88999999999999</ele>
        <time>2025-05-02T13:21:51Z</time>
      </trkpt>
      <trkpt lat="41.48641699925065" lon="-7.19458001665771">
        <ele>254.41</ele>
        <time>2025-05-02T13:21:52Z</time>
      </trkpt>
      <trkpt lat="41.486113993450999" lon="-7.194285979494453">
        <ele>253.44</ele>
        <time>2025-05-02T13:21:56Z</time>
      </trkpt>
      <trkpt lat="41.486061019822955" lon="-7.194206016138196">
        <ele>252.47999999999999</ele>
        <time>2025-05-02T13:21:57Z</time>
      </trkpt>
      <trkpt lat="41.486027995124459" lon="-7.194098979234695">
        <ele>252</ele>
        <time>2025-05-02T13:21:58Z</time>
      </trkpt>
      <trkpt lat="41.486027995124459" lon="-7.193979034200311">
        <ele>251.52000000000001</ele>
        <time>2025-05-02T13:21:59Z</time>
      </trkpt>
      <trkpt lat="41.486050961539149" lon="-7.193852970376611">
        <ele>251.03999999999999</ele>
        <time>2025-05-02T13:22:00Z</time>
      </trkpt>
      <trkpt lat="41.486085997894406" lon="-7.193721039220691">
        <ele>250.56</ele>
        <time>2025-05-02T13:22:01Z</time>
      </trkpt>
      <trkpt lat="41.486122040078044" lon="-7.193582989275456">
        <ele>250.08000000000001</ele>
        <time>2025-05-02T13:22:02Z</time>
      </trkpt>
      <trkpt lat="41.486145006492734" lon="-7.193447034806013">
        <ele>249.12</ele>
        <time>2025-05-02T13:22:03Z</time>
      </trkpt>
      <trkpt lat="41.486161015927792" lon="-7.1933130081743">
        <ele>248.16</ele>
        <time>2025-05-02T13:22:04Z</time>
      </trkpt>
      <trkpt lat="41.48617803119123" lon="-7.193170012906194">
        <ele>247.19999999999999</ele>
        <time>2025-05-02T13:22:05Z</time>
      </trkpt>
      <trkpt lat="41.486163027584553" lon="-7.193030035123229">
        <ele>245.75</ele>
        <time>2025-05-02T13:22:06Z</time>
      </trkpt>
      <trkpt lat="41.486148023977876" lon="-7.192888967692852">
        <ele>244.78999999999999</ele>
        <time>2025-05-02T13:22:07Z</time>
      </trkpt>
      <trkpt lat="41.485988013446331" lon="-7.192000988870859">
        <ele>239.50999999999999</ele>
        <time>2025-05-02T13:22:14Z</time>
      </trkpt>
      <trkpt lat="41.485940990969539" lon="-7.191912978887558">
        <ele>238.53999999999999</ele>
        <time>2025-05-02T13:22:15Z</time>
      </trkpt>
      <trkpt lat="41.485898997634649" lon="-7.191838966682553">
        <ele>238.06</ele>
        <time>2025-05-02T13:22:16Z</time>
      </trkpt>
      <trkpt lat="41.485816016793251" lon="-7.191813988611102">
        <ele>237.58000000000001</ele>
        <time>2025-05-02T13:22:17Z</time>
      </trkpt>
      <trkpt lat="41.485735969617963" lon="-7.191789010539651">
        <ele>237.09999999999999</ele>
        <time>2025-05-02T13:22:18Z</time>
      </trkpt>
      <trkpt lat="41.485619964078069" lon="-7.191752968356013">
        <ele>236.62</ele>
        <time>2025-05-02T13:22:19Z</time>
      </trkpt>
      <trkpt lat="41.485587023198605" lon="-7.1917640324682">
        <ele>235.66</ele>
        <time>2025-05-02T13:22:20Z</time>
      </trkpt>
      <trkpt lat="41.485518962144852" lon="-7.191784987226129">
        <ele>234.69999999999999</ele>
        <time>2025-05-02T13:22:21Z</time>
      </trkpt>
      <trkpt lat="41.485437992960215" lon="-7.191808959469199">
        <ele>234.22</ele>
        <time>2025-05-02T13:22:22Z</time>
      </trkpt>
      <trkpt lat="41.48534101434052" lon="-7.191838966682553">
        <ele>233.25999999999999</ele>
        <time>2025-05-02T13:22:23Z</time>
      </trkpt>
      <trkpt lat="41.485086036846042" lon="-7.191838966682553">
        <ele>230.37</ele>
        <time>2025-05-02T13:22:26Z</time>
      </trkpt>
      <trkpt lat="41.485001966357231" lon="-7.191838966682553">
        <ele>229.88999999999999</ele>
        <time>2025-05-02T13:22:27Z</time>
      </trkpt>
      <trkpt lat="41.484925020486116" lon="-7.191838966682553">
        <ele>228.93000000000001</ele>
        <time>2025-05-02T13:22:28Z</time>
      </trkpt>
      <trkpt lat="41.48463299497962" lon="-7.191752968356013">
        <ele>226.53</ele>
        <time>2025-05-02T13:22:32Z</time>
      </trkpt>
      <trkpt lat="41.484523024410009" lon="-7.191752968356013">
        <ele>225.56999999999999</ele>
        <time>2025-05-02T13:22:34Z</time>
      </trkpt>
      <trkpt lat="41.484441971406341" lon="-7.191752968356013">
        <ele>225.09</ele>
        <time>2025-05-02T13:22:35Z</time>
      </trkpt>
      <trkpt lat="41.484362008050084" lon="-7.191752968356013">
        <ele>225.09</ele>
        <time>2025-05-02T13:22:36Z</time>
      </trkpt>
      <trkpt lat="41.484204009175301" lon="-7.191752968356013">
        <ele>225.09</ele>
        <time>2025-05-02T13:22:37Z</time>
      </trkpt>
      <trkpt lat="41.484145000576973" lon="-7.191817006096244">
        <ele>225.09</ele>
        <time>2025-05-02T13:22:38Z</time>
      </trkpt>
      <trkpt lat="41.483640996739268" lon="-7.192423017695546">
        <ele>227.97</ele>
        <time>2025-05-02T13:22:47Z</time>
      </trkpt>
      <trkpt lat="41.483522979542613" lon="-7.192681012675166">
        <ele>229.88999999999999</ele>
        <time>2025-05-02T13:22:50Z</time>
      </trkpt>
      <trkpt lat="41.483467994257808" lon="-7.192832976579666">
        <ele>230.37</ele>
        <time>2025-05-02T13:22:52Z</time>
      </trkpt>
      <trkpt lat="41.48338601924479" lon="-7.193059958517551">
        <ele>231.81</ele>
        <time>2025-05-02T13:22:55Z</time>
      </trkpt>
      <trkpt lat="41.483315024524927" lon="-7.193867973983288">
        <ele>235.66</ele>
        <time>2025-05-02T13:23:02Z</time>
      </trkpt>
      <trkpt lat="41.483347965404391" lon="-7.19402396120131">
        <ele>236.13999999999999</ele>
        <time>2025-05-02T13:23:03Z</time>
      </trkpt>
      <trkpt lat="41.483395993709564" lon="-7.1941920183599">
        <ele>237.09999999999999</ele>
        <time>2025-05-02T13:23:04Z</time>
      </trkpt>
      <trkpt lat="41.483860015869141" lon="-7.195485010743141">
        <ele>243.83000000000001</ele>
        <time>2025-05-02T13:23:13Z</time>
      </trkpt>
      <trkpt lat="41.48435496725142" lon="-7.196810021996498">
        <ele>250.08000000000001</ele>
        <time>2025-05-02T13:23:23Z</time>
      </trkpt>
      <trkpt lat="41.484539033845067" lon="-7.19754402525723">
        <ele>253.93000000000001</ele>
        <time>2025-05-02T13:23:28Z</time>
      </trkpt>
      <trkpt lat="41.484529981389642" lon="-7.197675034403801">
        <ele>254.88999999999999</ele>
        <time>2025-05-02T13:23:29Z</time>
      </trkpt>
      <trkpt lat="41.48450399748981" lon="-7.19780595973134">
        <ele>255.37</ele>
        <time>2025-05-02T13:23:30Z</time>
      </trkpt>
      <trkpt lat="41.484457980841398" lon="-7.197935041040182">
        <ele>256.32999999999998</ele>
        <time>2025-05-02T13:23:31Z</time>
      </trkpt>
      <trkpt lat="41.484396960586309" lon="-7.198105026036501">
        <ele>256.81</ele>
        <time>2025-05-02T13:23:32Z</time>
      </trkpt>
      <trkpt lat="41.484152963384986" lon="-7.198583967983723">
        <ele>260.17000000000002</ele>
        <time>2025-05-02T13:23:36Z</time>
      </trkpt>
      <trkpt lat="41.484075011685491" lon="-7.1987060084939">
        <ele>260.64999999999998</ele>
        <time>2025-05-02T13:23:37Z</time>
      </trkpt>
      <trkpt lat="41.483976021409035" lon="-7.198759987950325">
        <ele>261.13999999999999</ele>
        <time>2025-05-02T13:23:38Z</time>
      </trkpt>
      <trkpt lat="41.483861021697521" lon="-7.198822014033794">
        <ele>262.10000000000002</ele>
        <time>2025-05-02T13:23:39Z</time>
      </trkpt>
      <trkpt lat="41.483743004500866" lon="-7.198886973783374">
        <ele>262.57999999999998</ele>
        <time>2025-05-02T13:23:40Z</time>
      </trkpt>
      <trkpt lat="41.48362398147583" lon="-7.198952017351985">
        <ele>263.54000000000002</ele>
        <time>2025-05-02T13:23:41Z</time>
      </trkpt>
      <trkpt lat="41.483519040048122" lon="-7.199056036770344">
        <ele>264.01999999999998</ele>
        <time>2025-05-02T13:23:42Z</time>
      </trkpt>
      <trkpt lat="41.483418960124254" lon="-7.199165001511574">
        <ele>264.01999999999998</ele>
        <time>2025-05-02T13:23:43Z</time>
      </trkpt>
      <trkpt lat="41.483331033959985" lon="-7.199295004829764">
        <ele>264.98000000000002</ele>
        <time>2025-05-02T13:23:44Z</time>
      </trkpt>
      <trkpt lat="41.483249980956316" lon="-7.199430037289858">
        <ele>264.98000000000002</ele>
        <time>2025-05-02T13:23:45Z</time>
      </trkpt>
      <trkpt lat="41.483179992064834" lon="-7.199584012851119">
        <ele>265.45999999999998</ele>
        <time>2025-05-02T13:23:46Z</time>
      </trkpt>
      <trkpt lat="41.483142022043467" lon="-7.199738994240761">
        <ele>265.94</ele>
        <time>2025-05-02T13:23:47Z</time>
      </trkpt>
      <trkpt lat="41.483104974031448" lon="-7.199890958145261">
        <ele>266.42000000000002</ele>
        <time>2025-05-02T13:23:48Z</time>
      </trkpt>
      <trkpt lat="41.483071027323604" lon="-7.200032025575638">
        <ele>266.89999999999998</ele>
        <time>2025-05-02T13:23:49Z</time>
      </trkpt>
      <trkpt lat="41.483036996796727" lon="-7.200170997530222">
        <ele>267.86000000000001</ele>
        <time>2025-05-02T13:23:50Z</time>
      </trkpt>
      <trkpt lat="41.48300196044147" lon="-7.200314998626709">
        <ele>268.35000000000002</ele>
        <time>2025-05-02T13:23:51Z</time>
      </trkpt>
      <trkpt lat="41.482921997085214" lon="-7.200419018045068">
        <ele>269.31</ele>
        <time>2025-05-02T13:23:52Z</time>
      </trkpt>
      <trkpt lat="41.482833987101912" lon="-7.200513985008001">
        <ele>269.79000000000002</ele>
        <time>2025-05-02T13:23:53Z</time>
      </trkpt>
      <trkpt lat="41.48272099904716" lon="-7.2005520388484">
        <ele>270.75</ele>
        <time>2025-05-02T13:23:54Z</time>
      </trkpt>
      <trkpt lat="41.482594013214111" lon="-7.20059403218329">
        <ele>271.70999999999998</ele>
        <time>2025-05-02T13:23:55Z</time>
      </trkpt>
      <trkpt lat="41.482469961047173" lon="-7.200610963627696">
        <ele>272.19</ele>
        <time>2025-05-02T13:23:56Z</time>
      </trkpt>
      <trkpt lat="41.481793038547039" lon="-7.20072403550148">
        <ele>276.04000000000002</ele>
        <time>2025-05-02T13:24:01Z</time>
      </trkpt>
      <trkpt lat="41.481675021350384" lon="-7.20081296749413">
        <ele>277</ele>
        <time>2025-05-02T13:24:02Z</time>
      </trkpt>
      <trkpt lat="41.481558009982109" lon="-7.200902989134193">
        <ele>277.48000000000002</ele>
        <time>2025-05-02T13:24:03Z</time>
      </trkpt>
      <trkpt lat="41.481440998613834" lon="-7.200992004945874">
        <ele>278.92000000000002</ele>
        <time>2025-05-02T13:24:04Z</time>
      </trkpt>
      <trkpt lat="41.481321975588799" lon="-7.201057970523834">
        <ele>279.88</ele>
        <time>2025-05-02T13:24:05Z</time>
      </trkpt>
      <trkpt lat="41.481199013069272" lon="-7.201092001050711">
        <ele>280.83999999999997</ele>
        <time>2025-05-02T13:24:06Z</time>
      </trkpt>
      <trkpt lat="41.481082001700997" lon="-7.201076997444034">
        <ele>281.80000000000001</ele>
        <time>2025-05-02T13:24:07Z</time>
      </trkpt>
      <trkpt lat="41.480973036959767" lon="-7.201012037694454">
        <ele>282.76999999999998</ele>
        <time>2025-05-02T13:24:08Z</time>
      </trkpt>
      <trkpt lat="41.480857031419873" lon="-7.20094196498394">
        <ele>284.20999999999998</ele>
        <time>2025-05-02T13:24:09Z</time>
      </trkpt>
      <trkpt lat="41.480623008683324" lon="-7.200801987200975">
        <ele>286.61000000000001</ele>
        <time>2025-05-02T13:24:11Z</time>
      </trkpt>
      <trkpt lat="41.480485964566469" lon="-7.200797963887453">
        <ele>287.56999999999999</ele>
        <time>2025-05-02T13:24:12Z</time>
      </trkpt>
      <trkpt lat="41.480355961248279" lon="-7.200811039656401">
        <ele>288.52999999999997</ele>
        <time>2025-05-02T13:24:13Z</time>
      </trkpt>
      <trkpt lat="41.480224030092359" lon="-7.200825037434697">
        <ele>289.49000000000001</ele>
        <time>2025-05-02T13:24:14Z</time>
      </trkpt>
      <trkpt lat="41.480091009289026" lon="-7.2008749935776">
        <ele>290.45999999999998</ele>
        <time>2025-05-02T13:24:15Z</time>
      </trkpt>
      <trkpt lat="41.479976009577513" lon="-7.200958980247378">
        <ele>290.94</ele>
        <time>2025-05-02T13:24:16Z</time>
      </trkpt>
      <trkpt lat="41.479897974058986" lon="-7.201096024364233">
        <ele>291.89999999999998</ele>
        <time>2025-05-02T13:24:17Z</time>
      </trkpt>
      <trkpt lat="41.479866961017251" lon="-7.201247988268733">
        <ele>292.38</ele>
        <time>2025-05-02T13:24:18Z</time>
      </trkpt>
      <trkpt lat="41.479835025966167" lon="-7.20141101628542">
        <ele>292.86000000000001</ele>
        <time>2025-05-02T13:24:19Z</time>
      </trkpt>
      <trkpt lat="41.479800995439291" lon="-7.201577983796597">
        <ele>293.33999999999997</ele>
        <time>2025-05-02T13:24:20Z</time>
      </trkpt>
      <trkpt lat="41.47975699044764" lon="-7.201746040955186">
        <ele>293.81999999999999</ele>
        <time>2025-05-02T13:24:21Z</time>
      </trkpt>
      <trkpt lat="41.479683984071016" lon="-7.201902028173208">
        <ele>294.77999999999997</ele>
        <time>2025-05-02T13:24:22Z</time>
      </trkpt>
      <trkpt lat="41.479578036814928" lon="-7.202003030106425">
        <ele>295.25999999999999</ele>
        <time>2025-05-02T13:24:23Z</time>
      </trkpt>
      <trkpt lat="41.479457002133131" lon="-7.202053992077708">
        <ele>296.22000000000003</ele>
        <time>2025-05-02T13:24:24Z</time>
      </trkpt>
      <trkpt lat="41.479334039613605" lon="-7.202105959877372">
        <ele>297.18000000000001</ele>
        <time>2025-05-02T13:24:25Z</time>
      </trkpt>
      <trkpt lat="41.479208981618285" lon="-7.202158011496067">
        <ele>298.14999999999998</ele>
        <time>2025-05-02T13:24:26Z</time>
      </trkpt>
      <trkpt lat="41.47908803075552" lon="-7.202226994559169">
        <ele>298.63</ele>
        <time>2025-05-02T13:24:27Z</time>
      </trkpt>
      <trkpt lat="41.478971019387245" lon="-7.202293965965509">
        <ele>299.58999999999997</ele>
        <time>2025-05-02T13:24:28Z</time>
      </trkpt>
      <trkpt lat="41.478868005797267" lon="-7.202403014525771">
        <ele>300.06999999999999</ele>
        <time>2025-05-02T13:24:29Z</time>
      </trkpt>
      <trkpt lat="41.478797011077404" lon="-7.202545003965497">
        <ele>301.02999999999997</ele>
        <time>2025-05-02T13:24:30Z</time>
      </trkpt>
      <trkpt lat="41.478734984993935" lon="-7.202709037810564">
        <ele>301.50999999999999</ele>
        <time>2025-05-02T13:24:31Z</time>
      </trkpt>
      <trkpt lat="41.478690980002284" lon="-7.202881034463644">
        <ele>301.99000000000001</ele>
        <time>2025-05-02T13:24:32Z</time>
      </trkpt>
      <trkpt lat="41.478604981675744" lon="-7.203225027769804">
        <ele>303.43000000000001</ele>
        <time>2025-05-02T13:24:34Z</time>
      </trkpt>
      <trkpt lat="41.478621996939182" lon="-7.203416973352432">
        <ele>303.43000000000001</ele>
        <time>2025-05-02T13:24:35Z</time>
      </trkpt>
      <trkpt lat="41.478662984445691" lon="-7.203586958348751">
        <ele>303.91000000000003</ele>
        <time>2025-05-02T13:24:36Z</time>
      </trkpt>
      <trkpt lat="41.479034973308444" lon="-7.204702002927661">
        <ele>308.24000000000001</ele>
        <time>2025-05-02T13:24:43Z</time>
      </trkpt>
      <trkpt lat="41.479628998786211" lon="-7.206391040235758">
        <ele>314.97000000000003</ele>
        <time>2025-05-02T13:24:54Z</time>
      </trkpt>
      <trkpt lat="41.479936027899384" lon="-7.20736401155591">
        <ele>318.32999999999998</ele>
        <time>2025-05-02T13:24:59Z</time>
      </trkpt>
      <trkpt lat="41.479973997920752" lon="-7.207584958523512">
        <ele>319.30000000000001</ele>
        <time>2025-05-02T13:25:00Z</time>
      </trkpt>
      <trkpt lat="41.480020014569163" lon="-7.207846976816654">
        <ele>320.25999999999999</ele>
        <time>2025-05-02T13:25:01Z</time>
      </trkpt>
      <trkpt lat="41.480020014569163" lon="-7.208038000389934">
        <ele>321.69999999999999</ele>
        <time>2025-05-02T13:25:02Z</time>
      </trkpt>
      <trkpt lat="41.480020014569163" lon="-7.208270011469722">
        <ele>322.66000000000003</ele>
        <time>2025-05-02T13:25:03Z</time>
      </trkpt>
      <trkpt lat="41.479996964335442" lon="-7.208503028377891">
        <ele>324.10000000000002</ele>
        <time>2025-05-02T13:25:04Z</time>
      </trkpt>
      <trkpt lat="41.479939967393875" lon="-7.209214987233281">
        <ele>326.99000000000001</ele>
        <time>2025-05-02T13:25:07Z</time>
      </trkpt>
      <trkpt lat="41.47994801402092" lon="-7.209454961121082">
        <ele>327.94999999999999</ele>
        <time>2025-05-02T13:25:08Z</time>
      </trkpt>
      <trkpt lat="41.479966035112739" lon="-7.209693007171154">
        <ele>328.91000000000003</ele>
        <time>2025-05-02T13:25:09Z</time>
      </trkpt>
      <trkpt lat="41.480024037882686" lon="-7.209923006594181">
        <ele>330.35000000000002</ele>
        <time>2025-05-02T13:25:10Z</time>
      </trkpt>
      <trkpt lat="41.480083968490362" lon="-7.210163986310363">
        <ele>331.79000000000002</ele>
        <time>2025-05-02T13:25:11Z</time>
      </trkpt>
      <trkpt lat="41.480194022879004" lon="-7.210354004055262">
        <ele>332.75</ele>
        <time>2025-05-02T13:25:12Z</time>
      </trkpt>
      <trkpt lat="41.480300975963473" lon="-7.210538992658258">
        <ele>333.70999999999998</ele>
        <time>2025-05-02T13:25:13Z</time>
      </trkpt>
      <trkpt lat="41.48040197789669" lon="-7.210713000968099">
        <ele>334.68000000000001</ele>
        <time>2025-05-02T13:25:14Z</time>
      </trkpt>
      <trkpt lat="41.480493005365133" lon="-7.210869994014502">
        <ele>335.63999999999999</ele>
        <time>2025-05-02T13:25:15Z</time>
      </trkpt>
      <trkpt lat="41.480566011741757" lon="-7.211024975404143">
        <ele>336.60000000000002</ele>
        <time>2025-05-02T13:25:16Z</time>
      </trkpt>
      <trkpt lat="41.480600964277983" lon="-7.211190015077591">
        <ele>337.56</ele>
        <time>2025-05-02T13:25:17Z</time>
      </trkpt>
      <trkpt lat="41.480602975934744" lon="-7.211366035044193">
        <ele>338.04000000000002</ele>
        <time>2025-05-02T13:25:18Z</time>
      </trkpt>
      <trkpt lat="41.48057003505528" lon="-7.211534008383751">
        <ele>338.51999999999998</ele>
        <time>2025-05-02T13:25:19Z</time>
      </trkpt>
      <trkpt lat="41.480533992871642" lon="-7.211711034178734">
        <ele>339</ele>
        <time>2025-05-02T13:25:20Z</time>
      </trkpt>
      <trkpt lat="41.480456963181496" lon="-7.211880013346672">
        <ele>339.48000000000002</ele>
        <time>2025-05-02T13:25:21Z</time>
      </trkpt>
      <trkpt lat="41.480126967653632" lon="-7.212609993293881">
        <ele>341.41000000000003</ele>
        <time>2025-05-02T13:25:25Z</time>
      </trkpt>
      <trkpt lat="41.480002999305725" lon="-7.212762041017413">
        <ele>341.88999999999999</ele>
        <time>2025-05-02T13:25:26Z</time>
      </trkpt>
      <trkpt lat="41.479880036786199" lon="-7.212915010750294">
        <ele>342.37</ele>
        <time>2025-05-02T13:25:27Z</time>
      </trkpt>
      <trkpt lat="41.478115981444716" lon="-7.214760035276413">
        <ele>351.5</ele>
        <time>2025-05-02T13:25:40Z</time>
      </trkpt>
      <trkpt lat="41.47692097350955" lon="-7.216378999873996">
        <ele>362.06999999999999</ele>
        <time>2025-05-02T13:25:49Z</time>
      </trkpt>
      <trkpt lat="41.475910032168031" lon="-7.218113970011473">
        <ele>373.61000000000001</ele>
        <time>2025-05-02T13:25:58Z</time>
      </trkpt>
      <trkpt lat="41.475813975557685" lon="-7.218340029940009">
        <ele>374.56999999999999</ele>
        <time>2025-05-02T13:25:59Z</time>
      </trkpt>
      <trkpt lat="41.475763013586402" lon="-7.218565000221133">
        <ele>376.00999999999999</ele>
        <time>2025-05-02T13:26:00Z</time>
      </trkpt>
      <trkpt lat="41.475707022473216" lon="-7.218812014907599">
        <ele>376.97000000000003</ele>
        <time>2025-05-02T13:26:01Z</time>
      </trkpt>
      <trkpt lat="41.475686989724636" lon="-7.219042014330626">
        <ele>377.44999999999999</ele>
        <time>2025-05-02T13:26:02Z</time>
      </trkpt>
      <trkpt lat="41.475700987502933" lon="-7.219248963519931">
        <ele>378.42000000000002</ele>
        <time>2025-05-02T13:26:03Z</time>
      </trkpt>
      <trkpt lat="41.475712973624468" lon="-7.21943998709321">
        <ele>379.38</ele>
        <time>2025-05-02T13:26:04Z</time>
      </trkpt>
      <trkpt lat="41.475724959746003" lon="-7.219618018716574">
        <ele>379.86000000000001</ele>
        <time>2025-05-02T13:26:05Z</time>
      </trkpt>
      <trkpt lat="41.475796960294247" lon="-7.219930998980999">
        <ele>380.81999999999999</ele>
        <time>2025-05-02T13:26:07Z</time>
      </trkpt>
      <trkpt lat="41.475842976942658" lon="-7.220049016177654">
        <ele>381.30000000000001</ele>
        <time>2025-05-02T13:26:08Z</time>
      </trkpt>
      <trkpt lat="41.475879019126296" lon="-7.220141971483827">
        <ele>381.77999999999997</ele>
        <time>2025-05-02T13:26:09Z</time>
      </trkpt>
      <trkpt lat="41.475921012461185" lon="-7.220249008387327">
        <ele>382.25999999999999</ele>
        <time>2025-05-02T13:26:10Z</time>
      </trkpt>
      <trkpt lat="41.476070964708924" lon="-7.220270968973637">
        <ele>382.25999999999999</ele>
        <time>2025-05-02T13:26:11Z</time>
      </trkpt>
      <trkpt lat="41.476070964708924" lon="-7.220270968973637">
        <ele>382.74000000000001</ele>
        <time>2025-05-02T13:26:12Z</time>
      </trkpt>
      <trkpt lat="41.476122010499239" lon="-7.220284966751933">
        <ele>383.22000000000003</ele>
        <time>2025-05-02T13:26:13Z</time>
      </trkpt>
      <trkpt lat="41.476193005219102" lon="-7.220304999500513">
        <ele>383.69999999999999</ele>
        <time>2025-05-02T13:26:14Z</time>
      </trkpt>
      <trkpt lat="41.47625301964581" lon="-7.220384040847421">
        <ele>383.69999999999999</ele>
        <time>2025-05-02T13:26:15Z</time>
      </trkpt>
      <trkpt lat="41.476287972182035" lon="-7.220462998375297">
        <ele>384.18000000000001</ele>
        <time>2025-05-02T13:26:16Z</time>
      </trkpt>
      <trkpt lat="41.476293001323938" lon="-7.220564000308514">
        <ele>384.18000000000001</ele>
        <time>2025-05-02T13:26:17Z</time>
      </trkpt>
      <trkpt lat="41.476271962746978" lon="-7.220649998635054">
        <ele>384.18000000000001</ele>
        <time>2025-05-02T13:26:18Z</time>
      </trkpt>
      <trkpt lat="41.476225024089217" lon="-7.220717975869775">
        <ele>383.69999999999999</ele>
        <time>2025-05-02T13:26:19Z</time>
      </trkpt>
      <trkpt lat="41.476179007440805" lon="-7.220763992518187">
        <ele>383.69999999999999</ele>
        <time>2025-05-02T13:26:20Z</time>
      </trkpt>
      <trkpt lat="41.475984966382384" lon="-7.220916040241718">
        <ele>383.69999999999999</ele>
        <time>2025-05-02T13:26:22Z</time>
      </trkpt>
      <trkpt lat="41.475955964997411" lon="-7.221034979447722">
        <ele>383.69999999999999</ele>
        <time>2025-05-02T13:26:23Z</time>
      </trkpt>
      <trkpt lat="41.475921012461185" lon="-7.221177974715829">
        <ele>383.22000000000003</ele>
        <time>2025-05-02T13:26:24Z</time>
      </trkpt>
      <trkpt lat="41.47590802051127" lon="-7.22132901661098">
        <ele>382.74000000000001</ele>
        <time>2025-05-02T13:26:25Z</time>
      </trkpt>
      <trkpt lat="41.475901985540986" lon="-7.221503024920821">
        <ele>382.25999999999999</ele>
        <time>2025-05-02T13:26:26Z</time>
      </trkpt>
      <trkpt lat="41.475907014682889" lon="-7.221678961068392">
        <ele>381.77999999999997</ele>
        <time>2025-05-02T13:26:27Z</time>
      </trkpt>
      <trkpt lat="41.475917994976044" lon="-7.222052961587906">
        <ele>380.81999999999999</ele>
        <time>2025-05-02T13:26:29Z</time>
      </trkpt>
      <trkpt lat="41.47590802051127" lon="-7.222238034009934">
        <ele>380.33999999999997</ele>
        <time>2025-05-02T13:26:30Z</time>
      </trkpt>
      <trkpt lat="41.475874995812774" lon="-7.222438026219606">
        <ele>380.33999999999997</ele>
        <time>2025-05-02T13:26:31Z</time>
      </trkpt>
      <trkpt lat="41.475826967507601" lon="-7.222629971802235">
        <ele>380.33999999999997</ele>
        <time>2025-05-02T13:26:32Z</time>
      </trkpt>
      <trkpt lat="41.475761001929641" lon="-7.222817977890372">
        <ele>380.33999999999997</ele>
        <time>2025-05-02T13:26:33Z</time>
      </trkpt>
      <trkpt lat="41.475681038573384" lon="-7.222987962886691">
        <ele>380.33999999999997</ele>
        <time>2025-05-02T13:26:34Z</time>
      </trkpt>
      <trkpt lat="41.475581964477897" lon="-7.223150990903378">
        <ele>381.30000000000001</ele>
        <time>2025-05-02T13:26:35Z</time>
      </trkpt>
      <trkpt lat="41.475482974201441" lon="-7.223316030576825">
        <ele>381.77999999999997</ele>
        <time>2025-05-02T13:26:36Z</time>
      </trkpt>
      <trkpt lat="41.474522994831204" lon="-7.224776996299624">
        <ele>386.11000000000001</ele>
        <time>2025-05-02T13:26:45Z</time>
      </trkpt>
      <trkpt lat="41.474390979856253" lon="-7.224888978525996">
        <ele>386.58999999999997</ele>
        <time>2025-05-02T13:26:46Z</time>
      </trkpt>
      <trkpt lat="41.473140986636281" lon="-7.226065965369344">
        <ele>391.38999999999999</ele>
        <time>2025-05-02T13:26:55Z</time>
      </trkpt>
      <trkpt lat="41.471694018691778" lon="-7.227952983230352">
        <ele>398.12</ele>
        <time>2025-05-02T13:27:07Z</time>
      </trkpt>
      <trkpt lat="41.471189009025693" lon="-7.229343038052321">
        <ele>401.00999999999999</ele>
        <time>2025-05-02T13:27:14Z</time>
      </trkpt>
      <trkpt lat="41.470848033204675" lon="-7.230382980778813">
        <ele>402.44999999999999</ele>
        <time>2025-05-02T13:27:21Z</time>
      </trkpt>
      <trkpt lat="41.470767986029387" lon="-7.230643993243575">
        <ele>402.93000000000001</ele>
        <time>2025-05-02T13:27:24Z</time>
      </trkpt>
      <trkpt lat="41.470750970765948" lon="-7.23069503903389">
        <ele>402.93000000000001</ele>
        <time>2025-05-02T13:27:25Z</time>
      </trkpt>
      <trkpt lat="41.470728004351258" lon="-7.230764022096992">
        <ele>403.41000000000003</ele>
        <time>2025-05-02T13:27:26Z</time>
      </trkpt>
      <trkpt lat="41.470728004351258" lon="-7.230764022096992">
        <ele>403.41000000000003</ele>
        <time>2025-05-02T13:27:27Z</time>
      </trkpt>
      <trkpt lat="41.470670001581311" lon="-7.230583978816867">
        <ele>403.88999999999999</ele>
        <time>2025-05-02T13:27:28Z</time>
      </trkpt>
      <trkpt lat="41.470619039610028" lon="-7.230559000745416">
        <ele>403.88999999999999</ele>
        <time>2025-05-02T13:27:29Z</time>
      </trkpt>
      <trkpt lat="41.470555001869798" lon="-7.23052597604692">
        <ele>403.88999999999999</ele>
        <time>2025-05-02T13:27:30Z</time>
      </trkpt>
      <trkpt lat="41.470481995493174" lon="-7.230487000197172">
        <ele>403.88999999999999</ele>
        <time>2025-05-02T13:27:31Z</time>
      </trkpt>
      <trkpt lat="41.470403037965298" lon="-7.230437966063619">
        <ele>403.41000000000003</ele>
        <time>2025-05-02T13:27:32Z</time>
      </trkpt>
      <trkpt lat="41.470313016325235" lon="-7.230382980778813">
        <ele>403.41000000000003</ele>
        <time>2025-05-02T13:27:33Z</time>
      </trkpt>
      <trkpt lat="41.46942101418972" lon="-7.229861039668322">
        <ele>401.00999999999999</ele>
        <time>2025-05-02T13:27:40Z</time>
      </trkpt>
      <trkpt lat="41.467742035165429" lon="-7.228888990357518">
        <ele>398.12</ele>
        <time>2025-05-02T13:27:50Z</time>
      </trkpt>
      <trkpt lat="41.466353992000222" lon="-7.228006962686777">
        <ele>397.63999999999999</ele>
        <time>2025-05-02T13:27:58Z</time>
      </trkpt>
      <trkpt lat="41.466233041137457" lon="-7.227845024317503">
        <ele>398.12</ele>
        <time>2025-05-02T13:27:59Z</time>
      </trkpt>
      <trkpt lat="41.466107983142138" lon="-7.22766799852252">
        <ele>398.60000000000002</ele>
        <time>2025-05-02T13:28:00Z</time>
      </trkpt>
      <trkpt lat="41.464983969926834" lon="-7.225696993991733">
        <ele>398.60000000000002</ele>
        <time>2025-05-02T13:28:09Z</time>
      </trkpt>
      <trkpt lat="41.463645966723561" lon="-7.223393982276321">
        <ele>398.12</ele>
        <time>2025-05-02T13:28:20Z</time>
      </trkpt>
      <trkpt lat="41.463548988103867" lon="-7.223235983401537">
        <ele>398.12</ele>
        <time>2025-05-02T13:28:21Z</time>
      </trkpt>
      <trkpt lat="41.463454021140933" lon="-7.223082007840276">
        <ele>398.12</ele>
        <time>2025-05-02T13:28:22Z</time>
      </trkpt>
      <trkpt lat="41.463322006165981" lon="-7.222999026998878">
        <ele>398.12</ele>
        <time>2025-05-02T13:28:23Z</time>
      </trkpt>
      <trkpt lat="41.463178005069494" lon="-7.222966002300382">
        <ele>398.60000000000002</ele>
        <time>2025-05-02T13:28:24Z</time>
      </trkpt>
      <trkpt lat="41.463025035336614" lon="-7.222953010350466">
        <ele>398.60000000000002</ele>
        <time>2025-05-02T13:28:25Z</time>
      </trkpt>
      <trkpt lat="41.462882962077856" lon="-7.223012018948793">
        <ele>399.07999999999998</ele>
        <time>2025-05-02T13:28:26Z</time>
      </trkpt>
      <trkpt lat="41.462728986516595" lon="-7.223087958991528">
        <ele>399.07999999999998</ele>
        <time>2025-05-02T13:28:27Z</time>
      </trkpt>
      <trkpt lat="41.462581967934966" lon="-7.223194995895028">
        <ele>399.56999999999999</ele>
        <time>2025-05-02T13:28:28Z</time>
      </trkpt>
      <trkpt lat="41.461189985275269" lon="-7.22420996055007">
        <ele>398.12</ele>
        <time>2025-05-02T13:28:36Z</time>
      </trkpt>
      <trkpt lat="41.460034037008882" lon="-7.224971959367394">
        <ele>396.19999999999999</ele>
        <time>2025-05-02T13:28:43Z</time>
      </trkpt>
      <trkpt lat="41.459876960143447" lon="-7.224994003772736">
        <ele>395.72000000000003</ele>
        <time>2025-05-02T13:28:44Z</time>
      </trkpt>
      <trkpt lat="41.45970999263227" lon="-7.224998027086258">
        <ele>395.24000000000001</ele>
        <time>2025-05-02T13:28:45Z</time>
      </trkpt>
      <trkpt lat="41.45777796395123" lon="-7.225043037906289">
        <ele>386.58999999999997</ele>
        <time>2025-05-02T13:28:55Z</time>
      </trkpt>
      <trkpt lat="41.455049989745021" lon="-7.225152002647519">
        <ele>386.11000000000001</ele>
        <time>2025-05-02T13:29:09Z</time>
      </trkpt>
      <trkpt lat="41.454926021397114" lon="-7.22519701346755">
        <ele>386.11000000000001</ele>
        <time>2025-05-02T13:29:10Z</time>
      </trkpt>
      <trkpt lat="41.454804986715317" lon="-7.225274965167046">
        <ele>385.63</ele>
        <time>2025-05-02T13:29:11Z</time>
      </trkpt>
      <trkpt lat="41.453477963805199" lon="-7.226131008937955">
        <ele>382.74000000000001</ele>
        <time>2025-05-02T13:29:20Z</time>
      </trkpt>
      <trkpt lat="41.451607961207628" lon="-7.227381002157927">
        <ele>379.86000000000001</ele>
        <time>2025-05-02T13:29:31Z</time>
      </trkpt>
      <trkpt lat="41.451478963717818" lon="-7.227406986057758">
        <ele>379.38</ele>
        <time>2025-05-02T13:29:32Z</time>
      </trkpt>
      <trkpt lat="41.451363964006305" lon="-7.227401034906507">
        <ele>378.42000000000002</ele>
        <time>2025-05-02T13:29:33Z</time>
      </trkpt>
      <trkpt lat="41.451246030628681" lon="-7.227342026308179">
        <ele>377.94</ele>
        <time>2025-05-02T13:29:34Z</time>
      </trkpt>
      <trkpt lat="41.451121978461742" lon="-7.227263990789652">
        <ele>377.94</ele>
        <time>2025-05-02T13:29:35Z</time>
      </trkpt>
      <trkpt lat="41.450992980971932" lon="-7.227163994684815">
        <ele>376.97000000000003</ele>
        <time>2025-05-02T13:29:36Z</time>
      </trkpt>
      <trkpt lat="41.449754973873496" lon="-7.22620602697134">
        <ele>373.13</ele>
        <time>2025-05-02T13:29:44Z</time>
      </trkpt>
      <trkpt lat="41.448183031752706" lon="-7.224990986287594">
        <ele>370.73000000000002</ele>
        <time>2025-05-02T13:29:53Z</time>
      </trkpt>
      <trkpt lat="41.44772001542151" lon="-7.22459401935339">
        <ele>370.73000000000002</ele>
        <time>2025-05-02T13:29:56Z</time>
      </trkpt>
      <trkpt lat="41.447596969082952" lon="-7.224460998550057">
        <ele>370.73000000000002</ele>
        <time>2025-05-02T13:29:57Z</time>
      </trkpt>
      <trkpt lat="41.447493033483624" lon="-7.224290007725358">
        <ele>370.73000000000002</ele>
        <time>2025-05-02T13:29:58Z</time>
      </trkpt>
      <trkpt lat="41.447436958551407" lon="-7.224107030779123">
        <ele>370.24000000000001</ele>
        <time>2025-05-02T13:29:59Z</time>
      </trkpt>
      <trkpt lat="41.44742296077311" lon="-7.223920030519366">
        <ele>370.24000000000001</ele>
        <time>2025-05-02T13:30:00Z</time>
      </trkpt>
      <trkpt lat="41.44741902127862" lon="-7.223731018602848">
        <ele>369.75999999999999</ele>
        <time>2025-05-02T13:30:01Z</time>
      </trkpt>
      <trkpt lat="41.447414997965097" lon="-7.223533960059285">
        <ele>369.27999999999997</ele>
        <time>2025-05-02T13:30:02Z</time>
      </trkpt>
      <trkpt lat="41.447401000186801" lon="-7.222954016178846">
        <ele>368.31999999999999</ele>
        <time>2025-05-02T13:30:05Z</time>
      </trkpt>
      <trkpt lat="41.447379039600492" lon="-7.222787970677018">
        <ele>367.36000000000001</ele>
        <time>2025-05-02T13:30:06Z</time>
      </trkpt>
      <trkpt lat="41.447338974103332" lon="-7.222630977630615">
        <ele>366.88</ele>
        <time>2025-05-02T13:30:07Z</time>
      </trkpt>
      <trkpt lat="41.447252975776792" lon="-7.222543973475695">
        <ele>366.39999999999998</ele>
        <time>2025-05-02T13:30:08Z</time>
      </trkpt>
      <trkpt lat="41.447153985500336" lon="-7.22246702760458">
        <ele>365.44</ele>
        <time>2025-05-02T13:30:09Z</time>
      </trkpt>
      <trkpt lat="41.447036974132061" lon="-7.222395027056336">
        <ele>364.95999999999998</ele>
        <time>2025-05-02T13:30:10Z</time>
      </trkpt>
      <trkpt lat="41.446672026067972" lon="-7.222167961299419">
        <ele>364</ele>
        <time>2025-05-02T13:30:13Z</time>
      </trkpt>
      <trkpt lat="41.446554008871317" lon="-7.222122028470039">
        <ele>364</ele>
        <time>2025-05-02T13:30:14Z</time>
      </trkpt>
      <trkpt lat="41.446427023038268" lon="-7.222163015976548">
        <ele>363.51999999999998</ele>
        <time>2025-05-02T13:30:15Z</time>
      </trkpt>
      <trkpt lat="41.446317974478006" lon="-7.222248008474708">
        <ele>363.04000000000002</ele>
        <time>2025-05-02T13:30:16Z</time>
      </trkpt>
      <trkpt lat="41.446211021393538" lon="-7.222330989316106">
        <ele>362.55000000000001</ele>
        <time>2025-05-02T13:30:17Z</time>
      </trkpt>
      <trkpt lat="41.446102978661656" lon="-7.222414975985885">
        <ele>362.55000000000001</ele>
        <time>2025-05-02T13:30:18Z</time>
      </trkpt>
      <trkpt lat="41.445968030020595" lon="-7.222458980977535">
        <ele>362.55000000000001</ele>
        <time>2025-05-02T13:30:19Z</time>
      </trkpt>
      <trkpt lat="41.445355983451009" lon="-7.222524024546146">
        <ele>364</ele>
        <time>2025-05-02T13:30:23Z</time>
      </trkpt>
      <trkpt lat="41.445207037031651" lon="-7.222496028989554">
        <ele>364.48000000000002</ele>
        <time>2025-05-02T13:30:24Z</time>
      </trkpt>
      <trkpt lat="41.445061024278402" lon="-7.222439032047987">
        <ele>365.44</ele>
        <time>2025-05-02T13:30:25Z</time>
      </trkpt>
      <trkpt lat="41.444924985989928" lon="-7.222385974600911">
        <ele>365.92000000000002</ele>
        <time>2025-05-02T13:30:26Z</time>
      </trkpt>
      <trkpt lat="41.444836976006627" lon="-7.22229796461761">
        <ele>366.39999999999998</ele>
        <time>2025-05-02T13:30:27Z</time>
      </trkpt>
      <trkpt lat="41.444764975458384" lon="-7.222201991826296">
        <ele>366.88</ele>
        <time>2025-05-02T13:30:28Z</time>
      </trkpt>
      <trkpt lat="41.444718958809972" lon="-7.222048016265035">
        <ele>367.36000000000001</ele>
        <time>2025-05-02T13:30:29Z</time>
      </trkpt>
      <trkpt lat="41.44469004124403" lon="-7.221892029047012">
        <ele>368.31999999999999</ele>
        <time>2025-05-02T13:30:30Z</time>
      </trkpt>
      <trkpt lat="41.44467000849545" lon="-7.221704022958875">
        <ele>369.27999999999997</ele>
        <time>2025-05-02T13:30:31Z</time>
      </trkpt>
      <trkpt lat="41.444648969918489" lon="-7.221502019092441">
        <ele>369.75999999999999</ele>
        <time>2025-05-02T13:30:32Z</time>
      </trkpt>
      <trkpt lat="41.444556014612317" lon="-7.220623008906841">
        <ele>372.64999999999998</ele>
        <time>2025-05-02T13:30:36Z</time>
      </trkpt>
      <trkpt lat="41.44449801184237" lon="-7.220445983111858">
        <ele>373.61000000000001</ele>
        <time>2025-05-02T13:30:37Z</time>
      </trkpt>
      <trkpt lat="41.444436991587281" lon="-7.22029603086412">
        <ele>374.08999999999997</ele>
        <time>2025-05-02T13:30:38Z</time>
      </trkpt>
      <trkpt lat="41.444359961897135" lon="-7.22014800645411">
        <ele>374.08999999999997</ele>
        <time>2025-05-02T13:30:39Z</time>
      </trkpt>
      <trkpt lat="41.444263989105821" lon="-7.220009034499526">
        <ele>374.56999999999999</ele>
        <time>2025-05-02T13:30:40Z</time>
      </trkpt>
      <trkpt lat="41.443408029153943" lon="-7.218756023794413">
        <ele>376.97000000000003</ele>
        <time>2025-05-02T13:30:47Z</time>
      </trkpt>
      <trkpt lat="41.442918023094535" lon="-7.2180210147053">
        <ele>376.49000000000001</ele>
        <time>2025-05-02T13:30:51Z</time>
      </trkpt>
      <trkpt lat="41.442786008119583" lon="-7.21791498363018">
        <ele>376.49000000000001</ele>
        <time>2025-05-02T13:30:52Z</time>
      </trkpt>
      <trkpt lat="41.442656004801393" lon="-7.217853963375092">
        <ele>376.97000000000003</ele>
        <time>2025-05-02T13:30:53Z</time>
      </trkpt>
      <trkpt lat="41.442513009533286" lon="-7.217825967818499">
        <ele>376.97000000000003</ele>
        <time>2025-05-02T13:30:54Z</time>
      </trkpt>
      <trkpt lat="41.442359033972025" lon="-7.217795960605145">
        <ele>377.44999999999999</ele>
        <time>2025-05-02T13:30:55Z</time>
      </trkpt>
      <trkpt lat="41.441353037953377" lon="-7.217637961730361">
        <ele>378.89999999999998</ele>
        <time>2025-05-02T13:31:01Z</time>
      </trkpt>
      <trkpt lat="41.439497033134103" lon="-7.217918001115322">
        <ele>377.94</ele>
        <time>2025-05-02T13:31:10Z</time>
      </trkpt>
      <trkpt lat="41.438289033249021" lon="-7.218108018860221">
        <ele>376.00999999999999</ele>
        <time>2025-05-02T13:31:16Z</time>
      </trkpt>
      <trkpt lat="41.438108989968896" lon="-7.218137020245194">
        <ele>376.00999999999999</ele>
        <time>2025-05-02T13:31:17Z</time>
      </trkpt>
      <trkpt lat="41.437920983880758" lon="-7.218112964183092">
        <ele>376.00999999999999</ele>
        <time>2025-05-02T13:31:18Z</time>
      </trkpt>
      <trkpt lat="41.437082961201668" lon="-7.217888999730349">
        <ele>374.08999999999997</ele>
        <time>2025-05-02T13:31:23Z</time>
      </trkpt>
      <trkpt lat="41.436958992853761" lon="-7.217783974483609">
        <ele>373.61000000000001</ele>
        <time>2025-05-02T13:31:24Z</time>
      </trkpt>
      <trkpt lat="41.436872994527221" lon="-7.217710968106985">
        <ele>373.61000000000001</ele>
        <time>2025-05-02T13:31:25Z</time>
      </trkpt>
      <trkpt lat="41.436795964837074" lon="-7.217614995315671">
        <ele>373.61000000000001</ele>
        <time>2025-05-02T13:31:26Z</time>
      </trkpt>
      <trkpt lat="41.436768975108862" lon="-7.217491026967764">
        <ele>373.13</ele>
        <time>2025-05-02T13:31:27Z</time>
      </trkpt>
      <trkpt lat="41.436739973723888" lon="-7.217345014214516">
        <ele>372.64999999999998</ele>
        <time>2025-05-02T13:31:28Z</time>
      </trkpt>
      <trkpt lat="41.436753971502185" lon="-7.217187015339732">
        <ele>372.17000000000002</ele>
        <time>2025-05-02T13:31:29Z</time>
      </trkpt>
      <trkpt lat="41.436768975108862" lon="-7.21701099537313">
        <ele>371.69</ele>
        <time>2025-05-02T13:31:30Z</time>
      </trkpt>
      <trkpt lat="41.436800993978977" lon="-7.216631965711713">
        <ele>370.73000000000002</ele>
        <time>2025-05-02T13:31:32Z</time>
      </trkpt>
      <trkpt lat="41.436792025342584" lon="-7.216460974887013">
        <ele>370.24000000000001</ele>
        <time>2025-05-02T13:31:33Z</time>
      </trkpt>
      <trkpt lat="41.436781967058778" lon="-7.216343963518739">
        <ele>369.27999999999997</ele>
        <time>2025-05-02T13:31:34Z</time>
      </trkpt>
      <trkpt lat="41.436781967058778" lon="-7.216343963518739">
        <ele>368.80000000000001</ele>
        <time>2025-05-02T13:31:35Z</time>
      </trkpt>
      <trkpt lat="41.436587003991008" lon="-7.216063002124429">
        <ele>368.31999999999999</ele>
        <time>2025-05-02T13:31:36Z</time>
      </trkpt>
      <trkpt lat="41.436078976839781" lon="-7.215331010520458">
        <ele>365.92000000000002</ele>
        <time>2025-05-02T13:31:41Z</time>
      </trkpt>
      <trkpt lat="41.43601099960506" lon="-7.215158008038998">
        <ele>365.92000000000002</ele>
        <time>2025-05-02T13:31:42Z</time>
      </trkpt>
      <trkpt lat="41.435952996835113" lon="-7.214975031092763">
        <ele>365.92000000000002</ele>
        <time>2025-05-02T13:31:43Z</time>
      </trkpt>
      <trkpt lat="41.435645967721939" lon="-7.213994013145566">
        <ele>365.92000000000002</ele>
        <time>2025-05-02T13:31:48Z</time>
      </trkpt>
      <trkpt lat="41.435600034892559" lon="-7.213853029534221">
        <ele>365.92000000000002</ele>
        <time>2025-05-02T13:31:49Z</time>
      </trkpt>
      <trkpt lat="41.435508001595736" lon="-7.213769964873791">
        <ele>365.92000000000002</ele>
        <time>2025-05-02T13:31:50Z</time>
      </trkpt>
      <trkpt lat="41.435418985784054" lon="-7.213690001517534">
        <ele>365.92000000000002</ele>
        <time>2025-05-02T13:31:51Z</time>
      </trkpt>
      <trkpt lat="41.435316978022456" lon="-7.213656976819038">
        <ele>365.92000000000002</ele>
        <time>2025-05-02T13:31:52Z</time>
      </trkpt>
      <trkpt lat="41.435193009674549" lon="-7.213650019839406">
        <ele>366.39999999999998</ele>
        <time>2025-05-02T13:31:53Z</time>
      </trkpt>
      <trkpt lat="41.435056971386075" lon="-7.213640967383981">
        <ele>366.39999999999998</ele>
        <time>2025-05-02T13:31:54Z</time>
      </trkpt>
      <trkpt lat="41.434338977560401" lon="-7.213585982099176">
        <ele>368.31999999999999</ele>
        <time>2025-05-02T13:31:59Z</time>
      </trkpt>
      <trkpt lat="41.43422900699079" lon="-7.213520016521215">
        <ele>368.80000000000001</ele>
        <time>2025-05-02T13:32:00Z</time>
      </trkpt>
      <trkpt lat="41.434114007279277" lon="-7.213452039286494">
        <ele>369.27999999999997</ele>
        <time>2025-05-02T13:32:01Z</time>
      </trkpt>
      <trkpt lat="41.433998001739383" lon="-7.21335900016129">
        <ele>369.27999999999997</ele>
        <time>2025-05-02T13:32:02Z</time>
      </trkpt>
      <trkpt lat="41.433898005634546" lon="-7.213238971307874">
        <ele>369.27999999999997</ele>
        <time>2025-05-02T13:32:03Z</time>
      </trkpt>
      <trkpt lat="41.433789040893316" lon="-7.213108967989683">
        <ele>369.27999999999997</ele>
        <time>2025-05-02T13:32:04Z</time>
      </trkpt>
      <trkpt lat="41.433677980676293" lon="-7.212942000478506">
        <ele>369.27999999999997</ele>
        <time>2025-05-02T13:32:05Z</time>
      </trkpt>
      <trkpt lat="41.433205995708704" lon="-7.21196198835969">
        <ele>367.36000000000001</ele>
        <time>2025-05-02T13:32:10Z</time>
      </trkpt>
      <trkpt lat="41.433104993775487" lon="-7.211827961727977">
        <ele>366.88</ele>
        <time>2025-05-02T13:32:11Z</time>
      </trkpt>
      <trkpt lat="41.433000974357128" lon="-7.211721008643508">
        <ele>366.39999999999998</ele>
        <time>2025-05-02T13:32:12Z</time>
      </trkpt>
      <trkpt lat="41.432270994409919" lon="-7.210917016491294">
        <ele>366.39999999999998</ele>
        <time>2025-05-02T13:32:20Z</time>
      </trkpt>
      <trkpt lat="41.431954996660352" lon="-7.210402032360435">
        <ele>366.39999999999998</ele>
        <time>2025-05-02T13:32:26Z</time>
      </trkpt>
      <trkpt lat="41.431867992505431" lon="-7.210260964930058">
        <ele>365.44</ele>
        <time>2025-05-02T13:32:34Z</time>
      </trkpt>
      <trkpt lat="41.431867992505431" lon="-7.210260964930058">
        <ele>365.44</ele>
        <time>2025-05-02T13:33:12Z</time>
      </trkpt>
      <trkpt lat="41.431867992505431" lon="-7.210260964930058">
        <ele>364.95999999999998</ele>
        <time>2025-05-02T13:34:07Z</time>
      </trkpt>
      <trkpt lat="41.431861035525799" lon="-7.210247972980142">
        <ele>365.92000000000002</ele>
        <time>2025-05-02T13:34:48Z</time>
      </trkpt>
      <trkpt lat="41.431836979463696" lon="-7.210210002958775">
        <ele>366.39999999999998</ele>
        <time>2025-05-02T13:34:49Z</time>
      </trkpt>
      <trkpt lat="41.431804038584232" lon="-7.210155017673969">
        <ele>366.39999999999998</ele>
        <time>2025-05-02T13:34:50Z</time>
      </trkpt>
      <trkpt lat="41.431686021387577" lon="-7.210030965507031">
        <ele>366.39999999999998</ele>
        <time>2025-05-02T13:34:52Z</time>
      </trkpt>
      <trkpt lat="41.430916981771588" lon="-7.209478011354804">
        <ele>367.83999999999997</ele>
        <time>2025-05-02T13:34:59Z</time>
      </trkpt>
      <trkpt lat="41.430414989590645" lon="-7.209091018885374">
        <ele>370.24000000000001</ele>
        <time>2025-05-02T13:35:04Z</time>
      </trkpt>
      <trkpt lat="41.43034097738564" lon="-7.208995968103409">
        <ele>370.24000000000001</ele>
        <time>2025-05-02T13:35:05Z</time>
      </trkpt>
      <trkpt lat="41.430265959352255" lon="-7.208871999755502">
        <ele>370.73000000000002</ele>
        <time>2025-05-02T13:35:06Z</time>
      </trkpt>
      <trkpt lat="41.430221032351255" lon="-7.208730010315776">
        <ele>370.73000000000002</ele>
        <time>2025-05-02T13:35:07Z</time>
      </trkpt>
      <trkpt lat="41.430175015702844" lon="-7.208583997562528">
        <ele>370.24000000000001</ele>
        <time>2025-05-02T13:35:08Z</time>
      </trkpt>
      <trkpt lat="41.430085999891162" lon="-7.208300018683076">
        <ele>370.24000000000001</ele>
        <time>2025-05-02T13:35:10Z</time>
      </trkpt>
      <trkpt lat="41.430041994899511" lon="-7.208164986222982">
        <ele>369.75999999999999</ele>
        <time>2025-05-02T13:35:11Z</time>
      </trkpt>
      <trkpt lat="41.429945016279817" lon="-7.208055015653372">
        <ele>369.27999999999997</ele>
        <time>2025-05-02T13:35:12Z</time>
      </trkpt>
      <trkpt lat="41.429377980530262" lon="-7.207403993234038">
        <ele>366.39999999999998</ele>
        <time>2025-05-02T13:35:18Z</time>
      </trkpt>
      <trkpt lat="41.429284019395709" lon="-7.207326963543892">
        <ele>366.39999999999998</ele>
        <time>2025-05-02T13:35:19Z</time>
      </trkpt>
      <trkpt lat="41.429169019684196" lon="-7.207308020442724">
        <ele>365.92000000000002</ele>
        <time>2025-05-02T13:35:20Z</time>
      </trkpt>
      <trkpt lat="41.429044967517257" lon="-7.207291005179286">
        <ele>365.92000000000002</ele>
        <time>2025-05-02T13:35:21Z</time>
      </trkpt>
      <trkpt lat="41.428924016654491" lon="-7.207314977422357">
        <ele>365.92000000000002</ele>
        <time>2025-05-02T13:35:22Z</time>
      </trkpt>
      <trkpt lat="41.427902011200786" lon="-7.207488985732198">
        <ele>368.31999999999999</ele>
        <time>2025-05-02T13:35:31Z</time>
      </trkpt>
      <trkpt lat="41.42716197296977" lon="-7.207588981837034">
        <ele>371.20999999999998</ele>
        <time>2025-05-02T13:35:39Z</time>
      </trkpt>
      <trkpt lat="41.427090978249907" lon="-7.207588981837034">
        <ele>371.69</ele>
        <time>2025-05-02T13:35:40Z</time>
      </trkpt>
      <trkpt lat="41.427044039592147" lon="-7.207550005987287">
        <ele>371.69</ele>
        <time>2025-05-02T13:35:41Z</time>
      </trkpt>
      <trkpt lat="41.42698897048831" lon="-7.207495020702481">
        <ele>372.17000000000002</ele>
        <time>2025-05-02T13:35:42Z</time>
      </trkpt>
      <trkpt lat="41.426869025453925" lon="-7.207374991849065">
        <ele>372.64999999999998</ele>
        <time>2025-05-02T13:35:43Z</time>
      </trkpt>
      <trkpt lat="41.426857961341739" lon="-7.207350013777614">
        <ele>373.13</ele>
        <time>2025-05-02T13:35:44Z</time>
      </trkpt>
      <trkpt lat="41.426809011027217" lon="-7.207239037379623">
        <ele>374.08999999999997</ele>
        <time>2025-05-02T13:35:45Z</time>
      </trkpt>
      <trkpt lat="41.426535006612539" lon="-7.206613998860121">
        <ele>376.00999999999999</ele>
        <time>2025-05-02T13:35:50Z</time>
      </trkpt>
      <trkpt lat="41.426483038812876" lon="-7.206494975835085">
        <ele>376.49000000000001</ele>
        <time>2025-05-02T13:35:51Z</time>
      </trkpt>
      <trkpt lat="41.426405003294349" lon="-7.20641702413559">
        <ele>376.97000000000003</ele>
        <time>2025-05-02T13:35:52Z</time>
      </trkpt>
      <trkpt lat="41.426328979432583" lon="-7.206342006102204">
        <ele>377.44999999999999</ele>
        <time>2025-05-02T13:35:53Z</time>
      </trkpt>
      <trkpt lat="41.426239963620901" lon="-7.20631199888885">
        <ele>377.94</ele>
        <time>2025-05-02T13:35:54Z</time>
      </trkpt>
      <trkpt lat="41.426133010536432" lon="-7.206294983625412">
        <ele>377.94</ele>
        <time>2025-05-02T13:35:55Z</time>
      </trkpt>
      <trkpt lat="41.426032008603215" lon="-7.206277968361974">
        <ele>378.42000000000002</ele>
        <time>2025-05-02T13:35:56Z</time>
      </trkpt>
      <trkpt lat="41.425646021962166" lon="-7.206216026097536">
        <ele>379.38</ele>
        <time>2025-05-02T13:36:00Z</time>
      </trkpt>
      <trkpt lat="41.425576033070683" lon="-7.206185013055801">
        <ele>379.38</ele>
        <time>2025-05-02T13:36:01Z</time>
      </trkpt>
      <trkpt lat="41.425452986732125" lon="-7.206130027770996">
        <ele>379.86000000000001</ele>
        <time>2025-05-02T13:36:02Z</time>
      </trkpt>
      <trkpt lat="41.425378974527121" lon="-7.206056015565991">
        <ele>380.33999999999997</ele>
        <time>2025-05-02T13:36:03Z</time>
      </trkpt>
      <trkpt lat="41.425289958715439" lon="-7.20596699975431">
        <ele>380.33999999999997</ele>
        <time>2025-05-02T13:36:04Z</time>
      </trkpt>
      <trkpt lat="41.424772040918469" lon="-7.20532301813364">
        <ele>382.25999999999999</ele>
        <time>2025-05-02T13:36:10Z</time>
      </trkpt>
      <trkpt lat="41.424701968207955" lon="-7.205165019258857">
        <ele>382.74000000000001</ele>
        <time>2025-05-02T13:36:11Z</time>
      </trkpt>
      <trkpt lat="41.424685036763549" lon="-7.205039961263537">
        <ele>382.74000000000001</ele>
        <time>2025-05-02T13:36:12Z</time>
      </trkpt>
      <trkpt lat="41.424607001245022" lon="-7.204278968274593">
        <ele>383.22000000000003</ele>
        <time>2025-05-02T13:36:17Z</time>
      </trkpt>
      <trkpt lat="41.424626028165221" lon="-7.204151982441545">
        <ele>383.22000000000003</ele>
        <time>2025-05-02T13:36:18Z</time>
      </trkpt>
      <trkpt lat="41.424652012065053" lon="-7.204044023528695">
        <ele>383.22000000000003</ele>
        <time>2025-05-02T13:36:19Z</time>
      </trkpt>
      <trkpt lat="41.424723006784916" lon="-7.203919971361756">
        <ele>383.69999999999999</ele>
        <time>2025-05-02T13:36:20Z</time>
      </trkpt>
      <trkpt lat="41.424800958484411" lon="-7.203859034925699">
        <ele>383.69999999999999</ele>
        <time>2025-05-02T13:36:21Z</time>
      </trkpt>
      <trkpt lat="41.424896009266376" lon="-7.203783011063933">
        <ele>383.69999999999999</ele>
        <time>2025-05-02T13:36:22Z</time>
      </trkpt>
      <trkpt lat="41.424997011199594" lon="-7.203703969717026">
        <ele>383.69999999999999</ele>
        <time>2025-05-02T13:36:23Z</time>
      </trkpt>
      <trkpt lat="41.425099018961191" lon="-7.203623000532389">
        <ele>384.18000000000001</ele>
        <time>2025-05-02T13:36:24Z</time>
      </trkpt>
      <trkpt lat="41.425188034772873" lon="-7.203524010255933">
        <ele>384.18000000000001</ele>
        <time>2025-05-02T13:36:25Z</time>
      </trkpt>
      <trkpt lat="41.425264980643988" lon="-7.203426025807858">
        <ele>384.18000000000001</ele>
        <time>2025-05-02T13:36:26Z</time>
      </trkpt>
      <trkpt lat="41.425304962322116" lon="-7.203298034146428">
        <ele>384.66000000000003</ele>
        <time>2025-05-02T13:36:27Z</time>
      </trkpt>
      <trkpt lat="41.425333963707089" lon="-7.203166019171476">
        <ele>384.66000000000003</ele>
        <time>2025-05-02T13:36:28Z</time>
      </trkpt>
      <trkpt lat="41.425364976748824" lon="-7.203026963397861">
        <ele>385.14999999999998</ele>
        <time>2025-05-02T13:36:29Z</time>
      </trkpt>
      <trkpt lat="41.425712993368506" lon="-7.201855005696416">
        <ele>387.06999999999999</ele>
        <time>2025-05-02T13:36:36Z</time>
      </trkpt>
      <trkpt lat="41.425791028887033" lon="-7.201698012650013">
        <ele>387.06999999999999</ele>
        <time>2025-05-02T13:36:37Z</time>
      </trkpt>
      <trkpt lat="41.425881972536445" lon="-7.201516963541508">
        <ele>387.55000000000001</ele>
        <time>2025-05-02T13:36:38Z</time>
      </trkpt>
      <trkpt lat="41.425963025540113" lon="-7.201428031548858">
        <ele>387.55000000000001</ele>
        <time>2025-05-02T13:36:39Z</time>
      </trkpt>
      <trkpt lat="41.426252033561468" lon="-7.20111002214253">
        <ele>388.02999999999997</ele>
        <time>2025-05-02T13:36:42Z</time>
      </trkpt>
      <trkpt lat="41.426325039938092" lon="-7.200993010774255">
        <ele>388.02999999999997</ele>
        <time>2025-05-02T13:36:43Z</time>
      </trkpt>
      <trkpt lat="41.426368961110711" lon="-7.20083300024271">
        <ele>388.02999999999997</ele>
        <time>2025-05-02T13:36:44Z</time>
      </trkpt>
      <trkpt lat="41.426719995215535" lon="-7.199487034231424">
        <ele>389.94999999999999</ele>
        <time>2025-05-02T13:36:51Z</time>
      </trkpt>
      <trkpt lat="41.426788978278637" lon="-7.199313025921583">
        <ele>390.43000000000001</ele>
        <time>2025-05-02T13:36:52Z</time>
      </trkpt>
      <trkpt lat="41.426851004362106" lon="-7.19915896654129">
        <ele>390.43000000000001</ele>
        <time>2025-05-02T13:36:53Z</time>
      </trkpt>
      <trkpt lat="41.426905989646912" lon="-7.199019994586706">
        <ele>390.91000000000003</ele>
        <time>2025-05-02T13:36:54Z</time>
      </trkpt>
      <trkpt lat="41.426952006295323" lon="-7.198906000703573">
        <ele>391.38999999999999</ele>
        <time>2025-05-02T13:36:55Z</time>
      </trkpt>
      <trkpt lat="41.426926022395492" lon="-7.198793012648821">
        <ele>391.87</ele>
        <time>2025-05-02T13:36:56Z</time>
      </trkpt>
      <trkpt lat="41.426889980211854" lon="-7.19866300933063">
        <ele>391.87</ele>
        <time>2025-05-02T13:36:57Z</time>
      </trkpt>
      <trkpt lat="41.426823008805513" lon="-7.198600983247161">
        <ele>391.87</ele>
        <time>2025-05-02T13:36:58Z</time>
      </trkpt>
      <trkpt lat="41.426733992993832" lon="-7.198520014062524">
        <ele>391.87</ele>
        <time>2025-05-02T13:36:59Z</time>
      </trkpt>
      <trkpt lat="41.426638020202518" lon="-7.198432004079223">
        <ele>391.38999999999999</ele>
        <time>2025-05-02T13:37:00Z</time>
      </trkpt>
      <trkpt lat="41.426526959985495" lon="-7.198369977995753">
        <ele>391.38999999999999</ele>
        <time>2025-05-02T13:37:01Z</time>
      </trkpt>
      <trkpt lat="41.42640802077949" lon="-7.198307029902935">
        <ele>390.91000000000003</ele>
        <time>2025-05-02T13:37:02Z</time>
      </trkpt>
      <trkpt lat="41.426294026896358" lon="-7.19825497828424">
        <ele>390.91000000000003</ele>
        <time>2025-05-02T13:37:03Z</time>
      </trkpt>
      <trkpt lat="41.426167963072658" lon="-7.19825497828424">
        <ele>390.91000000000003</ele>
        <time>2025-05-02T13:37:04Z</time>
      </trkpt>
      <trkpt lat="41.426052041351795" lon="-7.19825497828424">
        <ele>390.43000000000001</ele>
        <time>2025-05-02T13:37:05Z</time>
      </trkpt>
      <trkpt lat="41.425948021933436" lon="-7.19825497828424">
        <ele>390.43000000000001</ele>
        <time>2025-05-02T13:37:06Z</time>
      </trkpt>
      <trkpt lat="41.425849031656981" lon="-7.19825497828424">
        <ele>389.94999999999999</ele>
        <time>2025-05-02T13:37:07Z</time>
      </trkpt>
      <trkpt lat="41.425776025280356" lon="-7.198183983564377">
        <ele>389.94999999999999</ele>
        <time>2025-05-02T13:37:08Z</time>
      </trkpt>
      <trkpt lat="41.425666976720095" lon="-7.198062026873231">
        <ele>389.94999999999999</ele>
        <time>2025-05-02T13:37:09Z</time>
      </trkpt>
      <trkpt lat="41.425628000870347" lon="-7.197978040203452">
        <ele>390.43000000000001</ele>
        <time>2025-05-02T13:37:10Z</time>
      </trkpt>
      <trkpt lat="41.425566980615258" lon="-7.197850970551372">
        <ele>390.43000000000001</ele>
        <time>2025-05-02T13:37:11Z</time>
      </trkpt>
      <trkpt lat="41.42550403252244" lon="-7.19771602191031">
        <ele>390.43000000000001</ele>
        <time>2025-05-02T13:37:12Z</time>
      </trkpt>
      <trkpt lat="41.425436977297068" lon="-7.197575960308313">
        <ele>390.43000000000001</ele>
        <time>2025-05-02T13:37:13Z</time>
      </trkpt>
      <trkpt lat="41.425366988405585" lon="-7.197429025545716">
        <ele>389.94999999999999</ele>
        <time>2025-05-02T13:37:14Z</time>
      </trkpt>
      <trkpt lat="41.425280990079045" lon="-7.197246970608831">
        <ele>389.94999999999999</ele>
        <time>2025-05-02T13:37:15Z</time>
      </trkpt>
      <trkpt lat="41.425254000350833" lon="-7.197088971734047">
        <ele>389.47000000000003</ele>
        <time>2025-05-02T13:37:16Z</time>
      </trkpt>
      <trkpt lat="41.425061970949173" lon="-7.195974010974169">
        <ele>389.94999999999999</ele>
        <time>2025-05-02T13:37:22Z</time>
      </trkpt>
      <trkpt lat="41.424992987886071" lon="-7.19586999155581">
        <ele>389.94999999999999</ele>
        <time>2025-05-02T13:37:23Z</time>
      </trkpt>
      <trkpt lat="41.424906989559531" lon="-7.195811988785863">
        <ele>390.43000000000001</ele>
        <time>2025-05-02T13:37:24Z</time>
      </trkpt>
      <trkpt lat="41.424815040081739" lon="-7.19576396048069">
        <ele>390.43000000000001</ele>
        <time>2025-05-02T13:37:25Z</time>
      </trkpt>
      <trkpt lat="41.424720995128155" lon="-7.195712998509407">
        <ele>390.43000000000001</ele>
        <time>2025-05-02T13:37:26Z</time>
      </trkpt>
      <trkpt lat="41.424636002629995" lon="-7.195648038759828">
        <ele>389.94999999999999</ele>
        <time>2025-05-02T13:37:27Z</time>
      </trkpt>
      <trkpt lat="41.424565007910132" lon="-7.195549970492721">
        <ele>389.94999999999999</ele>
        <time>2025-05-02T13:37:28Z</time>
      </trkpt>
      <trkpt lat="41.424529971554875" lon="-7.195421978831291">
        <ele>389.47000000000003</ele>
        <time>2025-05-02T13:37:29Z</time>
      </trkpt>
      <trkpt lat="41.424499964341521" lon="-7.195274038240314">
        <ele>388.99000000000001</ele>
        <time>2025-05-02T13:37:30Z</time>
      </trkpt>
      <trkpt lat="41.424486972391605" lon="-7.195110004395247">
        <ele>388.50999999999999</ele>
        <time>2025-05-02T13:37:31Z</time>
      </trkpt>
      <trkpt lat="41.424486972391605" lon="-7.194928033277392">
        <ele>387.55000000000001</ele>
        <time>2025-05-02T13:37:32Z</time>
      </trkpt>
      <trkpt lat="41.424486972391605" lon="-7.194566018879414">
        <ele>386.58999999999997</ele>
        <time>2025-05-02T13:37:34Z</time>
      </trkpt>
      <trkpt lat="41.424454031512141" lon="-7.194399973377585">
        <ele>386.11000000000001</ele>
        <time>2025-05-02T13:37:35Z</time>
      </trkpt>
      <trkpt lat="41.424385970458388" lon="-7.194262007251382">
        <ele>385.63</ele>
        <time>2025-05-02T13:37:36Z</time>
      </trkpt>
      <trkpt lat="41.424298966303468" lon="-7.194127980619669">
        <ele>385.14999999999998</ele>
        <time>2025-05-02T13:37:37Z</time>
      </trkpt>
      <trkpt lat="41.424208022654057" lon="-7.193990014493465">
        <ele>384.66000000000003</ele>
        <time>2025-05-02T13:37:38Z</time>
      </trkpt>
      <trkpt lat="41.424036026000977" lon="-7.193727996200323">
        <ele>383.22000000000003</ele>
        <time>2025-05-02T13:37:40Z</time>
      </trkpt>
      <trkpt lat="41.423939969390631" lon="-7.193626994267106">
        <ele>382.74000000000001</ele>
        <time>2025-05-02T13:37:41Z</time>
      </trkpt>
      <trkpt lat="41.423821030184627" lon="-7.19354803673923">
        <ele>382.25999999999999</ele>
        <time>2025-05-02T13:37:42Z</time>
      </trkpt>
      <trkpt lat="41.423705024644732" lon="-7.193471007049084">
        <ele>381.77999999999997</ele>
        <time>2025-05-02T13:37:43Z</time>
      </trkpt>
      <trkpt lat="41.423584995791316" lon="-7.193424990400672">
        <ele>381.30000000000001</ele>
        <time>2025-05-02T13:37:44Z</time>
      </trkpt>
      <trkpt lat="41.4234649669379" lon="-7.193393977358937">
        <ele>380.81999999999999</ele>
        <time>2025-05-02T13:37:45Z</time>
      </trkpt>
      <trkpt lat="41.42333596944809" lon="-7.193365981802344">
        <ele>380.33999999999997</ele>
        <time>2025-05-02T13:37:46Z</time>
      </trkpt>
      <trkpt lat="41.423204960301518" lon="-7.19339900650084">
        <ele>379.38</ele>
        <time>2025-05-02T13:37:47Z</time>
      </trkpt>
      <trkpt lat="41.423060959205031" lon="-7.193434964865446">
        <ele>378.89999999999998</ele>
        <time>2025-05-02T13:37:48Z</time>
      </trkpt>
      <trkpt lat="41.422916958108544" lon="-7.193471007049084">
        <ele>377.94</ele>
        <time>2025-05-02T13:37:49Z</time>
      </trkpt>
      <trkpt lat="41.422662986442447" lon="-7.193534038960934">
        <ele>376.49000000000001</ele>
        <time>2025-05-02T13:37:51Z</time>
      </trkpt>
      <trkpt lat="41.422548992559314" lon="-7.19350403174758">
        <ele>375.52999999999997</ele>
        <time>2025-05-02T13:37:52Z</time>
      </trkpt>
      <trkpt lat="41.422450002282858" lon="-7.193476036190987">
        <ele>374.56999999999999</ele>
        <time>2025-05-02T13:37:53Z</time>
      </trkpt>
      <trkpt lat="41.422382025048137" lon="-7.193395989015698">
        <ele>373.61000000000001</ele>
        <time>2025-05-02T13:37:54Z</time>
      </trkpt>
      <trkpt lat="41.422308012843132" lon="-7.193275960162282">
        <ele>373.13</ele>
        <time>2025-05-02T13:37:55Z</time>
      </trkpt>
      <trkpt lat="41.422231988981366" lon="-7.193149980157614">
        <ele>372.64999999999998</ele>
        <time>2025-05-02T13:37:56Z</time>
      </trkpt>
      <trkpt lat="41.422159988433123" lon="-7.192994998767972">
        <ele>372.64999999999998</ele>
        <time>2025-05-02T13:37:57Z</time>
      </trkpt>
      <trkpt lat="41.421708958223462" lon="-7.191397994756699">
        <ele>371.69</ele>
        <time>2025-05-02T13:38:05Z</time>
      </trkpt>
      <trkpt lat="41.42150703817606" lon="-7.190479002892971">
        <ele>368.80000000000001</ele>
        <time>2025-05-02T13:38:10Z</time>
      </trkpt>
      <trkpt lat="41.421450041234493" lon="-7.19037096016109">
        <ele>368.31999999999999</ele>
        <time>2025-05-02T13:38:11Z</time>
      </trkpt>
      <trkpt lat="41.42138097435236" lon="-7.190300971269608">
        <ele>367.83999999999997</ele>
        <time>2025-05-02T13:38:12Z</time>
      </trkpt>
      <trkpt lat="41.421286007389426" lon="-7.190263001248241">
        <ele>367.36000000000001</ele>
        <time>2025-05-02T13:38:13Z</time>
      </trkpt>
      <trkpt lat="41.421189028769732" lon="-7.190229976549745">
        <ele>366.88</ele>
        <time>2025-05-02T13:38:14Z</time>
      </trkpt>
      <trkpt lat="41.421074029058218" lon="-7.190231988206506">
        <ele>366.88</ele>
        <time>2025-05-02T13:38:15Z</time>
      </trkpt>
      <trkpt lat="41.420940002426505" lon="-7.190233999863267">
        <ele>366.39999999999998</ele>
        <time>2025-05-02T13:38:16Z</time>
      </trkpt>
      <trkpt lat="41.41976703889668" lon="-7.190250009298325">
        <ele>361.58999999999997</ele>
        <time>2025-05-02T13:38:23Z</time>
      </trkpt>
      <trkpt lat="41.419613985344768" lon="-7.190279010683298">
        <ele>361.11000000000001</ele>
        <time>2025-05-02T13:38:24Z</time>
      </trkpt>
      <trkpt lat="41.419477025046945" lon="-7.190322009846568">
        <ele>360.14999999999998</ele>
        <time>2025-05-02T13:38:25Z</time>
      </trkpt>
      <trkpt lat="41.419335035607219" lon="-7.190393004566431">
        <ele>359.19</ele>
        <time>2025-05-02T13:38:26Z</time>
      </trkpt>
      <trkpt lat="41.419235039502382" lon="-7.190532982349396">
        <ele>358.70999999999998</ele>
        <time>2025-05-02T13:38:27Z</time>
      </trkpt>
      <trkpt lat="41.41912498511374" lon="-7.190687963739038">
        <ele>358.23000000000002</ele>
        <time>2025-05-02T13:38:28Z</time>
      </trkpt>
      <trkpt lat="41.419007973745465" lon="-7.190853003412485">
        <ele>357.75</ele>
        <time>2025-05-02T13:38:29Z</time>
      </trkpt>
      <trkpt lat="41.418881993740797" lon="-7.191030029207468">
        <ele>357.26999999999998</ele>
        <time>2025-05-02T13:38:30Z</time>
      </trkpt>
      <trkpt lat="41.417837021872401" lon="-7.192502981051803">
        <ele>351.98000000000002</ele>
        <time>2025-05-02T13:38:37Z</time>
      </trkpt>
      <trkpt lat="41.416123006492853" lon="-7.194916969165206">
        <ele>343.81</ele>
        <time>2025-05-02T13:38:48Z</time>
      </trkpt>
      <trkpt lat="41.415021037682891" lon="-7.196490000933409">
        <ele>339</ele>
        <time>2025-05-02T13:38:56Z</time>
      </trkpt>
      <trkpt lat="41.414949959143996" lon="-7.196650011464953">
        <ele>338.51999999999998</ele>
        <time>2025-05-02T13:38:57Z</time>
      </trkpt>
      <trkpt lat="41.414917018264532" lon="-7.196731986477971">
        <ele>337.56</ele>
        <time>2025-05-02T13:38:58Z</time>
      </trkpt>
      <trkpt lat="41.414935039356351" lon="-7.196953017264605">
        <ele>337.07999999999998</ele>
        <time>2025-05-02T13:38:59Z</time>
      </trkpt>
      <trkpt lat="41.414947025477886" lon="-7.19711403362453">
        <ele>337.07999999999998</ele>
        <time>2025-05-02T13:39:00Z</time>
      </trkpt>
      <trkpt lat="41.414960017427802" lon="-7.197274966165423">
        <ele>336.60000000000002</ele>
        <time>2025-05-02T13:39:01Z</time>
      </trkpt>
      <trkpt lat="41.4150429982692" lon="-7.198323039337993">
        <ele>334.68000000000001</ele>
        <time>2025-05-02T13:39:07Z</time>
      </trkpt>
      <trkpt lat="41.415017014369369" lon="-7.198520014062524">
        <ele>333.70999999999998</ele>
        <time>2025-05-02T13:39:08Z</time>
      </trkpt>
      <trkpt lat="41.414981978014112" lon="-7.198711959645152">
        <ele>333.23000000000002</ele>
        <time>2025-05-02T13:39:09Z</time>
      </trkpt>
      <trkpt lat="41.414931016042829" lon="-7.19887800514698">
        <ele>331.79000000000002</ele>
        <time>2025-05-02T13:39:10Z</time>
      </trkpt>
      <trkpt lat="41.414838982746005" lon="-7.199015971273184">
        <ele>330.82999999999998</ele>
        <time>2025-05-02T13:39:11Z</time>
      </trkpt>
      <trkpt lat="41.41474099829793" lon="-7.199162989854813">
        <ele>329.38999999999999</ele>
        <time>2025-05-02T13:39:12Z</time>
      </trkpt>
      <trkpt lat="41.414620969444513" lon="-7.199282012879849">
        <ele>328.91000000000003</ele>
        <time>2025-05-02T13:39:13Z</time>
      </trkpt>
      <trkpt lat="41.414475962519646" lon="-7.199390977621079">
        <ele>328.43000000000001</ele>
        <time>2025-05-02T13:39:14Z</time>
      </trkpt>
      <trkpt lat="41.414325004443526" lon="-7.199503965675831">
        <ele>327.94999999999999</ele>
        <time>2025-05-02T13:39:15Z</time>
      </trkpt>
      <trkpt lat="41.414165999740362" lon="-7.199597004801035">
        <ele>326.99000000000001</ele>
        <time>2025-05-02T13:39:16Z</time>
      </trkpt>
      <trkpt lat="41.414002971723676" lon="-7.199679985642433">
        <ele>326.5</ele>
        <time>2025-05-02T13:39:17Z</time>
      </trkpt>
      <trkpt lat="41.413065958768129" lon="-7.200155993923545">
        <ele>324.10000000000002</ele>
        <time>2025-05-02T13:39:23Z</time>
      </trkpt>
      <trkpt lat="41.412945007905364" lon="-7.200266970321536">
        <ele>323.13999999999999</ele>
        <time>2025-05-02T13:39:24Z</time>
      </trkpt>
      <trkpt lat="41.412843000143766" lon="-7.200405020266771">
        <ele>322.18000000000001</ele>
        <time>2025-05-02T13:39:25Z</time>
      </trkpt>
      <trkpt lat="41.412490038201213" lon="-7.201071968302131">
        <ele>318.32999999999998</ele>
        <time>2025-05-02T13:39:29Z</time>
      </trkpt>
      <trkpt lat="41.412388030439615" lon="-7.201212029904127">
        <ele>317.85000000000002</ele>
        <time>2025-05-02T13:39:30Z</time>
      </trkpt>
      <trkpt lat="41.412299014627934" lon="-7.201324012130499">
        <ele>316.88999999999999</ele>
        <time>2025-05-02T13:39:31Z</time>
      </trkpt>
      <trkpt lat="41.412137998268008" lon="-7.201416967436671">
        <ele>315.93000000000001</ele>
        <time>2025-05-02T13:39:32Z</time>
      </trkpt>
      <trkpt lat="41.411996008828282" lon="-7.201499026268721">
        <ele>314.97000000000003</ele>
        <time>2025-05-02T13:39:33Z</time>
      </trkpt>
      <trkpt lat="41.411851001903415" lon="-7.2015830129385">
        <ele>314.00999999999999</ele>
        <time>2025-05-02T13:39:34Z</time>
      </trkpt>
      <trkpt lat="41.411554031074047" lon="-7.201755009591579">
        <ele>312.08999999999997</ele>
        <time>2025-05-02T13:39:36Z</time>
      </trkpt>
      <trkpt lat="41.411400977522135" lon="-7.201817035675049">
        <ele>311.12</ele>
        <time>2025-05-02T13:39:37Z</time>
      </trkpt>
      <trkpt lat="41.41124096699059" lon="-7.201859029009938">
        <ele>310.16000000000003</ele>
        <time>2025-05-02T13:39:38Z</time>
      </trkpt>
      <trkpt lat="41.410354999825358" lon="-7.201846959069371">
        <ele>307.27999999999997</ele>
        <time>2025-05-02T13:39:44Z</time>
      </trkpt>
      <trkpt lat="41.410244023427367" lon="-7.20177797600627">
        <ele>306.80000000000001</ele>
        <time>2025-05-02T13:39:45Z</time>
      </trkpt>
      <trkpt lat="41.41016498208046" lon="-7.201665993779898">
        <ele>306.31999999999999</ele>
        <time>2025-05-02T13:39:46Z</time>
      </trkpt>
      <trkpt lat="41.410084012895823" lon="-7.201546970754862">
        <ele>305.83999999999997</ele>
        <time>2025-05-02T13:39:47Z</time>
      </trkpt>
      <trkpt lat="41.410007989034057" lon="-7.201437000185251">
        <ele>305.36000000000001</ele>
        <time>2025-05-02T13:39:48Z</time>
      </trkpt>
      <trkpt lat="41.409959960728884" lon="-7.201367011293769">
        <ele>304.88</ele>
        <time>2025-05-02T13:39:49Z</time>
      </trkpt>
      <trkpt lat="41.409819982945919" lon="-7.201367011293769">
        <ele>304.88</ele>
        <time>2025-05-02T13:39:50Z</time>
      </trkpt>
      <trkpt lat="41.409767009317875" lon="-7.201367011293769">
        <ele>304.38999999999999</ele>
        <time>2025-05-02T13:39:51Z</time>
      </trkpt>
      <trkpt lat="41.409696014598012" lon="-7.201437000185251">
        <ele>303.91000000000003</ele>
        <time>2025-05-02T13:39:52Z</time>
      </trkpt>
      <trkpt lat="41.409638011828065" lon="-7.201495002955198">
        <ele>303.43000000000001</ele>
        <time>2025-05-02T13:39:53Z</time>
      </trkpt>
      <trkpt lat="41.40958696603775" lon="-7.201636992394924">
        <ele>302.94999999999999</ele>
        <time>2025-05-02T13:39:54Z</time>
      </trkpt>
      <trkpt lat="41.409536004066467" lon="-7.20177797600627">
        <ele>302.47000000000003</ele>
        <time>2025-05-02T13:39:55Z</time>
      </trkpt>
      <trkpt lat="41.409481018781662" lon="-7.201933041214943">
        <ele>301.50999999999999</ele>
        <time>2025-05-02T13:39:56Z</time>
      </trkpt>
      <trkpt lat="41.409408012405038" lon="-7.202094979584217">
        <ele>301.02999999999997</ele>
        <time>2025-05-02T13:39:57Z</time>
      </trkpt>
      <trkpt lat="41.409329976886511" lon="-7.202231017872691">
        <ele>300.55000000000001</ele>
        <time>2025-05-02T13:39:58Z</time>
      </trkpt>
      <trkpt lat="41.409248001873493" lon="-7.202373007312417">
        <ele>300.06999999999999</ele>
        <time>2025-05-02T13:39:59Z</time>
      </trkpt>
      <trkpt lat="41.408475022763014" lon="-7.203097036108375">
        <ele>295.74000000000001</ele>
        <time>2025-05-02T13:40:06Z</time>
      </trkpt>
      <trkpt lat="41.40835901722312" lon="-7.203164007514715">
        <ele>295.25999999999999</ele>
        <time>2025-05-02T13:40:07Z</time>
      </trkpt>
      <trkpt lat="41.408236976712942" lon="-7.203163001686335">
        <ele>294.77999999999997</ele>
        <time>2025-05-02T13:40:08Z</time>
      </trkpt>
      <trkpt lat="41.408109990879893" lon="-7.203156966716051">
        <ele>294.30000000000001</ele>
        <time>2025-05-02T13:40:09Z</time>
      </trkpt>
      <trkpt lat="41.407978981733322" lon="-7.203150009736419">
        <ele>293.81999999999999</ele>
        <time>2025-05-02T13:40:10Z</time>
      </trkpt>
      <trkpt lat="41.406360017135739" lon="-7.202941970899701">
        <ele>288.05000000000001</ele>
        <time>2025-05-02T13:40:22Z</time>
      </trkpt>
      <trkpt lat="41.405941005796194" lon="-7.202771985903382">
        <ele>286.13</ele>
        <time>2025-05-02T13:40:25Z</time>
      </trkpt>
      <trkpt lat="41.405817037448287" lon="-7.202708031982184">
        <ele>286.13</ele>
        <time>2025-05-02T13:40:26Z</time>
      </trkpt>
      <trkpt lat="41.405708994716406" lon="-7.202628990635276">
        <ele>285.64999999999998</ele>
        <time>2025-05-02T13:40:27Z</time>
      </trkpt>
      <trkpt lat="41.405650991946459" lon="-7.202547015622258">
        <ele>285.17000000000002</ele>
        <time>2025-05-02T13:40:28Z</time>
      </trkpt>
      <trkpt lat="41.405603969469666" lon="-7.202481972053647">
        <ele>284.69</ele>
        <time>2025-05-02T13:40:29Z</time>
      </trkpt>
      <trkpt lat="41.40556700527668" lon="-7.202431010082364">
        <ele>284.20999999999998</ele>
        <time>2025-05-02T13:40:30Z</time>
      </trkpt>
      <trkpt lat="41.405486958101392" lon="-7.202329002320766">
        <ele>282.76999999999998</ele>
        <time>2025-05-02T13:40:35Z</time>
      </trkpt>
      <trkpt lat="41.40546097420156" lon="-7.202320033684373">
        <ele>281.31999999999999</ele>
        <time>2025-05-02T13:40:45Z</time>
      </trkpt>
      <trkpt lat="41.405462985858321" lon="-7.20302302390337">
        <ele>291.42000000000002</ele>
        <time>2025-05-02T13:48:22Z</time>
      </trkpt>
      <trkpt lat="41.405487963929772" lon="-7.202255995944142">
        <ele>283.73000000000002</ele>
        <time>2025-05-02T13:49:02Z</time>
      </trkpt>
      <trkpt lat="41.405477989464998" lon="-7.202250966802239">
        <ele>282.27999999999997</ele>
        <time>2025-05-02T13:49:42Z</time>
      </trkpt>
      <trkpt lat="41.405441025272012" lon="-7.202312992885709">
        <ele>282.27999999999997</ele>
        <time>2025-05-02T13:49:49Z</time>
      </trkpt>
      <trkpt lat="41.405411018058658" lon="-7.202304024249315">
        <ele>282.76999999999998</ele>
        <time>2025-05-02T13:49:50Z</time>
      </trkpt>
      <trkpt lat="41.405303981155157" lon="-7.202267982065678">
        <ele>282.76999999999998</ele>
        <time>2025-05-02T13:49:51Z</time>
      </trkpt>
      <trkpt lat="41.405303981155157" lon="-7.202267982065678">
        <ele>282.27999999999997</ele>
        <time>2025-05-02T13:49:52Z</time>
      </trkpt>
      <trkpt lat="41.405248995870352" lon="-7.202290026471019">
        <ele>281.80000000000001</ele>
        <time>2025-05-02T13:49:53Z</time>
      </trkpt>
      <trkpt lat="41.405179006978869" lon="-7.202336965128779">
        <ele>281.80000000000001</ele>
        <time>2025-05-02T13:49:54Z</time>
      </trkpt>
      <trkpt lat="41.405140031129122" lon="-7.202395973727107">
        <ele>281.80000000000001</ele>
        <time>2025-05-02T13:49:55Z</time>
      </trkpt>
      <trkpt lat="41.405111029744148" lon="-7.202438972890377">
        <ele>281.31999999999999</ele>
        <time>2025-05-02T13:49:56Z</time>
      </trkpt>
      <trkpt lat="41.405093008652329" lon="-7.202566964551806">
        <ele>281.31999999999999</ele>
        <time>2025-05-02T13:49:57Z</time>
      </trkpt>
      <trkpt lat="41.405081022530794" lon="-7.202654974535108">
        <ele>281.31999999999999</ele>
        <time>2025-05-02T13:49:58Z</time>
      </trkpt>
      <trkpt lat="41.405069036409259" lon="-7.202741978690028">
        <ele>281.31999999999999</ele>
        <time>2025-05-02T13:49:59Z</time>
      </trkpt>
      <trkpt lat="41.405057972297072" lon="-7.202823031693697">
        <ele>281.31999999999999</ele>
        <time>2025-05-02T13:50:00Z</time>
      </trkpt>
      <trkpt lat="41.404949007555842" lon="-7.203333992511034">
        <ele>279.39999999999998</ele>
        <time>2025-05-02T13:50:05Z</time>
      </trkpt>
      <trkpt lat="41.404912965372205" lon="-7.203408004716039">
        <ele>278.92000000000002</ele>
        <time>2025-05-02T13:50:06Z</time>
      </trkpt>
      <trkpt lat="41.40483601950109" lon="-7.203461984172463">
        <ele>278.44</ele>
        <time>2025-05-02T13:50:07Z</time>
      </trkpt>
      <trkpt lat="41.40419103205204" lon="-7.20390303991735">
        <ele>276.51999999999998</ele>
        <time>2025-05-02T13:50:13Z</time>
      </trkpt>
      <trkpt lat="41.404076032340527" lon="-7.203935980796814">
        <ele>276.04000000000002</ele>
        <time>2025-05-02T13:50:14Z</time>
      </trkpt>
      <trkpt lat="41.403962960466743" lon="-7.203966993838549">
        <ele>276.04000000000002</ele>
        <time>2025-05-02T13:50:15Z</time>
      </trkpt>
      <trkpt lat="41.403852989897132" lon="-7.203998006880283">
        <ele>275.56</ele>
        <time>2025-05-02T13:50:16Z</time>
      </trkpt>
      <trkpt lat="41.40376003459096" lon="-7.204090040177107">
        <ele>275.06999999999999</ele>
        <time>2025-05-02T13:50:17Z</time>
      </trkpt>
      <trkpt lat="41.403681999072433" lon="-7.204193975776434">
        <ele>274.58999999999997</ele>
        <time>2025-05-02T13:50:18Z</time>
      </trkpt>
      <trkpt lat="41.403601029887795" lon="-7.204303024336696">
        <ele>274.58999999999997</ele>
        <time>2025-05-02T13:50:19Z</time>
      </trkpt>
      <trkpt lat="41.40350203961134" lon="-7.204435039311647">
        <ele>274.58999999999997</ele>
        <time>2025-05-02T13:50:20Z</time>
      </trkpt>
      <trkpt lat="41.403416963294148" lon="-7.20448499545455">
        <ele>274.11000000000001</ele>
        <time>2025-05-02T13:50:21Z</time>
      </trkpt>
      <trkpt lat="41.403303975239396" lon="-7.20455196686089">
        <ele>274.11000000000001</ele>
        <time>2025-05-02T13:50:22Z</time>
      </trkpt>
      <trkpt lat="41.402355981990695" lon="-7.205223022028804">
        <ele>271.23000000000002</ele>
        <time>2025-05-02T13:50:31Z</time>
      </trkpt>
      <trkpt lat="41.402264032512903" lon="-7.205293010920286">
        <ele>271.23000000000002</ele>
        <time>2025-05-02T13:50:32Z</time>
      </trkpt>
      <trkpt lat="41.40215003862977" lon="-7.205379009246826">
        <ele>270.75</ele>
        <time>2025-05-02T13:50:33Z</time>
      </trkpt>
      <trkpt lat="41.402069991454482" lon="-7.205384960398078">
        <ele>270.26999999999998</ele>
        <time>2025-05-02T13:50:34Z</time>
      </trkpt>
      <trkpt lat="41.401965972036123" lon="-7.205392001196742">
        <ele>270.26999999999998</ele>
        <time>2025-05-02T13:50:35Z</time>
      </trkpt>
      <trkpt lat="41.401864970102906" lon="-7.205398958176374">
        <ele>269.79000000000002</ele>
        <time>2025-05-02T13:50:36Z</time>
      </trkpt>
      <trkpt lat="41.401762962341309" lon="-7.205361993983388">
        <ele>269.31</ele>
        <time>2025-05-02T13:50:37Z</time>
      </trkpt>
      <trkpt lat="41.40165600925684" lon="-7.205314971506596">
        <ele>269.31</ele>
        <time>2025-05-02T13:50:38Z</time>
      </trkpt>
      <trkpt lat="41.401575040072203" lon="-7.205238025635481">
        <ele>268.82999999999998</ele>
        <time>2025-05-02T13:50:39Z</time>
      </trkpt>
      <trkpt lat="41.401489041745663" lon="-7.205154960975051">
        <ele>268.82999999999998</ele>
        <time>2025-05-02T13:50:40Z</time>
      </trkpt>
      <trkpt lat="41.401069024577737" lon="-7.204686999320984">
        <ele>267.86000000000001</ele>
        <time>2025-05-02T13:50:45Z</time>
      </trkpt>
      <trkpt lat="41.40075696632266" lon="-7.204199004918337">
        <ele>266.42000000000002</ele>
        <time>2025-05-02T13:50:49Z</time>
      </trkpt>
      <trkpt lat="41.400683037936687" lon="-7.204089034348726">
        <ele>265.45999999999998</ele>
        <time>2025-05-02T13:50:50Z</time>
      </trkpt>
      <trkpt lat="41.400579018518329" lon="-7.204048968851566">
        <ele>264.5</ele>
        <time>2025-05-02T13:50:51Z</time>
      </trkpt>
      <trkpt lat="41.40047600492835" lon="-7.204008987173438">
        <ele>264.01999999999998</ele>
        <time>2025-05-02T13:50:52Z</time>
      </trkpt>
      <trkpt lat="41.400379026308656" lon="-7.203975962474942">
        <ele>263.54000000000002</ele>
        <time>2025-05-02T13:50:53Z</time>
      </trkpt>
      <trkpt lat="41.4002800360322" lon="-7.20394897274673">
        <ele>263.06</ele>
        <time>2025-05-02T13:50:54Z</time>
      </trkpt>
      <trkpt lat="41.400176016613841" lon="-7.203919971361756">
        <ele>262.57999999999998</ele>
        <time>2025-05-02T13:50:55Z</time>
      </trkpt>
      <trkpt lat="41.400090018287301" lon="-7.203837996348739">
        <ele>262.10000000000002</ele>
        <time>2025-05-02T13:50:56Z</time>
      </trkpt>
      <trkpt lat="41.399999996647239" lon="-7.203753003850579">
        <ele>261.62</ele>
        <time>2025-05-02T13:50:57Z</time>
      </trkpt>
      <trkpt lat="41.399908969178796" lon="-7.203665999695659">
        <ele>261.62</ele>
        <time>2025-05-02T13:50:58Z</time>
      </trkpt>
      <trkpt lat="41.399434972554445" lon="-7.203290993347764">
        <ele>260.17000000000002</ele>
        <time>2025-05-02T13:51:03Z</time>
      </trkpt>
      <trkpt lat="41.399340005591512" lon="-7.203270960599184">
        <ele>259.69</ele>
        <time>2025-05-02T13:51:04Z</time>
      </trkpt>
      <trkpt lat="41.399245960637927" lon="-7.203251011669636">
        <ele>259.20999999999998</ele>
        <time>2025-05-02T13:51:05Z</time>
      </trkpt>
      <trkpt lat="41.398297967389226" lon="-7.20306602306664">
        <ele>256.32999999999998</ele>
        <time>2025-05-02T13:51:13Z</time>
      </trkpt>
      <trkpt lat="41.397679969668388" lon="-7.202891008928418">
        <ele>254.41</ele>
        <time>2025-05-02T13:51:17Z</time>
      </trkpt>
      <trkpt lat="41.397537980228662" lon="-7.202874999493361">
        <ele>254.41</ele>
        <time>2025-05-02T13:51:18Z</time>
      </trkpt>
      <trkpt lat="41.397403031587601" lon="-7.202887991443276">
        <ele>254.88999999999999</ele>
        <time>2025-05-02T13:51:19Z</time>
      </trkpt>
      <trkpt lat="41.397278979420662" lon="-7.202945994213224">
        <ele>254.88999999999999</ele>
        <time>2025-05-02T13:51:20Z</time>
      </trkpt>
      <trkpt lat="41.397156016901135" lon="-7.203010031953454">
        <ele>254.88999999999999</ele>
        <time>2025-05-02T13:51:21Z</time>
      </trkpt>
      <trkpt lat="41.397026013582945" lon="-7.203078009188175">
        <ele>254.88999999999999</ele>
        <time>2025-05-02T13:51:22Z</time>
      </trkpt>
      <trkpt lat="41.395653979852796" lon="-7.203773958608508">
        <ele>256.81</ele>
        <time>2025-05-02T13:51:32Z</time>
      </trkpt>
      <trkpt lat="41.39540595933795" lon="-7.203852999955416">
        <ele>256.32999999999998</ele>
        <time>2025-05-02T13:51:34Z</time>
      </trkpt>
      <trkpt lat="41.395281990990043" lon="-7.203848976641893">
        <ele>256.32999999999998</ele>
        <time>2025-05-02T13:51:35Z</time>
      </trkpt>
      <trkpt lat="41.395150981843472" lon="-7.203845037147403">
        <ele>255.84999999999999</ele>
        <time>2025-05-02T13:51:36Z</time>
      </trkpt>
      <trkpt lat="41.395017961040139" lon="-7.2038400080055">
        <ele>255.37</ele>
        <time>2025-05-02T13:51:37Z</time>
      </trkpt>
      <trkpt lat="41.394883012399077" lon="-7.203835984691978">
        <ele>254.88999999999999</ele>
        <time>2025-05-02T13:51:38Z</time>
      </trkpt>
      <trkpt lat="41.394747979938984" lon="-7.203865991905332">
        <ele>253.93000000000001</ele>
        <time>2025-05-02T13:51:39Z</time>
      </trkpt>
      <trkpt lat="41.394606996327639" lon="-7.203917959704995">
        <ele>253.44</ele>
        <time>2025-05-02T13:51:40Z</time>
      </trkpt>
      <trkpt lat="41.39445997774601" lon="-7.203973028808832">
        <ele>252.47999999999999</ele>
        <time>2025-05-02T13:51:41Z</time>
      </trkpt>
      <trkpt lat="41.393910963088274" lon="-7.204176960512996">
        <ele>250.08000000000001</ele>
        <time>2025-05-02T13:51:45Z</time>
      </trkpt>
      <trkpt lat="41.393795041367412" lon="-7.204176960512996">
        <ele>250.08000000000001</ele>
        <time>2025-05-02T13:51:46Z</time>
      </trkpt>
      <trkpt lat="41.393697978928685" lon="-7.20414200797677">
        <ele>249.59999999999999</ele>
        <time>2025-05-02T13:51:47Z</time>
      </trkpt>
      <trkpt lat="41.393606029450893" lon="-7.204088028520346">
        <ele>249.12</ele>
        <time>2025-05-02T13:51:48Z</time>
      </trkpt>
      <trkpt lat="41.393516007810831" lon="-7.203995995223522">
        <ele>248.63999999999999</ele>
        <time>2025-05-02T13:51:49Z</time>
      </trkpt>
      <trkpt lat="41.393420035019517" lon="-7.203899016603828">
        <ele>248.63999999999999</ele>
        <time>2025-05-02T13:51:50Z</time>
      </trkpt>
      <trkpt lat="41.392458966001868" lon="-7.202922021970153">
        <ele>245.27000000000001</ele>
        <time>2025-05-02T13:51:58Z</time>
      </trkpt>
      <trkpt lat="41.392199965193868" lon="-7.202725969254971">
        <ele>244.31</ele>
        <time>2025-05-02T13:52:00Z</time>
      </trkpt>
      <trkpt lat="41.392069961875677" lon="-7.202665032818914">
        <ele>243.83000000000001</ele>
        <time>2025-05-02T13:52:01Z</time>
      </trkpt>
      <trkpt lat="41.391929984092712" lon="-7.20263603143394">
        <ele>243.34999999999999</ele>
        <time>2025-05-02T13:52:02Z</time>
      </trkpt>
      <trkpt lat="41.391787994652987" lon="-7.202643994241953">
        <ele>243.34999999999999</ele>
        <time>2025-05-02T13:52:03Z</time>
      </trkpt>
      <trkpt lat="41.391652040183544" lon="-7.202651035040617">
        <ele>242.87</ele>
        <time>2025-05-02T13:52:04Z</time>
      </trkpt>
      <trkpt lat="41.391522958874702" lon="-7.202696967869997">
        <ele>242.38999999999999</ele>
        <time>2025-05-02T13:52:05Z</time>
      </trkpt>
      <trkpt lat="41.391413994133472" lon="-7.202769974246621">
        <ele>242.38999999999999</ele>
        <time>2025-05-02T13:52:06Z</time>
      </trkpt>
      <trkpt lat="41.391327995806932" lon="-7.202871982008219">
        <ele>241.91</ele>
        <time>2025-05-02T13:52:07Z</time>
      </trkpt>
      <trkpt lat="41.39123797416687" lon="-7.202979018911719">
        <ele>241.43000000000001</ele>
        <time>2025-05-02T13:52:08Z</time>
      </trkpt>
      <trkpt lat="41.391149964183569" lon="-7.203083038330078">
        <ele>241.43000000000001</ele>
        <time>2025-05-02T13:52:09Z</time>
      </trkpt>
      <trkpt lat="41.391077963635325" lon="-7.203169036656618">
        <ele>240.47</ele>
        <time>2025-05-02T13:52:10Z</time>
      </trkpt>
      <trkpt lat="41.390975033864379" lon="-7.203169036656618">
        <ele>239.50999999999999</ele>
        <time>2025-05-02T13:52:11Z</time>
      </trkpt>
      <trkpt lat="41.390869002789259" lon="-7.203169036656618">
        <ele>238.53999999999999</ele>
        <time>2025-05-02T13:52:12Z</time>
      </trkpt>
      <trkpt lat="41.390760038048029" lon="-7.203169036656618">
        <ele>237.58000000000001</ele>
        <time>2025-05-02T13:52:13Z</time>
      </trkpt>
      <trkpt lat="41.390659958124161" lon="-7.203169036656618">
        <ele>237.09999999999999</ele>
        <time>2025-05-02T13:52:14Z</time>
      </trkpt>
      <trkpt lat="41.390564991161227" lon="-7.203169036656618">
        <ele>236.62</ele>
        <time>2025-05-02T13:52:15Z</time>
      </trkpt>
      <trkpt lat="41.39046298339963" lon="-7.203212035819888">
        <ele>236.13999999999999</ele>
        <time>2025-05-02T13:52:16Z</time>
      </trkpt>
      <trkpt lat="41.390369022265077" lon="-7.203285964205861">
        <ele>235.66</ele>
        <time>2025-05-02T13:52:17Z</time>
      </trkpt>
      <trkpt lat="41.390271037817001" lon="-7.203361988067627">
        <ele>235.18000000000001</ele>
        <time>2025-05-02T13:52:18Z</time>
      </trkpt>
      <trkpt lat="41.390166012570262" lon="-7.203443041071296">
        <ele>234.22</ele>
        <time>2025-05-02T13:52:19Z</time>
      </trkpt>
      <trkpt lat="41.39005403034389" lon="-7.203529039397836">
        <ele>233.25999999999999</ele>
        <time>2025-05-02T13:52:20Z</time>
      </trkpt>
      <trkpt lat="41.389939030632377" lon="-7.203617971390486">
        <ele>232.78</ele>
        <time>2025-05-02T13:52:21Z</time>
      </trkpt>
      <trkpt lat="41.389828976243734" lon="-7.203722996637225">
        <ele>231.81</ele>
        <time>2025-05-02T13:52:22Z</time>
      </trkpt>
      <trkpt lat="41.389742977917194" lon="-7.203851994127035">
        <ele>231.33000000000001</ele>
        <time>2025-05-02T13:52:23Z</time>
      </trkpt>
      <trkpt lat="41.389673994854093" lon="-7.204001024365425">
        <ele>230.84999999999999</ele>
        <time>2025-05-02T13:52:24Z</time>
      </trkpt>
      <trkpt lat="41.389610040932894" lon="-7.204153994098306">
        <ele>229.88999999999999</ele>
        <time>2025-05-02T13:52:25Z</time>
      </trkpt>
      <trkpt lat="41.389022972434759" lon="-7.205499960109592">
        <ele>223.16</ele>
        <time>2025-05-02T13:52:34Z</time>
      </trkpt>
      <trkpt lat="41.388954995200038" lon="-7.205590987578034">
        <ele>222.68000000000001</ele>
        <time>2025-05-02T13:52:35Z</time>
      </trkpt>
      <trkpt lat="41.388864973559976" lon="-7.205604985356331">
        <ele>222.19999999999999</ele>
        <time>2025-05-02T13:52:36Z</time>
      </trkpt>
      <trkpt lat="41.388781992718577" lon="-7.205614959821105">
        <ele>222.19999999999999</ele>
        <time>2025-05-02T13:52:37Z</time>
      </trkpt>
      <trkpt lat="41.388693982735276" lon="-7.205565003678203">
        <ele>221.72</ele>
        <time>2025-05-02T13:52:38Z</time>
      </trkpt>
      <trkpt lat="41.388605972751975" lon="-7.205503983423114">
        <ele>221.24000000000001</ele>
        <time>2025-05-02T13:52:39Z</time>
      </trkpt>
      <trkpt lat="41.388519974425435" lon="-7.205417985096574">
        <ele>220.75999999999999</ele>
        <time>2025-05-02T13:52:40Z</time>
      </trkpt>
      <trkpt lat="41.388435987755656" lon="-7.205333998426795">
        <ele>220.28</ele>
        <time>2025-05-02T13:52:41Z</time>
      </trkpt>
      <trkpt lat="41.388370022177696" lon="-7.205238025635481">
        <ele>220.28</ele>
        <time>2025-05-02T13:52:42Z</time>
      </trkpt>
      <trkpt lat="41.388306990265846" lon="-7.205137023702264">
        <ele>219.80000000000001</ele>
        <time>2025-05-02T13:52:43Z</time>
      </trkpt>
      <trkpt lat="41.388244964182377" lon="-7.205036021769047">
        <ele>218.84</ele>
        <time>2025-05-02T13:52:44Z</time>
      </trkpt>
      <trkpt lat="41.38823096640408" lon="-7.204905012622476">
        <ele>218.36000000000001</ele>
        <time>2025-05-02T13:52:45Z</time>
      </trkpt>
      <trkpt lat="41.388215962797403" lon="-7.20476302318275">
        <ele>217.88</ele>
        <time>2025-05-02T13:52:46Z</time>
      </trkpt>
      <trkpt lat="41.388200959190726" lon="-7.204619022086263">
        <ele>217.40000000000001</ele>
        <time>2025-05-02T13:52:47Z</time>
      </trkpt>
      <trkpt lat="41.3881850335747" lon="-7.203070968389511">
        <ele>209.22</ele>
        <time>2025-05-02T13:52:59Z</time>
      </trkpt>
      <trkpt lat="41.388196013867855" lon="-7.202957980334759">
        <ele>208.74000000000001</ele>
        <time>2025-05-02T13:53:00Z</time>
      </trkpt>
      <trkpt lat="41.388201965019107" lon="-7.202890003100038">
        <ele>208.25999999999999</ele>
        <time>2025-05-02T13:53:01Z</time>
      </trkpt>
      <trkpt lat="41.388155026361346" lon="-7.202804004773498">
        <ele>207.78</ele>
        <time>2025-05-02T13:53:02Z</time>
      </trkpt>
      <trkpt lat="41.388113033026457" lon="-7.202728986740112">
        <ele>207.30000000000001</ele>
        <time>2025-05-02T13:53:03Z</time>
      </trkpt>
      <trkpt lat="41.388070033863187" lon="-7.202666960656643">
        <ele>207.30000000000001</ele>
        <time>2025-05-02T13:53:04Z</time>
      </trkpt>
      <trkpt lat="41.388013958930969" lon="-7.202597977593541">
        <ele>207.30000000000001</ele>
        <time>2025-05-02T13:53:05Z</time>
      </trkpt>
      <trkpt lat="41.387956961989403" lon="-7.202527988702059">
        <ele>206.81999999999999</ele>
        <time>2025-05-02T13:53:06Z</time>
      </trkpt>
      <trkpt lat="41.387645993381739" lon="-7.202260019257665">
        <ele>206.34</ele>
        <time>2025-05-02T13:53:11Z</time>
      </trkpt>
      <trkpt lat="41.387578016147017" lon="-7.202230012044311">
        <ele>206.34</ele>
        <time>2025-05-02T13:53:12Z</time>
      </trkpt>
      <trkpt lat="41.387485982850194" lon="-7.202220959588885">
        <ele>205.38</ele>
        <time>2025-05-02T13:53:13Z</time>
      </trkpt>
      <trkpt lat="41.387399984523654" lon="-7.202278962358832">
        <ele>204.90000000000001</ele>
        <time>2025-05-02T13:53:14Z</time>
      </trkpt>
      <trkpt lat="41.387335024774075" lon="-7.202364960685372">
        <ele>203.94</ele>
        <time>2025-05-02T13:53:15Z</time>
      </trkpt>
      <trkpt lat="41.38726201839745" lon="-7.202463028952479">
        <ele>202.97999999999999</ele>
        <time>2025-05-02T13:53:16Z</time>
      </trkpt>
      <trkpt lat="41.386432964354753" lon="-7.20360497944057">
        <ele>198.16999999999999</ele>
        <time>2025-05-02T13:53:25Z</time>
      </trkpt>
      <trkpt lat="41.386348977684975" lon="-7.203751998022199">
        <ele>197.69</ele>
        <time>2025-05-02T13:53:26Z</time>
      </trkpt>
      <trkpt lat="41.386290974915028" lon="-7.203925000503659">
        <ele>197.21000000000001</ele>
        <time>2025-05-02T13:53:27Z</time>
      </trkpt>
      <trkpt lat="41.386232972145081" lon="-7.204109989106655">
        <ele>196.72999999999999</ele>
        <time>2025-05-02T13:53:28Z</time>
      </trkpt>
      <trkpt lat="41.385928960517049" lon="-7.205212041735649">
        <ele>196.25</ele>
        <time>2025-05-02T13:53:34Z</time>
      </trkpt>
      <trkpt lat="41.38588503934443" lon="-7.205371968448162">
        <ele>196.25</ele>
        <time>2025-05-02T13:53:35Z</time>
      </trkpt>
      <trkpt lat="41.38547801412642" lon="-7.206771997734904">
        <ele>195.28</ele>
        <time>2025-05-02T13:53:44Z</time>
      </trkpt>
      <trkpt lat="41.385408025234938" lon="-7.206854978576303">
        <ele>195.28</ele>
        <time>2025-05-02T13:53:45Z</time>
      </trkpt>
      <trkpt lat="41.385348010808229" lon="-7.206923961639404">
        <ele>195.77000000000001</ele>
        <time>2025-05-02T13:53:46Z</time>
      </trkpt>
      <trkpt lat="41.385289002209902" lon="-7.20704197883606">
        <ele>195.77000000000001</ele>
        <time>2025-05-02T13:53:47Z</time>
      </trkpt>
      <trkpt lat="41.385228987783194" lon="-7.207162007689476">
        <ele>195.77000000000001</ele>
        <time>2025-05-02T13:53:48Z</time>
      </trkpt>
      <trkpt lat="41.385162016376853" lon="-7.207296034321189">
        <ele>196.25</ele>
        <time>2025-05-02T13:53:49Z</time>
      </trkpt>
      <trkpt lat="41.384625993669033" lon="-7.208232963457704">
        <ele>197.69</ele>
        <time>2025-05-02T13:53:56Z</time>
      </trkpt>
      <trkpt lat="41.384376967325807" lon="-7.208606963977218">
        <ele>198.65000000000001</ele>
        <time>2025-05-02T13:53:59Z</time>
      </trkpt>
      <trkpt lat="41.383518995717168" lon="-7.210185024887323">
        <ele>200.56999999999999</ele>
        <time>2025-05-02T13:54:09Z</time>
      </trkpt>
      <trkpt lat="41.383185982704163" lon="-7.210800005123019">
        <ele>201.05000000000001</ele>
        <time>2025-05-02T13:54:14Z</time>
      </trkpt>
      <trkpt lat="41.383105013519526" lon="-7.210850967094302">
        <ele>201.53</ele>
        <time>2025-05-02T13:54:15Z</time>
      </trkpt>
      <trkpt lat="41.383036030456424" lon="-7.210891032591462">
        <ele>202.00999999999999</ele>
        <time>2025-05-02T13:54:16Z</time>
      </trkpt>
      <trkpt lat="41.382978027686477" lon="-7.210880974307656">
        <ele>202.97999999999999</ele>
        <time>2025-05-02T13:54:17Z</time>
      </trkpt>
      <trkpt lat="41.38292396441102" lon="-7.21086697652936">
        <ele>203.94</ele>
        <time>2025-05-02T13:54:18Z</time>
      </trkpt>
      <trkpt lat="41.382881971076131" lon="-7.210857002064586">
        <ele>204.41999999999999</ele>
        <time>2025-05-02T13:54:19Z</time>
      </trkpt>
      <trkpt lat="41.382804019376636" lon="-7.210839986801148">
        <ele>205.86000000000001</ele>
        <time>2025-05-02T13:54:21Z</time>
      </trkpt>
      <trkpt lat="41.38279496692121" lon="-7.210744014009833">
        <ele>206.34</ele>
        <time>2025-05-02T13:54:22Z</time>
      </trkpt>
      <trkpt lat="41.38279496692121" lon="-7.210744014009833">
        <ele>206.81999999999999</ele>
        <time>2025-05-02T13:54:23Z</time>
      </trkpt>
      <trkpt lat="41.382816005498171" lon="-7.210687017068267">
        <ele>207.78</ele>
        <time>2025-05-02T13:54:24Z</time>
      </trkpt>
      <trkpt lat="41.382848024368286" lon="-7.210601018741727">
        <ele>208.25999999999999</ele>
        <time>2025-05-02T13:54:25Z</time>
      </trkpt>
      <trkpt lat="41.382888006046414" lon="-7.210493981838226">
        <ele>208.74000000000001</ele>
        <time>2025-05-02T13:54:26Z</time>
      </trkpt>
      <trkpt lat="41.383440038189292" lon="-7.209468958899379">
        <ele>214.50999999999999</ele>
        <time>2025-05-02T13:54:33Z</time>
      </trkpt>
      <trkpt lat="41.384351989254355" lon="-7.207638015970588">
        <ele>223.63999999999999</ele>
        <time>2025-05-02T13:54:44Z</time>
      </trkpt>
      <trkpt lat="41.385194035246968" lon="-7.20572903752327">
        <ele>230.84999999999999</ele>
        <time>2025-05-02T13:54:54Z</time>
      </trkpt>
      <trkpt lat="41.385299982503057" lon="-7.20534598454833">
        <ele>230.84999999999999</ele>
        <time>2025-05-02T13:54:56Z</time>
      </trkpt>
      <trkpt lat="41.385674988850951" lon="-7.203568015247583">
        <ele>228.44999999999999</ele>
        <time>2025-05-02T13:55:05Z</time>
      </trkpt>
      <trkpt lat="41.385753024369478" lon="-7.203406998887658">
        <ele>228.44999999999999</ele>
        <time>2025-05-02T13:55:06Z</time>
      </trkpt>
      <trkpt lat="41.38584204018116" lon="-7.203255034983158">
        <ele>228.44999999999999</ele>
        <time>2025-05-02T13:55:07Z</time>
      </trkpt>
      <trkpt lat="41.385966008529067" lon="-7.203112961724401">
        <ele>228.44999999999999</ele>
        <time>2025-05-02T13:55:08Z</time>
      </trkpt>
      <trkpt lat="41.386091988533735" lon="-7.202968960627914">
        <ele>228.44999999999999</ele>
        <time>2025-05-02T13:55:09Z</time>
      </trkpt>
      <trkpt lat="41.386657012626529" lon="-7.202267982065678">
        <ele>229.88999999999999</ele>
        <time>2025-05-02T13:55:14Z</time>
      </trkpt>
      <trkpt lat="41.386721972376108" lon="-7.202138984575868">
        <ele>230.37</ele>
        <time>2025-05-02T13:55:15Z</time>
      </trkpt>
      <trkpt lat="41.386721972376108" lon="-7.202007975429297">
        <ele>230.37</ele>
        <time>2025-05-02T13:55:16Z</time>
      </trkpt>
      <trkpt lat="41.386721972376108" lon="-7.201860034838319">
        <ele>230.84999999999999</ele>
        <time>2025-05-02T13:55:17Z</time>
      </trkpt>
      <trkpt lat="41.386700011789799" lon="-7.201797002926469">
        <ele>231.33000000000001</ele>
        <time>2025-05-02T13:55:18Z</time>
      </trkpt>
      <trkpt lat="41.386662963777781" lon="-7.201688038185239">
        <ele>231.33000000000001</ele>
        <time>2025-05-02T13:55:19Z</time>
      </trkpt>
      <trkpt lat="41.386620970442891" lon="-7.201567003503442">
        <ele>231.33000000000001</ele>
        <time>2025-05-02T13:55:20Z</time>
      </trkpt>
      <trkpt lat="41.386575037613511" lon="-7.201430965214968">
        <ele>231.81</ele>
        <time>2025-05-02T13:55:21Z</time>
      </trkpt>
      <trkpt lat="41.386471018195152" lon="-7.201129971072078">
        <ele>231.81</ele>
        <time>2025-05-02T13:55:23Z</time>
      </trkpt>
      <trkpt lat="41.386445034295321" lon="-7.200974989682436">
        <ele>231.33000000000001</ele>
        <time>2025-05-02T13:55:24Z</time>
      </trkpt>
      <trkpt lat="41.386484010145068" lon="-7.200836017727852">
        <ele>231.33000000000001</ele>
        <time>2025-05-02T13:55:25Z</time>
      </trkpt>
      <trkpt lat="41.386538995429873" lon="-7.200734009966254">
        <ele>230.84999999999999</ele>
        <time>2025-05-02T13:55:26Z</time>
      </trkpt>
      <trkpt lat="41.386628011241555" lon="-7.200644994154573">
        <ele>230.84999999999999</ele>
        <time>2025-05-02T13:55:27Z</time>
      </trkpt>
      <trkpt lat="41.386731024831533" lon="-7.200576011091471">
        <ele>230.37</ele>
        <time>2025-05-02T13:55:28Z</time>
      </trkpt>
      <trkpt lat="41.386863961815834" lon="-7.200529994443059">
        <ele>230.37</ele>
        <time>2025-05-02T13:55:29Z</time>
      </trkpt>
      <trkpt lat="41.387365031987429" lon="-7.200357997789979">
        <ele>230.37</ele>
        <time>2025-05-02T13:55:33Z</time>
      </trkpt>
      <trkpt lat="41.387451030313969" lon="-7.200248027220368">
        <ele>230.37</ele>
        <time>2025-05-02T13:55:34Z</time>
      </trkpt>
      <trkpt lat="41.387518001720309" lon="-7.200149958953261">
        <ele>230.37</ele>
        <time>2025-05-02T13:55:35Z</time>
      </trkpt>
      <trkpt lat="41.387545997276902" lon="-7.200004030019045">
        <ele>230.37</ele>
        <time>2025-05-02T13:55:36Z</time>
      </trkpt>
      <trkpt lat="41.387580027803779" lon="-7.199821975082159">
        <ele>230.84999999999999</ele>
        <time>2025-05-02T13:55:37Z</time>
      </trkpt>
      <trkpt lat="41.387583967298269" lon="-7.199635980650783">
        <ele>231.33000000000001</ele>
        <time>2025-05-02T13:55:38Z</time>
      </trkpt>
      <trkpt lat="41.387582961469889" lon="-7.198607018217444">
        <ele>232.78</ele>
        <time>2025-05-02T13:55:43Z</time>
      </trkpt>
      <trkpt lat="41.387564018368721" lon="-7.198432004079223">
        <ele>232.78</ele>
        <time>2025-05-02T13:55:44Z</time>
      </trkpt>
      <trkpt lat="41.387511966750026" lon="-7.198281968012452">
        <ele>233.25999999999999</ele>
        <time>2025-05-02T13:55:45Z</time>
      </trkpt>
      <trkpt lat="41.387233017012477" lon="-7.19767302274704">
        <ele>233.25999999999999</ele>
        <time>2025-05-02T13:55:50Z</time>
      </trkpt>
      <trkpt lat="41.387160010635853" lon="-7.197595993056893">
        <ele>233.25999999999999</ele>
        <time>2025-05-02T13:55:51Z</time>
      </trkpt>
      <trkpt lat="41.387063032016158" lon="-7.197530027478933">
        <ele>232.78</ele>
        <time>2025-05-02T13:55:52Z</time>
      </trkpt>
      <trkpt lat="41.386957000941038" lon="-7.19745903275907">
        <ele>232.30000000000001</ele>
        <time>2025-05-02T13:55:53Z</time>
      </trkpt>
      <trkpt lat="41.386845018714666" lon="-7.197383008897305">
        <ele>231.81</ele>
        <time>2025-05-02T13:55:54Z</time>
      </trkpt>
      <trkpt lat="41.386598004028201" lon="-7.197216041386128">
        <ele>230.84999999999999</ele>
        <time>2025-05-02T13:55:56Z</time>
      </trkpt>
      <trkpt lat="41.386474035680294" lon="-7.197126019746065">
        <ele>230.37</ele>
        <time>2025-05-02T13:55:57Z</time>
      </trkpt>
      <trkpt lat="41.386366998776793" lon="-7.19700800254941">
        <ele>229.88999999999999</ele>
        <time>2025-05-02T13:55:58Z</time>
      </trkpt>
      <trkpt lat="41.386262979358435" lon="-7.196893002837896">
        <ele>229.88999999999999</ele>
        <time>2025-05-02T13:55:59Z</time>
      </trkpt>
      <trkpt lat="41.386161977425218" lon="-7.196782026439905">
        <ele>229.41</ele>
        <time>2025-05-02T13:56:00Z</time>
      </trkpt>
      <trkpt lat="41.386077990755439" lon="-7.196688987314701">
        <ele>228.93000000000001</ele>
        <time>2025-05-02T13:56:01Z</time>
      </trkpt>
      <trkpt lat="41.385999033227563" lon="-7.196559989824891">
        <ele>228.93000000000001</ele>
        <time>2025-05-02T13:56:02Z</time>
      </trkpt>
      <trkpt lat="41.385934995487332" lon="-7.196457982063294">
        <ele>228.93000000000001</ele>
        <time>2025-05-02T13:56:03Z</time>
      </trkpt>
      <trkpt lat="41.385905994102359" lon="-7.196348011493683">
        <ele>228.44999999999999</ele>
        <time>2025-05-02T13:56:04Z</time>
      </trkpt>
      <trkpt lat="41.385905994102359" lon="-7.196260001510382">
        <ele>228.44999999999999</ele>
        <time>2025-05-02T13:56:05Z</time>
      </trkpt>
      <trkpt lat="41.385954022407532" lon="-7.196182971820235">
        <ele>228.44999999999999</ele>
        <time>2025-05-02T13:56:06Z</time>
      </trkpt>
      <trkpt lat="41.38601403683424" lon="-7.196088004857302">
        <ele>228.44999999999999</ele>
        <time>2025-05-02T13:56:07Z</time>
      </trkpt>
      <trkpt lat="41.386094000190496" lon="-7.196067972108722">
        <ele>228.44999999999999</ele>
        <time>2025-05-02T13:56:08Z</time>
      </trkpt>
      <trkpt lat="41.386203970760107" lon="-7.196039976552129">
        <ele>228.44999999999999</ele>
        <time>2025-05-02T13:56:09Z</time>
      </trkpt>
      <trkpt lat="41.386327017098665" lon="-7.196009969338775">
        <ele>228.44999999999999</ele>
        <time>2025-05-02T13:56:10Z</time>
      </trkpt>
      <trkpt lat="41.386548969894648" lon="-7.195953978225589">
        <ele>229.41</ele>
        <time>2025-05-02T13:56:12Z</time>
      </trkpt>
      <trkpt lat="41.386644020676613" lon="-7.195905027911067">
        <ele>229.41</ele>
        <time>2025-05-02T13:56:13Z</time>
      </trkpt>
      <trkpt lat="41.386715015396476" lon="-7.195823974907398">
        <ele>229.88999999999999</ele>
        <time>2025-05-02T13:56:14Z</time>
      </trkpt>
      <trkpt lat="41.386790033429861" lon="-7.195729007944465">
        <ele>230.37</ele>
        <time>2025-05-02T13:56:15Z</time>
      </trkpt>
      <trkpt lat="41.386820962652564" lon="-7.195595987141132">
        <ele>230.84999999999999</ele>
        <time>2025-05-02T13:56:16Z</time>
      </trkpt>
      <trkpt lat="41.38685398735106" lon="-7.195453997701407">
        <ele>231.33000000000001</ele>
        <time>2025-05-02T13:56:17Z</time>
      </trkpt>
      <trkpt lat="41.386869996786118" lon="-7.195297004655004">
        <ele>231.81</ele>
        <time>2025-05-02T13:56:18Z</time>
      </trkpt>
      <trkpt lat="41.386864967644215" lon="-7.195136994123459">
        <ele>232.30000000000001</ele>
        <time>2025-05-02T13:56:19Z</time>
      </trkpt>
      <trkpt lat="41.386861028149724" lon="-7.194983018562198">
        <ele>232.78</ele>
        <time>2025-05-02T13:56:20Z</time>
      </trkpt>
      <trkpt lat="41.386826997622848" lon="-7.194526959210634">
        <ele>233.74000000000001</ele>
        <time>2025-05-02T13:56:23Z</time>
      </trkpt>
      <trkpt lat="41.38678902760148" lon="-7.194393016397953">
        <ele>234.22</ele>
        <time>2025-05-02T13:56:24Z</time>
      </trkpt>
      <trkpt lat="41.386750973761082" lon="-7.194259995594621">
        <ele>234.22</ele>
        <time>2025-05-02T13:56:25Z</time>
      </trkpt>
      <trkpt lat="41.386704035103321" lon="-7.194123035296798">
        <ele>234.69999999999999</ele>
        <time>2025-05-02T13:56:26Z</time>
      </trkpt>
      <trkpt lat="41.386636979877949" lon="-7.193995965644717">
        <ele>235.18000000000001</ele>
        <time>2025-05-02T13:56:27Z</time>
      </trkpt>
      <trkpt lat="41.386566990986466" lon="-7.193864034488797">
        <ele>234.69999999999999</ele>
        <time>2025-05-02T13:56:28Z</time>
      </trkpt>
      <trkpt lat="41.386494990438223" lon="-7.193726990371943">
        <ele>234.69999999999999</ele>
        <time>2025-05-02T13:56:29Z</time>
      </trkpt>
      <trkpt lat="41.386420978233218" lon="-7.193586006760597">
        <ele>234.22</ele>
        <time>2025-05-02T13:56:30Z</time>
      </trkpt>
      <trkpt lat="41.385825024917722" lon="-7.19245595857501">
        <ele>231.33000000000001</ele>
        <time>2025-05-02T13:56:38Z</time>
      </trkpt>
      <trkpt lat="41.385439038276672" lon="-7.191684991121292">
        <ele>228.93000000000001</ele>
        <time>2025-05-02T13:56:43Z</time>
      </trkpt>
      <trkpt lat="41.385396961122751" lon="-7.191517017781735">
        <ele>228.93000000000001</ele>
        <time>2025-05-02T13:56:44Z</time>
      </trkpt>
      <trkpt lat="41.385356979444623" lon="-7.191360024735332">
        <ele>228.44999999999999</ele>
        <time>2025-05-02T13:56:45Z</time>
      </trkpt>
      <trkpt lat="41.385361002758145" lon="-7.191214011982083">
        <ele>228.44999999999999</ele>
        <time>2025-05-02T13:56:46Z</time>
      </trkpt>
      <trkpt lat="41.385380029678345" lon="-7.1910560131073">
        <ele>227.97</ele>
        <time>2025-05-02T13:56:47Z</time>
      </trkpt>
      <trkpt lat="41.385408025234938" lon="-7.190894996747375">
        <ele>227.97</ele>
        <time>2025-05-02T13:56:48Z</time>
      </trkpt>
      <trkpt lat="41.385912029072642" lon="-7.188903037458658">
        <ele>229.41</ele>
        <time>2025-05-02T13:56:59Z</time>
      </trkpt>
      <trkpt lat="41.386362975463271" lon="-7.186709996312857">
        <ele>231.81</ele>
        <time>2025-05-02T13:57:11Z</time>
      </trkpt>
      <trkpt lat="41.386392982676625" lon="-7.186133991926909">
        <ele>232.78</ele>
        <time>2025-05-02T13:57:15Z</time>
      </trkpt>
      <trkpt lat="41.386377979069948" lon="-7.185916984453797">
        <ele>233.74000000000001</ele>
        <time>2025-05-02T13:57:22Z</time>
      </trkpt>
      <trkpt lat="41.386331040412188" lon="-7.185830986127257">
        <ele>234.22</ele>
        <time>2025-05-02T13:57:32Z</time>
      </trkpt>
      <trkpt lat="41.386318970471621" lon="-7.185809025540948">
        <ele>234.22</ele>
        <time>2025-05-02T13:57:33Z</time>
      </trkpt>
      <trkpt lat="41.386021999642253" lon="-7.185538960620761">
        <ele>233.74000000000001</ele>
        <time>2025-05-02T13:57:38Z</time>
      </trkpt>
      <trkpt lat="41.385929966345429" lon="-7.185481963679195">
        <ele>233.74000000000001</ele>
        <time>2025-05-02T13:57:39Z</time>
      </trkpt>
      <trkpt lat="41.385875986889005" lon="-7.185375010594726">
        <ele>233.25999999999999</ele>
        <time>2025-05-02T13:57:40Z</time>
      </trkpt>
      <trkpt lat="41.385842962190509" lon="-7.185250958427787">
        <ele>232.78</ele>
        <time>2025-05-02T13:57:41Z</time>
      </trkpt>
      <trkpt lat="41.385852014645934" lon="-7.185116009786725">
        <ele>232.30000000000001</ele>
        <time>2025-05-02T13:57:42Z</time>
      </trkpt>
      <trkpt lat="41.385862994939089" lon="-7.184950970113277">
        <ele>231.81</ele>
        <time>2025-05-02T13:57:43Z</time>
      </trkpt>
      <trkpt lat="41.385909011587501" lon="-7.184819038957357">
        <ele>230.84999999999999</ele>
        <time>2025-05-02T13:57:44Z</time>
      </trkpt>
      <trkpt lat="41.386115960776806" lon="-7.184082018211484">
        <ele>229.41</ele>
        <time>2025-05-02T13:57:50Z</time>
      </trkpt>
      <trkpt lat="41.386110009625554" lon="-7.183956038206816">
        <ele>229.41</ele>
        <time>2025-05-02T13:57:51Z</time>
      </trkpt>
      <trkpt lat="41.386104980483651" lon="-7.183830980211496">
        <ele>229.41</ele>
        <time>2025-05-02T13:57:52Z</time>
      </trkpt>
      <trkpt lat="41.386087965220213" lon="-7.183685973286629">
        <ele>229.41</ele>
        <time>2025-05-02T13:57:53Z</time>
      </trkpt>
      <trkpt lat="41.386026022955775" lon="-7.183572985231876">
        <ele>228.93000000000001</ele>
        <time>2025-05-02T13:57:54Z</time>
      </trkpt>
      <trkpt lat="41.385959973558784" lon="-7.183453040197492">
        <ele>228.93000000000001</ele>
        <time>2025-05-02T13:57:55Z</time>
      </trkpt>
      <trkpt lat="41.385899959132075" lon="-7.18334399163723">
        <ele>228.44999999999999</ele>
        <time>2025-05-02T13:57:56Z</time>
      </trkpt>
      <trkpt lat="41.385847991332412" lon="-7.183258999139071">
        <ele>227.97</ele>
        <time>2025-05-02T13:57:57Z</time>
      </trkpt>
      <trkpt lat="41.385803986340761" lon="-7.183204013854265">
        <ele>227.97</ele>
        <time>2025-05-02T13:57:58Z</time>
      </trkpt>
      <trkpt lat="41.385656967759132" lon="-7.183023970574141">
        <ele>226.05000000000001</ele>
        <time>2025-05-02T13:58:07Z</time>
      </trkpt>
      <trkpt lat="41.385649004951119" lon="-7.183013996109366">
        <ele>226.53</ele>
        <time>2025-05-02T13:58:19Z</time>
      </trkpt>
      <trkpt lat="41.385649004951119" lon="-7.183013996109366">
        <ele>226.53</ele>
        <time>2025-05-02T13:58:39Z</time>
      </trkpt>
      <trkpt lat="41.385649004951119" lon="-7.183013996109366">
        <ele>226.05000000000001</ele>
        <time>2025-05-02T13:59:27Z</time>
      </trkpt>
      <trkpt lat="41.385556971654296" lon="-7.182901008054614">
        <ele>228.44999999999999</ele>
        <time>2025-05-02T14:00:13Z</time>
      </trkpt>
      <trkpt lat="41.385332001373172" lon="-7.182621974498034">
        <ele>227.00999999999999</ele>
        <time>2025-05-02T14:00:17Z</time>
      </trkpt>
      <trkpt lat="41.385169979184866" lon="-7.182422988116741">
        <ele>226.05000000000001</ele>
        <time>2025-05-02T14:00:19Z</time>
      </trkpt>
      <trkpt lat="41.384283006191254" lon="-7.181419003754854">
        <ele>220.28</ele>
        <time>2025-05-02T14:00:28Z</time>
      </trkpt>
      <trkpt lat="41.384200025349855" lon="-7.181290006265044">
        <ele>219.80000000000001</ele>
        <time>2025-05-02T14:00:29Z</time>
      </trkpt>
      <trkpt lat="41.384118972346187" lon="-7.181156985461712">
        <ele>219.31999999999999</ele>
        <time>2025-05-02T14:00:30Z</time>
      </trkpt>
      <trkpt lat="41.383675988763571" lon="-7.179713035002351">
        <ele>217.88</ele>
        <time>2025-05-02T14:00:39Z</time>
      </trkpt>
      <trkpt lat="41.3832220248878" lon="-7.177732978016138">
        <ele>222.19999999999999</ele>
        <time>2025-05-02T14:00:51Z</time>
      </trkpt>
      <trkpt lat="41.382768983021379" lon="-7.176459012553096">
        <ele>222.68000000000001</ele>
        <time>2025-05-02T14:00:58Z</time>
      </trkpt>
      <trkpt lat="41.382735036313534" lon="-7.1762740239501">
        <ele>222.19999999999999</ele>
        <time>2025-05-02T14:00:59Z</time>
      </trkpt>
      <trkpt lat="41.382712991908193" lon="-7.176090963184834">
        <ele>222.19999999999999</ele>
        <time>2025-05-02T14:01:00Z</time>
      </trkpt>
      <trkpt lat="41.382691031321883" lon="-7.175912009552121">
        <ele>222.19999999999999</ele>
        <time>2025-05-02T14:01:01Z</time>
      </trkpt>
      <trkpt lat="41.382668986916542" lon="-7.175733977928758">
        <ele>222.19999999999999</ele>
        <time>2025-05-02T14:01:02Z</time>
      </trkpt>
      <trkpt lat="41.382624981924891" lon="-7.175375986844301">
        <ele>221.72</ele>
        <time>2025-05-02T14:01:04Z</time>
      </trkpt>
      <trkpt lat="41.382602015510201" lon="-7.175187980756164">
        <ele>221.72</ele>
        <time>2025-05-02T14:01:05Z</time>
      </trkpt>
      <trkpt lat="41.38253697194159" lon="-7.175019001588225">
        <ele>221.72</ele>
        <time>2025-05-02T14:01:06Z</time>
      </trkpt>
      <trkpt lat="41.381892990320921" lon="-7.173333987593651">
        <ele>219.31999999999999</ele>
        <time>2025-05-02T14:01:16Z</time>
      </trkpt>
      <trkpt lat="41.381879998371005" lon="-7.173256035894156">
        <ele>219.31999999999999</ele>
        <time>2025-05-02T14:01:17Z</time>
      </trkpt>
      <trkpt lat="41.38191101141274" lon="-7.173172971233726">
        <ele>218.84</ele>
        <time>2025-05-02T14:01:18Z</time>
      </trkpt>
      <trkpt lat="41.381943030282855" lon="-7.173084961250424">
        <ele>218.36000000000001</ele>
        <time>2025-05-02T14:01:19Z</time>
      </trkpt>
      <trkpt lat="41.382002038881183" lon="-7.173014972358942">
        <ele>217.88</ele>
        <time>2025-05-02T14:01:20Z</time>
      </trkpt>
      <trkpt lat="41.382089965045452" lon="-7.172958981245756">
        <ele>218.36000000000001</ele>
        <time>2025-05-02T14:01:21Z</time>
      </trkpt>
      <trkpt lat="41.382187027484179" lon="-7.172897960990667">
        <ele>217.40000000000001</ele>
        <time>2025-05-02T14:01:22Z</time>
      </trkpt>
      <trkpt lat="41.382669992744923" lon="-7.172540975734592">
        <ele>217.88</ele>
        <time>2025-05-02T14:01:27Z</time>
      </trkpt>
      <trkpt lat="41.383418999612331" lon="-7.171461973339319">
        <ele>221.72</ele>
        <time>2025-05-02T14:01:35Z</time>
      </trkpt>
      <trkpt lat="41.383667020127177" lon="-7.171028964221478">
        <ele>223.63999999999999</ele>
        <time>2025-05-02T14:01:38Z</time>
      </trkpt>
      <trkpt lat="41.383720999583602" lon="-7.170877000316978">
        <ele>224.12</ele>
        <time>2025-05-02T14:01:39Z</time>
      </trkpt>
      <trkpt lat="41.383747989311814" lon="-7.170713972300291">
        <ele>224.61000000000001</ele>
        <time>2025-05-02T14:01:40Z</time>
      </trkpt>
      <trkpt lat="41.383959967643023" lon="-7.16914102435112">
        <ele>227.49000000000001</ele>
        <time>2025-05-02T14:01:50Z</time>
      </trkpt>
      <trkpt lat="41.384134981781244" lon="-7.167753987014294">
        <ele>227.00999999999999</ele>
        <time>2025-05-02T14:02:00Z</time>
      </trkpt>
      <trkpt lat="41.384384008124471" lon="-7.16591902077198">
        <ele>224.12</ele>
        <time>2025-05-02T14:02:12Z</time>
      </trkpt>
      <trkpt lat="41.384398005902767" lon="-7.165817013010383">
        <ele>223.16</ele>
        <time>2025-05-02T14:02:13Z</time>
      </trkpt>
      <trkpt lat="41.384404040873051" lon="-7.165724979713559">
        <ele>222.68000000000001</ele>
        <time>2025-05-02T14:02:14Z</time>
      </trkpt>
      <trkpt lat="41.384404040873051" lon="-7.165652979165316">
        <ele>222.19999999999999</ele>
        <time>2025-05-02T14:02:15Z</time>
      </trkpt>
      <trkpt lat="41.384304966777563" lon="-7.165519958361983">
        <ele>221.24000000000001</ele>
        <time>2025-05-02T14:02:16Z</time>
      </trkpt>
      <trkpt lat="41.3842529989779" lon="-7.165523981675506">
        <ele>220.75999999999999</ele>
        <time>2025-05-02T14:02:17Z</time>
      </trkpt>
      <trkpt lat="41.384183010086417" lon="-7.16553102247417">
        <ele>219.80000000000001</ele>
        <time>2025-05-02T14:02:18Z</time>
      </trkpt>
      <trkpt lat="41.384097011759877" lon="-7.165542002767324">
        <ele>219.31999999999999</ele>
        <time>2025-05-02T14:02:19Z</time>
      </trkpt>
      <trkpt lat="41.383997015655041" lon="-7.165557006374002">
        <ele>218.84</ele>
        <time>2025-05-02T14:02:20Z</time>
      </trkpt>
      <trkpt lat="41.383354961872101" lon="-7.165732020512223">
        <ele>219.31999999999999</ele>
        <time>2025-05-02T14:02:25Z</time>
      </trkpt>
      <trkpt lat="41.382206976413727" lon="-7.166454959660769">
        <ele>226.05000000000001</ele>
        <time>2025-05-02T14:02:33Z</time>
      </trkpt>
      <trkpt lat="41.38146199285984" lon="-7.166876988485456">
        <ele>231.33000000000001</ele>
        <time>2025-05-02T14:02:40Z</time>
      </trkpt>
      <trkpt lat="41.381356967613101" lon="-7.166874976828694">
        <ele>231.81</ele>
        <time>2025-05-02T14:02:41Z</time>
      </trkpt>
      <trkpt lat="41.381236016750336" lon="-7.166861984878779">
        <ele>232.78</ele>
        <time>2025-05-02T14:02:42Z</time>
      </trkpt>
      <trkpt lat="41.38017101213336" lon="-7.166768023744226">
        <ele>239.02000000000001</ele>
        <time>2025-05-02T14:02:50Z</time>
      </trkpt>
      <trkpt lat="41.380036985501647" lon="-7.166773974895477">
        <ele>239.99000000000001</ele>
        <time>2025-05-02T14:02:51Z</time>
      </trkpt>
      <trkpt lat="41.379900025203824" lon="-7.166834995150566">
        <ele>240.94999999999999</ele>
        <time>2025-05-02T14:02:52Z</time>
      </trkpt>
      <trkpt lat="41.379774967208505" lon="-7.166919987648726">
        <ele>241.91</ele>
        <time>2025-05-02T14:02:53Z</time>
      </trkpt>
      <trkpt lat="41.379638006910682" lon="-7.16701596044004">
        <ele>243.34999999999999</ele>
        <time>2025-05-02T14:02:54Z</time>
      </trkpt>
      <trkpt lat="41.379524013027549" lon="-7.167150992900133">
        <ele>244.78999999999999</ele>
        <time>2025-05-02T14:02:55Z</time>
      </trkpt>
      <trkpt lat="41.379405995830894" lon="-7.167290970683098">
        <ele>245.75</ele>
        <time>2025-05-02T14:02:56Z</time>
      </trkpt>
      <trkpt lat="41.379284961149096" lon="-7.167434971779585">
        <ele>247.19999999999999</ele>
        <time>2025-05-02T14:02:57Z</time>
      </trkpt>
      <trkpt lat="41.378380972892046" lon="-7.168482961133122">
        <ele>256.81</ele>
        <time>2025-05-02T14:03:04Z</time>
      </trkpt>
      <trkpt lat="41.378231020644307" lon="-7.168598966673017">
        <ele>258.25</ele>
        <time>2025-05-02T14:03:05Z</time>
      </trkpt>
      <trkpt lat="41.378079978749156" lon="-7.168703991919756">
        <ele>259.20999999999998</ele>
        <time>2025-05-02T14:03:06Z</time>
      </trkpt>
      <trkpt lat="41.37791502289474" lon="-7.168782027438283">
        <ele>260.64999999999998</ele>
        <time>2025-05-02T14:03:07Z</time>
      </trkpt>
      <trkpt lat="41.377749983221292" lon="-7.168857967481017">
        <ele>262.10000000000002</ele>
        <time>2025-05-02T14:03:08Z</time>
      </trkpt>
      <trkpt lat="41.377578992396593" lon="-7.168899038806558">
        <ele>263.06</ele>
        <time>2025-05-02T14:03:09Z</time>
      </trkpt>
      <trkpt lat="41.375072970986366" lon="-7.169460961595178">
        <ele>280.83999999999997</ele>
        <time>2025-05-02T14:03:23Z</time>
      </trkpt>
      <trkpt lat="41.373045975342393" lon="-7.169739995151758">
        <ele>292.86000000000001</ele>
        <time>2025-05-02T14:03:34Z</time>
      </trkpt>
      <trkpt lat="41.372856041416526" lon="-7.169676041230559">
        <ele>294.30000000000001</ele>
        <time>2025-05-02T14:03:35Z</time>
      </trkpt>
      <trkpt lat="41.372667029500008" lon="-7.169596999883652">
        <ele>295.25999999999999</ele>
        <time>2025-05-02T14:03:36Z</time>
      </trkpt>
      <trkpt lat="41.372481035068631" lon="-7.169483006000519">
        <ele>296.69999999999999</ele>
        <time>2025-05-02T14:03:37Z</time>
      </trkpt>
      <trkpt lat="41.372293028980494" lon="-7.169369012117386">
        <ele>298.14999999999998</ele>
        <time>2025-05-02T14:03:38Z</time>
      </trkpt>
      <trkpt lat="41.370045002549887" lon="-7.167877033352852">
        <ele>311.60000000000002</ele>
        <time>2025-05-02T14:03:50Z</time>
      </trkpt>
      <trkpt lat="41.369145959615707" lon="-7.167345033958554">
        <ele>316.41000000000003</ele>
        <time>2025-05-02T14:03:55Z</time>
      </trkpt>
      <trkpt lat="41.368974968791008" lon="-7.167303962633014">
        <ele>317.85000000000002</ele>
        <time>2025-05-02T14:03:56Z</time>
      </trkpt>
      <trkpt lat="41.368802972137928" lon="-7.167270015925169">
        <ele>318.81</ele>
        <time>2025-05-02T14:03:57Z</time>
      </trkpt>
      <trkpt lat="41.368629969656467" lon="-7.167302034795284">
        <ele>320.25999999999999</ele>
        <time>2025-05-02T14:03:58Z</time>
      </trkpt>
      <trkpt lat="41.368456967175007" lon="-7.167361965402961">
        <ele>321.69999999999999</ele>
        <time>2025-05-02T14:03:59Z</time>
      </trkpt>
      <trkpt lat="41.368287988007069" lon="-7.167435977607966">
        <ele>322.66000000000003</ele>
        <time>2025-05-02T14:04:00Z</time>
      </trkpt>
      <trkpt lat="41.368114985525608" lon="-7.167512001469731">
        <ele>324.10000000000002</ele>
        <time>2025-05-02T14:04:01Z</time>
      </trkpt>
      <trkpt lat="41.367070013657212" lon="-7.168051963672042">
        <ele>331.31</ele>
        <time>2025-05-02T14:04:07Z</time>
      </trkpt>
      <trkpt lat="41.3669169601053" lon="-7.168200993910432">
        <ele>332.26999999999998</ele>
        <time>2025-05-02T14:04:08Z</time>
      </trkpt>
      <trkpt lat="41.366766002029181" lon="-7.168363016098738">
        <ele>333.23000000000002</ele>
        <time>2025-05-02T14:04:09Z</time>
      </trkpt>
      <trkpt lat="41.366255041211843" lon="-7.169105987995863">
        <ele>337.56</ele>
        <time>2025-05-02T14:04:13Z</time>
      </trkpt>
      <trkpt lat="41.366169964894652" lon="-7.169297011569142">
        <ele>338.04000000000002</ele>
        <time>2025-05-02T14:04:14Z</time>
      </trkpt>
      <trkpt lat="41.366131994873285" lon="-7.169519970193505">
        <ele>339</ele>
        <time>2025-05-02T14:04:15Z</time>
      </trkpt>
      <trkpt lat="41.365853967145085" lon="-7.171381004154682">
        <ele>345.73000000000002</ele>
        <time>2025-05-02T14:04:23Z</time>
      </trkpt>
      <trkpt lat="41.365851033478975" lon="-7.17161301523447">
        <ele>346.20999999999998</ele>
        <time>2025-05-02T14:04:24Z</time>
      </trkpt>
      <trkpt lat="41.366009032353759" lon="-7.173344967886806">
        <ele>353.42000000000002</ele>
        <time>2025-05-02T14:04:32Z</time>
      </trkpt>
      <trkpt lat="41.365967961028218" lon="-7.173499027267098">
        <ele>354.38</ele>
        <time>2025-05-02T14:04:33Z</time>
      </trkpt>
      <trkpt lat="41.365925967693329" lon="-7.173648979514837">
        <ele>355.33999999999997</ele>
        <time>2025-05-02T14:04:34Z</time>
      </trkpt>
      <trkpt lat="41.365850027650595" lon="-7.173774037510157">
        <ele>356.31</ele>
        <time>2025-05-02T14:04:35Z</time>
      </trkpt>
      <trkpt lat="41.365750031545758" lon="-7.173886019736528">
        <ele>357.26999999999998</ele>
        <time>2025-05-02T14:04:36Z</time>
      </trkpt>
      <trkpt lat="41.365650035440922" lon="-7.173944022506475">
        <ele>358.70999999999998</ele>
        <time>2025-05-02T14:04:37Z</time>
      </trkpt>
      <trkpt lat="41.365509973838925" lon="-7.17391099780798">
        <ele>359.67000000000002</ele>
        <time>2025-05-02T14:04:38Z</time>
      </trkpt>
      <trkpt lat="41.365382988005877" lon="-7.173881996423006">
        <ele>361.11000000000001</ele>
        <time>2025-05-02T14:04:39Z</time>
      </trkpt>
      <trkpt lat="41.365274023264647" lon="-7.17378200031817">
        <ele>362.55000000000001</ele>
        <time>2025-05-02T14:04:40Z</time>
      </trkpt>
      <trkpt lat="41.36515399441123" lon="-7.173661971464753">
        <ele>363.51999999999998</ele>
        <time>2025-05-02T14:04:41Z</time>
      </trkpt>
      <trkpt lat="41.365074031054974" lon="-7.173486035317183">
        <ele>364.48000000000002</ele>
        <time>2025-05-02T14:04:42Z</time>
      </trkpt>
      <trkpt lat="41.364997001364827" lon="-7.17328897677362">
        <ele>365.44</ele>
        <time>2025-05-02T14:04:43Z</time>
      </trkpt>
      <trkpt lat="41.3649189658463" lon="-7.173089990392327">
        <ele>365.92000000000002</ele>
        <time>2025-05-02T14:04:44Z</time>
      </trkpt>
      <trkpt lat="41.364841014146805" lon="-7.172888992354274">
        <ele>366.88</ele>
        <time>2025-05-02T14:04:45Z</time>
      </trkpt>
      <trkpt lat="41.364742023870349" lon="-7.172706015408039">
        <ele>368.31999999999999</ele>
        <time>2025-05-02T14:04:46Z</time>
      </trkpt>
      <trkpt lat="41.36461696587503" lon="-7.172563020139933">
        <ele>369.27999999999997</ele>
        <time>2025-05-02T14:04:47Z</time>
      </trkpt>
      <trkpt lat="41.364490985870361" lon="-7.172420024871826">
        <ele>370.73000000000002</ele>
        <time>2025-05-02T14:04:48Z</time>
      </trkpt>
      <trkpt lat="41.3643560372293" lon="-7.172319022938609">
        <ele>372.17000000000002</ele>
        <time>2025-05-02T14:04:49Z</time>
      </trkpt>
      <trkpt lat="41.36420700699091" lon="-7.17225699685514">
        <ele>373.61000000000001</ele>
        <time>2025-05-02T14:04:50Z</time>
      </trkpt>
      <trkpt lat="41.364054037258029" lon="-7.172209974378347">
        <ele>375.05000000000001</ele>
        <time>2025-05-02T14:04:51Z</time>
      </trkpt>
      <trkpt lat="41.363898972049356" lon="-7.172206034883857">
        <ele>376.49000000000001</ele>
        <time>2025-05-02T14:04:52Z</time>
      </trkpt>
      <trkpt lat="41.363741979002953" lon="-7.172218021005392">
        <ele>377.94</ele>
        <time>2025-05-02T14:04:53Z</time>
      </trkpt>
      <trkpt lat="41.363583980128169" lon="-7.172266971319914">
        <ele>379.38</ele>
        <time>2025-05-02T14:04:54Z</time>
      </trkpt>
      <trkpt lat="41.363435033708811" lon="-7.172355987131596">
        <ele>380.33999999999997</ele>
        <time>2025-05-02T14:04:55Z</time>
      </trkpt>
      <trkpt lat="41.363303018733859" lon="-7.172480961307883">
        <ele>381.77999999999997</ele>
        <time>2025-05-02T14:04:56Z</time>
      </trkpt>
      <trkpt lat="41.363161029294133" lon="-7.172612976282835">
        <ele>382.74000000000001</ele>
        <time>2025-05-02T14:04:57Z</time>
      </trkpt>
      <trkpt lat="41.363083999603987" lon="-7.172776004299521">
        <ele>383.69999999999999</ele>
        <time>2025-05-02T14:04:58Z</time>
      </trkpt>
      <trkpt lat="41.363001018762589" lon="-7.172954035922885">
        <ele>385.14999999999998</ele>
        <time>2025-05-02T14:04:59Z</time>
      </trkpt>
      <trkpt lat="41.36294100433588" lon="-7.173158973455429">
        <ele>386.11000000000001</ele>
        <time>2025-05-02T14:05:00Z</time>
      </trkpt>
      <trkpt lat="41.362885013222694" lon="-7.173371035605669">
        <ele>387.06999999999999</ele>
        <time>2025-05-02T14:05:01Z</time>
      </trkpt>
      <trkpt lat="41.362828016281128" lon="-7.173586031422019">
        <ele>388.02999999999997</ele>
        <time>2025-05-02T14:05:02Z</time>
      </trkpt>
      <trkpt lat="41.362715028226376" lon="-7.174013005569577">
        <ele>389.47000000000003</ele>
        <time>2025-05-02T14:05:04Z</time>
      </trkpt>
      <trkpt lat="41.362620983272791" lon="-7.17418902553618">
        <ele>390.43000000000001</ele>
        <time>2025-05-02T14:05:05Z</time>
      </trkpt>
      <trkpt lat="41.362520987167954" lon="-7.17436496168375">
        <ele>391.38999999999999</ele>
        <time>2025-05-02T14:05:06Z</time>
      </trkpt>
      <trkpt lat="41.362412022426724" lon="-7.17453695833683">
        <ele>392.36000000000001</ele>
        <time>2025-05-02T14:05:07Z</time>
      </trkpt>
      <trkpt lat="41.362263998016715" lon="-7.174638966098428">
        <ele>393.31999999999999</ele>
        <time>2025-05-02T14:05:08Z</time>
      </trkpt>
      <trkpt lat="41.362116979435086" lon="-7.174740973860025">
        <ele>394.27999999999997</ele>
        <time>2025-05-02T14:05:09Z</time>
      </trkpt>
      <trkpt lat="41.361981024965644" lon="-7.17483501881361">
        <ele>395.24000000000001</ele>
        <time>2025-05-02T14:05:10Z</time>
      </trkpt>
      <trkpt lat="41.361124981194735" lon="-7.175322007387877">
        <ele>399.56999999999999</ele>
        <time>2025-05-02T14:05:18Z</time>
      </trkpt>
      <trkpt lat="41.360607985407114" lon="-7.175653008744121">
        <ele>401.00999999999999</ele>
        <time>2025-05-02T14:05:24Z</time>
      </trkpt>
      <trkpt lat="41.360535984858871" lon="-7.175682010129094">
        <ele>401.49000000000001</ele>
        <time>2025-05-02T14:05:25Z</time>
      </trkpt>
      <trkpt lat="41.360455015674233" lon="-7.175682010129094">
        <ele>401.97000000000003</ele>
        <time>2025-05-02T14:05:26Z</time>
      </trkpt>
      <trkpt lat="41.360379997640848" lon="-7.175654014572501">
        <ele>401.97000000000003</ele>
        <time>2025-05-02T14:05:27Z</time>
      </trkpt>
      <trkpt lat="41.360306991264224" lon="-7.175596011802554">
        <ele>402.44999999999999</ele>
        <time>2025-05-02T14:05:28Z</time>
      </trkpt>
      <trkpt lat="41.360258962959051" lon="-7.175488974899054">
        <ele>402.44999999999999</ele>
        <time>2025-05-02T14:05:29Z</time>
      </trkpt>
      <trkpt lat="41.360210012644529" lon="-7.175384033471346">
        <ele>402.44999999999999</ele>
        <time>2025-05-02T14:05:30Z</time>
      </trkpt>
      <trkpt lat="41.360159972682595" lon="-7.175274984911084">
        <ele>402.93000000000001</ele>
        <time>2025-05-02T14:05:31Z</time>
      </trkpt>
      <trkpt lat="41.359964003786445" lon="-7.174844993278384">
        <ele>404.85000000000002</ele>
        <time>2025-05-02T14:05:35Z</time>
      </trkpt>
      <trkpt lat="41.359892003238201" lon="-7.174789002165198">
        <ele>405.32999999999998</ele>
        <time>2025-05-02T14:05:36Z</time>
      </trkpt>
      <trkpt lat="41.359821008518338" lon="-7.174734016880393">
        <ele>405.81</ele>
        <time>2025-05-02T14:05:37Z</time>
      </trkpt>
      <trkpt lat="41.359748002141714" lon="-7.174695041030645">
        <ele>406.29000000000002</ele>
        <time>2025-05-02T14:05:38Z</time>
      </trkpt>
      <trkpt lat="41.359673989936709" lon="-7.174695041030645">
        <ele>407.25999999999999</ele>
        <time>2025-05-02T14:05:39Z</time>
      </trkpt>
      <trkpt lat="41.359604001045227" lon="-7.174711972475052">
        <ele>407.74000000000001</ele>
        <time>2025-05-02T14:05:40Z</time>
      </trkpt>
      <trkpt lat="41.359543986618519" lon="-7.174777016043663">
        <ele>408.22000000000003</ele>
        <time>2025-05-02T14:05:41Z</time>
      </trkpt>
      <trkpt lat="41.359481038525701" lon="-7.174844993278384">
        <ele>408.69999999999999</ele>
        <time>2025-05-02T14:05:42Z</time>
      </trkpt>
      <trkpt lat="41.359420018270612" lon="-7.174910958856344">
        <ele>408.69999999999999</ele>
        <time>2025-05-02T14:05:43Z</time>
      </trkpt>
      <trkpt lat="41.359341982752085" lon="-7.174995029345155">
        <ele>409.18000000000001</ele>
        <time>2025-05-02T14:05:44Z</time>
      </trkpt>
      <trkpt lat="41.359309963881969" lon="-7.175040040165186">
        <ele>409.66000000000003</ele>
        <time>2025-05-02T14:05:45Z</time>
      </trkpt>
      <trkpt lat="41.359256990253925" lon="-7.17511497437954">
        <ele>410.13999999999999</ele>
        <time>2025-05-02T14:05:46Z</time>
      </trkpt>
      <trkpt lat="41.359141990542412" lon="-7.175274984911084">
        <ele>411.10000000000002</ele>
        <time>2025-05-02T14:05:48Z</time>
      </trkpt>
      <trkpt lat="41.359080970287323" lon="-7.175356959924102">
        <ele>412.06</ele>
        <time>2025-05-02T14:05:49Z</time>
      </trkpt>
      <trkpt lat="41.358489962294698" lon="-7.176285004243255">
        <ele>415.43000000000001</ele>
        <time>2025-05-02T14:05:57Z</time>
      </trkpt>
      <trkpt lat="41.357797030359507" lon="-7.177484035491943">
        <ele>420.23000000000002</ele>
        <time>2025-05-02T14:06:07Z</time>
      </trkpt>
      <trkpt lat="41.357687981799245" lon="-7.177593000233173">
        <ele>420.70999999999998</ele>
        <time>2025-05-02T14:06:08Z</time>
      </trkpt>
      <trkpt lat="41.357595026493073" lon="-7.177681010216475">
        <ele>421.68000000000001</ele>
        <time>2025-05-02T14:06:09Z</time>
      </trkpt>
      <trkpt lat="41.35748203843832" lon="-7.177738007158041">
        <ele>422.63999999999999</ele>
        <time>2025-05-02T14:06:10Z</time>
      </trkpt>
      <trkpt lat="41.357356980443001" lon="-7.177762985229492">
        <ele>424.07999999999998</ele>
        <time>2025-05-02T14:06:11Z</time>
      </trkpt>
      <trkpt lat="41.357224965468049" lon="-7.177758039906621">
        <ele>425.51999999999998</ele>
        <time>2025-05-02T14:06:12Z</time>
      </trkpt>
      <trkpt lat="41.35709404014051" lon="-7.177709005773068">
        <ele>426.48000000000002</ele>
        <time>2025-05-02T14:06:13Z</time>
      </trkpt>
      <trkpt lat="41.356981974095106" lon="-7.177598029375076">
        <ele>427.44</ele>
        <time>2025-05-02T14:06:14Z</time>
      </trkpt>
      <trkpt lat="41.356874015182257" lon="-7.177470959722996">
        <ele>428.39999999999998</ele>
        <time>2025-05-02T14:06:15Z</time>
      </trkpt>
      <trkpt lat="41.356789022684097" lon="-7.177320001646876">
        <ele>429.37</ele>
        <time>2025-05-02T14:06:16Z</time>
      </trkpt>
      <trkpt lat="41.356712998822331" lon="-7.177139958366752">
        <ele>429.85000000000002</ele>
        <time>2025-05-02T14:06:17Z</time>
      </trkpt>
      <trkpt lat="41.356633035466075" lon="-7.176950024440885">
        <ele>430.81</ele>
        <time>2025-05-02T14:06:18Z</time>
      </trkpt>
      <trkpt lat="41.356547959148884" lon="-7.176750032231212">
        <ele>431.76999999999998</ele>
        <time>2025-05-02T14:06:19Z</time>
      </trkpt>
      <trkpt lat="41.356460032984614" lon="-7.176540987566114">
        <ele>432.73000000000002</ele>
        <time>2025-05-02T14:06:20Z</time>
      </trkpt>
      <trkpt lat="41.356349978595972" lon="-7.176334960386157">
        <ele>433.20999999999998</ele>
        <time>2025-05-02T14:06:21Z</time>
      </trkpt>
      <trkpt lat="41.355236023664474" lon="-7.174798976629973">
        <ele>439.94</ele>
        <time>2025-05-02T14:06:29Z</time>
      </trkpt>
      <trkpt lat="41.354529010131955" lon="-7.17384503223002">
        <ele>445.70999999999998</ele>
        <time>2025-05-02T14:06:35Z</time>
      </trkpt>
      <trkpt lat="41.354409987106919" lon="-7.173684015870094">
        <ele>446.67000000000002</ele>
        <time>2025-05-02T14:06:36Z</time>
      </trkpt>
      <trkpt lat="41.354105975478888" lon="-7.173185041174293">
        <ele>449.55000000000001</ele>
        <time>2025-05-02T14:06:39Z</time>
      </trkpt>
      <trkpt lat="41.354030035436153" lon="-7.17300801537931">
        <ele>450.51999999999998</ele>
        <time>2025-05-02T14:06:40Z</time>
      </trkpt>
      <trkpt lat="41.353986030444503" lon="-7.172827972099185">
        <ele>451.48000000000002</ele>
        <time>2025-05-02T14:06:41Z</time>
      </trkpt>
      <trkpt lat="41.353961974382401" lon="-7.172620017081499">
        <ele>452.44</ele>
        <time>2025-05-02T14:06:42Z</time>
      </trkpt>
      <trkpt lat="41.353936996310949" lon="-7.172413989901543">
        <ele>453.39999999999998</ele>
        <time>2025-05-02T14:06:43Z</time>
      </trkpt>
      <trkpt lat="41.353815961629152" lon="-7.171607986092567">
        <ele>456.27999999999997</ele>
        <time>2025-05-02T14:06:47Z</time>
      </trkpt>
      <trkpt lat="41.353771034628153" lon="-7.171416962519288">
        <ele>456.75999999999999</ele>
        <time>2025-05-02T14:06:48Z</time>
      </trkpt>
      <trkpt lat="41.353719988837838" lon="-7.171197021380067">
        <ele>457.72000000000003</ele>
        <time>2025-05-02T14:06:49Z</time>
      </trkpt>
      <trkpt lat="41.353568024933338" lon="-7.170855961740017">
        <ele>459.17000000000002</ele>
        <time>2025-05-02T14:06:51Z</time>
      </trkpt>
      <trkpt lat="41.353460988029838" lon="-7.170699974521995">
        <ele>460.13</ele>
        <time>2025-05-02T14:06:52Z</time>
      </trkpt>
      <trkpt lat="41.353347999975085" lon="-7.170555973425508">
        <ele>461.08999999999997</ele>
        <time>2025-05-02T14:06:53Z</time>
      </trkpt>
      <trkpt lat="41.353237023577094" lon="-7.170414989814162">
        <ele>462.05000000000001</ele>
        <time>2025-05-02T14:06:54Z</time>
      </trkpt>
      <trkpt lat="41.353127975016832" lon="-7.170276017859578">
        <ele>463.00999999999999</ele>
        <time>2025-05-02T14:06:55Z</time>
      </trkpt>
      <trkpt lat="41.353027978911996" lon="-7.170128999277949">
        <ele>463.97000000000003</ele>
        <time>2025-05-02T14:06:56Z</time>
      </trkpt>
      <trkpt lat="41.352938963100314" lon="-7.16997804120183">
        <ele>464.44999999999999</ele>
        <time>2025-05-02T14:06:57Z</time>
      </trkpt>
      <trkpt lat="41.352861011400819" lon="-7.169845020398498">
        <ele>465.42000000000002</ele>
        <time>2025-05-02T14:06:58Z</time>
      </trkpt>
      <trkpt lat="41.352596981450915" lon="-7.169504966586828">
        <ele>468.30000000000001</ele>
        <time>2025-05-02T14:07:01Z</time>
      </trkpt>
      <trkpt lat="41.352505031973124" lon="-7.169446041807532">
        <ele>469.25999999999999</ele>
        <time>2025-05-02T14:07:02Z</time>
      </trkpt>
      <trkpt lat="41.352379973977804" lon="-7.169417040422559">
        <ele>470.22000000000003</ele>
        <time>2025-05-02T14:07:03Z</time>
      </trkpt>
      <trkpt lat="41.352248964831233" lon="-7.169386027380824">
        <ele>471.18000000000001</ele>
        <time>2025-05-02T14:07:04Z</time>
      </trkpt>
      <trkpt lat="41.352126002311707" lon="-7.169400025159121">
        <ele>471.66000000000003</ele>
        <time>2025-05-02T14:07:05Z</time>
      </trkpt>
      <trkpt lat="41.351988958194852" lon="-7.169450987130404">
        <ele>472.63</ele>
        <time>2025-05-02T14:07:06Z</time>
      </trkpt>
      <trkpt lat="41.351845040917397" lon="-7.169509995728731">
        <ele>473.58999999999997</ele>
        <time>2025-05-02T14:07:07Z</time>
      </trkpt>
      <trkpt lat="41.351723000407219" lon="-7.169632036238909">
        <ele>474.06999999999999</ele>
        <time>2025-05-02T14:07:08Z</time>
      </trkpt>
      <trkpt lat="41.351598026230931" lon="-7.169757010415196">
        <ele>475.02999999999997</ele>
        <time>2025-05-02T14:07:09Z</time>
      </trkpt>
      <trkpt lat="41.35118798352778" lon="-7.170154983177781">
        <ele>477.91000000000003</ele>
        <time>2025-05-02T14:07:12Z</time>
      </trkpt>
      <trkpt lat="41.351021016016603" lon="-7.170278029516339">
        <ele>478.87</ele>
        <time>2025-05-02T14:07:13Z</time>
      </trkpt>
      <trkpt lat="41.349644958972931" lon="-7.171088978648186">
        <ele>483.68000000000001</ele>
        <time>2025-05-02T14:07:21Z</time>
      </trkpt>
      <trkpt lat="41.349497018381953" lon="-7.171151004731655">
        <ele>484.16000000000003</ele>
        <time>2025-05-02T14:07:22Z</time>
      </trkpt>
      <trkpt lat="41.349352011457086" lon="-7.171127032488585">
        <ele>485.12</ele>
        <time>2025-05-02T14:07:23Z</time>
      </trkpt>
      <trkpt lat="41.349208010360599" lon="-7.171102976426482">
        <ele>485.60000000000002</ele>
        <time>2025-05-02T14:07:24Z</time>
      </trkpt>
      <trkpt lat="41.349072977900505" lon="-7.171050002798438">
        <ele>486.56</ele>
        <time>2025-05-02T14:07:25Z</time>
      </trkpt>
      <trkpt lat="41.348951021209359" lon="-7.170960986986756">
        <ele>487.52999999999997</ele>
        <time>2025-05-02T14:07:26Z</time>
      </trkpt>
      <trkpt lat="41.348843984305859" lon="-7.17083903029561">
        <ele>488.49000000000001</ele>
        <time>2025-05-02T14:07:27Z</time>
      </trkpt>
      <trkpt lat="41.348752034828067" lon="-7.170685976743698">
        <ele>489.93000000000001</ele>
        <time>2025-05-02T14:07:28Z</time>
      </trkpt>
      <trkpt lat="41.348660001531243" lon="-7.170511968433857">
        <ele>490.88999999999999</ele>
        <time>2025-05-02T14:07:29Z</time>
      </trkpt>
      <trkpt lat="41.348576014861465" lon="-7.170331003144383">
        <ele>492.32999999999998</ele>
        <time>2025-05-02T14:07:30Z</time>
      </trkpt>
      <trkpt lat="41.348338974639773" lon="-7.169816019013524">
        <ele>496.18000000000001</ele>
        <time>2025-05-02T14:07:33Z</time>
      </trkpt>
      <trkpt lat="41.348249036818743" lon="-7.169695990160108">
        <ele>497.62</ele>
        <time>2025-05-02T14:07:34Z</time>
      </trkpt>
      <trkpt lat="41.348140994086862" lon="-7.169588031247258">
        <ele>499.06</ele>
        <time>2025-05-02T14:07:35Z</time>
      </trkpt>
      <trkpt lat="41.348011996597052" lon="-7.169517036527395">
        <ele>500.5</ele>
        <time>2025-05-02T14:07:36Z</time>
      </trkpt>
      <trkpt lat="41.347877969965339" lon="-7.169457022100687">
        <ele>501.45999999999998</ele>
        <time>2025-05-02T14:07:37Z</time>
      </trkpt>
      <trkpt lat="41.347730029374361" lon="-7.169443024322391">
        <ele>502.43000000000001</ele>
        <time>2025-05-02T14:07:38Z</time>
      </trkpt>
      <trkpt lat="41.347580999135971" lon="-7.169451992958784">
        <ele>503.38999999999999</ele>
        <time>2025-05-02T14:07:39Z</time>
      </trkpt>
      <trkpt lat="41.34742702357471" lon="-7.169477976858616">
        <ele>504.35000000000002</ele>
        <time>2025-05-02T14:07:40Z</time>
      </trkpt>
      <trkpt lat="41.347276987507939" lon="-7.169549977406859">
        <ele>505.31</ele>
        <time>2025-05-02T14:07:41Z</time>
      </trkpt>
      <trkpt lat="41.347124017775059" lon="-7.169630024582148">
        <ele>505.79000000000002</ele>
        <time>2025-05-02T14:07:42Z</time>
      </trkpt>
      <trkpt lat="41.346968030557036" lon="-7.169710993766785">
        <ele>506.75</ele>
        <time>2025-05-02T14:07:43Z</time>
      </trkpt>
      <trkpt lat="41.34635497815907" lon="-7.1700210403651">
        <ele>509.63999999999999</ele>
        <time>2025-05-02T14:07:47Z</time>
      </trkpt>
      <trkpt lat="41.346201002597809" lon="-7.170050041750073">
        <ele>510.12</ele>
        <time>2025-05-02T14:07:48Z</time>
      </trkpt>
      <trkpt lat="41.346050966531038" lon="-7.170048030093312">
        <ele>511.07999999999998</ele>
        <time>2025-05-02T14:07:49Z</time>
      </trkpt>
      <trkpt lat="41.345895985141397" lon="-7.170029003173113">
        <ele>511.56</ele>
        <time>2025-05-02T14:07:50Z</time>
      </trkpt>
      <trkpt lat="41.345747960731387" lon="-7.169989021494985">
        <ele>512.03999999999996</ele>
        <time>2025-05-02T14:07:51Z</time>
      </trkpt>
      <trkpt lat="41.3456039596349" lon="-7.169916015118361">
        <ele>513</ele>
        <time>2025-05-02T14:07:52Z</time>
      </trkpt>
      <trkpt lat="41.344599975273013" lon="-7.169502032920718">
        <ele>517.80999999999995</ele>
        <time>2025-05-02T14:07:59Z</time>
      </trkpt>
      <trkpt lat="41.344452034682035" lon="-7.169524999335408">
        <ele>518.28999999999996</ele>
        <time>2025-05-02T14:08:00Z</time>
      </trkpt>
      <trkpt lat="41.344321025535464" lon="-7.169545032083988">
        <ele>518.76999999999998</ele>
        <time>2025-05-02T14:08:01Z</time>
      </trkpt>
      <trkpt lat="41.344206025823951" lon="-7.169627007097006">
        <ele>519.73000000000002</ele>
        <time>2025-05-02T14:08:02Z</time>
      </trkpt>
      <trkpt lat="41.344082979485393" lon="-7.169715017080307">
        <ele>520.21000000000004</ele>
        <time>2025-05-02T14:08:03Z</time>
      </trkpt>
      <trkpt lat="41.343978038057685" lon="-7.16982901096344">
        <ele>520.69000000000005</ele>
        <time>2025-05-02T14:08:04Z</time>
      </trkpt>
      <trkpt lat="41.34388298727572" lon="-7.169983992353082">
        <ele>521.64999999999998</ele>
        <time>2025-05-02T14:08:05Z</time>
      </trkpt>
      <trkpt lat="41.343792965635657" lon="-7.170159006491303">
        <ele>521.64999999999998</ele>
        <time>2025-05-02T14:08:06Z</time>
      </trkpt>
      <trkpt lat="41.343241017311811" lon="-7.171412017196417">
        <ele>528.38</ele>
        <time>2025-05-02T14:08:13Z</time>
      </trkpt>
      <trkpt lat="41.343179997056723" lon="-7.171580996364355">
        <ele>529.34000000000003</ele>
        <time>2025-05-02T14:08:14Z</time>
      </trkpt>
      <trkpt lat="41.343074971809983" lon="-7.171876039355993">
        <ele>530.78999999999996</ele>
        <time>2025-05-02T14:08:16Z</time>
      </trkpt>
      <trkpt lat="41.343019986525178" lon="-7.172005036845803">
        <ele>531.26999999999998</ele>
        <time>2025-05-02T14:08:17Z</time>
      </trkpt>
      <trkpt lat="41.342930970713496" lon="-7.172092963010073">
        <ele>531.75</ele>
        <time>2025-05-02T14:08:18Z</time>
      </trkpt>
      <trkpt lat="41.342827035114169" lon="-7.172145014628768">
        <ele>532.23000000000002</ele>
        <time>2025-05-02T14:08:19Z</time>
      </trkpt>
      <trkpt lat="41.342713041231036" lon="-7.172152977436781">
        <ele>533.19000000000005</ele>
        <time>2025-05-02T14:08:20Z</time>
      </trkpt>
      <trkpt lat="41.342583037912846" lon="-7.172163035720587">
        <ele>533.66999999999996</ele>
        <time>2025-05-02T14:08:21Z</time>
      </trkpt>
      <trkpt lat="41.342478012666106" lon="-7.172092963010073">
        <ele>534.63</ele>
        <time>2025-05-02T14:08:22Z</time>
      </trkpt>
      <trkpt lat="41.342370975762606" lon="-7.172002019360662">
        <ele>535.11000000000001</ele>
        <time>2025-05-02T14:08:23Z</time>
      </trkpt>
      <trkpt lat="41.34229201823473" lon="-7.17187000438571">
        <ele>536.07000000000005</ele>
        <time>2025-05-02T14:08:24Z</time>
      </trkpt>
      <trkpt lat="41.342246001586318" lon="-7.171714017167687">
        <ele>536.54999999999995</ele>
        <time>2025-05-02T14:08:25Z</time>
      </trkpt>
      <trkpt lat="41.342221023514867" lon="-7.171539003029466">
        <ele>537.02999999999997</ele>
        <time>2025-05-02T14:08:26Z</time>
      </trkpt>
      <trkpt lat="41.342194033786654" lon="-7.171348985284567">
        <ele>537.99000000000001</ele>
        <time>2025-05-02T14:08:27Z</time>
      </trkpt>
      <trkpt lat="41.342135025188327" lon="-7.170932991430163">
        <ele>539.44000000000005</ele>
        <time>2025-05-02T14:08:29Z</time>
      </trkpt>
      <trkpt lat="41.341875018551946" lon="-7.169888019561768">
        <ele>544.72000000000003</ele>
        <time>2025-05-02T14:08:34Z</time>
      </trkpt>
      <trkpt lat="41.341781979426742" lon="-7.169715017080307">
        <ele>546.16999999999996</ele>
        <time>2025-05-02T14:08:35Z</time>
      </trkpt>
      <trkpt lat="41.341703021898866" lon="-7.169565986841917">
        <ele>547.13</ele>
        <time>2025-05-02T14:08:36Z</time>
      </trkpt>
      <trkpt lat="41.341571006923914" lon="-7.169414022937417">
        <ele>548.57000000000005</ele>
        <time>2025-05-02T14:08:37Z</time>
      </trkpt>
      <trkpt lat="41.341453995555639" lon="-7.169281002134085">
        <ele>549.52999999999997</ele>
        <time>2025-05-02T14:08:38Z</time>
      </trkpt>
      <trkpt lat="41.341324998065829" lon="-7.169164996594191">
        <ele>550.97000000000003</ele>
        <time>2025-05-02T14:08:39Z</time>
      </trkpt>
      <trkpt lat="41.341183008626103" lon="-7.169061983004212">
        <ele>551.92999999999995</ele>
        <time>2025-05-02T14:08:40Z</time>
      </trkpt>
      <trkpt lat="41.341042025014758" lon="-7.168972967192531">
        <ele>552.89999999999998</ele>
        <time>2025-05-02T14:08:41Z</time>
      </trkpt>
      <trkpt lat="41.340891988947988" lon="-7.168918987736106">
        <ele>553.86000000000001</ele>
        <time>2025-05-02T14:08:42Z</time>
      </trkpt>
      <trkpt lat="41.340743964537978" lon="-7.168875988572836">
        <ele>554.82000000000005</ele>
        <time>2025-05-02T14:08:43Z</time>
      </trkpt>
      <trkpt lat="41.339687006548047" lon="-7.168875988572836">
        <ele>560.59000000000003</ele>
        <time>2025-05-02T14:08:49Z</time>
      </trkpt>
      <trkpt lat="41.338206008076668" lon="-7.169169019907713">
        <ele>568.27999999999997</ele>
        <time>2025-05-02T14:08:55Z</time>
      </trkpt>
      <trkpt lat="41.337584992870688" lon="-7.169350991025567">
        <ele>572.60000000000002</ele>
        <time>2025-05-02T14:08:58Z</time>
      </trkpt>
      <trkpt lat="41.337377959862351" lon="-7.169423997402191">
        <ele>573.55999999999995</ele>
        <time>2025-05-02T14:08:59Z</time>
      </trkpt>
      <trkpt lat="41.337185008451343" lon="-7.169538997113705">
        <ele>575.00999999999999</ele>
        <time>2025-05-02T14:09:00Z</time>
      </trkpt>
      <trkpt lat="41.336990967392921" lon="-7.169675035402179">
        <ele>575.97000000000003</ele>
        <time>2025-05-02T14:09:01Z</time>
      </trkpt>
      <trkpt lat="41.336807990446687" lon="-7.169833034276962">
        <ele>577.40999999999997</ele>
        <time>2025-05-02T14:09:02Z</time>
      </trkpt>
      <trkpt lat="41.334750987589359" lon="-7.171283019706607">
        <ele>590.87</ele>
        <time>2025-05-02T14:09:13Z</time>
      </trkpt>
      <trkpt lat="41.33191698230803" lon="-7.172309970483184">
        <ele>603.36000000000001</ele>
        <time>2025-05-02T14:09:26Z</time>
      </trkpt>
      <trkpt lat="41.330558024346828" lon="-7.17322301119566">
        <ele>609.61000000000001</ele>
        <time>2025-05-02T14:09:33Z</time>
      </trkpt>
      <trkpt lat="41.328677041456103" lon="-7.17492101714015">
        <ele>619.71000000000004</ele>
        <time>2025-05-02T14:09:44Z</time>
      </trkpt>
      <trkpt lat="41.326913991943002" lon="-7.175578996539116">
        <ele>627.39999999999998</ele>
        <time>2025-05-02T14:09:54Z</time>
      </trkpt>
      <trkpt lat="41.325867008417845" lon="-7.175771025940776">
        <ele>626.44000000000005</ele>
        <time>2025-05-02T14:10:02Z</time>
      </trkpt>
      <trkpt lat="41.324329013004899" lon="-7.176056010648608">
        <ele>622.11000000000001</ele>
        <time>2025-05-02T14:10:13Z</time>
      </trkpt>
      <trkpt lat="41.323340032249689" lon="-7.176239993423224">
        <ele>620.19000000000005</ele>
        <time>2025-05-02T14:10:20Z</time>
      </trkpt>
      <trkpt lat="41.322176959365606" lon="-7.176453983411193">
        <ele>618.25999999999999</ele>
        <time>2025-05-02T14:10:30Z</time>
      </trkpt>
      <trkpt lat="41.322080986574292" lon="-7.176453983411193">
        <ele>617.77999999999997</ele>
        <time>2025-05-02T14:10:31Z</time>
      </trkpt>
      <trkpt lat="41.321965986862779" lon="-7.176434034481645">
        <ele>617.77999999999997</ele>
        <time>2025-05-02T14:10:32Z</time>
      </trkpt>
      <trkpt lat="41.32186003960669" lon="-7.176387012004852">
        <ele>617.77999999999997</ele>
        <time>2025-05-02T14:10:33Z</time>
      </trkpt>
      <trkpt lat="41.321758031845093" lon="-7.176340995356441">
        <ele>617.29999999999995</ele>
        <time>2025-05-02T14:10:34Z</time>
      </trkpt>
      <trkpt lat="41.321657029911876" lon="-7.176285004243255">
        <ele>617.29999999999995</ele>
        <time>2025-05-02T14:10:35Z</time>
      </trkpt>
      <trkpt lat="41.321552004665136" lon="-7.176228007301688">
        <ele>617.29999999999995</ele>
        <time>2025-05-02T14:10:36Z</time>
      </trkpt>
      <trkpt lat="41.321086976677179" lon="-7.175851995125413">
        <ele>618.75</ele>
        <time>2025-05-02T14:10:41Z</time>
      </trkpt>
      <trkpt lat="41.321006007492542" lon="-7.175834979861975">
        <ele>619.23000000000002</ele>
        <time>2025-05-02T14:10:42Z</time>
      </trkpt>
      <trkpt lat="41.32093601860106" lon="-7.175840009003878">
        <ele>619.23000000000002</ele>
        <time>2025-05-02T14:10:43Z</time>
      </trkpt>
      <trkpt lat="41.320869969204068" lon="-7.175845038145781">
        <ele>619.71000000000004</ele>
        <time>2025-05-02T14:10:44Z</time>
      </trkpt>
      <trkpt lat="41.320801991969347" lon="-7.175848977640271">
        <ele>619.71000000000004</ele>
        <time>2025-05-02T14:10:45Z</time>
      </trkpt>
      <trkpt lat="41.320709958672523" lon="-7.17588996514678">
        <ele>620.19000000000005</ele>
        <time>2025-05-02T14:10:46Z</time>
      </trkpt>
      <trkpt lat="41.320640975609422" lon="-7.175979986786842">
        <ele>620.19000000000005</ele>
        <time>2025-05-02T14:10:47Z</time>
      </trkpt>
      <trkpt lat="41.320555983111262" lon="-7.176075037568808">
        <ele>619.71000000000004</ele>
        <time>2025-05-02T14:10:48Z</time>
      </trkpt>
      <trkpt lat="41.319670015946031" lon="-7.176752965897322">
        <ele>616.82000000000005</ele>
        <time>2025-05-02T14:10:55Z</time>
      </trkpt>
      <trkpt lat="41.318419016897678" lon="-7.177035016939044">
        <ele>612.01999999999998</ele>
        <time>2025-05-02T14:11:03Z</time>
      </trkpt>
      <trkpt lat="41.317038014531136" lon="-7.17715403996408">
        <ele>605.76999999999998</ele>
        <time>2025-05-02T14:11:14Z</time>
      </trkpt>
      <trkpt lat="41.316627971827984" lon="-7.177210031077266">
        <ele>603.85000000000002</ele>
        <time>2025-05-02T14:11:19Z</time>
      </trkpt>
      <trkpt lat="41.316557982936502" lon="-7.17722000554204">
        <ele>603.36000000000001</ele>
        <time>2025-05-02T14:11:20Z</time>
      </trkpt>
      <trkpt lat="41.316459998488426" lon="-7.177166026085615">
        <ele>602.88</ele>
        <time>2025-05-02T14:11:21Z</time>
      </trkpt>
      <trkpt lat="41.31640400737524" lon="-7.177100982517004">
        <ele>602.88</ele>
        <time>2025-05-02T14:11:22Z</time>
      </trkpt>
      <trkpt lat="41.316362014040351" lon="-7.176980031654239">
        <ele>602.88</ele>
        <time>2025-05-02T14:11:23Z</time>
      </trkpt>
      <trkpt lat="41.31636100821197" lon="-7.176836030557752">
        <ele>602.88</ele>
        <time>2025-05-02T14:11:24Z</time>
      </trkpt>
      <trkpt lat="41.316405013203621" lon="-7.176733016967773">
        <ele>602.88</ele>
        <time>2025-05-02T14:11:25Z</time>
      </trkpt>
      <trkpt lat="41.316409036517143" lon="-7.176635032519698">
        <ele>602.88</ele>
        <time>2025-05-02T14:11:26Z</time>
      </trkpt>
      <trkpt lat="41.316413981840014" lon="-7.176513997837901">
        <ele>602.88</ele>
        <time>2025-05-02T14:11:27Z</time>
      </trkpt>
      <trkpt lat="41.316419010981917" lon="-7.176390029489994">
        <ele>603.36000000000001</ele>
        <time>2025-05-02T14:11:28Z</time>
      </trkpt>
      <trkpt lat="41.31642404012382" lon="-7.176264971494675">
        <ele>603.36000000000001</ele>
        <time>2025-05-02T14:11:29Z</time>
      </trkpt>
      <trkpt lat="41.316375005990267" lon="-7.176132034510374">
        <ele>603.36000000000001</ele>
        <time>2025-05-02T14:11:30Z</time>
      </trkpt>
      <trkpt lat="41.316304011270404" lon="-7.17601602897048">
        <ele>603.36000000000001</ele>
        <time>2025-05-02T14:11:31Z</time>
      </trkpt>
      <trkpt lat="41.316222036257386" lon="-7.175879990682006">
        <ele>603.85000000000002</ele>
        <time>2025-05-02T14:11:32Z</time>
      </trkpt>
      <trkpt lat="41.316130002960563" lon="-7.175728026777506">
        <ele>603.85000000000002</ele>
        <time>2025-05-02T14:11:33Z</time>
      </trkpt>
      <trkpt lat="41.316033024340868" lon="-7.175568016245961">
        <ele>603.85000000000002</ele>
        <time>2025-05-02T14:11:34Z</time>
      </trkpt>
      <trkpt lat="41.315461965277791" lon="-7.174674002453685">
        <ele>604.80999999999995</ele>
        <time>2025-05-02T14:11:41Z</time>
      </trkpt>
      <trkpt lat="41.314267963171005" lon="-7.17279695905745">
        <ele>608.64999999999998</ele>
        <time>2025-05-02T14:11:57Z</time>
      </trkpt>
      <trkpt lat="41.313289040699601" lon="-7.171258041635156">
        <ele>611.05999999999995</ele>
        <time>2025-05-02T14:12:11Z</time>
      </trkpt>
      <trkpt lat="41.312268963083625" lon="-7.169665982946754">
        <ele>606.73000000000002</ele>
        <time>2025-05-02T14:12:24Z</time>
      </trkpt>
      <trkpt lat="41.31133203394711" lon="-7.16819797642529">
        <ele>600.96000000000004</ele>
        <time>2025-05-02T14:12:37Z</time>
      </trkpt>
      <trkpt lat="41.311014024540782" lon="-7.167722973972559">
        <ele>598.08000000000004</ele>
        <time>2025-05-02T14:12:42Z</time>
      </trkpt>
      <trkpt lat="41.310955015942454" lon="-7.167634963989258">
        <ele>597.60000000000002</ele>
        <time>2025-05-02T14:12:43Z</time>
      </trkpt>
      <trkpt lat="41.310885027050972" lon="-7.167545026168227">
        <ele>596.63999999999999</ele>
        <time>2025-05-02T14:12:44Z</time>
      </trkpt>
      <trkpt lat="41.310815960168839" lon="-7.167493980377913">
        <ele>596.14999999999998</ele>
        <time>2025-05-02T14:12:45Z</time>
      </trkpt>
      <trkpt lat="41.310674976557493" lon="-7.167619038373232">
        <ele>596.14999999999998</ele>
        <time>2025-05-02T14:12:46Z</time>
      </trkpt>
      <trkpt lat="41.310611022636294" lon="-7.167460033670068">
        <ele>595.66999999999996</ele>
        <time>2025-05-02T14:12:47Z</time>
      </trkpt>
      <trkpt lat="41.310692997649312" lon="-7.167303962633014">
        <ele>595.19000000000005</ele>
        <time>2025-05-02T14:12:48Z</time>
      </trkpt>
      <trkpt lat="41.310647986829281" lon="-7.167202960699797">
        <ele>594.71000000000004</ele>
        <time>2025-05-02T14:12:49Z</time>
      </trkpt>
      <trkpt lat="41.310611022636294" lon="-7.167119979858398">
        <ele>594.71000000000004</ele>
        <time>2025-05-02T14:12:50Z</time>
      </trkpt>
      <trkpt lat="41.310540027916431" lon="-7.166999028995633">
        <ele>594.23000000000002</ele>
        <time>2025-05-02T14:12:51Z</time>
      </trkpt>
      <trkpt lat="41.310480013489723" lon="-7.166900038719177">
        <ele>593.75</ele>
        <time>2025-05-02T14:12:52Z</time>
      </trkpt>
      <trkpt lat="41.310418993234634" lon="-7.16679803095758">
        <ele>593.26999999999998</ele>
        <time>2025-05-02T14:12:53Z</time>
      </trkpt>
      <trkpt lat="41.310357972979546" lon="-7.166694011539221">
        <ele>592.30999999999995</ele>
        <time>2025-05-02T14:12:54Z</time>
      </trkpt>
      <trkpt lat="41.310297036543489" lon="-7.166590997949243">
        <ele>591.83000000000004</ele>
        <time>2025-05-02T14:12:55Z</time>
      </trkpt>
      <trkpt lat="41.310069970786572" lon="-7.166164023801684">
        <ele>589.90999999999997</ele>
        <time>2025-05-02T14:12:59Z</time>
      </trkpt>
      <trkpt lat="41.310020014643669" lon="-7.16604801826179">
        <ele>589.42999999999995</ele>
        <time>2025-05-02T14:13:00Z</time>
      </trkpt>
      <trkpt lat="41.309932004660368" lon="-7.165801003575325">
        <ele>588.95000000000005</ele>
        <time>2025-05-02T14:13:02Z</time>
      </trkpt>
      <trkpt lat="41.309907026588917" lon="-7.165664965286851">
        <ele>588.46000000000004</ele>
        <time>2025-05-02T14:13:03Z</time>
      </trkpt>
      <trkpt lat="41.309881964698434" lon="-7.165523981675506">
        <ele>587.98000000000002</ele>
        <time>2025-05-02T14:13:04Z</time>
      </trkpt>
      <trkpt lat="41.309917001053691" lon="-7.164349006488919">
        <ele>584.13999999999999</ele>
        <time>2025-05-02T14:13:12Z</time>
      </trkpt>
      <trkpt lat="41.309922030195594" lon="-7.164207017049193">
        <ele>583.65999999999997</ele>
        <time>2025-05-02T14:13:13Z</time>
      </trkpt>
      <trkpt lat="41.309909038245678" lon="-7.163233961910009">
        <ele>578.85000000000002</ele>
        <time>2025-05-02T14:13:20Z</time>
      </trkpt>
      <trkpt lat="41.30987299606204" lon="-7.163109993562102">
        <ele>578.37</ele>
        <time>2025-05-02T14:13:21Z</time>
      </trkpt>
      <trkpt lat="41.309823961928487" lon="-7.163001028820872">
        <ele>577.88999999999999</ele>
        <time>2025-05-02T14:13:22Z</time>
      </trkpt>
      <trkpt lat="41.309759002178907" lon="-7.162886029109359">
        <ele>577.40999999999997</ele>
        <time>2025-05-02T14:13:23Z</time>
      </trkpt>
      <trkpt lat="41.309693036600947" lon="-7.162771029397845">
        <ele>576.45000000000005</ele>
        <time>2025-05-02T14:13:24Z</time>
      </trkpt>
      <trkpt lat="41.309626987203956" lon="-7.162655023857951">
        <ele>575.97000000000003</ele>
        <time>2025-05-02T14:13:25Z</time>
      </trkpt>
      <trkpt lat="41.30875401198864" lon="-7.161234961822629">
        <ele>569.24000000000001</ele>
        <time>2025-05-02T14:13:39Z</time>
      </trkpt>
      <trkpt lat="41.308333994820714" lon="-7.160414038226008">
        <ele>565.38999999999999</ele>
        <time>2025-05-02T14:13:47Z</time>
      </trkpt>
      <trkpt lat="41.30821798928082" lon="-7.159963008016348">
        <ele>563.95000000000005</ele>
        <time>2025-05-02T14:13:50Z</time>
      </trkpt>
      <trkpt lat="41.30819896236062" lon="-7.159805009141564">
        <ele>563.47000000000003</ele>
        <time>2025-05-02T14:13:51Z</time>
      </trkpt>
      <trkpt lat="41.308180019259453" lon="-7.159648016095161">
        <ele>563.47000000000003</ele>
        <time>2025-05-02T14:13:52Z</time>
      </trkpt>
      <trkpt lat="41.308165015652776" lon="-7.15949596837163">
        <ele>562.99000000000001</ele>
        <time>2025-05-02T14:13:53Z</time>
      </trkpt>
      <trkpt lat="41.308165015652776" lon="-7.159350961446762">
        <ele>562.50999999999999</ele>
        <time>2025-05-02T14:13:54Z</time>
      </trkpt>
      <trkpt lat="41.308170966804028" lon="-7.159223975613713">
        <ele>562.02999999999997</ele>
        <time>2025-05-02T14:13:55Z</time>
      </trkpt>
      <trkpt lat="41.308182030916214" lon="-7.159105958417058">
        <ele>562.02999999999997</ele>
        <time>2025-05-02T14:13:56Z</time>
      </trkpt>
      <trkpt lat="41.30832502618432" lon="-7.157973982393742">
        <ele>562.99000000000001</ele>
        <time>2025-05-02T14:14:06Z</time>
      </trkpt>
      <trkpt lat="41.308517977595329" lon="-7.157345004379749">
        <ele>566.35000000000002</ele>
        <time>2025-05-02T14:14:13Z</time>
      </trkpt>
      <trkpt lat="41.308531975373626" lon="-7.157308040186763">
        <ele>566.35000000000002</ele>
        <time>2025-05-02T14:14:14Z</time>
      </trkpt>
      <trkpt lat="41.308658961206675" lon="-7.156948037445545">
        <ele>566.35000000000002</ele>
        <time>2025-05-02T14:14:25Z</time>
      </trkpt>
      <trkpt lat="41.308678993955255" lon="-7.156887017190456">
        <ele>566.35000000000002</ele>
        <time>2025-05-02T14:14:26Z</time>
      </trkpt>
      <trkpt lat="41.308699026703835" lon="-7.156805964186788">
        <ele>566.35000000000002</ele>
        <time>2025-05-02T14:14:27Z</time>
      </trkpt>
      <trkpt lat="41.308684023097157" lon="-7.156733963638544">
        <ele>565.87</ele>
        <time>2025-05-02T14:14:28Z</time>
      </trkpt>
      <trkpt lat="41.308661978691816" lon="-7.15665802359581">
        <ele>565.87</ele>
        <time>2025-05-02T14:14:29Z</time>
      </trkpt>
      <trkpt lat="41.308440025895834" lon="-7.1559729706496">
        <ele>564.90999999999997</ele>
        <time>2025-05-02T14:14:39Z</time>
      </trkpt>
      <trkpt lat="41.308322008699179" lon="-7.155761998146772">
        <ele>563.95000000000005</ele>
        <time>2025-05-02T14:14:42Z</time>
      </trkpt>
      <trkpt lat="41.308279009535909" lon="-7.155696032568812">
        <ele>563.95000000000005</ele>
        <time>2025-05-02T14:14:43Z</time>
      </trkpt>
      <trkpt lat="41.308118999004364" lon="-7.155444994568825">
        <ele>562.02999999999997</ele>
        <time>2025-05-02T14:14:47Z</time>
      </trkpt>
      <trkpt lat="41.308079017326236" lon="-7.155382968485355">
        <ele>561.54999999999995</ele>
        <time>2025-05-02T14:14:48Z</time>
      </trkpt>
      <trkpt lat="41.307990001514554" lon="-7.155168978497386">
        <ele>561.07000000000005</ele>
        <time>2025-05-02T14:14:51Z</time>
      </trkpt>
      <trkpt lat="41.307963011786342" lon="-7.154996981844306">
        <ele>560.59000000000003</ele>
        <time>2025-05-02T14:14:53Z</time>
      </trkpt>
      <trkpt lat="41.307949014008045" lon="-7.154907966032624">
        <ele>560.11000000000001</ele>
        <time>2025-05-02T14:14:54Z</time>
      </trkpt>
      <trkpt lat="41.307935016229749" lon="-7.154820039868355">
        <ele>559.62</ele>
        <time>2025-05-02T14:14:55Z</time>
      </trkpt>
      <trkpt lat="41.307739969342947" lon="-7.154015963897109">
        <ele>556.25999999999999</ele>
        <time>2025-05-02T14:15:04Z</time>
      </trkpt>
      <trkpt lat="41.307706022635102" lon="-7.153939018025994">
        <ele>555.77999999999997</ele>
        <time>2025-05-02T14:15:05Z</time>
      </trkpt>
      <trkpt lat="41.307626981288195" lon="-7.153798034414649">
        <ele>554.82000000000005</ele>
        <time>2025-05-02T14:15:07Z</time>
      </trkpt>
      <trkpt lat="41.307583982124925" lon="-7.153739025816321">
        <ele>554.34000000000003</ele>
        <time>2025-05-02T14:15:08Z</time>
      </trkpt>
      <trkpt lat="41.307538971304893" lon="-7.153676999732852">
        <ele>553.86000000000001</ele>
        <time>2025-05-02T14:15:09Z</time>
      </trkpt>
      <trkpt lat="41.307479962706566" lon="-7.153610028326511">
        <ele>553.38</ele>
        <time>2025-05-02T14:15:10Z</time>
      </trkpt>
      <trkpt lat="41.307408967986703" lon="-7.153570968657732">
        <ele>552.89999999999998</ele>
        <time>2025-05-02T14:15:11Z</time>
      </trkpt>
      <trkpt lat="41.30733797326684" lon="-7.153558982536197">
        <ele>552.40999999999997</ele>
        <time>2025-05-02T14:15:12Z</time>
      </trkpt>
      <trkpt lat="41.307224985212088" lon="-7.153552025556564">
        <ele>551.92999999999995</ele>
        <time>2025-05-02T14:15:14Z</time>
      </trkpt>
      <trkpt lat="41.307066986337304" lon="-7.153531992807984">
        <ele>550.97000000000003</ele>
        <time>2025-05-02T14:15:17Z</time>
      </trkpt>
      <trkpt lat="41.307022981345654" lon="-7.15347801335156">
        <ele>550.49000000000001</ele>
        <time>2025-05-02T14:15:18Z</time>
      </trkpt>
      <trkpt lat="41.306980988010764" lon="-7.153425039723516">
        <ele>550.49000000000001</ele>
        <time>2025-05-02T14:15:19Z</time>
      </trkpt>
      <trkpt lat="41.306905969977379" lon="-7.15330601669848">
        <ele>550.00999999999999</ele>
        <time>2025-05-02T14:15:21Z</time>
      </trkpt>
      <trkpt lat="41.306867999956012" lon="-7.153246002271771">
        <ele>550.00999999999999</ele>
        <time>2025-05-02T14:15:22Z</time>
      </trkpt>
      <trkpt lat="41.306773032993078" lon="-7.153139971196652">
        <ele>549.52999999999997</ele>
        <time>2025-05-02T14:15:24Z</time>
      </trkpt>
      <trkpt lat="41.306669013574719" lon="-7.153050033375621">
        <ele>549.04999999999995</ele>
        <time>2025-05-02T14:15:26Z</time>
      </trkpt>
      <trkpt lat="41.306617967784405" lon="-7.15300602838397">
        <ele>548.57000000000005</ele>
        <time>2025-05-02T14:15:27Z</time>
      </trkpt>
      <trkpt lat="41.306562982499599" lon="-7.152956994250417">
        <ele>548.57000000000005</ele>
        <time>2025-05-02T14:15:28Z</time>
      </trkpt>
      <trkpt lat="41.306501962244511" lon="-7.152905026450753">
        <ele>548.09000000000003</ele>
        <time>2025-05-02T14:15:29Z</time>
      </trkpt>
      <trkpt lat="41.306443037465215" lon="-7.152853980660439">
        <ele>547.61000000000001</ele>
        <time>2025-05-02T14:15:30Z</time>
      </trkpt>
      <trkpt lat="41.306378999724984" lon="-7.152796983718872">
        <ele>547.61000000000001</ele>
        <time>2025-05-02T14:15:31Z</time>
      </trkpt>
      <trkpt lat="41.306318985298276" lon="-7.152745015919209">
        <ele>547.13</ele>
        <time>2025-05-02T14:15:32Z</time>
      </trkpt>
      <trkpt lat="41.305483980104327" lon="-7.152052000164986">
        <ele>539.91999999999996</ele>
        <time>2025-05-02T14:15:46Z</time>
      </trkpt>
      <trkpt lat="41.305363029241562" lon="-7.151937000453472">
        <ele>538.96000000000004</ele>
        <time>2025-05-02T14:15:48Z</time>
      </trkpt>
      <trkpt lat="41.305246017873287" lon="-7.151882015168667">
        <ele>538.48000000000002</ele>
        <time>2025-05-02T14:15:49Z</time>
      </trkpt>
      <trkpt lat="41.305283987894654" lon="-7.151722004637122">
        <ele>537.99000000000001</ele>
        <time>2025-05-02T14:15:50Z</time>
      </trkpt>
      <trkpt lat="41.305236965417862" lon="-7.151602981612086">
        <ele>537.99000000000001</ele>
        <time>2025-05-02T14:15:51Z</time>
      </trkpt>
      <trkpt lat="41.305192960426211" lon="-7.151470966637135">
        <ele>537.50999999999999</ele>
        <time>2025-05-02T14:15:52Z</time>
      </trkpt>
      <trkpt lat="41.305086007341743" lon="-7.150712991133332">
        <ele>537.99000000000001</ele>
        <time>2025-05-02T14:15:57Z</time>
      </trkpt>
      <trkpt lat="41.305039990693331" lon="-7.150279982015491">
        <ele>538.48000000000002</ele>
        <time>2025-05-02T14:16:00Z</time>
      </trkpt>
      <trkpt lat="41.304787024855614" lon="-7.149179019033909">
        <ele>537.50999999999999</ele>
        <time>2025-05-02T14:16:08Z</time>
      </trkpt>
      <trkpt lat="41.304734973236918" lon="-7.149067958816886">
        <ele>537.50999999999999</ele>
        <time>2025-05-02T14:16:09Z</time>
      </trkpt>
      <trkpt lat="41.304683005437255" lon="-7.148956982418895">
        <ele>537.50999999999999</ele>
        <time>2025-05-02T14:16:10Z</time>
      </trkpt>
      <trkpt lat="41.304615028202534" lon="-7.148877019062638">
        <ele>537.02999999999997</ele>
        <time>2025-05-02T14:16:11Z</time>
      </trkpt>
      <trkpt lat="41.304535986855626" lon="-7.148806024342775">
        <ele>537.02999999999997</ele>
        <time>2025-05-02T14:16:12Z</time>
      </trkpt>
      <trkpt lat="41.30443599075079" lon="-7.14873100630939">
        <ele>537.02999999999997</ele>
        <time>2025-05-02T14:16:13Z</time>
      </trkpt>
      <trkpt lat="41.30433096550405" lon="-7.14873100630939">
        <ele>536.54999999999995</ele>
        <time>2025-05-02T14:16:14Z</time>
      </trkpt>
      <trkpt lat="41.304219989106059" lon="-7.148765036836267">
        <ele>536.07000000000005</ele>
        <time>2025-05-02T14:16:15Z</time>
      </trkpt>
      <trkpt lat="41.304118987172842" lon="-7.148808035999537">
        <ele>535.59000000000003</ele>
        <time>2025-05-02T14:16:16Z</time>
      </trkpt>
      <trkpt lat="41.304012034088373" lon="-7.148852963000536">
        <ele>535.59000000000003</ele>
        <time>2025-05-02T14:16:17Z</time>
      </trkpt>
      <trkpt lat="41.303451033309102" lon="-7.149045998230577">
        <ele>532.23000000000002</ele>
        <time>2025-05-02T14:16:22Z</time>
      </trkpt>
      <trkpt lat="41.303331004455686" lon="-7.149035017937422">
        <ele>531.26999999999998</ele>
        <time>2025-05-02T14:16:23Z</time>
      </trkpt>
      <trkpt lat="41.303218016400933" lon="-7.148973997682333">
        <ele>530.78999999999996</ele>
        <time>2025-05-02T14:16:24Z</time>
      </trkpt>
      <trkpt lat="41.303109973669052" lon="-7.148883976042271">
        <ele>530.29999999999995</ele>
        <time>2025-05-02T14:16:25Z</time>
      </trkpt>
      <trkpt lat="41.303021041676402" lon="-7.148761013522744">
        <ele>529.82000000000005</ele>
        <time>2025-05-02T14:16:26Z</time>
      </trkpt>
      <trkpt lat="41.30293102003634" lon="-7.148634027689695">
        <ele>529.34000000000003</ele>
        <time>2025-05-02T14:16:27Z</time>
      </trkpt>
      <trkpt lat="41.302743013948202" lon="-7.148371003568173">
        <ele>528.86000000000001</ele>
        <time>2025-05-02T14:16:29Z</time>
      </trkpt>
      <trkpt lat="41.302665984258056" lon="-7.148203030228615">
        <ele>528.86000000000001</ele>
        <time>2025-05-02T14:16:30Z</time>
      </trkpt>
      <trkpt lat="41.302617033943534" lon="-7.148026004433632">
        <ele>528.38</ele>
        <time>2025-05-02T14:16:31Z</time>
      </trkpt>
      <trkpt lat="41.302492981776595" lon="-7.147514959797263">
        <ele>527.41999999999996</ele>
        <time>2025-05-02T14:16:34Z</time>
      </trkpt>
      <trkpt lat="41.302412012591958" lon="-7.147413035854697">
        <ele>526.94000000000005</ele>
        <time>2025-05-02T14:16:35Z</time>
      </trkpt>
      <trkpt lat="41.302306987345219" lon="-7.147340029478073">
        <ele>526.46000000000004</ele>
        <time>2025-05-02T14:16:36Z</time>
      </trkpt>
      <trkpt lat="41.302195005118847" lon="-7.147262999787927">
        <ele>525.98000000000002</ele>
        <time>2025-05-02T14:16:37Z</time>
      </trkpt>
      <trkpt lat="41.302083022892475" lon="-7.1471849642694">
        <ele>525.01999999999998</ele>
        <time>2025-05-02T14:16:38Z</time>
      </trkpt>
      <trkpt lat="41.3019660115242" lon="-7.147105000913143">
        <ele>525.01999999999998</ele>
        <time>2025-05-02T14:16:39Z</time>
      </trkpt>
      <trkpt lat="41.301835002377629" lon="-7.1470139734447">
        <ele>524.53999999999996</ele>
        <time>2025-05-02T14:16:40Z</time>
      </trkpt>
      <trkpt lat="41.301760990172625" lon="-7.146891010925174">
        <ele>524.05999999999995</ele>
        <time>2025-05-02T14:16:41Z</time>
      </trkpt>
      <trkpt lat="41.301691001281142" lon="-7.146737035363913">
        <ele>524.05999999999995</ele>
        <time>2025-05-02T14:16:42Z</time>
      </trkpt>
      <trkpt lat="41.301653031259775" lon="-7.146574007347226">
        <ele>523.58000000000004</ele>
        <time>2025-05-02T14:16:43Z</time>
      </trkpt>
      <trkpt lat="41.301612965762615" lon="-7.146408967673779">
        <ele>523.58000000000004</ele>
        <time>2025-05-02T14:16:44Z</time>
      </trkpt>
      <trkpt lat="41.301556974649429" lon="-7.146264966577292">
        <ele>523.58000000000004</ele>
        <time>2025-05-02T14:16:45Z</time>
      </trkpt>
      <trkpt lat="41.301469970494509" lon="-7.146091964095831">
        <ele>523.58000000000004</ele>
        <time>2025-05-02T14:16:46Z</time>
      </trkpt>
      <trkpt lat="41.301380032673478" lon="-7.14602398686111">
        <ele>523.58000000000004</ele>
        <time>2025-05-02T14:16:47Z</time>
      </trkpt>
      <trkpt lat="41.301262015476823" lon="-7.14595902711153">
        <ele>524.05999999999995</ele>
        <time>2025-05-02T14:16:48Z</time>
      </trkpt>
      <trkpt lat="41.301128994673491" lon="-7.145944023504853">
        <ele>524.05999999999995</ele>
        <time>2025-05-02T14:16:49Z</time>
      </trkpt>
      <trkpt lat="41.300989016890526" lon="-7.145929019898176">
        <ele>524.53999999999996</ele>
        <time>2025-05-02T14:16:50Z</time>
      </trkpt>
      <trkpt lat="41.300849039107561" lon="-7.145934971049428">
        <ele>524.53999999999996</ele>
        <time>2025-05-02T14:16:51Z</time>
      </trkpt>
      <trkpt lat="41.300580985844135" lon="-7.145999008789659">
        <ele>525.5</ele>
        <time>2025-05-02T14:16:53Z</time>
      </trkpt>
      <trkpt lat="41.300445031374693" lon="-7.146051982417703">
        <ele>525.98000000000002</ele>
        <time>2025-05-02T14:16:54Z</time>
      </trkpt>
      <trkpt lat="41.300357021391392" lon="-7.146183997392654">
        <ele>526.46000000000004</ele>
        <time>2025-05-02T14:16:55Z</time>
      </trkpt>
      <trkpt lat="41.300263982266188" lon="-7.146323975175619">
        <ele>526.46000000000004</ele>
        <time>2025-05-02T14:16:56Z</time>
      </trkpt>
      <trkpt lat="41.300160968676209" lon="-7.146478034555912">
        <ele>526.46000000000004</ele>
        <time>2025-05-02T14:16:57Z</time>
      </trkpt>
      <trkpt lat="41.300076982006431" lon="-7.14662597514689">
        <ele>526.46000000000004</ele>
        <time>2025-05-02T14:16:58Z</time>
      </trkpt>
      <trkpt lat="41.299971034750342" lon="-7.14675597846508">
        <ele>526.46000000000004</ele>
        <time>2025-05-02T14:16:59Z</time>
      </trkpt>
      <trkpt lat="41.299866009503603" lon="-7.146885981783271">
        <ele>526.46000000000004</ele>
        <time>2025-05-02T14:17:00Z</time>
      </trkpt>
      <trkpt lat="41.299762995913625" lon="-7.146982960402966">
        <ele>526.46000000000004</ele>
        <time>2025-05-02T14:17:01Z</time>
      </trkpt>
      <trkpt lat="41.299631986767054" lon="-7.147028977051377">
        <ele>526.46000000000004</ele>
        <time>2025-05-02T14:17:02Z</time>
      </trkpt>
      <trkpt lat="41.299500977620482" lon="-7.14707599952817">
        <ele>526.94000000000005</ele>
        <time>2025-05-02T14:17:03Z</time>
      </trkpt>
      <trkpt lat="41.298704026266932" lon="-7.147164009511471">
        <ele>527.89999999999998</ele>
        <time>2025-05-02T14:17:09Z</time>
      </trkpt>
      <trkpt lat="41.298605035990477" lon="-7.147137019783258">
        <ele>527.89999999999998</ele>
        <time>2025-05-02T14:17:10Z</time>
      </trkpt>
      <trkpt lat="41.298508979380131" lon="-7.147089997306466">
        <ele>527.89999999999998</ele>
        <time>2025-05-02T14:17:11Z</time>
      </trkpt>
      <trkpt lat="41.298430021852255" lon="-7.147027971222997">
        <ele>527.89999999999998</ele>
        <time>2025-05-02T14:17:12Z</time>
      </trkpt>
      <trkpt lat="41.298375958576798" lon="-7.146914983168244">
        <ele>527.89999999999998</ele>
        <time>2025-05-02T14:17:13Z</time>
      </trkpt>
      <trkpt lat="41.29833203740418" lon="-7.146790008991957">
        <ele>527.89999999999998</ele>
        <time>2025-05-02T14:17:14Z</time>
      </trkpt>
      <trkpt lat="41.298287026584148" lon="-7.146661011502147">
        <ele>528.38</ele>
        <time>2025-05-02T14:17:15Z</time>
      </trkpt>
      <trkpt lat="41.298241009935737" lon="-7.146527990698814">
        <ele>528.38</ele>
        <time>2025-05-02T14:17:16Z</time>
      </trkpt>
      <trkpt lat="41.298091979697347" lon="-7.146101016551256">
        <ele>528.86000000000001</ele>
        <time>2025-05-02T14:17:19Z</time>
      </trkpt>
      <trkpt lat="41.298031965270638" lon="-7.145986016839743">
        <ele>528.86000000000001</ele>
        <time>2025-05-02T14:17:20Z</time>
      </trkpt>
      <trkpt lat="41.297933980822563" lon="-7.145913010463119">
        <ele>528.86000000000001</ele>
        <time>2025-05-02T14:17:21Z</time>
      </trkpt>
      <trkpt lat="41.297825016081333" lon="-7.145831035450101">
        <ele>528.86000000000001</ele>
        <time>2025-05-02T14:17:22Z</time>
      </trkpt>
      <trkpt lat="41.297709010541439" lon="-7.14574403129518">
        <ele>528.86000000000001</ele>
        <time>2025-05-02T14:17:23Z</time>
      </trkpt>
      <trkpt lat="41.297052036970854" lon="-7.145404983311892">
        <ele>526.94000000000005</ele>
        <time>2025-05-02T14:17:28Z</time>
      </trkpt>
      <trkpt lat="41.296932008117437" lon="-7.145404983311892">
        <ele>525.5</ele>
        <time>2025-05-02T14:17:29Z</time>
      </trkpt>
      <trkpt lat="41.296793036162853" lon="-7.145404983311892">
        <ele>524.53999999999996</ele>
        <time>2025-05-02T14:17:30Z</time>
      </trkpt>
      <trkpt lat="41.296454994007945" lon="-7.14559500105679">
        <ele>521.64999999999998</ele>
        <time>2025-05-02T14:17:33Z</time>
      </trkpt>
      <trkpt lat="41.296349968761206" lon="-7.145698014646769">
        <ele>521.16999999999996</ele>
        <time>2025-05-02T14:17:34Z</time>
      </trkpt>
      <trkpt lat="41.296259025111794" lon="-7.145828017964959">
        <ele>520.21000000000004</ele>
        <time>2025-05-02T14:17:35Z</time>
      </trkpt>
      <trkpt lat="41.29618601873517" lon="-7.145975036546588">
        <ele>519.25</ele>
        <time>2025-05-02T14:17:36Z</time>
      </trkpt>
      <trkpt lat="41.296150982379913" lon="-7.146143009886146">
        <ele>518.28999999999996</ele>
        <time>2025-05-02T14:17:37Z</time>
      </trkpt>
      <trkpt lat="41.296124998480082" lon="-7.146320035681129">
        <ele>517.80999999999995</ele>
        <time>2025-05-02T14:17:38Z</time>
      </trkpt>
      <trkpt lat="41.296098008751869" lon="-7.146504018455744">
        <ele>516.85000000000002</ele>
        <time>2025-05-02T14:17:39Z</time>
      </trkpt>
      <trkpt lat="41.296017961576581" lon="-7.1470330003649">
        <ele>514.91999999999996</ele>
        <time>2025-05-02T14:17:42Z</time>
      </trkpt>
      <trkpt lat="41.295983009040356" lon="-7.147198962047696">
        <ele>513.96000000000004</ele>
        <time>2025-05-02T14:17:43Z</time>
      </trkpt>
      <trkpt lat="41.295916037634015" lon="-7.147345980629325">
        <ele>513</ele>
        <time>2025-05-02T14:17:44Z</time>
      </trkpt>
      <trkpt lat="41.295401975512505" lon="-7.148443004116416">
        <ele>506.75</ele>
        <time>2025-05-02T14:17:51Z</time>
      </trkpt>
      <trkpt lat="41.295357970520854" lon="-7.14862103573978">
        <ele>505.79000000000002</ele>
        <time>2025-05-02T14:17:52Z</time>
      </trkpt>
      <trkpt lat="41.295330980792642" lon="-7.148803006857634">
        <ele>505.31</ele>
        <time>2025-05-02T14:17:53Z</time>
      </trkpt>
      <trkpt lat="41.29530499689281" lon="-7.148981960490346">
        <ele>504.35000000000002</ele>
        <time>2025-05-02T14:17:54Z</time>
      </trkpt>
      <trkpt lat="41.295280018821359" lon="-7.149152029305697">
        <ele>503.38999999999999</ele>
        <time>2025-05-02T14:17:55Z</time>
      </trkpt>
      <trkpt lat="41.295238025486469" lon="-7.149296030402184">
        <ele>502.43000000000001</ele>
        <time>2025-05-02T14:17:56Z</time>
      </trkpt>
      <trkpt lat="41.295170970261097" lon="-7.149401977658272">
        <ele>501.94999999999999</ele>
        <time>2025-05-02T14:17:57Z</time>
      </trkpt>
      <trkpt lat="41.295084971934557" lon="-7.149459980428219">
        <ele>501.45999999999998</ele>
        <time>2025-05-02T14:17:58Z</time>
      </trkpt>
      <trkpt lat="41.294986987486482" lon="-7.149459980428219">
        <ele>500.98000000000002</ele>
        <time>2025-05-02T14:17:59Z</time>
      </trkpt>
      <trkpt lat="41.294900989159942" lon="-7.149404995143414">
        <ele>500.5</ele>
        <time>2025-05-02T14:18:00Z</time>
      </trkpt>
      <trkpt lat="41.294828988611698" lon="-7.149300975725055">
        <ele>500.5</ele>
        <time>2025-05-02T14:18:01Z</time>
      </trkpt>
      <trkpt lat="41.294779032468796" lon="-7.149162003770471">
        <ele>500.01999999999998</ele>
        <time>2025-05-02T14:18:02Z</time>
      </trkpt>
      <trkpt lat="41.294733015820384" lon="-7.1490309946239">
        <ele>499.54000000000002</ele>
        <time>2025-05-02T14:18:03Z</time>
      </trkpt>
      <trkpt lat="41.294676018878818" lon="-7.148896967992187">
        <ele>499.54000000000002</ele>
        <time>2025-05-02T14:18:04Z</time>
      </trkpt>
      <trkpt lat="41.294624973088503" lon="-7.14877400547266">
        <ele>498.57999999999998</ele>
        <time>2025-05-02T14:18:05Z</time>
      </trkpt>
      <trkpt lat="41.294533023610711" lon="-7.148711979389191">
        <ele>498.10000000000002</ele>
        <time>2025-05-02T14:18:06Z</time>
      </trkpt>
      <trkpt lat="41.294421041384339" lon="-7.148682978004217">
        <ele>497.13999999999999</ele>
        <time>2025-05-02T14:18:07Z</time>
      </trkpt>
      <trkpt lat="41.294286008924246" lon="-7.148673003539443">
        <ele>496.66000000000003</ele>
        <time>2025-05-02T14:18:08Z</time>
      </trkpt>
      <trkpt lat="41.294139996170998" lon="-7.148663029074669">
        <ele>496.18000000000001</ele>
        <time>2025-05-02T14:18:09Z</time>
      </trkpt>
      <trkpt lat="41.2934560328722" lon="-7.148663029074669">
        <ele>492.81</ele>
        <time>2025-05-02T14:18:14Z</time>
      </trkpt>
      <trkpt lat="41.29335000179708" lon="-7.148737963289022">
        <ele>492.32999999999998</ele>
        <time>2025-05-02T14:18:15Z</time>
      </trkpt>
      <trkpt lat="41.293262997642159" lon="-7.148837959393859">
        <ele>491.37</ele>
        <time>2025-05-02T14:18:16Z</time>
      </trkpt>
      <trkpt lat="41.293231984600425" lon="-7.148962011560798">
        <ele>490.88999999999999</ele>
        <time>2025-05-02T14:18:17Z</time>
      </trkpt>
      <trkpt lat="41.29324397072196" lon="-7.149086985737085">
        <ele>490.41000000000003</ele>
        <time>2025-05-02T14:18:18Z</time>
      </trkpt>
      <trkpt lat="41.293285964056849" lon="-7.149196034297347">
        <ele>489.93000000000001</ele>
        <time>2025-05-02T14:18:19Z</time>
      </trkpt>
      <trkpt lat="41.293369028717279" lon="-7.149283960461617">
        <ele>489.93000000000001</ele>
        <time>2025-05-02T14:18:20Z</time>
      </trkpt>
      <trkpt lat="41.293455027043819" lon="-7.14937599375844">
        <ele>489.44999999999999</ele>
        <time>2025-05-02T14:18:21Z</time>
      </trkpt>
      <trkpt lat="41.293539013713598" lon="-7.149465009570122">
        <ele>489.44999999999999</ele>
        <time>2025-05-02T14:18:22Z</time>
      </trkpt>
      <trkpt lat="41.293602967634797" lon="-7.149556959047914">
        <ele>488.97000000000003</ele>
        <time>2025-05-02T14:18:23Z</time>
      </trkpt>
      <trkpt lat="41.293633980676532" lon="-7.149692997336388">
        <ele>488.49000000000001</ele>
        <time>2025-05-02T14:18:24Z</time>
      </trkpt>
      <trkpt lat="41.293652001768351" lon="-7.149833980947733">
        <ele>488.49000000000001</ele>
        <time>2025-05-02T14:18:25Z</time>
      </trkpt>
      <trkpt lat="41.293617971241474" lon="-7.149972030892968">
        <ele>487.52999999999997</ele>
        <time>2025-05-02T14:18:26Z</time>
      </trkpt>
      <trkpt lat="41.293572960421443" lon="-7.15010697953403">
        <ele>487.05000000000001</ele>
        <time>2025-05-02T14:18:27Z</time>
      </trkpt>
      <trkpt lat="41.293510012328625" lon="-7.150232037529349">
        <ele>486.56</ele>
        <time>2025-05-02T14:18:28Z</time>
      </trkpt>
      <trkpt lat="41.293408004567027" lon="-7.150294985622168">
        <ele>486.07999999999998</ele>
        <time>2025-05-02T14:18:29Z</time>
      </trkpt>
      <trkpt lat="41.293300967663527" lon="-7.150361035019159">
        <ele>485.60000000000002</ele>
        <time>2025-05-02T14:18:30Z</time>
      </trkpt>
      <trkpt lat="41.293184040114284" lon="-7.150416020303965">
        <ele>485.12</ele>
        <time>2025-05-02T14:18:31Z</time>
      </trkpt>
      <trkpt lat="41.292926967144012" lon="-7.150504030287266">
        <ele>483.19999999999999</ele>
        <time>2025-05-02T14:18:33Z</time>
      </trkpt>
      <trkpt lat="41.292801992967725" lon="-7.150596985593438">
        <ele>482.72000000000003</ele>
        <time>2025-05-02T14:18:34Z</time>
      </trkpt>
      <trkpt lat="41.292286003008485" lon="-7.150983978062868">
        <ele>479.83999999999997</ele>
        <time>2025-05-02T14:18:38Z</time>
      </trkpt>
      <trkpt lat="41.292163040488958" lon="-7.151101995259523">
        <ele>479.35000000000002</ele>
        <time>2025-05-02T14:18:39Z</time>
      </trkpt>
      <trkpt lat="41.292063966393471" lon="-7.15124599635601">
        <ele>478.87</ele>
        <time>2025-05-02T14:18:40Z</time>
      </trkpt>
      <trkpt lat="41.291963970288634" lon="-7.151391003280878">
        <ele>478.38999999999999</ele>
        <time>2025-05-02T14:18:41Z</time>
      </trkpt>
      <trkpt lat="41.291862968355417" lon="-7.151536010205746">
        <ele>478.38999999999999</ele>
        <time>2025-05-02T14:18:42Z</time>
      </trkpt>
      <trkpt lat="41.291656019166112" lon="-7.151834992691875">
        <ele>478.38999999999999</ele>
        <time>2025-05-02T14:18:44Z</time>
      </trkpt>
      <trkpt lat="41.291536996141076" lon="-7.151946974918246">
        <ele>477.91000000000003</ele>
        <time>2025-05-02T14:18:45Z</time>
      </trkpt>
      <trkpt lat="41.291403975337744" lon="-7.152044959366322">
        <ele>477.91000000000003</ele>
        <time>2025-05-02T14:18:46Z</time>
      </trkpt>
      <trkpt lat="41.291142962872982" lon="-7.152237994596362">
        <ele>476.94999999999999</ele>
        <time>2025-05-02T14:18:48Z</time>
      </trkpt>
      <trkpt lat="41.29100700840354" lon="-7.152337990701199">
        <ele>476.47000000000003</ele>
        <time>2025-05-02T14:18:49Z</time>
      </trkpt>
      <trkpt lat="41.290610963478684" lon="-7.15264200232923">
        <ele>474.55000000000001</ele>
        <time>2025-05-02T14:18:52Z</time>
      </trkpt>
      <trkpt lat="41.2904719915241" lon="-7.152690030634403">
        <ele>474.06999999999999</ele>
        <time>2025-05-02T14:18:53Z</time>
      </trkpt>
      <trkpt lat="41.290335031226277" lon="-7.152720959857106">
        <ele>473.58999999999997</ele>
        <time>2025-05-02T14:18:54Z</time>
      </trkpt>
      <trkpt lat="41.29019103012979" lon="-7.152712997049093">
        <ele>472.63</ele>
        <time>2025-05-02T14:18:55Z</time>
      </trkpt>
      <trkpt lat="41.2900419998914" lon="-7.15270503424108">
        <ele>471.66000000000003</ele>
        <time>2025-05-02T14:18:56Z</time>
      </trkpt>
      <trkpt lat="41.289614019915462" lon="-7.152680978178978">
        <ele>469.25999999999999</ele>
        <time>2025-05-02T14:18:59Z</time>
      </trkpt>
      <trkpt lat="41.28950597718358" lon="-7.15261903591454">
        <ele>468.30000000000001</ele>
        <time>2025-05-02T14:19:00Z</time>
      </trkpt>
      <trkpt lat="41.289389971643686" lon="-7.152529014274478">
        <ele>467.33999999999997</ele>
        <time>2025-05-02T14:19:01Z</time>
      </trkpt>
      <trkpt lat="41.289302967488766" lon="-7.152394987642765">
        <ele>466.38</ele>
        <time>2025-05-02T14:19:02Z</time>
      </trkpt>
      <trkpt lat="41.289208000525832" lon="-7.152246963232756">
        <ele>465.42000000000002</ele>
        <time>2025-05-02T14:19:03Z</time>
      </trkpt>
      <trkpt lat="41.289110016077757" lon="-7.152096005156636">
        <ele>464.93000000000001</ele>
        <time>2025-05-02T14:19:04Z</time>
      </trkpt>
      <trkpt lat="41.289012031629682" lon="-7.151943035423756">
        <ele>463.49000000000001</ele>
        <time>2025-05-02T14:19:05Z</time>
      </trkpt>
      <trkpt lat="41.288898037746549" lon="-7.151805991306901">
        <ele>462.52999999999997</ele>
        <time>2025-05-02T14:19:06Z</time>
      </trkpt>
      <trkpt lat="41.28877398557961" lon="-7.151691997423768">
        <ele>461.56999999999999</ele>
        <time>2025-05-02T14:19:07Z</time>
      </trkpt>
      <trkpt lat="41.288682036101818" lon="-7.151605999097228">
        <ele>460.61000000000001</ele>
        <time>2025-05-02T14:19:08Z</time>
      </trkpt>
      <trkpt lat="41.28857902251184" lon="-7.151444982737303">
        <ele>459.64999999999998</ele>
        <time>2025-05-02T14:19:09Z</time>
      </trkpt>
      <trkpt lat="41.288530994206667" lon="-7.151369964703918">
        <ele>458.69</ele>
        <time>2025-05-02T14:19:10Z</time>
      </trkpt>
      <trkpt lat="41.288530994206667" lon="-7.151241973042488">
        <ele>457.72000000000003</ele>
        <time>2025-05-02T14:19:11Z</time>
      </trkpt>
      <trkpt lat="41.288530994206667" lon="-7.151069976389408">
        <ele>456.75999999999999</ele>
        <time>2025-05-02T14:19:12Z</time>
      </trkpt>
      <trkpt lat="41.288569970056415" lon="-7.150936033576727">
        <ele>455.80000000000001</ele>
        <time>2025-05-02T14:19:13Z</time>
      </trkpt>
      <trkpt lat="41.288788989186287" lon="-7.150275958701968">
        <ele>451</ele>
        <time>2025-05-02T14:19:17Z</time>
      </trkpt>
      <trkpt lat="41.288869036361575" lon="-7.150184009224176">
        <ele>450.02999999999997</ele>
        <time>2025-05-02T14:19:18Z</time>
      </trkpt>
      <trkpt lat="41.288952017202973" lon="-7.150100022554398">
        <ele>448.58999999999997</ele>
        <time>2025-05-02T14:19:19Z</time>
      </trkpt>
      <trkpt lat="41.289111021906137" lon="-7.150040008127689">
        <ele>447.63</ele>
        <time>2025-05-02T14:19:20Z</time>
      </trkpt>
      <trkpt lat="41.289200037717819" lon="-7.150045037269592">
        <ele>446.19</ele>
        <time>2025-05-02T14:19:21Z</time>
      </trkpt>
      <trkpt lat="41.289328029379249" lon="-7.150053000077605">
        <ele>445.23000000000002</ele>
        <time>2025-05-02T14:19:22Z</time>
      </trkpt>
      <trkpt lat="41.289450991898775" lon="-7.150060962885618">
        <ele>444.75</ele>
        <time>2025-05-02T14:19:23Z</time>
      </trkpt>
      <trkpt lat="41.289563979953527" lon="-7.150005977600813">
        <ele>443.79000000000002</ele>
        <time>2025-05-02T14:19:24Z</time>
      </trkpt>
      <trkpt lat="41.289626006036997" lon="-7.149974964559078">
        <ele>442.81999999999999</ele>
        <time>2025-05-02T14:19:25Z</time>
      </trkpt>
      <trkpt lat="41.289683002978563" lon="-7.149861976504326">
        <ele>442.33999999999997</ele>
        <time>2025-05-02T14:19:26Z</time>
      </trkpt>
      <trkpt lat="41.289710998535156" lon="-7.149803973734379">
        <ele>441.38</ele>
        <time>2025-05-02T14:19:27Z</time>
      </trkpt>
      <trkpt lat="41.289710998535156" lon="-7.149716969579458">
        <ele>440.89999999999998</ele>
        <time>2025-05-02T14:19:28Z</time>
      </trkpt>
      <trkpt lat="41.289710998535156" lon="-7.149612028151751">
        <ele>439.94</ele>
        <time>2025-05-02T14:19:29Z</time>
      </trkpt>
      <trkpt lat="41.289680991321802" lon="-7.149550002068281">
        <ele>439.45999999999998</ele>
        <time>2025-05-02T14:19:30Z</time>
      </trkpt>
      <trkpt lat="41.289617037400603" lon="-7.149421004578471">
        <ele>438.5</ele>
        <time>2025-05-02T14:19:31Z</time>
      </trkpt>
      <trkpt lat="41.289540007710457" lon="-7.14926702901721">
        <ele>437.54000000000002</ele>
        <time>2025-05-02T14:19:32Z</time>
      </trkpt>
      <trkpt lat="41.289441017434001" lon="-7.149143982678652">
        <ele>436.57999999999998</ele>
        <time>2025-05-02T14:19:33Z</time>
      </trkpt>
      <trkpt lat="41.289328029379249" lon="-7.149026971310377">
        <ele>435.61000000000001</ele>
        <time>2025-05-02T14:19:34Z</time>
      </trkpt>
      <trkpt lat="41.289192996919155" lon="-7.148939967155457">
        <ele>434.64999999999998</ele>
        <time>2025-05-02T14:19:35Z</time>
      </trkpt>
      <trkpt lat="41.289067016914487" lon="-7.1488600037992">
        <ele>433.69</ele>
        <time>2025-05-02T14:19:36Z</time>
      </trkpt>
      <trkpt lat="41.28894698806107" lon="-7.148782974109054">
        <ele>432.73000000000002</ele>
        <time>2025-05-02T14:19:37Z</time>
      </trkpt>
      <trkpt lat="41.288827965036035" lon="-7.148699993267655">
        <ele>431.29000000000002</ele>
        <time>2025-05-02T14:19:38Z</time>
      </trkpt>
      <trkpt lat="41.288777003064752" lon="-7.148562027141452">
        <ele>430.81</ele>
        <time>2025-05-02T14:19:39Z</time>
      </trkpt>
      <trkpt lat="41.288724029436707" lon="-7.148418026044965">
        <ele>429.85000000000002</ele>
        <time>2025-05-02T14:19:40Z</time>
      </trkpt>
      <trkpt lat="41.288673989474773" lon="-7.148282993584871">
        <ele>428.88999999999999</ele>
        <time>2025-05-02T14:19:41Z</time>
      </trkpt>
      <trkpt lat="41.288616992533207" lon="-7.148130023851991">
        <ele>427.92000000000002</ele>
        <time>2025-05-02T14:19:42Z</time>
      </trkpt>
      <trkpt lat="41.288541974499822" lon="-7.148115020245314">
        <ele>427.44</ele>
        <time>2025-05-02T14:19:43Z</time>
      </trkpt>
      <trkpt lat="41.288456982001662" lon="-7.148098004981875">
        <ele>427.44</ele>
        <time>2025-05-02T14:19:44Z</time>
      </trkpt>
      <trkpt lat="41.288358997553587" lon="-7.148105967789888">
        <ele>427.44</ele>
        <time>2025-05-02T14:19:45Z</time>
      </trkpt>
      <trkpt lat="41.288267970085144" lon="-7.148147039115429">
        <ele>426.95999999999998</ele>
        <time>2025-05-02T14:19:46Z</time>
      </trkpt>
      <trkpt lat="41.288089016452432" lon="-7.148225996643305">
        <ele>426.48000000000002</ele>
        <time>2025-05-02T14:19:48Z</time>
      </trkpt>
      <trkpt lat="41.287988014519215" lon="-7.148256003856659">
        <ele>426.48000000000002</ele>
        <time>2025-05-02T14:19:49Z</time>
      </trkpt>
      <trkpt lat="41.287878965958953" lon="-7.148244017735124">
        <ele>426</ele>
        <time>2025-05-02T14:19:50Z</time>
      </trkpt>
      <trkpt lat="41.287781987339258" lon="-7.148187020793557">
        <ele>425.04000000000002</ele>
        <time>2025-05-02T14:19:51Z</time>
      </trkpt>
      <trkpt lat="41.287705963477492" lon="-7.148093981668353">
        <ele>424.56</ele>
        <time>2025-05-02T14:19:52Z</time>
      </trkpt>
      <trkpt lat="41.287628011777997" lon="-7.147993985563517">
        <ele>424.07999999999998</ele>
        <time>2025-05-02T14:19:53Z</time>
      </trkpt>
      <trkpt lat="41.287584006786346" lon="-7.147839004173875">
        <ele>423.60000000000002</ele>
        <time>2025-05-02T14:19:54Z</time>
      </trkpt>
      <trkpt lat="41.287534972652793" lon="-7.147669019177556">
        <ele>423.12</ele>
        <time>2025-05-02T14:19:55Z</time>
      </trkpt>
      <trkpt lat="41.287458026781678" lon="-7.147108018398285">
        <ele>421.19</ele>
        <time>2025-05-02T14:19:58Z</time>
      </trkpt>
      <trkpt lat="41.287458026781678" lon="-7.146918000653386">
        <ele>420.70999999999998</ele>
        <time>2025-05-02T14:19:59Z</time>
      </trkpt>
      <trkpt lat="41.287502031773329" lon="-7.146761007606983">
        <ele>420.23000000000002</ele>
        <time>2025-05-02T14:20:00Z</time>
      </trkpt>
      <trkpt lat="41.287566991522908" lon="-7.146634021773934">
        <ele>419.75</ele>
        <time>2025-05-02T14:20:01Z</time>
      </trkpt>
      <trkpt lat="41.287655001506209" lon="-7.14651801623404">
        <ele>419.26999999999998</ele>
        <time>2025-05-02T14:20:02Z</time>
      </trkpt>
      <trkpt lat="41.287774024531245" lon="-7.146422965452075">
        <ele>419.26999999999998</ele>
        <time>2025-05-02T14:20:03Z</time>
      </trkpt>
      <trkpt lat="41.288663009181619" lon="-7.145668007433415">
        <ele>414.94999999999999</ele>
        <time>2025-05-02T14:20:10Z</time>
      </trkpt>
      <trkpt lat="41.288717994466424" lon="-7.145542027428746">
        <ele>413.98000000000002</ele>
        <time>2025-05-02T14:20:11Z</time>
      </trkpt>
      <trkpt lat="41.288743978366256" lon="-7.145415041595697">
        <ele>413.5</ele>
        <time>2025-05-02T14:20:12Z</time>
      </trkpt>
      <trkpt lat="41.288700979202986" lon="-7.145300041884184">
        <ele>412.54000000000002</ele>
        <time>2025-05-02T14:20:13Z</time>
      </trkpt>
      <trkpt lat="41.288626966997981" lon="-7.145222006365657">
        <ele>412.06</ele>
        <time>2025-05-02T14:20:14Z</time>
      </trkpt>
      <trkpt lat="41.288523031398654" lon="-7.145159980282188">
        <ele>411.57999999999998</ele>
        <time>2025-05-02T14:20:15Z</time>
      </trkpt>
      <trkpt lat="41.288405014201999" lon="-7.145099965855479">
        <ele>411.57999999999998</ele>
        <time>2025-05-02T14:20:16Z</time>
      </trkpt>
      <trkpt lat="41.288276016712189" lon="-7.145046992227435">
        <ele>411.10000000000002</ele>
        <time>2025-05-02T14:20:17Z</time>
      </trkpt>
      <trkpt lat="41.288102008402348" lon="-7.144975997507572">
        <ele>410.62</ele>
        <time>2025-05-02T14:20:18Z</time>
      </trkpt>
      <trkpt lat="41.287994971498847" lon="-7.14488597586751">
        <ele>410.13999999999999</ele>
        <time>2025-05-02T14:20:19Z</time>
      </trkpt>
      <trkpt lat="41.286928961053491" lon="-7.143957009539008">
        <ele>408.22000000000003</ele>
        <time>2025-05-02T14:20:27Z</time>
      </trkpt>
      <trkpt lat="41.286843968555331" lon="-7.143824994564056">
        <ele>407.74000000000001</ele>
        <time>2025-05-02T14:20:28Z</time>
      </trkpt>
      <trkpt lat="41.286695022135973" lon="-7.143563982099295">
        <ele>406.76999999999998</ele>
        <time>2025-05-02T14:20:30Z</time>
      </trkpt>
      <trkpt lat="41.286618998274207" lon="-7.143473038449884">
        <ele>406.29000000000002</ele>
        <time>2025-05-02T14:20:31Z</time>
      </trkpt>
      <trkpt lat="41.286509027704597" lon="-7.143469015136361">
        <ele>405.81</ele>
        <time>2025-05-02T14:20:32Z</time>
      </trkpt>
      <trkpt lat="41.286387993022799" lon="-7.143463985994458">
        <ele>404.85000000000002</ele>
        <time>2025-05-02T14:20:33Z</time>
      </trkpt>
      <trkpt lat="41.286261007189751" lon="-7.143459962680936">
        <ele>404.85000000000002</ele>
        <time>2025-05-02T14:20:34Z</time>
      </trkpt>
      <trkpt lat="41.286135027185082" lon="-7.143455017358065">
        <ele>404.37</ele>
        <time>2025-05-02T14:20:35Z</time>
      </trkpt>
      <trkpt lat="41.28602203913033" lon="-7.143422998487949">
        <ele>403.88999999999999</ele>
        <time>2025-05-02T14:20:36Z</time>
      </trkpt>
      <trkpt lat="41.285908967256546" lon="-7.143345968797803">
        <ele>402.93000000000001</ele>
        <time>2025-05-02T14:20:37Z</time>
      </trkpt>
      <trkpt lat="41.285795979201794" lon="-7.143267011269927">
        <ele>402.44999999999999</ele>
        <time>2025-05-02T14:20:38Z</time>
      </trkpt>
      <trkpt lat="41.28572397865355" lon="-7.143138013780117">
        <ele>401.97000000000003</ele>
        <time>2025-05-02T14:20:39Z</time>
      </trkpt>
      <trkpt lat="41.285687014460564" lon="-7.143013039603829">
        <ele>401.00999999999999</ele>
        <time>2025-05-02T14:20:40Z</time>
      </trkpt>
      <trkpt lat="41.285666981711984" lon="-7.142878007143736">
        <ele>400.52999999999997</ele>
        <time>2025-05-02T14:20:41Z</time>
      </trkpt>
      <trkpt lat="41.285665975883603" lon="-7.142749009653926">
        <ele>400.52999999999997</ele>
        <time>2025-05-02T14:20:42Z</time>
      </trkpt>
      <trkpt lat="41.285691959783435" lon="-7.142591010779142">
        <ele>400.05000000000001</ele>
        <time>2025-05-02T14:20:43Z</time>
      </trkpt>
      <trkpt lat="41.28572003915906" lon="-7.142423959448934">
        <ele>399.56999999999999</ele>
        <time>2025-05-02T14:20:44Z</time>
      </trkpt>
      <trkpt lat="41.285776030272245" lon="-7.14209002442658">
        <ele>398.12</ele>
        <time>2025-05-02T14:20:46Z</time>
      </trkpt>
      <trkpt lat="41.285762032493949" lon="-7.141934037208557">
        <ele>397.63999999999999</ele>
        <time>2025-05-02T14:20:47Z</time>
      </trkpt>
      <trkpt lat="41.285711992532015" lon="-7.141807973384857">
        <ele>396.68000000000001</ele>
        <time>2025-05-02T14:20:48Z</time>
      </trkpt>
      <trkpt lat="41.285632029175758" lon="-7.141713006421924">
        <ele>396.19999999999999</ele>
        <time>2025-05-02T14:20:49Z</time>
      </trkpt>
      <trkpt lat="41.285519963130355" lon="-7.141657015308738">
        <ele>395.24000000000001</ele>
        <time>2025-05-02T14:20:50Z</time>
      </trkpt>
      <trkpt lat="41.28540001809597" lon="-7.14159700088203">
        <ele>394.75999999999999</ele>
        <time>2025-05-02T14:20:51Z</time>
      </trkpt>
      <trkpt lat="41.285272026434541" lon="-7.141532963141799">
        <ele>394.27999999999997</ele>
        <time>2025-05-02T14:20:52Z</time>
      </trkpt>
      <trkpt lat="41.285140011459589" lon="-7.141451993957162">
        <ele>393.31999999999999</ele>
        <time>2025-05-02T14:20:53Z</time>
      </trkpt>
      <trkpt lat="41.285014031454921" lon="-7.141358032822609">
        <ele>392.83999999999997</ele>
        <time>2025-05-02T14:20:54Z</time>
      </trkpt>
      <trkpt lat="41.284895008429885" lon="-7.141270022839308">
        <ele>392.36000000000001</ele>
        <time>2025-05-02T14:20:55Z</time>
      </trkpt>
      <trkpt lat="41.284772967919707" lon="-7.141180001199246">
        <ele>391.38999999999999</ele>
        <time>2025-05-02T14:20:56Z</time>
      </trkpt>
      <trkpt lat="41.284633995965123" lon="-7.14112501591444">
        <ele>390.43000000000001</ele>
        <time>2025-05-02T14:20:57Z</time>
      </trkpt>
      <trkpt lat="41.284479014575481" lon="-7.141130967065692">
        <ele>389.94999999999999</ele>
        <time>2025-05-02T14:20:58Z</time>
      </trkpt>
      <trkpt lat="41.284323027357459" lon="-7.141174972057343">
        <ele>388.99000000000001</ele>
        <time>2025-05-02T14:20:59Z</time>
      </trkpt>
      <trkpt lat="41.284163016825914" lon="-7.141236998140812">
        <ele>388.50999999999999</ele>
        <time>2025-05-02T14:21:00Z</time>
      </trkpt>
      <trkpt lat="41.28400401212275" lon="-7.141316961497068">
        <ele>388.50999999999999</ele>
        <time>2025-05-02T14:21:01Z</time>
      </trkpt>
      <trkpt lat="41.283024000003934" lon="-7.141766985878348">
        <ele>387.06999999999999</ele>
        <time>2025-05-02T14:21:08Z</time>
      </trkpt>
      <trkpt lat="41.282899025827646" lon="-7.141788024455309">
        <ele>386.58999999999997</ele>
        <time>2025-05-02T14:21:09Z</time>
      </trkpt>
      <trkpt lat="41.282776985317469" lon="-7.141742007806897">
        <ele>385.63</ele>
        <time>2025-05-02T14:21:10Z</time>
      </trkpt>
      <trkpt lat="41.282659973949194" lon="-7.141669001430273">
        <ele>385.63</ele>
        <time>2025-05-02T14:21:11Z</time>
      </trkpt>
      <trkpt lat="41.282531982287765" lon="-7.141584008932114">
        <ele>385.14999999999998</ele>
        <time>2025-05-02T14:21:12Z</time>
      </trkpt>
      <trkpt lat="41.282428968697786" lon="-7.141456017270684">
        <ele>384.66000000000003</ele>
        <time>2025-05-02T14:21:13Z</time>
      </trkpt>
      <trkpt lat="41.282331990078092" lon="-7.141308998689055">
        <ele>384.66000000000003</ele>
        <time>2025-05-02T14:21:14Z</time>
      </trkpt>
      <trkpt lat="41.282152030616999" lon="-7.141031976789236">
        <ele>384.18000000000001</ele>
        <time>2025-05-02T14:21:16Z</time>
      </trkpt>
      <trkpt lat="41.282093022018671" lon="-7.140879007056356">
        <ele>384.18000000000001</ele>
        <time>2025-05-02T14:21:17Z</time>
      </trkpt>
      <trkpt lat="41.282051028683782" lon="-7.140727965161204">
        <ele>384.18000000000001</ele>
        <time>2025-05-02T14:21:18Z</time>
      </trkpt>
      <trkpt lat="41.282051028683782" lon="-7.140558985993266">
        <ele>384.66000000000003</ele>
        <time>2025-05-02T14:21:19Z</time>
      </trkpt>
      <trkpt lat="41.282051028683782" lon="-7.140404004603624">
        <ele>384.18000000000001</ele>
        <time>2025-05-02T14:21:20Z</time>
      </trkpt>
      <trkpt lat="41.282051028683782" lon="-7.14026696048677">
        <ele>384.18000000000001</ele>
        <time>2025-05-02T14:21:21Z</time>
      </trkpt>
      <trkpt lat="41.281977016478777" lon="-7.14013896882534">
        <ele>383.69999999999999</ele>
        <time>2025-05-02T14:21:22Z</time>
      </trkpt>
      <trkpt lat="41.281886994838715" lon="-7.140035033226013">
        <ele>383.22000000000003</ele>
        <time>2025-05-02T14:21:23Z</time>
      </trkpt>
      <trkpt lat="41.281774006783962" lon="-7.139990022405982">
        <ele>382.25999999999999</ele>
        <time>2025-05-02T14:21:24Z</time>
      </trkpt>
      <trkpt lat="41.281653977930546" lon="-7.139941994100809">
        <ele>381.77999999999997</ele>
        <time>2025-05-02T14:21:25Z</time>
      </trkpt>
      <trkpt lat="41.281535960733891" lon="-7.139894971624017">
        <ele>381.30000000000001</ele>
        <time>2025-05-02T14:21:26Z</time>
      </trkpt>
      <trkpt lat="41.281408974900842" lon="-7.139855995774269">
        <ele>381.30000000000001</ele>
        <time>2025-05-02T14:21:27Z</time>
      </trkpt>
      <trkpt lat="41.281282994896173" lon="-7.139829006046057">
        <ele>380.81999999999999</ele>
        <time>2025-05-02T14:21:28Z</time>
      </trkpt>
      <trkpt lat="41.281158020719886" lon="-7.139802016317844">
        <ele>380.33999999999997</ele>
        <time>2025-05-02T14:21:29Z</time>
      </trkpt>
      <trkpt lat="41.281032040715218" lon="-7.139776032418013">
        <ele>379.86000000000001</ele>
        <time>2025-05-02T14:21:30Z</time>
      </trkpt>
      <trkpt lat="41.280904971063137" lon="-7.139748958870769">
        <ele>378.89999999999998</ele>
        <time>2025-05-02T14:21:31Z</time>
      </trkpt>
      <trkpt lat="41.280776979401708" lon="-7.139721969142556">
        <ele>378.89999999999998</ele>
        <time>2025-05-02T14:21:32Z</time>
      </trkpt>
      <trkpt lat="41.280666003003716" lon="-7.139661032706499">
        <ele>378.42000000000002</ele>
        <time>2025-05-02T14:21:33Z</time>
      </trkpt>
      <trkpt lat="41.280546979978681" lon="-7.139591965824366">
        <ele>377.94</ele>
        <time>2025-05-02T14:21:34Z</time>
      </trkpt>
      <trkpt lat="41.280428040772676" lon="-7.139520971104503">
        <ele>377.44999999999999</ele>
        <time>2025-05-02T14:21:35Z</time>
      </trkpt>
      <trkpt lat="41.280074995011091" lon="-7.139248978346586">
        <ele>376.97000000000003</ele>
        <time>2025-05-02T14:21:38Z</time>
      </trkpt>
      <trkpt lat="41.279969969764352" lon="-7.13914898224175">
        <ele>376.49000000000001</ele>
        <time>2025-05-02T14:21:39Z</time>
      </trkpt>
      <trkpt lat="41.279886988922954" lon="-7.139015961438417">
        <ele>376.00999999999999</ele>
        <time>2025-05-02T14:21:40Z</time>
      </trkpt>
      <trkpt lat="41.279787998646498" lon="-7.138700969517231">
        <ele>375.52999999999997</ele>
        <time>2025-05-02T14:21:42Z</time>
      </trkpt>
      <trkpt lat="41.279738964512944" lon="-7.138540958985686">
        <ele>375.05000000000001</ele>
        <time>2025-05-02T14:21:43Z</time>
      </trkpt>
      <trkpt lat="41.279675010591745" lon="-7.138393018394709">
        <ele>374.56999999999999</ele>
        <time>2025-05-02T14:21:44Z</time>
      </trkpt>
      <trkpt lat="41.279594041407108" lon="-7.138272989541292">
        <ele>373.61000000000001</ele>
        <time>2025-05-02T14:21:45Z</time>
      </trkpt>
      <trkpt lat="41.279494967311621" lon="-7.138201994821429">
        <ele>372.64999999999998</ele>
        <time>2025-05-02T14:21:46Z</time>
      </trkpt>
      <trkpt lat="41.279378961771727" lon="-7.138149021193385">
        <ele>371.69</ele>
        <time>2025-05-02T14:21:47Z</time>
      </trkpt>
      <trkpt lat="41.279252981767058" lon="-7.138106022030115">
        <ele>370.73000000000002</ele>
        <time>2025-05-02T14:21:48Z</time>
      </trkpt>
      <trkpt lat="41.278983000665903" lon="-7.138017006218433">
        <ele>369.27999999999997</ele>
        <time>2025-05-02T14:21:50Z</time>
      </trkpt>
      <trkpt lat="41.278844028711319" lon="-7.137960009276867">
        <ele>368.31999999999999</ele>
        <time>2025-05-02T14:21:51Z</time>
      </trkpt>
      <trkpt lat="41.277480963617563" lon="-7.136991983279586">
        <ele>362.06999999999999</ele>
        <time>2025-05-02T14:22:01Z</time>
      </trkpt>
      <trkpt lat="41.277154991403222" lon="-7.136688977479935">
        <ele>360.63</ele>
        <time>2025-05-02T14:22:04Z</time>
      </trkpt>
      <trkpt lat="41.277089025825262" lon="-7.136552017182112">
        <ele>360.14999999999998</ele>
        <time>2025-05-02T14:22:05Z</time>
      </trkpt>
      <trkpt lat="41.277046026661992" lon="-7.13639703579247">
        <ele>359.67000000000002</ele>
        <time>2025-05-02T14:22:06Z</time>
      </trkpt>
      <trkpt lat="41.277009984478354" lon="-7.136216992512345">
        <ele>359.19</ele>
        <time>2025-05-02T14:22:07Z</time>
      </trkpt>
      <trkpt lat="41.27701903693378" lon="-7.136021023616195">
        <ele>358.70999999999998</ele>
        <time>2025-05-02T14:22:08Z</time>
      </trkpt>
      <trkpt lat="41.277025993913412" lon="-7.135833017528057">
        <ele>358.23000000000002</ele>
        <time>2025-05-02T14:22:09Z</time>
      </trkpt>
      <trkpt lat="41.277018031105399" lon="-7.135652974247932">
        <ele>357.75</ele>
        <time>2025-05-02T14:22:10Z</time>
      </trkpt>
      <trkpt lat="41.276968996971846" lon="-7.135505033656955">
        <ele>356.79000000000002</ele>
        <time>2025-05-02T14:22:11Z</time>
      </trkpt>
      <trkpt lat="41.27689297311008" lon="-7.135365977883339">
        <ele>356.31</ele>
        <time>2025-05-02T14:22:12Z</time>
      </trkpt>
      <trkpt lat="41.276787025853992" lon="-7.135241003707051">
        <ele>355.82999999999998</ele>
        <time>2025-05-02T14:22:13Z</time>
      </trkpt>
      <trkpt lat="41.276660962030292" lon="-7.135104965418577">
        <ele>355.33999999999997</ele>
        <time>2025-05-02T14:22:14Z</time>
      </trkpt>
      <trkpt lat="41.276415959000587" lon="-7.134824004024267">
        <ele>353.89999999999998</ele>
        <time>2025-05-02T14:22:16Z</time>
      </trkpt>
      <trkpt lat="41.276316968724132" lon="-7.134660976007581">
        <ele>352.94</ele>
        <time>2025-05-02T14:22:17Z</time>
      </trkpt>
      <trkpt lat="41.276278998702765" lon="-7.134546982124448">
        <ele>352.45999999999998</ele>
        <time>2025-05-02T14:22:18Z</time>
      </trkpt>
      <trkpt lat="41.276292996481061" lon="-7.134313965216279">
        <ele>351.5</ele>
        <time>2025-05-02T14:22:19Z</time>
      </trkpt>
      <trkpt lat="41.276303976774216" lon="-7.134125959128141">
        <ele>351.01999999999998</ele>
        <time>2025-05-02T14:22:20Z</time>
      </trkpt>
      <trkpt lat="41.276315962895751" lon="-7.133934013545513">
        <ele>350.06</ele>
        <time>2025-05-02T14:22:21Z</time>
      </trkpt>
      <trkpt lat="41.276297019794583" lon="-7.133754976093769">
        <ele>349.10000000000002</ele>
        <time>2025-05-02T14:22:22Z</time>
      </trkpt>
      <trkpt lat="41.276243962347507" lon="-7.133574010804296">
        <ele>347.64999999999998</ele>
        <time>2025-05-02T14:22:23Z</time>
      </trkpt>
      <trkpt lat="41.276172967627645" lon="-7.133387010544539">
        <ele>346.69</ele>
        <time>2025-05-02T14:22:24Z</time>
      </trkpt>
      <trkpt lat="41.276081018149853" lon="-7.133191041648388">
        <ele>345.73000000000002</ele>
        <time>2025-05-02T14:22:25Z</time>
      </trkpt>
      <trkpt lat="41.275452962145209" lon="-7.131968038156629">
        <ele>339</ele>
        <time>2025-05-02T14:22:31Z</time>
      </trkpt>
      <trkpt lat="41.275338968262076" lon="-7.131813978776336">
        <ele>337.56</ele>
        <time>2025-05-02T14:22:32Z</time>
      </trkpt>
      <trkpt lat="41.275191027671099" lon="-7.131701996549964">
        <ele>336.12</ele>
        <time>2025-05-02T14:22:33Z</time>
      </trkpt>
      <trkpt lat="41.275043003261089" lon="-7.131590014323592">
        <ele>334.68000000000001</ele>
        <time>2025-05-02T14:22:34Z</time>
      </trkpt>
      <trkpt lat="41.274901013821363" lon="-7.131480965763331">
        <ele>333.23000000000002</ele>
        <time>2025-05-02T14:22:35Z</time>
      </trkpt>
      <trkpt lat="41.274756006896496" lon="-7.131417011842132">
        <ele>332.26999999999998</ele>
        <time>2025-05-02T14:22:36Z</time>
      </trkpt>
      <trkpt lat="41.274603959172964" lon="-7.131403014063835">
        <ele>330.82999999999998</ele>
        <time>2025-05-02T14:22:37Z</time>
      </trkpt>
      <trkpt lat="41.274447971954942" lon="-7.131436038762331">
        <ele>329.38999999999999</ele>
        <time>2025-05-02T14:22:38Z</time>
      </trkpt>
      <trkpt lat="41.273666024208069" lon="-7.131537962704897">
        <ele>324.57999999999998</ele>
        <time>2025-05-02T14:22:43Z</time>
      </trkpt>
      <trkpt lat="41.273545995354652" lon="-7.131512984633446">
        <ele>323.62</ele>
        <time>2025-05-02T14:22:44Z</time>
      </trkpt>
      <trkpt lat="41.273451028391719" lon="-7.131398990750313">
        <ele>322.66000000000003</ele>
        <time>2025-05-02T14:22:45Z</time>
      </trkpt>
      <trkpt lat="41.273338962346315" lon="-7.131263958290219">
        <ele>321.69999999999999</ele>
        <time>2025-05-02T14:22:46Z</time>
      </trkpt>
      <trkpt lat="41.27328397706151" lon="-7.131132027134299">
        <ele>320.74000000000001</ele>
        <time>2025-05-02T14:22:47Z</time>
      </trkpt>
      <trkpt lat="41.273213988170028" lon="-7.130962964147329">
        <ele>320.25999999999999</ele>
        <time>2025-05-02T14:22:48Z</time>
      </trkpt>
      <trkpt lat="41.273139975965023" lon="-7.130781998857856">
        <ele>319.30000000000001</ele>
        <time>2025-05-02T14:22:49Z</time>
      </trkpt>
      <trkpt lat="41.273058000952005" lon="-7.130620982497931">
        <ele>318.32999999999998</ele>
        <time>2025-05-02T14:22:50Z</time>
      </trkpt>
      <trkpt lat="41.272924980148673" lon="-7.130502965301275">
        <ele>317.37</ele>
        <time>2025-05-02T14:22:51Z</time>
      </trkpt>
      <trkpt lat="41.272781984880567" lon="-7.130374973639846">
        <ele>316.88999999999999</ele>
        <time>2025-05-02T14:22:52Z</time>
      </trkpt>
      <trkpt lat="41.272633038461208" lon="-7.130242036655545">
        <ele>315.44999999999999</ele>
        <time>2025-05-02T14:22:53Z</time>
      </trkpt>
      <trkpt lat="41.272046975791454" lon="-7.129687992855907">
        <ele>312.08999999999997</ele>
        <time>2025-05-02T14:22:57Z</time>
      </trkpt>
      <trkpt lat="41.271935999393463" lon="-7.129513984546065">
        <ele>311.12</ele>
        <time>2025-05-02T14:22:58Z</time>
      </trkpt>
      <trkpt lat="41.271825022995472" lon="-7.129339976236224">
        <ele>310.16000000000003</ele>
        <time>2025-05-02T14:22:59Z</time>
      </trkpt>
      <trkpt lat="41.271719997748733" lon="-7.129175020381808">
        <ele>309.19999999999999</ele>
        <time>2025-05-02T14:23:00Z</time>
      </trkpt>
      <trkpt lat="41.271626958623528" lon="-7.129030013456941">
        <ele>308.24000000000001</ele>
        <time>2025-05-02T14:23:01Z</time>
      </trkpt>
      <trkpt lat="41.271497961133718" lon="-7.128974022343755">
        <ele>306.80000000000001</ele>
        <time>2025-05-02T14:23:02Z</time>
      </trkpt>
      <trkpt lat="41.271372986957431" lon="-7.128954995423555">
        <ele>305.83999999999997</ele>
        <time>2025-05-02T14:23:03Z</time>
      </trkpt>
      <trkpt lat="41.271252036094666" lon="-7.128989025950432">
        <ele>304.38999999999999</ele>
        <time>2025-05-02T14:23:04Z</time>
      </trkpt>
      <trkpt lat="41.271141981706023" lon="-7.129054991528392">
        <ele>303.43000000000001</ele>
        <time>2025-05-02T14:23:05Z</time>
      </trkpt>
      <trkpt lat="41.27102798782289" lon="-7.129122968763113">
        <ele>302.47000000000003</ele>
        <time>2025-05-02T14:23:06Z</time>
      </trkpt>
      <trkpt lat="41.270908964797854" lon="-7.129150964319706">
        <ele>301.99000000000001</ele>
        <time>2025-05-02T14:23:07Z</time>
      </trkpt>
      <trkpt lat="41.270793965086341" lon="-7.12913797236979">
        <ele>301.50999999999999</ele>
        <time>2025-05-02T14:23:08Z</time>
      </trkpt>
      <trkpt lat="41.270692963153124" lon="-7.129065971821547">
        <ele>301.02999999999997</ele>
        <time>2025-05-02T14:23:09Z</time>
      </trkpt>
      <trkpt lat="41.270605958998203" lon="-7.12894200347364">
        <ele>301.02999999999997</ele>
        <time>2025-05-02T14:23:10Z</time>
      </trkpt>
      <trkpt lat="41.270523983985186" lon="-7.128800014033914">
        <ele>300.55000000000001</ele>
        <time>2025-05-02T14:23:11Z</time>
      </trkpt>
      <trkpt lat="41.270452989265323" lon="-7.128629023209214">
        <ele>300.06999999999999</ele>
        <time>2025-05-02T14:23:12Z</time>
      </trkpt>
      <trkpt lat="41.270049987360835" lon="-7.127605006098747">
        <ele>297.18000000000001</ele>
        <time>2025-05-02T14:23:18Z</time>
      </trkpt>
      <trkpt lat="41.270006988197565" lon="-7.12743703275919">
        <ele>296.69999999999999</ele>
        <time>2025-05-02T14:23:19Z</time>
      </trkpt>
      <trkpt lat="41.269985027611256" lon="-7.127249026671052">
        <ele>296.22000000000003</ele>
        <time>2025-05-02T14:23:20Z</time>
      </trkpt>
      <trkpt lat="41.26995300874114" lon="-7.126658018678427">
        <ele>293.81999999999999</ele>
        <time>2025-05-02T14:23:23Z</time>
      </trkpt>
      <trkpt lat="41.26990900374949" lon="-7.126475963741541">
        <ele>292.38</ele>
        <time>2025-05-02T14:23:24Z</time>
      </trkpt>
      <trkpt lat="41.269832979887724" lon="-7.12634202092886">
        <ele>291.42000000000002</ele>
        <time>2025-05-02T14:23:25Z</time>
      </trkpt>
      <trkpt lat="41.269734995439649" lon="-7.126244036480784">
        <ele>290.45999999999998</ele>
        <time>2025-05-02T14:23:26Z</time>
      </trkpt>
      <trkpt lat="41.269617984071374" lon="-7.126182010397315">
        <ele>289.49000000000001</ele>
        <time>2025-05-02T14:23:27Z</time>
      </trkpt>
      <trkpt lat="41.269492004066706" lon="-7.126115961000323">
        <ele>289.00999999999999</ele>
        <time>2025-05-02T14:23:28Z</time>
      </trkpt>
      <trkpt lat="41.269368035718799" lon="-7.126049995422363">
        <ele>287.56999999999999</ele>
        <time>2025-05-02T14:23:29Z</time>
      </trkpt>
      <trkpt lat="41.269267033785582" lon="-7.125952010974288">
        <ele>287.08999999999997</ele>
        <time>2025-05-02T14:23:30Z</time>
      </trkpt>
      <trkpt lat="41.269186986610293" lon="-7.12584899738431">
        <ele>286.13</ele>
        <time>2025-05-02T14:23:31Z</time>
      </trkpt>
      <trkpt lat="41.269167037680745" lon="-7.125698961317539">
        <ele>285.64999999999998</ele>
        <time>2025-05-02T14:23:32Z</time>
      </trkpt>
      <trkpt lat="41.269154967740178" lon="-7.125513972714543">
        <ele>284.69</ele>
        <time>2025-05-02T14:23:33Z</time>
      </trkpt>
      <trkpt lat="41.26917902380228" lon="-7.125387992709875">
        <ele>284.20999999999998</ele>
        <time>2025-05-02T14:23:34Z</time>
      </trkpt>
      <trkpt lat="41.269210958853364" lon="-7.12522697634995">
        <ele>283.25</ele>
        <time>2025-05-02T14:23:35Z</time>
      </trkpt>
      <trkpt lat="41.269241971895099" lon="-7.125062020495534">
        <ele>282.27999999999997</ele>
        <time>2025-05-02T14:23:36Z</time>
      </trkpt>
      <trkpt lat="41.269273990765214" lon="-7.124898992478848">
        <ele>281.31999999999999</ele>
        <time>2025-05-02T14:23:37Z</time>
      </trkpt>
      <trkpt lat="41.269238032400608" lon="-7.124749040231109">
        <ele>280.36000000000001</ele>
        <time>2025-05-02T14:23:38Z</time>
      </trkpt>
      <trkpt lat="41.269173994660378" lon="-7.124609984457493">
        <ele>279.39999999999998</ele>
        <time>2025-05-02T14:23:39Z</time>
      </trkpt>
      <trkpt lat="41.269081961363554" lon="-7.124489033594728">
        <ele>278.44</ele>
        <time>2025-05-02T14:23:40Z</time>
      </trkpt>
      <trkpt lat="41.268970984965563" lon="-7.124367998912931">
        <ele>277.48000000000002</ele>
        <time>2025-05-02T14:23:41Z</time>
      </trkpt>
      <trkpt lat="41.268861014395952" lon="-7.124245958402753">
        <ele>277</ele>
        <time>2025-05-02T14:23:42Z</time>
      </trkpt>
      <trkpt lat="41.268759006634355" lon="-7.124133976176381">
        <ele>276.04000000000002</ele>
        <time>2025-05-02T14:23:43Z</time>
      </trkpt>
      <trkpt lat="41.268699998036027" lon="-7.124006990343332">
        <ele>275.56</ele>
        <time>2025-05-02T14:23:44Z</time>
      </trkpt>
      <trkpt lat="41.268661022186279" lon="-7.123872041702271">
        <ele>275.06999999999999</ele>
        <time>2025-05-02T14:23:45Z</time>
      </trkpt>
      <trkpt lat="41.26864300109446" lon="-7.12374203838408">
        <ele>274.58999999999997</ele>
        <time>2025-05-02T14:23:46Z</time>
      </trkpt>
      <trkpt lat="41.268651969730854" lon="-7.123586973175407">
        <ele>274.11000000000001</ele>
        <time>2025-05-02T14:23:47Z</time>
      </trkpt>
      <trkpt lat="41.26866496168077" lon="-7.123416988179088">
        <ele>273.14999999999998</ele>
        <time>2025-05-02T14:23:48Z</time>
      </trkpt>
      <trkpt lat="41.268886998295784" lon="-7.122476035729051">
        <ele>268.82999999999998</ele>
        <time>2025-05-02T14:23:53Z</time>
      </trkpt>
      <trkpt lat="41.268982971087098" lon="-7.12230202741921">
        <ele>268.35000000000002</ele>
        <time>2025-05-02T14:23:54Z</time>
      </trkpt>
      <trkpt lat="41.269323024898767" lon="-7.12181000970304">
        <ele>265.45999999999998</ele>
        <time>2025-05-02T14:23:57Z</time>
      </trkpt>
      <trkpt lat="41.269385972991586" lon="-7.121612029150128">
        <ele>264.5</ele>
        <time>2025-05-02T14:23:58Z</time>
      </trkpt>
      <trkpt lat="41.269454034045339" lon="-7.121399966999888">
        <ele>263.54000000000002</ele>
        <time>2025-05-02T14:23:59Z</time>
      </trkpt>
      <trkpt lat="41.269702976569533" lon="-7.119687041267753">
        <ele>255.84999999999999</ele>
        <time>2025-05-02T14:24:06Z</time>
      </trkpt>
      <trkpt lat="41.269713034853339" lon="-7.119504986330867">
        <ele>253.93000000000001</ele>
        <time>2025-05-02T14:24:07Z</time>
      </trkpt>
      <trkpt lat="41.269642962142825" lon="-7.119376994669437">
        <ele>252.47999999999999</ele>
        <time>2025-05-02T14:24:08Z</time>
      </trkpt>
      <trkpt lat="41.269584037363529" lon="-7.119269035756588">
        <ele>250.56</ele>
        <time>2025-05-02T14:24:09Z</time>
      </trkpt>
      <trkpt lat="41.269478006288409" lon="-7.119245985522866">
        <ele>249.12</ele>
        <time>2025-05-02T14:24:10Z</time>
      </trkpt>
      <trkpt lat="41.269360994920135" lon="-7.119237016886473">
        <ele>247.68000000000001</ele>
        <time>2025-05-02T14:24:11Z</time>
      </trkpt>
      <trkpt lat="41.269231997430325" lon="-7.119283033534885">
        <ele>246.22999999999999</ele>
        <time>2025-05-02T14:24:12Z</time>
      </trkpt>
      <trkpt lat="41.269100988283753" lon="-7.119329972192645">
        <ele>245.27000000000001</ele>
        <time>2025-05-02T14:24:13Z</time>
      </trkpt>
      <trkpt lat="41.268968973308802" lon="-7.119333995506167">
        <ele>244.31</ele>
        <time>2025-05-02T14:24:14Z</time>
      </trkpt>
      <trkpt lat="41.268847016617656" lon="-7.119310023263097">
        <ele>243.34999999999999</ele>
        <time>2025-05-02T14:24:15Z</time>
      </trkpt>
      <trkpt lat="41.268736962229013" lon="-7.119220001623035">
        <ele>242.38999999999999</ele>
        <time>2025-05-02T14:24:16Z</time>
      </trkpt>
      <trkpt lat="41.268632020801306" lon="-7.11912302300334">
        <ele>241.91</ele>
        <time>2025-05-02T14:24:17Z</time>
      </trkpt>
      <trkpt lat="41.268560020253062" lon="-7.118968963623047">
        <ele>241.43000000000001</ele>
        <time>2025-05-02T14:24:18Z</time>
      </trkpt>
      <trkpt lat="41.26849003136158" lon="-7.118816999718547">
        <ele>240.94999999999999</ele>
        <time>2025-05-02T14:24:19Z</time>
      </trkpt>
      <trkpt lat="41.26849003136158" lon="-7.118636034429073">
        <ele>240.47</ele>
        <time>2025-05-02T14:24:20Z</time>
      </trkpt>
      <trkpt lat="41.268493970856071" lon="-7.11843897588551">
        <ele>239.50999999999999</ele>
        <time>2025-05-02T14:24:21Z</time>
      </trkpt>
      <trkpt lat="41.268502017483115" lon="-7.118232026696205">
        <ele>239.02000000000001</ele>
        <time>2025-05-02T14:24:22Z</time>
      </trkpt>
      <trkpt lat="41.268558008596301" lon="-7.117256037890911">
        <ele>235.18000000000001</ele>
        <time>2025-05-02T14:24:27Z</time>
      </trkpt>
      <trkpt lat="41.26853303052485" lon="-7.117101978510618">
        <ele>234.69999999999999</ele>
        <time>2025-05-02T14:24:28Z</time>
      </trkpt>
      <trkpt lat="41.268467986956239" lon="-7.116972981020808">
        <ele>233.74000000000001</ele>
        <time>2025-05-02T14:24:29Z</time>
      </trkpt>
      <trkpt lat="41.268358016386628" lon="-7.116899974644184">
        <ele>232.78</ele>
        <time>2025-05-02T14:24:30Z</time>
      </trkpt>
      <trkpt lat="41.268250979483128" lon="-7.116828979924321">
        <ele>232.30000000000001</ele>
        <time>2025-05-02T14:24:31Z</time>
      </trkpt>
      <trkpt lat="41.268146960064769" lon="-7.116758991032839">
        <ele>231.33000000000001</ele>
        <time>2025-05-02T14:24:32Z</time>
      </trkpt>
      <trkpt lat="41.268058028072119" lon="-7.11663200519979">
        <ele>230.37</ele>
        <time>2025-05-02T14:24:33Z</time>
      </trkpt>
      <trkpt lat="41.267983010038733" lon="-7.116494961082935">
        <ele>229.41</ele>
        <time>2025-05-02T14:24:34Z</time>
      </trkpt>
      <trkpt lat="41.267939005047083" lon="-7.116326987743378">
        <ele>228.44999999999999</ele>
        <time>2025-05-02T14:24:35Z</time>
      </trkpt>
      <trkpt lat="41.26789097674191" lon="-7.116146022453904">
        <ele>227.97</ele>
        <time>2025-05-02T14:24:36Z</time>
      </trkpt>
      <trkpt lat="41.267743958160281" lon="-7.115592984482646">
        <ele>225.09</ele>
        <time>2025-05-02T14:24:39Z</time>
      </trkpt>
      <trkpt lat="41.267681010067463" lon="-7.11545099504292">
        <ele>224.12</ele>
        <time>2025-05-02T14:24:40Z</time>
      </trkpt>
      <trkpt lat="41.26756701618433" lon="-7.11532099172473">
        <ele>223.16</ele>
        <time>2025-05-02T14:24:41Z</time>
      </trkpt>
      <trkpt lat="41.267452016472816" lon="-7.11525502614677">
        <ele>222.68000000000001</ele>
        <time>2025-05-02T14:24:42Z</time>
      </trkpt>
      <trkpt lat="41.267324024811387" lon="-7.115181013941765">
        <ele>221.72</ele>
        <time>2025-05-02T14:24:43Z</time>
      </trkpt>
      <trkpt lat="41.267201984301209" lon="-7.115110019221902">
        <ele>220.75999999999999</ele>
        <time>2025-05-02T14:24:44Z</time>
      </trkpt>
      <trkpt lat="41.267092013731599" lon="-7.115016980096698">
        <ele>219.80000000000001</ele>
        <time>2025-05-02T14:24:45Z</time>
      </trkpt>
      <trkpt lat="41.267006015405059" lon="-7.114900974556804">
        <ele>219.31999999999999</ele>
        <time>2025-05-02T14:24:46Z</time>
      </trkpt>
      <trkpt lat="41.266940971836448" lon="-7.114758985117078">
        <ele>218.84</ele>
        <time>2025-05-02T14:24:47Z</time>
      </trkpt>
      <trkpt lat="41.266899984329939" lon="-7.114597968757153">
        <ele>217.88</ele>
        <time>2025-05-02T14:24:48Z</time>
      </trkpt>
      <trkpt lat="41.266867965459824" lon="-7.114428989589214">
        <ele>216.91</ele>
        <time>2025-05-02T14:24:49Z</time>
      </trkpt>
      <trkpt lat="41.266837958246469" lon="-7.114265961572528">
        <ele>216.43000000000001</ele>
        <time>2025-05-02T14:24:50Z</time>
      </trkpt>
      <trkpt lat="41.266837958246469" lon="-7.114113997668028">
        <ele>215.47</ele>
        <time>2025-05-02T14:24:51Z</time>
      </trkpt>
      <trkpt lat="41.266881041228771" lon="-7.113991035148501">
        <ele>214.99000000000001</ele>
        <time>2025-05-02T14:24:52Z</time>
      </trkpt>
      <trkpt lat="41.266924040392041" lon="-7.11388198658824">
        <ele>214.99000000000001</ele>
        <time>2025-05-02T14:24:53Z</time>
      </trkpt>
      <trkpt lat="41.267000986263156" lon="-7.1137959882617">
        <ele>214.50999999999999</ele>
        <time>2025-05-02T14:24:54Z</time>
      </trkpt>
      <trkpt lat="41.267082039266825" lon="-7.113703032955527">
        <ele>214.03</ele>
        <time>2025-05-02T14:24:55Z</time>
      </trkpt>
      <trkpt lat="41.267171977087855" lon="-7.11360203102231">
        <ele>214.03</ele>
        <time>2025-05-02T14:24:56Z</time>
      </trkpt>
      <trkpt lat="41.267244983464479" lon="-7.11351896636188">
        <ele>213.06999999999999</ele>
        <time>2025-05-02T14:24:57Z</time>
      </trkpt>
      <trkpt lat="41.267339028418064" lon="-7.1133469697088">
        <ele>212.59</ele>
        <time>2025-05-02T14:24:58Z</time>
      </trkpt>
      <trkpt lat="41.267399964854121" lon="-7.113177990540862">
        <ele>211.63</ele>
        <time>2025-05-02T14:24:59Z</time>
      </trkpt>
      <trkpt lat="41.267447993159294" lon="-7.11298000998795">
        <ele>210.66999999999999</ele>
        <time>2025-05-02T14:25:00Z</time>
      </trkpt>
      <trkpt lat="41.267631975933909" lon="-7.112122038379312">
        <ele>207.78</ele>
        <time>2025-05-02T14:25:04Z</time>
      </trkpt>
      <trkpt lat="41.267617978155613" lon="-7.111916011199355">
        <ele>206.81999999999999</ele>
        <time>2025-05-02T14:25:05Z</time>
      </trkpt>
      <trkpt lat="41.267583025619388" lon="-7.111705960705876">
        <ele>205.86000000000001</ele>
        <time>2025-05-02T14:25:06Z</time>
      </trkpt>
      <trkpt lat="41.267311032861471" lon="-7.110286988317967">
        <ele>200.09</ele>
        <time>2025-05-02T14:25:13Z</time>
      </trkpt>
      <trkpt lat="41.267335005104542" lon="-7.110101999714971">
        <ele>199.61000000000001</ele>
        <time>2025-05-02T14:25:14Z</time>
      </trkpt>
      <trkpt lat="41.267424020916224" lon="-7.109529012814164">
        <ele>196.25</ele>
        <time>2025-05-02T14:25:17Z</time>
      </trkpt>
      <trkpt lat="41.267421003431082" lon="-7.10934603586793">
        <ele>195.28</ele>
        <time>2025-05-02T14:25:18Z</time>
      </trkpt>
      <trkpt lat="41.267384961247444" lon="-7.109186025336385">
        <ele>193.84</ele>
        <time>2025-05-02T14:25:19Z</time>
      </trkpt>
      <trkpt lat="41.267313966527581" lon="-7.109043030068278">
        <ele>192.88</ele>
        <time>2025-05-02T14:25:20Z</time>
      </trkpt>
      <trkpt lat="41.267185974866152" lon="-7.108928030356765">
        <ele>191.91999999999999</ele>
        <time>2025-05-02T14:25:21Z</time>
      </trkpt>
      <trkpt lat="41.267047002911568" lon="-7.108809007331729">
        <ele>190.47999999999999</ele>
        <time>2025-05-02T14:25:22Z</time>
      </trkpt>
      <trkpt lat="41.266895961016417" lon="-7.108680009841919">
        <ele>189.52000000000001</ele>
        <time>2025-05-02T14:25:23Z</time>
      </trkpt>
      <trkpt lat="41.266766041517258" lon="-7.108500972390175">
        <ele>188.56</ele>
        <time>2025-05-02T14:25:24Z</time>
      </trkpt>
      <trkpt lat="41.26632297411561" lon="-7.107776021584868">
        <ele>184.22999999999999</ele>
        <time>2025-05-02T14:25:28Z</time>
      </trkpt>
      <trkpt lat="41.26625700853765" lon="-7.107598995789886">
        <ele>183.27000000000001</ele>
        <time>2025-05-02T14:25:29Z</time>
      </trkpt>
      <trkpt lat="41.266219038516283" lon="-7.107434961944819">
        <ele>182.78999999999999</ele>
        <time>2025-05-02T14:25:30Z</time>
      </trkpt>
      <trkpt lat="41.266228007152677" lon="-7.107263971120119">
        <ele>181.83000000000001</ele>
        <time>2025-05-02T14:25:31Z</time>
      </trkpt>
      <trkpt lat="41.266244016587734" lon="-7.107089962810278">
        <ele>181.34999999999999</ele>
        <time>2025-05-02T14:25:32Z</time>
      </trkpt>
      <trkpt lat="41.266280980780721" lon="-7.106908997520804">
        <ele>180.38</ele>
        <time>2025-05-02T14:25:33Z</time>
      </trkpt>
      <trkpt lat="41.266474016010761" lon="-7.105980031192303">
        <ele>176.53999999999999</ele>
        <time>2025-05-02T14:25:38Z</time>
      </trkpt>
      <trkpt lat="41.266464963555336" lon="-7.105809040367603">
        <ele>176.06</ele>
        <time>2025-05-02T14:25:39Z</time>
      </trkpt>
      <trkpt lat="41.266397992148995" lon="-7.105646012350917">
        <ele>175.09999999999999</ele>
        <time>2025-05-02T14:25:40Z</time>
      </trkpt>
      <trkpt lat="41.266325991600752" lon="-7.105472004041076">
        <ele>174.62</ele>
        <time>2025-05-02T14:25:41Z</time>
      </trkpt>
      <trkpt lat="41.266253991052508" lon="-7.105296989902854">
        <ele>174.13999999999999</ele>
        <time>2025-05-02T14:25:42Z</time>
      </trkpt>
      <trkpt lat="41.26619003713131" lon="-7.105120969936252">
        <ele>173.66</ele>
        <time>2025-05-02T14:25:43Z</time>
      </trkpt>
      <trkpt lat="41.266162041574717" lon="-7.104928018525243">
        <ele>173.16999999999999</ele>
        <time>2025-05-02T14:25:44Z</time>
      </trkpt>
      <trkpt lat="41.266134968027472" lon="-7.104739006608725">
        <ele>172.69</ele>
        <time>2025-05-02T14:25:45Z</time>
      </trkpt>
      <trkpt lat="41.266087023541331" lon="-7.104399036616087">
        <ele>171.25</ele>
        <time>2025-05-02T14:25:47Z</time>
      </trkpt>
      <trkpt lat="41.266000019386411" lon="-7.104262998327613">
        <ele>170.28999999999999</ele>
        <time>2025-05-02T14:25:48Z</time>
      </trkpt>
      <trkpt lat="41.265909997746348" lon="-7.104139029979706">
        <ele>169.81</ele>
        <time>2025-05-02T14:25:49Z</time>
      </trkpt>
      <trkpt lat="41.26496703363955" lon="-7.103243004530668">
        <ele>163.56</ele>
        <time>2025-05-02T14:25:57Z</time>
      </trkpt>
      <trkpt lat="41.26490299589932" lon="-7.103115012869239">
        <ele>162.59999999999999</ele>
        <time>2025-05-02T14:25:58Z</time>
      </trkpt>
      <trkpt lat="41.264870977029204" lon="-7.102957013994455">
        <ele>162.12</ele>
        <time>2025-05-02T14:25:59Z</time>
      </trkpt>
      <trkpt lat="41.26485999673605" lon="-7.102785017341375">
        <ele>161.63999999999999</ele>
        <time>2025-05-02T14:26:00Z</time>
      </trkpt>
      <trkpt lat="41.264854967594147" lon="-7.10260296240449">
        <ele>161.63999999999999</ele>
        <time>2025-05-02T14:26:01Z</time>
      </trkpt>
      <trkpt lat="41.264849016442895" lon="-7.102414034307003">
        <ele>161.16</ele>
        <time>2025-05-02T14:26:02Z</time>
      </trkpt>
      <trkpt lat="41.264843987300992" lon="-7.102222004905343">
        <ele>160.68000000000001</ele>
        <time>2025-05-02T14:26:03Z</time>
      </trkpt>
      <trkpt lat="41.264792019501328" lon="-7.102042967453599">
        <ele>160.19999999999999</ele>
        <time>2025-05-02T14:26:04Z</time>
      </trkpt>
      <trkpt lat="41.264723036438227" lon="-7.101868959143758">
        <ele>160.19999999999999</ele>
        <time>2025-05-02T14:26:05Z</time>
      </trkpt>
      <trkpt lat="41.264655981212854" lon="-7.101704003289342">
        <ele>160.19999999999999</ele>
        <time>2025-05-02T14:26:06Z</time>
      </trkpt>
      <trkpt lat="41.264569982886314" lon="-7.101567965000868">
        <ele>159.72</ele>
        <time>2025-05-02T14:26:07Z</time>
      </trkpt>
      <trkpt lat="41.264476021751761" lon="-7.101464029401541">
        <ele>159.72</ele>
        <time>2025-05-02T14:26:08Z</time>
      </trkpt>
      <trkpt lat="41.264369990676641" lon="-7.101391023024917">
        <ele>159.24000000000001</ele>
        <time>2025-05-02T14:26:09Z</time>
      </trkpt>
      <trkpt lat="41.264247028157115" lon="-7.101378031075001">
        <ele>158.75</ele>
        <time>2025-05-02T14:26:10Z</time>
      </trkpt>
      <trkpt lat="41.264118030667305" lon="-7.101365039125085">
        <ele>158.27000000000001</ele>
        <time>2025-05-02T14:26:11Z</time>
      </trkpt>
      <trkpt lat="41.263988027349114" lon="-7.101351041346788">
        <ele>158.27000000000001</ele>
        <time>2025-05-02T14:26:12Z</time>
      </trkpt>
      <trkpt lat="41.263861041516066" lon="-7.101337965577841">
        <ele>157.78999999999999</ele>
        <time>2025-05-02T14:26:13Z</time>
      </trkpt>
      <trkpt lat="41.263755010440946" lon="-7.101294966414571">
        <ele>157.31</ele>
        <time>2025-05-02T14:26:14Z</time>
      </trkpt>
      <trkpt lat="41.263672029599547" lon="-7.101189019158483">
        <ele>157.31</ele>
        <time>2025-05-02T14:26:15Z</time>
      </trkpt>
      <trkpt lat="41.263621989637613" lon="-7.101038983091712">
        <ele>156.83000000000001</ele>
        <time>2025-05-02T14:26:16Z</time>
      </trkpt>
      <trkpt lat="41.263597011566162" lon="-7.100868998095393">
        <ele>156.34999999999999</ele>
        <time>2025-05-02T14:26:17Z</time>
      </trkpt>
      <trkpt lat="41.263597011566162" lon="-7.100679986178875">
        <ele>156.34999999999999</ele>
        <time>2025-05-02T14:26:18Z</time>
      </trkpt>
      <trkpt lat="41.263597011566162" lon="-7.100487034767866">
        <ele>156.34999999999999</ele>
        <time>2025-05-02T14:26:19Z</time>
      </trkpt>
      <trkpt lat="41.263517970219254" lon="-7.099339971318841">
        <ele>155.38999999999999</ele>
        <time>2025-05-02T14:26:25Z</time>
      </trkpt>
      <trkpt lat="41.263540014624596" lon="-7.099169986322522">
        <ele>155.38999999999999</ele>
        <time>2025-05-02T14:26:26Z</time>
      </trkpt>
      <trkpt lat="41.263589970767498" lon="-7.0989949721843">
        <ele>155.38999999999999</ele>
        <time>2025-05-02T14:26:27Z</time>
      </trkpt>
      <trkpt lat="41.263641016557813" lon="-7.098815012723208">
        <ele>155.38999999999999</ele>
        <time>2025-05-02T14:26:28Z</time>
      </trkpt>
      <trkpt lat="41.263692984357476" lon="-7.098630024120212">
        <ele>155.38999999999999</ele>
        <time>2025-05-02T14:26:29Z</time>
      </trkpt>
      <trkpt lat="41.263800021260977" lon="-7.098252000287175">
        <ele>154.43000000000001</ele>
        <time>2025-05-02T14:26:31Z</time>
      </trkpt>
      <trkpt lat="41.263833967968822" lon="-7.098049996420741">
        <ele>154.43000000000001</ele>
        <time>2025-05-02T14:26:32Z</time>
      </trkpt>
      <trkpt lat="41.263833967968822" lon="-7.097824020311236">
        <ele>154.91</ele>
        <time>2025-05-02T14:26:33Z</time>
      </trkpt>
      <trkpt lat="41.263833967968822" lon="-7.097603995352984">
        <ele>154.43000000000001</ele>
        <time>2025-05-02T14:26:34Z</time>
      </trkpt>
      <trkpt lat="41.263833967968822" lon="-7.097397968173027">
        <ele>154.43000000000001</ele>
        <time>2025-05-02T14:26:35Z</time>
      </trkpt>
      <trkpt lat="41.26385098323226" lon="-7.097203005105257">
        <ele>154.43000000000001</ele>
        <time>2025-05-02T14:26:36Z</time>
      </trkpt>
      <trkpt lat="41.263906974345446" lon="-7.097033020108938">
        <ele>154.43000000000001</ele>
        <time>2025-05-02T14:26:37Z</time>
      </trkpt>
      <trkpt lat="41.263972017914057" lon="-7.096852976828814">
        <ele>154.43000000000001</ele>
        <time>2025-05-02T14:26:38Z</time>
      </trkpt>
      <trkpt lat="41.264068996533751" lon="-7.096701012924314">
        <ele>153.94999999999999</ele>
        <time>2025-05-02T14:26:39Z</time>
      </trkpt>
      <trkpt lat="41.264166980981827" lon="-7.096549971029162">
        <ele>153.47</ele>
        <time>2025-05-02T14:26:40Z</time>
      </trkpt>
      <trkpt lat="41.264791013672948" lon="-7.09570499137044">
        <ele>151.53999999999999</ele>
        <time>2025-05-02T14:26:46Z</time>
      </trkpt>
      <trkpt lat="41.264916993677616" lon="-7.095584962517023">
        <ele>151.06</ele>
        <time>2025-05-02T14:26:47Z</time>
      </trkpt>
      <trkpt lat="41.265747975558043" lon="-7.094940980896354">
        <ele>149.62</ele>
        <time>2025-05-02T14:26:53Z</time>
      </trkpt>
      <trkpt lat="41.26584897749126" lon="-7.094832016155124">
        <ele>149.13999999999999</ele>
        <time>2025-05-02T14:26:54Z</time>
      </trkpt>
      <trkpt lat="41.265898011624813" lon="-7.09467301145196">
        <ele>148.66</ele>
        <time>2025-05-02T14:26:55Z</time>
      </trkpt>
      <trkpt lat="41.265932964161038" lon="-7.094490034505725">
        <ele>147.69999999999999</ele>
        <time>2025-05-02T14:26:56Z</time>
      </trkpt>
      <trkpt lat="41.265971018001437" lon="-7.094294987618923">
        <ele>147.22</ele>
        <time>2025-05-02T14:26:57Z</time>
      </trkpt>
      <trkpt lat="41.266019968315959" lon="-7.094105975702405">
        <ele>146.74000000000001</ele>
        <time>2025-05-02T14:26:58Z</time>
      </trkpt>
      <trkpt lat="41.266074031591415" lon="-7.093919981271029">
        <ele>146.25999999999999</ele>
        <time>2025-05-02T14:26:59Z</time>
      </trkpt>
      <trkpt lat="41.266147959977388" lon="-7.093742033466697">
        <ele>145.78</ele>
        <time>2025-05-02T14:27:00Z</time>
      </trkpt>
      <trkpt lat="41.26625700853765" lon="-7.093585040420294">
        <ele>145.78</ele>
        <time>2025-05-02T14:27:01Z</time>
      </trkpt>
      <trkpt lat="41.266366979107261" lon="-7.09342704154551">
        <ele>145.78</ele>
        <time>2025-05-02T14:27:02Z</time>
      </trkpt>
      <trkpt lat="41.266467981040478" lon="-7.093262001872063">
        <ele>145.78</ele>
        <time>2025-05-02T14:27:03Z</time>
      </trkpt>
      <trkpt lat="41.266531012952328" lon="-7.093070978298783">
        <ele>145.30000000000001</ele>
        <time>2025-05-02T14:27:04Z</time>
      </trkpt>
      <trkpt lat="41.26664400100708" lon="-7.092748023569584">
        <ele>144.81999999999999</ele>
        <time>2025-05-02T14:27:06Z</time>
      </trkpt>
      <trkpt lat="41.266735028475523" lon="-7.092683985829353">
        <ele>144.81999999999999</ele>
        <time>2025-05-02T14:27:07Z</time>
      </trkpt>
      <trkpt lat="41.266821026802063" lon="-7.092623971402645">
        <ele>144.81999999999999</ele>
        <time>2025-05-02T14:27:08Z</time>
      </trkpt>
      <trkpt lat="41.266926974058151" lon="-7.092605028301477">
        <ele>144.81999999999999</ele>
        <time>2025-05-02T14:27:09Z</time>
      </trkpt>
      <trkpt lat="41.267050020396709" lon="-7.092617014423013">
        <ele>144.34</ele>
        <time>2025-05-02T14:27:10Z</time>
      </trkpt>
      <trkpt lat="41.267173988744617" lon="-7.092630006372929">
        <ele>143.84999999999999</ele>
        <time>2025-05-02T14:27:11Z</time>
      </trkpt>
      <trkpt lat="41.267400970682502" lon="-7.092653978615999">
        <ele>143.37</ele>
        <time>2025-05-02T14:27:13Z</time>
      </trkpt>
      <trkpt lat="41.267512030899525" lon="-7.09263201802969">
        <ele>143.37</ele>
        <time>2025-05-02T14:27:14Z</time>
      </trkpt>
      <trkpt lat="41.26758998259902" lon="-7.092553982511163">
        <ele>143.84999999999999</ele>
        <time>2025-05-02T14:27:15Z</time>
      </trkpt>
      <trkpt lat="41.267644967883825" lon="-7.092416016384959">
        <ele>143.84999999999999</ele>
        <time>2025-05-02T14:27:16Z</time>
      </trkpt>
      <trkpt lat="41.267662988975644" lon="-7.092290036380291">
        <ele>144.34</ele>
        <time>2025-05-02T14:27:17Z</time>
      </trkpt>
      <trkpt lat="41.267681010067463" lon="-7.092164978384972">
        <ele>144.34</ele>
        <time>2025-05-02T14:27:18Z</time>
      </trkpt>
      <trkpt lat="41.267676986753941" lon="-7.092003962025046">
        <ele>144.34</ele>
        <time>2025-05-02T14:27:19Z</time>
      </trkpt>
      <trkpt lat="41.267628958448768" lon="-7.09186096675694">
        <ele>144.34</ele>
        <time>2025-05-02T14:27:20Z</time>
      </trkpt>
      <trkpt lat="41.267576990649104" lon="-7.091703973710537">
        <ele>144.34</ele>
        <time>2025-05-02T14:27:21Z</time>
      </trkpt>
      <trkpt lat="41.267310027033091" lon="-7.091035014018416">
        <ele>144.81999999999999</ele>
        <time>2025-05-02T14:27:25Z</time>
      </trkpt>
      <trkpt lat="41.267216987907887" lon="-7.090900987386704">
        <ele>144.81999999999999</ele>
        <time>2025-05-02T14:27:26Z</time>
      </trkpt>
      <trkpt lat="41.267102994024754" lon="-7.090782970190048">
        <ele>145.30000000000001</ele>
        <time>2025-05-02T14:27:27Z</time>
      </trkpt>
      <trkpt lat="41.266973996534944" lon="-7.090705018490553">
        <ele>145.30000000000001</ele>
        <time>2025-05-02T14:27:28Z</time>
      </trkpt>
      <trkpt lat="41.266837958246469" lon="-7.090623965486884">
        <ele>145.30000000000001</ele>
        <time>2025-05-02T14:27:29Z</time>
      </trkpt>
      <trkpt lat="41.266683982685208" lon="-7.090599993243814">
        <ele>145.30000000000001</ele>
        <time>2025-05-02T14:27:30Z</time>
      </trkpt>
      <trkpt lat="41.266529001295567" lon="-7.090576021000743">
        <ele>145.78</ele>
        <time>2025-05-02T14:27:31Z</time>
      </trkpt>
      <trkpt lat="41.266376031562686" lon="-7.090552970767021">
        <ele>145.78</ele>
        <time>2025-05-02T14:27:32Z</time>
      </trkpt>
      <trkpt lat="41.264695962890983" lon="-7.090316014364362">
        <ele>145.78</ele>
        <time>2025-05-02T14:27:43Z</time>
      </trkpt>
      <trkpt lat="41.264562020078301" lon="-7.090258011594415">
        <ele>146.25999999999999</ele>
        <time>2025-05-02T14:27:44Z</time>
      </trkpt>
      <trkpt lat="41.264451965689659" lon="-7.090133037418127">
        <ele>146.25999999999999</ele>
        <time>2025-05-02T14:27:45Z</time>
      </trkpt>
      <trkpt lat="41.264335038140416" lon="-7.090000016614795">
        <ele>146.25999999999999</ele>
        <time>2025-05-02T14:27:46Z</time>
      </trkpt>
      <trkpt lat="41.264221966266632" lon="-7.089846963062882">
        <ele>146.25999999999999</ele>
        <time>2025-05-02T14:27:47Z</time>
      </trkpt>
      <trkpt lat="41.264148959890008" lon="-7.089662980288267">
        <ele>146.25999999999999</ele>
        <time>2025-05-02T14:27:48Z</time>
      </trkpt>
      <trkpt lat="41.264070002362132" lon="-7.089464999735355">
        <ele>146.25999999999999</ele>
        <time>2025-05-02T14:27:49Z</time>
      </trkpt>
      <trkpt lat="41.264017028734088" lon="-7.089283028617501">
        <ele>146.25999999999999</ele>
        <time>2025-05-02T14:27:50Z</time>
      </trkpt>
      <trkpt lat="41.26391502097249" lon="-7.088886983692646">
        <ele>146.74000000000001</ele>
        <time>2025-05-02T14:27:52Z</time>
      </trkpt>
      <trkpt lat="41.263902029022574" lon="-7.088693026453257">
        <ele>147.22</ele>
        <time>2025-05-02T14:27:53Z</time>
      </trkpt>
      <trkpt lat="41.263909991830587" lon="-7.0885060261935">
        <ele>147.69999999999999</ele>
        <time>2025-05-02T14:27:54Z</time>
      </trkpt>
      <trkpt lat="41.26395802013576" lon="-7.088336041197181">
        <ele>148.18000000000001</ele>
        <time>2025-05-02T14:27:55Z</time>
      </trkpt>
      <trkpt lat="41.264034966006875" lon="-7.088180975988507">
        <ele>148.66</ele>
        <time>2025-05-02T14:27:56Z</time>
      </trkpt>
      <trkpt lat="41.264111995697021" lon="-7.088028006255627">
        <ele>149.13999999999999</ele>
        <time>2025-05-02T14:27:57Z</time>
      </trkpt>
      <trkpt lat="41.264305030927062" lon="-7.087582005187869">
        <ele>149.13999999999999</ele>
        <time>2025-05-02T14:28:00Z</time>
      </trkpt>
      <trkpt lat="41.264356998726726" lon="-7.087450996041298">
        <ele>149.13999999999999</ele>
        <time>2025-05-02T14:28:01Z</time>
      </trkpt>
      <trkpt lat="41.264391029253602" lon="-7.087338007986546">
        <ele>148.66</ele>
        <time>2025-05-02T14:28:02Z</time>
      </trkpt>
      <trkpt lat="41.264377031475306" lon="-7.087216973304749">
        <ele>148.66</ele>
        <time>2025-05-02T14:28:03Z</time>
      </trkpt>
      <trkpt lat="41.264335960149765" lon="-7.087105996906757">
        <ele>148.18000000000001</ele>
        <time>2025-05-02T14:28:04Z</time>
      </trkpt>
      <trkpt lat="41.264251973479986" lon="-7.087008012458682">
        <ele>148.18000000000001</ele>
        <time>2025-05-02T14:28:05Z</time>
      </trkpt>
      <trkpt lat="41.264154994860291" lon="-7.08691799081862">
        <ele>148.18000000000001</ele>
        <time>2025-05-02T14:28:06Z</time>
      </trkpt>
      <trkpt lat="41.2640440184623" lon="-7.086825035512447">
        <ele>148.18000000000001</ele>
        <time>2025-05-02T14:28:07Z</time>
      </trkpt>
      <trkpt lat="41.263920972123742" lon="-7.086722021922469">
        <ele>147.69999999999999</ele>
        <time>2025-05-02T14:28:08Z</time>
      </trkpt>
      <trkpt lat="41.263167019933462" lon="-7.086205026134849">
        <ele>146.74000000000001</ele>
        <time>2025-05-02T14:28:13Z</time>
      </trkpt>
      <trkpt lat="41.262985970824957" lon="-7.086131013929844">
        <ele>146.25999999999999</ele>
        <time>2025-05-02T14:28:14Z</time>
      </trkpt>
      <trkpt lat="41.26279603689909" lon="-7.086072005331516">
        <ele>145.78</ele>
        <time>2025-05-02T14:28:15Z</time>
      </trkpt>
      <trkpt lat="41.262601995840669" lon="-7.086010985076428">
        <ele>145.30000000000001</ele>
        <time>2025-05-02T14:28:16Z</time>
      </trkpt>
      <trkpt lat="41.262362021952868" lon="-7.085992963984609">
        <ele>144.34</ele>
        <time>2025-05-02T14:28:17Z</time>
      </trkpt>
      <trkpt lat="41.262149037793279" lon="-7.086049960926175">
        <ele>143.84999999999999</ele>
        <time>2025-05-02T14:28:18Z</time>
      </trkpt>
      <trkpt lat="41.260643983259797" lon="-7.086783964186907">
        <ele>140.49000000000001</ele>
        <time>2025-05-02T14:28:25Z</time>
      </trkpt>
      <trkpt lat="41.258688988164067" lon="-7.08773497492075">
        <ele>138.09</ele>
        <time>2025-05-02T14:28:34Z</time>
      </trkpt>
      <trkpt lat="41.257518958300352" lon="-7.087677977979183">
        <ele>137.61000000000001</ele>
        <time>2025-05-02T14:28:40Z</time>
      </trkpt>
      <trkpt lat="41.255737971514463" lon="-7.087189983576536">
        <ele>138.09</ele>
        <time>2025-05-02T14:28:50Z</time>
      </trkpt>
      <trkpt lat="41.254528965801001" lon="-7.087083030492067">
        <ele>139.05000000000001</ele>
        <time>2025-05-02T14:28:57Z</time>
      </trkpt>
      <trkpt lat="41.25233399681747" lon="-7.087125023826957">
        <ele>139.05000000000001</ele>
        <time>2025-05-02T14:29:09Z</time>
      </trkpt>
      <trkpt lat="41.250235000625253" lon="-7.087169028818607">
        <ele>139.05000000000001</ele>
        <time>2025-05-02T14:29:19Z</time>
      </trkpt>
      <trkpt lat="41.247230004519224" lon="-7.087230971083045">
        <ele>139.05000000000001</ele>
        <time>2025-05-02T14:29:32Z</time>
      </trkpt>
      <trkpt lat="41.244958005845547" lon="-7.087269024923444">
        <ele>139.53</ele>
        <time>2025-05-02T14:29:43Z</time>
      </trkpt>
      <trkpt lat="41.243791999295354" lon="-7.087260978296399">
        <ele>142.41</ele>
        <time>2025-05-02T14:29:50Z</time>
      </trkpt>
      <trkpt lat="41.243487987667322" lon="-7.087225019931793">
        <ele>143.37</ele>
        <time>2025-05-02T14:29:52Z</time>
      </trkpt>
      <trkpt lat="41.2433320004493" lon="-7.087173974141479">
        <ele>143.84999999999999</ele>
        <time>2025-05-02T14:29:53Z</time>
      </trkpt>
      <trkpt lat="41.241303998976946" lon="-7.086498979479075">
        <ele>148.66</ele>
        <time>2025-05-02T14:30:05Z</time>
      </trkpt>
      <trkpt lat="41.240760013461113" lon="-7.08631600253284">
        <ele>149.13999999999999</ele>
        <time>2025-05-02T14:30:08Z</time>
      </trkpt>
      <trkpt lat="41.240564966574311" lon="-7.086328994482756">
        <ele>149.13999999999999</ele>
        <time>2025-05-02T14:30:09Z</time>
      </trkpt>
      <trkpt lat="41.240368997678161" lon="-7.086349027231336">
        <ele>149.13999999999999</ele>
        <time>2025-05-02T14:30:10Z</time>
      </trkpt>
      <trkpt lat="41.237039035186172" lon="-7.086821012198925">
        <ele>143.84999999999999</ele>
        <time>2025-05-02T14:30:26Z</time>
      </trkpt>
      <trkpt lat="41.234227996319532" lon="-7.087231976911426">
        <ele>137.61000000000001</ele>
        <time>2025-05-02T14:30:40Z</time>
      </trkpt>
      <trkpt lat="41.232305020093918" lon="-7.087462982162833">
        <ele>136.63999999999999</ele>
        <time>2025-05-02T14:30:50Z</time>
      </trkpt>
      <trkpt lat="41.232113996520638" lon="-7.087438004091382">
        <ele>137.13</ele>
        <time>2025-05-02T14:30:51Z</time>
      </trkpt>
      <trkpt lat="41.231731027364731" lon="-7.087386958301067">
        <ele>137.61000000000001</ele>
        <time>2025-05-02T14:30:53Z</time>
      </trkpt>
      <trkpt lat="41.231542015448213" lon="-7.087361980229616">
        <ele>137.61000000000001</ele>
        <time>2025-05-02T14:30:54Z</time>
      </trkpt>
      <trkpt lat="41.231353003531694" lon="-7.087429035454989">
        <ele>137.13</ele>
        <time>2025-05-02T14:30:55Z</time>
      </trkpt>
      <trkpt lat="41.231163991615176" lon="-7.08749701268971">
        <ele>137.13</ele>
        <time>2025-05-02T14:30:56Z</time>
      </trkpt>
      <trkpt lat="41.230971962213516" lon="-7.087565995752811">
        <ele>136.63999999999999</ele>
        <time>2025-05-02T14:30:57Z</time>
      </trkpt>
      <trkpt lat="41.228266032412648" lon="-7.088685985654593">
        <ele>133.28</ele>
        <time>2025-05-02T14:31:11Z</time>
      </trkpt>
      <trkpt lat="41.225444013252854" lon="-7.089873030781746">
        <ele>132.80000000000001</ele>
        <time>2025-05-02T14:31:26Z</time>
      </trkpt>
      <trkpt lat="41.223440989851952" lon="-7.090711975470185">
        <ele>131.84</ele>
        <time>2025-05-02T14:31:37Z</time>
      </trkpt>
      <trkpt lat="41.221539974212646" lon="-7.09160003811121">
        <ele>129.43000000000001</ele>
        <time>2025-05-02T14:31:47Z</time>
      </trkpt>
      <trkpt lat="41.22049299068749" lon="-7.092012008652091">
        <ele>128.47</ele>
        <time>2025-05-02T14:31:54Z</time>
      </trkpt>
      <trkpt lat="41.220207000151277" lon="-7.092081997543573">
        <ele>127.98999999999999</ele>
        <time>2025-05-02T14:31:56Z</time>
      </trkpt>
      <trkpt lat="41.220054030418396" lon="-7.092076968401671">
        <ele>127.98999999999999</ele>
        <time>2025-05-02T14:31:57Z</time>
      </trkpt>
      <trkpt lat="41.219893014058471" lon="-7.092071017250419">
        <ele>127.98999999999999</ele>
        <time>2025-05-02T14:31:58Z</time>
      </trkpt>
      <trkpt lat="41.218522991985083" lon="-7.091997005045414">
        <ele>131.84</ele>
        <time>2025-05-02T14:32:06Z</time>
      </trkpt>
      <trkpt lat="41.217462010681629" lon="-7.091887034475803">
        <ele>136.16</ele>
        <time>2025-05-02T14:32:14Z</time>
      </trkpt>
      <trkpt lat="41.217350028455257" lon="-7.091910000890493">
        <ele>136.63999999999999</ele>
        <time>2025-05-02T14:32:15Z</time>
      </trkpt>
      <trkpt lat="41.217237040400505" lon="-7.091942019760609">
        <ele>136.63999999999999</ele>
        <time>2025-05-02T14:32:16Z</time>
      </trkpt>
      <trkpt lat="41.217116005718708" lon="-7.091976972296834">
        <ele>137.13</ele>
        <time>2025-05-02T14:32:17Z</time>
      </trkpt>
      <trkpt lat="41.216178992763162" lon="-7.092313002794981">
        <ele>138.09</ele>
        <time>2025-05-02T14:32:25Z</time>
      </trkpt>
      <trkpt lat="41.216052006930113" lon="-7.092305961996317">
        <ele>138.56999999999999</ele>
        <time>2025-05-02T14:32:26Z</time>
      </trkpt>
      <trkpt lat="41.215929966419935" lon="-7.092299005016685">
        <ele>138.56999999999999</ele>
        <time>2025-05-02T14:32:27Z</time>
      </trkpt>
      <trkpt lat="41.215828964486718" lon="-7.092249970883131">
        <ele>139.05000000000001</ele>
        <time>2025-05-02T14:32:28Z</time>
      </trkpt>
      <trkpt lat="41.215727040544152" lon="-7.092177970334888">
        <ele>140.00999999999999</ele>
        <time>2025-05-02T14:32:29Z</time>
      </trkpt>
      <trkpt lat="41.215643975883722" lon="-7.092083003371954">
        <ele>140.49000000000001</ele>
        <time>2025-05-02T14:32:30Z</time>
      </trkpt>
      <trkpt lat="41.215579016134143" lon="-7.091960962861776">
        <ele>140.97</ele>
        <time>2025-05-02T14:32:31Z</time>
      </trkpt>
      <trkpt lat="41.215511038899422" lon="-7.091845041140914">
        <ele>141.44999999999999</ele>
        <time>2025-05-02T14:32:32Z</time>
      </trkpt>
      <trkpt lat="41.21546502225101" lon="-7.091713026165962">
        <ele>141.93000000000001</ele>
        <time>2025-05-02T14:32:33Z</time>
      </trkpt>
      <trkpt lat="41.215384975075722" lon="-7.0916230045259">
        <ele>141.93000000000001</ele>
        <time>2025-05-02T14:32:34Z</time>
      </trkpt>
      <trkpt lat="41.21529595926404" lon="-7.091545974835753">
        <ele>142.41</ele>
        <time>2025-05-02T14:32:35Z</time>
      </trkpt>
      <trkpt lat="41.215206021443009" lon="-7.091496018692851">
        <ele>142.88999999999999</ele>
        <time>2025-05-02T14:32:36Z</time>
      </trkpt>
      <trkpt lat="41.215118011459708" lon="-7.091447990387678">
        <ele>143.37</ele>
        <time>2025-05-02T14:32:37Z</time>
      </trkpt>
      <trkpt lat="41.214862028136849" lon="-7.091303989291191">
        <ele>145.30000000000001</ele>
        <time>2025-05-02T14:32:40Z</time>
      </trkpt>
      <trkpt lat="41.214795978739858" lon="-7.091221008449793">
        <ele>145.78</ele>
        <time>2025-05-02T14:32:41Z</time>
      </trkpt>
      <trkpt lat="41.214753985404968" lon="-7.091110032051802">
        <ele>146.25999999999999</ele>
        <time>2025-05-02T14:32:42Z</time>
      </trkpt>
      <trkpt lat="41.214717021211982" lon="-7.090987991541624">
        <ele>146.74000000000001</ele>
        <time>2025-05-02T14:32:43Z</time>
      </trkpt>
      <trkpt lat="41.214706962928176" lon="-7.090855976566672">
        <ele>146.74000000000001</ele>
        <time>2025-05-02T14:32:44Z</time>
      </trkpt>
      <trkpt lat="41.214695982635021" lon="-7.090710969641805">
        <ele>147.22</ele>
        <time>2025-05-02T14:32:45Z</time>
      </trkpt>
      <trkpt lat="41.214637979865074" lon="-7.090027006343007">
        <ele>150.58000000000001</ele>
        <time>2025-05-02T14:32:50Z</time>
      </trkpt>
      <trkpt lat="41.214621970430017" lon="-7.089932039380074">
        <ele>151.06</ele>
        <time>2025-05-02T14:32:51Z</time>
      </trkpt>
      <trkpt lat="41.214597998186946" lon="-7.089859033003449">
        <ele>151.53999999999999</ele>
        <time>2025-05-02T14:32:52Z</time>
      </trkpt>
      <trkpt lat="41.214480986818671" lon="-7.089764988049865">
        <ele>152.50999999999999</ele>
        <time>2025-05-02T14:32:53Z</time>
      </trkpt>
      <trkpt lat="41.214433964341879" lon="-7.089773034676909">
        <ele>152.99000000000001</ele>
        <time>2025-05-02T14:32:54Z</time>
      </trkpt>
      <trkpt lat="41.214308990165591" lon="-7.089701034128666">
        <ele>153.47</ele>
        <time>2025-05-02T14:32:55Z</time>
      </trkpt>
      <trkpt lat="41.214282000437379" lon="-7.089693993330002">
        <ele>153.94999999999999</ele>
        <time>2025-05-02T14:32:56Z</time>
      </trkpt>
      <trkpt lat="41.214189967140555" lon="-7.089671026915312">
        <ele>154.43000000000001</ele>
        <time>2025-05-02T14:32:57Z</time>
      </trkpt>
      <trkpt lat="41.213976982980967" lon="-7.089614029973745">
        <ele>155.38999999999999</ele>
        <time>2025-05-02T14:32:59Z</time>
      </trkpt>
      <trkpt lat="41.213871035724878" lon="-7.089567007496953">
        <ele>155.38999999999999</ele>
        <time>2025-05-02T14:33:00Z</time>
      </trkpt>
      <trkpt lat="41.213766010478139" lon="-7.08947598002851">
        <ele>155.87</ele>
        <time>2025-05-02T14:33:01Z</time>
      </trkpt>
      <trkpt lat="41.212620036676526" lon="-7.088493034243584">
        <ele>157.31</ele>
        <time>2025-05-02T14:33:10Z</time>
      </trkpt>
      <trkpt lat="41.212217034772038" lon="-7.088059019297361">
        <ele>158.27000000000001</ele>
        <time>2025-05-02T14:33:13Z</time>
      </trkpt>
      <trkpt lat="41.212103040888906" lon="-7.087882999330759">
        <ele>157.78999999999999</ele>
        <time>2025-05-02T14:33:14Z</time>
      </trkpt>
      <trkpt lat="41.212012013420463" lon="-7.087688958272338">
        <ele>157.78999999999999</ele>
        <time>2025-05-02T14:33:15Z</time>
      </trkpt>
      <trkpt lat="41.2119410187006" lon="-7.087482009083033">
        <ele>157.78999999999999</ele>
        <time>2025-05-02T14:33:16Z</time>
      </trkpt>
      <trkpt lat="41.211885027587414" lon="-7.087255027145147">
        <ele>157.78999999999999</ele>
        <time>2025-05-02T14:33:17Z</time>
      </trkpt>
      <trkpt lat="41.211844040080905" lon="-7.087021004408598">
        <ele>157.78999999999999</ele>
        <time>2025-05-02T14:33:18Z</time>
      </trkpt>
      <trkpt lat="41.211745971813798" lon="-7.086549019441009">
        <ele>157.78999999999999</ele>
        <time>2025-05-02T14:33:20Z</time>
      </trkpt>
      <trkpt lat="41.211669025942683" lon="-7.0863370411098">
        <ele>157.78999999999999</ele>
        <time>2025-05-02T14:33:21Z</time>
      </trkpt>
      <trkpt lat="41.211569029837847" lon="-7.086140988394618">
        <ele>157.78999999999999</ele>
        <time>2025-05-02T14:33:22Z</time>
      </trkpt>
      <trkpt lat="41.211450006812811" lon="-7.085966980084777">
        <ele>157.78999999999999</ele>
        <time>2025-05-02T14:33:23Z</time>
      </trkpt>
      <trkpt lat="41.211308017373085" lon="-7.085818033665419">
        <ele>157.31</ele>
        <time>2025-05-02T14:33:24Z</time>
      </trkpt>
      <trkpt lat="41.211153035983443" lon="-7.085701022297144">
        <ele>157.31</ele>
        <time>2025-05-02T14:33:25Z</time>
      </trkpt>
      <trkpt lat="41.210995959118009" lon="-7.085581999272108">
        <ele>157.31</ele>
        <time>2025-05-02T14:33:26Z</time>
      </trkpt>
      <trkpt lat="41.210840977728367" lon="-7.085464987903833">
        <ele>157.31</ele>
        <time>2025-05-02T14:33:27Z</time>
      </trkpt>
      <trkpt lat="41.210699994117022" lon="-7.085329033434391">
        <ele>156.83000000000001</ele>
        <time>2025-05-02T14:33:28Z</time>
      </trkpt>
      <trkpt lat="41.21056797914207" lon="-7.085174974054098">
        <ele>157.31</ele>
        <time>2025-05-02T14:33:29Z</time>
      </trkpt>
      <trkpt lat="41.21046002022922" lon="-7.084980010986328">
        <ele>157.31</ele>
        <time>2025-05-02T14:33:30Z</time>
      </trkpt>
      <trkpt lat="41.21037402190268" lon="-7.084765015169978">
        <ele>157.31</ele>
        <time>2025-05-02T14:33:31Z</time>
      </trkpt>
      <trkpt lat="41.210290035232902" lon="-7.084552031010389">
        <ele>156.83000000000001</ele>
        <time>2025-05-02T14:33:32Z</time>
      </trkpt>
      <trkpt lat="41.210217028856277" lon="-7.084325971081853">
        <ele>157.31</ele>
        <time>2025-05-02T14:33:33Z</time>
      </trkpt>
      <trkpt lat="41.209523007273674" lon="-7.082314984872937">
        <ele>157.31</ele>
        <time>2025-05-02T14:33:42Z</time>
      </trkpt>
      <trkpt lat="41.209413036704063" lon="-7.082138964906335">
        <ele>157.78999999999999</ele>
        <time>2025-05-02T14:33:43Z</time>
      </trkpt>
      <trkpt lat="41.209302982315421" lon="-7.081969985738397">
        <ele>157.31</ele>
        <time>2025-05-02T14:33:44Z</time>
      </trkpt>
      <trkpt lat="41.209160992875695" lon="-7.081849034875631">
        <ele>157.31</ele>
        <time>2025-05-02T14:33:45Z</time>
      </trkpt>
      <trkpt lat="41.209025038406253" lon="-7.081732023507357">
        <ele>157.31</ele>
        <time>2025-05-02T14:33:46Z</time>
      </trkpt>
      <trkpt lat="41.208867039531469" lon="-7.081685001030564">
        <ele>156.83000000000001</ele>
        <time>2025-05-02T14:33:47Z</time>
      </trkpt>
      <trkpt lat="41.208688002079725" lon="-7.081642001867294">
        <ele>156.83000000000001</ele>
        <time>2025-05-02T14:33:48Z</time>
      </trkpt>
      <trkpt lat="41.20850401930511" lon="-7.081597996875644">
        <ele>156.83000000000001</ele>
        <time>2025-05-02T14:33:49Z</time>
      </trkpt>
      <trkpt lat="41.205956004559994" lon="-7.081281999126077">
        <ele>154.43000000000001</ele>
        <time>2025-05-02T14:34:02Z</time>
      </trkpt>
      <trkpt lat="41.204046020284295" lon="-7.081663962453604">
        <ele>152.99000000000001</ele>
        <time>2025-05-02T14:34:11Z</time>
      </trkpt>
      <trkpt lat="41.203853990882635" lon="-7.081794971600175">
        <ele>152.99000000000001</ele>
        <time>2025-05-02T14:34:12Z</time>
      </trkpt>
      <trkpt lat="41.203672019764781" lon="-7.081935033202171">
        <ele>152.99000000000001</ele>
        <time>2025-05-02T14:34:13Z</time>
      </trkpt>
      <trkpt lat="41.203491976484656" lon="-7.082074005156755">
        <ele>152.99000000000001</ele>
        <time>2025-05-02T14:34:14Z</time>
      </trkpt>
      <trkpt lat="41.203336995095015" lon="-7.082242984324694">
        <ele>152.50999999999999</ele>
        <time>2025-05-02T14:34:15Z</time>
      </trkpt>
      <trkpt lat="41.203192993998528" lon="-7.082419004291296">
        <ele>152.99000000000001</ele>
        <time>2025-05-02T14:34:16Z</time>
      </trkpt>
      <trkpt lat="41.203065002337098" lon="-7.082617990672588">
        <ele>152.99000000000001</ele>
        <time>2025-05-02T14:34:17Z</time>
      </trkpt>
      <trkpt lat="41.202947990968823" lon="-7.082821000367403">
        <ele>152.99000000000001</ele>
        <time>2025-05-02T14:34:18Z</time>
      </trkpt>
      <trkpt lat="41.202851012349129" lon="-7.083052005618811">
        <ele>152.99000000000001</ele>
        <time>2025-05-02T14:34:19Z</time>
      </trkpt>
      <trkpt lat="41.202763002365828" lon="-7.083287034183741">
        <ele>152.99000000000001</ele>
        <time>2025-05-02T14:34:20Z</time>
      </trkpt>
      <trkpt lat="41.202674992382526" lon="-7.083524996414781">
        <ele>152.99000000000001</ele>
        <time>2025-05-02T14:34:21Z</time>
      </trkpt>
      <trkpt lat="41.201619040220976" lon="-7.086175018921495">
        <ele>150.58000000000001</ele>
        <time>2025-05-02T14:34:32Z</time>
      </trkpt>
      <trkpt lat="41.201173961162567" lon="-7.08694196306169">
        <ele>149.62</ele>
        <time>2025-05-02T14:34:36Z</time>
      </trkpt>
      <trkpt lat="41.201102966442704" lon="-7.087156036868691">
        <ele>149.62</ele>
        <time>2025-05-02T14:34:37Z</time>
      </trkpt>
      <trkpt lat="41.201045969501138" lon="-7.087381007149816">
        <ele>149.13999999999999</ele>
        <time>2025-05-02T14:34:38Z</time>
      </trkpt>
      <trkpt lat="41.201035995036364" lon="-7.087611006572843">
        <ele>149.13999999999999</ele>
        <time>2025-05-02T14:34:39Z</time>
      </trkpt>
      <trkpt lat="41.20102996006608" lon="-7.08784201182425">
        <ele>148.66</ele>
        <time>2025-05-02T14:34:40Z</time>
      </trkpt>
      <trkpt lat="41.201056027784944" lon="-7.088073017075658">
        <ele>148.66</ele>
        <time>2025-05-02T14:34:41Z</time>
      </trkpt>
      <trkpt lat="41.201087962836027" lon="-7.088306033983827">
        <ele>148.66</ele>
        <time>2025-05-02T14:34:42Z</time>
      </trkpt>
      <trkpt lat="41.201125010848045" lon="-7.088527986779809">
        <ele>148.18000000000001</ele>
        <time>2025-05-02T14:34:43Z</time>
      </trkpt>
      <trkpt lat="41.201321985572577" lon="-7.090590018779039">
        <ele>146.74000000000001</ele>
        <time>2025-05-02T14:34:52Z</time>
      </trkpt>
      <trkpt lat="41.201306981965899" lon="-7.090837033465505">
        <ele>146.25999999999999</ele>
        <time>2025-05-02T14:34:53Z</time>
      </trkpt>
      <trkpt lat="41.201257025822997" lon="-7.091080024838448">
        <ele>146.74000000000001</ele>
        <time>2025-05-02T14:34:54Z</time>
      </trkpt>
      <trkpt lat="41.201202962547541" lon="-7.091321004554629">
        <ele>146.74000000000001</ele>
        <time>2025-05-02T14:34:55Z</time>
      </trkpt>
      <trkpt lat="41.201124005019665" lon="-7.091557960957289">
        <ele>146.25999999999999</ele>
        <time>2025-05-02T14:34:56Z</time>
      </trkpt>
      <trkpt lat="41.201033983379602" lon="-7.091783015057445">
        <ele>146.74000000000001</ele>
        <time>2025-05-02T14:34:57Z</time>
      </trkpt>
      <trkpt lat="41.19986898265779" lon="-7.094382997602224">
        <ele>141.93000000000001</ele>
        <time>2025-05-02T14:35:09Z</time>
      </trkpt>
      <trkpt lat="41.199733028188348" lon="-7.094573015347123">
        <ele>141.44999999999999</ele>
        <time>2025-05-02T14:35:10Z</time>
      </trkpt>
      <trkpt lat="41.199581986293197" lon="-7.094750041142106">
        <ele>140.49000000000001</ele>
        <time>2025-05-02T14:35:11Z</time>
      </trkpt>
      <trkpt lat="41.19941895827651" lon="-7.094913991168141">
        <ele>139.53</ele>
        <time>2025-05-02T14:35:12Z</time>
      </trkpt>
      <trkpt lat="41.199241010472178" lon="-7.095043994486332">
        <ele>139.05000000000001</ele>
        <time>2025-05-02T14:35:13Z</time>
      </trkpt>
      <trkpt lat="41.199059039354324" lon="-7.095162011682987">
        <ele>138.09</ele>
        <time>2025-05-02T14:35:14Z</time>
      </trkpt>
      <trkpt lat="41.198869021609426" lon="-7.095264019444585">
        <ele>137.61000000000001</ele>
        <time>2025-05-02T14:35:15Z</time>
      </trkpt>
      <trkpt lat="41.198674980551004" lon="-7.095358986407518">
        <ele>136.63999999999999</ele>
        <time>2025-05-02T14:35:16Z</time>
      </trkpt>
      <trkpt lat="41.195987993851304" lon="-7.096581989899278">
        <ele>129.43000000000001</ele>
        <time>2025-05-02T14:35:29Z</time>
      </trkpt>
      <trkpt lat="41.192999007180333" lon="-7.098000962287188">
        <ele>127.03</ele>
        <time>2025-05-02T14:35:43Z</time>
      </trkpt>
      <trkpt lat="41.19007296860218" lon="-7.09955396130681">
        <ele>124.15000000000001</ele>
        <time>2025-05-02T14:35:57Z</time>
      </trkpt>
      <trkpt lat="41.187854027375579" lon="-7.100326018407941">
        <ele>123.19</ele>
        <time>2025-05-02T14:36:07Z</time>
      </trkpt>
      <trkpt lat="41.185655035078526" lon="-7.101199999451637">
        <ele>124.15000000000001</ele>
        <time>2025-05-02T14:36:17Z</time>
      </trkpt>
      <trkpt lat="41.183820990845561" lon="-7.102146986871958">
        <ele>124.15000000000001</ele>
        <time>2025-05-02T14:36:26Z</time>
      </trkpt>
      <trkpt lat="41.18162602186203" lon="-7.103093974292278">
        <ele>127.03</ele>
        <time>2025-05-02T14:36:37Z</time>
      </trkpt>
      <trkpt lat="41.179475979879498" lon="-7.104027969762683">
        <ele>125.59</ele>
        <time>2025-05-02T14:36:47Z</time>
      </trkpt>
      <trkpt lat="41.177361980080605" lon="-7.105405032634735">
        <ele>127.51000000000001</ele>
        <time>2025-05-02T14:36:57Z</time>
      </trkpt>
      <trkpt lat="41.174968024715781" lon="-7.106994995847344">
        <ele>128.94999999999999</ele>
        <time>2025-05-02T14:37:09Z</time>
      </trkpt>
      <trkpt lat="41.17266601882875" lon="-7.108226967975497">
        <ele>133.75999999999999</ele>
        <time>2025-05-02T14:37:20Z</time>
      </trkpt>
      <trkpt lat="41.17019603960216" lon="-7.109749959781766">
        <ele>136.16</ele>
        <time>2025-05-02T14:37:32Z</time>
      </trkpt>
      <trkpt lat="41.168677993118763" lon="-7.110625030472875">
        <ele>134.72</ele>
        <time>2025-05-02T14:37:39Z</time>
      </trkpt>
      <trkpt lat="41.166902035474777" lon="-7.111031971871853">
        <ele>131.84</ele>
        <time>2025-05-02T14:37:47Z</time>
      </trkpt>
      <trkpt lat="41.163652036339045" lon="-7.111663967370987">
        <ele>127.51000000000001</ele>
        <time>2025-05-02T14:38:02Z</time>
      </trkpt>
      <trkpt lat="41.161034032702446" lon="-7.112051965668798">
        <ele>126.55</ele>
        <time>2025-05-02T14:38:14Z</time>
      </trkpt>
      <trkpt lat="41.158112017437816" lon="-7.11211902089417">
        <ele>127.51000000000001</ele>
        <time>2025-05-02T14:38:27Z</time>
      </trkpt>
      <trkpt lat="41.155331991612911" lon="-7.112223040312529">
        <ele>128.47</ele>
        <time>2025-05-02T14:38:39Z</time>
      </trkpt>
      <trkpt lat="41.152634024620056" lon="-7.112827962264419">
        <ele>126.55</ele>
        <time>2025-05-02T14:38:51Z</time>
      </trkpt>
      <trkpt lat="41.150032030418515" lon="-7.113579986616969">
        <ele>126.55</ele>
        <time>2025-05-02T14:39:03Z</time>
      </trkpt>
      <trkpt lat="41.148810032755136" lon="-7.114348020404577">
        <ele>127.98999999999999</ele>
        <time>2025-05-02T14:39:09Z</time>
      </trkpt>
      <trkpt lat="41.146817989647388" lon="-7.116212993860245">
        <ele>131.36000000000001</ele>
        <time>2025-05-02T14:39:20Z</time>
      </trkpt>
      <trkpt lat="41.146066971123219" lon="-7.117698015645146">
        <ele>132.80000000000001</ele>
        <time>2025-05-02T14:39:26Z</time>
      </trkpt>
      <trkpt lat="41.145140016451478" lon="-7.119364002719522">
        <ele>133.75999999999999</ele>
        <time>2025-05-02T14:39:33Z</time>
      </trkpt>
      <trkpt lat="41.14400502294302" lon="-7.120679961517453">
        <ele>137.61000000000001</ele>
        <time>2025-05-02T14:39:40Z</time>
      </trkpt>
      <trkpt lat="41.142875980585814" lon="-7.121539022773504">
        <ele>144.34</ele>
        <time>2025-05-02T14:39:46Z</time>
      </trkpt>
      <trkpt lat="41.142720999196172" lon="-7.121708001941443">
        <ele>146.25999999999999</ele>
        <time>2025-05-02T14:39:47Z</time>
      </trkpt>
      <trkpt lat="41.141906026750803" lon="-7.122476035729051">
        <ele>153.94999999999999</ele>
        <time>2025-05-02T14:39:52Z</time>
      </trkpt>
      <trkpt lat="41.141721038147807" lon="-7.12256396189332">
        <ele>155.87</ele>
        <time>2025-05-02T14:39:53Z</time>
      </trkpt>
      <trkpt lat="41.141528002917767" lon="-7.122619030997157">
        <ele>157.31</ele>
        <time>2025-05-02T14:39:54Z</time>
      </trkpt>
      <trkpt lat="41.141331028193235" lon="-7.122631017118692">
        <ele>158.75</ele>
        <time>2025-05-02T14:39:55Z</time>
      </trkpt>
      <trkpt lat="41.141130030155182" lon="-7.122619030997157">
        <ele>160.68000000000001</ele>
        <time>2025-05-02T14:39:56Z</time>
      </trkpt>
      <trkpt lat="41.140944035723805" lon="-7.122568991035223">
        <ele>162.12</ele>
        <time>2025-05-02T14:39:57Z</time>
      </trkpt>
      <trkpt lat="41.140760974958539" lon="-7.122511994093657">
        <ele>164.03999999999999</ele>
        <time>2025-05-02T14:39:58Z</time>
      </trkpt>
      <trkpt lat="41.140603981912136" lon="-7.122401017695665">
        <ele>165.47999999999999</ele>
        <time>2025-05-02T14:39:59Z</time>
      </trkpt>
      <trkpt lat="41.140429973602295" lon="-7.122274031862617">
        <ele>166.93000000000001</ele>
        <time>2025-05-02T14:40:00Z</time>
      </trkpt>
      <trkpt lat="41.14028898999095" lon="-7.122144028544426">
        <ele>168.84999999999999</ele>
        <time>2025-05-02T14:40:01Z</time>
      </trkpt>
      <trkpt lat="41.139105968177319" lon="-7.120656995102763">
        <ele>176.06</ele>
        <time>2025-05-02T14:40:09Z</time>
      </trkpt>
      <trkpt lat="41.137150973081589" lon="-7.11822297424078">
        <ele>165.47999999999999</ele>
        <time>2025-05-02T14:40:21Z</time>
      </trkpt>
      <trkpt lat="41.13648503087461" lon="-7.117302976548672">
        <ele>157.31</ele>
        <time>2025-05-02T14:40:26Z</time>
      </trkpt>
      <trkpt lat="41.136411018669605" lon="-7.11708202958107">
        <ele>156.34999999999999</ele>
        <time>2025-05-02T14:40:27Z</time>
      </trkpt>
      <trkpt lat="41.136344969272614" lon="-7.11686996743083">
        <ele>155.38999999999999</ele>
        <time>2025-05-02T14:40:28Z</time>
      </trkpt>
      <trkpt lat="41.136311022564769" lon="-7.11665497161448">
        <ele>154.91</ele>
        <time>2025-05-02T14:40:29Z</time>
      </trkpt>
      <trkpt lat="41.136311022564769" lon="-7.116446010768414">
        <ele>153.94999999999999</ele>
        <time>2025-05-02T14:40:30Z</time>
      </trkpt>
      <trkpt lat="41.136311022564769" lon="-7.116241995245218">
        <ele>153.47</ele>
        <time>2025-05-02T14:40:31Z</time>
      </trkpt>
      <trkpt lat="41.136458041146398" lon="-7.1149339992553">
        <ele>148.66</ele>
        <time>2025-05-02T14:40:39Z</time>
      </trkpt>
      <trkpt lat="41.136429039761424" lon="-7.114807013422251">
        <ele>148.66</ele>
        <time>2025-05-02T14:40:40Z</time>
      </trkpt>
      <trkpt lat="41.136397020891309" lon="-7.11469997651875">
        <ele>148.18000000000001</ele>
        <time>2025-05-02T14:40:41Z</time>
      </trkpt>
      <trkpt lat="41.136332983151078" lon="-7.114635016769171">
        <ele>147.69999999999999</ele>
        <time>2025-05-02T14:40:42Z</time>
      </trkpt>
      <trkpt lat="41.136257965117693" lon="-7.114594029262662">
        <ele>147.22</ele>
        <time>2025-05-02T14:40:43Z</time>
      </trkpt>
      <trkpt lat="41.136173978447914" lon="-7.11454801261425">
        <ele>147.22</ele>
        <time>2025-05-02T14:40:44Z</time>
      </trkpt>
      <trkpt lat="41.136084040626884" lon="-7.114503001794219">
        <ele>147.22</ele>
        <time>2025-05-02T14:40:45Z</time>
      </trkpt>
      <trkpt lat="41.134870005771518" lon="-7.114184992387891">
        <ele>149.62</ele>
        <time>2025-05-02T14:40:55Z</time>
      </trkpt>
      <trkpt lat="41.132904030382633" lon="-7.1136440243572">
        <ele>153.47</ele>
        <time>2025-05-02T14:41:11Z</time>
      </trkpt>
      <trkpt lat="41.13268400542438" lon="-7.11360496468842">
        <ele>153.94999999999999</ele>
        <time>2025-05-02T14:41:13Z</time>
      </trkpt>
      <trkpt lat="41.13259800709784" lon="-7.113613011315465">
        <ele>153.94999999999999</ele>
        <time>2025-05-02T14:41:14Z</time>
      </trkpt>
      <trkpt lat="41.132503962144256" lon="-7.113622985780239">
        <ele>153.94999999999999</ele>
        <time>2025-05-02T14:41:15Z</time>
      </trkpt>
      <trkpt lat="41.1324049718678" lon="-7.11369096301496">
        <ele>153.94999999999999</ele>
        <time>2025-05-02T14:41:16Z</time>
      </trkpt>
      <trkpt lat="41.132324002683163" lon="-7.113772016018629">
        <ele>153.94999999999999</ele>
        <time>2025-05-02T14:41:17Z</time>
      </trkpt>
      <trkpt lat="41.132247978821397" lon="-7.113897996023297">
        <ele>153.47</ele>
        <time>2025-05-02T14:41:18Z</time>
      </trkpt>
      <trkpt lat="41.132199028506875" lon="-7.114035962149501">
        <ele>153.47</ele>
        <time>2025-05-02T14:41:19Z</time>
      </trkpt>
      <trkpt lat="41.132154017686844" lon="-7.114193039014936">
        <ele>153.47</ele>
        <time>2025-05-02T14:41:20Z</time>
      </trkpt>
      <trkpt lat="41.132120992988348" lon="-7.114343997091055">
        <ele>153.47</ele>
        <time>2025-05-02T14:41:21Z</time>
      </trkpt>
      <trkpt lat="41.132091991603374" lon="-7.114491015672684">
        <ele>152.99000000000001</ele>
        <time>2025-05-02T14:41:22Z</time>
      </trkpt>
      <trkpt lat="41.132067013531923" lon="-7.114628981798887">
        <ele>152.99000000000001</ele>
        <time>2025-05-02T14:41:23Z</time>
      </trkpt>
      <trkpt lat="41.131774988025427" lon="-7.116340985521674">
        <ele>150.58000000000001</ele>
        <time>2025-05-02T14:41:35Z</time>
      </trkpt>
      <trkpt lat="41.131461001932621" lon="-7.118281982839108">
        <ele>148.66</ele>
        <time>2025-05-02T14:41:47Z</time>
      </trkpt>
      <trkpt lat="41.131461001932621" lon="-7.118461020290852">
        <ele>148.18000000000001</ele>
        <time>2025-05-02T14:41:48Z</time>
      </trkpt>
      <trkpt lat="41.13148296251893" lon="-7.119613029062748">
        <ele>147.69999999999999</ele>
        <time>2025-05-02T14:41:55Z</time>
      </trkpt>
      <trkpt lat="41.131455972790718" lon="-7.119760969653726">
        <ele>147.69999999999999</ele>
        <time>2025-05-02T14:41:56Z</time>
      </trkpt>
      <trkpt lat="41.131429988890886" lon="-7.119904970750213">
        <ele>147.69999999999999</ele>
        <time>2025-05-02T14:41:57Z</time>
      </trkpt>
      <trkpt lat="41.131405010819435" lon="-7.120047966018319">
        <ele>148.18000000000001</ele>
        <time>2025-05-02T14:41:58Z</time>
      </trkpt>
      <trkpt lat="41.131380032747984" lon="-7.120187021791935">
        <ele>148.66</ele>
        <time>2025-05-02T14:41:59Z</time>
      </trkpt>
      <trkpt lat="41.131139975041151" lon="-7.120781969279051">
        <ele>152.03</ele>
        <time>2025-05-02T14:42:06Z</time>
      </trkpt>
      <trkpt lat="41.131040984764695" lon="-7.121019009500742">
        <ele>154.91</ele>
        <time>2025-05-02T14:42:14Z</time>
      </trkpt>
      <trkpt lat="41.131010977551341" lon="-7.121093021705747">
        <ele>155.38999999999999</ele>
        <time>2025-05-02T14:42:24Z</time>
      </trkpt>
      <trkpt lat="41.130589032545686" lon="-7.121781008318067">
        <ele>157.31</ele>
        <time>2025-05-02T14:42:32Z</time>
      </trkpt>
      <trkpt lat="41.129670040681958" lon="-7.123037958517671">
        <ele>163.56</ele>
        <time>2025-05-02T14:42:44Z</time>
      </trkpt>
      <trkpt lat="41.128518031910062" lon="-7.124176975339651">
        <ele>171.25</ele>
        <time>2025-05-02T14:42:56Z</time>
      </trkpt>
      <trkpt lat="41.128232041373849" lon="-7.124391971156001">
        <ele>175.09999999999999</ele>
        <time>2025-05-02T14:42:59Z</time>
      </trkpt>
      <trkpt lat="41.127497032284737" lon="-7.124635968357325">
        <ele>184.22999999999999</ele>
        <time>2025-05-02T14:43:07Z</time>
      </trkpt>
      <trkpt lat="41.127426959574223" lon="-7.124720038846135">
        <ele>184.71000000000001</ele>
        <time>2025-05-02T14:43:08Z</time>
      </trkpt>
      <trkpt lat="41.127379015088081" lon="-7.124720038846135">
        <ele>185.66999999999999</ele>
        <time>2025-05-02T14:43:09Z</time>
      </trkpt>
      <trkpt lat="41.127320006489754" lon="-7.124720038846135">
        <ele>186.15000000000001</ele>
        <time>2025-05-02T14:43:10Z</time>
      </trkpt>
      <trkpt lat="41.127265021204948" lon="-7.124656001105905">
        <ele>186.63</ele>
        <time>2025-05-02T14:43:11Z</time>
      </trkpt>
      <trkpt lat="41.127209030091763" lon="-7.124590035527945">
        <ele>187.11000000000001</ele>
        <time>2025-05-02T14:43:12Z</time>
      </trkpt>
      <trkpt lat="41.127191008999944" lon="-7.124509988352656">
        <ele>187.11000000000001</ele>
        <time>2025-05-02T14:43:13Z</time>
      </trkpt>
      <trkpt lat="41.127191008999944" lon="-7.124407980591059">
        <ele>187.59</ele>
        <time>2025-05-02T14:43:14Z</time>
      </trkpt>
      <trkpt lat="41.127080032601953" lon="-7.124329023063183">
        <ele>188.08000000000001</ele>
        <time>2025-05-02T14:43:15Z</time>
      </trkpt>
      <trkpt lat="41.127007026225328" lon="-7.124285018071532">
        <ele>188.56</ele>
        <time>2025-05-02T14:43:16Z</time>
      </trkpt>
      <trkpt lat="41.126911975443363" lon="-7.124226009473205">
        <ele>189.03999999999999</ele>
        <time>2025-05-02T14:43:17Z</time>
      </trkpt>
      <trkpt lat="41.126833017915487" lon="-7.12421796284616">
        <ele>190</ele>
        <time>2025-05-02T14:43:18Z</time>
      </trkpt>
      <trkpt lat="41.126735033467412" lon="-7.124207988381386">
        <ele>190.47999999999999</ele>
        <time>2025-05-02T14:43:19Z</time>
      </trkpt>
      <trkpt lat="41.126333959400654" lon="-7.124168006703258">
        <ele>193.84</ele>
        <time>2025-05-02T14:43:23Z</time>
      </trkpt>
      <trkpt lat="41.126220971345901" lon="-7.124174041673541">
        <ele>194.31999999999999</ele>
        <time>2025-05-02T14:43:24Z</time>
      </trkpt>
      <trkpt lat="41.126104965806007" lon="-7.124202959239483">
        <ele>195.28</ele>
        <time>2025-05-02T14:43:25Z</time>
      </trkpt>
      <trkpt lat="41.124894032254815" lon="-7.124752979725599">
        <ele>202.49000000000001</ele>
        <time>2025-05-02T14:43:34Z</time>
      </trkpt>
      <trkpt lat="41.123601961880922" lon="-7.125229993835092">
        <ele>210.19</ele>
        <time>2025-05-02T14:43:43Z</time>
      </trkpt>
      <trkpt lat="41.123343966901302" lon="-7.12537701241672">
        <ele>211.63</ele>
        <time>2025-05-02T14:43:45Z</time>
      </trkpt>
      <trkpt lat="41.123218992725015" lon="-7.125452030450106">
        <ele>212.11000000000001</ele>
        <time>2025-05-02T14:43:46Z</time>
      </trkpt>
      <trkpt lat="41.123102987185121" lon="-7.125556971877813">
        <ele>213.06999999999999</ele>
        <time>2025-05-02T14:43:47Z</time>
      </trkpt>
      <trkpt lat="41.122742984443903" lon="-7.125858971849084">
        <ele>215.47</ele>
        <time>2025-05-02T14:43:50Z</time>
      </trkpt>
      <trkpt lat="41.122622033581138" lon="-7.125957040116191">
        <ele>216.43000000000001</ele>
        <time>2025-05-02T14:43:51Z</time>
      </trkpt>
      <trkpt lat="41.121347984299064" lon="-7.126566991209984">
        <ele>222.68000000000001</ele>
        <time>2025-05-02T14:44:00Z</time>
      </trkpt>
      <trkpt lat="41.121217980980873" lon="-7.12666598148644">
        <ele>223.16</ele>
        <time>2025-05-02T14:44:01Z</time>
      </trkpt>
      <trkpt lat="41.121088983491063" lon="-7.126768995076418">
        <ele>223.16</ele>
        <time>2025-05-02T14:44:02Z</time>
      </trkpt>
      <trkpt lat="41.120984964072704" lon="-7.126910984516144">
        <ele>223.16</ele>
        <time>2025-05-02T14:44:03Z</time>
      </trkpt>
      <trkpt lat="41.120881028473377" lon="-7.12705297395587">
        <ele>223.63999999999999</ele>
        <time>2025-05-02T14:44:04Z</time>
      </trkpt>
      <trkpt lat="41.120811039581895" lon="-7.127240980044007">
        <ele>223.63999999999999</ele>
        <time>2025-05-02T14:44:05Z</time>
      </trkpt>
      <trkpt lat="41.120753036811948" lon="-7.127432003617287">
        <ele>223.16</ele>
        <time>2025-05-02T14:44:06Z</time>
      </trkpt>
      <trkpt lat="41.120692016556859" lon="-7.127630989998579">
        <ele>223.16</ele>
        <time>2025-05-02T14:44:07Z</time>
      </trkpt>
      <trkpt lat="41.120455982163548" lon="-7.128396006301045">
        <ele>223.16</ele>
        <time>2025-05-02T14:44:11Z</time>
      </trkpt>
      <trkpt lat="41.120379958301783" lon="-7.128536989912391">
        <ele>223.16</ele>
        <time>2025-05-02T14:44:12Z</time>
      </trkpt>
      <trkpt lat="41.120280968025327" lon="-7.128658024594188">
        <ele>223.16</ele>
        <time>2025-05-02T14:44:13Z</time>
      </trkpt>
      <trkpt lat="41.120181977748871" lon="-7.128777969628573">
        <ele>223.16</ele>
        <time>2025-05-02T14:44:14Z</time>
      </trkpt>
      <trkpt lat="41.120069995522499" lon="-7.1288560051471">
        <ele>223.16</ele>
        <time>2025-05-02T14:44:15Z</time>
      </trkpt>
      <trkpt lat="41.11994300968945" lon="-7.128890035673976">
        <ele>223.16</ele>
        <time>2025-05-02T14:44:16Z</time>
      </trkpt>
      <trkpt lat="41.119809988886118" lon="-7.128924988210201">
        <ele>223.16</ele>
        <time>2025-05-02T14:44:17Z</time>
      </trkpt>
      <trkpt lat="41.119680991396308" lon="-7.128913002088666">
        <ele>223.16</ele>
        <time>2025-05-02T14:44:18Z</time>
      </trkpt>
      <trkpt lat="41.119543025270104" lon="-7.12889900431037">
        <ele>223.16</ele>
        <time>2025-05-02T14:44:19Z</time>
      </trkpt>
      <trkpt lat="41.118237962946296" lon="-7.12870798073709">
        <ele>224.12</ele>
        <time>2025-05-02T14:44:28Z</time>
      </trkpt>
      <trkpt lat="41.118107959628105" lon="-7.128643020987511">
        <ele>224.61000000000001</ele>
        <time>2025-05-02T14:44:29Z</time>
      </trkpt>
      <trkpt lat="41.117986002936959" lon="-7.128582000732422">
        <ele>225.09</ele>
        <time>2025-05-02T14:44:30Z</time>
      </trkpt>
      <trkpt lat="41.117889024317265" lon="-7.128461971879005">
        <ele>226.05000000000001</ele>
        <time>2025-05-02T14:44:31Z</time>
      </trkpt>
      <trkpt lat="41.117790034040809" lon="-7.128336997702718">
        <ele>226.05000000000001</ele>
        <time>2025-05-02T14:44:32Z</time>
      </trkpt>
      <trkpt lat="41.117705963551998" lon="-7.128194002434611">
        <ele>226.53</ele>
        <time>2025-05-02T14:44:33Z</time>
      </trkpt>
      <trkpt lat="41.117647960782051" lon="-7.12801999412477">
        <ele>227.00999999999999</ele>
        <time>2025-05-02T14:44:34Z</time>
      </trkpt>
      <trkpt lat="41.117629017680883" lon="-7.127831988036633">
        <ele>227.49000000000001</ele>
        <time>2025-05-02T14:44:35Z</time>
      </trkpt>
      <trkpt lat="41.117612002417445" lon="-7.127630989998579">
        <ele>227.97</ele>
        <time>2025-05-02T14:44:36Z</time>
      </trkpt>
      <trkpt lat="41.117479987442493" lon="-7.126394994556904">
        <ele>232.30000000000001</ele>
        <time>2025-05-02T14:44:42Z</time>
      </trkpt>
      <trkpt lat="41.117431959137321" lon="-7.126211011782289">
        <ele>233.25999999999999</ele>
        <time>2025-05-02T14:44:43Z</time>
      </trkpt>
      <trkpt lat="41.117346966639161" lon="-7.126053012907505">
        <ele>234.22</ele>
        <time>2025-05-02T14:44:44Z</time>
      </trkpt>
      <trkpt lat="41.117249988019466" lon="-7.125908005982637">
        <ele>235.18000000000001</ele>
        <time>2025-05-02T14:44:45Z</time>
      </trkpt>
      <trkpt lat="41.117134988307953" lon="-7.125784959644079">
        <ele>236.13999999999999</ele>
        <time>2025-05-02T14:44:46Z</time>
      </trkpt>
      <trkpt lat="41.117010014131665" lon="-7.125683035701513">
        <ele>236.62</ele>
        <time>2025-05-02T14:44:47Z</time>
      </trkpt>
      <trkpt lat="41.116496035829186" lon="-7.125223958864808">
        <ele>240.47</ele>
        <time>2025-05-02T14:44:51Z</time>
      </trkpt>
      <trkpt lat="41.116370977833867" lon="-7.125120023265481">
        <ele>241.43000000000001</ele>
        <time>2025-05-02T14:44:52Z</time>
      </trkpt>
      <trkpt lat="41.116234017536044" lon="-7.125079035758972">
        <ele>241.91</ele>
        <time>2025-05-02T14:44:53Z</time>
      </trkpt>
      <trkpt lat="41.11609797924757" lon="-7.125079035758972">
        <ele>242.87</ele>
        <time>2025-05-02T14:44:54Z</time>
      </trkpt>
      <trkpt lat="41.115965964272618" lon="-7.125111976638436">
        <ele>243.83000000000001</ele>
        <time>2025-05-02T14:44:55Z</time>
      </trkpt>
      <trkpt lat="41.115833027288318" lon="-7.125145001336932">
        <ele>244.78999999999999</ele>
        <time>2025-05-02T14:44:56Z</time>
      </trkpt>
      <trkpt lat="41.115712998434901" lon="-7.125254971906543">
        <ele>245.75</ele>
        <time>2025-05-02T14:44:57Z</time>
      </trkpt>
      <trkpt lat="41.11560202203691" lon="-7.125366032123566">
        <ele>246.22999999999999</ele>
        <time>2025-05-02T14:44:58Z</time>
      </trkpt>
      <trkpt lat="41.115506971254945" lon="-7.12550500407815">
        <ele>247.19999999999999</ele>
        <time>2025-05-02T14:44:59Z</time>
      </trkpt>
      <trkpt lat="41.11543295904994" lon="-7.125675994902849">
        <ele>247.68000000000001</ele>
        <time>2025-05-02T14:45:00Z</time>
      </trkpt>
      <trkpt lat="41.115357019007206" lon="-7.125854026526213">
        <ele>248.63999999999999</ele>
        <time>2025-05-02T14:45:01Z</time>
      </trkpt>
      <trkpt lat="41.115118972957134" lon="-7.126353001222014">
        <ele>250.56</ele>
        <time>2025-05-02T14:45:04Z</time>
      </trkpt>
      <trkpt lat="41.11504596658051" lon="-7.126478981226683">
        <ele>251.03999999999999</ele>
        <time>2025-05-02T14:45:05Z</time>
      </trkpt>
      <trkpt lat="41.11491403542459" lon="-7.126577971503139">
        <ele>251.52000000000001</ele>
        <time>2025-05-02T14:45:06Z</time>
      </trkpt>
      <trkpt lat="41.11478797160089" lon="-7.126672016456723">
        <ele>252</ele>
        <time>2025-05-02T14:45:07Z</time>
      </trkpt>
      <trkpt lat="41.114661991596222" lon="-7.126766983419657">
        <ele>252.96000000000001</ele>
        <time>2025-05-02T14:45:08Z</time>
      </trkpt>
      <trkpt lat="41.11452997662127" lon="-7.126848036423326">
        <ele>252.96000000000001</ele>
        <time>2025-05-02T14:45:09Z</time>
      </trkpt>
      <trkpt lat="41.113802008330822" lon="-7.127278028056026">
        <ele>255.37</ele>
        <time>2025-05-02T14:45:14Z</time>
      </trkpt>
      <trkpt lat="41.11366898752749" lon="-7.127378024160862">
        <ele>255.84999999999999</ele>
        <time>2025-05-02T14:45:15Z</time>
      </trkpt>
      <trkpt lat="41.113538984209299" lon="-7.127476008608937">
        <ele>256.81</ele>
        <time>2025-05-02T14:45:16Z</time>
      </trkpt>
      <trkpt lat="41.113405963405967" lon="-7.127574998885393">
        <ele>257.76999999999998</ele>
        <time>2025-05-02T14:45:17Z</time>
      </trkpt>
      <trkpt lat="41.113274032250047" lon="-7.127673989161849">
        <ele>258.25</ele>
        <time>2025-05-02T14:45:18Z</time>
      </trkpt>
      <trkpt lat="41.112392004579306" lon="-7.128111021593213">
        <ele>263.06</ele>
        <time>2025-05-02T14:45:24Z</time>
      </trkpt>
      <trkpt lat="41.11225001513958" lon="-7.128178998827934">
        <ele>263.54000000000002</ele>
        <time>2025-05-02T14:45:25Z</time>
      </trkpt>
      <trkpt lat="41.112119005993009" lon="-7.128272959962487">
        <ele>264.01999999999998</ele>
        <time>2025-05-02T14:45:26Z</time>
      </trkpt>
      <trkpt lat="41.111862016841769" lon="-7.128457026556134">
        <ele>265.45999999999998</ele>
        <time>2025-05-02T14:45:28Z</time>
      </trkpt>
      <trkpt lat="41.111722039058805" lon="-7.128517040982842">
        <ele>266.42000000000002</ele>
        <time>2025-05-02T14:45:29Z</time>
      </trkpt>
      <trkpt lat="41.111290035769343" lon="-7.128702029585838">
        <ele>268.35000000000002</ele>
        <time>2025-05-02T14:45:32Z</time>
      </trkpt>
      <trkpt lat="41.111149974167347" lon="-7.128761960193515">
        <ele>269.31</ele>
        <time>2025-05-02T14:45:33Z</time>
      </trkpt>
      <trkpt lat="41.110892985016108" lon="-7.128872014582157">
        <ele>270.75</ele>
        <time>2025-05-02T14:45:35Z</time>
      </trkpt>
      <trkpt lat="41.1107690166682" lon="-7.128924988210201">
        <ele>271.70999999999998</ele>
        <time>2025-05-02T14:45:36Z</time>
      </trkpt>
      <trkpt lat="41.110641025006771" lon="-7.128969999030232">
        <ele>272.67000000000002</ele>
        <time>2025-05-02T14:45:37Z</time>
      </trkpt>
      <trkpt lat="41.110243974253535" lon="-7.128977961838245">
        <ele>275.06999999999999</ele>
        <time>2025-05-02T14:45:40Z</time>
      </trkpt>
      <trkpt lat="41.110111959278584" lon="-7.128938985988498">
        <ele>276.04000000000002</ele>
        <time>2025-05-02T14:45:41Z</time>
      </trkpt>
      <trkpt lat="41.109993020072579" lon="-7.128865979611874">
        <ele>277</ele>
        <time>2025-05-02T14:45:42Z</time>
      </trkpt>
      <trkpt lat="41.109871985390782" lon="-7.128769000992179">
        <ele>277.95999999999998</ele>
        <time>2025-05-02T14:45:43Z</time>
      </trkpt>
      <trkpt lat="41.109748017042875" lon="-7.128670010715723">
        <ele>278.44</ele>
        <time>2025-05-02T14:45:44Z</time>
      </trkpt>
      <trkpt lat="41.109616002067924" lon="-7.128568002954125">
        <ele>279.39999999999998</ele>
        <time>2025-05-02T14:45:45Z</time>
      </trkpt>
      <trkpt lat="41.109488010406494" lon="-7.128489967435598">
        <ele>280.83999999999997</ele>
        <time>2025-05-02T14:45:46Z</time>
      </trkpt>
      <trkpt lat="41.109360018745065" lon="-7.128410004079342">
        <ele>281.31999999999999</ele>
        <time>2025-05-02T14:45:47Z</time>
      </trkpt>
      <trkpt lat="41.109218029305339" lon="-7.128398017957807">
        <ele>282.27999999999997</ele>
        <time>2025-05-02T14:45:48Z</time>
      </trkpt>
      <trkpt lat="41.109076039865613" lon="-7.128434982150793">
        <ele>283.25</ele>
        <time>2025-05-02T14:45:49Z</time>
      </trkpt>
      <trkpt lat="41.108927009627223" lon="-7.128473035991192">
        <ele>283.73000000000002</ele>
        <time>2025-05-02T14:45:50Z</time>
      </trkpt>
      <trkpt lat="41.107916990295053" lon="-7.128841001540422">
        <ele>289.97000000000003</ele>
        <time>2025-05-02T14:45:57Z</time>
      </trkpt>
      <trkpt lat="41.107801990583539" lon="-7.128918031230569">
        <ele>290.94</ele>
        <time>2025-05-02T14:45:58Z</time>
      </trkpt>
      <trkpt lat="41.107707023620605" lon="-7.129024984315038">
        <ele>291.42000000000002</ele>
        <time>2025-05-02T14:45:59Z</time>
      </trkpt>
      <trkpt lat="41.107619013637304" lon="-7.129149958491325">
        <ele>291.89999999999998</ele>
        <time>2025-05-02T14:46:00Z</time>
      </trkpt>
      <trkpt lat="41.107551958411932" lon="-7.129294965416193">
        <ele>292.86000000000001</ele>
        <time>2025-05-02T14:46:01Z</time>
      </trkpt>
      <trkpt lat="41.10750300809741" lon="-7.129464028403163">
        <ele>293.33999999999997</ele>
        <time>2025-05-02T14:46:02Z</time>
      </trkpt>
      <trkpt lat="41.10748196952045" lon="-7.129637030884624">
        <ele>294.30000000000001</ele>
        <time>2025-05-02T14:46:03Z</time>
      </trkpt>
      <trkpt lat="41.107483981177211" lon="-7.129823025316">
        <ele>294.77999999999997</ele>
        <time>2025-05-02T14:46:04Z</time>
      </trkpt>
      <trkpt lat="41.107507031410933" lon="-7.130003990605474">
        <ele>295.74000000000001</ele>
        <time>2025-05-02T14:46:05Z</time>
      </trkpt>
      <trkpt lat="41.107529997825623" lon="-7.130190990865231">
        <ele>296.22000000000003</ele>
        <time>2025-05-02T14:46:06Z</time>
      </trkpt>
      <trkpt lat="41.107536032795906" lon="-7.130373967811465">
        <ele>297.18000000000001</ele>
        <time>2025-05-02T14:46:07Z</time>
      </trkpt>
      <trkpt lat="41.107531003654003" lon="-7.130551999434829">
        <ele>297.67000000000002</ele>
        <time>2025-05-02T14:46:08Z</time>
      </trkpt>
      <trkpt lat="41.107486998662353" lon="-7.130714021623135">
        <ele>298.63</ele>
        <time>2025-05-02T14:46:09Z</time>
      </trkpt>
      <trkpt lat="41.107420027256012" lon="-7.13085500523448">
        <ele>299.58999999999997</ele>
        <time>2025-05-02T14:46:10Z</time>
      </trkpt>
      <trkpt lat="41.107338974252343" lon="-7.130987020209432">
        <ele>300.55000000000001</ele>
        <time>2025-05-02T14:46:11Z</time>
      </trkpt>
      <trkpt lat="41.107254987582564" lon="-7.131124986335635">
        <ele>301.02999999999997</ele>
        <time>2025-05-02T14:46:12Z</time>
      </trkpt>
      <trkpt lat="41.106306994333863" lon="-7.132356036454439">
        <ele>308.24000000000001</ele>
        <time>2025-05-02T14:46:20Z</time>
      </trkpt>
      <trkpt lat="41.105219023302197" lon="-7.133599994704127">
        <ele>315.93000000000001</ele>
        <time>2025-05-02T14:46:29Z</time>
      </trkpt>
      <trkpt lat="41.104094004258513" lon="-7.134168958291411">
        <ele>321.22000000000003</ele>
        <time>2025-05-02T14:46:37Z</time>
      </trkpt>
      <trkpt lat="41.103973975405097" lon="-7.134255962446332">
        <ele>321.22000000000003</ele>
        <time>2025-05-02T14:46:38Z</time>
      </trkpt>
      <trkpt lat="41.103862999007106" lon="-7.134351013228297">
        <ele>321.69999999999999</ele>
        <time>2025-05-02T14:46:39Z</time>
      </trkpt>
      <trkpt lat="41.103758979588747" lon="-7.134440029039979">
        <ele>321.69999999999999</ele>
        <time>2025-05-02T14:46:40Z</time>
      </trkpt>
      <trkpt lat="41.103716986253858" lon="-7.134588975459337">
        <ele>321.69999999999999</ele>
        <time>2025-05-02T14:46:41Z</time>
      </trkpt>
      <trkpt lat="41.103674992918968" lon="-7.134738005697727">
        <ele>322.18000000000001</ele>
        <time>2025-05-02T14:46:42Z</time>
      </trkpt>
      <trkpt lat="41.103632999584079" lon="-7.134888041764498">
        <ele>322.18000000000001</ele>
        <time>2025-05-02T14:46:43Z</time>
      </trkpt>
      <trkpt lat="41.103547001257539" lon="-7.135193981230259">
        <ele>322.18000000000001</ele>
        <time>2025-05-02T14:46:45Z</time>
      </trkpt>
      <trkpt lat="41.103486986830831" lon="-7.135321972891688">
        <ele>322.18000000000001</ele>
        <time>2025-05-02T14:46:46Z</time>
      </trkpt>
      <trkpt lat="41.103392019867897" lon="-7.135440995916724">
        <ele>322.66000000000003</ele>
        <time>2025-05-02T14:46:47Z</time>
      </trkpt>
      <trkpt lat="41.103266039863229" lon="-7.135598994791508">
        <ele>323.13999999999999</ele>
        <time>2025-05-02T14:46:48Z</time>
      </trkpt>
      <trkpt lat="41.103179035708308" lon="-7.135650962591171">
        <ele>323.62</ele>
        <time>2025-05-02T14:46:49Z</time>
      </trkpt>
      <trkpt lat="41.103047020733356" lon="-7.135730003938079">
        <ele>324.10000000000002</ele>
        <time>2025-05-02T14:46:50Z</time>
      </trkpt>
      <trkpt lat="41.102908970788121" lon="-7.135812984779477">
        <ele>324.57999999999998</ele>
        <time>2025-05-02T14:46:51Z</time>
      </trkpt>
      <trkpt lat="41.101640034466982" lon="-7.136623011901975">
        <ele>329.38999999999999</ele>
        <time>2025-05-02T14:46:59Z</time>
      </trkpt>
      <trkpt lat="41.101489998400211" lon="-7.13674396276474">
        <ele>329.87</ele>
        <time>2025-05-02T14:47:00Z</time>
      </trkpt>
      <trkpt lat="41.10133501701057" lon="-7.136864997446537">
        <ele>330.35000000000002</ele>
        <time>2025-05-02T14:47:01Z</time>
      </trkpt>
      <trkpt lat="41.101227980107069" lon="-7.136992989107966">
        <ele>330.82999999999998</ele>
        <time>2025-05-02T14:47:02Z</time>
      </trkpt>
      <trkpt lat="41.100792037323117" lon="-7.137452987954021">
        <ele>332.26999999999998</ele>
        <time>2025-05-02T14:47:06Z</time>
      </trkpt>
      <trkpt lat="41.100676031783223" lon="-7.137520965188742">
        <ele>332.75</ele>
        <time>2025-05-02T14:47:07Z</time>
      </trkpt>
      <trkpt lat="41.100536976009607" lon="-7.137566981837153">
        <ele>333.23000000000002</ele>
        <time>2025-05-02T14:47:08Z</time>
      </trkpt>
      <trkpt lat="41.100387023761868" lon="-7.137599000707269">
        <ele>333.70999999999998</ele>
        <time>2025-05-02T14:47:09Z</time>
      </trkpt>
      <trkpt lat="41.100229024887085" lon="-7.137609981000423">
        <ele>333.70999999999998</ele>
        <time>2025-05-02T14:47:10Z</time>
      </trkpt>
      <trkpt lat="41.100063985213637" lon="-7.137595983222127">
        <ele>334.19999999999999</ele>
        <time>2025-05-02T14:47:11Z</time>
      </trkpt>
      <trkpt lat="41.099892994388938" lon="-7.137565976008773">
        <ele>334.19999999999999</ele>
        <time>2025-05-02T14:47:12Z</time>
      </trkpt>
      <trkpt lat="41.099716974422336" lon="-7.137549966573715">
        <ele>334.68000000000001</ele>
        <time>2025-05-02T14:47:13Z</time>
      </trkpt>
      <trkpt lat="41.099539026618004" lon="-7.137533035129309">
        <ele>334.68000000000001</ele>
        <time>2025-05-02T14:47:14Z</time>
      </trkpt>
      <trkpt lat="41.09935998916626" lon="-7.137530017644167">
        <ele>334.68000000000001</ele>
        <time>2025-05-02T14:47:15Z</time>
      </trkpt>
      <trkpt lat="41.098490031436086" lon="-7.137594977393746">
        <ele>336.12</ele>
        <time>2025-05-02T14:47:21Z</time>
      </trkpt>
      <trkpt lat="41.098384000360966" lon="-7.137650968506932">
        <ele>336.60000000000002</ele>
        <time>2025-05-02T14:47:22Z</time>
      </trkpt>
      <trkpt lat="41.098301019519567" lon="-7.137760017067194">
        <ele>336.60000000000002</ele>
        <time>2025-05-02T14:47:23Z</time>
      </trkpt>
      <trkpt lat="41.098216027021408" lon="-7.137868981808424">
        <ele>337.07999999999998</ele>
        <time>2025-05-02T14:47:24Z</time>
      </trkpt>
      <trkpt lat="41.098158024251461" lon="-7.137998985126615">
        <ele>337.56</ele>
        <time>2025-05-02T14:47:25Z</time>
      </trkpt>
      <trkpt lat="41.098112007603049" lon="-7.138165030628443">
        <ele>338.04000000000002</ele>
        <time>2025-05-02T14:47:26Z</time>
      </trkpt>
      <trkpt lat="41.098063979297876" lon="-7.138341972604394">
        <ele>339</ele>
        <time>2025-05-02T14:47:27Z</time>
      </trkpt>
      <trkpt lat="41.098019974306226" lon="-7.138526039198041">
        <ele>339.48000000000002</ele>
        <time>2025-05-02T14:47:28Z</time>
      </trkpt>
      <trkpt lat="41.097911009564996" lon="-7.139274040237069">
        <ele>343.81</ele>
        <time>2025-05-02T14:47:32Z</time>
      </trkpt>
      <trkpt lat="41.097892988473177" lon="-7.139591965824366">
        <ele>345.73000000000002</ele>
        <time>2025-05-02T14:47:34Z</time>
      </trkpt>
      <trkpt lat="41.097885025665164" lon="-7.139755999669433">
        <ele>346.69</ele>
        <time>2025-05-02T14:47:35Z</time>
      </trkpt>
      <trkpt lat="41.097850995138288" lon="-7.139911986887455">
        <ele>347.17000000000002</ele>
        <time>2025-05-02T14:47:36Z</time>
      </trkpt>
      <trkpt lat="41.097763990983367" lon="-7.140041990205646">
        <ele>348.13</ele>
        <time>2025-05-02T14:47:37Z</time>
      </trkpt>
      <trkpt lat="41.097673969343305" lon="-7.140177022665739">
        <ele>348.62</ele>
        <time>2025-05-02T14:47:38Z</time>
      </trkpt>
      <trkpt lat="41.097566010430455" lon="-7.140289004892111">
        <ele>349.10000000000002</ele>
        <time>2025-05-02T14:47:39Z</time>
      </trkpt>
      <trkpt lat="41.097436007112265" lon="-7.140367040410638">
        <ele>350.06</ele>
        <time>2025-05-02T14:47:40Z</time>
      </trkpt>
      <trkpt lat="41.097306003794074" lon="-7.140444992110133">
        <ele>350.54000000000002</ele>
        <time>2025-05-02T14:47:41Z</time>
      </trkpt>
      <trkpt lat="41.097184969112277" lon="-7.140512969344854">
        <ele>351.01999999999998</ele>
        <time>2025-05-02T14:47:42Z</time>
      </trkpt>
      <trkpt lat="41.097048008814454" lon="-7.140519004315138">
        <ele>351.5</ele>
        <time>2025-05-02T14:47:43Z</time>
      </trkpt>
      <trkpt lat="41.096901996061206" lon="-7.14052596129477">
        <ele>351.98000000000002</ele>
        <time>2025-05-02T14:47:44Z</time>
      </trkpt>
      <trkpt lat="41.096593039110303" lon="-7.140497965738177">
        <ele>352.94</ele>
        <time>2025-05-02T14:47:46Z</time>
      </trkpt>
      <trkpt lat="41.096293972805142" lon="-7.140426971018314">
        <ele>353.89999999999998</ele>
        <time>2025-05-02T14:47:48Z</time>
      </trkpt>
      <trkpt lat="41.096164975315332" lon="-7.140463013201952">
        <ele>354.38</ele>
        <time>2025-05-02T14:47:49Z</time>
      </trkpt>
      <trkpt lat="41.09607202000916" lon="-7.140539037063718">
        <ele>354.38</ele>
        <time>2025-05-02T14:47:50Z</time>
      </trkpt>
      <trkpt lat="41.095981998369098" lon="-7.14063199236989">
        <ele>354.86000000000001</ele>
        <time>2025-05-02T14:47:51Z</time>
      </trkpt>
      <trkpt lat="41.095894994214177" lon="-7.140743974596262">
        <ele>355.82999999999998</ele>
        <time>2025-05-02T14:47:52Z</time>
      </trkpt>
      <trkpt lat="41.095808995887637" lon="-7.140854028984904">
        <ele>356.31</ele>
        <time>2025-05-02T14:47:53Z</time>
      </trkpt>
      <trkpt lat="41.095722997561097" lon="-7.140965005382896">
        <ele>357.26999999999998</ele>
        <time>2025-05-02T14:47:54Z</time>
      </trkpt>
      <trkpt lat="41.095617972314358" lon="-7.141032982617617">
        <ele>358.23000000000002</ele>
        <time>2025-05-02T14:47:55Z</time>
      </trkpt>
      <trkpt lat="41.095519987866282" lon="-7.141070030629635">
        <ele>359.19</ele>
        <time>2025-05-02T14:47:56Z</time>
      </trkpt>
      <trkpt lat="41.09538696706295" lon="-7.141057038679719">
        <ele>359.67000000000002</ele>
        <time>2025-05-02T14:47:57Z</time>
      </trkpt>
      <trkpt lat="41.095271967351437" lon="-7.1410390175879">
        <ele>360.63</ele>
        <time>2025-05-02T14:47:58Z</time>
      </trkpt>
      <trkpt lat="41.095145987346768" lon="-7.141000041738153">
        <ele>361.58999999999997</ele>
        <time>2025-05-02T14:47:59Z</time>
      </trkpt>
      <trkpt lat="41.095011960715055" lon="-7.140958970412612">
        <ele>362.06999999999999</ele>
        <time>2025-05-02T14:48:00Z</time>
      </trkpt>
      <trkpt lat="41.094875000417233" lon="-7.140916977077723">
        <ele>363.04000000000002</ele>
        <time>2025-05-02T14:48:01Z</time>
      </trkpt>
      <trkpt lat="41.094216015189886" lon="-7.140815975144506">
        <ele>365.92000000000002</ele>
        <time>2025-05-02T14:48:06Z</time>
      </trkpt>
      <trkpt lat="41.094087017700076" lon="-7.140843970701098">
        <ele>366.88</ele>
        <time>2025-05-02T14:48:07Z</time>
      </trkpt>
      <trkpt lat="41.093958020210266" lon="-7.140871966257691">
        <ele>367.36000000000001</ele>
        <time>2025-05-02T14:48:08Z</time>
      </trkpt>
      <trkpt lat="41.093826005235314" lon="-7.140917982906103">
        <ele>368.31999999999999</ele>
        <time>2025-05-02T14:48:09Z</time>
      </trkpt>
      <trkpt lat="41.09368703328073" lon="-7.140971040353179">
        <ele>369.27999999999997</ele>
        <time>2025-05-02T14:48:10Z</time>
      </trkpt>
      <trkpt lat="41.093563986942172" lon="-7.141057038679719">
        <ele>370.24000000000001</ele>
        <time>2025-05-02T14:48:11Z</time>
      </trkpt>
      <trkpt lat="41.093443036079407" lon="-7.141155023127794">
        <ele>371.20999999999998</ele>
        <time>2025-05-02T14:48:12Z</time>
      </trkpt>
      <trkpt lat="41.093319989740849" lon="-7.141255019232631">
        <ele>371.69</ele>
        <time>2025-05-02T14:48:13Z</time>
      </trkpt>
      <trkpt lat="41.093217981979251" lon="-7.141387034207583">
        <ele>372.64999999999998</ele>
        <time>2025-05-02T14:48:14Z</time>
      </trkpt>
      <trkpt lat="41.093115974217653" lon="-7.141523994505405">
        <ele>373.61000000000001</ele>
        <time>2025-05-02T14:48:15Z</time>
      </trkpt>
      <trkpt lat="41.092594033107162" lon="-7.142166970297694">
        <ele>378.89999999999998</ele>
        <time>2025-05-02T14:48:20Z</time>
      </trkpt>
      <trkpt lat="41.092480961233377" lon="-7.142253974452615">
        <ele>380.33999999999997</ele>
        <time>2025-05-02T14:48:21Z</time>
      </trkpt>
      <trkpt lat="41.09235699288547" lon="-7.14230895973742">
        <ele>381.30000000000001</ele>
        <time>2025-05-02T14:48:22Z</time>
      </trkpt>
      <trkpt lat="41.092245010659099" lon="-7.142295967787504">
        <ele>382.74000000000001</ele>
        <time>2025-05-02T14:48:23Z</time>
      </trkpt>
      <trkpt lat="41.092124981805682" lon="-7.142273001372814">
        <ele>383.69999999999999</ele>
        <time>2025-05-02T14:48:24Z</time>
      </trkpt>
      <trkpt lat="41.091996990144253" lon="-7.142249029129744">
        <ele>385.14999999999998</ele>
        <time>2025-05-02T14:48:25Z</time>
      </trkpt>
      <trkpt lat="41.091872015967965" lon="-7.142221033573151">
        <ele>385.63</ele>
        <time>2025-05-02T14:48:26Z</time>
      </trkpt>
      <trkpt lat="41.091740000993013" lon="-7.142168981954455">
        <ele>386.58999999999997</ele>
        <time>2025-05-02T14:48:27Z</time>
      </trkpt>
      <trkpt lat="41.091609997674823" lon="-7.142119025811553">
        <ele>387.55000000000001</ele>
        <time>2025-05-02T14:48:28Z</time>
      </trkpt>
      <trkpt lat="41.091473037377" lon="-7.142081977799535">
        <ele>388.50999999999999</ele>
        <time>2025-05-02T14:48:29Z</time>
      </trkpt>
      <trkpt lat="41.091333981603384" lon="-7.14209295809269">
        <ele>388.99000000000001</ele>
        <time>2025-05-02T14:48:30Z</time>
      </trkpt>
      <trkpt lat="41.091191992163658" lon="-7.142149033024907">
        <ele>389.47000000000003</ele>
        <time>2025-05-02T14:48:31Z</time>
      </trkpt>
      <trkpt lat="41.091071963310242" lon="-7.142250034958124">
        <ele>390.43000000000001</ele>
        <time>2025-05-02T14:48:32Z</time>
      </trkpt>
      <trkpt lat="41.090949000790715" lon="-7.142352964729071">
        <ele>391.38999999999999</ele>
        <time>2025-05-02T14:48:33Z</time>
      </trkpt>
      <trkpt lat="41.090826960280538" lon="-7.142462013289332">
        <ele>392.36000000000001</ele>
        <time>2025-05-02T14:48:34Z</time>
      </trkpt>
      <trkpt lat="41.089719962328672" lon="-7.143675964325666">
        <ele>401.97000000000003</ele>
        <time>2025-05-02T14:48:45Z</time>
      </trkpt>
      <trkpt lat="41.0896270070225" lon="-7.143732039257884">
        <ele>402.93000000000001</ele>
        <time>2025-05-02T14:48:46Z</time>
      </trkpt>
      <trkpt lat="41.089530028402805" lon="-7.143791969865561">
        <ele>403.41000000000003</ele>
        <time>2025-05-02T14:48:47Z</time>
      </trkpt>
      <trkpt lat="41.08943497762084" lon="-7.143820971250534">
        <ele>404.37</ele>
        <time>2025-05-02T14:48:48Z</time>
      </trkpt>
      <trkpt lat="41.089330958202481" lon="-7.143829017877579">
        <ele>404.85000000000002</ele>
        <time>2025-05-02T14:48:49Z</time>
      </trkpt>
      <trkpt lat="41.089211013168097" lon="-7.143837986513972">
        <ele>405.32999999999998</ele>
        <time>2025-05-02T14:48:50Z</time>
      </trkpt>
      <trkpt lat="41.089138006791472" lon="-7.143827006220818">
        <ele>406.29000000000002</ele>
        <time>2025-05-02T14:48:51Z</time>
      </trkpt>
      <trkpt lat="41.089054020121694" lon="-7.143815020099282">
        <ele>406.76999999999998</ele>
        <time>2025-05-02T14:48:52Z</time>
      </trkpt>
      <trkpt lat="41.088931979611516" lon="-7.143795993179083">
        <ele>407.25999999999999</ele>
        <time>2025-05-02T14:48:53Z</time>
      </trkpt>
      <trkpt lat="41.088887974619865" lon="-7.143781995400786">
        <ele>407.74000000000001</ele>
        <time>2025-05-02T14:48:54Z</time>
      </trkpt>
      <trkpt lat="41.088739028200507" lon="-7.143537998199463">
        <ele>408.22000000000003</ele>
        <time>2025-05-02T14:48:55Z</time>
      </trkpt>
      <trkpt lat="41.088728969916701" lon="-7.143507990986109">
        <ele>408.69999999999999</ele>
        <time>2025-05-02T14:48:56Z</time>
      </trkpt>
      <trkpt lat="41.088688988238573" lon="-7.143389973789454">
        <ele>409.18000000000001</ele>
        <time>2025-05-02T14:48:57Z</time>
      </trkpt>
      <trkpt lat="41.088650012388825" lon="-7.143275979906321">
        <ele>409.18000000000001</ele>
        <time>2025-05-02T14:48:58Z</time>
      </trkpt>
      <trkpt lat="41.088612964376807" lon="-7.143168020993471">
        <ele>409.66000000000003</ele>
        <time>2025-05-02T14:48:59Z</time>
      </trkpt>
      <trkpt lat="41.088578011840582" lon="-7.143065007403493">
        <ele>410.13999999999999</ele>
        <time>2025-05-02T14:49:00Z</time>
      </trkpt>
      <trkpt lat="41.088238041847944" lon="-7.142222039401531">
        <ele>410.62</ele>
        <time>2025-05-02T14:49:08Z</time>
      </trkpt>
      <trkpt lat="41.087533039972186" lon="-7.141389967873693">
        <ele>408.22000000000003</ele>
        <time>2025-05-02T14:49:17Z</time>
      </trkpt>
      <trkpt lat="41.086310036480427" lon="-7.14047902263701">
        <ele>406.29000000000002</ele>
        <time>2025-05-02T14:49:29Z</time>
      </trkpt>
      <trkpt lat="41.085842996835709" lon="-7.140082977712154">
        <ele>406.29000000000002</ele>
        <time>2025-05-02T14:49:34Z</time>
      </trkpt>
      <trkpt lat="41.08494495972991" lon="-7.139264987781644">
        <ele>406.76999999999998</ele>
        <time>2025-05-02T14:49:45Z</time>
      </trkpt>
      <trkpt lat="41.084543969482183" lon="-7.13878596201539">
        <ele>407.25999999999999</ele>
        <time>2025-05-02T14:49:51Z</time>
      </trkpt>
      <trkpt lat="41.084487978368998" lon="-7.13871899060905">
        <ele>407.25999999999999</ele>
        <time>2025-05-02T14:49:52Z</time>
      </trkpt>
      <trkpt lat="41.084214979782701" lon="-7.138242982327938">
        <ele>410.13999999999999</ele>
        <time>2025-05-02T14:50:01Z</time>
      </trkpt>
      <trkpt lat="41.084208022803068" lon="-7.138229990378022">
        <ele>410.13999999999999</ele>
        <time>2025-05-02T14:50:02Z</time>
      </trkpt>
      <trkpt lat="41.084141973406076" lon="-7.138235019519925">
        <ele>410.62</ele>
        <time>2025-05-02T14:50:03Z</time>
      </trkpt>
      <trkpt lat="41.084101991727948" lon="-7.13826703839004">
        <ele>411.10000000000002</ele>
        <time>2025-05-02T14:50:04Z</time>
      </trkpt>
      <trkpt lat="41.084056980907917" lon="-7.138304002583027">
        <ele>411.10000000000002</ele>
        <time>2025-05-02T14:50:05Z</time>
      </trkpt>
      <trkpt lat="41.084009036421776" lon="-7.138343984261155">
        <ele>411.57999999999998</ele>
        <time>2025-05-02T14:50:06Z</time>
      </trkpt>
      <trkpt lat="41.083658002316952" lon="-7.138630980625749">
        <ele>413.5</ele>
        <time>2025-05-02T14:50:13Z</time>
      </trkpt>
      <trkpt lat="41.083622965961695" lon="-7.138658976182342">
        <ele>413.98000000000002</ele>
        <time>2025-05-02T14:50:14Z</time>
      </trkpt>
      <trkpt lat="41.083592958748341" lon="-7.138683032244444">
        <ele>414.47000000000003</ele>
        <time>2025-05-02T14:50:15Z</time>
      </trkpt>
      <trkpt lat="41.083566974848509" lon="-7.138704992830753">
        <ele>414.47000000000003</ele>
        <time>2025-05-02T14:50:16Z</time>
      </trkpt>
      <trkpt lat="41.083541996777058" lon="-7.138725025579333">
        <ele>414.94999999999999</ele>
        <time>2025-05-02T14:50:17Z</time>
      </trkpt>
      <trkpt lat="41.083517018705606" lon="-7.138744974508882">
        <ele>414.94999999999999</ele>
        <time>2025-05-02T14:50:18Z</time>
      </trkpt>
      <trkpt lat="41.083496985957026" lon="-7.138760983943939">
        <ele>415.43000000000001</ele>
        <time>2025-05-02T14:50:28Z</time>
      </trkpt>
      <trkpt lat="41.083449963480234" lon="-7.138799037784338">
        <ele>415.43000000000001</ele>
        <time>2025-05-02T14:50:31Z</time>
      </trkpt>
      <trkpt lat="41.083375029265881" lon="-7.138859974220395">
        <ele>415.43000000000001</ele>
        <time>2025-05-02T14:50:32Z</time>
      </trkpt>
      <trkpt lat="41.083375029265881" lon="-7.138859974220395">
        <ele>415.43000000000001</ele>
        <time>2025-05-02T14:50:45Z</time>
      </trkpt>
      <trkpt lat="41.083365976810455" lon="-7.138874977827072">
        <ele>415.43000000000001</ele>
        <time>2025-05-02T14:50:55Z</time>
      </trkpt>
      <trkpt lat="41.083345022052526" lon="-7.138913031667471">
        <ele>415.43000000000001</ele>
        <time>2025-05-02T14:50:56Z</time>
      </trkpt>
      <trkpt lat="41.083443006500602" lon="-7.139154011383653">
        <ele>415.91000000000003</ele>
        <time>2025-05-02T14:50:57Z</time>
      </trkpt>
      <trkpt lat="41.083429008722305" lon="-7.138920994475484">
        <ele>415.91000000000003</ele>
        <time>2025-05-02T14:50:58Z</time>
      </trkpt>
      <trkpt lat="41.083266986533999" lon="-7.139053009450436">
        <ele>415.91000000000003</ele>
        <time>2025-05-02T14:50:59Z</time>
      </trkpt>
      <trkpt lat="41.083261035382748" lon="-7.139044962823391">
        <ele>416.38999999999999</ele>
        <time>2025-05-02T14:51:00Z</time>
      </trkpt>
      <trkpt lat="41.083227004855871" lon="-7.139001041650772">
        <ele>416.87</ele>
        <time>2025-05-02T14:51:01Z</time>
      </trkpt>
      <trkpt lat="41.083188029006124" lon="-7.138948990032077">
        <ele>416.87</ele>
        <time>2025-05-02T14:51:02Z</time>
      </trkpt>
      <trkpt lat="41.083077974617481" lon="-7.13880498893559">
        <ele>417.82999999999998</ele>
        <time>2025-05-02T14:51:05Z</time>
      </trkpt>
      <trkpt lat="41.083042016252875" lon="-7.138757966458798">
        <ele>418.31</ele>
        <time>2025-05-02T14:51:06Z</time>
      </trkpt>
      <trkpt lat="41.083007985725999" lon="-7.138712033629417">
        <ele>418.31</ele>
        <time>2025-05-02T14:51:07Z</time>
      </trkpt>
      <trkpt lat="41.082976972684264" lon="-7.138671968132258">
        <ele>418.31</ele>
        <time>2025-05-02T14:51:08Z</time>
      </trkpt>
      <trkpt lat="41.082949982956052" lon="-7.138636009767652">
        <ele>418.79000000000002</ele>
        <time>2025-05-02T14:51:09Z</time>
      </trkpt>
      <trkpt lat="41.082891980186105" lon="-7.138558980077505">
        <ele>420.23000000000002</ele>
        <time>2025-05-02T14:51:17Z</time>
      </trkpt>
      <trkpt lat="41.08275200240314" lon="-7.138410033658147">
        <ele>420.70999999999998</ele>
        <time>2025-05-02T14:51:22Z</time>
      </trkpt>
      <trkpt lat="41.082711014896631" lon="-7.138368962332606">
        <ele>420.70999999999998</ele>
        <time>2025-05-02T14:51:23Z</time>
      </trkpt>
      <trkpt lat="41.082668015733361" lon="-7.138325041159987">
        <ele>420.70999999999998</ele>
        <time>2025-05-02T14:51:24Z</time>
      </trkpt>
      <trkpt lat="41.082627028226852" lon="-7.138283969834447">
        <ele>420.70999999999998</ele>
        <time>2025-05-02T14:51:25Z</time>
      </trkpt>
      <trkpt lat="41.082595009356737" lon="-7.138252034783363">
        <ele>420.70999999999998</ele>
        <time>2025-05-02T14:51:26Z</time>
      </trkpt>
      <trkpt lat="41.082570031285286" lon="-7.13822697289288">
        <ele>420.23000000000002</ele>
        <time>2025-05-02T14:51:27Z</time>
      </trkpt>
      <trkpt lat="41.082549998536706" lon="-7.138207023963332">
        <ele>420.23000000000002</ele>
        <time>2025-05-02T14:51:28Z</time>
      </trkpt>
      <trkpt lat="41.082532983273268" lon="-7.138190008699894">
        <ele>419.75</ele>
        <time>2025-05-02T14:51:29Z</time>
      </trkpt>
      <trkpt lat="41.08251596800983" lon="-7.138172993436456">
        <ele>419.26999999999998</ele>
        <time>2025-05-02T14:51:30Z</time>
      </trkpt>
      <trkpt lat="41.082499958574772" lon="-7.138157989829779">
        <ele>418.79000000000002</ele>
        <time>2025-05-02T14:51:31Z</time>
      </trkpt>
      <trkpt lat="41.082484032958746" lon="-7.138141980394721">
        <ele>418.79000000000002</ele>
        <time>2025-05-02T14:51:32Z</time>
      </trkpt>
      <trkpt lat="41.082357969135046" lon="-7.137916004285216">
        <ele>418.79000000000002</ele>
        <time>2025-05-02T14:51:33Z</time>
      </trkpt>
      <trkpt lat="41.082357969135046" lon="-7.137916004285216">
        <ele>418.79000000000002</ele>
        <time>2025-05-02T14:51:34Z</time>
      </trkpt>
      <trkpt lat="41.082538012415171" lon="-7.137959003448486">
        <ele>419.26999999999998</ele>
        <time>2025-05-02T14:51:45Z</time>
      </trkpt>
      <trkpt lat="41.082538012415171" lon="-7.137959003448486">
        <ele>419.26999999999998</ele>
        <time>2025-05-02T14:51:46Z</time>
      </trkpt>
      <trkpt lat="41.082561984658241" lon="-7.137983981519938">
        <ele>419.26999999999998</ele>
        <time>2025-05-02T14:51:47Z</time>
      </trkpt>
      <trkpt lat="41.082573970779777" lon="-7.137995967641473">
        <ele>419.75</ele>
        <time>2025-05-02T14:51:48Z</time>
      </trkpt>
      <trkpt lat="41.082586962729692" lon="-7.13800803758204">
        <ele>420.23000000000002</ele>
        <time>2025-05-02T14:51:49Z</time>
      </trkpt>
      <trkpt lat="41.082603977993131" lon="-7.138024969026446">
        <ele>420.23000000000002</ele>
        <time>2025-05-02T14:51:50Z</time>
      </trkpt>
      <trkpt lat="41.08262300491333" lon="-7.138043995946646">
        <ele>420.70999999999998</ele>
        <time>2025-05-02T14:51:51Z</time>
      </trkpt>
      <trkpt lat="41.082975966855884" lon="-7.138399975374341">
        <ele>421.68000000000001</ele>
        <time>2025-05-02T14:52:07Z</time>
      </trkpt>
      <trkpt lat="41.083057019859552" lon="-7.138491002842784">
        <ele>421.19</ele>
        <time>2025-05-02T14:52:17Z</time>
      </trkpt>
      <trkpt lat="41.083433032035828" lon="-7.138925017789006">
        <ele>419.26999999999998</ele>
        <time>2025-05-02T14:52:31Z</time>
      </trkpt>
      <trkpt lat="41.083467984572053" lon="-7.139138001948595">
        <ele>418.31</ele>
        <time>2025-05-02T14:52:34Z</time>
      </trkpt>
      <trkpt lat="41.083442000672221" lon="-7.139154011383653">
        <ele>418.31</ele>
        <time>2025-05-02T14:52:35Z</time>
      </trkpt>
      <trkpt lat="41.083416016772389" lon="-7.139171026647091">
        <ele>417.82999999999998</ele>
        <time>2025-05-02T14:52:36Z</time>
      </trkpt>
      <trkpt lat="41.083390032872558" lon="-7.139187958091497">
        <ele>418.31</ele>
        <time>2025-05-02T14:52:37Z</time>
      </trkpt>
      <trkpt lat="41.083266986533999" lon="-7.139053009450436">
        <ele>418.31</ele>
        <time>2025-05-02T14:52:38Z</time>
      </trkpt>
      <trkpt lat="41.083266986533999" lon="-7.139053009450436">
        <ele>418.31</ele>
        <time>2025-05-02T14:52:39Z</time>
      </trkpt>
      <trkpt lat="41.083255000412464" lon="-7.139038005843759">
        <ele>418.31</ele>
        <time>2025-05-02T14:52:40Z</time>
      </trkpt>
      <trkpt lat="41.083227004855871" lon="-7.139001041650772">
        <ele>418.31</ele>
        <time>2025-05-02T14:52:41Z</time>
      </trkpt>
      <trkpt lat="41.083200015127659" lon="-7.138964999467135">
        <ele>418.79000000000002</ele>
        <time>2025-05-02T14:52:42Z</time>
      </trkpt>
      <trkpt lat="41.083172019571066" lon="-7.138928035274148">
        <ele>418.79000000000002</ele>
        <time>2025-05-02T14:52:43Z</time>
      </trkpt>
      <trkpt lat="41.083145029842854" lon="-7.13889199309051">
        <ele>418.31</ele>
        <time>2025-05-02T14:52:44Z</time>
      </trkpt>
      <trkpt lat="41.083070011809468" lon="-7.138794008642435">
        <ele>418.31</ele>
        <time>2025-05-02T14:52:47Z</time>
      </trkpt>
      <trkpt lat="41.083046961575747" lon="-7.138764001429081">
        <ele>418.31</ele>
        <time>2025-05-02T14:52:48Z</time>
      </trkpt>
      <trkpt lat="41.083021983504295" lon="-7.138730976730585">
        <ele>418.31</ele>
        <time>2025-05-02T14:52:49Z</time>
      </trkpt>
      <trkpt lat="41.082995999604464" lon="-7.13869703002274">
        <ele>418.31</ele>
        <time>2025-05-02T14:52:50Z</time>
      </trkpt>
      <trkpt lat="41.08296699821949" lon="-7.138658976182342">
        <ele>418.31</ele>
        <time>2025-05-02T14:52:51Z</time>
      </trkpt>
      <trkpt lat="41.082937996834517" lon="-7.138621006160975">
        <ele>418.31</ele>
        <time>2025-05-02T14:52:52Z</time>
      </trkpt>
      <trkpt lat="41.082523008808494" lon="-7.1381810400635">
        <ele>418.79000000000002</ele>
        <time>2025-05-02T14:53:08Z</time>
      </trkpt>
      <trkpt lat="41.082489984109998" lon="-7.138148015365005">
        <ele>418.79000000000002</ele>
        <time>2025-05-02T14:53:10Z</time>
      </trkpt>
      <trkpt lat="41.082475986331701" lon="-7.138134017586708">
        <ele>418.31</ele>
        <time>2025-05-02T14:53:11Z</time>
      </trkpt>
      <trkpt lat="41.08253700658679" lon="-7.138023041188717">
        <ele>418.31</ele>
        <time>2025-05-02T14:53:15Z</time>
      </trkpt>
      <trkpt lat="41.082595009356737" lon="-7.137992028146982">
        <ele>417.82999999999998</ele>
        <time>2025-05-02T14:53:19Z</time>
      </trkpt>
      <trkpt lat="41.082859039306641" lon="-7.138211969286203">
        <ele>419.26999999999998</ele>
        <time>2025-05-02T14:53:38Z</time>
      </trkpt>
      <trkpt lat="41.082956017926335" lon="-7.13831003755331">
        <ele>421.19</ele>
        <time>2025-05-02T14:53:51Z</time>
      </trkpt>
      <trkpt lat="41.083003040403128" lon="-7.138265026733279">
        <ele>420.23000000000002</ele>
        <time>2025-05-02T14:54:05Z</time>
      </trkpt>
      <trkpt lat="41.083017960190773" lon="-7.138213980942965">
        <ele>420.23000000000002</ele>
        <time>2025-05-02T14:54:18Z</time>
      </trkpt>
    </trkseg>
  </trk>

</gpx>